﻿<?xml version="1.0" encoding="utf-8"?><gpx creator="Garmin Desktop App" version="1.1" xsi:schemaLocation="http://www.topografix.com/GPX/1/1 http://www.topografix.com/GPX/1/1/gpx.xsd http://www.garmin.com/xmlschemas/WaypointExtension/v1 http://www8.garmin.com/xmlschemas/WaypointExtensionv1.xsd http://www.garmin.com/xmlschemas/TrackPointExtension/v1 http://www.garmin.com/xmlschemas/TrackPointExtensionv1.xsd http://www.garmin.com/xmlschemas/GpxExtensions/v3 http://www8.garmin.com/xmlschemas/GpxExtensionsv3.xsd http://www.garmin.com/xmlschemas/ActivityExtension/v1 http://www8.garmin.com/xmlschemas/ActivityExtensionv1.xsd http://www.garmin.com/xmlschemas/AdventuresExtensions/v1 http://www8.garmin.com/xmlschemas/AdventuresExtensionv1.xsd http://www.garmin.com/xmlschemas/PressureExtension/v1 http://www.garmin.com/xmlschemas/PressureExtensionv1.xsd http://www.garmin.com/xmlschemas/TripExtensions/v1 http://www.garmin.com/xmlschemas/TripExtensionsv1.xsd http://www.garmin.com/xmlschemas/TripMetaDataExtensions/v1 http://www.garmin.com/xmlschemas/TripMetaDataExtensionsv1.xsd http://www.garmin.com/xmlschemas/ViaPointTransportationModeExtensions/v1 http://www.garmin.com/xmlschemas/ViaPointTransportationModeExtensionsv1.xsd http://www.garmin.com/xmlschemas/CreationTimeExtension/v1 http://www.garmin.com/xmlschemas/CreationTimeExtensionsv1.xsd http://www.garmin.com/xmlschemas/AccelerationExtension/v1 http://www.garmin.com/xmlschemas/AccelerationExtensionv1.xsd http://www.garmin.com/xmlschemas/PowerExtension/v1 http://www.garmin.com/xmlschemas/PowerExtensionv1.xsd http://www.garmin.com/xmlschemas/VideoExtension/v1 http://www.garmin.com/xmlschemas/VideoExtensionv1.xsd" xmlns="http://www.topografix.com/GPX/1/1" xmlns:xsi="http://www.w3.org/2001/XMLSchema-instance" xmlns:wptx1="http://www.garmin.com/xmlschemas/WaypointExtension/v1" xmlns:gpxtrx="http://www.garmin.com/xmlschemas/GpxExtensions/v3" xmlns:gpxtpx="http://www.garmin.com/xmlschemas/TrackPointExtension/v1" xmlns:gpxx="http://www.garmin.com/xmlschemas/GpxExtensions/v3" xmlns:trp="http://www.garmin.com/xmlschemas/TripExtensions/v1" xmlns:adv="http://www.garmin.com/xmlschemas/AdventuresExtensions/v1" xmlns:prs="http://www.garmin.com/xmlschemas/PressureExtension/v1" xmlns:tmd="http://www.garmin.com/xmlschemas/TripMetaDataExtensions/v1" xmlns:vptm="http://www.garmin.com/xmlschemas/ViaPointTransportationModeExtensions/v1" xmlns:ctx="http://www.garmin.com/xmlschemas/CreationTimeExtension/v1" xmlns:gpxacc="http://www.garmin.com/xmlschemas/AccelerationExtension/v1" xmlns:gpxpx="http://www.garmin.com/xmlschemas/PowerExtension/v1" xmlns:vidx1="http://www.garmin.com/xmlschemas/VideoExtension/v1">

  <metadata>
    <link href="http://www.garmin.com">
      <text>Garmin International</text>
    </link>
    <time>2025-05-17T16:17:22Z</time>
    <bounds maxlat="43.953749975189567" maxlon="6.093978965654969" minlat="43.532338980585337" minlon="4.598681973293424" />
  </metadata>

  <trk>
    <name>250517_G_Track</name>
    <extensions>
      <gpxx:TrackExtension>
        <gpxx:DisplayColor>DarkGray</gpxx:DisplayColor>
      </gpxx:TrackExtension>
    </extensions>
    <trkseg>
      <trkpt lat="43.677182961255312" lon="4.631563005968928">
        <ele>30.899999999999999</ele>
        <time>2025-05-17T06:34:04Z</time>
      </trkpt>
      <trkpt lat="43.677182961255312" lon="4.631564011797309">
        <ele>30.420000000000002</ele>
        <time>2025-05-17T06:34:36Z</time>
      </trkpt>
      <trkpt lat="43.677440034225583" lon="4.631752017885447">
        <ele>25.129999999999999</ele>
        <time>2025-05-17T06:34:46Z</time>
      </trkpt>
      <trkpt lat="43.677675984799862" lon="4.631788982078433">
        <ele>22.73</ele>
        <time>2025-05-17T06:34:52Z</time>
      </trkpt>
      <trkpt lat="43.677719989791512" lon="4.631788982078433">
        <ele>22.73</ele>
        <time>2025-05-17T06:34:53Z</time>
      </trkpt>
      <trkpt lat="43.677763994783163" lon="4.631788982078433">
        <ele>22.25</ele>
        <time>2025-05-17T06:34:54Z</time>
      </trkpt>
      <trkpt lat="43.67777899838984" lon="4.631788982078433">
        <ele>21.77</ele>
        <time>2025-05-17T06:34:55Z</time>
      </trkpt>
      <trkpt lat="43.677833983674645" lon="4.631733996793628">
        <ele>21.289999999999999</ele>
        <time>2025-05-17T06:34:56Z</time>
      </trkpt>
      <trkpt lat="43.677871031686664" lon="4.631697032600641">
        <ele>20.809999999999999</ele>
        <time>2025-05-17T06:34:57Z</time>
      </trkpt>
      <trkpt lat="43.677905984222889" lon="4.631660990417004">
        <ele>20.32</ele>
        <time>2025-05-17T06:34:58Z</time>
      </trkpt>
      <trkpt lat="43.677944960072637" lon="4.631638024002314">
        <ele>19.84</ele>
        <time>2025-05-17T06:34:59Z</time>
      </trkpt>
      <trkpt lat="43.677982008084655" lon="4.631617991253734">
        <ele>19.359999999999999</ele>
        <time>2025-05-17T06:35:00Z</time>
      </trkpt>
      <trkpt lat="43.678016038611531" lon="4.631597958505154">
        <ele>19.359999999999999</ele>
        <time>2025-05-17T06:35:01Z</time>
      </trkpt>
      <trkpt lat="43.678058031946421" lon="4.631573986262083">
        <ele>18.879999999999999</ele>
        <time>2025-05-17T06:35:02Z</time>
      </trkpt>
      <trkpt lat="43.678088039159775" lon="4.631560994312167">
        <ele>17.920000000000002</ele>
        <time>2025-05-17T06:35:03Z</time>
      </trkpt>
      <trkpt lat="43.678122991696" lon="4.63154599070549">
        <ele>17.920000000000002</ele>
        <time>2025-05-17T06:35:04Z</time>
      </trkpt>
      <trkpt lat="43.678158028051257" lon="4.631530987098813">
        <ele>17.440000000000001</ele>
        <time>2025-05-17T06:35:05Z</time>
      </trkpt>
      <trkpt lat="43.678193986415863" lon="4.631515983492136">
        <ele>16.48</ele>
        <time>2025-05-17T06:35:06Z</time>
      </trkpt>
      <trkpt lat="43.678230028599501" lon="4.631503997370601">
        <ele>16</ele>
        <time>2025-05-17T06:35:07Z</time>
      </trkpt>
      <trkpt lat="43.678528005257249" lon="4.63139302097261">
        <ele>15.52</ele>
        <time>2025-05-17T06:35:16Z</time>
      </trkpt>
      <trkpt lat="43.678571004420519" lon="4.63137399405241">
        <ele>15.039999999999999</ele>
        <time>2025-05-17T06:35:17Z</time>
      </trkpt>
      <trkpt lat="43.678735960274935" lon="4.631309034302831">
        <ele>14.56</ele>
        <time>2025-05-17T06:35:21Z</time>
      </trkpt>
      <trkpt lat="43.678780971094966" lon="4.631298976019025">
        <ele>14.56</ele>
        <time>2025-05-17T06:35:22Z</time>
      </trkpt>
      <trkpt lat="43.678828999400139" lon="4.631289001554251">
        <ele>14.56</ele>
        <time>2025-05-17T06:35:23Z</time>
      </trkpt>
      <trkpt lat="43.678887002170086" lon="4.631276009604335">
        <ele>14.56</ele>
        <time>2025-05-17T06:35:24Z</time>
      </trkpt>
      <trkpt lat="43.678941987454891" lon="4.6312640234828">
        <ele>14.56</ele>
        <time>2025-05-17T06:35:25Z</time>
      </trkpt>
      <trkpt lat="43.679245999082923" lon="4.631197974085808">
        <ele>14.56</ele>
        <time>2025-05-17T06:35:32Z</time>
      </trkpt>
      <trkpt lat="43.679280029609799" lon="4.631191017106175">
        <ele>14.56</ele>
        <time>2025-05-17T06:35:33Z</time>
      </trkpt>
      <trkpt lat="43.679313976317644" lon="4.631183976307511">
        <ele>14.56</ele>
        <time>2025-05-17T06:35:34Z</time>
      </trkpt>
      <trkpt lat="43.679349012672901" lon="4.631176013499498">
        <ele>14.08</ele>
        <time>2025-05-17T06:35:35Z</time>
      </trkpt>
      <trkpt lat="43.679382959380746" lon="4.631168972700834">
        <ele>14.08</ele>
        <time>2025-05-17T06:35:36Z</time>
      </trkpt>
      <trkpt lat="43.679414978250861" lon="4.631162015721202">
        <ele>14.08</ele>
        <time>2025-05-17T06:35:37Z</time>
      </trkpt>
      <trkpt lat="43.679443979635835" lon="4.631154974922538">
        <ele>14.08</ele>
        <time>2025-05-17T06:35:38Z</time>
      </trkpt>
      <trkpt lat="43.679473986849189" lon="4.631149023771286">
        <ele>14.08</ele>
        <time>2025-05-17T06:35:39Z</time>
      </trkpt>
      <trkpt lat="43.679508017376065" lon="4.631140977144241">
        <ele>13.6</ele>
        <time>2025-05-17T06:35:40Z</time>
      </trkpt>
      <trkpt lat="43.679542969912291" lon="4.631134020164609">
        <ele>13.6</ele>
        <time>2025-05-17T06:35:41Z</time>
      </trkpt>
      <trkpt lat="43.679578006267548" lon="4.631125973537564">
        <ele>13.119999999999999</ele>
        <time>2025-05-17T06:35:42Z</time>
      </trkpt>
      <trkpt lat="43.679687976837158" lon="4.631102001294494">
        <ele>13.119999999999999</ele>
        <time>2025-05-17T06:35:43Z</time>
      </trkpt>
      <trkpt lat="43.679687976837158" lon="4.631102001294494">
        <ele>12.630000000000001</ele>
        <time>2025-05-17T06:35:44Z</time>
      </trkpt>
      <trkpt lat="43.679687976837158" lon="4.631102001294494">
        <ele>11.19</ele>
        <time>2025-05-17T06:35:48Z</time>
      </trkpt>
      <trkpt lat="43.679783027619123" lon="4.631313979625702">
        <ele>11.19</ele>
        <time>2025-05-17T06:35:49Z</time>
      </trkpt>
      <trkpt lat="43.679581023752689" lon="4.631067970767617">
        <ele>10.710000000000001</ele>
        <time>2025-05-17T06:35:51Z</time>
      </trkpt>
      <trkpt lat="43.679652018472552" lon="4.630413008853793">
        <ele>9.75</ele>
        <time>2025-05-17T06:35:55Z</time>
      </trkpt>
      <trkpt lat="43.679623017087579" lon="4.630386019125581">
        <ele>9.27</ele>
        <time>2025-05-17T06:35:56Z</time>
      </trkpt>
      <trkpt lat="43.679452026262879" lon="4.630307983607054">
        <ele>8.789999999999999</ele>
        <time>2025-05-17T06:35:57Z</time>
      </trkpt>
      <trkpt lat="43.679452026262879" lon="4.630307983607054">
        <ele>7.83</ele>
        <time>2025-05-17T06:35:59Z</time>
      </trkpt>
      <trkpt lat="43.679450014606118" lon="4.630302032455802">
        <ele>6.39</ele>
        <time>2025-05-17T06:36:02Z</time>
      </trkpt>
      <trkpt lat="43.67943299934268" lon="4.630251992493868">
        <ele>5.91</ele>
        <time>2025-05-17T06:36:03Z</time>
      </trkpt>
      <trkpt lat="43.679414978250861" lon="4.630202036350966">
        <ele>5.42</ele>
        <time>2025-05-17T06:36:04Z</time>
      </trkpt>
      <trkpt lat="43.679397040978074" lon="4.63014897890389">
        <ele>4.94</ele>
        <time>2025-05-17T06:36:05Z</time>
      </trkpt>
      <trkpt lat="43.679379019886255" lon="4.630099022760987">
        <ele>4.46</ele>
        <time>2025-05-17T06:36:06Z</time>
      </trkpt>
      <trkpt lat="43.679363010451198" lon="4.630053006112576">
        <ele>3.98</ele>
        <time>2025-05-17T06:36:07Z</time>
      </trkpt>
      <trkpt lat="43.679345995187759" lon="4.630004977807403">
        <ele>3.5</ele>
        <time>2025-05-17T06:36:08Z</time>
      </trkpt>
      <trkpt lat="43.679287992417812" lon="4.629847984761">
        <ele>2.06</ele>
        <time>2025-05-17T06:36:11Z</time>
      </trkpt>
      <trkpt lat="43.679265026003122" lon="4.629799034446478">
        <ele>1.58</ele>
        <time>2025-05-17T06:36:12Z</time>
      </trkpt>
      <trkpt lat="43.679241975769401" lon="4.629751006141305">
        <ele>1.58</ele>
        <time>2025-05-17T06:36:13Z</time>
      </trkpt>
      <trkpt lat="43.679195959120989" lon="4.629652015864849">
        <ele>1.1</ele>
        <time>2025-05-17T06:36:15Z</time>
      </trkpt>
      <trkpt lat="43.679173998534679" lon="4.629604993388057">
        <ele>0.62</ele>
        <time>2025-05-17T06:36:16Z</time>
      </trkpt>
      <trkpt lat="43.679128987714648" lon="4.629509020596743">
        <ele>-0.34</ele>
        <time>2025-05-17T06:36:18Z</time>
      </trkpt>
      <trkpt lat="43.679103003814816" lon="4.629455041140318">
        <ele>-0.82</ele>
        <time>2025-05-17T06:36:19Z</time>
      </trkpt>
      <trkpt lat="43.679080037400126" lon="4.629403995350003">
        <ele>-1.3</ele>
        <time>2025-05-17T06:36:20Z</time>
      </trkpt>
      <trkpt lat="43.679057992994785" lon="4.629358984529972">
        <ele>-1.79</ele>
        <time>2025-05-17T06:36:21Z</time>
      </trkpt>
      <trkpt lat="43.67898004129529" lon="4.629192017018795">
        <ele>-1.79</ele>
        <time>2025-05-17T06:36:22Z</time>
      </trkpt>
      <trkpt lat="43.678959002718329" lon="4.629127979278565">
        <ele>-2.27</ele>
        <time>2025-05-17T06:36:23Z</time>
      </trkpt>
      <trkpt lat="43.678959002718329" lon="4.629127979278565">
        <ele>-3.23</ele>
        <time>2025-05-17T06:36:24Z</time>
      </trkpt>
      <trkpt lat="43.678959002718329" lon="4.629127979278565">
        <ele>-3.71</ele>
        <time>2025-05-17T06:36:25Z</time>
      </trkpt>
      <trkpt lat="43.678946010768414" lon="4.629101995378733">
        <ele>-4.19</ele>
        <time>2025-05-17T06:36:26Z</time>
      </trkpt>
      <trkpt lat="43.678925978019834" lon="4.629061007872224">
        <ele>-4.19</ele>
        <time>2025-05-17T06:36:27Z</time>
      </trkpt>
      <trkpt lat="43.678907034918666" lon="4.629023959860206">
        <ele>-4.67</ele>
        <time>2025-05-17T06:36:28Z</time>
      </trkpt>
      <trkpt lat="43.678884990513325" lon="4.628980960696936">
        <ele>-5.15</ele>
        <time>2025-05-17T06:36:29Z</time>
      </trkpt>
      <trkpt lat="43.678873004391789" lon="4.628955982625485">
        <ele>-5.63</ele>
        <time>2025-05-17T06:36:30Z</time>
      </trkpt>
      <trkpt lat="43.678858000785112" lon="4.628883982077241">
        <ele>-6.11</ele>
        <time>2025-05-17T06:36:31Z</time>
      </trkpt>
      <trkpt lat="43.678846014663577" lon="4.628826985135675">
        <ele>-6.59</ele>
        <time>2025-05-17T06:36:32Z</time>
      </trkpt>
      <trkpt lat="43.678832016885281" lon="4.628759007900953">
        <ele>-6.59</ele>
        <time>2025-05-17T06:36:33Z</time>
      </trkpt>
      <trkpt lat="43.678817013278604" lon="4.628686001524329">
        <ele>-7.55</ele>
        <time>2025-05-17T06:36:34Z</time>
      </trkpt>
      <trkpt lat="43.678802009671926" lon="4.628614000976086">
        <ele>-8.029999999999999</ele>
        <time>2025-05-17T06:36:35Z</time>
      </trkpt>
      <trkpt lat="43.67878801189363" lon="4.628546023741365">
        <ele>-8.51</ele>
        <time>2025-05-17T06:36:36Z</time>
      </trkpt>
      <trkpt lat="43.678773008286953" lon="4.628476034849882">
        <ele>-9</ele>
        <time>2025-05-17T06:36:37Z</time>
      </trkpt>
      <trkpt lat="43.678765967488289" lon="4.628440998494625">
        <ele>-9.48</ele>
        <time>2025-05-17T06:36:38Z</time>
      </trkpt>
      <trkpt lat="43.678756998851895" lon="4.628330022096634">
        <ele>-9.960000000000001</ele>
        <time>2025-05-17T06:36:39Z</time>
      </trkpt>
      <trkpt lat="43.678751969709992" lon="4.628261961042881">
        <ele>-10.44</ele>
        <time>2025-05-17T06:36:40Z</time>
      </trkpt>
      <trkpt lat="43.678744006901979" lon="4.628135981038213">
        <ele>-11.880000000000001</ele>
        <time>2025-05-17T06:36:43Z</time>
      </trkpt>
      <trkpt lat="43.678744006901979" lon="4.628115026280284">
        <ele>-12.359999999999999</ele>
        <time>2025-05-17T06:36:44Z</time>
      </trkpt>
      <trkpt lat="43.678744006901979" lon="4.62808895856142">
        <ele>-12.359999999999999</ele>
        <time>2025-05-17T06:36:45Z</time>
      </trkpt>
      <trkpt lat="43.678744006901979" lon="4.628069009631872">
        <ele>-12.359999999999999</ele>
        <time>2025-05-17T06:36:46Z</time>
      </trkpt>
      <trkpt lat="43.678744006901979" lon="4.628046965226531">
        <ele>-12.359999999999999</ele>
        <time>2025-05-17T06:36:47Z</time>
      </trkpt>
      <trkpt lat="43.678744006901979" lon="4.628027016296983">
        <ele>-12.84</ele>
        <time>2025-05-17T06:36:48Z</time>
      </trkpt>
      <trkpt lat="43.678744006901979" lon="4.627996003255248">
        <ele>-13.32</ele>
        <time>2025-05-17T06:36:49Z</time>
      </trkpt>
      <trkpt lat="43.678744006901979" lon="4.627960966899991">
        <ele>-13.32</ele>
        <time>2025-05-17T06:36:50Z</time>
      </trkpt>
      <trkpt lat="43.678744006901979" lon="4.62776399217546">
        <ele>-16.210000000000001</ele>
        <time>2025-05-17T06:36:57Z</time>
      </trkpt>
      <trkpt lat="43.678744006901979" lon="4.627735996618867">
        <ele>-16.210000000000001</ele>
        <time>2025-05-17T06:36:58Z</time>
      </trkpt>
      <trkpt lat="43.678744006901979" lon="4.627604987472296">
        <ele>-15.720000000000001</ele>
        <time>2025-05-17T06:37:10Z</time>
      </trkpt>
      <trkpt lat="43.678744006901979" lon="4.627604987472296">
        <ele>-16.690000000000001</ele>
        <time>2025-05-17T06:37:12Z</time>
      </trkpt>
      <trkpt lat="43.678737971931696" lon="4.627567017450929">
        <ele>-17.170000000000002</ele>
        <time>2025-05-17T06:37:13Z</time>
      </trkpt>
      <trkpt lat="43.678730009123683" lon="4.627517983317375">
        <ele>-17.649999999999999</ele>
        <time>2025-05-17T06:37:14Z</time>
      </trkpt>
      <trkpt lat="43.678722968325019" lon="4.627479007467628">
        <ele>-18.129999999999999</ele>
        <time>2025-05-17T06:37:15Z</time>
      </trkpt>
      <trkpt lat="43.678669994696975" lon="4.627344980835915">
        <ele>-18.609999999999999</ele>
        <time>2025-05-17T06:37:16Z</time>
      </trkpt>
      <trkpt lat="43.678669994696975" lon="4.627344980835915">
        <ele>-21.010000000000002</ele>
        <time>2025-05-17T06:37:30Z</time>
      </trkpt>
      <trkpt lat="43.678701007738709" lon="4.627346992492676">
        <ele>-22.449999999999999</ele>
        <time>2025-05-17T06:37:36Z</time>
      </trkpt>
      <trkpt lat="43.678727997466922" lon="4.627509014680982">
        <ele>-21.969999999999999</ele>
        <time>2025-05-17T06:37:39Z</time>
      </trkpt>
      <trkpt lat="43.678701007738709" lon="4.627346992492676">
        <ele>-21.969999999999999</ele>
        <time>2025-05-17T06:37:40Z</time>
      </trkpt>
      <trkpt lat="43.678798992186785" lon="4.627596018835902">
        <ele>-21.969999999999999</ele>
        <time>2025-05-17T06:37:41Z</time>
      </trkpt>
      <trkpt lat="43.679130999371409" lon="4.627540027722716">
        <ele>-26.780000000000001</ele>
        <time>2025-05-17T06:37:51Z</time>
      </trkpt>
      <trkpt lat="43.67913200519979" lon="4.62752602994442">
        <ele>-27.260000000000002</ele>
        <time>2025-05-17T06:37:52Z</time>
      </trkpt>
      <trkpt lat="43.679137034341693" lon="4.627489987760782">
        <ele>-28.219999999999999</ele>
        <time>2025-05-17T06:37:53Z</time>
      </trkpt>
      <trkpt lat="43.679155977442861" lon="4.627335006371141">
        <ele>-30.620000000000001</ele>
        <time>2025-05-17T06:38:02Z</time>
      </trkpt>
      <trkpt lat="43.679212974384427" lon="4.627000987529755">
        <ele>-29.66</ele>
        <time>2025-05-17T06:38:10Z</time>
      </trkpt>
      <trkpt lat="43.679233007133007" lon="4.626851035282016">
        <ele>-29.18</ele>
        <time>2025-05-17T06:38:11Z</time>
      </trkpt>
      <trkpt lat="43.67921800352633" lon="4.626781968399882">
        <ele>-29.18</ele>
        <time>2025-05-17T06:38:12Z</time>
      </trkpt>
      <trkpt lat="43.679186990484595" lon="4.626640984788537">
        <ele>-28.699999999999999</ele>
        <time>2025-05-17T06:38:14Z</time>
      </trkpt>
      <trkpt lat="43.679172992706299" lon="4.626577030867338">
        <ele>-28.699999999999999</ele>
        <time>2025-05-17T06:38:15Z</time>
      </trkpt>
      <trkpt lat="43.679160000756383" lon="4.626518022269011">
        <ele>-28.699999999999999</ele>
        <time>2025-05-17T06:38:16Z</time>
      </trkpt>
      <trkpt lat="43.679149020463228" lon="4.626464964821935">
        <ele>-28.699999999999999</ele>
        <time>2025-05-17T06:38:17Z</time>
      </trkpt>
      <trkpt lat="43.679137034341693" lon="4.626412997022271">
        <ele>-28.699999999999999</ele>
        <time>2025-05-17T06:38:18Z</time>
      </trkpt>
      <trkpt lat="43.679123036563396" lon="4.626348959282041">
        <ele>-27.739999999999998</ele>
        <time>2025-05-17T06:38:19Z</time>
      </trkpt>
      <trkpt lat="43.679107027128339" lon="4.626288022845984">
        <ele>-27.260000000000002</ele>
        <time>2025-05-17T06:38:20Z</time>
      </trkpt>
      <trkpt lat="43.679092023521662" lon="4.626224990934134">
        <ele>-26.780000000000001</ele>
        <time>2025-05-17T06:38:21Z</time>
      </trkpt>
      <trkpt lat="43.679041983559728" lon="4.626024998724461">
        <ele>-25.82</ele>
        <time>2025-05-17T06:38:24Z</time>
      </trkpt>
      <trkpt lat="43.678963026031852" lon="4.625630965456367">
        <ele>-23.899999999999999</ele>
        <time>2025-05-17T06:38:29Z</time>
      </trkpt>
      <trkpt lat="43.678942993283272" lon="4.625555025413632">
        <ele>-23.899999999999999</ele>
        <time>2025-05-17T06:38:30Z</time>
      </trkpt>
      <trkpt lat="43.678922038525343" lon="4.625475984066725">
        <ele>-23.899999999999999</ele>
        <time>2025-05-17T06:38:31Z</time>
      </trkpt>
      <trkpt lat="43.678898988291621" lon="4.625391997396946">
        <ele>-23.899999999999999</ele>
        <time>2025-05-17T06:38:32Z</time>
      </trkpt>
      <trkpt lat="43.678877027705312" lon="4.625311028212309">
        <ele>-23.899999999999999</ele>
        <time>2025-05-17T06:38:33Z</time>
      </trkpt>
      <trkpt lat="43.678856994956732" lon="4.625236010178924">
        <ele>-23.899999999999999</ele>
        <time>2025-05-17T06:38:34Z</time>
      </trkpt>
      <trkpt lat="43.678759010508657" lon="4.624937027692795">
        <ele>-22.93</ele>
        <time>2025-05-17T06:38:38Z</time>
      </trkpt>
      <trkpt lat="43.678732020780444" lon="4.62486200965941">
        <ele>-22.93</ele>
        <time>2025-05-17T06:38:39Z</time>
      </trkpt>
      <trkpt lat="43.678674018010497" lon="4.6247139852494">
        <ele>-22.449999999999999</ele>
        <time>2025-05-17T06:38:41Z</time>
      </trkpt>
      <trkpt lat="43.678646022453904" lon="4.624645002186298">
        <ele>-22.449999999999999</ele>
        <time>2025-05-17T06:38:42Z</time>
      </trkpt>
      <trkpt lat="43.67861601524055" lon="4.624569984152913">
        <ele>-22.449999999999999</ele>
        <time>2025-05-17T06:38:43Z</time>
      </trkpt>
      <trkpt lat="43.678588019683957" lon="4.62449798360467">
        <ele>-21.969999999999999</ele>
        <time>2025-05-17T06:38:44Z</time>
      </trkpt>
      <trkpt lat="43.678561029955745" lon="4.62443201802671">
        <ele>-21.969999999999999</ele>
        <time>2025-05-17T06:38:45Z</time>
      </trkpt>
      <trkpt lat="43.678550971671939" lon="4.624407039955258">
        <ele>-21.489999999999998</ele>
        <time>2025-05-17T06:38:46Z</time>
      </trkpt>
      <trkpt lat="43.678550971671939" lon="4.624407039955258">
        <ele>-21.489999999999998</ele>
        <time>2025-05-17T06:38:47Z</time>
      </trkpt>
      <trkpt lat="43.678495986387134" lon="4.624277958646417">
        <ele>-21.489999999999998</ele>
        <time>2025-05-17T06:38:48Z</time>
      </trkpt>
      <trkpt lat="43.67848701775074" lon="4.624257003888488">
        <ele>-21.489999999999998</ele>
        <time>2025-05-17T06:38:49Z</time>
      </trkpt>
      <trkpt lat="43.678446030244231" lon="4.624182991683483">
        <ele>-21.010000000000002</ele>
        <time>2025-05-17T06:38:50Z</time>
      </trkpt>
      <trkpt lat="43.678420968353748" lon="4.624137980863452">
        <ele>-21.010000000000002</ele>
        <time>2025-05-17T06:38:51Z</time>
      </trkpt>
      <trkpt lat="43.678396996110678" lon="4.624093975871801">
        <ele>-21.010000000000002</ele>
        <time>2025-05-17T06:38:52Z</time>
      </trkpt>
      <trkpt lat="43.678376041352749" lon="4.624058017507196">
        <ele>-21.010000000000002</ele>
        <time>2025-05-17T06:38:53Z</time>
      </trkpt>
      <trkpt lat="43.67827202193439" lon="4.623871017247438">
        <ele>-19.57</ele>
        <time>2025-05-17T06:38:57Z</time>
      </trkpt>
      <trkpt lat="43.678263975307345" lon="4.623849978670478">
        <ele>-19.09</ele>
        <time>2025-05-17T06:38:58Z</time>
      </trkpt>
      <trkpt lat="43.67822902277112" lon="4.623763980343938">
        <ele>-19.57</ele>
        <time>2025-05-17T06:39:00Z</time>
      </trkpt>
      <trkpt lat="43.678174037486315" lon="4.623663984239101">
        <ele>-20.050000000000001</ele>
        <time>2025-05-17T06:39:01Z</time>
      </trkpt>
      <trkpt lat="43.678147969767451" lon="4.623616961762309">
        <ele>-20.050000000000001</ele>
        <time>2025-05-17T06:39:02Z</time>
      </trkpt>
      <trkpt lat="43.678089966997504" lon="4.623497016727924">
        <ele>-20.530000000000001</ele>
        <time>2025-05-17T06:39:04Z</time>
      </trkpt>
      <trkpt lat="43.678060965612531" lon="4.623429039493203">
        <ele>-20.530000000000001</ele>
        <time>2025-05-17T06:39:05Z</time>
      </trkpt>
      <trkpt lat="43.678031964227557" lon="4.623362990096211">
        <ele>-20.530000000000001</ele>
        <time>2025-05-17T06:39:06Z</time>
      </trkpt>
      <trkpt lat="43.678003968670964" lon="4.623299958184362">
        <ele>-20.530000000000001</ele>
        <time>2025-05-17T06:39:07Z</time>
      </trkpt>
      <trkpt lat="43.677978990599513" lon="4.623241033405066">
        <ele>-20.050000000000001</ele>
        <time>2025-05-17T06:39:08Z</time>
      </trkpt>
      <trkpt lat="43.677925011143088" lon="4.623116981238127">
        <ele>-15.720000000000001</ele>
        <time>2025-05-17T06:39:15Z</time>
      </trkpt>
      <trkpt lat="43.677886035293341" lon="4.623088985681534">
        <ele>-13.32</ele>
        <time>2025-05-17T06:39:30Z</time>
      </trkpt>
      <trkpt lat="43.677757037803531" lon="4.623162997886539">
        <ele>-9.48</ele>
        <time>2025-05-17T06:39:37Z</time>
      </trkpt>
      <trkpt lat="43.677602978423238" lon="4.623262993991375">
        <ele>-9.48</ele>
        <time>2025-05-17T06:39:38Z</time>
      </trkpt>
      <trkpt lat="43.677598033100367" lon="4.623328959569335">
        <ele>-9.48</ele>
        <time>2025-05-17T06:39:39Z</time>
      </trkpt>
      <trkpt lat="43.677559979259968" lon="4.623560970649123">
        <ele>-9.960000000000001</ele>
        <time>2025-05-17T06:39:44Z</time>
      </trkpt>
      <trkpt lat="43.677548998966813" lon="4.62359600700438">
        <ele>-9.960000000000001</ele>
        <time>2025-05-17T06:39:45Z</time>
      </trkpt>
      <trkpt lat="43.677532989531755" lon="4.623643029481173">
        <ele>-9.960000000000001</ele>
        <time>2025-05-17T06:39:46Z</time>
      </trkpt>
      <trkpt lat="43.677513040602207" lon="4.623691979795694">
        <ele>-9.960000000000001</ele>
        <time>2025-05-17T06:39:47Z</time>
      </trkpt>
      <trkpt lat="43.677484961226583" lon="4.623743025586009">
        <ele>-10.44</ele>
        <time>2025-05-17T06:39:48Z</time>
      </trkpt>
      <trkpt lat="43.677458977326751" lon="4.623788958415389">
        <ele>-10.44</ele>
        <time>2025-05-17T06:39:49Z</time>
      </trkpt>
      <trkpt lat="43.67741396650672" lon="4.623871017247438">
        <ele>-10.44</ele>
        <time>2025-05-17T06:39:50Z</time>
      </trkpt>
      <trkpt lat="43.677409021183848" lon="4.623888032510877">
        <ele>-10.44</ele>
        <time>2025-05-17T06:39:51Z</time>
      </trkpt>
      <trkpt lat="43.677395023405552" lon="4.623942011967301">
        <ele>-10.44</ele>
        <time>2025-05-17T06:39:52Z</time>
      </trkpt>
      <trkpt lat="43.677379013970494" lon="4.623999008908868">
        <ele>-10.44</ele>
        <time>2025-05-17T06:39:53Z</time>
      </trkpt>
      <trkpt lat="43.677367027848959" lon="4.624044019728899">
        <ele>-9.960000000000001</ele>
        <time>2025-05-17T06:39:54Z</time>
      </trkpt>
      <trkpt lat="43.677358981221914" lon="4.624073021113873">
        <ele>-9.960000000000001</ele>
        <time>2025-05-17T06:40:03Z</time>
      </trkpt>
      <trkpt lat="43.677235012874007" lon="4.624439980834723">
        <ele>-9</ele>
        <time>2025-05-17T06:40:10Z</time>
      </trkpt>
      <trkpt lat="43.677110960707068" lon="4.624625975266099">
        <ele>-8.51</ele>
        <time>2025-05-17T06:40:14Z</time>
      </trkpt>
      <trkpt lat="43.677049018442631" lon="4.624708034098148">
        <ele>-9</ele>
        <time>2025-05-17T06:40:15Z</time>
      </trkpt>
      <trkpt lat="43.676992021501064" lon="4.624722031876445">
        <ele>-8.51</ele>
        <time>2025-05-17T06:40:16Z</time>
      </trkpt>
      <trkpt lat="43.676820024847984" lon="4.624765031039715">
        <ele>-9</ele>
        <time>2025-05-17T06:40:19Z</time>
      </trkpt>
      <trkpt lat="43.676755987107754" lon="4.62477701716125">
        <ele>-9</ele>
        <time>2025-05-17T06:40:20Z</time>
      </trkpt>
      <trkpt lat="43.676691027358174" lon="4.624786991626024">
        <ele>-9</ele>
        <time>2025-05-17T06:40:21Z</time>
      </trkpt>
      <trkpt lat="43.676626989617944" lon="4.624795960262418">
        <ele>-9.48</ele>
        <time>2025-05-17T06:40:22Z</time>
      </trkpt>
      <trkpt lat="43.676566975191236" lon="4.624805012717843">
        <ele>-9.48</ele>
        <time>2025-05-17T06:40:23Z</time>
      </trkpt>
      <trkpt lat="43.676507966592908" lon="4.624813981354237">
        <ele>-9.48</ele>
        <time>2025-05-17T06:40:24Z</time>
      </trkpt>
      <trkpt lat="43.676374023780227" lon="4.624834014102817">
        <ele>-10.44</ele>
        <time>2025-05-17T06:40:26Z</time>
      </trkpt>
      <trkpt lat="43.676169002428651" lon="4.624857986345887">
        <ele>-10.92</ele>
        <time>2025-05-17T06:40:28Z</time>
      </trkpt>
      <trkpt lat="43.676146036013961" lon="4.624861003831029">
        <ele>-10.92</ele>
        <time>2025-05-17T06:40:29Z</time>
      </trkpt>
      <trkpt lat="43.676005974411964" lon="4.624878019094467">
        <ele>-11.4</ele>
        <time>2025-05-17T06:40:31Z</time>
      </trkpt>
      <trkpt lat="43.67586700245738" lon="4.624896040186286">
        <ele>-11.4</ele>
        <time>2025-05-17T06:40:33Z</time>
      </trkpt>
      <trkpt lat="43.675654018297791" lon="4.624922024086118">
        <ele>-11.4</ele>
        <time>2025-05-17T06:40:36Z</time>
      </trkpt>
      <trkpt lat="43.675537006929517" lon="4.624941973015666">
        <ele>-10.92</ele>
        <time>2025-05-17T06:40:39Z</time>
      </trkpt>
      <trkpt lat="43.67550197057426" lon="4.62494800798595">
        <ele>-10.92</ele>
        <time>2025-05-17T06:40:40Z</time>
      </trkpt>
      <trkpt lat="43.675471963360906" lon="4.624953037127852">
        <ele>-10.92</ele>
        <time>2025-05-17T06:40:41Z</time>
      </trkpt>
      <trkpt lat="43.675447991117835" lon="4.624956976622343">
        <ele>-11.4</ele>
        <time>2025-05-17T06:40:42Z</time>
      </trkpt>
      <trkpt lat="43.675429970026016" lon="4.624958988279104">
        <ele>-11.4</ele>
        <time>2025-05-17T06:40:43Z</time>
      </trkpt>
      <trkpt lat="43.675410021096468" lon="4.624963011592627">
        <ele>-11.4</ele>
        <time>2025-05-17T06:40:51Z</time>
      </trkpt>
      <trkpt lat="43.675380013883114" lon="4.62496804073453">
        <ele>-11.4</ele>
        <time>2025-05-17T06:40:52Z</time>
      </trkpt>
      <trkpt lat="43.675339026376605" lon="4.624974997714162">
        <ele>-11.4</ele>
        <time>2025-05-17T06:40:53Z</time>
      </trkpt>
      <trkpt lat="43.675293009728193" lon="4.624982038512826">
        <ele>-11.880000000000001</ele>
        <time>2025-05-17T06:40:54Z</time>
      </trkpt>
      <trkpt lat="43.675139034166932" lon="4.625008022412658">
        <ele>-12.359999999999999</ele>
        <time>2025-05-17T06:40:55Z</time>
      </trkpt>
      <trkpt lat="43.675139034166932" lon="4.625008022412658">
        <ele>-12.359999999999999</ele>
        <time>2025-05-17T06:40:56Z</time>
      </trkpt>
      <trkpt lat="43.675129981711507" lon="4.625009028241038">
        <ele>-11.880000000000001</ele>
        <time>2025-05-17T06:41:04Z</time>
      </trkpt>
      <trkpt lat="43.67485798895359" lon="4.625036017969251">
        <ele>-9</ele>
        <time>2025-05-17T06:41:15Z</time>
      </trkpt>
      <trkpt lat="43.674487005919218" lon="4.625062001869083">
        <ele>-7.55</ele>
        <time>2025-05-17T06:41:25Z</time>
      </trkpt>
      <trkpt lat="43.674092972651124" lon="4.625107012689114">
        <ele>-7.07</ele>
        <time>2025-05-17T06:41:32Z</time>
      </trkpt>
      <trkpt lat="43.674030024558306" lon="4.625169038772583">
        <ele>-7.07</ele>
        <time>2025-05-17T06:41:33Z</time>
      </trkpt>
      <trkpt lat="43.674033964052796" lon="4.625197034329176">
        <ele>-6.59</ele>
        <time>2025-05-17T06:41:34Z</time>
      </trkpt>
      <trkpt lat="43.674037987366319" lon="4.625232992693782">
        <ele>-6.11</ele>
        <time>2025-05-17T06:41:35Z</time>
      </trkpt>
      <trkpt lat="43.674044022336602" lon="4.625279009342194">
        <ele>-6.11</ele>
        <time>2025-05-17T06:41:36Z</time>
      </trkpt>
      <trkpt lat="43.674045028164983" lon="4.625437008216977">
        <ele>-6.59</ele>
        <time>2025-05-17T06:41:38Z</time>
      </trkpt>
      <trkpt lat="43.674055002629757" lon="4.625499034300447">
        <ele>-7.07</ele>
        <time>2025-05-17T06:41:39Z</time>
      </trkpt>
      <trkpt lat="43.674108982086182" lon="4.625824000686407">
        <ele>-9.960000000000001</ele>
        <time>2025-05-17T06:41:47Z</time>
      </trkpt>
      <trkpt lat="43.674077969044447" lon="4.625830035656691">
        <ele>-10.44</ele>
        <time>2025-05-17T06:41:48Z</time>
      </trkpt>
      <trkpt lat="43.674042010679841" lon="4.625836992636323">
        <ele>-10.44</ele>
        <time>2025-05-17T06:41:49Z</time>
      </trkpt>
      <trkpt lat="43.673468017950654" lon="4.625956015661359">
        <ele>-12.84</ele>
        <time>2025-05-17T06:42:00Z</time>
      </trkpt>
      <trkpt lat="43.673037020489573" lon="4.626045031473041">
        <ele>-13.800000000000001</ele>
        <time>2025-05-17T06:42:08Z</time>
      </trkpt>
      <trkpt lat="43.672993015497923" lon="4.626054000109434">
        <ele>-14.279999999999999</ele>
        <time>2025-05-17T06:42:09Z</time>
      </trkpt>
      <trkpt lat="43.672954039648175" lon="4.626061962917447">
        <ele>-14.279999999999999</ele>
        <time>2025-05-17T06:42:10Z</time>
      </trkpt>
      <trkpt lat="43.672926966100931" lon="4.626067997887731">
        <ele>-14.279999999999999</ele>
        <time>2025-05-17T06:42:11Z</time>
      </trkpt>
      <trkpt lat="43.672912968322635" lon="4.626071015372872">
        <ele>-14.279999999999999</ele>
        <time>2025-05-17T06:42:12Z</time>
      </trkpt>
      <trkpt lat="43.672865023836493" lon="4.626080989837647">
        <ele>-14.279999999999999</ele>
        <time>2025-05-17T06:42:15Z</time>
      </trkpt>
      <trkpt lat="43.672856977209449" lon="4.626024998724461">
        <ele>-14.279999999999999</ele>
        <time>2025-05-17T06:42:16Z</time>
      </trkpt>
      <trkpt lat="43.672850020229816" lon="4.625977976247668">
        <ele>-13.800000000000001</ele>
        <time>2025-05-17T06:42:17Z</time>
      </trkpt>
      <trkpt lat="43.672840967774391" lon="4.62591502815485">
        <ele>-13.32</ele>
        <time>2025-05-17T06:42:18Z</time>
      </trkpt>
      <trkpt lat="43.672833004966378" lon="4.625856019556522">
        <ele>-12.84</ele>
        <time>2025-05-17T06:42:19Z</time>
      </trkpt>
      <trkpt lat="43.672825964167714" lon="4.625804973766208">
        <ele>-12.84</ele>
        <time>2025-05-17T06:42:20Z</time>
      </trkpt>
      <trkpt lat="43.672819007188082" lon="4.625757029280067">
        <ele>-12.359999999999999</ele>
        <time>2025-05-17T06:42:21Z</time>
      </trkpt>
      <trkpt lat="43.672811966389418" lon="4.625713024288416">
        <ele>-11.880000000000001</ele>
        <time>2025-05-17T06:42:22Z</time>
      </trkpt>
      <trkpt lat="43.672806015238166" lon="4.625670025125146">
        <ele>-11.4</ele>
        <time>2025-05-17T06:42:23Z</time>
      </trkpt>
      <trkpt lat="43.672800986096263" lon="4.62563599459827">
        <ele>-10.92</ele>
        <time>2025-05-17T06:42:32Z</time>
      </trkpt>
      <trkpt lat="43.672779025509953" lon="4.625480007380247">
        <ele>-9.960000000000001</ele>
        <time>2025-05-17T06:42:47Z</time>
      </trkpt>
      <trkpt lat="43.672733008861542" lon="4.625341035425663">
        <ele>-9.48</ele>
        <time>2025-05-17T06:42:48Z</time>
      </trkpt>
      <trkpt lat="43.67268699221313" lon="4.625351009890437">
        <ele>-9.48</ele>
        <time>2025-05-17T06:42:49Z</time>
      </trkpt>
      <trkpt lat="43.672627983614802" lon="4.625365007668734">
        <ele>-9.48</ele>
        <time>2025-05-17T06:42:50Z</time>
      </trkpt>
      <trkpt lat="43.672567969188094" lon="4.62537900544703">
        <ele>-9.48</ele>
        <time>2025-05-17T06:42:51Z</time>
      </trkpt>
      <trkpt lat="43.672509966418147" lon="4.625391997396946">
        <ele>-9.48</ele>
        <time>2025-05-17T06:42:52Z</time>
      </trkpt>
      <trkpt lat="43.672261023893952" lon="4.625434996560216">
        <ele>-9.48</ele>
        <time>2025-05-17T06:42:57Z</time>
      </trkpt>
      <trkpt lat="43.672205032780766" lon="4.62544396519661">
        <ele>-9</ele>
        <time>2025-05-17T06:42:58Z</time>
      </trkpt>
      <trkpt lat="43.672153986990452" lon="4.625453017652035">
        <ele>-9</ele>
        <time>2025-05-17T06:42:59Z</time>
      </trkpt>
      <trkpt lat="43.672103025019169" lon="4.625462992116809">
        <ele>-9</ele>
        <time>2025-05-17T06:43:00Z</time>
      </trkpt>
      <trkpt lat="43.672052985057235" lon="4.625471960753202">
        <ele>-9</ele>
        <time>2025-05-17T06:43:01Z</time>
      </trkpt>
      <trkpt lat="43.672033958137035" lon="4.625323014333844">
        <ele>-8.51</ele>
        <time>2025-05-17T06:43:02Z</time>
      </trkpt>
      <trkpt lat="43.672025995329022" lon="4.625371964648366">
        <ele>-8.51</ele>
        <time>2025-05-17T06:43:03Z</time>
      </trkpt>
      <trkpt lat="43.672016020864248" lon="4.625428039580584">
        <ele>-8.029999999999999</ele>
        <time>2025-05-17T06:43:04Z</time>
      </trkpt>
      <trkpt lat="43.672006968408823" lon="4.625480007380247">
        <ele>-8.029999999999999</ele>
        <time>2025-05-17T06:43:05Z</time>
      </trkpt>
      <trkpt lat="43.672013003379107" lon="4.625555025413632">
        <ele>-7.55</ele>
        <time>2025-05-17T06:43:06Z</time>
      </trkpt>
      <trkpt lat="43.6720219720155" lon="4.625644963234663">
        <ele>-7.55</ele>
        <time>2025-05-17T06:43:07Z</time>
      </trkpt>
      <trkpt lat="43.672030018642545" lon="4.625739008188248">
        <ele>-7.55</ele>
        <time>2025-05-17T06:43:08Z</time>
      </trkpt>
      <trkpt lat="43.672038987278938" lon="4.625835986807942">
        <ele>-7.07</ele>
        <time>2025-05-17T06:43:09Z</time>
      </trkpt>
      <trkpt lat="43.672143006697297" lon="4.626971986144781">
        <ele>-3.71</ele>
        <time>2025-05-17T06:43:21Z</time>
      </trkpt>
      <trkpt lat="43.672163961455226" lon="4.627197962254286">
        <ele>-3.23</ele>
        <time>2025-05-17T06:43:24Z</time>
      </trkpt>
      <trkpt lat="43.672168990597129" lon="4.627256970852613">
        <ele>-2.75</ele>
        <time>2025-05-17T06:43:25Z</time>
      </trkpt>
      <trkpt lat="43.672190029174089" lon="4.627476995810866">
        <ele>-2.75</ele>
        <time>2025-05-17T06:43:28Z</time>
      </trkpt>
      <trkpt lat="43.672194974496961" lon="4.627536004409194">
        <ele>-2.75</ele>
        <time>2025-05-17T06:43:29Z</time>
      </trkpt>
      <trkpt lat="43.672207966446877" lon="4.627673970535398">
        <ele>-2.27</ele>
        <time>2025-05-17T06:43:33Z</time>
      </trkpt>
      <trkpt lat="43.672207966446877" lon="4.627673970535398">
        <ele>-2.27</ele>
        <time>2025-05-17T06:43:45Z</time>
      </trkpt>
      <trkpt lat="43.672231016680598" lon="4.627930037677288">
        <ele>0.14</ele>
        <time>2025-05-17T06:43:54Z</time>
      </trkpt>
      <trkpt lat="43.67223696783185" lon="4.627989968284965">
        <ele>0.14</ele>
        <time>2025-05-17T06:43:55Z</time>
      </trkpt>
      <trkpt lat="43.672186005860567" lon="4.628062974661589">
        <ele>0.14</ele>
        <time>2025-05-17T06:43:56Z</time>
      </trkpt>
      <trkpt lat="43.672120962291956" lon="4.628073032945395">
        <ele>0.62</ele>
        <time>2025-05-17T06:43:57Z</time>
      </trkpt>
      <trkpt lat="43.672040998935699" lon="4.62808501906693">
        <ele>0.62</ele>
        <time>2025-05-17T06:43:58Z</time>
      </trkpt>
      <trkpt lat="43.671952988952398" lon="4.628098011016846">
        <ele>1.1</ele>
        <time>2025-05-17T06:43:59Z</time>
      </trkpt>
      <trkpt lat="43.671576976776123" lon="4.628161964938045">
        <ele>1.58</ele>
        <time>2025-05-17T06:44:03Z</time>
      </trkpt>
      <trkpt lat="43.671456025913358" lon="4.628197001293302">
        <ele>2.06</ele>
        <time>2025-05-17T06:44:04Z</time>
      </trkpt>
      <trkpt lat="43.671180009841919" lon="4.628262966871262">
        <ele>2.54</ele>
        <time>2025-05-17T06:44:07Z</time>
      </trkpt>
      <trkpt lat="43.671094011515379" lon="4.628275958821178">
        <ele>2.54</ele>
        <time>2025-05-17T06:44:08Z</time>
      </trkpt>
      <trkpt lat="43.670621020719409" lon="4.628445021808147">
        <ele>2.54</ele>
        <time>2025-05-17T06:44:14Z</time>
      </trkpt>
      <trkpt lat="43.670590007677674" lon="4.628462959080935">
        <ele>3.02</ele>
        <time>2025-05-17T06:44:15Z</time>
      </trkpt>
      <trkpt lat="43.670573998242617" lon="4.628507969900966">
        <ele>3.5</ele>
        <time>2025-05-17T06:44:16Z</time>
      </trkpt>
      <trkpt lat="43.670555977150798" lon="4.628553986549377">
        <ele>3.98</ele>
        <time>2025-05-17T06:44:17Z</time>
      </trkpt>
      <trkpt lat="43.67053996771574" lon="4.628596985712647">
        <ele>4.46</ele>
        <time>2025-05-17T06:44:18Z</time>
      </trkpt>
      <trkpt lat="43.670525969937444" lon="4.628635039553046">
        <ele>4.94</ele>
        <time>2025-05-17T06:44:19Z</time>
      </trkpt>
      <trkpt lat="43.67051599547267" lon="4.628690024837852">
        <ele>5.42</ele>
        <time>2025-05-17T06:44:20Z</time>
      </trkpt>
      <trkpt lat="43.670503003522754" lon="4.628762025386095">
        <ele>5.91</ele>
        <time>2025-05-17T06:44:21Z</time>
      </trkpt>
      <trkpt lat="43.670482970774174" lon="4.628870990127325">
        <ele>6.39</ele>
        <time>2025-05-17T06:44:22Z</time>
      </trkpt>
      <trkpt lat="43.670396972447634" lon="4.629379017278552">
        <ele>7.35</ele>
        <time>2025-05-17T06:44:26Z</time>
      </trkpt>
      <trkpt lat="43.670311979949474" lon="4.629528969526291">
        <ele>7.83</ele>
        <time>2025-05-17T06:44:28Z</time>
      </trkpt>
      <trkpt lat="43.670205026865005" lon="4.629659978672862">
        <ele>7.83</ele>
        <time>2025-05-17T06:44:30Z</time>
      </trkpt>
      <trkpt lat="43.670096984133124" lon="4.629792999476194">
        <ele>7.83</ele>
        <time>2025-05-17T06:44:31Z</time>
      </trkpt>
      <trkpt lat="43.670018026605248" lon="4.629824012517929">
        <ele>7.83</ele>
        <time>2025-05-17T06:44:32Z</time>
      </trkpt>
      <trkpt lat="43.668659990653396" lon="4.630229026079178">
        <ele>7.83</ele>
        <time>2025-05-17T06:44:46Z</time>
      </trkpt>
      <trkpt lat="43.668012991547585" lon="4.630439998582006">
        <ele>5.91</ele>
        <time>2025-05-17T06:44:53Z</time>
      </trkpt>
      <trkpt lat="43.667355012148619" lon="4.630616018548608">
        <ele>3.98</ele>
        <time>2025-05-17T06:45:00Z</time>
      </trkpt>
      <trkpt lat="43.667275970801711" lon="4.630668992176652">
        <ele>3.5</ele>
        <time>2025-05-17T06:45:01Z</time>
      </trkpt>
      <trkpt lat="43.667213022708893" lon="4.63074803352356">
        <ele>3.98</ele>
        <time>2025-05-17T06:45:02Z</time>
      </trkpt>
      <trkpt lat="43.667148984968662" lon="4.630829002708197">
        <ele>4.94</ele>
        <time>2025-05-17T06:45:03Z</time>
      </trkpt>
      <trkpt lat="43.667081007733941" lon="4.630912989377976">
        <ele>4.94</ele>
        <time>2025-05-17T06:45:04Z</time>
      </trkpt>
      <trkpt lat="43.666965002194047" lon="4.63109202682972">
        <ele>4.94</ele>
        <time>2025-05-17T06:45:06Z</time>
      </trkpt>
      <trkpt lat="43.666546996682882" lon="4.631741959601641">
        <ele>2.06</ele>
        <time>2025-05-17T06:45:13Z</time>
      </trkpt>
      <trkpt lat="43.666462004184723" lon="4.631721004843712">
        <ele>1.58</ele>
        <time>2025-05-17T06:45:14Z</time>
      </trkpt>
      <trkpt lat="43.666410958394408" lon="4.631742965430021">
        <ele>1.1</ele>
        <time>2025-05-17T06:45:15Z</time>
      </trkpt>
      <trkpt lat="43.666373994201422" lon="4.631722010672092">
        <ele>0.62</ele>
        <time>2025-05-17T06:45:16Z</time>
      </trkpt>
      <trkpt lat="43.666321020573378" lon="4.631684040650725">
        <ele>0.14</ele>
        <time>2025-05-17T06:45:17Z</time>
      </trkpt>
      <trkpt lat="43.666264023631811" lon="4.631641963496804">
        <ele>0.14</ele>
        <time>2025-05-17T06:45:18Z</time>
      </trkpt>
      <trkpt lat="43.666169978678226" lon="4.631573986262083">
        <ele>-0.34</ele>
        <time>2025-05-17T06:45:19Z</time>
      </trkpt>
      <trkpt lat="43.66615598089993" lon="4.63148002512753">
        <ele>-0.82</ele>
        <time>2025-05-17T06:45:20Z</time>
      </trkpt>
      <trkpt lat="43.66613301448524" lon="4.631335018202663">
        <ele>-0.34</ele>
        <time>2025-05-17T06:45:21Z</time>
      </trkpt>
      <trkpt lat="43.666110970079899" lon="4.631187999621034">
        <ele>0.14</ele>
        <time>2025-05-17T06:45:22Z</time>
      </trkpt>
      <trkpt lat="43.666088003665209" lon="4.631037963554263">
        <ele>0.62</ele>
        <time>2025-05-17T06:45:23Z</time>
      </trkpt>
      <trkpt lat="43.666115999221802" lon="4.63087803684175">
        <ele>0.62</ele>
        <time>2025-05-17T06:45:24Z</time>
      </trkpt>
      <trkpt lat="43.666151035577059" lon="4.630720037966967">
        <ele>1.1</ele>
        <time>2025-05-17T06:45:25Z</time>
      </trkpt>
      <trkpt lat="43.666186993941665" lon="4.630561033263803">
        <ele>1.58</ele>
        <time>2025-05-17T06:45:26Z</time>
      </trkpt>
      <trkpt lat="43.666235022246838" lon="4.630350982770324">
        <ele>1.58</ele>
        <time>2025-05-17T06:45:27Z</time>
      </trkpt>
      <trkpt lat="43.666319008916616" lon="4.630219973623753">
        <ele>2.06</ele>
        <time>2025-05-17T06:45:28Z</time>
      </trkpt>
      <trkpt lat="43.667246969416738" lon="4.628769988194108">
        <ele>1.58</ele>
        <time>2025-05-17T06:45:39Z</time>
      </trkpt>
      <trkpt lat="43.668406018987298" lon="4.627081034705043">
        <ele>1.1</ele>
        <time>2025-05-17T06:45:50Z</time>
      </trkpt>
      <trkpt lat="43.66879896260798" lon="4.626577030867338">
        <ele>1.58</ele>
        <time>2025-05-17T06:45:53Z</time>
      </trkpt>
      <trkpt lat="43.668942963704467" lon="4.626405034214258">
        <ele>1.1</ele>
        <time>2025-05-17T06:45:54Z</time>
      </trkpt>
      <trkpt lat="43.669087970629334" lon="4.626215016469359">
        <ele>0.62</ele>
        <time>2025-05-17T06:45:55Z</time>
      </trkpt>
      <trkpt lat="43.671000972390175" lon="4.623913010582328">
        <ele>1.1</ele>
        <time>2025-05-17T06:46:07Z</time>
      </trkpt>
      <trkpt lat="43.672200003638864" lon="4.622587999328971">
        <ele>1.1</ele>
        <time>2025-05-17T06:46:15Z</time>
      </trkpt>
      <trkpt lat="43.672639969736338" lon="4.62209003046155">
        <ele>1.58</ele>
        <time>2025-05-17T06:46:18Z</time>
      </trkpt>
      <trkpt lat="43.674645004794002" lon="4.619614016264677">
        <ele>9.27</ele>
        <time>2025-05-17T06:46:33Z</time>
      </trkpt>
      <trkpt lat="43.676165984943509" lon="4.617694979533553">
        <ele>15.52</ele>
        <time>2025-05-17T06:46:45Z</time>
      </trkpt>
      <trkpt lat="43.677367027848959" lon="4.615767979994416">
        <ele>16.48</ele>
        <time>2025-05-17T06:46:56Z</time>
      </trkpt>
      <trkpt lat="43.678069012239575" lon="4.613629002124071">
        <ele>14.56</ele>
        <time>2025-05-17T06:47:06Z</time>
      </trkpt>
      <trkpt lat="43.678273027762771" lon="4.611216019839048">
        <ele>5.91</ele>
        <time>2025-05-17T06:47:16Z</time>
      </trkpt>
      <trkpt lat="43.678518030792475" lon="4.609585991129279">
        <ele>2.06</ele>
        <time>2025-05-17T06:47:23Z</time>
      </trkpt>
      <trkpt lat="43.678704025223851" lon="4.608324011787772">
        <ele>3.02</ele>
        <time>2025-05-17T06:47:30Z</time>
      </trkpt>
      <trkpt lat="43.67878801189363" lon="4.608107004314661">
        <ele>3.02</ele>
        <time>2025-05-17T06:47:32Z</time>
      </trkpt>
      <trkpt lat="43.678835034370422" lon="4.608021005988121">
        <ele>3.5</ele>
        <time>2025-05-17T06:47:33Z</time>
      </trkpt>
      <trkpt lat="43.678873004391789" lon="4.607949005439878">
        <ele>3.5</ele>
        <time>2025-05-17T06:47:34Z</time>
      </trkpt>
      <trkpt lat="43.679107027128339" lon="4.607644993811846">
        <ele>3.02</ele>
        <time>2025-05-17T06:47:37Z</time>
      </trkpt>
      <trkpt lat="43.679275000467896" lon="4.607404014095664">
        <ele>3.5</ele>
        <time>2025-05-17T06:47:39Z</time>
      </trkpt>
      <trkpt lat="43.679368039593101" lon="4.607273004949093">
        <ele>3.5</ele>
        <time>2025-05-17T06:47:40Z</time>
      </trkpt>
      <trkpt lat="43.679885035380721" lon="4.606841001659632">
        <ele>3.98</ele>
        <time>2025-05-17T06:47:44Z</time>
      </trkpt>
      <trkpt lat="43.680040016770363" lon="4.606765983626247">
        <ele>3.98</ele>
        <time>2025-05-17T06:47:45Z</time>
      </trkpt>
      <trkpt lat="43.681558985263109" lon="4.606448980048299">
        <ele>5.42</ele>
        <time>2025-05-17T06:47:54Z</time>
      </trkpt>
      <trkpt lat="43.683697963133454" lon="4.606358036398888">
        <ele>10.23</ele>
        <time>2025-05-17T06:48:06Z</time>
      </trkpt>
      <trkpt lat="43.685455983504653" lon="4.606115967035294">
        <ele>12.630000000000001</ele>
        <time>2025-05-17T06:48:16Z</time>
      </trkpt>
      <trkpt lat="43.686765991151333" lon="4.60576199926436">
        <ele>12.15</ele>
        <time>2025-05-17T06:48:25Z</time>
      </trkpt>
      <trkpt lat="43.688698019832373" lon="4.605223964899778">
        <ele>11.67</ele>
        <time>2025-05-17T06:48:37Z</time>
      </trkpt>
      <trkpt lat="43.689986988902092" lon="4.604877959936857">
        <ele>9.75</ele>
        <time>2025-05-17T06:48:46Z</time>
      </trkpt>
      <trkpt lat="43.690215982496738" lon="4.604809982702136">
        <ele>8.789999999999999</ele>
        <time>2025-05-17T06:48:49Z</time>
      </trkpt>
      <trkpt lat="43.690274991095066" lon="4.604793973267078">
        <ele>8.789999999999999</ele>
        <time>2025-05-17T06:48:50Z</time>
      </trkpt>
      <trkpt lat="43.690325031057" lon="4.604783998802304">
        <ele>8.789999999999999</ele>
        <time>2025-05-17T06:48:51Z</time>
      </trkpt>
      <trkpt lat="43.690413041040301" lon="4.604837978258729">
        <ele>8.789999999999999</ele>
        <time>2025-05-17T06:48:52Z</time>
      </trkpt>
      <trkpt lat="43.690439024940133" lon="4.604880977421999">
        <ele>8.310000000000001</ele>
        <time>2025-05-17T06:48:53Z</time>
      </trkpt>
      <trkpt lat="43.690545978024602" lon="4.605035958811641">
        <ele>8.310000000000001</ele>
        <time>2025-05-17T06:48:54Z</time>
      </trkpt>
      <trkpt lat="43.690545978024602" lon="4.605162022635341">
        <ele>7.83</ele>
        <time>2025-05-17T06:48:55Z</time>
      </trkpt>
      <trkpt lat="43.690546983852983" lon="4.605295965448022">
        <ele>7.35</ele>
        <time>2025-05-17T06:48:56Z</time>
      </trkpt>
      <trkpt lat="43.69058595970273" lon="4.606047989800572">
        <ele>7.35</ele>
        <time>2025-05-17T06:49:01Z</time>
      </trkpt>
      <trkpt lat="43.690568022429943" lon="4.606640003621578">
        <ele>7.83</ele>
        <time>2025-05-17T06:49:06Z</time>
      </trkpt>
      <trkpt lat="43.690590988844633" lon="4.606731031090021">
        <ele>7.83</ele>
        <time>2025-05-17T06:49:10Z</time>
      </trkpt>
      <trkpt lat="43.690590988844633" lon="4.606731031090021">
        <ele>7.83</ele>
        <time>2025-05-17T06:49:46Z</time>
      </trkpt>
      <trkpt lat="43.690590988844633" lon="4.606731031090021">
        <ele>8.310000000000001</ele>
        <time>2025-05-17T06:50:30Z</time>
      </trkpt>
      <trkpt lat="43.690612027421594" lon="4.606809988617897">
        <ele>7.83</ele>
        <time>2025-05-17T06:51:10Z</time>
      </trkpt>
      <trkpt lat="43.690674975514412" lon="4.607048034667969">
        <ele>7.35</ele>
        <time>2025-05-17T06:51:13Z</time>
      </trkpt>
      <trkpt lat="43.690760973840952" lon="4.607220031321049">
        <ele>7.35</ele>
        <time>2025-05-17T06:51:14Z</time>
      </trkpt>
      <trkpt lat="43.690756028518081" lon="4.607252972200513">
        <ele>7.35</ele>
        <time>2025-05-17T06:51:15Z</time>
      </trkpt>
      <trkpt lat="43.690739013254642" lon="4.607369983568788">
        <ele>6.87</ele>
        <time>2025-05-17T06:51:16Z</time>
      </trkpt>
      <trkpt lat="43.690761979669333" lon="4.607384987175465">
        <ele>6.87</ele>
        <time>2025-05-17T06:51:17Z</time>
      </trkpt>
      <trkpt lat="43.690888965502381" lon="4.607306029647589">
        <ele>6.39</ele>
        <time>2025-05-17T06:51:18Z</time>
      </trkpt>
      <trkpt lat="43.690869016572833" lon="4.60733100771904">
        <ele>6.39</ele>
        <time>2025-05-17T06:51:19Z</time>
      </trkpt>
      <trkpt lat="43.690888965502381" lon="4.607306029647589">
        <ele>6.87</ele>
        <time>2025-05-17T06:51:20Z</time>
      </trkpt>
      <trkpt lat="43.690860969945788" lon="4.607236040756106">
        <ele>6.87</ele>
        <time>2025-05-17T06:51:21Z</time>
      </trkpt>
      <trkpt lat="43.690845966339111" lon="4.607197986915708">
        <ele>6.39</ele>
        <time>2025-05-17T06:51:22Z</time>
      </trkpt>
      <trkpt lat="43.690727027133107" lon="4.607151970267296">
        <ele>6.39</ele>
        <time>2025-05-17T06:51:23Z</time>
      </trkpt>
      <trkpt lat="43.690672041848302" lon="4.607037976384163">
        <ele>6.39</ele>
        <time>2025-05-17T06:51:24Z</time>
      </trkpt>
      <trkpt lat="43.690614039078355" lon="4.6068150177598">
        <ele>5.91</ele>
        <time>2025-05-17T06:51:26Z</time>
      </trkpt>
      <trkpt lat="43.690579002723098" lon="4.606685014441609">
        <ele>5.91</ele>
        <time>2025-05-17T06:51:27Z</time>
      </trkpt>
      <trkpt lat="43.690577996894717" lon="4.606378991156817">
        <ele>5.42</ele>
        <time>2025-05-17T06:51:29Z</time>
      </trkpt>
      <trkpt lat="43.690584031865001" lon="4.606226021423936">
        <ele>5.42</ele>
        <time>2025-05-17T06:51:30Z</time>
      </trkpt>
      <trkpt lat="43.690579002723098" lon="4.605916980654001">
        <ele>4.94</ele>
        <time>2025-05-17T06:51:32Z</time>
      </trkpt>
      <trkpt lat="43.690571961924434" lon="4.605764010921121">
        <ele>5.42</ele>
        <time>2025-05-17T06:51:33Z</time>
      </trkpt>
      <trkpt lat="43.690565004944801" lon="4.605625960975885">
        <ele>5.42</ele>
        <time>2025-05-17T06:51:34Z</time>
      </trkpt>
      <trkpt lat="43.690552012994885" lon="4.605381041765213">
        <ele>6.39</ele>
        <time>2025-05-17T06:51:36Z</time>
      </trkpt>
      <trkpt lat="43.690545978024602" lon="4.605132015421987">
        <ele>6.87</ele>
        <time>2025-05-17T06:51:38Z</time>
      </trkpt>
      <trkpt lat="43.690545978024602" lon="4.605023972690105">
        <ele>7.35</ele>
        <time>2025-05-17T06:51:39Z</time>
      </trkpt>
      <trkpt lat="43.69058302603662" lon="4.604875026270747">
        <ele>7.35</ele>
        <time>2025-05-17T06:51:40Z</time>
      </trkpt>
      <trkpt lat="43.690631976351142" lon="4.604837978258729">
        <ele>7.35</ele>
        <time>2025-05-17T06:51:41Z</time>
      </trkpt>
      <trkpt lat="43.690729038789868" lon="4.60466698743403">
        <ele>7.35</ele>
        <time>2025-05-17T06:51:42Z</time>
      </trkpt>
      <trkpt lat="43.69084001518786" lon="4.604637986049056">
        <ele>7.83</ele>
        <time>2025-05-17T06:51:43Z</time>
      </trkpt>
      <trkpt lat="43.69096901267767" lon="4.604603033512831">
        <ele>7.83</ele>
        <time>2025-05-17T06:51:44Z</time>
      </trkpt>
      <trkpt lat="43.691105972975492" lon="4.604565985500813">
        <ele>7.83</ele>
        <time>2025-05-17T06:51:45Z</time>
      </trkpt>
      <trkpt lat="43.692365018650889" lon="4.604049995541573">
        <ele>9.27</ele>
        <time>2025-05-17T06:51:53Z</time>
      </trkpt>
      <trkpt lat="43.693302031606436" lon="4.603003012016416">
        <ele>9.75</ele>
        <time>2025-05-17T06:52:00Z</time>
      </trkpt>
      <trkpt lat="43.693809974938631" lon="4.601481026038528">
        <ele>8.310000000000001</ele>
        <time>2025-05-17T06:52:07Z</time>
      </trkpt>
      <trkpt lat="43.694036034867167" lon="4.599555032327771">
        <ele>8.310000000000001</ele>
        <time>2025-05-17T06:52:15Z</time>
      </trkpt>
      <trkpt lat="43.694080961868167" lon="4.599154964089394">
        <ele>8.789999999999999</ele>
        <time>2025-05-17T06:52:17Z</time>
      </trkpt>
      <trkpt lat="43.694096971303225" lon="4.599011968821287">
        <ele>8.789999999999999</ele>
        <time>2025-05-17T06:52:18Z</time>
      </trkpt>
      <trkpt lat="43.694207025691867" lon="4.598876014351845">
        <ele>8.789999999999999</ele>
        <time>2025-05-17T06:52:19Z</time>
      </trkpt>
      <trkpt lat="43.694299980998039" lon="4.598838966339827">
        <ele>8.789999999999999</ele>
        <time>2025-05-17T06:52:20Z</time>
      </trkpt>
      <trkpt lat="43.694323031231761" lon="4.598829997703433">
        <ele>8.789999999999999</ele>
        <time>2025-05-17T06:52:21Z</time>
      </trkpt>
      <trkpt lat="43.694524029269814" lon="4.598681973293424">
        <ele>8.789999999999999</ele>
        <time>2025-05-17T06:52:22Z</time>
      </trkpt>
      <trkpt lat="43.694633999839425" lon="4.598734024912119">
        <ele>8.789999999999999</ele>
        <time>2025-05-17T06:52:23Z</time>
      </trkpt>
      <trkpt lat="43.694760985672474" lon="4.598794039338827">
        <ele>8.789999999999999</ele>
        <time>2025-05-17T06:52:24Z</time>
      </trkpt>
      <trkpt lat="43.694898029789329" lon="4.598860004916787">
        <ele>8.789999999999999</ele>
        <time>2025-05-17T06:52:25Z</time>
      </trkpt>
      <trkpt lat="43.696237960830331" lon="4.599509015679359">
        <ele>8.310000000000001</ele>
        <time>2025-05-17T06:52:33Z</time>
      </trkpt>
      <trkpt lat="43.698330000042915" lon="4.60045600309968">
        <ele>7.83</ele>
        <time>2025-05-17T06:52:45Z</time>
      </trkpt>
      <trkpt lat="43.698591012507677" lon="4.600600004196167">
        <ele>7.83</ele>
        <time>2025-05-17T06:52:47Z</time>
      </trkpt>
      <trkpt lat="43.698691008612514" lon="4.600677033886313">
        <ele>7.35</ele>
        <time>2025-05-17T06:52:48Z</time>
      </trkpt>
      <trkpt lat="43.698757980018854" lon="4.600810976698995">
        <ele>7.35</ele>
        <time>2025-05-17T06:52:49Z</time>
      </trkpt>
      <trkpt lat="43.69879100471735" lon="4.600978028029203">
        <ele>7.35</ele>
        <time>2025-05-17T06:52:50Z</time>
      </trkpt>
      <trkpt lat="43.698869040235877" lon="4.601022033020854">
        <ele>7.35</ele>
        <time>2025-05-17T06:52:51Z</time>
      </trkpt>
      <trkpt lat="43.698950009420514" lon="4.601066038012505">
        <ele>7.35</ele>
        <time>2025-05-17T06:52:52Z</time>
      </trkpt>
      <trkpt lat="43.699059979990125" lon="4.601055979728699">
        <ele>6.87</ele>
        <time>2025-05-17T06:52:53Z</time>
      </trkpt>
      <trkpt lat="43.699108008295298" lon="4.601039970293641">
        <ele>7.35</ele>
        <time>2025-05-17T06:52:54Z</time>
      </trkpt>
      <trkpt lat="43.699302971363068" lon="4.600871996954083">
        <ele>7.35</ele>
        <time>2025-05-17T06:52:55Z</time>
      </trkpt>
      <trkpt lat="43.699436997994781" lon="4.600919019430876">
        <ele>7.35</ele>
        <time>2025-05-17T06:52:56Z</time>
      </trkpt>
      <trkpt lat="43.699588039889932" lon="4.600965036079288">
        <ele>7.35</ele>
        <time>2025-05-17T06:52:57Z</time>
      </trkpt>
      <trkpt lat="43.701136009767652" lon="4.601286984980106">
        <ele>8.310000000000001</ele>
        <time>2025-05-17T06:53:05Z</time>
      </trkpt>
      <trkpt lat="43.704049978405237" lon="4.601992992684245">
        <ele>9.27</ele>
        <time>2025-05-17T06:53:19Z</time>
      </trkpt>
      <trkpt lat="43.705051029101014" lon="4.602757003158331">
        <ele>11.19</ele>
        <time>2025-05-17T06:53:25Z</time>
      </trkpt>
      <trkpt lat="43.705179020762444" lon="4.602941991761327">
        <ele>11.67</ele>
        <time>2025-05-17T06:53:26Z</time>
      </trkpt>
      <trkpt lat="43.705303994938731" lon="4.603122035041452">
        <ele>11.67</ele>
        <time>2025-05-17T06:53:27Z</time>
      </trkpt>
      <trkpt lat="43.70646002702415" lon="4.605175014585257">
        <ele>9.27</ele>
        <time>2025-05-17T06:53:37Z</time>
      </trkpt>
      <trkpt lat="43.707239041104913" lon="4.606551993638277">
        <ele>8.310000000000001</ele>
        <time>2025-05-17T06:53:45Z</time>
      </trkpt>
      <trkpt lat="43.707483960315585" lon="4.607084998860955">
        <ele>8.789999999999999</ele>
        <time>2025-05-17T06:53:49Z</time>
      </trkpt>
      <trkpt lat="43.707531988620758" lon="4.607180971652269">
        <ele>8.789999999999999</ele>
        <time>2025-05-17T06:53:50Z</time>
      </trkpt>
      <trkpt lat="43.707633996382356" lon="4.607228999957442">
        <ele>8.789999999999999</ele>
        <time>2025-05-17T06:53:51Z</time>
      </trkpt>
      <trkpt lat="43.707669032737613" lon="4.607240986078978">
        <ele>8.789999999999999</ele>
        <time>2025-05-17T06:53:52Z</time>
      </trkpt>
      <trkpt lat="43.707851003855467" lon="4.607129003852606">
        <ele>8.310000000000001</ele>
        <time>2025-05-17T06:53:53Z</time>
      </trkpt>
      <trkpt lat="43.707947982475162" lon="4.607179965823889">
        <ele>8.310000000000001</ele>
        <time>2025-05-17T06:53:54Z</time>
      </trkpt>
      <trkpt lat="43.70805200189352" lon="4.607235034927726">
        <ele>7.83</ele>
        <time>2025-05-17T06:53:55Z</time>
      </trkpt>
      <trkpt lat="43.709210967645049" lon="4.607389010488987">
        <ele>8.310000000000001</ele>
        <time>2025-05-17T06:54:04Z</time>
      </trkpt>
      <trkpt lat="43.710506977513433" lon="4.607020961120725">
        <ele>9.27</ele>
        <time>2025-05-17T06:54:11Z</time>
      </trkpt>
      <trkpt lat="43.712514024227858" lon="4.606457026675344">
        <ele>9.75</ele>
        <time>2025-05-17T06:54:20Z</time>
      </trkpt>
      <trkpt lat="43.714224016293883" lon="4.606392988935113">
        <ele>10.710000000000001</ele>
        <time>2025-05-17T06:54:28Z</time>
      </trkpt>
      <trkpt lat="43.716082032769918" lon="4.606372034177184">
        <ele>10.23</ele>
        <time>2025-05-17T06:54:37Z</time>
      </trkpt>
      <trkpt lat="43.718760972842574" lon="4.606114961206913">
        <ele>9.27</ele>
        <time>2025-05-17T06:54:50Z</time>
      </trkpt>
      <trkpt lat="43.721470003947616" lon="4.605941958725452">
        <ele>9.27</ele>
        <time>2025-05-17T06:55:03Z</time>
      </trkpt>
      <trkpt lat="43.722636010497808" lon="4.606479993090034">
        <ele>8.789999999999999</ele>
        <time>2025-05-17T06:55:09Z</time>
      </trkpt>
      <trkpt lat="43.723183013498783" lon="4.606812000274658">
        <ele>8.310000000000001</ele>
        <time>2025-05-17T06:55:12Z</time>
      </trkpt>
      <trkpt lat="43.723373031243682" lon="4.606865979731083">
        <ele>8.310000000000001</ele>
        <time>2025-05-17T06:55:13Z</time>
      </trkpt>
      <trkpt lat="43.723560031503439" lon="4.606919959187508">
        <ele>7.83</ele>
        <time>2025-05-17T06:55:14Z</time>
      </trkpt>
      <trkpt lat="43.723750971257687" lon="4.606940997764468">
        <ele>7.35</ele>
        <time>2025-05-17T06:55:15Z</time>
      </trkpt>
      <trkpt lat="43.723945012316108" lon="4.606954995542765">
        <ele>7.35</ele>
        <time>2025-05-17T06:55:16Z</time>
      </trkpt>
      <trkpt lat="43.725488958880305" lon="4.607158005237579">
        <ele>9.27</ele>
        <time>2025-05-17T06:55:24Z</time>
      </trkpt>
      <trkpt lat="43.729254025965929" lon="4.608571026474237">
        <ele>11.19</ele>
        <time>2025-05-17T06:55:43Z</time>
      </trkpt>
      <trkpt lat="43.731359979137778" lon="4.609249038621783">
        <ele>12.15</ele>
        <time>2025-05-17T06:55:54Z</time>
      </trkpt>
      <trkpt lat="43.734031040221453" lon="4.610314965248108">
        <ele>10.710000000000001</ele>
        <time>2025-05-17T06:56:08Z</time>
      </trkpt>
      <trkpt lat="43.736121989786625" lon="4.611245021224022">
        <ele>11.19</ele>
        <time>2025-05-17T06:56:19Z</time>
      </trkpt>
      <trkpt lat="43.736312007531524" lon="4.611300006508827">
        <ele>10.23</ele>
        <time>2025-05-17T06:56:20Z</time>
      </trkpt>
      <trkpt lat="43.738287035375834" lon="4.611443001776934">
        <ele>8.789999999999999</ele>
        <time>2025-05-17T06:56:30Z</time>
      </trkpt>
      <trkpt lat="43.739881021901965" lon="4.611382987350225">
        <ele>9.27</ele>
        <time>2025-05-17T06:56:38Z</time>
      </trkpt>
      <trkpt lat="43.740080008283257" lon="4.611407965421677">
        <ele>9.75</ele>
        <time>2025-05-17T06:56:39Z</time>
      </trkpt>
      <trkpt lat="43.741829982027411" lon="4.611977012827992">
        <ele>9.75</ele>
        <time>2025-05-17T06:56:48Z</time>
      </trkpt>
      <trkpt lat="43.744921982288361" lon="4.613103959709406">
        <ele>9.75</ele>
        <time>2025-05-17T06:57:04Z</time>
      </trkpt>
      <trkpt lat="43.746500965207815" lon="4.613114017993212">
        <ele>10.710000000000001</ele>
        <time>2025-05-17T06:57:12Z</time>
      </trkpt>
      <trkpt lat="43.750066962093115" lon="4.61255100555718">
        <ele>9.75</ele>
        <time>2025-05-17T06:57:30Z</time>
      </trkpt>
      <trkpt lat="43.751776032149792" lon="4.611892020329833">
        <ele>8.310000000000001</ele>
        <time>2025-05-17T06:57:39Z</time>
      </trkpt>
      <trkpt lat="43.753361972048879" lon="4.611717006191611">
        <ele>8.310000000000001</ele>
        <time>2025-05-17T06:57:47Z</time>
      </trkpt>
      <trkpt lat="43.754671979695559" lon="4.612342966720462">
        <ele>8.310000000000001</ele>
        <time>2025-05-17T06:57:54Z</time>
      </trkpt>
      <trkpt lat="43.755916021764278" lon="4.613707037642598">
        <ele>9.27</ele>
        <time>2025-05-17T06:58:02Z</time>
      </trkpt>
      <trkpt lat="43.75692998059094" lon="4.614564003422856">
        <ele>8.789999999999999</ele>
        <time>2025-05-17T06:58:08Z</time>
      </trkpt>
      <trkpt lat="43.759330976754427" lon="4.615941988304257">
        <ele>7.35</ele>
        <time>2025-05-17T06:58:21Z</time>
      </trkpt>
      <trkpt lat="43.761457968503237" lon="4.616716979071498">
        <ele>8.789999999999999</ele>
        <time>2025-05-17T06:58:32Z</time>
      </trkpt>
      <trkpt lat="43.764561032876372" lon="4.617775026708841">
        <ele>9.27</ele>
        <time>2025-05-17T06:58:48Z</time>
      </trkpt>
      <trkpt lat="43.766069021075964" lon="4.618496038019657">
        <ele>9.27</ele>
        <time>2025-05-17T06:58:56Z</time>
      </trkpt>
      <trkpt lat="43.768629021942616" lon="4.620009977370501">
        <ele>7.35</ele>
        <time>2025-05-17T06:59:10Z</time>
      </trkpt>
      <trkpt lat="43.770195012912154" lon="4.620413985103369">
        <ele>7.83</ele>
        <time>2025-05-17T06:59:18Z</time>
      </trkpt>
      <trkpt lat="43.772751996293664" lon="4.621117981150746">
        <ele>8.789999999999999</ele>
        <time>2025-05-17T06:59:31Z</time>
      </trkpt>
      <trkpt lat="43.774538012221456" lon="4.621335994452238">
        <ele>8.310000000000001</ele>
        <time>2025-05-17T06:59:40Z</time>
      </trkpt>
      <trkpt lat="43.77671898342669" lon="4.621557025238872">
        <ele>8.789999999999999</ele>
        <time>2025-05-17T06:59:51Z</time>
      </trkpt>
      <trkpt lat="43.778462000191212" lon="4.622164964675903">
        <ele>9.27</ele>
        <time>2025-05-17T07:00:00Z</time>
      </trkpt>
      <trkpt lat="43.780338959768414" lon="4.623688962310553">
        <ele>10.23</ele>
        <time>2025-05-17T07:00:11Z</time>
      </trkpt>
      <trkpt lat="43.782843975350261" lon="4.625480007380247">
        <ele>12.15</ele>
        <time>2025-05-17T07:00:25Z</time>
      </trkpt>
      <trkpt lat="43.784417007118464" lon="4.626632016152144">
        <ele>13.6</ele>
        <time>2025-05-17T07:00:34Z</time>
      </trkpt>
      <trkpt lat="43.785615032538772" lon="4.62739703245461">
        <ele>14.56</ele>
        <time>2025-05-17T07:00:42Z</time>
      </trkpt>
      <trkpt lat="43.786964016035199" lon="4.627669025212526">
        <ele>13.119999999999999</ele>
        <time>2025-05-17T07:00:51Z</time>
      </trkpt>
      <trkpt lat="43.78883502446115" lon="4.627501973882318">
        <ele>11.19</ele>
        <time>2025-05-17T07:01:02Z</time>
      </trkpt>
      <trkpt lat="43.790590027347207" lon="4.627964990213513">
        <ele>10.710000000000001</ele>
        <time>2025-05-17T07:01:11Z</time>
      </trkpt>
      <trkpt lat="43.791383961215615" lon="4.628419037908316">
        <ele>10.23</ele>
        <time>2025-05-17T07:01:16Z</time>
      </trkpt>
      <trkpt lat="43.791508013382554" lon="4.628534037619829">
        <ele>10.23</ele>
        <time>2025-05-17T07:01:17Z</time>
      </trkpt>
      <trkpt lat="43.791621001437306" lon="4.628668986260891">
        <ele>10.23</ele>
        <time>2025-05-17T07:01:18Z</time>
      </trkpt>
      <trkpt lat="43.791729966178536" lon="4.628813993185759">
        <ele>10.23</ele>
        <time>2025-05-17T07:01:19Z</time>
      </trkpt>
      <trkpt lat="43.791840020567179" lon="4.628960005939007">
        <ele>10.23</ele>
        <time>2025-05-17T07:01:20Z</time>
      </trkpt>
      <trkpt lat="43.792428011074662" lon="4.629820995032787">
        <ele>9.27</ele>
        <time>2025-05-17T07:01:27Z</time>
      </trkpt>
      <trkpt lat="43.79249095916748" lon="4.629983017221093">
        <ele>9.27</ele>
        <time>2025-05-17T07:01:28Z</time>
      </trkpt>
      <trkpt lat="43.792513003572822" lon="4.630307983607054">
        <ele>8.789999999999999</ele>
        <time>2025-05-17T07:01:30Z</time>
      </trkpt>
      <trkpt lat="43.792586009949446" lon="4.630423989146948">
        <ele>8.310000000000001</ele>
        <time>2025-05-17T07:01:31Z</time>
      </trkpt>
      <trkpt lat="43.792708972468972" lon="4.630501018837094">
        <ele>8.310000000000001</ele>
        <time>2025-05-17T07:01:32Z</time>
      </trkpt>
      <trkpt lat="43.792816009372473" lon="4.630501018837094">
        <ele>8.310000000000001</ele>
        <time>2025-05-17T07:01:33Z</time>
      </trkpt>
      <trkpt lat="43.79291801713407" lon="4.630434969440103">
        <ele>8.310000000000001</ele>
        <time>2025-05-17T07:01:34Z</time>
      </trkpt>
      <trkpt lat="43.793016001582146" lon="4.630357017740607">
        <ele>7.83</ele>
        <time>2025-05-17T07:01:35Z</time>
      </trkpt>
      <trkpt lat="43.79317601211369" lon="4.630369003862143">
        <ele>8.310000000000001</ele>
        <time>2025-05-17T07:01:36Z</time>
      </trkpt>
      <trkpt lat="43.79332797601819" lon="4.630415020510554">
        <ele>8.310000000000001</ele>
        <time>2025-05-17T07:01:37Z</time>
      </trkpt>
      <trkpt lat="43.794721970334649" lon="4.630374033004046">
        <ele>9.75</ele>
        <time>2025-05-17T07:01:46Z</time>
      </trkpt>
      <trkpt lat="43.796627009287477" lon="4.630783991888166">
        <ele>8.310000000000001</ele>
        <time>2025-05-17T07:01:57Z</time>
      </trkpt>
      <trkpt lat="43.798257037997246" lon="4.63113896548748">
        <ele>6.39</ele>
        <time>2025-05-17T07:02:07Z</time>
      </trkpt>
      <trkpt lat="43.79923302680254" lon="4.631366031244397">
        <ele>6.39</ele>
        <time>2025-05-17T07:02:15Z</time>
      </trkpt>
      <trkpt lat="43.799331011250615" lon="4.631401989609003">
        <ele>6.39</ele>
        <time>2025-05-17T07:02:16Z</time>
      </trkpt>
      <trkpt lat="43.799423966556787" lon="4.631455969065428">
        <ele>6.39</ele>
        <time>2025-05-17T07:02:17Z</time>
      </trkpt>
      <trkpt lat="43.799517005681992" lon="4.631510032340884">
        <ele>6.39</ele>
        <time>2025-05-17T07:02:18Z</time>
      </trkpt>
      <trkpt lat="43.799700988456607" lon="4.631616985425353">
        <ele>6.39</ele>
        <time>2025-05-17T07:02:20Z</time>
      </trkpt>
      <trkpt lat="43.800488971173763" lon="4.63236004114151">
        <ele>7.35</ele>
        <time>2025-05-17T07:02:30Z</time>
      </trkpt>
      <trkpt lat="43.801375022158027" lon="4.633203009143472">
        <ele>6.87</ele>
        <time>2025-05-17T07:02:42Z</time>
      </trkpt>
      <trkpt lat="43.801796967163682" lon="4.633608022704721">
        <ele>7.35</ele>
        <time>2025-05-17T07:02:48Z</time>
      </trkpt>
      <trkpt lat="43.802658040076494" lon="4.634465994313359">
        <ele>8.310000000000001</ele>
        <time>2025-05-17T07:03:00Z</time>
      </trkpt>
      <trkpt lat="43.802724005654454" lon="4.634547969326377">
        <ele>8.310000000000001</ele>
        <time>2025-05-17T07:03:01Z</time>
      </trkpt>
      <trkpt lat="43.802788965404034" lon="4.634629022330046">
        <ele>8.789999999999999</ele>
        <time>2025-05-17T07:03:02Z</time>
      </trkpt>
      <trkpt lat="43.803044026717544" lon="4.634946025907993">
        <ele>8.789999999999999</ele>
        <time>2025-05-17T07:03:06Z</time>
      </trkpt>
      <trkpt lat="43.803104963153601" lon="4.635017020627856">
        <ele>8.789999999999999</ele>
        <time>2025-05-17T07:03:07Z</time>
      </trkpt>
      <trkpt lat="43.803202025592327" lon="4.63513202033937">
        <ele>8.789999999999999</ele>
        <time>2025-05-17T07:03:09Z</time>
      </trkpt>
      <trkpt lat="43.803242007270455" lon="4.63517895899713">
        <ele>8.789999999999999</ele>
        <time>2025-05-17T07:03:10Z</time>
      </trkpt>
      <trkpt lat="43.803420038893819" lon="4.635318014770746">
        <ele>9.27</ele>
        <time>2025-05-17T07:03:20Z</time>
      </trkpt>
      <trkpt lat="43.803464965894818" lon="4.635351961478591">
        <ele>9.27</ele>
        <time>2025-05-17T07:04:02Z</time>
      </trkpt>
      <trkpt lat="43.803684990853071" lon="4.635468972846866">
        <ele>8.310000000000001</ele>
        <time>2025-05-17T07:04:06Z</time>
      </trkpt>
      <trkpt lat="43.803824968636036" lon="4.635548014193773">
        <ele>8.310000000000001</ele>
        <time>2025-05-17T07:04:08Z</time>
      </trkpt>
      <trkpt lat="43.803881965577602" lon="4.63560501113534">
        <ele>8.310000000000001</ele>
        <time>2025-05-17T07:04:09Z</time>
      </trkpt>
      <trkpt lat="43.803937034681439" lon="4.635658990591765">
        <ele>8.789999999999999</ele>
        <time>2025-05-17T07:04:10Z</time>
      </trkpt>
      <trkpt lat="43.803994031623006" lon="4.635722022503614">
        <ele>9.27</ele>
        <time>2025-05-17T07:04:11Z</time>
      </trkpt>
      <trkpt lat="43.804053040221334" lon="4.635787988081574">
        <ele>9.27</ele>
        <time>2025-05-17T07:04:12Z</time>
      </trkpt>
      <trkpt lat="43.804113976657391" lon="4.635856971144676">
        <ele>9.75</ele>
        <time>2025-05-17T07:04:13Z</time>
      </trkpt>
      <trkpt lat="43.804177008569241" lon="4.635927965864539">
        <ele>9.75</ele>
        <time>2025-05-17T07:04:14Z</time>
      </trkpt>
      <trkpt lat="43.80423903465271" lon="4.635998038575053">
        <ele>9.75</ele>
        <time>2025-05-17T07:04:15Z</time>
      </trkpt>
      <trkpt lat="43.804298965260386" lon="4.636064004153013">
        <ele>9.75</ele>
        <time>2025-05-17T07:04:16Z</time>
      </trkpt>
      <trkpt lat="43.804840017110109" lon="4.636613018810749">
        <ele>9.27</ele>
        <time>2025-05-17T07:04:24Z</time>
      </trkpt>
      <trkpt lat="43.804896008223295" lon="4.636707985773683">
        <ele>9.27</ele>
        <time>2025-05-17T07:04:25Z</time>
      </trkpt>
      <trkpt lat="43.804943030700088" lon="4.636806976050139">
        <ele>9.27</ele>
        <time>2025-05-17T07:04:26Z</time>
      </trkpt>
      <trkpt lat="43.804990975186229" lon="4.636905966326594">
        <ele>9.27</ele>
        <time>2025-05-17T07:04:27Z</time>
      </trkpt>
      <trkpt lat="43.805040009319782" lon="4.637006968259811">
        <ele>9.27</ele>
        <time>2025-05-17T07:04:28Z</time>
      </trkpt>
      <trkpt lat="43.805089965462685" lon="4.63711098767817">
        <ele>9.27</ele>
        <time>2025-05-17T07:04:29Z</time>
      </trkpt>
      <trkpt lat="43.805138999596238" lon="4.637212995439768">
        <ele>9.27</ele>
        <time>2025-05-17T07:04:30Z</time>
      </trkpt>
      <trkpt lat="43.805188033729792" lon="4.637315003201366">
        <ele>9.27</ele>
        <time>2025-05-17T07:04:31Z</time>
      </trkpt>
      <trkpt lat="43.805237989872694" lon="4.637420028448105">
        <ele>9.27</ele>
        <time>2025-05-17T07:04:32Z</time>
      </trkpt>
      <trkpt lat="43.805518029257655" lon="4.637982035055757">
        <ele>9.75</ele>
        <time>2025-05-17T07:04:38Z</time>
      </trkpt>
      <trkpt lat="43.805557005107403" lon="4.638025034219027">
        <ele>9.75</ele>
        <time>2025-05-17T07:04:39Z</time>
      </trkpt>
      <trkpt lat="43.805605033412576" lon="4.638057975098491">
        <ele>10.23</ele>
        <time>2025-05-17T07:04:40Z</time>
      </trkpt>
      <trkpt lat="43.805652977898717" lon="4.638090999796987">
        <ele>10.23</ele>
        <time>2025-05-17T07:04:41Z</time>
      </trkpt>
      <trkpt lat="43.805697988718748" lon="4.638122012838721">
        <ele>10.710000000000001</ele>
        <time>2025-05-17T07:04:42Z</time>
      </trkpt>
      <trkpt lat="43.805740987882018" lon="4.638152020052075">
        <ele>10.710000000000001</ele>
        <time>2025-05-17T07:04:43Z</time>
      </trkpt>
      <trkpt lat="43.805797984823585" lon="4.638190995901823">
        <ele>11.19</ele>
        <time>2025-05-17T07:04:44Z</time>
      </trkpt>
      <trkpt lat="43.805854981765151" lon="4.638299960643053">
        <ele>11.19</ele>
        <time>2025-05-17T07:04:45Z</time>
      </trkpt>
      <trkpt lat="43.805860010907054" lon="4.63831203058362">
        <ele>11.67</ele>
        <time>2025-05-17T07:04:46Z</time>
      </trkpt>
      <trkpt lat="43.805914996191859" lon="4.6384840272367">
        <ele>12.15</ele>
        <time>2025-05-17T07:04:47Z</time>
      </trkpt>
      <trkpt lat="43.805908961221576" lon="4.63857002556324">
        <ele>12.15</ele>
        <time>2025-05-17T07:04:48Z</time>
      </trkpt>
      <trkpt lat="43.805904015898705" lon="4.638650994747877">
        <ele>12.15</ele>
        <time>2025-05-17T07:04:49Z</time>
      </trkpt>
      <trkpt lat="43.805899992585182" lon="4.638722995296121">
        <ele>12.15</ele>
        <time>2025-05-17T07:04:50Z</time>
      </trkpt>
      <trkpt lat="43.80589596927166" lon="4.638788960874081">
        <ele>12.15</ele>
        <time>2025-05-17T07:04:51Z</time>
      </trkpt>
      <trkpt lat="43.805837966501713" lon="4.639253988862038">
        <ele>10.710000000000001</ele>
        <time>2025-05-17T07:05:02Z</time>
      </trkpt>
      <trkpt lat="43.805747022852302" lon="4.639868969097734">
        <ele>10.23</ele>
        <time>2025-05-17T07:05:15Z</time>
      </trkpt>
      <trkpt lat="43.805650966241956" lon="4.640522003173828">
        <ele>8.789999999999999</ele>
        <time>2025-05-17T07:05:25Z</time>
      </trkpt>
      <trkpt lat="43.80563797429204" lon="4.640612024813891">
        <ele>8.789999999999999</ele>
        <time>2025-05-17T07:05:26Z</time>
      </trkpt>
      <trkpt lat="43.805623976513743" lon="4.640709003433585">
        <ele>8.789999999999999</ele>
        <time>2025-05-17T07:05:27Z</time>
      </trkpt>
      <trkpt lat="43.805609978735447" lon="4.640810005366802">
        <ele>8.789999999999999</ele>
        <time>2025-05-17T07:05:28Z</time>
      </trkpt>
      <trkpt lat="43.80559598095715" lon="4.640906983986497">
        <ele>8.310000000000001</ele>
        <time>2025-05-17T07:05:29Z</time>
      </trkpt>
      <trkpt lat="43.805580977350473" lon="4.641009997576475">
        <ele>8.310000000000001</ele>
        <time>2025-05-17T07:05:30Z</time>
      </trkpt>
      <trkpt lat="43.805550970137119" lon="4.641220970079303">
        <ele>8.310000000000001</ele>
        <time>2025-05-17T07:05:32Z</time>
      </trkpt>
      <trkpt lat="43.805536972358823" lon="4.641320966184139">
        <ele>8.310000000000001</ele>
        <time>2025-05-17T07:05:33Z</time>
      </trkpt>
      <trkpt lat="43.805454997345805" lon="4.641892025247216">
        <ele>9.27</ele>
        <time>2025-05-17T07:05:39Z</time>
      </trkpt>
      <trkpt lat="43.805344020947814" lon="4.642685959115624">
        <ele>7.35</ele>
        <time>2025-05-17T07:05:47Z</time>
      </trkpt>
      <trkpt lat="43.805331028997898" lon="4.642778998240829">
        <ele>6.87</ele>
        <time>2025-05-17T07:05:48Z</time>
      </trkpt>
      <trkpt lat="43.805318037047982" lon="4.64286801405251">
        <ele>6.39</ele>
        <time>2025-05-17T07:05:49Z</time>
      </trkpt>
      <trkpt lat="43.805306972935796" lon="4.642950994893909">
        <ele>6.39</ele>
        <time>2025-05-17T07:05:50Z</time>
      </trkpt>
      <trkpt lat="43.80529398098588" lon="4.64304001070559">
        <ele>5.91</ele>
        <time>2025-05-17T07:05:51Z</time>
      </trkpt>
      <trkpt lat="43.805179987102747" lon="4.643804021179676">
        <ele>4.46</ele>
        <time>2025-05-17T07:05:59Z</time>
      </trkpt>
      <trkpt lat="43.805168000981212" lon="4.643902005627751">
        <ele>4.46</ele>
        <time>2025-05-17T07:06:00Z</time>
      </trkpt>
      <trkpt lat="43.805051995441318" lon="4.644832983613014">
        <ele>3.98</ele>
        <time>2025-05-17T07:06:09Z</time>
      </trkpt>
      <trkpt lat="43.805034980177879" lon="4.64493096806109">
        <ele>4.46</ele>
        <time>2025-05-17T07:06:10Z</time>
      </trkpt>
      <trkpt lat="43.805018970742822" lon="4.645029958337545">
        <ele>3.98</ele>
        <time>2025-05-17T07:06:11Z</time>
      </trkpt>
      <trkpt lat="43.805001033470035" lon="4.645134983584285">
        <ele>4.46</ele>
        <time>2025-05-17T07:06:12Z</time>
      </trkpt>
      <trkpt lat="43.804960967972875" lon="4.645202038809657">
        <ele>4.46</ele>
        <time>2025-05-17T07:06:13Z</time>
      </trkpt>
      <trkpt lat="43.804889973253012" lon="4.645260041579604">
        <ele>4.46</ele>
        <time>2025-05-17T07:06:14Z</time>
      </trkpt>
      <trkpt lat="43.804814033210278" lon="4.645288037136197">
        <ele>4.94</ele>
        <time>2025-05-17T07:06:15Z</time>
      </trkpt>
      <trkpt lat="43.804732980206609" lon="4.645317038521171">
        <ele>4.94</ele>
        <time>2025-05-17T07:06:16Z</time>
      </trkpt>
      <trkpt lat="43.804679000750184" lon="4.645366994664073">
        <ele>4.94</ele>
        <time>2025-05-17T07:06:17Z</time>
      </trkpt>
      <trkpt lat="43.804636001586914" lon="4.645442012697458">
        <ele>4.94</ele>
        <time>2025-05-17T07:06:18Z</time>
      </trkpt>
      <trkpt lat="43.804614963009953" lon="4.645502027124167">
        <ele>4.46</ele>
        <time>2025-05-17T07:06:19Z</time>
      </trkpt>
      <trkpt lat="43.804618986323476" lon="4.645591964945197">
        <ele>4.46</ele>
        <time>2025-05-17T07:06:20Z</time>
      </trkpt>
      <trkpt lat="43.804633989930153" lon="4.645687015727162">
        <ele>4.46</ele>
        <time>2025-05-17T07:06:21Z</time>
      </trkpt>
      <trkpt lat="43.804649999365211" lon="4.64578902348876">
        <ele>4.46</ele>
        <time>2025-05-17T07:06:22Z</time>
      </trkpt>
      <trkpt lat="43.80466902628541" lon="4.645892037078738">
        <ele>3.98</ele>
        <time>2025-05-17T07:06:23Z</time>
      </trkpt>
      <trkpt lat="43.8046919927001" lon="4.645997984334827">
        <ele>3.98</ele>
        <time>2025-05-17T07:06:24Z</time>
      </trkpt>
      <trkpt lat="43.804721999913454" lon="4.646100997924805">
        <ele>3.5</ele>
        <time>2025-05-17T07:06:25Z</time>
      </trkpt>
      <trkpt lat="43.80475795827806" lon="4.646212980151177">
        <ele>3.5</ele>
        <time>2025-05-17T07:06:26Z</time>
      </trkpt>
      <trkpt lat="43.804794000461698" lon="4.646324962377548">
        <ele>3.02</ele>
        <time>2025-05-17T07:06:27Z</time>
      </trkpt>
      <trkpt lat="43.804831970483065" lon="4.646442979574204">
        <ele>2.54</ele>
        <time>2025-05-17T07:06:28Z</time>
      </trkpt>
      <trkpt lat="43.804870024323463" lon="4.646560996770859">
        <ele>2.54</ele>
        <time>2025-05-17T07:06:29Z</time>
      </trkpt>
      <trkpt lat="43.804916040971875" lon="4.646707009524107">
        <ele>3.02</ele>
        <time>2025-05-17T07:06:30Z</time>
      </trkpt>
      <trkpt lat="43.804930038750172" lon="4.64684396982193">
        <ele>3.5</ele>
        <time>2025-05-17T07:06:31Z</time>
      </trkpt>
      <trkpt lat="43.804973959922791" lon="4.647264992818236">
        <ele>5.42</ele>
        <time>2025-05-17T07:06:34Z</time>
      </trkpt>
      <trkpt lat="43.804950993508101" lon="4.647436989471316">
        <ele>6.39</ele>
        <time>2025-05-17T07:06:35Z</time>
      </trkpt>
      <trkpt lat="43.804914029315114" lon="4.647579984739423">
        <ele>7.35</ele>
        <time>2025-05-17T07:06:36Z</time>
      </trkpt>
      <trkpt lat="43.804658968001604" lon="4.649203978478909">
        <ele>15.52</ele>
        <time>2025-05-17T07:06:46Z</time>
      </trkpt>
      <trkpt lat="43.804673971608281" lon="4.65131001546979">
        <ele>19.84</ele>
        <time>2025-05-17T07:06:58Z</time>
      </trkpt>
      <trkpt lat="43.804700961336493" lon="4.653783012181521">
        <ele>17.440000000000001</ele>
        <time>2025-05-17T07:07:11Z</time>
      </trkpt>
      <trkpt lat="43.804700961336493" lon="4.654339989647269">
        <ele>15.52</ele>
        <time>2025-05-17T07:07:15Z</time>
      </trkpt>
      <trkpt lat="43.804749995470047" lon="4.654439985752106">
        <ele>15.039999999999999</ele>
        <time>2025-05-17T07:07:16Z</time>
      </trkpt>
      <trkpt lat="43.804801963269711" lon="4.654503017663956">
        <ele>14.56</ele>
        <time>2025-05-17T07:07:17Z</time>
      </trkpt>
      <trkpt lat="43.804866001009941" lon="4.654562026262283">
        <ele>14.56</ele>
        <time>2025-05-17T07:07:18Z</time>
      </trkpt>
      <trkpt lat="43.804933978244662" lon="4.654624974355102">
        <ele>14.08</ele>
        <time>2025-05-17T07:07:19Z</time>
      </trkpt>
      <trkpt lat="43.805005978792906" lon="4.654691023752093">
        <ele>13.6</ele>
        <time>2025-05-17T07:07:20Z</time>
      </trkpt>
      <trkpt lat="43.805083008483052" lon="4.654725976288319">
        <ele>13.6</ele>
        <time>2025-05-17T07:07:21Z</time>
      </trkpt>
      <trkpt lat="43.805175041779876" lon="4.654722036793828">
        <ele>13.119999999999999</ele>
        <time>2025-05-17T07:07:22Z</time>
      </trkpt>
      <trkpt lat="43.805270008742809" lon="4.654719019308686">
        <ele>12.630000000000001</ele>
        <time>2025-05-17T07:07:23Z</time>
      </trkpt>
      <trkpt lat="43.805705029517412" lon="4.654732011258602">
        <ele>11.19</ele>
        <time>2025-05-17T07:07:28Z</time>
      </trkpt>
      <trkpt lat="43.805774012580514" lon="4.654763024300337">
        <ele>10.710000000000001</ele>
        <time>2025-05-17T07:07:29Z</time>
      </trkpt>
      <trkpt lat="43.805837966501713" lon="4.65479101985693">
        <ele>10.710000000000001</ele>
        <time>2025-05-17T07:07:30Z</time>
      </trkpt>
      <trkpt lat="43.805871997028589" lon="4.654848016798496">
        <ele>10.23</ele>
        <time>2025-05-17T07:07:31Z</time>
      </trkpt>
      <trkpt lat="43.805902004241943" lon="4.654896967113018">
        <ele>9.75</ele>
        <time>2025-05-17T07:07:32Z</time>
      </trkpt>
      <trkpt lat="43.805899992585182" lon="4.654932003468275">
        <ele>9.75</ele>
        <time>2025-05-17T07:07:33Z</time>
      </trkpt>
      <trkpt lat="43.80589697510004" lon="4.654976008459926">
        <ele>9.27</ele>
        <time>2025-05-17T07:07:34Z</time>
      </trkpt>
      <trkpt lat="43.805894963443279" lon="4.655000986531377">
        <ele>8.789999999999999</ele>
        <time>2025-05-17T07:07:35Z</time>
      </trkpt>
      <trkpt lat="43.805892029777169" lon="4.655039962381125">
        <ele>8.789999999999999</ele>
        <time>2025-05-17T07:07:38Z</time>
      </trkpt>
      <trkpt lat="43.805889012292027" lon="4.65507298707962">
        <ele>8.310000000000001</ele>
        <time>2025-05-17T07:07:39Z</time>
      </trkpt>
      <trkpt lat="43.805880965664983" lon="4.65517801232636">
        <ele>8.310000000000001</ele>
        <time>2025-05-17T07:07:40Z</time>
      </trkpt>
      <trkpt lat="43.805879959836602" lon="4.655182035639882">
        <ele>8.310000000000001</ele>
        <time>2025-05-17T07:07:41Z</time>
      </trkpt>
      <trkpt lat="43.805859005078673" lon="4.655242972075939">
        <ele>7.83</ele>
        <time>2025-05-17T07:07:42Z</time>
      </trkpt>
      <trkpt lat="43.805841989815235" lon="4.655296029523015">
        <ele>7.83</ele>
        <time>2025-05-17T07:07:43Z</time>
      </trkpt>
      <trkpt lat="43.805862022563815" lon="4.655335005372763">
        <ele>7.83</ele>
        <time>2025-05-17T07:07:44Z</time>
      </trkpt>
      <trkpt lat="43.805888006463647" lon="4.655369035899639">
        <ele>7.83</ele>
        <time>2025-05-17T07:07:45Z</time>
      </trkpt>
      <trkpt lat="43.805910972878337" lon="4.655398037284613">
        <ele>7.35</ele>
        <time>2025-05-17T07:07:46Z</time>
      </trkpt>
      <trkpt lat="43.805988002568483" lon="4.655370963737369">
        <ele>7.35</ele>
        <time>2025-05-17T07:07:47Z</time>
      </trkpt>
      <trkpt lat="43.805990014225245" lon="4.655371969565749">
        <ele>6.87</ele>
        <time>2025-05-17T07:07:48Z</time>
      </trkpt>
      <trkpt lat="43.806028990074992" lon="4.655390996485949">
        <ele>6.87</ele>
        <time>2025-05-17T07:07:49Z</time>
      </trkpt>
      <trkpt lat="43.80649602971971" lon="4.655573973432183">
        <ele>5.91</ele>
        <time>2025-05-17T07:07:57Z</time>
      </trkpt>
      <trkpt lat="43.806849997490644" lon="4.655718980357051">
        <ele>4.46</ele>
        <time>2025-05-17T07:08:03Z</time>
      </trkpt>
      <trkpt lat="43.806901965290308" lon="4.655743036419153">
        <ele>4.46</ele>
        <time>2025-05-17T07:08:04Z</time>
      </trkpt>
      <trkpt lat="43.806931972503662" lon="4.65575703419745">
        <ele>4.46</ele>
        <time>2025-05-17T07:08:05Z</time>
      </trkpt>
      <trkpt lat="43.806973965838552" lon="4.655804978683591">
        <ele>3.98</ele>
        <time>2025-05-17T07:08:06Z</time>
      </trkpt>
      <trkpt lat="43.807002967223525" lon="4.655839009210467">
        <ele>3.98</ele>
        <time>2025-05-17T07:08:07Z</time>
      </trkpt>
      <trkpt lat="43.807060969993472" lon="4.655906986445189">
        <ele>3.98</ele>
        <time>2025-05-17T07:08:08Z</time>
      </trkpt>
      <trkpt lat="43.807060969993472" lon="4.655937999486923">
        <ele>3.98</ele>
        <time>2025-05-17T07:08:09Z</time>
      </trkpt>
      <trkpt lat="43.807060969993472" lon="4.655992984771729">
        <ele>3.98</ele>
        <time>2025-05-17T07:08:10Z</time>
      </trkpt>
      <trkpt lat="43.807002967223525" lon="4.656120976433158">
        <ele>3.98</ele>
        <time>2025-05-17T07:08:11Z</time>
      </trkpt>
      <trkpt lat="43.806963991373777" lon="4.656205968931317">
        <ele>3.5</ele>
        <time>2025-05-17T07:08:12Z</time>
      </trkpt>
      <trkpt lat="43.806927027180791" lon="4.656294984742999">
        <ele>3.02</ele>
        <time>2025-05-17T07:08:13Z</time>
      </trkpt>
      <trkpt lat="43.806789983063936" lon="4.656635960564017">
        <ele>1.58</ele>
        <time>2025-05-17T07:08:17Z</time>
      </trkpt>
      <trkpt lat="43.806767016649246" lon="4.656709972769022">
        <ele>1.1</ele>
        <time>2025-05-17T07:08:18Z</time>
      </trkpt>
      <trkpt lat="43.806721000000834" lon="4.656852968037128">
        <ele>0.62</ele>
        <time>2025-05-17T07:08:20Z</time>
      </trkpt>
      <trkpt lat="43.806694010272622" lon="4.656937960535288">
        <ele>0.14</ele>
        <time>2025-05-17T07:08:21Z</time>
      </trkpt>
      <trkpt lat="43.806666014716029" lon="4.657025970518589">
        <ele>0.14</ele>
        <time>2025-05-17T07:08:22Z</time>
      </trkpt>
      <trkpt lat="43.806615974754095" lon="4.657217999920249">
        <ele>-0.34</ele>
        <time>2025-05-17T07:08:24Z</time>
      </trkpt>
      <trkpt lat="43.806565012782812" lon="4.657421009615064">
        <ele>-0.34</ele>
        <time>2025-05-17T07:08:26Z</time>
      </trkpt>
      <trkpt lat="43.806542968377471" lon="4.657530980184674">
        <ele>-0.82</ele>
        <time>2025-05-17T07:08:27Z</time>
      </trkpt>
      <trkpt lat="43.806472979485989" lon="4.657862987369299">
        <ele>-0.82</ele>
        <time>2025-05-17T07:08:30Z</time>
      </trkpt>
      <trkpt lat="43.80645495839417" lon="4.657978992909193">
        <ele>-0.82</ele>
        <time>2025-05-17T07:08:31Z</time>
      </trkpt>
      <trkpt lat="43.806442972272635" lon="4.658093992620707">
        <ele>-0.82</ele>
        <time>2025-05-17T07:08:32Z</time>
      </trkpt>
      <trkpt lat="43.806430986151099" lon="4.658200023695827">
        <ele>-0.82</ele>
        <time>2025-05-17T07:08:33Z</time>
      </trkpt>
      <trkpt lat="43.806423023343086" lon="4.658279987052083">
        <ele>-0.82</ele>
        <time>2025-05-17T07:08:34Z</time>
      </trkpt>
      <trkpt lat="43.806416988372803" lon="4.658344024792314">
        <ele>-0.82</ele>
        <time>2025-05-17T07:08:35Z</time>
      </trkpt>
      <trkpt lat="43.80641296505928" lon="4.658405967056751">
        <ele>-0.34</ele>
        <time>2025-05-17T07:08:36Z</time>
      </trkpt>
      <trkpt lat="43.80640902556479" lon="4.658467993140221">
        <ele>-0.34</ele>
        <time>2025-05-17T07:08:37Z</time>
      </trkpt>
      <trkpt lat="43.806403996422887" lon="4.658533036708832">
        <ele>0.14</ele>
        <time>2025-05-17T07:08:38Z</time>
      </trkpt>
      <trkpt lat="43.806398967280984" lon="4.658607970923185">
        <ele>0.14</ele>
        <time>2025-05-17T07:08:39Z</time>
      </trkpt>
      <trkpt lat="43.806396033614874" lon="4.658695980906487">
        <ele>0.62</ele>
        <time>2025-05-17T07:08:40Z</time>
      </trkpt>
      <trkpt lat="43.806427968665957" lon="4.658992029726505">
        <ele>2.06</ele>
        <time>2025-05-17T07:08:43Z</time>
      </trkpt>
      <trkpt lat="43.806442972272635" lon="4.659096971154213">
        <ele>2.54</ele>
        <time>2025-05-17T07:08:44Z</time>
      </trkpt>
      <trkpt lat="43.80654196254909" lon="4.659423027187586">
        <ele>4.46</ele>
        <time>2025-05-17T07:08:47Z</time>
      </trkpt>
      <trkpt lat="43.806574987247586" lon="4.659528974443674">
        <ele>4.46</ele>
        <time>2025-05-17T07:08:48Z</time>
      </trkpt>
      <trkpt lat="43.806872963905334" lon="4.66007798910141">
        <ele>4.46</ele>
        <time>2025-05-17T07:08:54Z</time>
      </trkpt>
      <trkpt lat="43.806945970281959" lon="4.660193994641304">
        <ele>4.94</ele>
        <time>2025-05-17T07:08:56Z</time>
      </trkpt>
      <trkpt lat="43.807232966646552" lon="4.660648964345455">
        <ele>4.94</ele>
        <time>2025-05-17T07:09:02Z</time>
      </trkpt>
      <trkpt lat="43.807273032143712" lon="4.660699004307389">
        <ele>4.94</ele>
        <time>2025-05-17T07:09:03Z</time>
      </trkpt>
      <trkpt lat="43.807404963299632" lon="4.660876030102372">
        <ele>4.46</ele>
        <time>2025-05-17T07:09:06Z</time>
      </trkpt>
      <trkpt lat="43.807473024353385" lon="4.660967979580164">
        <ele>3.98</ele>
        <time>2025-05-17T07:09:08Z</time>
      </trkpt>
      <trkpt lat="43.807490039616823" lon="4.660993041470647">
        <ele>3.98</ele>
        <time>2025-05-17T07:09:09Z</time>
      </trkpt>
      <trkpt lat="43.807533960789442" lon="4.661079961806536">
        <ele>4.46</ele>
        <time>2025-05-17T07:09:10Z</time>
      </trkpt>
      <trkpt lat="43.807574026286602" lon="4.661119021475315">
        <ele>3.98</ele>
        <time>2025-05-17T07:09:11Z</time>
      </trkpt>
      <trkpt lat="43.80761400796473" lon="4.661159003153443">
        <ele>3.98</ele>
        <time>2025-05-17T07:09:12Z</time>
      </trkpt>
      <trkpt lat="43.80767997354269" lon="4.661224968731403">
        <ele>3.5</ele>
        <time>2025-05-17T07:09:14Z</time>
      </trkpt>
      <trkpt lat="43.807809976860881" lon="4.661363018676639">
        <ele>3.02</ele>
        <time>2025-05-17T07:09:17Z</time>
      </trkpt>
      <trkpt lat="43.807860016822815" lon="4.661416998133063">
        <ele>2.54</ele>
        <time>2025-05-17T07:09:18Z</time>
      </trkpt>
      <trkpt lat="43.807910978794098" lon="4.661471983417869">
        <ele>2.54</ele>
        <time>2025-05-17T07:09:19Z</time>
      </trkpt>
      <trkpt lat="43.807963030412793" lon="4.661527974531055">
        <ele>2.54</ele>
        <time>2025-05-17T07:09:20Z</time>
      </trkpt>
      <trkpt lat="43.807998988777399" lon="4.66158396564424">
        <ele>2.06</ele>
        <time>2025-05-17T07:09:21Z</time>
      </trkpt>
      <trkpt lat="43.808034025132656" lon="4.661660995334387">
        <ele>2.06</ele>
        <time>2025-05-17T07:09:22Z</time>
      </trkpt>
      <trkpt lat="43.808069983497262" lon="4.661740036681294">
        <ele>2.06</ele>
        <time>2025-05-17T07:09:23Z</time>
      </trkpt>
      <trkpt lat="43.808094961568713" lon="4.66181899420917">
        <ele>1.58</ele>
        <time>2025-05-17T07:09:24Z</time>
      </trkpt>
      <trkpt lat="43.8081060256809" lon="4.661909015849233">
        <ele>1.1</ele>
        <time>2025-05-17T07:09:25Z</time>
      </trkpt>
      <trkpt lat="43.808117005974054" lon="4.662007000297308">
        <ele>1.1</ele>
        <time>2025-05-17T07:09:26Z</time>
      </trkpt>
      <trkpt lat="43.808127986267209" lon="4.662098027765751">
        <ele>1.1</ele>
        <time>2025-05-17T07:09:27Z</time>
      </trkpt>
      <trkpt lat="43.808121029287577" lon="4.662201041355729">
        <ele>1.1</ele>
        <time>2025-05-17T07:09:28Z</time>
      </trkpt>
      <trkpt lat="43.808094961568713" lon="4.662297014147043">
        <ele>1.1</ele>
        <time>2025-05-17T07:09:29Z</time>
      </trkpt>
      <trkpt lat="43.808069983497262" lon="4.662391981109977">
        <ele>1.1</ele>
        <time>2025-05-17T07:09:30Z</time>
      </trkpt>
      <trkpt lat="43.808048022910953" lon="4.662473034113646">
        <ele>1.1</ele>
        <time>2025-05-17T07:09:31Z</time>
      </trkpt>
      <trkpt lat="43.808048022910953" lon="4.662551991641522">
        <ele>1.58</ele>
        <time>2025-05-17T07:09:32Z</time>
      </trkpt>
      <trkpt lat="43.808005023747683" lon="4.662638995796442">
        <ele>2.06</ele>
        <time>2025-05-17T07:09:33Z</time>
      </trkpt>
      <trkpt lat="43.808005023747683" lon="4.662751983851194">
        <ele>2.54</ele>
        <time>2025-05-17T07:09:34Z</time>
      </trkpt>
      <trkpt lat="43.808040982112288" lon="4.662788026034832">
        <ele>3.02</ele>
        <time>2025-05-17T07:09:35Z</time>
      </trkpt>
      <trkpt lat="43.808089010417461" lon="4.662835970520973">
        <ele>3.02</ele>
        <time>2025-05-17T07:09:36Z</time>
      </trkpt>
      <trkpt lat="43.808134021237493" lon="4.662874024361372">
        <ele>3.5</ele>
        <time>2025-05-17T07:09:37Z</time>
      </trkpt>
      <trkpt lat="43.808177020400763" lon="4.662945019081235">
        <ele>3.5</ele>
        <time>2025-05-17T07:09:38Z</time>
      </trkpt>
      <trkpt lat="43.808224964886904" lon="4.663006961345673">
        <ele>3.98</ele>
        <time>2025-05-17T07:09:39Z</time>
      </trkpt>
      <trkpt lat="43.808277016505599" lon="4.663074016571045">
        <ele>3.98</ele>
        <time>2025-05-17T07:09:40Z</time>
      </trkpt>
      <trkpt lat="43.808392016217113" lon="4.663223968818784">
        <ele>4.46</ele>
        <time>2025-05-17T07:09:42Z</time>
      </trkpt>
      <trkpt lat="43.808799963444471" lon="4.663926959037781">
        <ele>5.91</ele>
        <time>2025-05-17T07:09:51Z</time>
      </trkpt>
      <trkpt lat="43.809324000030756" lon="4.664535988122225">
        <ele>7.35</ele>
        <time>2025-05-17T07:09:58Z</time>
      </trkpt>
      <trkpt lat="43.809378985315561" lon="4.664598014205694">
        <ele>7.35</ele>
        <time>2025-05-17T07:09:59Z</time>
      </trkpt>
      <trkpt lat="43.809394994750619" lon="4.664627015590668">
        <ele>7.35</ele>
        <time>2025-05-17T07:10:00Z</time>
      </trkpt>
      <trkpt lat="43.809416033327579" lon="4.664668003097177">
        <ele>7.83</ele>
        <time>2025-05-17T07:10:01Z</time>
      </trkpt>
      <trkpt lat="43.809435982257128" lon="4.664704967290163">
        <ele>7.83</ele>
        <time>2025-05-17T07:10:02Z</time>
      </trkpt>
      <trkpt lat="43.809459032490849" lon="4.664748972281814">
        <ele>7.83</ele>
        <time>2025-05-17T07:10:03Z</time>
      </trkpt>
      <trkpt lat="43.809489961713552" lon="4.66480596922338">
        <ele>7.83</ele>
        <time>2025-05-17T07:10:04Z</time>
      </trkpt>
      <trkpt lat="43.809527009725571" lon="4.664875036105514">
        <ele>7.83</ele>
        <time>2025-05-17T07:10:05Z</time>
      </trkpt>
      <trkpt lat="43.809811994433403" lon="4.665302010253072">
        <ele>8.310000000000001</ele>
        <time>2025-05-17T07:10:10Z</time>
      </trkpt>
      <trkpt lat="43.809883994981647" lon="4.665378034114838">
        <ele>8.310000000000001</ele>
        <time>2025-05-17T07:10:11Z</time>
      </trkpt>
      <trkpt lat="43.810358997434378" lon="4.665874997153878">
        <ele>9.27</ele>
        <time>2025-05-17T07:10:20Z</time>
      </trkpt>
      <trkpt lat="43.810542980208993" lon="4.666087981313467">
        <ele>9.27</ele>
        <time>2025-05-17T07:10:25Z</time>
      </trkpt>
      <trkpt lat="43.810598971322179" lon="4.666098961606622">
        <ele>9.27</ele>
        <time>2025-05-17T07:10:26Z</time>
      </trkpt>
      <trkpt lat="43.810635013505816" lon="4.666055962443352">
        <ele>9.27</ele>
        <time>2025-05-17T07:10:27Z</time>
      </trkpt>
      <trkpt lat="43.810666026547551" lon="4.666013969108462">
        <ele>9.27</ele>
        <time>2025-05-17T07:10:28Z</time>
      </trkpt>
      <trkpt lat="43.810763005167246" lon="4.665916990488768">
        <ele>9.27</ele>
        <time>2025-05-17T07:10:29Z</time>
      </trkpt>
      <trkpt lat="43.810830982401967" lon="4.665907016023994">
        <ele>9.27</ele>
        <time>2025-05-17T07:10:30Z</time>
      </trkpt>
      <trkpt lat="43.810915974900126" lon="4.665916990488768">
        <ele>9.27</ele>
        <time>2025-05-17T07:10:31Z</time>
      </trkpt>
      <trkpt lat="43.811003984883428" lon="4.665928976610303">
        <ele>9.27</ele>
        <time>2025-05-17T07:10:32Z</time>
      </trkpt>
      <trkpt lat="43.811099035665393" lon="4.665941968560219">
        <ele>9.27</ele>
        <time>2025-05-17T07:10:33Z</time>
      </trkpt>
      <trkpt lat="43.81120003759861" lon="4.665954960510135">
        <ele>9.27</ele>
        <time>2025-05-17T07:10:34Z</time>
      </trkpt>
      <trkpt lat="43.812380963936448" lon="4.665989996865392">
        <ele>7.83</ele>
        <time>2025-05-17T07:10:45Z</time>
      </trkpt>
      <trkpt lat="43.813620982691646" lon="4.665956972166896">
        <ele>7.83</ele>
        <time>2025-05-17T07:10:56Z</time>
      </trkpt>
      <trkpt lat="43.814966026693583" lon="4.665819006040692">
        <ele>7.83</ele>
        <time>2025-05-17T07:11:08Z</time>
      </trkpt>
      <trkpt lat="43.816503016278148" lon="4.665884971618652">
        <ele>9.27</ele>
        <time>2025-05-17T07:11:21Z</time>
      </trkpt>
      <trkpt lat="43.817891981452703" lon="4.666313035413623">
        <ele>10.23</ele>
        <time>2025-05-17T07:11:32Z</time>
      </trkpt>
      <trkpt lat="43.818224994465709" lon="4.66641403734684">
        <ele>9.75</ele>
        <time>2025-05-17T07:11:36Z</time>
      </trkpt>
      <trkpt lat="43.818305963650346" lon="4.666438009589911">
        <ele>9.75</ele>
        <time>2025-05-17T07:11:37Z</time>
      </trkpt>
      <trkpt lat="43.818385004997253" lon="4.666461981832981">
        <ele>9.27</ele>
        <time>2025-05-17T07:11:38Z</time>
      </trkpt>
      <trkpt lat="43.818391039967537" lon="4.666463993489742">
        <ele>9.27</ele>
        <time>2025-05-17T07:11:39Z</time>
      </trkpt>
      <trkpt lat="43.818605029955506" lon="4.666463993489742">
        <ele>9.27</ele>
        <time>2025-05-17T07:11:40Z</time>
      </trkpt>
      <trkpt lat="43.818640988320112" lon="4.666469022631645">
        <ele>9.27</ele>
        <time>2025-05-17T07:11:41Z</time>
      </trkpt>
      <trkpt lat="43.818731009960175" lon="4.6664800029248">
        <ele>9.27</ele>
        <time>2025-05-17T07:11:42Z</time>
      </trkpt>
      <trkpt lat="43.818821031600237" lon="4.666491989046335">
        <ele>9.75</ele>
        <time>2025-05-17T07:11:43Z</time>
      </trkpt>
      <trkpt lat="43.818909963592887" lon="4.666503975167871">
        <ele>9.75</ele>
        <time>2025-05-17T07:11:44Z</time>
      </trkpt>
      <trkpt lat="43.820106983184814" lon="4.666700027883053">
        <ele>10.710000000000001</ele>
        <time>2025-05-17T07:11:55Z</time>
      </trkpt>
      <trkpt lat="43.82157800719142" lon="4.666886022314429">
        <ele>9.75</ele>
        <time>2025-05-17T07:12:06Z</time>
      </trkpt>
      <trkpt lat="43.823138969019055" lon="4.667043015360832">
        <ele>9.27</ele>
        <time>2025-05-17T07:12:15Z</time>
      </trkpt>
      <trkpt lat="43.824633965268731" lon="4.667744999751449">
        <ele>8.789999999999999</ele>
        <time>2025-05-17T07:12:23Z</time>
      </trkpt>
      <trkpt lat="43.824810991063714" lon="4.667867962270975">
        <ele>8.789999999999999</ele>
        <time>2025-05-17T07:12:24Z</time>
      </trkpt>
      <trkpt lat="43.82630598731339" lon="4.669207977131009">
        <ele>9.27</ele>
        <time>2025-05-17T07:12:33Z</time>
      </trkpt>
      <trkpt lat="43.827505018562078" lon="4.670641031116247">
        <ele>9.27</ele>
        <time>2025-05-17T07:12:41Z</time>
      </trkpt>
      <trkpt lat="43.828612016513944" lon="4.671764960512519">
        <ele>8.310000000000001</ele>
        <time>2025-05-17T07:12:48Z</time>
      </trkpt>
      <trkpt lat="43.828977970406413" lon="4.671966964378953">
        <ele>7.83</ele>
        <time>2025-05-17T07:12:50Z</time>
      </trkpt>
      <trkpt lat="43.830756023526192" lon="4.672425035387278">
        <ele>5.42</ele>
        <time>2025-05-17T07:12:59Z</time>
      </trkpt>
      <trkpt lat="43.832297036424279" lon="4.672940019518137">
        <ele>6.87</ele>
        <time>2025-05-17T07:13:07Z</time>
      </trkpt>
      <trkpt lat="43.832481019198895" lon="4.673058036714792">
        <ele>6.87</ele>
        <time>2025-05-17T07:13:08Z</time>
      </trkpt>
      <trkpt lat="43.832661984488368" lon="4.673173958435655">
        <ele>6.87</ele>
        <time>2025-05-17T07:13:09Z</time>
      </trkpt>
      <trkpt lat="43.833409985527396" lon="4.673541001975536">
        <ele>7.83</ele>
        <time>2025-05-17T07:13:13Z</time>
      </trkpt>
      <trkpt lat="43.833606960251927" lon="4.673581989482045">
        <ele>7.83</ele>
        <time>2025-05-17T07:13:14Z</time>
      </trkpt>
      <trkpt lat="43.835198013111949" lon="4.673668993636966">
        <ele>7.35</ele>
        <time>2025-05-17T07:13:22Z</time>
      </trkpt>
      <trkpt lat="43.837369009852409" lon="4.673715010285378">
        <ele>6.87</ele>
        <time>2025-05-17T07:13:33Z</time>
      </trkpt>
      <trkpt lat="43.838894013315439" lon="4.674371983855963">
        <ele>6.87</ele>
        <time>2025-05-17T07:13:41Z</time>
      </trkpt>
      <trkpt lat="43.841112032532692" lon="4.675622982904315">
        <ele>9.27</ele>
        <time>2025-05-17T07:13:53Z</time>
      </trkpt>
      <trkpt lat="43.843908989802003" lon="4.67698697000742">
        <ele>5.42</ele>
        <time>2025-05-17T07:14:08Z</time>
      </trkpt>
      <trkpt lat="43.845988037064672" lon="4.677908979356289">
        <ele>-0.34</ele>
        <time>2025-05-17T07:14:19Z</time>
      </trkpt>
      <trkpt lat="43.848035987466574" lon="4.678955040872097">
        <ele>0.62</ele>
        <time>2025-05-17T07:14:30Z</time>
      </trkpt>
      <trkpt lat="43.851753026247025" lon="4.681010032072663">
        <ele>2.06</ele>
        <time>2025-05-17T07:14:50Z</time>
      </trkpt>
      <trkpt lat="43.854158967733383" lon="4.68237997032702">
        <ele>3.98</ele>
        <time>2025-05-17T07:15:03Z</time>
      </trkpt>
      <trkpt lat="43.855808023363352" lon="4.683306002989411">
        <ele>0.62</ele>
        <time>2025-05-17T07:15:12Z</time>
      </trkpt>
      <trkpt lat="43.857232024893165" lon="4.684360027313232">
        <ele>2.54</ele>
        <time>2025-05-17T07:15:20Z</time>
      </trkpt>
      <trkpt lat="43.859017034992576" lon="4.686104971915484">
        <ele>3.98</ele>
        <time>2025-05-17T07:15:31Z</time>
      </trkpt>
      <trkpt lat="43.859924040734768" lon="4.687011977657676">
        <ele>3.5</ele>
        <time>2025-05-17T07:15:38Z</time>
      </trkpt>
      <trkpt lat="43.861083006486297" lon="4.687976986169815">
        <ele>4.46</ele>
        <time>2025-05-17T07:15:49Z</time>
      </trkpt>
      <trkpt lat="43.861164981499314" lon="4.688047980889678">
        <ele>4.46</ele>
        <time>2025-05-17T07:15:50Z</time>
      </trkpt>
      <trkpt lat="43.861245028674603" lon="4.688131967559457">
        <ele>4.94</ele>
        <time>2025-05-17T07:15:51Z</time>
      </trkpt>
      <trkpt lat="43.861271012574434" lon="4.688251996412873">
        <ele>4.94</ele>
        <time>2025-05-17T07:15:52Z</time>
      </trkpt>
      <trkpt lat="43.861359022557735" lon="4.688328020274639">
        <ele>4.94</ele>
        <time>2025-05-17T07:15:53Z</time>
      </trkpt>
      <trkpt lat="43.861434040591121" lon="4.688316034153104">
        <ele>4.94</ele>
        <time>2025-05-17T07:15:54Z</time>
      </trkpt>
      <trkpt lat="43.86147796176374" lon="4.688307987526059">
        <ele>4.94</ele>
        <time>2025-05-17T07:15:55Z</time>
      </trkpt>
      <trkpt lat="43.861596984788775" lon="4.688141020014882">
        <ele>4.46</ele>
        <time>2025-05-17T07:15:56Z</time>
      </trkpt>
      <trkpt lat="43.861693041399121" lon="4.688148982822895">
        <ele>4.46</ele>
        <time>2025-05-17T07:15:57Z</time>
      </trkpt>
      <trkpt lat="43.861801000311971" lon="4.68815803527832">
        <ele>4.46</ele>
        <time>2025-05-17T07:15:58Z</time>
      </trkpt>
      <trkpt lat="43.861921029165387" lon="4.688168009743094">
        <ele>4.46</ele>
        <time>2025-05-17T07:15:59Z</time>
      </trkpt>
      <trkpt lat="43.862048014998436" lon="4.688178990036249">
        <ele>4.46</ele>
        <time>2025-05-17T07:16:00Z</time>
      </trkpt>
      <trkpt lat="43.8636489585042" lon="4.688316034153104">
        <ele>6.87</ele>
        <time>2025-05-17T07:16:12Z</time>
      </trkpt>
      <trkpt lat="43.865143032744527" lon="4.688558019697666">
        <ele>8.310000000000001</ele>
        <time>2025-05-17T07:16:23Z</time>
      </trkpt>
      <trkpt lat="43.865660028532147" lon="4.688748037442565">
        <ele>9.27</ele>
        <time>2025-05-17T07:16:28Z</time>
      </trkpt>
      <trkpt lat="43.8657539896667" lon="4.688789024949074">
        <ele>9.27</ele>
        <time>2025-05-17T07:16:29Z</time>
      </trkpt>
      <trkpt lat="43.865814004093409" lon="4.688879968598485">
        <ele>9.27</ele>
        <time>2025-05-17T07:16:30Z</time>
      </trkpt>
      <trkpt lat="43.865892039611936" lon="4.688887009397149">
        <ele>9.75</ele>
        <time>2025-05-17T07:16:31Z</time>
      </trkpt>
      <trkpt lat="43.865986000746489" lon="4.688851973041892">
        <ele>9.75</ele>
        <time>2025-05-17T07:16:32Z</time>
      </trkpt>
      <trkpt lat="43.866099994629622" lon="4.688837975263596">
        <ele>9.75</ele>
        <time>2025-05-17T07:16:33Z</time>
      </trkpt>
      <trkpt lat="43.86633301153779" lon="4.688840992748737">
        <ele>8.789999999999999</ele>
        <time>2025-05-17T07:16:35Z</time>
      </trkpt>
      <trkpt lat="43.866455974057317" lon="4.688886003568769">
        <ele>8.310000000000001</ele>
        <time>2025-05-17T07:16:36Z</time>
      </trkpt>
      <trkpt lat="43.866582959890366" lon="4.688933026045561">
        <ele>8.310000000000001</ele>
        <time>2025-05-17T07:16:37Z</time>
      </trkpt>
      <trkpt lat="43.866723021492362" lon="4.689001003280282">
        <ele>7.83</ele>
        <time>2025-05-17T07:16:38Z</time>
      </trkpt>
      <trkpt lat="43.866841960698366" lon="4.689107034355402">
        <ele>7.35</ele>
        <time>2025-05-17T07:16:39Z</time>
      </trkpt>
      <trkpt lat="43.868065970018506" lon="4.690203974023461">
        <ele>7.35</ele>
        <time>2025-05-17T07:16:48Z</time>
      </trkpt>
      <trkpt lat="43.869501035660505" lon="4.690805040299892">
        <ele>7.83</ele>
        <time>2025-05-17T07:16:56Z</time>
      </trkpt>
      <trkpt lat="43.872403018176556" lon="4.691863004118204">
        <ele>10.23</ele>
        <time>2025-05-17T07:17:11Z</time>
      </trkpt>
      <trkpt lat="43.874458009377122" lon="4.692886015400291">
        <ele>9.75</ele>
        <time>2025-05-17T07:17:22Z</time>
      </trkpt>
      <trkpt lat="43.876134976744652" lon="4.693754967302084">
        <ele>9.75</ele>
        <time>2025-05-17T07:17:31Z</time>
      </trkpt>
      <trkpt lat="43.876333041116595" lon="4.693791009485722">
        <ele>9.75</ele>
        <time>2025-05-17T07:17:32Z</time>
      </trkpt>
      <trkpt lat="43.876529010012746" lon="4.693785980343819">
        <ele>9.75</ele>
        <time>2025-05-17T07:17:33Z</time>
      </trkpt>
      <trkpt lat="43.876727996394038" lon="4.693764019757509">
        <ele>9.75</ele>
        <time>2025-05-17T07:17:34Z</time>
      </trkpt>
      <trkpt lat="43.876924971118569" lon="4.693741975352168">
        <ele>9.75</ele>
        <time>2025-05-17T07:17:35Z</time>
      </trkpt>
      <trkpt lat="43.877119012176991" lon="4.693697970360518">
        <ele>9.75</ele>
        <time>2025-05-17T07:17:36Z</time>
      </trkpt>
      <trkpt lat="43.877314981073141" lon="4.693646002560854">
        <ele>9.75</ele>
        <time>2025-05-17T07:17:37Z</time>
      </trkpt>
      <trkpt lat="43.879108037799597" lon="4.6934450045228">
        <ele>9.75</ele>
        <time>2025-05-17T07:17:46Z</time>
      </trkpt>
      <trkpt lat="43.880672017112374" lon="4.69372596591711">
        <ele>9.27</ele>
        <time>2025-05-17T07:17:54Z</time>
      </trkpt>
      <trkpt lat="43.881003018468618" lon="4.693834008648992">
        <ele>9.75</ele>
        <time>2025-05-17T07:17:56Z</time>
      </trkpt>
      <trkpt lat="43.881959980353713" lon="4.694688962772489">
        <ele>10.710000000000001</ele>
        <time>2025-05-17T07:18:03Z</time>
      </trkpt>
      <trkpt lat="43.882885007187724" lon="4.695951025933027">
        <ele>11.67</ele>
        <time>2025-05-17T07:18:09Z</time>
      </trkpt>
      <trkpt lat="43.883918998762965" lon="4.697313001379371">
        <ele>12.630000000000001</ele>
        <time>2025-05-17T07:18:16Z</time>
      </trkpt>
      <trkpt lat="43.885311987251043" lon="4.69836400821805">
        <ele>13.6</ele>
        <time>2025-05-17T07:18:24Z</time>
      </trkpt>
      <trkpt lat="43.886981997638941" lon="4.69924402423203">
        <ele>14.56</ele>
        <time>2025-05-17T07:18:33Z</time>
      </trkpt>
      <trkpt lat="43.888600962236524" lon="4.699708968400955">
        <ele>16.960000000000001</ele>
        <time>2025-05-17T07:18:42Z</time>
      </trkpt>
      <trkpt lat="43.889799993485212" lon="4.700116999447346">
        <ele>18.399999999999999</ele>
        <time>2025-05-17T07:18:51Z</time>
      </trkpt>
      <trkpt lat="43.891030037775636" lon="4.700680011883378">
        <ele>18.399999999999999</ele>
        <time>2025-05-17T07:19:01Z</time>
      </trkpt>
      <trkpt lat="43.891252996399999" lon="4.700832981616259">
        <ele>17.920000000000002</ele>
        <time>2025-05-17T07:19:03Z</time>
      </trkpt>
      <trkpt lat="43.891476960852742" lon="4.700992992147803">
        <ele>18.879999999999999</ele>
        <time>2025-05-17T07:19:05Z</time>
      </trkpt>
      <trkpt lat="43.892670962959528" lon="4.702178025618196">
        <ele>20.32</ele>
        <time>2025-05-17T07:19:16Z</time>
      </trkpt>
      <trkpt lat="43.89323003590107" lon="4.702765010297298">
        <ele>21.289999999999999</ele>
        <time>2025-05-17T07:19:21Z</time>
      </trkpt>
      <trkpt lat="43.893344029784203" lon="4.702885039150715">
        <ele>22.25</ele>
        <time>2025-05-17T07:19:22Z</time>
      </trkpt>
      <trkpt lat="43.894728971645236" lon="4.704497968778014">
        <ele>25.129999999999999</ele>
        <time>2025-05-17T07:19:35Z</time>
      </trkpt>
      <trkpt lat="43.894900968298316" lon="4.704726962372661">
        <ele>26.09</ele>
        <time>2025-05-17T07:19:37Z</time>
      </trkpt>
      <trkpt lat="43.894954025745392" lon="4.704797035083175">
        <ele>26.57</ele>
        <time>2025-05-17T07:19:38Z</time>
      </trkpt>
      <trkpt lat="43.894995013251901" lon="4.704888984560967">
        <ele>27.050000000000001</ele>
        <time>2025-05-17T07:19:39Z</time>
      </trkpt>
      <trkpt lat="43.894995013251901" lon="4.704918991774321">
        <ele>27.530000000000001</ele>
        <time>2025-05-17T07:19:40Z</time>
      </trkpt>
      <trkpt lat="43.894995013251901" lon="4.70506701618433">
        <ele>28.5</ele>
        <time>2025-05-17T07:19:49Z</time>
      </trkpt>
      <trkpt lat="43.8950589671731" lon="4.705173969268799">
        <ele>28.98</ele>
        <time>2025-05-17T07:19:51Z</time>
      </trkpt>
      <trkpt lat="43.895129961892962" lon="4.705194002017379">
        <ele>28.98</ele>
        <time>2025-05-17T07:19:52Z</time>
      </trkpt>
      <trkpt lat="43.895198022946715" lon="4.705214034765959">
        <ele>29.460000000000001</ele>
        <time>2025-05-17T07:19:53Z</time>
      </trkpt>
      <trkpt lat="43.895241022109985" lon="4.705178998410702">
        <ele>29.460000000000001</ele>
        <time>2025-05-17T07:19:54Z</time>
      </trkpt>
      <trkpt lat="43.895303970202804" lon="4.705102974548936">
        <ele>28.98</ele>
        <time>2025-05-17T07:19:55Z</time>
      </trkpt>
      <trkpt lat="43.895316962152719" lon="4.705087970942259">
        <ele>28.98</ele>
        <time>2025-05-17T07:19:56Z</time>
      </trkpt>
      <trkpt lat="43.895367002114654" lon="4.704804997891188">
        <ele>28.98</ele>
        <time>2025-05-17T07:19:57Z</time>
      </trkpt>
      <trkpt lat="43.895447971299291" lon="4.704728974029422">
        <ele>28.98</ele>
        <time>2025-05-17T07:19:58Z</time>
      </trkpt>
      <trkpt lat="43.895538998767734" lon="4.704642975702882">
        <ele>28.5</ele>
        <time>2025-05-17T07:19:59Z</time>
      </trkpt>
      <trkpt lat="43.895635977387428" lon="4.704550020396709">
        <ele>28.5</ele>
        <time>2025-05-17T07:20:00Z</time>
      </trkpt>
      <trkpt lat="43.896580031141639" lon="4.703642008826137">
        <ele>29.460000000000001</ele>
        <time>2025-05-17T07:20:08Z</time>
      </trkpt>
      <trkpt lat="43.898578025400639" lon="4.701676033437252">
        <ele>32.82</ele>
        <time>2025-05-17T07:20:24Z</time>
      </trkpt>
      <trkpt lat="43.900090958923101" lon="4.700185982510448">
        <ele>25.609999999999999</ele>
        <time>2025-05-17T07:20:38Z</time>
      </trkpt>
      <trkpt lat="43.900562021881342" lon="4.699713997542858">
        <ele>21.77</ele>
        <time>2025-05-17T07:20:44Z</time>
      </trkpt>
      <trkpt lat="43.900685990229249" lon="4.699678039178252">
        <ele>21.289999999999999</ele>
        <time>2025-05-17T07:20:45Z</time>
      </trkpt>
      <trkpt lat="43.900766959413886" lon="4.699745010584593">
        <ele>20.32</ele>
        <time>2025-05-17T07:20:46Z</time>
      </trkpt>
      <trkpt lat="43.900907021015882" lon="4.699709974229336">
        <ele>19.84</ele>
        <time>2025-05-17T07:20:48Z</time>
      </trkpt>
      <trkpt lat="43.901037024334073" lon="4.699844000861049">
        <ele>19.359999999999999</ele>
        <time>2025-05-17T07:20:49Z</time>
      </trkpt>
      <trkpt lat="43.901118999347091" lon="4.699962018057704">
        <ele>18.879999999999999</ele>
        <time>2025-05-17T07:20:50Z</time>
      </trkpt>
      <trkpt lat="43.901211032643914" lon="4.700094033032656">
        <ele>18.879999999999999</ele>
        <time>2025-05-17T07:20:51Z</time>
      </trkpt>
      <trkpt lat="43.901308011263609" lon="4.700248008593917">
        <ele>18.399999999999999</ele>
        <time>2025-05-17T07:20:52Z</time>
      </trkpt>
      <trkpt lat="43.902146033942699" lon="4.701837971806526">
        <ele>17.920000000000002</ele>
        <time>2025-05-17T07:21:00Z</time>
      </trkpt>
      <trkpt lat="43.903605993837118" lon="4.704785970970988">
        <ele>16.48</ele>
        <time>2025-05-17T07:21:13Z</time>
      </trkpt>
      <trkpt lat="43.904370004311204" lon="4.706738032400608">
        <ele>16.48</ele>
        <time>2025-05-17T07:21:21Z</time>
      </trkpt>
      <trkpt lat="43.905317997559905" lon="4.709469024091959">
        <ele>15.52</ele>
        <time>2025-05-17T07:21:32Z</time>
      </trkpt>
      <trkpt lat="43.906352994963527" lon="4.712449964135885">
        <ele>15.52</ele>
        <time>2025-05-17T07:21:44Z</time>
      </trkpt>
      <trkpt lat="43.907474996522069" lon="4.716009004041553">
        <ele>16.960000000000001</ele>
        <time>2025-05-17T07:21:58Z</time>
      </trkpt>
      <trkpt lat="43.907874980941415" lon="4.717856962233782">
        <ele>15.52</ele>
        <time>2025-05-17T07:22:05Z</time>
      </trkpt>
      <trkpt lat="43.908552993088961" lon="4.720152011141181">
        <ele>14.56</ele>
        <time>2025-05-17T07:22:14Z</time>
      </trkpt>
      <trkpt lat="43.909614980220795" lon="4.722143970429897">
        <ele>14.08</ele>
        <time>2025-05-17T07:22:23Z</time>
      </trkpt>
      <trkpt lat="43.910661963745952" lon="4.723407961428165">
        <ele>14.56</ele>
        <time>2025-05-17T07:22:30Z</time>
      </trkpt>
      <trkpt lat="43.912544036284089" lon="4.724992979317904">
        <ele>16</ele>
        <time>2025-05-17T07:22:41Z</time>
      </trkpt>
      <trkpt lat="43.914683014154434" lon="4.726464003324509">
        <ele>15.52</ele>
        <time>2025-05-17T07:22:53Z</time>
      </trkpt>
      <trkpt lat="43.916482022032142" lon="4.727699998766184">
        <ele>15.039999999999999</ele>
        <time>2025-05-17T07:23:03Z</time>
      </trkpt>
      <trkpt lat="43.918975973501801" lon="4.729415019974113">
        <ele>14.56</ele>
        <time>2025-05-17T07:23:17Z</time>
      </trkpt>
      <trkpt lat="43.921081004664302" lon="4.731008000671864">
        <ele>15.52</ele>
        <time>2025-05-17T07:23:29Z</time>
      </trkpt>
      <trkpt lat="43.922515986487269" lon="4.732498973608017">
        <ele>16.48</ele>
        <time>2025-05-17T07:23:38Z</time>
      </trkpt>
      <trkpt lat="43.92266602255404" lon="4.732675999403">
        <ele>16</ele>
        <time>2025-05-17T07:23:39Z</time>
      </trkpt>
      <trkpt lat="43.924338966608047" lon="4.734644992277026">
        <ele>16.960000000000001</ele>
        <time>2025-05-17T07:23:50Z</time>
      </trkpt>
      <trkpt lat="43.925707982853055" lon="4.736260017380118">
        <ele>17.920000000000002</ele>
        <time>2025-05-17T07:23:59Z</time>
      </trkpt>
      <trkpt lat="43.927271040156484" lon="4.738383991643786">
        <ele>18.399999999999999</ele>
        <time>2025-05-17T07:24:10Z</time>
      </trkpt>
      <trkpt lat="43.928803000599146" lon="4.740915996953845">
        <ele>22.25</ele>
        <time>2025-05-17T07:24:22Z</time>
      </trkpt>
      <trkpt lat="43.93065900541842" lon="4.74301197566092">
        <ele>22.73</ele>
        <time>2025-05-17T07:24:34Z</time>
      </trkpt>
      <trkpt lat="43.932897979393601" lon="4.744824981316924">
        <ele>21.77</ele>
        <time>2025-05-17T07:24:47Z</time>
      </trkpt>
      <trkpt lat="43.933852007612586" lon="4.746242025867105">
        <ele>21.289999999999999</ele>
        <time>2025-05-17T07:24:54Z</time>
      </trkpt>
      <trkpt lat="43.935253964737058" lon="4.748919038102031">
        <ele>20.809999999999999</ele>
        <time>2025-05-17T07:25:06Z</time>
      </trkpt>
      <trkpt lat="43.93598897382617" lon="4.750557029619813">
        <ele>20.32</ele>
        <time>2025-05-17T07:25:13Z</time>
      </trkpt>
      <trkpt lat="43.936077989637852" lon="4.750801026821137">
        <ele>20.32</ele>
        <time>2025-05-17T07:25:14Z</time>
      </trkpt>
      <trkpt lat="43.936879970133305" lon="4.753006976097822">
        <ele>21.289999999999999</ele>
        <time>2025-05-17T07:25:23Z</time>
      </trkpt>
      <trkpt lat="43.937035035341978" lon="4.753509974107146">
        <ele>20.809999999999999</ele>
        <time>2025-05-17T07:25:25Z</time>
      </trkpt>
      <trkpt lat="43.937712963670492" lon="4.756110962480307">
        <ele>18.879999999999999</ele>
        <time>2025-05-17T07:25:35Z</time>
      </trkpt>
      <trkpt lat="43.938345964998007" lon="4.76017702370882">
        <ele>18.399999999999999</ele>
        <time>2025-05-17T07:25:50Z</time>
      </trkpt>
      <trkpt lat="43.93856598995626" lon="4.763751989230514">
        <ele>18.399999999999999</ele>
        <time>2025-05-17T07:26:03Z</time>
      </trkpt>
      <trkpt lat="43.938795989379287" lon="4.767039036378264">
        <ele>19.359999999999999</ele>
        <time>2025-05-17T07:26:15Z</time>
      </trkpt>
      <trkpt lat="43.939366964623332" lon="4.769981000572443">
        <ele>20.32</ele>
        <time>2025-05-17T07:26:26Z</time>
      </trkpt>
      <trkpt lat="43.93998303450644" lon="4.772139005362988">
        <ele>21.77</ele>
        <time>2025-05-17T07:26:35Z</time>
      </trkpt>
      <trkpt lat="43.940685018897057" lon="4.77427002042532">
        <ele>20.809999999999999</ele>
        <time>2025-05-17T07:26:44Z</time>
      </trkpt>
      <trkpt lat="43.94163703545928" lon="4.776819963008165">
        <ele>19.359999999999999</ele>
        <time>2025-05-17T07:26:55Z</time>
      </trkpt>
      <trkpt lat="43.942084964364767" lon="4.778524003922939">
        <ele>20.32</ele>
        <time>2025-05-17T07:27:02Z</time>
      </trkpt>
      <trkpt lat="43.942412026226521" lon="4.77947199717164">
        <ele>20.32</ele>
        <time>2025-05-17T07:27:06Z</time>
      </trkpt>
      <trkpt lat="43.942538006231189" lon="4.779681041836739">
        <ele>20.809999999999999</ele>
        <time>2025-05-17T07:27:07Z</time>
      </trkpt>
      <trkpt lat="43.942659040912986" lon="4.779881034046412">
        <ele>21.289999999999999</ele>
        <time>2025-05-17T07:27:08Z</time>
      </trkpt>
      <trkpt lat="43.942786026746035" lon="4.780065016821027">
        <ele>21.77</ele>
        <time>2025-05-17T07:27:09Z</time>
      </trkpt>
      <trkpt lat="43.942922987043858" lon="4.780241958796978">
        <ele>21.77</ele>
        <time>2025-05-17T07:27:10Z</time>
      </trkpt>
      <trkpt lat="43.943059025332332" lon="4.78041797876358">
        <ele>21.77</ele>
        <time>2025-05-17T07:27:11Z</time>
      </trkpt>
      <trkpt lat="43.943205960094929" lon="4.780580000951886">
        <ele>22.25</ele>
        <time>2025-05-17T07:27:12Z</time>
      </trkpt>
      <trkpt lat="43.943780036643147" lon="4.78127502836287">
        <ele>22.73</ele>
        <time>2025-05-17T07:27:16Z</time>
      </trkpt>
      <trkpt lat="43.945147041231394" lon="4.783459017053247">
        <ele>22.73</ele>
        <time>2025-05-17T07:27:27Z</time>
      </trkpt>
      <trkpt lat="43.946446990594268" lon="4.785088039934635">
        <ele>21.77</ele>
        <time>2025-05-17T07:27:37Z</time>
      </trkpt>
      <trkpt lat="43.94741702824831" lon="4.786078026518226">
        <ele>21.77</ele>
        <time>2025-05-17T07:27:46Z</time>
      </trkpt>
      <trkpt lat="43.947502020746469" lon="4.78615497238934">
        <ele>21.77</ele>
        <time>2025-05-17T07:27:48Z</time>
      </trkpt>
      <trkpt lat="43.947565974667668" lon="4.78624097071588">
        <ele>21.289999999999999</ele>
        <time>2025-05-17T07:27:49Z</time>
      </trkpt>
      <trkpt lat="43.947625989094377" lon="4.786129994317889">
        <ele>21.289999999999999</ele>
        <time>2025-05-17T07:27:50Z</time>
      </trkpt>
      <trkpt lat="43.947665970772505" lon="4.786054976284504">
        <ele>21.289999999999999</ele>
        <time>2025-05-17T07:27:51Z</time>
      </trkpt>
      <trkpt lat="43.947713999077678" lon="4.785966966301203">
        <ele>20.809999999999999</ele>
        <time>2025-05-17T07:27:52Z</time>
      </trkpt>
      <trkpt lat="43.947751969099045" lon="4.785854984074831">
        <ele>20.809999999999999</ele>
        <time>2025-05-17T07:27:53Z</time>
      </trkpt>
      <trkpt lat="43.947806032374501" lon="4.785716012120247">
        <ele>20.809999999999999</ele>
        <time>2025-05-17T07:27:54Z</time>
      </trkpt>
      <trkpt lat="43.947870992124081" lon="4.785581985488534">
        <ele>20.809999999999999</ele>
        <time>2025-05-17T07:27:55Z</time>
      </trkpt>
      <trkpt lat="43.948360998183489" lon="4.784671040251851">
        <ele>21.289999999999999</ele>
        <time>2025-05-17T07:28:01Z</time>
      </trkpt>
      <trkpt lat="43.948456970974803" lon="4.784569032490253">
        <ele>21.77</ele>
        <time>2025-05-17T07:28:02Z</time>
      </trkpt>
      <trkpt lat="43.948543975129724" lon="4.784475993365049">
        <ele>21.77</ele>
        <time>2025-05-17T07:28:03Z</time>
      </trkpt>
      <trkpt lat="43.948639025911689" lon="4.784373985603452">
        <ele>21.77</ele>
        <time>2025-05-17T07:28:04Z</time>
      </trkpt>
      <trkpt lat="43.948730975389481" lon="4.784355964511633">
        <ele>22.25</ele>
        <time>2025-05-17T07:28:05Z</time>
      </trkpt>
      <trkpt lat="43.948828037828207" lon="4.784394018352032">
        <ele>22.73</ele>
        <time>2025-05-17T07:28:06Z</time>
      </trkpt>
      <trkpt lat="43.948920993134379" lon="4.784440035000444">
        <ele>22.73</ele>
        <time>2025-05-17T07:28:07Z</time>
      </trkpt>
      <trkpt lat="43.948991987854242" lon="4.784496026113629">
        <ele>23.210000000000001</ele>
        <time>2025-05-17T07:28:08Z</time>
      </trkpt>
      <trkpt lat="43.949069017544389" lon="4.78458303026855">
        <ele>23.210000000000001</ele>
        <time>2025-05-17T07:28:09Z</time>
      </trkpt>
      <trkpt lat="43.949122997000813" lon="4.7846719622612">
        <ele>22.73</ele>
        <time>2025-05-17T07:28:10Z</time>
      </trkpt>
      <trkpt lat="43.949161972850561" lon="4.784797020256519">
        <ele>22.25</ele>
        <time>2025-05-17T07:28:11Z</time>
      </trkpt>
      <trkpt lat="43.949194997549057" lon="4.784924006089568">
        <ele>22.25</ele>
        <time>2025-05-17T07:28:12Z</time>
      </trkpt>
      <trkpt lat="43.949178988113999" lon="4.785062978044152">
        <ele>21.77</ele>
        <time>2025-05-17T07:28:13Z</time>
      </trkpt>
      <trkpt lat="43.949160967022181" lon="4.785216031596065">
        <ele>22.25</ele>
        <time>2025-05-17T07:28:14Z</time>
      </trkpt>
      <trkpt lat="43.949108999222517" lon="4.785378975793719">
        <ele>22.25</ele>
        <time>2025-05-17T07:28:15Z</time>
      </trkpt>
      <trkpt lat="43.948971033096313" lon="4.785695979371667">
        <ele>22.25</ele>
        <time>2025-05-17T07:28:17Z</time>
      </trkpt>
      <trkpt lat="43.948180032894015" lon="4.787343023344874">
        <ele>24.649999999999999</ele>
        <time>2025-05-17T07:28:26Z</time>
      </trkpt>
      <trkpt lat="43.94688100554049" lon="4.789991034194827">
        <ele>28.02</ele>
        <time>2025-05-17T07:28:41Z</time>
      </trkpt>
      <trkpt lat="43.945832010358572" lon="4.79210302233696">
        <ele>28.02</ele>
        <time>2025-05-17T07:28:54Z</time>
      </trkpt>
      <trkpt lat="43.944657035171986" lon="4.794462025165558">
        <ele>29.940000000000001</ele>
        <time>2025-05-17T07:29:08Z</time>
      </trkpt>
      <trkpt lat="43.943785987794399" lon="4.796217028051615">
        <ele>27.530000000000001</ele>
        <time>2025-05-17T07:29:19Z</time>
      </trkpt>
      <trkpt lat="43.943736031651497" lon="4.796362034976482">
        <ele>27.530000000000001</ele>
        <time>2025-05-17T07:29:20Z</time>
      </trkpt>
      <trkpt lat="43.943708958104253" lon="4.796506036072969">
        <ele>26.57</ele>
        <time>2025-05-17T07:29:21Z</time>
      </trkpt>
      <trkpt lat="43.94368196837604" lon="4.796648025512695">
        <ele>26.09</ele>
        <time>2025-05-17T07:29:22Z</time>
      </trkpt>
      <trkpt lat="43.943737959489226" lon="4.796793032437563">
        <ele>25.609999999999999</ele>
        <time>2025-05-17T07:29:23Z</time>
      </trkpt>
      <trkpt lat="43.943791016936302" lon="4.796932004392147">
        <ele>25.129999999999999</ele>
        <time>2025-05-17T07:29:24Z</time>
      </trkpt>
      <trkpt lat="43.943820018321276" lon="4.797081034630537">
        <ele>24.170000000000002</ele>
        <time>2025-05-17T07:29:25Z</time>
      </trkpt>
      <trkpt lat="43.94385396502912" lon="4.797249007970095">
        <ele>23.690000000000001</ele>
        <time>2025-05-17T07:29:26Z</time>
      </trkpt>
      <trkpt lat="43.943963013589382" lon="4.797649998217821">
        <ele>21.77</ele>
        <time>2025-05-17T07:29:29Z</time>
      </trkpt>
      <trkpt lat="43.943976005539298" lon="4.797790981829166">
        <ele>20.809999999999999</ele>
        <time>2025-05-17T07:29:30Z</time>
      </trkpt>
      <trkpt lat="43.943965025246143" lon="4.797902964055538">
        <ele>20.32</ele>
        <time>2025-05-17T07:29:31Z</time>
      </trkpt>
      <trkpt lat="43.943933006376028" lon="4.798010000959039">
        <ele>19.84</ele>
        <time>2025-05-17T07:29:32Z</time>
      </trkpt>
      <trkpt lat="43.943899981677532" lon="4.798099016770721">
        <ele>19.359999999999999</ele>
        <time>2025-05-17T07:29:33Z</time>
      </trkpt>
      <trkpt lat="43.943867040798068" lon="4.798179985955358">
        <ele>18.879999999999999</ele>
        <time>2025-05-17T07:29:34Z</time>
      </trkpt>
      <trkpt lat="43.943836027756333" lon="4.798256009817123">
        <ele>18.399999999999999</ele>
        <time>2025-05-17T07:29:35Z</time>
      </trkpt>
      <trkpt lat="43.94380803219974" lon="4.798325998708606">
        <ele>18.399999999999999</ele>
        <time>2025-05-17T07:29:36Z</time>
      </trkpt>
      <trkpt lat="43.943498991429806" lon="4.799056984484196">
        <ele>14.56</ele>
        <time>2025-05-17T07:29:46Z</time>
      </trkpt>
      <trkpt lat="43.943116022273898" lon="4.800107991322875">
        <ele>14.08</ele>
        <time>2025-05-17T07:29:58Z</time>
      </trkpt>
      <trkpt lat="43.942936984822154" lon="4.800808969885111">
        <ele>15.039999999999999</ele>
        <time>2025-05-17T07:30:09Z</time>
      </trkpt>
      <trkpt lat="43.942920975387096" lon="4.800969986245036">
        <ele>15.52</ele>
        <time>2025-05-17T07:30:12Z</time>
      </trkpt>
      <trkpt lat="43.942909995093942" lon="4.801090015098453">
        <ele>16</ele>
        <time>2025-05-17T07:30:15Z</time>
      </trkpt>
      <trkpt lat="43.942909995093942" lon="4.801162015646696">
        <ele>16</ele>
        <time>2025-05-17T07:30:16Z</time>
      </trkpt>
      <trkpt lat="43.942909995093942" lon="4.801199985668063">
        <ele>15.52</ele>
        <time>2025-05-17T07:30:17Z</time>
      </trkpt>
      <trkpt lat="43.942909995093942" lon="4.801226975396276">
        <ele>15.52</ele>
        <time>2025-05-17T07:30:18Z</time>
      </trkpt>
      <trkpt lat="43.942907983437181" lon="4.801258994266391">
        <ele>15.52</ele>
        <time>2025-05-17T07:30:19Z</time>
      </trkpt>
      <trkpt lat="43.942887028679252" lon="4.801554959267378">
        <ele>13.6</ele>
        <time>2025-05-17T07:30:28Z</time>
      </trkpt>
      <trkpt lat="43.942870013415813" lon="4.801915967836976">
        <ele>12.630000000000001</ele>
        <time>2025-05-17T07:30:39Z</time>
      </trkpt>
      <trkpt lat="43.942870013415813" lon="4.801915967836976">
        <ele>12.630000000000001</ele>
        <time>2025-05-17T07:30:59Z</time>
      </trkpt>
      <trkpt lat="43.942835982888937" lon="4.802315030246973">
        <ele>13.119999999999999</ele>
        <time>2025-05-17T07:31:10Z</time>
      </trkpt>
      <trkpt lat="43.942780997604132" lon="4.803097983822227">
        <ele>15.039999999999999</ele>
        <time>2025-05-17T07:31:19Z</time>
      </trkpt>
      <trkpt lat="43.942757025361061" lon="4.803271992132068">
        <ele>15.52</ele>
        <time>2025-05-17T07:31:21Z</time>
      </trkpt>
      <trkpt lat="43.942744033411145" lon="4.803368970751762">
        <ele>15.52</ele>
        <time>2025-05-17T07:31:22Z</time>
      </trkpt>
      <trkpt lat="43.942673960700631" lon="4.804176986217499">
        <ele>15.039999999999999</ele>
        <time>2025-05-17T07:31:30Z</time>
      </trkpt>
      <trkpt lat="43.942668009549379" lon="4.804235994815826">
        <ele>14.56</ele>
        <time>2025-05-17T07:31:31Z</time>
      </trkpt>
      <trkpt lat="43.942658035084605" lon="4.804340014234185">
        <ele>15.039999999999999</ele>
        <time>2025-05-17T07:31:33Z</time>
      </trkpt>
      <trkpt lat="43.942653005942702" lon="4.804383013397455">
        <ele>14.56</ele>
        <time>2025-05-17T07:31:34Z</time>
      </trkpt>
      <trkpt lat="43.94264898262918" lon="4.804421989247203">
        <ele>15.039999999999999</ele>
        <time>2025-05-17T07:31:35Z</time>
      </trkpt>
      <trkpt lat="43.942643031477928" lon="4.804482003673911">
        <ele>15.52</ele>
        <time>2025-05-17T07:31:44Z</time>
      </trkpt>
      <trkpt lat="43.942610006779432" lon="4.804821973666549">
        <ele>17.440000000000001</ele>
        <time>2025-05-17T07:31:54Z</time>
      </trkpt>
      <trkpt lat="43.94258301705122" lon="4.805107964202762">
        <ele>18.399999999999999</ele>
        <time>2025-05-17T07:31:58Z</time>
      </trkpt>
      <trkpt lat="43.942572036758065" lon="4.805273003876209">
        <ele>18.879999999999999</ele>
        <time>2025-05-17T07:32:00Z</time>
      </trkpt>
      <trkpt lat="43.942566001787782" lon="4.80536000803113">
        <ele>18.879999999999999</ele>
        <time>2025-05-17T07:32:01Z</time>
      </trkpt>
      <trkpt lat="43.942546974867582" lon="4.805765021592379">
        <ele>19.84</ele>
        <time>2025-05-17T07:32:06Z</time>
      </trkpt>
      <trkpt lat="43.942542029544711" lon="4.80583400465548">
        <ele>19.84</ele>
        <time>2025-05-17T07:32:07Z</time>
      </trkpt>
      <trkpt lat="43.942514033988118" lon="4.806072972714901">
        <ele>20.32</ele>
        <time>2025-05-17T07:32:10Z</time>
      </trkpt>
      <trkpt lat="43.942501964047551" lon="4.806182021275163">
        <ele>20.32</ele>
        <time>2025-05-17T07:32:11Z</time>
      </trkpt>
      <trkpt lat="43.942494001239538" lon="4.806304983794689">
        <ele>20.32</ele>
        <time>2025-05-17T07:32:12Z</time>
      </trkpt>
      <trkpt lat="43.942487966269255" lon="4.806418977677822">
        <ele>20.32</ele>
        <time>2025-05-17T07:32:13Z</time>
      </trkpt>
      <trkpt lat="43.942481009289622" lon="4.806540012359619">
        <ele>20.32</ele>
        <time>2025-05-17T07:32:14Z</time>
      </trkpt>
      <trkpt lat="43.942442033439875" lon="4.807062959298492">
        <ele>17.440000000000001</ele>
        <time>2025-05-17T07:32:21Z</time>
      </trkpt>
      <trkpt lat="43.942438010126352" lon="4.80712004005909">
        <ele>17.440000000000001</ele>
        <time>2025-05-17T07:32:22Z</time>
      </trkpt>
      <trkpt lat="43.942431975156069" lon="4.807310979813337">
        <ele>16</ele>
        <time>2025-05-17T07:32:27Z</time>
      </trkpt>
      <trkpt lat="43.942430969327688" lon="4.807344004511833">
        <ele>15.52</ele>
        <time>2025-05-17T07:32:34Z</time>
      </trkpt>
      <trkpt lat="43.942429963499308" lon="4.80738096870482">
        <ele>15.039999999999999</ele>
        <time>2025-05-17T07:32:35Z</time>
      </trkpt>
      <trkpt lat="43.942415965721011" lon="4.807849014177918">
        <ele>14.08</ele>
        <time>2025-05-17T07:32:41Z</time>
      </trkpt>
      <trkpt lat="43.942521996796131" lon="4.809038992971182">
        <ele>16.960000000000001</ele>
        <time>2025-05-17T07:32:53Z</time>
      </trkpt>
      <trkpt lat="43.942652000114322" lon="4.809651039540768">
        <ele>17.440000000000001</ele>
        <time>2025-05-17T07:33:02Z</time>
      </trkpt>
      <trkpt lat="43.942716037854552" lon="4.809883972629905">
        <ele>17.920000000000002</ele>
        <time>2025-05-17T07:33:26Z</time>
      </trkpt>
      <trkpt lat="43.942923992872238" lon="4.810894997790456">
        <ele>19.359999999999999</ele>
        <time>2025-05-17T07:33:38Z</time>
      </trkpt>
      <trkpt lat="43.942943019792438" lon="4.811006980016828">
        <ele>19.84</ele>
        <time>2025-05-17T07:33:46Z</time>
      </trkpt>
      <trkpt lat="43.943002028390765" lon="4.811293976381421">
        <ele>19.84</ele>
        <time>2025-05-17T07:34:06Z</time>
      </trkpt>
      <trkpt lat="43.943189028650522" lon="4.812205005437136">
        <ele>19.84</ele>
        <time>2025-05-17T07:34:15Z</time>
      </trkpt>
      <trkpt lat="43.943435959517956" lon="4.813500009477139">
        <ele>21.289999999999999</ele>
        <time>2025-05-17T07:34:27Z</time>
      </trkpt>
      <trkpt lat="43.94363896921277" lon="4.814479015767574">
        <ele>21.77</ele>
        <time>2025-05-17T07:34:35Z</time>
      </trkpt>
      <trkpt lat="43.94393702968955" lon="4.815212013199925">
        <ele>24.170000000000002</ele>
        <time>2025-05-17T07:34:44Z</time>
      </trkpt>
      <trkpt lat="43.943991009145975" lon="4.815302034839988">
        <ele>24.170000000000002</ele>
        <time>2025-05-17T07:34:45Z</time>
      </trkpt>
      <trkpt lat="43.944911006838083" lon="4.816179033368826">
        <ele>24.649999999999999</ele>
        <time>2025-05-17T07:34:58Z</time>
      </trkpt>
      <trkpt lat="43.945578038692474" lon="4.81666199862957">
        <ele>25.609999999999999</ele>
        <time>2025-05-17T07:35:08Z</time>
      </trkpt>
      <trkpt lat="43.946108026430011" lon="4.817051002755761">
        <ele>25.129999999999999</ele>
        <time>2025-05-17T07:35:17Z</time>
      </trkpt>
      <trkpt lat="43.946242975071073" lon="4.817144041880965">
        <ele>24.170000000000002</ele>
        <time>2025-05-17T07:35:26Z</time>
      </trkpt>
      <trkpt lat="43.946398962289095" lon="4.817254012450576">
        <ele>24.170000000000002</ele>
        <time>2025-05-17T07:35:39Z</time>
      </trkpt>
      <trkpt lat="43.94642997533083" lon="4.817275973036885">
        <ele>23.690000000000001</ele>
        <time>2025-05-17T07:36:08Z</time>
      </trkpt>
      <trkpt lat="43.946458976715803" lon="4.817297011613846">
        <ele>23.210000000000001</ele>
        <time>2025-05-17T07:36:09Z</time>
      </trkpt>
      <trkpt lat="43.946557966992259" lon="4.817161979153752">
        <ele>23.210000000000001</ele>
        <time>2025-05-17T07:36:10Z</time>
      </trkpt>
      <trkpt lat="43.946557966992259" lon="4.817161979153752">
        <ele>23.210000000000001</ele>
        <time>2025-05-17T07:36:11Z</time>
      </trkpt>
      <trkpt lat="43.946557966992259" lon="4.817085033282638">
        <ele>23.690000000000001</ele>
        <time>2025-05-17T07:36:12Z</time>
      </trkpt>
      <trkpt lat="43.946557966992259" lon="4.81698595918715">
        <ele>23.690000000000001</ele>
        <time>2025-05-17T07:36:13Z</time>
      </trkpt>
      <trkpt lat="43.946685958653688" lon="4.816419007256627">
        <ele>24.649999999999999</ele>
        <time>2025-05-17T07:36:19Z</time>
      </trkpt>
      <trkpt lat="43.946769023314118" lon="4.816052969545126">
        <ele>24.170000000000002</ele>
        <time>2025-05-17T07:36:23Z</time>
      </trkpt>
      <trkpt lat="43.946788972243667" lon="4.815964037552476">
        <ele>23.210000000000001</ele>
        <time>2025-05-17T07:36:24Z</time>
      </trkpt>
      <trkpt lat="43.946827026084065" lon="4.815796986222267">
        <ele>22.25</ele>
        <time>2025-05-17T07:36:26Z</time>
      </trkpt>
      <trkpt lat="43.946841023862362" lon="4.815733032301068">
        <ele>22.25</ele>
        <time>2025-05-17T07:36:27Z</time>
      </trkpt>
      <trkpt lat="43.946852004155517" lon="4.815685003995895">
        <ele>21.289999999999999</ele>
        <time>2025-05-17T07:36:28Z</time>
      </trkpt>
      <trkpt lat="43.946887962520123" lon="4.815515018999577">
        <ele>20.32</ele>
        <time>2025-05-17T07:36:31Z</time>
      </trkpt>
      <trkpt lat="43.946920987218618" lon="4.815359031781554">
        <ele>19.84</ele>
        <time>2025-05-17T07:36:33Z</time>
      </trkpt>
      <trkpt lat="43.946952000260353" lon="4.815213019028306">
        <ele>20.32</ele>
        <time>2025-05-17T07:36:35Z</time>
      </trkpt>
      <trkpt lat="43.946968009695411" lon="4.815138000994921">
        <ele>20.32</ele>
        <time>2025-05-17T07:36:36Z</time>
      </trkpt>
      <trkpt lat="43.946983013302088" lon="4.815064994618297">
        <ele>20.809999999999999</ele>
        <time>2025-05-17T07:36:37Z</time>
      </trkpt>
      <trkpt lat="43.946998016908765" lon="4.814995005726814">
        <ele>21.289999999999999</ele>
        <time>2025-05-17T07:36:38Z</time>
      </trkpt>
      <trkpt lat="43.947015032172203" lon="4.814914036542177">
        <ele>21.289999999999999</ele>
        <time>2025-05-17T07:36:39Z</time>
      </trkpt>
      <trkpt lat="43.94703003577888" lon="4.814843963831663">
        <ele>21.289999999999999</ele>
        <time>2025-05-17T07:36:40Z</time>
      </trkpt>
      <trkpt lat="43.947045961394906" lon="4.814757965505123">
        <ele>20.809999999999999</ele>
        <time>2025-05-17T07:36:41Z</time>
      </trkpt>
      <trkpt lat="43.94707303494215" lon="4.814618993550539">
        <ele>20.809999999999999</ele>
        <time>2025-05-17T07:36:43Z</time>
      </trkpt>
      <trkpt lat="43.947083009406924" lon="4.814564008265734">
        <ele>20.809999999999999</ele>
        <time>2025-05-17T07:36:44Z</time>
      </trkpt>
      <trkpt lat="43.947092983871698" lon="4.81451204046607">
        <ele>20.32</ele>
        <time>2025-05-17T07:36:45Z</time>
      </trkpt>
      <trkpt lat="43.946993993595243" lon="4.81427701190114">
        <ele>19.84</ele>
        <time>2025-05-17T07:36:46Z</time>
      </trkpt>
      <trkpt lat="43.946981001645327" lon="4.81427600607276">
        <ele>19.359999999999999</ele>
        <time>2025-05-17T07:36:47Z</time>
      </trkpt>
      <trkpt lat="43.947121985256672" lon="4.814365021884441">
        <ele>18.399999999999999</ele>
        <time>2025-05-17T07:36:49Z</time>
      </trkpt>
      <trkpt lat="43.94722499884665" lon="4.81382698751986">
        <ele>12.630000000000001</ele>
        <time>2025-05-17T07:36:58Z</time>
      </trkpt>
      <trkpt lat="43.947265986353159" lon="4.813663959503174">
        <ele>11.67</ele>
        <time>2025-05-17T07:37:00Z</time>
      </trkpt>
      <trkpt lat="43.947295993566513" lon="4.813511995598674">
        <ele>10.23</ele>
        <time>2025-05-17T07:37:02Z</time>
      </trkpt>
      <trkpt lat="43.94731099717319" lon="4.813437983393669">
        <ele>9.75</ele>
        <time>2025-05-17T07:37:03Z</time>
      </trkpt>
      <trkpt lat="43.947322983294725" lon="4.813378974795342">
        <ele>9.27</ele>
        <time>2025-05-17T07:37:04Z</time>
      </trkpt>
      <trkpt lat="43.947335975244641" lon="4.813312003389001">
        <ele>8.789999999999999</ele>
        <time>2025-05-17T07:37:05Z</time>
      </trkpt>
      <trkpt lat="43.947350978851318" lon="4.813234973698854">
        <ele>8.310000000000001</ele>
        <time>2025-05-17T07:37:06Z</time>
      </trkpt>
      <trkpt lat="43.947361959144473" lon="4.813174959272146">
        <ele>7.83</ele>
        <time>2025-05-17T07:37:07Z</time>
      </trkpt>
      <trkpt lat="43.947375034913421" lon="4.813098013401032">
        <ele>7.35</ele>
        <time>2025-05-17T07:37:08Z</time>
      </trkpt>
      <trkpt lat="43.947390038520098" lon="4.813013020902872">
        <ele>6.87</ele>
        <time>2025-05-17T07:37:09Z</time>
      </trkpt>
      <trkpt lat="43.947436977177858" lon="4.812741028144956">
        <ele>5.42</ele>
        <time>2025-05-17T07:37:12Z</time>
      </trkpt>
      <trkpt lat="43.947448963299394" lon="4.812684031203389">
        <ele>4.94</ele>
        <time>2025-05-17T07:37:13Z</time>
      </trkpt>
      <trkpt lat="43.947510989382863" lon="4.812388988211751">
        <ele>2.06</ele>
        <time>2025-05-17T07:37:21Z</time>
      </trkpt>
      <trkpt lat="43.94754602573812" lon="4.812217997387052">
        <ele>2.54</ele>
        <time>2025-05-17T07:37:33Z</time>
      </trkpt>
      <trkpt lat="43.947338992729783" lon="4.812225960195065">
        <ele>0.62</ele>
        <time>2025-05-17T07:37:37Z</time>
      </trkpt>
      <trkpt lat="43.947272021323442" lon="4.812225960195065">
        <ele>0.14</ele>
        <time>2025-05-17T07:37:38Z</time>
      </trkpt>
      <trkpt lat="43.947091978043318" lon="4.812225960195065">
        <ele>-1.79</ele>
        <time>2025-05-17T07:37:41Z</time>
      </trkpt>
      <trkpt lat="43.947040010243654" lon="4.812225960195065">
        <ele>-2.27</ele>
        <time>2025-05-17T07:37:42Z</time>
      </trkpt>
      <trkpt lat="43.94694403745234" lon="4.812225960195065">
        <ele>-3.23</ele>
        <time>2025-05-17T07:37:43Z</time>
      </trkpt>
      <trkpt lat="43.946935990825295" lon="4.812224032357335">
        <ele>-3.71</ele>
        <time>2025-05-17T07:37:44Z</time>
      </trkpt>
      <trkpt lat="43.946875976398587" lon="4.812207017093897">
        <ele>-4.19</ele>
        <time>2025-05-17T07:37:45Z</time>
      </trkpt>
      <trkpt lat="43.9465990383178" lon="4.81212998740375">
        <ele>-7.55</ele>
        <time>2025-05-17T07:37:50Z</time>
      </trkpt>
      <trkpt lat="43.946154965087771" lon="4.811962014064193">
        <ele>-11.880000000000001</ele>
        <time>2025-05-17T07:37:59Z</time>
      </trkpt>
      <trkpt lat="43.9460429828614" lon="4.811882972717285">
        <ele>-11.880000000000001</ele>
        <time>2025-05-17T07:38:00Z</time>
      </trkpt>
      <trkpt lat="43.9460429828614" lon="4.811882972717285">
        <ele>-9.48</ele>
        <time>2025-05-17T07:38:10Z</time>
      </trkpt>
      <trkpt lat="43.946049017831683" lon="4.811888001859188">
        <ele>-8.51</ele>
        <time>2025-05-17T07:38:11Z</time>
      </trkpt>
      <trkpt lat="43.9460429828614" lon="4.811882972717285">
        <ele>-8.029999999999999</ele>
        <time>2025-05-17T07:38:12Z</time>
      </trkpt>
      <trkpt lat="43.946009958162904" lon="4.811809966340661">
        <ele>-7.55</ele>
        <time>2025-05-17T07:38:13Z</time>
      </trkpt>
      <trkpt lat="43.945980034768581" lon="4.811744000762701">
        <ele>-8.029999999999999</ele>
        <time>2025-05-17T07:38:14Z</time>
      </trkpt>
      <trkpt lat="43.945869980379939" lon="4.811497991904616">
        <ele>-8.51</ele>
        <time>2025-05-17T07:38:17Z</time>
      </trkpt>
      <trkpt lat="43.945796974003315" lon="4.811334041878581">
        <ele>-9</ele>
        <time>2025-05-17T07:38:19Z</time>
      </trkpt>
      <trkpt lat="43.945694966241717" lon="4.811106976121664">
        <ele>-8.51</ele>
        <time>2025-05-17T07:38:22Z</time>
      </trkpt>
      <trkpt lat="43.945664037019014" lon="4.811036987230182">
        <ele>-8.51</ele>
        <time>2025-05-17T07:38:23Z</time>
      </trkpt>
      <trkpt lat="43.945632018148899" lon="4.810965992510319">
        <ele>-8.029999999999999</ele>
        <time>2025-05-17T07:38:24Z</time>
      </trkpt>
      <trkpt lat="43.945602010935545" lon="4.810898015275598">
        <ele>-8.029999999999999</ele>
        <time>2025-05-17T07:38:25Z</time>
      </trkpt>
      <trkpt lat="43.945573009550571" lon="4.810833977535367">
        <ele>-7.55</ele>
        <time>2025-05-17T07:38:26Z</time>
      </trkpt>
      <trkpt lat="43.945545013993979" lon="4.810772035270929">
        <ele>-7.55</ele>
        <time>2025-05-17T07:38:27Z</time>
      </trkpt>
      <trkpt lat="43.945519030094147" lon="4.810715038329363">
        <ele>-7.07</ele>
        <time>2025-05-17T07:38:28Z</time>
      </trkpt>
      <trkpt lat="43.94539900124073" lon="4.810444973409176">
        <ele>-5.63</ele>
        <time>2025-05-17T07:38:31Z</time>
      </trkpt>
      <trkpt lat="43.94539900124073" lon="4.810444973409176">
        <ele>-4.67</ele>
        <time>2025-05-17T07:38:32Z</time>
      </trkpt>
      <trkpt lat="43.945383997634053" lon="4.810410020872951">
        <ele>-4.19</ele>
        <time>2025-05-17T07:38:33Z</time>
      </trkpt>
      <trkpt lat="43.945334041491151" lon="4.810295021161437">
        <ele>-3.71</ele>
        <time>2025-05-17T07:38:34Z</time>
      </trkpt>
      <trkpt lat="43.94533202983439" lon="4.810286974534392">
        <ele>-3.23</ele>
        <time>2025-05-17T07:38:35Z</time>
      </trkpt>
      <trkpt lat="43.945307973772287" lon="4.810212040320039">
        <ele>-2.27</ele>
        <time>2025-05-17T07:38:36Z</time>
      </trkpt>
      <trkpt lat="43.945282995700836" lon="4.810131993144751">
        <ele>-0.82</ele>
        <time>2025-05-17T07:38:37Z</time>
      </trkpt>
      <trkpt lat="43.945257011801004" lon="4.810051023960114">
        <ele>0.62</ele>
        <time>2025-05-17T07:38:38Z</time>
      </trkpt>
      <trkpt lat="43.945084009319544" lon="4.809503015130758">
        <ele>7.35</ele>
        <time>2025-05-17T07:38:47Z</time>
      </trkpt>
      <trkpt lat="43.94507696852088" lon="4.809479964897037">
        <ele>8.310000000000001</ele>
        <time>2025-05-17T07:38:48Z</time>
      </trkpt>
      <trkpt lat="43.945064982399344" lon="4.809489017352462">
        <ele>9.27</ele>
        <time>2025-05-17T07:38:49Z</time>
      </trkpt>
      <trkpt lat="43.945028018206358" lon="4.809519024565816">
        <ele>9.27</ele>
        <time>2025-05-17T07:38:50Z</time>
      </trkpt>
      <trkpt lat="43.944984013214707" lon="4.809553977102041">
        <ele>9.75</ele>
        <time>2025-05-17T07:38:51Z</time>
      </trkpt>
      <trkpt lat="43.944937996566296" lon="4.809591025114059">
        <ele>10.23</ele>
        <time>2025-05-17T07:38:52Z</time>
      </trkpt>
      <trkpt lat="43.94486197270453" lon="4.809651039540768">
        <ele>10.710000000000001</ele>
        <time>2025-05-17T07:38:53Z</time>
      </trkpt>
      <trkpt lat="43.944858033210039" lon="4.809662019833922">
        <ele>10.710000000000001</ele>
        <time>2025-05-17T07:38:54Z</time>
      </trkpt>
      <trkpt lat="43.944841017946601" lon="4.809706024825573">
        <ele>11.19</ele>
        <time>2025-05-17T07:38:55Z</time>
      </trkpt>
      <trkpt lat="43.94481997936964" lon="4.809756986796856">
        <ele>11.67</ele>
        <time>2025-05-17T07:38:56Z</time>
      </trkpt>
      <trkpt lat="43.944761976599693" lon="4.809854971244931">
        <ele>12.15</ele>
        <time>2025-05-17T07:38:58Z</time>
      </trkpt>
      <trkpt lat="43.944734986871481" lon="4.809906017035246">
        <ele>12.15</ele>
        <time>2025-05-17T07:38:59Z</time>
      </trkpt>
      <trkpt lat="43.944709002971649" lon="4.809957984834909">
        <ele>13.119999999999999</ele>
        <time>2025-05-17T07:39:00Z</time>
      </trkpt>
      <trkpt lat="43.944683019071817" lon="4.810010036453605">
        <ele>13.119999999999999</ele>
        <time>2025-05-17T07:39:01Z</time>
      </trkpt>
      <trkpt lat="43.94464798271656" lon="4.810081031173468">
        <ele>13.119999999999999</ele>
        <time>2025-05-17T07:39:02Z</time>
      </trkpt>
      <trkpt lat="43.944628033787012" lon="4.810121012851596">
        <ele>13.6</ele>
        <time>2025-05-17T07:39:03Z</time>
      </trkpt>
      <trkpt lat="43.944591991603374" lon="4.810183960944414">
        <ele>13.6</ele>
        <time>2025-05-17T07:39:04Z</time>
      </trkpt>
      <trkpt lat="43.944555027410388" lon="4.810249004513025">
        <ele>14.08</ele>
        <time>2025-05-17T07:39:05Z</time>
      </trkpt>
      <trkpt lat="43.944520996883512" lon="4.810322010889649">
        <ele>14.08</ele>
        <time>2025-05-17T07:39:06Z</time>
      </trkpt>
      <trkpt lat="43.944486966356635" lon="4.810405997559428">
        <ele>14.08</ele>
        <time>2025-05-17T07:39:07Z</time>
      </trkpt>
      <trkpt lat="43.944296026602387" lon="4.810885023325682">
        <ele>14.56</ele>
        <time>2025-05-17T07:39:13Z</time>
      </trkpt>
      <trkpt lat="43.944271970540285" lon="4.810954006388784">
        <ele>15.039999999999999</ele>
        <time>2025-05-17T07:39:14Z</time>
      </trkpt>
      <trkpt lat="43.944240035489202" lon="4.811046039685607">
        <ele>15.039999999999999</ele>
        <time>2025-05-17T07:39:15Z</time>
      </trkpt>
      <trkpt lat="43.944231988862157" lon="4.811060037463903">
        <ele>15.039999999999999</ele>
        <time>2025-05-17T07:39:16Z</time>
      </trkpt>
      <trkpt lat="43.944201981648803" lon="4.811115022748709">
        <ele>15.039999999999999</ele>
        <time>2025-05-17T07:39:17Z</time>
      </trkpt>
      <trkpt lat="43.944170968607068" lon="4.811170008033514">
        <ele>15.039999999999999</ele>
        <time>2025-05-17T07:39:18Z</time>
      </trkpt>
      <trkpt lat="43.944141967222095" lon="4.811222981661558">
        <ele>15.039999999999999</ele>
        <time>2025-05-17T07:39:19Z</time>
      </trkpt>
      <trkpt lat="43.94410902634263" lon="4.811281990259886">
        <ele>15.039999999999999</ele>
        <time>2025-05-17T07:39:20Z</time>
      </trkpt>
      <trkpt lat="43.944077007472515" lon="4.811338987201452">
        <ele>15.039999999999999</ele>
        <time>2025-05-17T07:39:21Z</time>
      </trkpt>
      <trkpt lat="43.943918002769351" lon="4.811625983566046">
        <ele>15.039999999999999</ele>
        <time>2025-05-17T07:39:25Z</time>
      </trkpt>
      <trkpt lat="43.943918002769351" lon="4.811625983566046">
        <ele>14.56</ele>
        <time>2025-05-17T07:39:26Z</time>
      </trkpt>
      <trkpt lat="43.9438930246979" lon="4.811663031578064">
        <ele>15.039999999999999</ele>
        <time>2025-05-17T07:39:27Z</time>
      </trkpt>
      <trkpt lat="43.943618014454842" lon="4.812076007947326">
        <ele>19.359999999999999</ele>
        <time>2025-05-17T07:39:35Z</time>
      </trkpt>
      <trkpt lat="43.943618014454842" lon="4.812076007947326">
        <ele>20.32</ele>
        <time>2025-05-17T07:39:36Z</time>
      </trkpt>
      <trkpt lat="43.94355297088623" lon="4.812140967696905">
        <ele>21.77</ele>
        <time>2025-05-17T07:39:39Z</time>
      </trkpt>
      <trkpt lat="43.94355297088623" lon="4.812140967696905">
        <ele>23.210000000000001</ele>
        <time>2025-05-17T07:39:45Z</time>
      </trkpt>
      <trkpt lat="43.943451968953013" lon="4.811716005206108">
        <ele>25.129999999999999</ele>
        <time>2025-05-17T07:39:49Z</time>
      </trkpt>
      <trkpt lat="43.942821985110641" lon="4.810410020872951">
        <ele>25.609999999999999</ele>
        <time>2025-05-17T07:40:01Z</time>
      </trkpt>
      <trkpt lat="43.942778985947371" lon="4.810183960944414">
        <ele>24.649999999999999</ele>
        <time>2025-05-17T07:40:03Z</time>
      </trkpt>
      <trkpt lat="43.942737998440862" lon="4.809972988441587">
        <ele>24.170000000000002</ele>
        <time>2025-05-17T07:40:05Z</time>
      </trkpt>
      <trkpt lat="43.942716959863901" lon="4.809890007600188">
        <ele>24.170000000000002</ele>
        <time>2025-05-17T07:40:06Z</time>
      </trkpt>
      <trkpt lat="43.942694999277592" lon="4.809801997616887">
        <ele>23.690000000000001</ele>
        <time>2025-05-17T07:40:07Z</time>
      </trkpt>
      <trkpt lat="43.942716959863901" lon="4.809501003473997">
        <ele>22.73</ele>
        <time>2025-05-17T07:40:08Z</time>
      </trkpt>
      <trkpt lat="43.942716959863901" lon="4.809501003473997">
        <ele>21.77</ele>
        <time>2025-05-17T07:40:09Z</time>
      </trkpt>
      <trkpt lat="43.942707991227508" lon="4.809459010139108">
        <ele>20.809999999999999</ele>
        <time>2025-05-17T07:40:10Z</time>
      </trkpt>
      <trkpt lat="43.942662980407476" lon="4.809239991009235">
        <ele>19.359999999999999</ele>
        <time>2025-05-17T07:40:12Z</time>
      </trkpt>
      <trkpt lat="43.942768005654216" lon="4.808408003300428">
        <ele>15.52</ele>
        <time>2025-05-17T07:40:20Z</time>
      </trkpt>
      <trkpt lat="43.942760964855552" lon="4.80832401663065">
        <ele>15.039999999999999</ele>
        <time>2025-05-17T07:40:21Z</time>
      </trkpt>
      <trkpt lat="43.942753002047539" lon="4.808228965848684">
        <ele>14.08</ele>
        <time>2025-05-17T07:40:22Z</time>
      </trkpt>
      <trkpt lat="43.942725006490946" lon="4.807687997817993">
        <ele>8.310000000000001</ele>
        <time>2025-05-17T07:40:27Z</time>
      </trkpt>
      <trkpt lat="43.942733975127339" lon="4.80757299810648">
        <ele>6.39</ele>
        <time>2025-05-17T07:40:28Z</time>
      </trkpt>
      <trkpt lat="43.942751996219158" lon="4.807327995076776">
        <ele>2.54</ele>
        <time>2025-05-17T07:40:30Z</time>
      </trkpt>
      <trkpt lat="43.942759959027171" lon="4.807211989536881">
        <ele>1.1</ele>
        <time>2025-05-17T07:40:31Z</time>
      </trkpt>
      <trkpt lat="43.942780997604132" lon="4.806840000674129">
        <ele>-2.75</ele>
        <time>2025-05-17T07:40:33Z</time>
      </trkpt>
      <trkpt lat="43.942791977897286" lon="4.806708991527557">
        <ele>-8.029999999999999</ele>
        <time>2025-05-17T07:40:36Z</time>
      </trkpt>
      <trkpt lat="43.94279801286757" lon="4.806643025949597">
        <ele>-9.960000000000001</ele>
        <time>2025-05-17T07:40:37Z</time>
      </trkpt>
      <trkpt lat="43.942802036181092" lon="4.806588040664792">
        <ele>-11.4</ele>
        <time>2025-05-17T07:40:38Z</time>
      </trkpt>
      <trkpt lat="43.942805975675583" lon="4.806547975167632">
        <ele>-14.76</ele>
        <time>2025-05-17T07:40:44Z</time>
      </trkpt>
      <trkpt lat="43.942780997604132" lon="4.806840000674129">
        <ele>-18.609999999999999</ele>
        <time>2025-05-17T07:40:48Z</time>
      </trkpt>
      <trkpt lat="43.942780997604132" lon="4.806840000674129">
        <ele>-19.57</ele>
        <time>2025-05-17T07:40:49Z</time>
      </trkpt>
      <trkpt lat="43.942764988169074" lon="4.807133032009006">
        <ele>-21.489999999999998</ele>
        <time>2025-05-17T07:40:54Z</time>
      </trkpt>
      <trkpt lat="43.942759959027171" lon="4.807212995365262">
        <ele>-21.969999999999999</ele>
        <time>2025-05-17T07:40:55Z</time>
      </trkpt>
      <trkpt lat="43.942759959027171" lon="4.807226993143559">
        <ele>-22.449999999999999</ele>
        <time>2025-05-17T07:40:56Z</time>
      </trkpt>
      <trkpt lat="43.942748978734016" lon="4.807374011725187">
        <ele>-22.449999999999999</ele>
        <time>2025-05-17T07:40:57Z</time>
      </trkpt>
      <trkpt lat="43.942742021754384" lon="4.807461015880108">
        <ele>-22.449999999999999</ele>
        <time>2025-05-17T07:40:58Z</time>
      </trkpt>
      <trkpt lat="43.942735986784101" lon="4.807543996721506">
        <ele>-22.449999999999999</ele>
        <time>2025-05-17T07:40:59Z</time>
      </trkpt>
      <trkpt lat="43.942730035632849" lon="4.807626977562904">
        <ele>-22.449999999999999</ele>
        <time>2025-05-17T07:41:00Z</time>
      </trkpt>
      <trkpt lat="43.942716959863901" lon="4.807806015014648">
        <ele>-22.93</ele>
        <time>2025-05-17T07:41:01Z</time>
      </trkpt>
      <trkpt lat="43.942726012319326" lon="4.807912968099117">
        <ele>-22.93</ele>
        <time>2025-05-17T07:41:03Z</time>
      </trkpt>
      <trkpt lat="43.942732969298959" lon="4.807993015274406">
        <ele>-22.93</ele>
        <time>2025-05-17T07:41:04Z</time>
      </trkpt>
      <trkpt lat="43.942759959027171" lon="4.808311024680734">
        <ele>-21.489999999999998</ele>
        <time>2025-05-17T07:41:08Z</time>
      </trkpt>
      <trkpt lat="43.942768005654216" lon="4.808401968330145">
        <ele>-17.649999999999999</ele>
        <time>2025-05-17T07:41:10Z</time>
      </trkpt>
      <trkpt lat="43.942871019244194" lon="4.808523003011942">
        <ele>-15.720000000000001</ele>
        <time>2025-05-17T07:41:11Z</time>
      </trkpt>
      <trkpt lat="43.942886022850871" lon="4.808516968041658">
        <ele>-14.279999999999999</ele>
        <time>2025-05-17T07:41:12Z</time>
      </trkpt>
      <trkpt lat="43.943047039210796" lon="4.808455025777221">
        <ele>-13.32</ele>
        <time>2025-05-17T07:41:16Z</time>
      </trkpt>
      <trkpt lat="43.943105963990092" lon="4.808431975543499">
        <ele>-13.32</ele>
        <time>2025-05-17T07:41:17Z</time>
      </trkpt>
      <trkpt lat="43.943167990073562" lon="4.808408003300428">
        <ele>-13.32</ele>
        <time>2025-05-17T07:41:18Z</time>
      </trkpt>
      <trkpt lat="43.94322901032865" lon="4.808385036885738">
        <ele>-13.32</ele>
        <time>2025-05-17T07:41:19Z</time>
      </trkpt>
      <trkpt lat="43.943291958421469" lon="4.808360980823636">
        <ele>-13.800000000000001</ele>
        <time>2025-05-17T07:41:20Z</time>
      </trkpt>
      <trkpt lat="43.943350967019796" lon="4.808338014408946">
        <ele>-14.279999999999999</ele>
        <time>2025-05-17T07:41:21Z</time>
      </trkpt>
      <trkpt lat="43.943409975618124" lon="4.808314964175224">
        <ele>-14.76</ele>
        <time>2025-05-17T07:41:22Z</time>
      </trkpt>
      <trkpt lat="43.943474013358355" lon="4.808290991932154">
        <ele>-15.24</ele>
        <time>2025-05-17T07:41:23Z</time>
      </trkpt>
      <trkpt lat="43.943697977811098" lon="4.808203987777233">
        <ele>-17.649999999999999</ele>
        <time>2025-05-17T07:41:27Z</time>
      </trkpt>
      <trkpt lat="43.943750029429793" lon="4.808184960857034">
        <ele>-18.129999999999999</ele>
        <time>2025-05-17T07:41:28Z</time>
      </trkpt>
      <trkpt lat="43.943804008886218" lon="4.808164006099105">
        <ele>-19.09</ele>
        <time>2025-05-17T07:41:29Z</time>
      </trkpt>
      <trkpt lat="43.943861005827785" lon="4.808141961693764">
        <ele>-19.57</ele>
        <time>2025-05-17T07:41:30Z</time>
      </trkpt>
      <trkpt lat="43.943911967799067" lon="4.808120001107454">
        <ele>-20.050000000000001</ele>
        <time>2025-05-17T07:41:31Z</time>
      </trkpt>
      <trkpt lat="43.944185972213745" lon="4.807983040809631">
        <ele>-23.41</ele>
        <time>2025-05-17T07:41:36Z</time>
      </trkpt>
      <trkpt lat="43.944229977205396" lon="4.80796099640429">
        <ele>-23.899999999999999</ele>
        <time>2025-05-17T07:41:37Z</time>
      </trkpt>
      <trkpt lat="43.944257972761989" lon="4.807946998625994">
        <ele>-24.859999999999999</ele>
        <time>2025-05-17T07:41:38Z</time>
      </trkpt>
      <trkpt lat="43.944276999682188" lon="4.8079380299896">
        <ele>-25.34</ele>
        <time>2025-05-17T07:41:39Z</time>
      </trkpt>
      <trkpt lat="43.944296026602387" lon="4.807927971705794">
        <ele>-26.300000000000001</ele>
        <time>2025-05-17T07:41:40Z</time>
      </trkpt>
      <trkpt lat="43.944327039644122" lon="4.807912968099117">
        <ele>-26.780000000000001</ele>
        <time>2025-05-17T07:41:41Z</time>
      </trkpt>
      <trkpt lat="43.944354029372334" lon="4.807899976149201">
        <ele>-27.739999999999998</ele>
        <time>2025-05-17T07:41:42Z</time>
      </trkpt>
      <trkpt lat="43.944380013272166" lon="4.807885978370905">
        <ele>-28.219999999999999</ele>
        <time>2025-05-17T07:41:43Z</time>
      </trkpt>
      <trkpt lat="43.944529965519905" lon="4.807698978111148">
        <ele>-27.739999999999998</ele>
        <time>2025-05-17T07:41:50Z</time>
      </trkpt>
      <trkpt lat="43.944558966904879" lon="4.807656984776259">
        <ele>-28.699999999999999</ele>
        <time>2025-05-17T07:41:51Z</time>
      </trkpt>
      <trkpt lat="43.944587968289852" lon="4.807614991441369">
        <ele>-29.66</ele>
        <time>2025-05-17T07:41:52Z</time>
      </trkpt>
      <trkpt lat="43.944662986323237" lon="4.807569980621338">
        <ele>-30.140000000000001</ele>
        <time>2025-05-17T07:41:53Z</time>
      </trkpt>
      <trkpt lat="43.94471101462841" lon="4.8075529653579">
        <ele>-31.109999999999999</ele>
        <time>2025-05-17T07:41:54Z</time>
      </trkpt>
      <trkpt lat="43.944755019620061" lon="4.807537039741874">
        <ele>-31.59</ele>
        <time>2025-05-17T07:41:55Z</time>
      </trkpt>
      <trkpt lat="43.94479600712657" lon="4.807522036135197">
        <ele>-32.549999999999997</ele>
        <time>2025-05-17T07:41:56Z</time>
      </trkpt>
      <trkpt lat="43.944878987967968" lon="4.807499991729856">
        <ele>-33.509999999999998</ele>
        <time>2025-05-17T07:42:04Z</time>
      </trkpt>
      <trkpt lat="43.944878987967968" lon="4.807499991729856">
        <ele>-37.350000000000001</ele>
        <time>2025-05-17T07:42:18Z</time>
      </trkpt>
      <trkpt lat="43.944890974089503" lon="4.807360013946891">
        <ele>34.740000000000002</ele>
        <time>2025-05-17T07:44:08Z</time>
      </trkpt>
      <trkpt lat="43.945132037624717" lon="4.807384992018342">
        <ele>-16.690000000000001</ele>
        <time>2025-05-17T07:44:19Z</time>
      </trkpt>
      <trkpt lat="43.94522599875927" lon="4.807407958433032">
        <ele>-51.770000000000003</ele>
        <time>2025-05-17T07:44:31Z</time>
      </trkpt>
      <trkpt lat="43.94529196433723" lon="4.807463027536869">
        <ele>-58.5</ele>
        <time>2025-05-17T07:44:36Z</time>
      </trkpt>
      <trkpt lat="43.94529196433723" lon="4.807463027536869">
        <ele>-60.909999999999997</ele>
        <time>2025-05-17T07:44:37Z</time>
      </trkpt>
      <trkpt lat="43.945301016792655" lon="4.80746696703136">
        <ele>-61.869999999999997</ele>
        <time>2025-05-17T07:44:38Z</time>
      </trkpt>
      <trkpt lat="43.945107981562614" lon="4.808137016370893">
        <ele>-76.769999999999996</ele>
        <time>2025-05-17T07:44:50Z</time>
      </trkpt>
      <trkpt lat="43.945103036239743" lon="4.808241035789251">
        <ele>-82.060000000000002</ele>
        <time>2025-05-17T07:44:53Z</time>
      </trkpt>
      <trkpt lat="43.945102030411363" lon="4.808280011638999">
        <ele>-80.129999999999995</ele>
        <time>2025-05-17T07:44:54Z</time>
      </trkpt>
      <trkpt lat="43.94509800709784" lon="4.808342959731817">
        <ele>-88.299999999999997</ele>
        <time>2025-05-17T07:45:08Z</time>
      </trkpt>
      <trkpt lat="43.945095995441079" lon="4.808399034664035">
        <ele>-94.549999999999997</ele>
        <time>2025-05-17T07:45:22Z</time>
      </trkpt>
      <trkpt lat="43.945089038461447" lon="4.808527026325464">
        <ele>-95.989999999999995</ele>
        <time>2025-05-17T07:45:24Z</time>
      </trkpt>
      <trkpt lat="43.945084009319544" lon="4.808622999116778">
        <ele>-95.510000000000005</ele>
        <time>2025-05-17T07:45:25Z</time>
      </trkpt>
      <trkpt lat="43.945060037076473" lon="4.809114011004567">
        <ele>-89.269999999999996</ele>
        <time>2025-05-17T07:45:32Z</time>
      </trkpt>
      <trkpt lat="43.945057019591331" lon="4.809171007946134">
        <ele>-86.379999999999995</ele>
        <time>2025-05-17T07:45:33Z</time>
      </trkpt>
      <trkpt lat="43.945056013762951" lon="4.809201015159488">
        <ele>-83.980000000000004</ele>
        <time>2025-05-17T07:45:34Z</time>
      </trkpt>
      <trkpt lat="43.944858033210039" lon="4.809663025662303">
        <ele>-65.709999999999994</ele>
        <time>2025-05-17T07:45:41Z</time>
      </trkpt>
      <trkpt lat="43.944817967712879" lon="4.809762015938759">
        <ele>-62.350000000000001</ele>
        <time>2025-05-17T07:45:42Z</time>
      </trkpt>
      <trkpt lat="43.944742027670145" lon="4.80989302508533">
        <ele>-55.619999999999997</ele>
        <time>2025-05-17T07:45:44Z</time>
      </trkpt>
      <trkpt lat="43.944712020456791" lon="4.809952033683658">
        <ele>-53.219999999999999</ele>
        <time>2025-05-17T07:45:45Z</time>
      </trkpt>
      <trkpt lat="43.944684024900198" lon="4.810008024796844">
        <ele>-51.289999999999999</ele>
        <time>2025-05-17T07:45:46Z</time>
      </trkpt>
      <trkpt lat="43.944588974118233" lon="4.810187984257937">
        <ele>-48.409999999999997</ele>
        <time>2025-05-17T07:45:49Z</time>
      </trkpt>
      <trkpt lat="43.944528037682176" lon="4.810303989797831">
        <ele>-46.490000000000002</ele>
        <time>2025-05-17T07:45:51Z</time>
      </trkpt>
      <trkpt lat="43.944457964971662" lon="4.810479003936052">
        <ele>-45.039999999999999</ele>
        <time>2025-05-17T07:45:53Z</time>
      </trkpt>
      <trkpt lat="43.944258978590369" lon="4.810991976410151">
        <ele>-42.159999999999997</ele>
        <time>2025-05-17T07:45:59Z</time>
      </trkpt>
      <trkpt lat="43.94419401884079" lon="4.811129020527005">
        <ele>-42.159999999999997</ele>
        <time>2025-05-17T07:46:01Z</time>
      </trkpt>
      <trkpt lat="43.944161999970675" lon="4.811186017468572">
        <ele>-42.159999999999997</ele>
        <time>2025-05-17T07:46:02Z</time>
      </trkpt>
      <trkpt lat="43.94411196000874" lon="4.811277966946363">
        <ele>-40.240000000000002</ele>
        <time>2025-05-17T07:46:04Z</time>
      </trkpt>
      <trkpt lat="43.944086981937289" lon="4.811321971938014">
        <ele>-38.32</ele>
        <time>2025-05-17T07:46:05Z</time>
      </trkpt>
      <trkpt lat="43.944050017744303" lon="4.811389027163386">
        <ele>-36.390000000000001</ele>
        <time>2025-05-17T07:46:06Z</time>
      </trkpt>
      <trkpt lat="43.943918002769351" lon="4.811625983566046">
        <ele>-35.909999999999997</ele>
        <time>2025-05-17T07:46:08Z</time>
      </trkpt>
      <trkpt lat="43.943918002769351" lon="4.811625983566046">
        <ele>-34.950000000000003</ele>
        <time>2025-05-17T07:46:09Z</time>
      </trkpt>
      <trkpt lat="43.943735025823116" lon="4.811899987980723">
        <ele>-29.18</ele>
        <time>2025-05-17T07:46:13Z</time>
      </trkpt>
      <trkpt lat="43.943618014454842" lon="4.812076007947326">
        <ele>-16.690000000000001</ele>
        <time>2025-05-17T07:46:16Z</time>
      </trkpt>
      <trkpt lat="43.94355297088623" lon="4.812140967696905">
        <ele>-15.720000000000001</ele>
        <time>2025-05-17T07:46:17Z</time>
      </trkpt>
      <trkpt lat="43.943588007241488" lon="4.812388988211751">
        <ele>-13.800000000000001</ele>
        <time>2025-05-17T07:46:19Z</time>
      </trkpt>
      <trkpt lat="43.943835021927953" lon="4.813602017238736">
        <ele>-8.51</ele>
        <time>2025-05-17T07:46:30Z</time>
      </trkpt>
      <trkpt lat="43.943922026082873" lon="4.814079031348229">
        <ele>-3.23</ele>
        <time>2025-05-17T07:46:38Z</time>
      </trkpt>
      <trkpt lat="43.943922026082873" lon="4.814086994156241">
        <ele>-2.75</ele>
        <time>2025-05-17T07:47:01Z</time>
      </trkpt>
      <trkpt lat="43.943927977234125" lon="4.814251028001308">
        <ele>2.54</ele>
        <time>2025-05-17T07:47:09Z</time>
      </trkpt>
      <trkpt lat="43.944024033844471" lon="4.814724018797278">
        <ele>8.789999999999999</ele>
        <time>2025-05-17T07:47:17Z</time>
      </trkpt>
      <trkpt lat="43.944029984995723" lon="4.814775986596942">
        <ele>9.27</ele>
        <time>2025-05-17T07:47:18Z</time>
      </trkpt>
      <trkpt lat="43.944016993045807" lon="4.814852010458708">
        <ele>13.6</ele>
        <time>2025-05-17T07:47:29Z</time>
      </trkpt>
      <trkpt lat="43.944017998874187" lon="4.814843041822314">
        <ele>14.56</ele>
        <time>2025-05-17T07:48:15Z</time>
      </trkpt>
      <trkpt lat="43.943832004442811" lon="4.815036999061704">
        <ele>17.920000000000002</ele>
        <time>2025-05-17T07:48:36Z</time>
      </trkpt>
      <trkpt lat="43.943832004442811" lon="4.815036999061704">
        <ele>18.879999999999999</ele>
        <time>2025-05-17T07:48:37Z</time>
      </trkpt>
      <trkpt lat="43.943879026919603" lon="4.815116040408611">
        <ele>19.359999999999999</ele>
        <time>2025-05-17T07:48:38Z</time>
      </trkpt>
      <trkpt lat="43.94391699694097" lon="4.815177982673049">
        <ele>19.359999999999999</ele>
        <time>2025-05-17T07:48:39Z</time>
      </trkpt>
      <trkpt lat="43.943961001932621" lon="4.815250989049673">
        <ele>18.879999999999999</ele>
        <time>2025-05-17T07:48:40Z</time>
      </trkpt>
      <trkpt lat="43.944008024409413" lon="4.815330030396581">
        <ele>18.879999999999999</ele>
        <time>2025-05-17T07:48:41Z</time>
      </trkpt>
      <trkpt lat="43.944784021005034" lon="4.816079959273338">
        <ele>17.920000000000002</ele>
        <time>2025-05-17T07:48:51Z</time>
      </trkpt>
      <trkpt lat="43.945059031248093" lon="4.816303001716733">
        <ele>16.960000000000001</ele>
        <time>2025-05-17T07:48:54Z</time>
      </trkpt>
      <trkpt lat="43.946137027814984" lon="4.817071035504341">
        <ele>15.52</ele>
        <time>2025-05-17T07:49:05Z</time>
      </trkpt>
      <trkpt lat="43.947174958884716" lon="4.817808978259563">
        <ele>14.08</ele>
        <time>2025-05-17T07:49:16Z</time>
      </trkpt>
      <trkpt lat="43.947433037683368" lon="4.817980974912643">
        <ele>14.56</ele>
        <time>2025-05-17T07:49:22Z</time>
      </trkpt>
      <trkpt lat="43.947549965232611" lon="4.818059010431171">
        <ele>14.56</ele>
        <time>2025-05-17T07:49:30Z</time>
      </trkpt>
      <trkpt lat="43.947799997404218" lon="4.818240981549025">
        <ele>16</ele>
        <time>2025-05-17T07:49:42Z</time>
      </trkpt>
      <trkpt lat="43.948244992643595" lon="4.818547004833818">
        <ele>16</ele>
        <time>2025-05-17T07:49:50Z</time>
      </trkpt>
      <trkpt lat="43.948383964598179" lon="4.818642977625132">
        <ele>16</ele>
        <time>2025-05-17T07:50:00Z</time>
      </trkpt>
      <trkpt lat="43.948415983468294" lon="4.818664016202092">
        <ele>16</ele>
        <time>2025-05-17T07:50:09Z</time>
      </trkpt>
      <trkpt lat="43.948892997577786" lon="4.81900398619473">
        <ele>16.48</ele>
        <time>2025-05-17T07:50:16Z</time>
      </trkpt>
      <trkpt lat="43.949768990278244" lon="4.819591976702213">
        <ele>16</ele>
        <time>2025-05-17T07:50:27Z</time>
      </trkpt>
      <trkpt lat="43.950003013014793" lon="4.819770008325577">
        <ele>16</ele>
        <time>2025-05-17T07:50:30Z</time>
      </trkpt>
      <trkpt lat="43.950054980814457" lon="4.81982197612524">
        <ele>15.52</ele>
        <time>2025-05-17T07:50:32Z</time>
      </trkpt>
      <trkpt lat="43.950141984969378" lon="4.820009982213378">
        <ele>15.52</ele>
        <time>2025-05-17T07:50:33Z</time>
      </trkpt>
      <trkpt lat="43.950194958597422" lon="4.820003025233746">
        <ele>15.52</ele>
        <time>2025-05-17T07:50:34Z</time>
      </trkpt>
      <trkpt lat="43.950252961367369" lon="4.819994978606701">
        <ele>15.52</ele>
        <time>2025-05-17T07:50:35Z</time>
      </trkpt>
      <trkpt lat="43.950311969965696" lon="4.819988021627069">
        <ele>15.039999999999999</ele>
        <time>2025-05-17T07:50:36Z</time>
      </trkpt>
      <trkpt lat="43.950367961078882" lon="4.819979975000024">
        <ele>15.039999999999999</ele>
        <time>2025-05-17T07:50:37Z</time>
      </trkpt>
      <trkpt lat="43.950419006869197" lon="4.819974023848772">
        <ele>15.039999999999999</ele>
        <time>2025-05-17T07:50:38Z</time>
      </trkpt>
      <trkpt lat="43.950465023517609" lon="4.819967988878489">
        <ele>14.56</ele>
        <time>2025-05-17T07:50:39Z</time>
      </trkpt>
      <trkpt lat="43.95051296800375" lon="4.819962037727237">
        <ele>14.56</ele>
        <time>2025-05-17T07:50:40Z</time>
      </trkpt>
      <trkpt lat="43.950562002137303" lon="4.819954996928573">
        <ele>14.56</ele>
        <time>2025-05-17T07:50:41Z</time>
      </trkpt>
      <trkpt lat="43.950911024585366" lon="4.819895988330245">
        <ele>14.08</ele>
        <time>2025-05-17T07:50:47Z</time>
      </trkpt>
      <trkpt lat="43.95096299238503" lon="4.819887019693852">
        <ele>14.08</ele>
        <time>2025-05-17T07:50:48Z</time>
      </trkpt>
      <trkpt lat="43.951055025681853" lon="4.819871010258794">
        <ele>14.08</ele>
        <time>2025-05-17T07:50:55Z</time>
      </trkpt>
      <trkpt lat="43.951082015410066" lon="4.819865981116891">
        <ele>14.08</ele>
        <time>2025-05-17T07:51:04Z</time>
      </trkpt>
      <trkpt lat="43.951137000694871" lon="4.819844020530582">
        <ele>14.56</ele>
        <time>2025-05-17T07:51:06Z</time>
      </trkpt>
      <trkpt lat="43.951189974322915" lon="4.819823987782002">
        <ele>15.039999999999999</ele>
        <time>2025-05-17T07:51:07Z</time>
      </trkpt>
      <trkpt lat="43.951252000406384" lon="4.81979800388217">
        <ele>15.039999999999999</ele>
        <time>2025-05-17T07:51:08Z</time>
      </trkpt>
      <trkpt lat="43.951315032318234" lon="4.819774031639099">
        <ele>15.52</ele>
        <time>2025-05-17T07:51:09Z</time>
      </trkpt>
      <trkpt lat="43.951406981796026" lon="4.819736983627081">
        <ele>16</ele>
        <time>2025-05-17T07:51:10Z</time>
      </trkpt>
      <trkpt lat="43.951450986787677" lon="4.81969297863543">
        <ele>16.48</ele>
        <time>2025-05-17T07:51:11Z</time>
      </trkpt>
      <trkpt lat="43.951514018699527" lon="4.819630030542612">
        <ele>16.960000000000001</ele>
        <time>2025-05-17T07:51:12Z</time>
      </trkpt>
      <trkpt lat="43.951575038954616" lon="4.819559035822749">
        <ele>17.440000000000001</ele>
        <time>2025-05-17T07:51:13Z</time>
      </trkpt>
      <trkpt lat="43.95162901841104" lon="4.819478988647461">
        <ele>17.440000000000001</ele>
        <time>2025-05-17T07:51:14Z</time>
      </trkpt>
      <trkpt lat="43.951682997867465" lon="4.819397013634443">
        <ele>17.920000000000002</ele>
        <time>2025-05-17T07:51:15Z</time>
      </trkpt>
      <trkpt lat="43.951925989240408" lon="4.818826960399747">
        <ele>18.879999999999999</ele>
        <time>2025-05-17T07:51:24Z</time>
      </trkpt>
      <trkpt lat="43.952036965638399" lon="4.81842496432364">
        <ele>19.359999999999999</ele>
        <time>2025-05-17T07:51:33Z</time>
      </trkpt>
      <trkpt lat="43.952196976169944" lon="4.817892964929342">
        <ele>19.84</ele>
        <time>2025-05-17T07:51:41Z</time>
      </trkpt>
      <trkpt lat="43.95251096226275" lon="4.816868025809526">
        <ele>20.809999999999999</ele>
        <time>2025-05-17T07:51:50Z</time>
      </trkpt>
      <trkpt lat="43.952656975015998" lon="4.816416995599866">
        <ele>20.809999999999999</ele>
        <time>2025-05-17T07:51:54Z</time>
      </trkpt>
      <trkpt lat="43.9526810310781" lon="4.816299984231591">
        <ele>20.809999999999999</ele>
        <time>2025-05-17T07:51:55Z</time>
      </trkpt>
      <trkpt lat="43.952987976372242" lon="4.815144035965204">
        <ele>22.25</ele>
        <time>2025-05-17T07:52:05Z</time>
      </trkpt>
      <trkpt lat="43.953021001070738" lon="4.814995005726814">
        <ele>22.25</ele>
        <time>2025-05-17T07:52:07Z</time>
      </trkpt>
      <trkpt lat="43.953083027154207" lon="4.814731981605291">
        <ele>22.73</ele>
        <time>2025-05-17T07:52:10Z</time>
      </trkpt>
      <trkpt lat="43.953109011054039" lon="4.814630979672074">
        <ele>22.73</ele>
        <time>2025-05-17T07:52:11Z</time>
      </trkpt>
      <trkpt lat="43.953136000782251" lon="4.814526960253716">
        <ele>23.210000000000001</ele>
        <time>2025-05-17T07:52:12Z</time>
      </trkpt>
      <trkpt lat="43.953416040167212" lon="4.813359025865793">
        <ele>23.690000000000001</ele>
        <time>2025-05-17T07:52:20Z</time>
      </trkpt>
      <trkpt lat="43.953574039041996" lon="4.812676990404725">
        <ele>23.690000000000001</ele>
        <time>2025-05-17T07:52:24Z</time>
      </trkpt>
      <trkpt lat="43.953588036820292" lon="4.812383959069848">
        <ele>23.210000000000001</ele>
        <time>2025-05-17T07:52:26Z</time>
      </trkpt>
      <trkpt lat="43.953574039041996" lon="4.810959035530686">
        <ele>22.25</ele>
        <time>2025-05-17T07:52:36Z</time>
      </trkpt>
      <trkpt lat="43.95358401350677" lon="4.809762015938759">
        <ele>23.210000000000001</ele>
        <time>2025-05-17T07:52:43Z</time>
      </trkpt>
      <trkpt lat="43.953664982691407" lon="4.809131026268005">
        <ele>24.170000000000002</ele>
        <time>2025-05-17T07:52:47Z</time>
      </trkpt>
      <trkpt lat="43.953749975189567" lon="4.808495007455349">
        <ele>24.649999999999999</ele>
        <time>2025-05-17T07:52:51Z</time>
      </trkpt>
      <trkpt lat="43.953737989068031" lon="4.807601999491453">
        <ele>23.210000000000001</ele>
        <time>2025-05-17T07:52:57Z</time>
      </trkpt>
      <trkpt lat="43.95373203791678" lon="4.807473002001643">
        <ele>23.210000000000001</ele>
        <time>2025-05-17T07:52:58Z</time>
      </trkpt>
      <trkpt lat="43.953704964369535" lon="4.807216012850404">
        <ele>22.73</ele>
        <time>2025-05-17T07:53:00Z</time>
      </trkpt>
      <trkpt lat="43.95364603959024" lon="4.806921975687146">
        <ele>22.73</ele>
        <time>2025-05-17T07:53:05Z</time>
      </trkpt>
      <trkpt lat="43.95364603959024" lon="4.806921975687146">
        <ele>22.73</ele>
        <time>2025-05-17T07:53:24Z</time>
      </trkpt>
      <trkpt lat="43.95364603959024" lon="4.806921975687146">
        <ele>22.73</ele>
        <time>2025-05-17T07:53:56Z</time>
      </trkpt>
      <trkpt lat="43.95364603959024" lon="4.806921975687146">
        <ele>22.73</ele>
        <time>2025-05-17T07:54:25Z</time>
      </trkpt>
      <trkpt lat="43.95364603959024" lon="4.806921975687146">
        <ele>22.25</ele>
        <time>2025-05-17T07:55:10Z</time>
      </trkpt>
      <trkpt lat="43.953617038205266" lon="4.806787027046084">
        <ele>23.210000000000001</ele>
        <time>2025-05-17T07:55:22Z</time>
      </trkpt>
      <trkpt lat="43.953543026000261" lon="4.806689964607358">
        <ele>23.690000000000001</ele>
        <time>2025-05-17T07:55:23Z</time>
      </trkpt>
      <trkpt lat="43.953484017401934" lon="4.806689964607358">
        <ele>23.690000000000001</ele>
        <time>2025-05-17T07:55:24Z</time>
      </trkpt>
      <trkpt lat="43.953419979661703" lon="4.806689964607358">
        <ele>23.690000000000001</ele>
        <time>2025-05-17T07:55:25Z</time>
      </trkpt>
      <trkpt lat="43.953356025740504" lon="4.806689964607358">
        <ele>23.210000000000001</ele>
        <time>2025-05-17T07:55:26Z</time>
      </trkpt>
      <trkpt lat="43.953298022970557" lon="4.806689964607358">
        <ele>22.73</ele>
        <time>2025-05-17T07:55:27Z</time>
      </trkpt>
      <trkpt lat="43.953245971351862" lon="4.806689964607358">
        <ele>22.73</ele>
        <time>2025-05-17T07:55:28Z</time>
      </trkpt>
      <trkpt lat="43.953187968581915" lon="4.806603966280818">
        <ele>22.25</ele>
        <time>2025-05-17T07:55:29Z</time>
      </trkpt>
      <trkpt lat="43.953158967196941" lon="4.806575970724225">
        <ele>21.77</ele>
        <time>2025-05-17T07:55:30Z</time>
      </trkpt>
      <trkpt lat="43.953112028539181" lon="4.806528026238084">
        <ele>21.289999999999999</ele>
        <time>2025-05-17T07:55:31Z</time>
      </trkpt>
      <trkpt lat="43.953081015497446" lon="4.806497013196349">
        <ele>20.809999999999999</ele>
        <time>2025-05-17T07:55:32Z</time>
      </trkpt>
      <trkpt lat="43.952995017170906" lon="4.806389976292849">
        <ele>20.32</ele>
        <time>2025-05-17T07:55:34Z</time>
      </trkpt>
      <trkpt lat="43.952978001907468" lon="4.806343037635088">
        <ele>19.84</ele>
        <time>2025-05-17T07:55:35Z</time>
      </trkpt>
      <trkpt lat="43.952955035492778" lon="4.806280005723238">
        <ele>19.359999999999999</ele>
        <time>2025-05-17T07:55:36Z</time>
      </trkpt>
      <trkpt lat="43.952933996915817" lon="4.80622099712491">
        <ele>18.879999999999999</ele>
        <time>2025-05-17T07:55:37Z</time>
      </trkpt>
      <trkpt lat="43.952914969995618" lon="4.806169029325247">
        <ele>18.399999999999999</ele>
        <time>2025-05-17T07:55:38Z</time>
      </trkpt>
      <trkpt lat="43.952899966388941" lon="4.806126030161977">
        <ele>17.440000000000001</ele>
        <time>2025-05-17T07:55:39Z</time>
      </trkpt>
      <trkpt lat="43.952886974439025" lon="4.80609099380672">
        <ele>17.440000000000001</ele>
        <time>2025-05-17T07:55:40Z</time>
      </trkpt>
      <trkpt lat="43.952886974439025" lon="4.80609099380672">
        <ele>16.960000000000001</ele>
        <time>2025-05-17T07:55:41Z</time>
      </trkpt>
      <trkpt lat="43.95281002856791" lon="4.80587599799037">
        <ele>15.039999999999999</ele>
        <time>2025-05-17T07:55:51Z</time>
      </trkpt>
      <trkpt lat="43.95281002856791" lon="4.80587599799037">
        <ele>14.08</ele>
        <time>2025-05-17T07:56:01Z</time>
      </trkpt>
      <trkpt lat="43.95281002856791" lon="4.80587599799037">
        <ele>13.6</ele>
        <time>2025-05-17T07:56:07Z</time>
      </trkpt>
      <trkpt lat="43.952857973054051" lon="4.806010024622083">
        <ele>11.19</ele>
        <time>2025-05-17T07:56:11Z</time>
      </trkpt>
      <trkpt lat="43.952889991924167" lon="4.806098034605384">
        <ele>11.19</ele>
        <time>2025-05-17T07:56:12Z</time>
      </trkpt>
      <trkpt lat="43.952970961108804" lon="4.806321999058127">
        <ele>9.75</ele>
        <time>2025-05-17T07:56:15Z</time>
      </trkpt>
      <trkpt lat="43.952995017170906" lon="4.806389976292849">
        <ele>9.27</ele>
        <time>2025-05-17T07:56:16Z</time>
      </trkpt>
      <trkpt lat="43.952995017170906" lon="4.806389976292849">
        <ele>8.310000000000001</ele>
        <time>2025-05-17T07:56:24Z</time>
      </trkpt>
      <trkpt lat="43.95306802354753" lon="4.806364998221397">
        <ele>7.83</ele>
        <time>2025-05-17T07:56:25Z</time>
      </trkpt>
      <trkpt lat="43.95306701771915" lon="4.806358041241765">
        <ele>7.83</ele>
        <time>2025-05-17T07:56:26Z</time>
      </trkpt>
      <trkpt lat="43.953066011890769" lon="4.806338008493185">
        <ele>7.83</ele>
        <time>2025-05-17T07:56:27Z</time>
      </trkpt>
      <trkpt lat="43.953064000234008" lon="4.806321999058127">
        <ele>7.83</ele>
        <time>2025-05-17T07:56:28Z</time>
      </trkpt>
      <trkpt lat="43.953064000234008" lon="4.806321999058127">
        <ele>7.35</ele>
        <time>2025-05-17T07:56:41Z</time>
      </trkpt>
      <trkpt lat="43.953441018238664" lon="4.806784009560943">
        <ele>-17.170000000000002</ele>
        <time>2025-05-17T08:55:46Z</time>
      </trkpt>
      <trkpt lat="43.953335992991924" lon="4.806557027623057">
        <ele>12.630000000000001</ele>
        <time>2025-05-17T08:55:48Z</time>
      </trkpt>
      <trkpt lat="43.953201966360211" lon="4.806631961837411">
        <ele>24.649999999999999</ele>
        <time>2025-05-17T08:55:52Z</time>
      </trkpt>
      <trkpt lat="43.952995017170906" lon="4.806389976292849">
        <ele>26.57</ele>
        <time>2025-05-17T08:55:53Z</time>
      </trkpt>
      <trkpt lat="43.953230967745185" lon="4.806689964607358">
        <ele>26.57</ele>
        <time>2025-05-17T08:55:54Z</time>
      </trkpt>
      <trkpt lat="43.953230967745185" lon="4.806689964607358">
        <ele>30.899999999999999</ele>
        <time>2025-05-17T08:55:55Z</time>
      </trkpt>
      <trkpt lat="43.952995017170906" lon="4.806389976292849">
        <ele>35.229999999999997</ele>
        <time>2025-05-17T08:56:02Z</time>
      </trkpt>
      <trkpt lat="43.952995017170906" lon="4.806389976292849">
        <ele>47.719999999999999</ele>
        <time>2025-05-17T08:56:25Z</time>
      </trkpt>
      <trkpt lat="43.952995017170906" lon="4.806389976292849">
        <ele>44.840000000000003</ele>
        <time>2025-05-17T08:56:52Z</time>
      </trkpt>
      <trkpt lat="43.953230967745185" lon="4.806689964607358">
        <ele>40.030000000000001</ele>
        <time>2025-05-17T08:57:02Z</time>
      </trkpt>
      <trkpt lat="43.95332601852715" lon="4.806761965155602">
        <ele>33.299999999999997</ele>
        <time>2025-05-17T08:57:10Z</time>
      </trkpt>
      <trkpt lat="43.953373963013291" lon="4.806797001510859">
        <ele>32.82</ele>
        <time>2025-05-17T08:57:11Z</time>
      </trkpt>
      <trkpt lat="43.953402964398265" lon="4.806818962097168">
        <ele>32.340000000000003</ele>
        <time>2025-05-17T08:57:12Z</time>
      </trkpt>
      <trkpt lat="43.953402964398265" lon="4.806818962097168">
        <ele>31.859999999999999</ele>
        <time>2025-05-17T08:57:13Z</time>
      </trkpt>
      <trkpt lat="43.953402964398265" lon="4.806818962097168">
        <ele>31.859999999999999</ele>
        <time>2025-05-17T08:57:14Z</time>
      </trkpt>
      <trkpt lat="43.953402964398265" lon="4.806818962097168">
        <ele>31.859999999999999</ele>
        <time>2025-05-17T08:57:15Z</time>
      </trkpt>
      <trkpt lat="43.953666994348168" lon="4.807023983448744">
        <ele>30.899999999999999</ele>
        <time>2025-05-17T08:57:16Z</time>
      </trkpt>
      <trkpt lat="43.953674035146832" lon="4.807061031460762">
        <ele>30.899999999999999</ele>
        <time>2025-05-17T08:57:17Z</time>
      </trkpt>
      <trkpt lat="43.953685015439987" lon="4.807112999260426">
        <ele>30.420000000000002</ele>
        <time>2025-05-17T08:57:19Z</time>
      </trkpt>
      <trkpt lat="43.953689960762858" lon="4.807140994817019">
        <ele>29.940000000000001</ele>
        <time>2025-05-17T08:57:20Z</time>
      </trkpt>
      <trkpt lat="43.953730026260018" lon="4.807427991181612">
        <ele>26.57</ele>
        <time>2025-05-17T08:57:32Z</time>
      </trkpt>
      <trkpt lat="43.953742012381554" lon="4.807692021131516">
        <ele>26.09</ele>
        <time>2025-05-17T08:57:37Z</time>
      </trkpt>
      <trkpt lat="43.953746035695076" lon="4.808628028258681">
        <ele>25.129999999999999</ele>
        <time>2025-05-17T08:57:47Z</time>
      </trkpt>
      <trkpt lat="43.953681997954845" lon="4.809049973264337">
        <ele>25.129999999999999</ele>
        <time>2025-05-17T08:57:59Z</time>
      </trkpt>
      <trkpt lat="43.953594993799925" lon="4.809469990432262">
        <ele>23.210000000000001</ele>
        <time>2025-05-17T08:58:09Z</time>
      </trkpt>
      <trkpt lat="43.953590970486403" lon="4.80957199819386">
        <ele>22.25</ele>
        <time>2025-05-17T08:58:21Z</time>
      </trkpt>
      <trkpt lat="43.953576972708106" lon="4.809969970956445">
        <ele>22.73</ele>
        <time>2025-05-17T08:58:27Z</time>
      </trkpt>
      <trkpt lat="43.953574039041996" lon="4.811359019950032">
        <ele>23.690000000000001</ele>
        <time>2025-05-17T08:58:40Z</time>
      </trkpt>
      <trkpt lat="43.953574039041996" lon="4.811447029933333">
        <ele>23.690000000000001</ele>
        <time>2025-05-17T08:58:41Z</time>
      </trkpt>
      <trkpt lat="43.953577978536487" lon="4.811527999117971">
        <ele>23.690000000000001</ele>
        <time>2025-05-17T08:58:42Z</time>
      </trkpt>
      <trkpt lat="43.953582001850009" lon="4.811597988009453">
        <ele>23.690000000000001</ele>
        <time>2025-05-17T08:58:43Z</time>
      </trkpt>
      <trkpt lat="43.953585019335151" lon="4.811639981344342">
        <ele>23.690000000000001</ele>
        <time>2025-05-17T08:58:44Z</time>
      </trkpt>
      <trkpt lat="43.953585019335151" lon="4.811639981344342">
        <ele>23.210000000000001</ele>
        <time>2025-05-17T08:58:52Z</time>
      </trkpt>
      <trkpt lat="43.953592982143164" lon="4.811765039339662">
        <ele>23.210000000000001</ele>
        <time>2025-05-17T08:59:25Z</time>
      </trkpt>
      <trkpt lat="43.953590970486403" lon="4.812331991270185">
        <ele>23.210000000000001</ele>
        <time>2025-05-17T08:59:31Z</time>
      </trkpt>
      <trkpt lat="43.953579990193248" lon="4.812547992914915">
        <ele>23.210000000000001</ele>
        <time>2025-05-17T08:59:37Z</time>
      </trkpt>
      <trkpt lat="43.953578984364867" lon="4.812576994299889">
        <ele>23.690000000000001</ele>
        <time>2025-05-17T08:59:38Z</time>
      </trkpt>
      <trkpt lat="43.95349700935185" lon="4.81300899758935">
        <ele>23.210000000000001</ele>
        <time>2025-05-17T08:59:51Z</time>
      </trkpt>
      <trkpt lat="43.953484017401934" lon="4.813064988702536">
        <ele>23.210000000000001</ele>
        <time>2025-05-17T09:00:05Z</time>
      </trkpt>
      <trkpt lat="43.953403970226645" lon="4.813408982008696">
        <ele>24.649999999999999</ele>
        <time>2025-05-17T09:00:29Z</time>
      </trkpt>
      <trkpt lat="43.953345967456698" lon="4.813659014180303">
        <ele>26.09</ele>
        <time>2025-05-17T09:00:32Z</time>
      </trkpt>
      <trkpt lat="43.953330041840672" lon="4.813726991415024">
        <ele>26.57</ele>
        <time>2025-05-17T09:00:33Z</time>
      </trkpt>
      <trkpt lat="43.953186040744185" lon="4.814331997185946">
        <ele>27.530000000000001</ele>
        <time>2025-05-17T09:00:40Z</time>
      </trkpt>
      <trkpt lat="43.953034998849034" lon="4.814933985471726">
        <ele>28.98</ele>
        <time>2025-05-17T09:00:47Z</time>
      </trkpt>
      <trkpt lat="43.953018989413977" lon="4.815004980191588">
        <ele>29.460000000000001</ele>
        <time>2025-05-17T09:00:48Z</time>
      </trkpt>
      <trkpt lat="43.952943971380591" lon="4.815315026789904">
        <ele>29.940000000000001</ele>
        <time>2025-05-17T09:00:51Z</time>
      </trkpt>
      <trkpt lat="43.952756971120834" lon="4.816074008122087">
        <ele>29.940000000000001</ele>
        <time>2025-05-17T09:00:59Z</time>
      </trkpt>
      <trkpt lat="43.952672984451056" lon="4.816324962303042">
        <ele>29.940000000000001</ele>
        <time>2025-05-17T09:01:02Z</time>
      </trkpt>
      <trkpt lat="43.952672984451056" lon="4.816367961466312">
        <ele>29.940000000000001</ele>
        <time>2025-05-17T09:01:03Z</time>
      </trkpt>
      <trkpt lat="43.952672984451056" lon="4.816367961466312">
        <ele>29.940000000000001</ele>
        <time>2025-05-17T09:01:04Z</time>
      </trkpt>
      <trkpt lat="43.9526810310781" lon="4.816399980336428">
        <ele>29.940000000000001</ele>
        <time>2025-05-17T09:01:05Z</time>
      </trkpt>
      <trkpt lat="43.952706009149551" lon="4.816511040553451">
        <ele>29.940000000000001</ele>
        <time>2025-05-17T09:01:06Z</time>
      </trkpt>
      <trkpt lat="43.952730987221003" lon="4.816620005294681">
        <ele>30.420000000000002</ele>
        <time>2025-05-17T09:01:07Z</time>
      </trkpt>
      <trkpt lat="43.952737022191286" lon="4.816646995022893">
        <ele>30.420000000000002</ele>
        <time>2025-05-17T09:01:08Z</time>
      </trkpt>
      <trkpt lat="43.952808016911149" lon="4.817080004140735">
        <ele>30.420000000000002</ele>
        <time>2025-05-17T09:01:11Z</time>
      </trkpt>
      <trkpt lat="43.952828971669078" lon="4.817209001630545">
        <ele>30.420000000000002</ele>
        <time>2025-05-17T09:01:12Z</time>
      </trkpt>
      <trkpt lat="43.952850010246038" lon="4.817344034090638">
        <ele>30.420000000000002</ele>
        <time>2025-05-17T09:01:13Z</time>
      </trkpt>
      <trkpt lat="43.95287599414587" lon="4.817486023530364">
        <ele>29.940000000000001</ele>
        <time>2025-05-17T09:01:14Z</time>
      </trkpt>
      <trkpt lat="43.952904995530844" lon="4.817619966343045">
        <ele>29.460000000000001</ele>
        <time>2025-05-17T09:01:15Z</time>
      </trkpt>
      <trkpt lat="43.952990993857384" lon="4.818016011267901">
        <ele>28.02</ele>
        <time>2025-05-17T09:01:26Z</time>
      </trkpt>
      <trkpt lat="43.953199032694101" lon="4.81964897364378">
        <ele>28.98</ele>
        <time>2025-05-17T09:01:30Z</time>
      </trkpt>
      <trkpt lat="43.953141029924154" lon="4.819767996668816">
        <ele>28.98</ele>
        <time>2025-05-17T09:01:31Z</time>
      </trkpt>
      <trkpt lat="43.953138012439013" lon="4.819839997217059">
        <ele>28.98</ele>
        <time>2025-05-17T09:01:32Z</time>
      </trkpt>
      <trkpt lat="43.953112028539181" lon="4.81990403495729">
        <ele>28.98</ele>
        <time>2025-05-17T09:01:33Z</time>
      </trkpt>
      <trkpt lat="43.953085038810968" lon="4.819930018857122">
        <ele>28.98</ele>
        <time>2025-05-17T09:01:34Z</time>
      </trkpt>
      <trkpt lat="43.953045979142189" lon="4.819930018857122">
        <ele>28.5</ele>
        <time>2025-05-17T09:01:35Z</time>
      </trkpt>
      <trkpt lat="43.952999040484428" lon="4.819916021078825">
        <ele>28.5</ele>
        <time>2025-05-17T09:01:36Z</time>
      </trkpt>
      <trkpt lat="43.952950006350875" lon="4.819876961410046">
        <ele>28.5</ele>
        <time>2025-05-17T09:01:37Z</time>
      </trkpt>
      <trkpt lat="43.952906001359224" lon="4.81984100304544">
        <ele>28.5</ele>
        <time>2025-05-17T09:01:38Z</time>
      </trkpt>
      <trkpt lat="43.952608024701476" lon="4.819614021107554">
        <ele>28.02</ele>
        <time>2025-05-17T09:01:45Z</time>
      </trkpt>
      <trkpt lat="43.952073007822037" lon="4.819257035851479">
        <ele>26.57</ele>
        <time>2025-05-17T09:01:53Z</time>
      </trkpt>
      <trkpt lat="43.951921965926886" lon="4.819152010604739">
        <ele>24.649999999999999</ele>
        <time>2025-05-17T09:02:00Z</time>
      </trkpt>
      <trkpt lat="43.951854994520545" lon="4.819042040035129">
        <ele>24.649999999999999</ele>
        <time>2025-05-17T09:02:05Z</time>
      </trkpt>
      <trkpt lat="43.951868992298841" lon="4.81900499202311">
        <ele>24.170000000000002</ele>
        <time>2025-05-17T09:02:06Z</time>
      </trkpt>
      <trkpt lat="43.951891958713531" lon="4.818944977596402">
        <ele>24.170000000000002</ele>
        <time>2025-05-17T09:02:07Z</time>
      </trkpt>
      <trkpt lat="43.951983992010355" lon="4.81861799955368">
        <ele>23.210000000000001</ele>
        <time>2025-05-17T09:02:11Z</time>
      </trkpt>
      <trkpt lat="43.952006958425045" lon="4.818537030369043">
        <ele>22.73</ele>
        <time>2025-05-17T09:02:12Z</time>
      </trkpt>
      <trkpt lat="43.952030008658767" lon="4.818451032042503">
        <ele>22.25</ele>
        <time>2025-05-17T09:02:13Z</time>
      </trkpt>
      <trkpt lat="43.952053980901837" lon="4.818366039544344">
        <ele>22.25</ele>
        <time>2025-05-17T09:02:14Z</time>
      </trkpt>
      <trkpt lat="43.952074013650417" lon="4.818292027339339">
        <ele>21.77</ele>
        <time>2025-05-17T09:02:15Z</time>
      </trkpt>
      <trkpt lat="43.952089017257094" lon="4.818243999034166">
        <ele>21.289999999999999</ele>
        <time>2025-05-17T09:02:16Z</time>
      </trkpt>
      <trkpt lat="43.952098991721869" lon="4.818211980164051">
        <ele>20.809999999999999</ele>
        <time>2025-05-17T09:02:17Z</time>
      </trkpt>
      <trkpt lat="43.952107038348913" lon="4.818184990435839">
        <ele>20.809999999999999</ele>
        <time>2025-05-17T09:02:18Z</time>
      </trkpt>
      <trkpt lat="43.952107038348913" lon="4.818184990435839">
        <ele>20.32</ele>
        <time>2025-05-17T09:02:19Z</time>
      </trkpt>
      <trkpt lat="43.952107038348913" lon="4.818184990435839">
        <ele>19.84</ele>
        <time>2025-05-17T09:02:33Z</time>
      </trkpt>
      <trkpt lat="43.952107038348913" lon="4.818184990435839">
        <ele>19.84</ele>
        <time>2025-05-17T09:02:53Z</time>
      </trkpt>
      <trkpt lat="43.952128998935223" lon="4.818115001544356">
        <ele>20.809999999999999</ele>
        <time>2025-05-17T09:02:54Z</time>
      </trkpt>
      <trkpt lat="43.952083988115191" lon="4.818259002640843">
        <ele>23.210000000000001</ele>
        <time>2025-05-17T09:02:57Z</time>
      </trkpt>
      <trkpt lat="43.95205800421536" lon="4.818350030109286">
        <ele>23.210000000000001</ele>
        <time>2025-05-17T09:02:58Z</time>
      </trkpt>
      <trkpt lat="43.951955996453762" lon="4.818720007315278">
        <ele>22.73</ele>
        <time>2025-05-17T09:03:05Z</time>
      </trkpt>
      <trkpt lat="43.95195297896862" lon="4.818730987608433">
        <ele>22.73</ele>
        <time>2025-05-17T09:03:16Z</time>
      </trkpt>
      <trkpt lat="43.951939987018704" lon="4.818777004256845">
        <ele>22.73</ele>
        <time>2025-05-17T09:03:17Z</time>
      </trkpt>
      <trkpt lat="43.951920960098505" lon="4.818847998976708">
        <ele>22.73</ele>
        <time>2025-05-17T09:03:18Z</time>
      </trkpt>
      <trkpt lat="43.951896987855434" lon="4.818931985646486">
        <ele>22.25</ele>
        <time>2025-05-17T09:03:19Z</time>
      </trkpt>
      <trkpt lat="43.951867986470461" lon="4.819008009508252">
        <ele>22.25</ele>
        <time>2025-05-17T09:03:20Z</time>
      </trkpt>
      <trkpt lat="43.951840996742249" lon="4.819079004228115">
        <ele>22.25</ele>
        <time>2025-05-17T09:03:21Z</time>
      </trkpt>
      <trkpt lat="43.951806966215372" lon="4.819151004776359">
        <ele>21.77</ele>
        <time>2025-05-17T09:03:22Z</time>
      </trkpt>
      <trkpt lat="43.951601022854447" lon="4.81952098198235">
        <ele>19.84</ele>
        <time>2025-05-17T09:03:34Z</time>
      </trkpt>
      <trkpt lat="43.951472025364637" lon="4.819671018049121">
        <ele>21.77</ele>
        <time>2025-05-17T09:04:02Z</time>
      </trkpt>
      <trkpt lat="43.951431037858129" lon="4.81971200555563">
        <ele>21.77</ele>
        <time>2025-05-17T09:04:03Z</time>
      </trkpt>
      <trkpt lat="43.951322995126247" lon="4.819652996957302">
        <ele>22.25</ele>
        <time>2025-05-17T09:04:04Z</time>
      </trkpt>
      <trkpt lat="43.951277984306216" lon="4.819607986137271">
        <ele>22.25</ele>
        <time>2025-05-17T09:04:05Z</time>
      </trkpt>
      <trkpt lat="43.951239008456469" lon="4.819576973095536">
        <ele>22.73</ele>
        <time>2025-05-17T09:04:06Z</time>
      </trkpt>
      <trkpt lat="43.951189974322915" lon="4.819536991417408">
        <ele>23.210000000000001</ele>
        <time>2025-05-17T09:04:07Z</time>
      </trkpt>
      <trkpt lat="43.951129959896207" lon="4.819516036659479">
        <ele>23.690000000000001</ele>
        <time>2025-05-17T09:04:08Z</time>
      </trkpt>
      <trkpt lat="43.951072040945292" lon="4.819507990032435">
        <ele>23.690000000000001</ele>
        <time>2025-05-17T09:04:09Z</time>
      </trkpt>
      <trkpt lat="43.9510059915483" lon="4.819503966718912">
        <ele>24.170000000000002</ele>
        <time>2025-05-17T09:04:10Z</time>
      </trkpt>
      <trkpt lat="43.950939020141959" lon="4.819517964497209">
        <ele>24.170000000000002</ele>
        <time>2025-05-17T09:04:11Z</time>
      </trkpt>
      <trkpt lat="43.95087699405849" lon="4.819530034437776">
        <ele>24.170000000000002</ele>
        <time>2025-05-17T09:04:12Z</time>
      </trkpt>
      <trkpt lat="43.950722012668848" lon="4.81956297531724">
        <ele>24.170000000000002</ele>
        <time>2025-05-17T09:04:20Z</time>
      </trkpt>
      <trkpt lat="43.950722012668848" lon="4.81956297531724">
        <ele>24.170000000000002</ele>
        <time>2025-05-17T09:04:38Z</time>
      </trkpt>
      <trkpt lat="43.950415989384055" lon="4.819631958380342">
        <ele>24.170000000000002</ele>
        <time>2025-05-17T09:04:45Z</time>
      </trkpt>
      <trkpt lat="43.950269976630807" lon="4.819672023877502">
        <ele>24.170000000000002</ele>
        <time>2025-05-17T09:04:52Z</time>
      </trkpt>
      <trkpt lat="43.950269976630807" lon="4.819672023877502">
        <ele>24.170000000000002</ele>
        <time>2025-05-17T09:05:30Z</time>
      </trkpt>
      <trkpt lat="43.95016998052597" lon="4.819742012768984">
        <ele>23.690000000000001</ele>
        <time>2025-05-17T09:05:43Z</time>
      </trkpt>
      <trkpt lat="43.950119018554688" lon="4.81977797113359">
        <ele>23.690000000000001</ele>
        <time>2025-05-17T09:05:44Z</time>
      </trkpt>
      <trkpt lat="43.950067972764373" lon="4.819813007488847">
        <ele>23.690000000000001</ele>
        <time>2025-05-17T09:05:45Z</time>
      </trkpt>
      <trkpt lat="43.950080964714289" lon="4.819938987493515">
        <ele>23.690000000000001</ele>
        <time>2025-05-17T09:05:46Z</time>
      </trkpt>
      <trkpt lat="43.950099991634488" lon="4.82003596611321">
        <ele>23.690000000000001</ele>
        <time>2025-05-17T09:05:47Z</time>
      </trkpt>
      <trkpt lat="43.950108038261533" lon="4.820140991359949">
        <ele>23.690000000000001</ele>
        <time>2025-05-17T09:05:48Z</time>
      </trkpt>
      <trkpt lat="43.950117006897926" lon="4.82025196775794">
        <ele>23.690000000000001</ele>
        <time>2025-05-17T09:05:49Z</time>
      </trkpt>
      <trkpt lat="43.95020904019475" lon="4.821442030370235">
        <ele>22.73</ele>
        <time>2025-05-17T09:06:00Z</time>
      </trkpt>
      <trkpt lat="43.950217003002763" lon="4.821512019261718">
        <ele>22.73</ele>
        <time>2025-05-17T09:06:01Z</time>
      </trkpt>
      <trkpt lat="43.950228989124298" lon="4.821621989831328">
        <ele>23.210000000000001</ele>
        <time>2025-05-17T09:06:09Z</time>
      </trkpt>
      <trkpt lat="43.950262013822794" lon="4.821920972317457">
        <ele>21.77</ele>
        <time>2025-05-17T09:06:17Z</time>
      </trkpt>
      <trkpt lat="43.950269976630807" lon="4.82201099395752">
        <ele>21.77</ele>
        <time>2025-05-17T09:06:26Z</time>
      </trkpt>
      <trkpt lat="43.950273999944329" lon="4.822176033630967">
        <ele>24.170000000000002</ele>
        <time>2025-05-17T09:06:51Z</time>
      </trkpt>
      <trkpt lat="43.950281040742993" lon="4.822267983108759">
        <ele>24.649999999999999</ele>
        <time>2025-05-17T09:06:52Z</time>
      </trkpt>
      <trkpt lat="43.950287997722626" lon="4.822361022233963">
        <ele>25.129999999999999</ele>
        <time>2025-05-17T09:06:53Z</time>
      </trkpt>
      <trkpt lat="43.950305012986064" lon="4.822561014443636">
        <ele>25.609999999999999</ele>
        <time>2025-05-17T09:06:55Z</time>
      </trkpt>
      <trkpt lat="43.950411966070533" lon="4.823876973241568">
        <ele>26.09</ele>
        <time>2025-05-17T09:07:05Z</time>
      </trkpt>
      <trkpt lat="43.950488995760679" lon="4.824622040614486">
        <ele>26.57</ele>
        <time>2025-05-17T09:07:10Z</time>
      </trkpt>
      <trkpt lat="43.950522020459175" lon="4.82476201839745">
        <ele>26.57</ele>
        <time>2025-05-17T09:07:11Z</time>
      </trkpt>
      <trkpt lat="43.951161978766322" lon="4.826338989660144">
        <ele>25.129999999999999</ele>
        <time>2025-05-17T09:07:23Z</time>
      </trkpt>
      <trkpt lat="43.951406981796026" lon="4.827292012050748">
        <ele>25.129999999999999</ele>
        <time>2025-05-17T09:07:31Z</time>
      </trkpt>
      <trkpt lat="43.951406981796026" lon="4.827417992055416">
        <ele>25.129999999999999</ele>
        <time>2025-05-17T09:07:32Z</time>
      </trkpt>
      <trkpt lat="43.951314026489854" lon="4.828583998605609">
        <ele>27.050000000000001</ele>
        <time>2025-05-17T09:07:41Z</time>
      </trkpt>
      <trkpt lat="43.951128032058477" lon="4.829372987151146">
        <ele>27.530000000000001</ele>
        <time>2025-05-17T09:07:48Z</time>
      </trkpt>
      <trkpt lat="43.950982019305229" lon="4.830157030373812">
        <ele>26.57</ele>
        <time>2025-05-17T09:07:56Z</time>
      </trkpt>
      <trkpt lat="43.950989982113242" lon="4.830930009484291">
        <ele>27.050000000000001</ele>
        <time>2025-05-17T09:08:06Z</time>
      </trkpt>
      <trkpt lat="43.950999034568667" lon="4.831002010032535">
        <ele>27.050000000000001</ele>
        <time>2025-05-17T09:08:07Z</time>
      </trkpt>
      <trkpt lat="43.951010014861822" lon="4.831067975610495">
        <ele>26.57</ele>
        <time>2025-05-17T09:08:08Z</time>
      </trkpt>
      <trkpt lat="43.951073968783021" lon="4.831456979736686">
        <ele>26.09</ele>
        <time>2025-05-17T09:08:13Z</time>
      </trkpt>
      <trkpt lat="43.951088972389698" lon="4.831531997770071">
        <ele>25.609999999999999</ele>
        <time>2025-05-17T09:08:14Z</time>
      </trkpt>
      <trkpt lat="43.951103975996375" lon="4.831600980833173">
        <ele>25.609999999999999</ele>
        <time>2025-05-17T09:08:15Z</time>
      </trkpt>
      <trkpt lat="43.951129037886858" lon="4.831717992201448">
        <ele>25.129999999999999</ele>
        <time>2025-05-17T09:08:17Z</time>
      </trkpt>
      <trkpt lat="43.951140018180013" lon="4.831772977486253">
        <ele>25.129999999999999</ele>
        <time>2025-05-17T09:08:18Z</time>
      </trkpt>
      <trkpt lat="43.951149992644787" lon="4.831821005791426">
        <ele>24.649999999999999</ele>
        <time>2025-05-17T09:08:19Z</time>
      </trkpt>
      <trkpt lat="43.951154015958309" lon="4.831855036318302">
        <ele>24.649999999999999</ele>
        <time>2025-05-17T09:08:20Z</time>
      </trkpt>
      <trkpt lat="43.951158039271832" lon="4.831887977197766">
        <ele>24.649999999999999</ele>
        <time>2025-05-17T09:08:21Z</time>
      </trkpt>
      <trkpt lat="43.951162984594703" lon="4.831925025209785">
        <ele>24.170000000000002</ele>
        <time>2025-05-17T09:08:22Z</time>
      </trkpt>
      <trkpt lat="43.951167007908225" lon="4.831957966089249">
        <ele>24.170000000000002</ele>
        <time>2025-05-17T09:08:23Z</time>
      </trkpt>
      <trkpt lat="43.951171031221747" lon="4.831990990787745">
        <ele>24.170000000000002</ele>
        <time>2025-05-17T09:08:24Z</time>
      </trkpt>
      <trkpt lat="43.951174970716238" lon="4.832020998001099">
        <ele>24.170000000000002</ele>
        <time>2025-05-17T09:08:35Z</time>
      </trkpt>
      <trkpt lat="43.951211012899876" lon="4.832236999645829">
        <ele>25.129999999999999</ele>
        <time>2025-05-17T09:09:10Z</time>
      </trkpt>
      <trkpt lat="43.951316038146615" lon="4.832815015688539">
        <ele>25.129999999999999</ele>
        <time>2025-05-17T09:09:18Z</time>
      </trkpt>
      <trkpt lat="43.951492980122566" lon="4.833621019497514">
        <ele>23.690000000000001</ele>
        <time>2025-05-17T09:09:27Z</time>
      </trkpt>
      <trkpt lat="43.951749969273806" lon="4.83451402746141">
        <ele>22.73</ele>
        <time>2025-05-17T09:09:37Z</time>
      </trkpt>
      <trkpt lat="43.951781988143921" lon="4.834640007466078">
        <ele>23.210000000000001</ele>
        <time>2025-05-17T09:09:38Z</time>
      </trkpt>
      <trkpt lat="43.95186304114759" lon="4.835059018805623">
        <ele>23.210000000000001</ele>
        <time>2025-05-17T09:09:41Z</time>
      </trkpt>
      <trkpt lat="43.95199497230351" lon="4.8358269687742">
        <ele>24.170000000000002</ele>
        <time>2025-05-17T09:09:47Z</time>
      </trkpt>
      <trkpt lat="43.952020034193993" lon="4.835949009284377">
        <ele>24.170000000000002</ele>
        <time>2025-05-17T09:09:48Z</time>
      </trkpt>
      <trkpt lat="43.952308958396316" lon="4.837398994714022">
        <ele>23.210000000000001</ele>
        <time>2025-05-17T09:10:00Z</time>
      </trkpt>
      <trkpt lat="43.952332008630037" lon="4.837523968890309">
        <ele>22.73</ele>
        <time>2025-05-17T09:10:01Z</time>
      </trkpt>
      <trkpt lat="43.952500987797976" lon="4.83894201926887">
        <ele>22.73</ele>
        <time>2025-05-17T09:10:12Z</time>
      </trkpt>
      <trkpt lat="43.952519008889794" lon="4.839915996417403">
        <ele>23.210000000000001</ele>
        <time>2025-05-17T09:10:19Z</time>
      </trkpt>
      <trkpt lat="43.952523032203317" lon="4.840057985857129">
        <ele>23.210000000000001</ele>
        <time>2025-05-17T09:10:20Z</time>
      </trkpt>
      <trkpt lat="43.952543986961246" lon="4.840472973883152">
        <ele>23.210000000000001</ele>
        <time>2025-05-17T09:10:23Z</time>
      </trkpt>
      <trkpt lat="43.952543986961246" lon="4.840609012171626">
        <ele>22.73</ele>
        <time>2025-05-17T09:10:24Z</time>
      </trkpt>
      <trkpt lat="43.952543986961246" lon="4.840733986347914">
        <ele>22.25</ele>
        <time>2025-05-17T09:10:25Z</time>
      </trkpt>
      <trkpt lat="43.952537029981613" lon="4.841663036495447">
        <ele>21.289999999999999</ele>
        <time>2025-05-17T09:10:34Z</time>
      </trkpt>
      <trkpt lat="43.952533006668091" lon="4.841715004295111">
        <ele>21.289999999999999</ele>
        <time>2025-05-17T09:10:35Z</time>
      </trkpt>
      <trkpt lat="43.952529989182949" lon="4.84175599180162">
        <ele>21.289999999999999</ele>
        <time>2025-05-17T09:10:36Z</time>
      </trkpt>
      <trkpt lat="43.952495036646724" lon="4.842355968430638">
        <ele>22.73</ele>
        <time>2025-05-17T09:10:49Z</time>
      </trkpt>
      <trkpt lat="43.952426975592971" lon="4.843236990272999">
        <ele>24.649999999999999</ele>
        <time>2025-05-17T09:10:58Z</time>
      </trkpt>
      <trkpt lat="43.952413983643055" lon="4.843378979712725">
        <ele>26.09</ele>
        <time>2025-05-17T09:11:07Z</time>
      </trkpt>
      <trkpt lat="43.952372996136546" lon="4.843682991340756">
        <ele>27.530000000000001</ele>
        <time>2025-05-17T09:11:16Z</time>
      </trkpt>
      <trkpt lat="43.952254978939891" lon="4.844578010961413">
        <ele>28.02</ele>
        <time>2025-05-17T09:11:24Z</time>
      </trkpt>
      <trkpt lat="43.952177027240396" lon="4.844955028966069">
        <ele>28.5</ele>
        <time>2025-05-17T09:11:27Z</time>
      </trkpt>
      <trkpt lat="43.951634969562292" lon="4.846582962200046">
        <ele>29.940000000000001</ele>
        <time>2025-05-17T09:11:39Z</time>
      </trkpt>
      <trkpt lat="43.951495997607708" lon="4.847171036526561">
        <ele>30.420000000000002</ele>
        <time>2025-05-17T09:11:43Z</time>
      </trkpt>
      <trkpt lat="43.951451992616057" lon="4.84753699041903">
        <ele>29.940000000000001</ele>
        <time>2025-05-17T09:11:46Z</time>
      </trkpt>
      <trkpt lat="43.951425002887845" lon="4.847789034247398">
        <ele>28.02</ele>
        <time>2025-05-17T09:11:51Z</time>
      </trkpt>
      <trkpt lat="43.951425002887845" lon="4.847789034247398">
        <ele>27.530000000000001</ele>
        <time>2025-05-17T09:12:04Z</time>
      </trkpt>
      <trkpt lat="43.951425002887845" lon="4.847789034247398">
        <ele>26.57</ele>
        <time>2025-05-17T09:12:46Z</time>
      </trkpt>
      <trkpt lat="43.951425002887845" lon="4.847789034247398">
        <ele>26.57</ele>
        <time>2025-05-17T09:13:36Z</time>
      </trkpt>
      <trkpt lat="43.951425002887845" lon="4.847789034247398">
        <ele>25.609999999999999</ele>
        <time>2025-05-17T09:16:13Z</time>
      </trkpt>
      <trkpt lat="43.951417040079832" lon="4.847860028967261">
        <ele>25.609999999999999</ele>
        <time>2025-05-17T09:16:39Z</time>
      </trkpt>
      <trkpt lat="43.951409999281168" lon="4.84792398288846">
        <ele>25.609999999999999</ele>
        <time>2025-05-17T09:16:40Z</time>
      </trkpt>
      <trkpt lat="43.951324000954628" lon="4.848842974752188">
        <ele>25.609999999999999</ele>
        <time>2025-05-17T09:16:47Z</time>
      </trkpt>
      <trkpt lat="43.951129037886858" lon="4.850727980956435">
        <ele>23.690000000000001</ele>
        <time>2025-05-17T09:16:59Z</time>
      </trkpt>
      <trkpt lat="43.950994005426764" lon="4.851552005857229">
        <ele>23.210000000000001</ele>
        <time>2025-05-17T09:17:06Z</time>
      </trkpt>
      <trkpt lat="43.950961986556649" lon="4.851635992527008">
        <ele>23.210000000000001</ele>
        <time>2025-05-17T09:17:07Z</time>
      </trkpt>
      <trkpt lat="43.950922004878521" lon="4.851728025823832">
        <ele>23.210000000000001</ele>
        <time>2025-05-17T09:17:08Z</time>
      </trkpt>
      <trkpt lat="43.950885040685534" lon="4.85183103941381">
        <ele>23.210000000000001</ele>
        <time>2025-05-17T09:17:09Z</time>
      </trkpt>
      <trkpt lat="43.950886968523264" lon="4.851946961134672">
        <ele>23.210000000000001</ele>
        <time>2025-05-17T09:17:10Z</time>
      </trkpt>
      <trkpt lat="43.950925022363663" lon="4.85204704105854">
        <ele>23.210000000000001</ele>
        <time>2025-05-17T09:17:11Z</time>
      </trkpt>
      <trkpt lat="43.950948994606733" lon="4.852166986092925">
        <ele>23.690000000000001</ele>
        <time>2025-05-17T09:17:12Z</time>
      </trkpt>
      <trkpt lat="43.950969027355313" lon="4.852292966097593">
        <ele>23.690000000000001</ele>
        <time>2025-05-17T09:17:13Z</time>
      </trkpt>
      <trkpt lat="43.950987970456481" lon="4.852426992729306">
        <ele>24.170000000000002</ele>
        <time>2025-05-17T09:17:14Z</time>
      </trkpt>
      <trkpt lat="43.9510059915483" lon="4.852568982169032">
        <ele>24.649999999999999</ele>
        <time>2025-05-17T09:17:15Z</time>
      </trkpt>
      <trkpt lat="43.951025018468499" lon="4.852710971608758">
        <ele>25.129999999999999</ele>
        <time>2025-05-17T09:17:16Z</time>
      </trkpt>
      <trkpt lat="43.951041027903557" lon="4.852857990190387">
        <ele>25.129999999999999</ele>
        <time>2025-05-17T09:17:17Z</time>
      </trkpt>
      <trkpt lat="43.951025018468499" lon="4.852999979630113">
        <ele>25.609999999999999</ele>
        <time>2025-05-17T09:17:18Z</time>
      </trkpt>
      <trkpt lat="43.950870959088206" lon="4.85436899587512">
        <ele>25.129999999999999</ele>
        <time>2025-05-17T09:17:28Z</time>
      </trkpt>
      <trkpt lat="43.950796024873853" lon="4.854903006926179">
        <ele>26.09</ele>
        <time>2025-05-17T09:17:32Z</time>
      </trkpt>
      <trkpt lat="43.950781021267176" lon="4.855025969445705">
        <ele>26.57</ele>
        <time>2025-05-17T09:17:33Z</time>
      </trkpt>
      <trkpt lat="43.950766017660499" lon="4.855147004127502">
        <ele>27.050000000000001</ele>
        <time>2025-05-17T09:17:34Z</time>
      </trkpt>
      <trkpt lat="43.950690999627113" lon="4.855864997953177">
        <ele>27.530000000000001</ele>
        <time>2025-05-17T09:17:40Z</time>
      </trkpt>
      <trkpt lat="43.950677001848817" lon="4.85600003041327">
        <ele>27.530000000000001</ele>
        <time>2025-05-17T09:17:41Z</time>
      </trkpt>
      <trkpt lat="43.950697034597397" lon="4.856394985690713">
        <ele>27.050000000000001</ele>
        <time>2025-05-17T09:17:44Z</time>
      </trkpt>
      <trkpt lat="43.950778003782034" lon="4.857711028307676">
        <ele>24.649999999999999</ele>
        <time>2025-05-17T09:17:55Z</time>
      </trkpt>
      <trkpt lat="43.95077096298337" lon="4.857859974727035">
        <ele>25.129999999999999</ele>
        <time>2025-05-17T09:17:57Z</time>
      </trkpt>
      <trkpt lat="43.95074900239706" lon="4.857919989153743">
        <ele>25.129999999999999</ele>
        <time>2025-05-17T09:17:58Z</time>
      </trkpt>
      <trkpt lat="43.950720001012087" lon="4.857996013015509">
        <ele>25.609999999999999</ele>
        <time>2025-05-17T09:17:59Z</time>
      </trkpt>
      <trkpt lat="43.950720001012087" lon="4.857996013015509">
        <ele>25.609999999999999</ele>
        <time>2025-05-17T09:18:00Z</time>
      </trkpt>
      <trkpt lat="43.950673984363675" lon="4.858052004128695">
        <ele>25.609999999999999</ele>
        <time>2025-05-17T09:18:01Z</time>
      </trkpt>
      <trkpt lat="43.950634002685547" lon="4.858099026605487">
        <ele>25.609999999999999</ele>
        <time>2025-05-17T09:18:02Z</time>
      </trkpt>
      <trkpt lat="43.950569964945316" lon="4.858133979141712">
        <ele>25.609999999999999</ele>
        <time>2025-05-17T09:18:03Z</time>
      </trkpt>
      <trkpt lat="43.950496036559343" lon="4.85814998857677">
        <ele>25.609999999999999</ele>
        <time>2025-05-17T09:18:04Z</time>
      </trkpt>
      <trkpt lat="43.950402997434139" lon="4.858161974698305">
        <ele>25.129999999999999</ele>
        <time>2025-05-17T09:18:05Z</time>
      </trkpt>
      <trkpt lat="43.950310964137316" lon="4.858118975535035">
        <ele>25.129999999999999</ele>
        <time>2025-05-17T09:18:06Z</time>
      </trkpt>
      <trkpt lat="43.950200993567705" lon="4.858078993856907">
        <ele>24.649999999999999</ele>
        <time>2025-05-17T09:18:07Z</time>
      </trkpt>
      <trkpt lat="43.950089011341333" lon="4.858113024383783">
        <ele>24.649999999999999</ele>
        <time>2025-05-17T09:18:08Z</time>
      </trkpt>
      <trkpt lat="43.949980968609452" lon="4.858153006061912">
        <ele>24.649999999999999</ele>
        <time>2025-05-17T09:18:09Z</time>
      </trkpt>
      <trkpt lat="43.949876027181745" lon="4.858212014660239">
        <ele>24.170000000000002</ele>
        <time>2025-05-17T09:18:10Z</time>
      </trkpt>
      <trkpt lat="43.94978198222816" lon="4.85830002464354">
        <ele>24.170000000000002</ele>
        <time>2025-05-17T09:18:11Z</time>
      </trkpt>
      <trkpt lat="43.94969698973" lon="4.858417036011815">
        <ele>24.170000000000002</ele>
        <time>2025-05-17T09:18:12Z</time>
      </trkpt>
      <trkpt lat="43.949634963646531" lon="4.858560031279922">
        <ele>24.170000000000002</ele>
        <time>2025-05-17T09:18:13Z</time>
      </trkpt>
      <trkpt lat="43.949581990018487" lon="4.858724987134337">
        <ele>24.170000000000002</ele>
        <time>2025-05-17T09:18:14Z</time>
      </trkpt>
      <trkpt lat="43.949576960876584" lon="4.858897989615798">
        <ele>24.170000000000002</ele>
        <time>2025-05-17T09:18:15Z</time>
      </trkpt>
      <trkpt lat="43.949571009725332" lon="4.859077027067542">
        <ele>24.649999999999999</ele>
        <time>2025-05-17T09:18:16Z</time>
      </trkpt>
      <trkpt lat="43.949565980583429" lon="4.859243994578719">
        <ele>24.649999999999999</ele>
        <time>2025-05-17T09:18:17Z</time>
      </trkpt>
      <trkpt lat="43.949707970023155" lon="4.860279997810721">
        <ele>25.129999999999999</ele>
        <time>2025-05-17T09:18:24Z</time>
      </trkpt>
      <trkpt lat="43.949780976399779" lon="4.860404971987009">
        <ele>25.129999999999999</ele>
        <time>2025-05-17T09:18:25Z</time>
      </trkpt>
      <trkpt lat="43.949853982776403" lon="4.860521983355284">
        <ele>25.129999999999999</ele>
        <time>2025-05-17T09:18:26Z</time>
      </trkpt>
      <trkpt lat="43.949993960559368" lon="4.860748965293169">
        <ele>25.609999999999999</ele>
        <time>2025-05-17T09:18:28Z</time>
      </trkpt>
      <trkpt lat="43.950054980814457" lon="4.860881986096501">
        <ele>25.609999999999999</ele>
        <time>2025-05-17T09:18:29Z</time>
      </trkpt>
      <trkpt lat="43.950054980814457" lon="4.86102799884975">
        <ele>25.609999999999999</ele>
        <time>2025-05-17T09:18:30Z</time>
      </trkpt>
      <trkpt lat="43.950054980814457" lon="4.861213993281126">
        <ele>25.609999999999999</ele>
        <time>2025-05-17T09:18:31Z</time>
      </trkpt>
      <trkpt lat="43.950024973601103" lon="4.861323963850737">
        <ele>25.609999999999999</ele>
        <time>2025-05-17T09:18:32Z</time>
      </trkpt>
      <trkpt lat="43.949983986094594" lon="4.861481040716171">
        <ele>25.609999999999999</ele>
        <time>2025-05-17T09:18:33Z</time>
      </trkpt>
      <trkpt lat="43.949704030528665" lon="4.863010989502072">
        <ele>25.129999999999999</ele>
        <time>2025-05-17T09:18:41Z</time>
      </trkpt>
      <trkpt lat="43.949625995010138" lon="4.863824034109712">
        <ele>24.649999999999999</ele>
        <time>2025-05-17T09:18:45Z</time>
      </trkpt>
      <trkpt lat="43.949629012495279" lon="4.864032994955778">
        <ele>24.649999999999999</ele>
        <time>2025-05-17T09:18:46Z</time>
      </trkpt>
      <trkpt lat="43.949648039415479" lon="4.864245979115367">
        <ele>24.649999999999999</ele>
        <time>2025-05-17T09:18:47Z</time>
      </trkpt>
      <trkpt lat="43.949840990826488" lon="4.866173984482884">
        <ele>25.609999999999999</ele>
        <time>2025-05-17T09:18:56Z</time>
      </trkpt>
      <trkpt lat="43.949840990826488" lon="4.866371965035796">
        <ele>26.09</ele>
        <time>2025-05-17T09:18:57Z</time>
      </trkpt>
      <trkpt lat="43.949797991663218" lon="4.866568017750979">
        <ele>26.09</ele>
        <time>2025-05-17T09:18:58Z</time>
      </trkpt>
      <trkpt lat="43.949719034135342" lon="4.866747977212071">
        <ele>26.57</ele>
        <time>2025-05-17T09:18:59Z</time>
      </trkpt>
      <trkpt lat="43.949001962319016" lon="4.868478002026677">
        <ele>27.530000000000001</ele>
        <time>2025-05-17T09:19:08Z</time>
      </trkpt>
      <trkpt lat="43.948791995644569" lon="4.869060041382909">
        <ele>28.02</ele>
        <time>2025-05-17T09:19:11Z</time>
      </trkpt>
      <trkpt lat="43.948023039847612" lon="4.87110698595643">
        <ele>29.460000000000001</ele>
        <time>2025-05-17T09:19:21Z</time>
      </trkpt>
      <trkpt lat="43.947080997750163" lon="4.873524997383356">
        <ele>30.899999999999999</ele>
        <time>2025-05-17T09:19:32Z</time>
      </trkpt>
      <trkpt lat="43.945717010647058" lon="4.877060987055302">
        <ele>36.670000000000002</ele>
        <time>2025-05-17T09:19:48Z</time>
      </trkpt>
      <trkpt lat="43.944857027381659" lon="4.879865990951657">
        <ele>32.340000000000003</ele>
        <time>2025-05-17T09:20:00Z</time>
      </trkpt>
      <trkpt lat="43.94453801214695" lon="4.881304996088147">
        <ele>30.899999999999999</ele>
        <time>2025-05-17T09:20:07Z</time>
      </trkpt>
      <trkpt lat="43.944359980523586" lon="4.882128015160561">
        <ele>30.420000000000002</ele>
        <time>2025-05-17T09:20:11Z</time>
      </trkpt>
      <trkpt lat="43.943826975300908" lon="4.884308986365795">
        <ele>30.899999999999999</ele>
        <time>2025-05-17T09:20:21Z</time>
      </trkpt>
      <trkpt lat="43.943151980638504" lon="4.886493980884552">
        <ele>31.379999999999999</ele>
        <time>2025-05-17T09:20:31Z</time>
      </trkpt>
      <trkpt lat="43.942498024553061" lon="4.888423997908831">
        <ele>33.780000000000001</ele>
        <time>2025-05-17T09:20:40Z</time>
      </trkpt>
      <trkpt lat="43.94180903211236" lon="4.890898000448942">
        <ele>33.780000000000001</ele>
        <time>2025-05-17T09:20:52Z</time>
      </trkpt>
      <trkpt lat="43.941425979137421" lon="4.8927600402385">
        <ele>32.82</ele>
        <time>2025-05-17T09:21:02Z</time>
      </trkpt>
      <trkpt lat="43.941049966961145" lon="4.895071014761925">
        <ele>32.340000000000003</ele>
        <time>2025-05-17T09:21:13Z</time>
      </trkpt>
      <trkpt lat="43.940636990591884" lon="4.896715041249991">
        <ele>33.299999999999997</ele>
        <time>2025-05-17T09:21:22Z</time>
      </trkpt>
      <trkpt lat="43.940294003114104" lon="4.897889010608196">
        <ele>33.780000000000001</ele>
        <time>2025-05-17T09:21:30Z</time>
      </trkpt>
      <trkpt lat="43.940255027264357" lon="4.898032005876303">
        <ele>33.780000000000001</ele>
        <time>2025-05-17T09:21:31Z</time>
      </trkpt>
      <trkpt lat="43.940099040046334" lon="4.899430023506284">
        <ele>33.299999999999997</ele>
        <time>2025-05-17T09:21:39Z</time>
      </trkpt>
      <trkpt lat="43.93994296900928" lon="4.900473989546299">
        <ele>34.259999999999998</ele>
        <time>2025-05-17T09:21:46Z</time>
      </trkpt>
      <trkpt lat="43.939766027033329" lon="4.902295041829348">
        <ele>34.740000000000002</ele>
        <time>2025-05-17T09:21:57Z</time>
      </trkpt>
      <trkpt lat="43.939714981243014" lon="4.902862999588251">
        <ele>34.259999999999998</ele>
        <time>2025-05-17T09:22:01Z</time>
      </trkpt>
      <trkpt lat="43.93970400094986" lon="4.902966013178229">
        <ele>34.259999999999998</ele>
        <time>2025-05-17T09:22:02Z</time>
      </trkpt>
      <trkpt lat="43.939691008999944" lon="4.903077995404601">
        <ele>34.259999999999998</ele>
        <time>2025-05-17T09:22:03Z</time>
      </trkpt>
      <trkpt lat="43.939583972096443" lon="4.903178997337818">
        <ele>34.259999999999998</ele>
        <time>2025-05-17T09:22:04Z</time>
      </trkpt>
      <trkpt lat="43.939583972096443" lon="4.903228031471372">
        <ele>34.259999999999998</ele>
        <time>2025-05-17T09:22:05Z</time>
      </trkpt>
      <trkpt lat="43.939610039815307" lon="4.903444033116102">
        <ele>34.259999999999998</ele>
        <time>2025-05-17T09:22:06Z</time>
      </trkpt>
      <trkpt lat="43.939582966268063" lon="4.903564983978868">
        <ele>34.740000000000002</ele>
        <time>2025-05-17T09:22:07Z</time>
      </trkpt>
      <trkpt lat="43.939553964883089" lon="4.903692975640297">
        <ele>34.259999999999998</ele>
        <time>2025-05-17T09:22:08Z</time>
      </trkpt>
      <trkpt lat="43.939351039007306" lon="4.90481598302722">
        <ele>35.229999999999997</ele>
        <time>2025-05-17T09:22:18Z</time>
      </trkpt>
      <trkpt lat="43.939342992380261" lon="4.904888989403844">
        <ele>35.229999999999997</ele>
        <time>2025-05-17T09:22:19Z</time>
      </trkpt>
      <trkpt lat="43.93933704122901" lon="4.904950009658933">
        <ele>35.229999999999997</ele>
        <time>2025-05-17T09:22:20Z</time>
      </trkpt>
      <trkpt lat="43.939330000430346" lon="4.905014969408512">
        <ele>35.710000000000001</ele>
        <time>2025-05-17T09:22:22Z</time>
      </trkpt>
      <trkpt lat="43.939330000430346" lon="4.905016981065273">
        <ele>37.630000000000003</ele>
        <time>2025-05-17T09:22:30Z</time>
      </trkpt>
      <trkpt lat="43.939257999882102" lon="4.905453007668257">
        <ele>39.07</ele>
        <time>2025-05-17T09:22:37Z</time>
      </trkpt>
      <trkpt lat="43.939169989898801" lon="4.906417010352016">
        <ele>40.030000000000001</ele>
        <time>2025-05-17T09:22:45Z</time>
      </trkpt>
      <trkpt lat="43.939156997948885" lon="4.90653402172029">
        <ele>40.509999999999998</ele>
        <time>2025-05-17T09:22:46Z</time>
      </trkpt>
      <trkpt lat="43.939141994342208" lon="4.906652038916946">
        <ele>40.990000000000002</ele>
        <time>2025-05-17T09:22:47Z</time>
      </trkpt>
      <trkpt lat="43.939076028764248" lon="4.907108014449477">
        <ele>42.920000000000002</ele>
        <time>2025-05-17T09:22:51Z</time>
      </trkpt>
      <trkpt lat="43.939035041257739" lon="4.907388975843787">
        <ele>45.32</ele>
        <time>2025-05-17T09:22:54Z</time>
      </trkpt>
      <trkpt lat="43.939004028216004" lon="4.907541023567319">
        <ele>46.280000000000001</ele>
        <time>2025-05-17T09:22:55Z</time>
      </trkpt>
      <trkpt lat="43.938997993245721" lon="4.907575976103544">
        <ele>47.240000000000002</ele>
        <time>2025-05-17T09:22:56Z</time>
      </trkpt>
      <trkpt lat="43.938981983810663" lon="4.90765099413693">
        <ele>48.200000000000003</ele>
        <time>2025-05-17T09:22:57Z</time>
      </trkpt>
      <trkpt lat="43.938967986032367" lon="4.907710002735257">
        <ele>48.68</ele>
        <time>2025-05-17T09:22:58Z</time>
      </trkpt>
      <trkpt lat="43.938954994082451" lon="4.907761970534921">
        <ele>49.159999999999997</ele>
        <time>2025-05-17T09:23:03Z</time>
      </trkpt>
      <trkpt lat="43.938832031562924" lon="4.907830031588674">
        <ele>49.649999999999999</ele>
        <time>2025-05-17T09:23:05Z</time>
      </trkpt>
      <trkpt lat="43.938784003257751" lon="4.907897002995014">
        <ele>50.130000000000003</ele>
        <time>2025-05-17T09:23:06Z</time>
      </trkpt>
      <trkpt lat="43.938747039064765" lon="4.907948970794678">
        <ele>50.609999999999999</ele>
        <time>2025-05-17T09:23:07Z</time>
      </trkpt>
      <trkpt lat="43.938827002421021" lon="4.908134965226054">
        <ele>50.609999999999999</ele>
        <time>2025-05-17T09:23:08Z</time>
      </trkpt>
      <trkpt lat="43.938795989379287" lon="4.908219035714865">
        <ele>50.609999999999999</ele>
        <time>2025-05-17T09:23:09Z</time>
      </trkpt>
      <trkpt lat="43.938764976337552" lon="4.908303022384644">
        <ele>50.609999999999999</ele>
        <time>2025-05-17T09:23:10Z</time>
      </trkpt>
      <trkpt lat="43.938736980780959" lon="4.908387009054422">
        <ele>50.609999999999999</ele>
        <time>2025-05-17T09:23:11Z</time>
      </trkpt>
      <trkpt lat="43.938554003834724" lon="4.908464038744569">
        <ele>50.130000000000003</ele>
        <time>2025-05-17T09:23:12Z</time>
      </trkpt>
      <trkpt lat="43.938535982742906" lon="4.908484993502498">
        <ele>49.649999999999999</ele>
        <time>2025-05-17T09:23:13Z</time>
      </trkpt>
      <trkpt lat="43.938468005508184" lon="4.908566968515515">
        <ele>49.159999999999997</ele>
        <time>2025-05-17T09:23:14Z</time>
      </trkpt>
      <trkpt lat="43.93845995888114" lon="4.90868397988379">
        <ele>49.159999999999997</ele>
        <time>2025-05-17T09:23:15Z</time>
      </trkpt>
      <trkpt lat="43.938475968316197" lon="4.908785987645388">
        <ele>49.159999999999997</ele>
        <time>2025-05-17T09:23:16Z</time>
      </trkpt>
      <trkpt lat="43.938491977751255" lon="4.908875003457069">
        <ele>49.159999999999997</ele>
        <time>2025-05-17T09:23:17Z</time>
      </trkpt>
      <trkpt lat="43.938554003834724" lon="4.908957984298468">
        <ele>48.68</ele>
        <time>2025-05-17T09:23:18Z</time>
      </trkpt>
      <trkpt lat="43.938554003834724" lon="4.908957984298468">
        <ele>48.68</ele>
        <time>2025-05-17T09:23:19Z</time>
      </trkpt>
      <trkpt lat="43.938661040738225" lon="4.90915697067976">
        <ele>48.68</ele>
        <time>2025-05-17T09:23:20Z</time>
      </trkpt>
      <trkpt lat="43.938661040738225" lon="4.909272976219654">
        <ele>48.68</ele>
        <time>2025-05-17T09:23:21Z</time>
      </trkpt>
      <trkpt lat="43.938646959140897" lon="4.909416977316141">
        <ele>48.200000000000003</ele>
        <time>2025-05-17T09:23:22Z</time>
      </trkpt>
      <trkpt lat="43.938618963584304" lon="4.909567013382912">
        <ele>48.200000000000003</ele>
        <time>2025-05-17T09:23:23Z</time>
      </trkpt>
      <trkpt lat="43.938589040189981" lon="4.909723000600934">
        <ele>48.68</ele>
        <time>2025-05-17T09:23:24Z</time>
      </trkpt>
      <trkpt lat="43.938152007758617" lon="4.912049984559417">
        <ele>56.369999999999997</ele>
        <time>2025-05-17T09:23:38Z</time>
      </trkpt>
      <trkpt lat="43.937637023627758" lon="4.914599005132914">
        <ele>59.259999999999998</ele>
        <time>2025-05-17T09:23:51Z</time>
      </trkpt>
      <trkpt lat="43.9369129948318" lon="4.916417039930821">
        <ele>66.469999999999999</ele>
        <time>2025-05-17T09:24:00Z</time>
      </trkpt>
      <trkpt lat="43.936071032658219" lon="4.918401036411524">
        <ele>77.519999999999996</ele>
        <time>2025-05-17T09:24:10Z</time>
      </trkpt>
      <trkpt lat="43.935990985482931" lon="4.91858996450901">
        <ele>78.480000000000004</ele>
        <time>2025-05-17T09:24:11Z</time>
      </trkpt>
      <trkpt lat="43.935912027955055" lon="4.918775036931038">
        <ele>79.930000000000007</ele>
        <time>2025-05-17T09:24:12Z</time>
      </trkpt>
      <trkpt lat="43.935002004727721" lon="4.920927006751299">
        <ele>92.900000000000006</ele>
        <time>2025-05-17T09:24:24Z</time>
      </trkpt>
      <trkpt lat="43.934542005881667" lon="4.921834012493491">
        <ele>95.790000000000006</ele>
        <time>2025-05-17T09:24:29Z</time>
      </trkpt>
      <trkpt lat="43.934408985078335" lon="4.921942977234721">
        <ele>96.75</ele>
        <time>2025-05-17T09:24:30Z</time>
      </trkpt>
      <trkpt lat="43.934256015345454" lon="4.921997962519527">
        <ele>97.709999999999994</ele>
        <time>2025-05-17T09:24:31Z</time>
      </trkpt>
      <trkpt lat="43.934087958186865" lon="4.92200399748981">
        <ele>98.670000000000002</ele>
        <time>2025-05-17T09:24:32Z</time>
      </trkpt>
      <trkpt lat="43.933909004554152" lon="4.92200399748981">
        <ele>99.629999999999995</ele>
        <time>2025-05-17T09:24:33Z</time>
      </trkpt>
      <trkpt lat="43.93336501903832" lon="4.922054037451744">
        <ele>103</ele>
        <time>2025-05-17T09:24:36Z</time>
      </trkpt>
      <trkpt lat="43.932855986058712" lon="4.92223902605474">
        <ele>106.36</ele>
        <time>2025-05-17T09:24:39Z</time>
      </trkpt>
      <trkpt lat="43.932553986087441" lon="4.922382021322846">
        <ele>108.77</ele>
        <time>2025-05-17T09:24:41Z</time>
      </trkpt>
      <trkpt lat="43.932023998349905" lon="4.922701036557555">
        <ele>113.09</ele>
        <time>2025-05-17T09:24:45Z</time>
      </trkpt>
      <trkpt lat="43.931904975324869" lon="4.922803966328502">
        <ele>113.56999999999999</ele>
        <time>2025-05-17T09:24:46Z</time>
      </trkpt>
      <trkpt lat="43.931806990876794" lon="4.92294997908175">
        <ele>114.53</ele>
        <time>2025-05-17T09:24:47Z</time>
      </trkpt>
      <trkpt lat="43.931728033348918" lon="4.923114012926817">
        <ele>115.5</ele>
        <time>2025-05-17T09:24:48Z</time>
      </trkpt>
      <trkpt lat="43.931671036407351" lon="4.923306964337826">
        <ele>116.45999999999999</ele>
        <time>2025-05-17T09:24:49Z</time>
      </trkpt>
      <trkpt lat="43.931639017537236" lon="4.92350704036653">
        <ele>117.42</ele>
        <time>2025-05-17T09:24:50Z</time>
      </trkpt>
      <trkpt lat="43.931627031415701" lon="4.923725975677371">
        <ele>118.38</ele>
        <time>2025-05-17T09:24:51Z</time>
      </trkpt>
      <trkpt lat="43.931642035022378" lon="4.923941977322102">
        <ele>119.34</ele>
        <time>2025-05-17T09:24:52Z</time>
      </trkpt>
      <trkpt lat="43.931672964245081" lon="4.924169965088368">
        <ele>120.3</ele>
        <time>2025-05-17T09:24:53Z</time>
      </trkpt>
      <trkpt lat="43.931709006428719" lon="4.924396025016904">
        <ele>120.78</ele>
        <time>2025-05-17T09:24:54Z</time>
      </trkpt>
      <trkpt lat="43.931750999763608" lon="4.924623006954789">
        <ele>121.26000000000001</ele>
        <time>2025-05-17T09:24:55Z</time>
      </trkpt>
      <trkpt lat="43.932132963091135" lon="4.926626030355692">
        <ele>122.22</ele>
        <time>2025-05-17T09:25:04Z</time>
      </trkpt>
      <trkpt lat="43.932159030809999" lon="4.927089968696237">
        <ele>122.22</ele>
        <time>2025-05-17T09:25:06Z</time>
      </trkpt>
      <trkpt lat="43.932119971141219" lon="4.927318040281534">
        <ele>121.73999999999999</ele>
        <time>2025-05-17T09:25:07Z</time>
      </trkpt>
      <trkpt lat="43.932069009169936" lon="4.927552985027432">
        <ele>121.26000000000001</ele>
        <time>2025-05-17T09:25:08Z</time>
      </trkpt>
      <trkpt lat="43.93201201222837" lon="4.927794970571995">
        <ele>120.78</ele>
        <time>2025-05-17T09:25:09Z</time>
      </trkpt>
      <trkpt lat="43.931939005851746" lon="4.92804198525846">
        <ele>119.81999999999999</ele>
        <time>2025-05-17T09:25:10Z</time>
      </trkpt>
      <trkpt lat="43.93111196346581" lon="4.930803989991546">
        <ele>111.65000000000001</ele>
        <time>2025-05-17T09:25:21Z</time>
      </trkpt>
      <trkpt lat="43.930545011535287" lon="4.932434018701315">
        <ele>108.77</ele>
        <time>2025-05-17T09:25:28Z</time>
      </trkpt>
      <trkpt lat="43.929685028269887" lon="4.934476017951965">
        <ele>110.20999999999999</ele>
        <time>2025-05-17T09:25:38Z</time>
      </trkpt>
      <trkpt lat="43.929438013583422" lon="4.935078006237745">
        <ele>113.56999999999999</ele>
        <time>2025-05-17T09:25:43Z</time>
      </trkpt>
      <trkpt lat="43.929399037733674" lon="4.935171967372298">
        <ele>114.05</ele>
        <time>2025-05-17T09:25:44Z</time>
      </trkpt>
      <trkpt lat="43.9292629994452" lon="4.935222007334232">
        <ele>115.5</ele>
        <time>2025-05-17T09:25:45Z</time>
      </trkpt>
      <trkpt lat="43.929232992231846" lon="4.935243967920542">
        <ele>116.45999999999999</ele>
        <time>2025-05-17T09:25:46Z</time>
      </trkpt>
      <trkpt lat="43.929172977805138" lon="4.935328960418701">
        <ele>116.94</ele>
        <time>2025-05-17T09:25:47Z</time>
      </trkpt>
      <trkpt lat="43.929163003340364" lon="4.935420993715525">
        <ele>118.38</ele>
        <time>2025-05-17T09:25:48Z</time>
      </trkpt>
      <trkpt lat="43.929155040532351" lon="4.935501040890813">
        <ele>119.34</ele>
        <time>2025-05-17T09:25:49Z</time>
      </trkpt>
      <trkpt lat="43.929218994453549" lon="4.935679994523525">
        <ele>119.81999999999999</ele>
        <time>2025-05-17T09:25:50Z</time>
      </trkpt>
      <trkpt lat="43.929183036088943" lon="4.935794994235039">
        <ele>120.3</ele>
        <time>2025-05-17T09:25:51Z</time>
      </trkpt>
      <trkpt lat="43.929142970591784" lon="4.935923991724849">
        <ele>121.26000000000001</ele>
        <time>2025-05-17T09:25:52Z</time>
      </trkpt>
      <trkpt lat="43.929099971428514" lon="4.936062041670084">
        <ele>121.73999999999999</ele>
        <time>2025-05-17T09:25:53Z</time>
      </trkpt>
      <trkpt lat="43.928791014477611" lon="4.937088992446661">
        <ele>124.15000000000001</ele>
        <time>2025-05-17T09:26:02Z</time>
      </trkpt>
      <trkpt lat="43.928780034184456" lon="4.937153030186892">
        <ele>124.15000000000001</ele>
        <time>2025-05-17T09:26:03Z</time>
      </trkpt>
      <trkpt lat="43.928383989259601" lon="4.938512993976474">
        <ele>123.19</ele>
        <time>2025-05-17T09:26:14Z</time>
      </trkpt>
      <trkpt lat="43.92827401868999" lon="4.938786998391151">
        <ele>122.22</ele>
        <time>2025-05-17T09:26:16Z</time>
      </trkpt>
      <trkpt lat="43.928209980949759" lon="4.938927982002497">
        <ele>121.73999999999999</ele>
        <time>2025-05-17T09:26:17Z</time>
      </trkpt>
      <trkpt lat="43.928134962916374" lon="4.939049016684294">
        <ele>121.26000000000001</ele>
        <time>2025-05-17T09:26:18Z</time>
      </trkpt>
      <trkpt lat="43.928063968196511" lon="4.939165022224188">
        <ele>120.3</ele>
        <time>2025-05-17T09:26:19Z</time>
      </trkpt>
      <trkpt lat="43.927970007061958" lon="4.939249008893967">
        <ele>119.81999999999999</ele>
        <time>2025-05-17T09:26:20Z</time>
      </trkpt>
      <trkpt lat="43.927889037877321" lon="4.93932000361383">
        <ele>118.86</ele>
        <time>2025-05-17T09:26:21Z</time>
      </trkpt>
      <trkpt lat="43.927784012630582" lon="4.939337018877268">
        <ele>118.38</ele>
        <time>2025-05-17T09:26:22Z</time>
      </trkpt>
      <trkpt lat="43.927682004868984" lon="4.939353028312326">
        <ele>117.42</ele>
        <time>2025-05-17T09:26:23Z</time>
      </trkpt>
      <trkpt lat="43.927573962137103" lon="4.939369959756732">
        <ele>116.94</ele>
        <time>2025-05-17T09:26:24Z</time>
      </trkpt>
      <trkpt lat="43.92745996825397" lon="4.939382029697299">
        <ele>115.98</ele>
        <time>2025-05-17T09:26:25Z</time>
      </trkpt>
      <trkpt lat="43.927339017391205" lon="4.939365014433861">
        <ele>115.5</ele>
        <time>2025-05-17T09:26:26Z</time>
      </trkpt>
      <trkpt lat="43.927214965224266" lon="4.939347999170423">
        <ele>115.01000000000001</ele>
        <time>2025-05-17T09:26:27Z</time>
      </trkpt>
      <trkpt lat="43.926973985508084" lon="4.939326038584113">
        <ele>113.56999999999999</ele>
        <time>2025-05-17T09:26:29Z</time>
      </trkpt>
      <trkpt lat="43.92685697413981" lon="4.9393439758569">
        <ele>112.61</ele>
        <time>2025-05-17T09:26:30Z</time>
      </trkpt>
      <trkpt lat="43.926743986085057" lon="4.939360991120338">
        <ele>112.13</ele>
        <time>2025-05-17T09:26:31Z</time>
      </trkpt>
      <trkpt lat="43.926656981930137" lon="4.939437014982104">
        <ele>111.17</ele>
        <time>2025-05-17T09:26:32Z</time>
      </trkpt>
      <trkpt lat="43.926575006917119" lon="4.939518989995122">
        <ele>110.69</ele>
        <time>2025-05-17T09:26:33Z</time>
      </trkpt>
      <trkpt lat="43.926496971398592" lon="4.939597025513649">
        <ele>110.20999999999999</ele>
        <time>2025-05-17T09:26:34Z</time>
      </trkpt>
      <trkpt lat="43.926422037184238" lon="4.939671959728003">
        <ele>109.73</ele>
        <time>2025-05-17T09:26:35Z</time>
      </trkpt>
      <trkpt lat="43.926349030807614" lon="4.939743960276246">
        <ele>109.25</ele>
        <time>2025-05-17T09:26:36Z</time>
      </trkpt>
      <trkpt lat="43.926197988912463" lon="4.939896007999778">
        <ele>108.29000000000001</ele>
        <time>2025-05-17T09:26:38Z</time>
      </trkpt>
      <trkpt lat="43.925741007551551" lon="4.940486010164022">
        <ele>104.92</ele>
        <time>2025-05-17T09:26:44Z</time>
      </trkpt>
      <trkpt lat="43.925702031701803" lon="4.940604027360678">
        <ele>104.44</ele>
        <time>2025-05-17T09:26:45Z</time>
      </trkpt>
      <trkpt lat="43.925732038915157" lon="4.940711986273527">
        <ele>103.48</ele>
        <time>2025-05-17T09:26:46Z</time>
      </trkpt>
      <trkpt lat="43.925772020593286" lon="4.940827991813421">
        <ele>103</ele>
        <time>2025-05-17T09:26:47Z</time>
      </trkpt>
      <trkpt lat="43.925863970071077" lon="4.940903009846807">
        <ele>102.52</ele>
        <time>2025-05-17T09:26:48Z</time>
      </trkpt>
      <trkpt lat="43.925966983661056" lon="4.940988002344966">
        <ele>102.04000000000001</ele>
        <time>2025-05-17T09:26:49Z</time>
      </trkpt>
      <trkpt lat="43.926077960059047" lon="4.941070983186364">
        <ele>101.56</ele>
        <time>2025-05-17T09:26:50Z</time>
      </trkpt>
      <trkpt lat="43.926191031932831" lon="4.941152958199382">
        <ele>100.59999999999999</ele>
        <time>2025-05-17T09:26:51Z</time>
      </trkpt>
      <trkpt lat="43.926302008330822" lon="4.94123300537467">
        <ele>100.11</ele>
        <time>2025-05-17T09:26:52Z</time>
      </trkpt>
      <trkpt lat="43.926623035222292" lon="4.941466022282839">
        <ele>97.709999999999994</ele>
        <time>2025-05-17T09:26:56Z</time>
      </trkpt>
      <trkpt lat="43.926712973043323" lon="4.941614968702197">
        <ele>97.230000000000004</ele>
        <time>2025-05-17T09:26:57Z</time>
      </trkpt>
      <trkpt lat="43.926763013005257" lon="4.941725023090839">
        <ele>96.75</ele>
        <time>2025-05-17T09:26:58Z</time>
      </trkpt>
      <trkpt lat="43.926799977198243" lon="4.941873969510198">
        <ele>96.75</ele>
        <time>2025-05-17T09:26:59Z</time>
      </trkpt>
      <trkpt lat="43.926838031038642" lon="4.942024005576968">
        <ele>96.269999999999996</ele>
        <time>2025-05-17T09:27:00Z</time>
      </trkpt>
      <trkpt lat="43.927004998549819" lon="4.943056991323829">
        <ele>90.980000000000004</ele>
        <time>2025-05-17T09:27:09Z</time>
      </trkpt>
      <trkpt lat="43.927113963291049" lon="4.943686975166202">
        <ele>87.140000000000001</ele>
        <time>2025-05-17T09:27:16Z</time>
      </trkpt>
      <trkpt lat="43.927128966897726" lon="4.943776996806264">
        <ele>86.659999999999997</ele>
        <time>2025-05-17T09:27:17Z</time>
      </trkpt>
      <trkpt lat="43.927142964676023" lon="4.943865006789565">
        <ele>85.689999999999998</ele>
        <time>2025-05-17T09:27:18Z</time>
      </trkpt>
      <trkpt lat="43.927242960780859" lon="4.94441301561892">
        <ele>84.25</ele>
        <time>2025-05-17T09:27:24Z</time>
      </trkpt>
      <trkpt lat="43.927257964387536" lon="4.944503959268332">
        <ele>83.769999999999996</ele>
        <time>2025-05-17T09:27:25Z</time>
      </trkpt>
      <trkpt lat="43.927299035713077" lon="4.944765977561474">
        <ele>83.290000000000006</ele>
        <time>2025-05-17T09:27:28Z</time>
      </trkpt>
      <trkpt lat="43.927383022382855" lon="4.945232011377811">
        <ele>80.890000000000001</ele>
        <time>2025-05-17T09:27:33Z</time>
      </trkpt>
      <trkpt lat="43.927432978525758" lon="4.945322033017874">
        <ele>80.409999999999997</ele>
        <time>2025-05-17T09:27:34Z</time>
      </trkpt>
      <trkpt lat="43.927491987124085" lon="4.945395961403847">
        <ele>79.450000000000003</ele>
        <time>2025-05-17T09:27:35Z</time>
      </trkpt>
      <trkpt lat="43.92756599932909" lon="4.945452958345413">
        <ele>78.969999999999999</ele>
        <time>2025-05-17T09:27:36Z</time>
      </trkpt>
      <trkpt lat="43.927653003484011" lon="4.945521019399166">
        <ele>78.480000000000004</ele>
        <time>2025-05-17T09:27:37Z</time>
      </trkpt>
      <trkpt lat="43.927705977112055" lon="4.945548009127379">
        <ele>78</ele>
        <time>2025-05-17T09:27:38Z</time>
      </trkpt>
      <trkpt lat="43.928389018401504" lon="4.94580801576376">
        <ele>77.519999999999996</ele>
        <time>2025-05-17T09:27:47Z</time>
      </trkpt>
      <trkpt lat="43.928543999791145" lon="4.945903988555074">
        <ele>77.040000000000006</ele>
        <time>2025-05-17T09:27:49Z</time>
      </trkpt>
      <trkpt lat="43.928738962858915" lon="4.946137005463243">
        <ele>73.680000000000007</ele>
        <time>2025-05-17T09:27:52Z</time>
      </trkpt>
      <trkpt lat="43.928803000599146" lon="4.946214035153389">
        <ele>72.719999999999999</ele>
        <time>2025-05-17T09:27:53Z</time>
      </trkpt>
      <trkpt lat="43.928842982277274" lon="4.946318976581097">
        <ele>71.269999999999996</ele>
        <time>2025-05-17T09:27:54Z</time>
      </trkpt>
      <trkpt lat="43.928856980055571" lon="4.94643003679812">
        <ele>70.310000000000002</ele>
        <time>2025-05-17T09:27:55Z</time>
      </trkpt>
      <trkpt lat="43.928871983662248" lon="4.946537995710969">
        <ele>69.829999999999998</ele>
        <time>2025-05-17T09:27:56Z</time>
      </trkpt>
      <trkpt lat="43.928845999762416" lon="4.94662600569427">
        <ele>69.349999999999994</ele>
        <time>2025-05-17T09:27:57Z</time>
      </trkpt>
      <trkpt lat="43.928791014477611" lon="4.946722984313965">
        <ele>68.390000000000001</ele>
        <time>2025-05-17T09:27:58Z</time>
      </trkpt>
      <trkpt lat="43.928719013929367" lon="4.94677796959877">
        <ele>67.909999999999997</ele>
        <time>2025-05-17T09:27:59Z</time>
      </trkpt>
      <trkpt lat="43.928643995895982" lon="4.946835972368717">
        <ele>66.950000000000003</ele>
        <time>2025-05-17T09:28:00Z</time>
      </trkpt>
      <trkpt lat="43.927660966292024" lon="4.947514990344644">
        <ele>60.219999999999999</ele>
        <time>2025-05-17T09:28:12Z</time>
      </trkpt>
      <trkpt lat="43.927429039031267" lon="4.947679024189711">
        <ele>59.740000000000002</ele>
        <time>2025-05-17T09:28:15Z</time>
      </trkpt>
      <trkpt lat="43.927293000742793" lon="4.947774996981025">
        <ele>59.740000000000002</ele>
        <time>2025-05-17T09:28:17Z</time>
      </trkpt>
      <trkpt lat="43.927232986316085" lon="4.947817996144295">
        <ele>59.740000000000002</ele>
        <time>2025-05-17T09:28:18Z</time>
      </trkpt>
      <trkpt lat="43.927098959684372" lon="4.947912963107228">
        <ele>59.259999999999998</ele>
        <time>2025-05-17T09:28:24Z</time>
      </trkpt>
      <trkpt lat="43.926972979679704" lon="4.948055036365986">
        <ele>60.219999999999999</ele>
        <time>2025-05-17T09:28:37Z</time>
      </trkpt>
      <trkpt lat="43.92681397497654" lon="4.948274977505207">
        <ele>60.219999999999999</ele>
        <time>2025-05-17T09:28:41Z</time>
      </trkpt>
      <trkpt lat="43.926776004955173" lon="4.948358964174986">
        <ele>60.219999999999999</ele>
        <time>2025-05-17T09:28:42Z</time>
      </trkpt>
      <trkpt lat="43.926738034933805" lon="4.948444962501526">
        <ele>60.219999999999999</ele>
        <time>2025-05-17T09:28:43Z</time>
      </trkpt>
      <trkpt lat="43.926730994135141" lon="4.948555016890168">
        <ele>60.219999999999999</ele>
        <time>2025-05-17T09:28:44Z</time>
      </trkpt>
      <trkpt lat="43.926730994135141" lon="4.948674961924553">
        <ele>60.219999999999999</ele>
        <time>2025-05-17T09:28:45Z</time>
      </trkpt>
      <trkpt lat="43.926730994135141" lon="4.948789961636066">
        <ele>60.219999999999999</ele>
        <time>2025-05-17T09:28:46Z</time>
      </trkpt>
      <trkpt lat="43.926730994135141" lon="4.948899010196328">
        <ele>60.219999999999999</ele>
        <time>2025-05-17T09:28:47Z</time>
      </trkpt>
      <trkpt lat="43.926739962771535" lon="4.949518013745546">
        <ele>59.740000000000002</ele>
        <time>2025-05-17T09:28:53Z</time>
      </trkpt>
      <trkpt lat="43.926752032712102" lon="4.95012897066772">
        <ele>56.859999999999999</ele>
        <time>2025-05-17T09:28:59Z</time>
      </trkpt>
      <trkpt lat="43.926793020218611" lon="4.950371962040663">
        <ele>56.859999999999999</ele>
        <time>2025-05-17T09:29:02Z</time>
      </trkpt>
      <trkpt lat="43.926836019381881" lon="4.950894992798567">
        <ele>55.409999999999997</ele>
        <time>2025-05-17T09:29:08Z</time>
      </trkpt>
      <trkpt lat="43.926833001896739" lon="4.95098602026701">
        <ele>54.93</ele>
        <time>2025-05-17T09:29:09Z</time>
      </trkpt>
      <trkpt lat="43.926838031038642" lon="4.95218999683857">
        <ele>53.490000000000002</ele>
        <time>2025-05-17T09:29:19Z</time>
      </trkpt>
      <trkpt lat="43.926756978034973" lon="4.953579967841506">
        <ele>51.57</ele>
        <time>2025-05-17T09:29:27Z</time>
      </trkpt>
      <trkpt lat="43.926567966118455" lon="4.955016039311886">
        <ele>52.049999999999997</ele>
        <time>2025-05-17T09:29:34Z</time>
      </trkpt>
      <trkpt lat="43.925966983661056" lon="4.95762599632144">
        <ele>54.450000000000003</ele>
        <time>2025-05-17T09:29:44Z</time>
      </trkpt>
      <trkpt lat="43.925905963405967" lon="4.957889020442963">
        <ele>54.450000000000003</ele>
        <time>2025-05-17T09:29:45Z</time>
      </trkpt>
      <trkpt lat="43.92584502696991" lon="4.958150032907724">
        <ele>54.450000000000003</ele>
        <time>2025-05-17T09:29:46Z</time>
      </trkpt>
      <trkpt lat="43.925142036750913" lon="4.961174977943301">
        <ele>53.490000000000002</ele>
        <time>2025-05-17T09:29:58Z</time>
      </trkpt>
      <trkpt lat="43.92442999407649" lon="4.964147033169866">
        <ele>55.409999999999997</ele>
        <time>2025-05-17T09:30:10Z</time>
      </trkpt>
      <trkpt lat="43.923833034932613" lon="4.966683983802795">
        <ele>58.299999999999997</ele>
        <time>2025-05-17T09:30:20Z</time>
      </trkpt>
      <trkpt lat="43.923588031902909" lon="4.968274030834436">
        <ele>61.18</ele>
        <time>2025-05-17T09:30:27Z</time>
      </trkpt>
      <trkpt lat="43.923664977774024" lon="4.969970025122166">
        <ele>63.100000000000001</ele>
        <time>2025-05-17T09:30:35Z</time>
      </trkpt>
      <trkpt lat="43.923920039087534" lon="4.97139897197485">
        <ele>62.140000000000001</ele>
        <time>2025-05-17T09:30:44Z</time>
      </trkpt>
      <trkpt lat="43.923958009108901" lon="4.971641963347793">
        <ele>62.140000000000001</ele>
        <time>2025-05-17T09:30:46Z</time>
      </trkpt>
      <trkpt lat="43.9239770360291" lon="4.97176299802959">
        <ele>61.659999999999997</ele>
        <time>2025-05-17T09:30:47Z</time>
      </trkpt>
      <trkpt lat="43.92391400411725" lon="4.971894007176161">
        <ele>61.659999999999997</ele>
        <time>2025-05-17T09:30:48Z</time>
      </trkpt>
      <trkpt lat="43.923894977197051" lon="4.97208796441555">
        <ele>61.659999999999997</ele>
        <time>2025-05-17T09:30:49Z</time>
      </trkpt>
      <trkpt lat="43.924006037414074" lon="4.97219298966229">
        <ele>61.659999999999997</ele>
        <time>2025-05-17T09:30:50Z</time>
      </trkpt>
      <trkpt lat="43.924029003828764" lon="4.972311006858945">
        <ele>61.18</ele>
        <time>2025-05-17T09:30:51Z</time>
      </trkpt>
      <trkpt lat="43.924056999385357" lon="4.972457019612193">
        <ele>61.18</ele>
        <time>2025-05-17T09:30:52Z</time>
      </trkpt>
      <trkpt lat="43.924408033490181" lon="4.974239012226462">
        <ele>59.259999999999998</ele>
        <time>2025-05-17T09:31:02Z</time>
      </trkpt>
      <trkpt lat="43.924812963232398" lon="4.976402968168259">
        <ele>59.740000000000002</ele>
        <time>2025-05-17T09:31:12Z</time>
      </trkpt>
      <trkpt lat="43.924898961558938" lon="4.97687503695488">
        <ele>60.219999999999999</ele>
        <time>2025-05-17T09:31:14Z</time>
      </trkpt>
      <trkpt lat="43.924941038712859" lon="4.977103024721146">
        <ele>60.700000000000003</ele>
        <time>2025-05-17T09:31:15Z</time>
      </trkpt>
      <trkpt lat="43.92520003952086" lon="4.978632973507047">
        <ele>62.619999999999997</ele>
        <time>2025-05-17T09:31:23Z</time>
      </trkpt>
      <trkpt lat="43.925473038107157" lon="4.980203993618488">
        <ele>65.030000000000001</ele>
        <time>2025-05-17T09:31:33Z</time>
      </trkpt>
      <trkpt lat="43.925771014764905" lon="4.981819018721581">
        <ele>67.430000000000007</ele>
        <time>2025-05-17T09:31:43Z</time>
      </trkpt>
      <trkpt lat="43.926102016121149" lon="4.983604028820992">
        <ele>66.469999999999999</ele>
        <time>2025-05-17T09:31:54Z</time>
      </trkpt>
      <trkpt lat="43.926371997222304" lon="4.985064994543791">
        <ele>66.950000000000003</ele>
        <time>2025-05-17T09:32:03Z</time>
      </trkpt>
      <trkpt lat="43.926408961415291" lon="4.985303962603211">
        <ele>66.950000000000003</ele>
        <time>2025-05-17T09:32:04Z</time>
      </trkpt>
      <trkpt lat="43.926429999992251" lon="4.985399013385177">
        <ele>66.950000000000003</ele>
        <time>2025-05-17T09:32:05Z</time>
      </trkpt>
      <trkpt lat="43.926648013293743" lon="4.986704997718334">
        <ele>66.950000000000003</ele>
        <time>2025-05-17T09:32:14Z</time>
      </trkpt>
      <trkpt lat="43.926710039377213" lon="4.987123003229499">
        <ele>68.390000000000001</ele>
        <time>2025-05-17T09:32:18Z</time>
      </trkpt>
      <trkpt lat="43.926724959164858" lon="4.987217970192432">
        <ele>68.870000000000005</ele>
        <time>2025-05-17T09:32:19Z</time>
      </trkpt>
      <trkpt lat="43.926902990788221" lon="4.988175015896559">
        <ele>72.719999999999999</ele>
        <time>2025-05-17T09:32:28Z</time>
      </trkpt>
      <trkpt lat="43.927076999098063" lon="4.989200960844755">
        <ele>72.719999999999999</ele>
        <time>2025-05-17T09:32:37Z</time>
      </trkpt>
      <trkpt lat="43.927102982997894" lon="4.989316966384649">
        <ele>73.200000000000003</ele>
        <time>2025-05-17T09:32:38Z</time>
      </trkpt>
      <trkpt lat="43.92715604044497" lon="4.989556018263102">
        <ele>72.719999999999999</ele>
        <time>2025-05-17T09:32:40Z</time>
      </trkpt>
      <trkpt lat="43.927182024344802" lon="4.989675963297486">
        <ele>72.719999999999999</ele>
        <time>2025-05-17T09:32:41Z</time>
      </trkpt>
      <trkpt lat="43.927205996587873" lon="4.98979196883738">
        <ele>72.239999999999995</ele>
        <time>2025-05-17T09:32:42Z</time>
      </trkpt>
      <trkpt lat="43.927218988537788" lon="4.989901017397642">
        <ele>72.239999999999995</ele>
        <time>2025-05-17T09:32:43Z</time>
      </trkpt>
      <trkpt lat="43.927233992144465" lon="4.990016017109156">
        <ele>71.760000000000005</ele>
        <time>2025-05-17T09:32:44Z</time>
      </trkpt>
      <trkpt lat="43.927445970475674" lon="4.991228962317109">
        <ele>68.870000000000005</ele>
        <time>2025-05-17T09:32:54Z</time>
      </trkpt>
      <trkpt lat="43.927656020969152" lon="4.992462024092674">
        <ele>66.469999999999999</ele>
        <time>2025-05-17T09:33:05Z</time>
      </trkpt>
      <trkpt lat="43.927677981555462" lon="4.992571994662285">
        <ele>66.469999999999999</ele>
        <time>2025-05-17T09:33:06Z</time>
      </trkpt>
      <trkpt lat="43.927721986547112" lon="4.992794031277299">
        <ele>66.469999999999999</ele>
        <time>2025-05-17T09:33:08Z</time>
      </trkpt>
      <trkpt lat="43.927809996530414" lon="4.993233997374773">
        <ele>66.469999999999999</ele>
        <time>2025-05-17T09:33:12Z</time>
      </trkpt>
      <trkpt lat="43.927926002070308" lon="4.993834979832172">
        <ele>68.390000000000001</ele>
        <time>2025-05-17T09:33:18Z</time>
      </trkpt>
      <trkpt lat="43.928087018430233" lon="4.994835024699569">
        <ele>69.829999999999998</ele>
        <time>2025-05-17T09:33:30Z</time>
      </trkpt>
      <trkpt lat="43.928207969292998" lon="4.995493004098535">
        <ele>73.680000000000007</ele>
        <time>2025-05-17T09:33:40Z</time>
      </trkpt>
      <trkpt lat="43.92825398594141" lon="4.995730966329575">
        <ele>75.120000000000005</ele>
        <time>2025-05-17T09:33:48Z</time>
      </trkpt>
      <trkpt lat="43.928241999819875" lon="4.995817970484495">
        <ele>75.599999999999994</ele>
        <time>2025-05-17T09:33:49Z</time>
      </trkpt>
      <trkpt lat="43.928233031183481" lon="4.995883014053106">
        <ele>75.599999999999994</ele>
        <time>2025-05-17T09:33:50Z</time>
      </trkpt>
      <trkpt lat="43.928201012313366" lon="4.995932970196009">
        <ele>75.599999999999994</ele>
        <time>2025-05-17T09:33:51Z</time>
      </trkpt>
      <trkpt lat="43.928162958472967" lon="4.995996002107859">
        <ele>75.599999999999994</ele>
        <time>2025-05-17T09:33:52Z</time>
      </trkpt>
      <trkpt lat="43.928120965138078" lon="4.996061967685819">
        <ele>75.599999999999994</ele>
        <time>2025-05-17T09:33:53Z</time>
      </trkpt>
      <trkpt lat="43.928078971803188" lon="4.996131034567952">
        <ele>75.599999999999994</ele>
        <time>2025-05-17T09:33:54Z</time>
      </trkpt>
      <trkpt lat="43.927899012342095" lon="4.996456000953913">
        <ele>74.640000000000001</ele>
        <time>2025-05-17T09:33:59Z</time>
      </trkpt>
      <trkpt lat="43.927858024835587" lon="4.996510986238718">
        <ele>74.640000000000001</ele>
        <time>2025-05-17T09:34:00Z</time>
      </trkpt>
      <trkpt lat="43.92767102457583" lon="4.996797982603312">
        <ele>74.159999999999997</ele>
        <time>2025-05-17T09:34:04Z</time>
      </trkpt>
      <trkpt lat="43.927622996270657" lon="4.9968780297786">
        <ele>74.159999999999997</ele>
        <time>2025-05-17T09:34:05Z</time>
      </trkpt>
      <trkpt lat="43.927571028470993" lon="4.99696402810514">
        <ele>73.680000000000007</ele>
        <time>2025-05-17T09:34:06Z</time>
      </trkpt>
      <trkpt lat="43.927525011822581" lon="4.997039968147874">
        <ele>73.680000000000007</ele>
        <time>2025-05-17T09:34:07Z</time>
      </trkpt>
      <trkpt lat="43.927487041801214" lon="4.997103000059724">
        <ele>73.680000000000007</ele>
        <time>2025-05-17T09:34:08Z</time>
      </trkpt>
      <trkpt lat="43.927453011274338" lon="4.99715999700129">
        <ele>73.200000000000003</ele>
        <time>2025-05-17T09:34:09Z</time>
      </trkpt>
      <trkpt lat="43.927421998232603" lon="4.997211964800954">
        <ele>73.680000000000007</ele>
        <time>2025-05-17T09:34:10Z</time>
      </trkpt>
      <trkpt lat="43.927267016842961" lon="4.997212970629334">
        <ele>72.719999999999999</ele>
        <time>2025-05-17T09:34:11Z</time>
      </trkpt>
      <trkpt lat="43.927246984094381" lon="4.99722596257925">
        <ele>71.760000000000005</ele>
        <time>2025-05-17T09:34:12Z</time>
      </trkpt>
      <trkpt lat="43.927202979102731" lon="4.997255969792604">
        <ele>71.760000000000005</ele>
        <time>2025-05-17T09:34:13Z</time>
      </trkpt>
      <trkpt lat="43.927185041829944" lon="4.997345991432667">
        <ele>71.760000000000005</ele>
        <time>2025-05-17T09:34:14Z</time>
      </trkpt>
      <trkpt lat="43.927181018516421" lon="4.997363006696105">
        <ele>71.760000000000005</ele>
        <time>2025-05-17T09:34:15Z</time>
      </trkpt>
      <trkpt lat="43.927217982709408" lon="4.997473983094096">
        <ele>71.269999999999996</ele>
        <time>2025-05-17T09:34:16Z</time>
      </trkpt>
      <trkpt lat="43.927224017679691" lon="4.997492004185915">
        <ele>71.269999999999996</ele>
        <time>2025-05-17T09:34:17Z</time>
      </trkpt>
      <trkpt lat="43.927333988249302" lon="4.997647991403937">
        <ele>71.269999999999996</ele>
        <time>2025-05-17T09:34:18Z</time>
      </trkpt>
      <trkpt lat="43.927358966320753" lon="4.99776097945869">
        <ele>71.269999999999996</ele>
        <time>2025-05-17T09:34:19Z</time>
      </trkpt>
      <trkpt lat="43.92737396992743" lon="4.997834991663694">
        <ele>71.269999999999996</ele>
        <time>2025-05-17T09:34:20Z</time>
      </trkpt>
      <trkpt lat="43.927401965484023" lon="4.998016962781549">
        <ele>71.269999999999996</ele>
        <time>2025-05-17T09:34:21Z</time>
      </trkpt>
      <trkpt lat="43.927423004060984" lon="4.998159036040306">
        <ele>71.269999999999996</ele>
        <time>2025-05-17T09:34:22Z</time>
      </trkpt>
      <trkpt lat="43.927438007667661" lon="4.998303959146142">
        <ele>71.269999999999996</ele>
        <time>2025-05-17T09:34:23Z</time>
      </trkpt>
      <trkpt lat="43.9274359960109" lon="4.998443014919758">
        <ele>70.790000000000006</ele>
        <time>2025-05-17T09:34:24Z</time>
      </trkpt>
      <trkpt lat="43.927433984354138" lon="4.9985789693892">
        <ele>70.310000000000002</ele>
        <time>2025-05-17T09:34:25Z</time>
      </trkpt>
      <trkpt lat="43.927405988797545" lon="5.000013029202819">
        <ele>67.430000000000007</ele>
        <time>2025-05-17T09:34:36Z</time>
      </trkpt>
      <trkpt lat="43.92737396992743" lon="5.000878963619471">
        <ele>66.469999999999999</ele>
        <time>2025-05-17T09:34:44Z</time>
      </trkpt>
      <trkpt lat="43.92737396992743" lon="5.000954987481237">
        <ele>65.989999999999995</ele>
        <time>2025-05-17T09:34:45Z</time>
      </trkpt>
      <trkpt lat="43.927383022382855" lon="5.001990990713239">
        <ele>65.030000000000001</ele>
        <time>2025-05-17T09:34:54Z</time>
      </trkpt>
      <trkpt lat="43.92732803709805" lon="5.00250899232924">
        <ele>64.549999999999997</ele>
        <time>2025-05-17T09:34:58Z</time>
      </trkpt>
      <trkpt lat="43.927310016006231" lon="5.002642013132572">
        <ele>64.549999999999997</ele>
        <time>2025-05-17T09:34:59Z</time>
      </trkpt>
      <trkpt lat="43.927277997136116" lon="5.002753995358944">
        <ele>64.549999999999997</ele>
        <time>2025-05-17T09:35:00Z</time>
      </trkpt>
      <trkpt lat="43.927247989922762" lon="5.002858014777303">
        <ele>64.549999999999997</ele>
        <time>2025-05-17T09:35:01Z</time>
      </trkpt>
      <trkpt lat="43.927116980776191" lon="5.002963962033391">
        <ele>64.549999999999997</ele>
        <time>2025-05-17T09:35:02Z</time>
      </trkpt>
      <trkpt lat="43.927103988826275" lon="5.002996986731887">
        <ele>64.549999999999997</ele>
        <time>2025-05-17T09:35:03Z</time>
      </trkpt>
      <trkpt lat="43.927073981612921" lon="5.003070998936892">
        <ele>64.549999999999997</ele>
        <time>2025-05-17T09:35:04Z</time>
      </trkpt>
      <trkpt lat="43.927100971341133" lon="5.003256993368268">
        <ele>65.030000000000001</ele>
        <time>2025-05-17T09:35:05Z</time>
      </trkpt>
      <trkpt lat="43.927055960521102" lon="5.003364030271769">
        <ele>65.510000000000005</ele>
        <time>2025-05-17T09:35:06Z</time>
      </trkpt>
      <trkpt lat="43.927008016034961" lon="5.00347601249814">
        <ele>65.510000000000005</ele>
        <time>2025-05-17T09:35:07Z</time>
      </trkpt>
      <trkpt lat="43.926960993558168" lon="5.00358497723937">
        <ele>65.989999999999995</ele>
        <time>2025-05-17T09:35:08Z</time>
      </trkpt>
      <trkpt lat="43.926769969984889" lon="5.004029972478747">
        <ele>68.390000000000001</ele>
        <time>2025-05-17T09:35:13Z</time>
      </trkpt>
      <trkpt lat="43.926613982766867" lon="5.004371032118797">
        <ele>69.349999999999994</ele>
        <time>2025-05-17T09:35:17Z</time>
      </trkpt>
      <trkpt lat="43.926562014967203" lon="5.00446499325335">
        <ele>69.829999999999998</ele>
        <time>2025-05-17T09:35:18Z</time>
      </trkpt>
      <trkpt lat="43.926123976707458" lon="5.005206037312746">
        <ele>71.760000000000005</ele>
        <time>2025-05-17T09:35:26Z</time>
      </trkpt>
      <trkpt lat="43.92584603279829" lon="5.005615996196866">
        <ele>70.790000000000006</ele>
        <time>2025-05-17T09:35:30Z</time>
      </trkpt>
      <trkpt lat="43.925767997279763" lon="5.005721021443605">
        <ele>70.790000000000006</ele>
        <time>2025-05-17T09:35:31Z</time>
      </trkpt>
      <trkpt lat="43.925302969291806" lon="5.006322003901005">
        <ele>69.829999999999998</ele>
        <time>2025-05-17T09:35:37Z</time>
      </trkpt>
      <trkpt lat="43.925226023420691" lon="5.006427029147744">
        <ele>70.310000000000002</ele>
        <time>2025-05-17T09:35:38Z</time>
      </trkpt>
      <trkpt lat="43.924448015168309" lon="5.007654977962375">
        <ele>70.310000000000002</ele>
        <time>2025-05-17T09:35:50Z</time>
      </trkpt>
      <trkpt lat="43.924220027402043" lon="5.008070971816778">
        <ele>70.310000000000002</ele>
        <time>2025-05-17T09:35:55Z</time>
      </trkpt>
      <trkpt lat="43.924179039895535" lon="5.008140038698912">
        <ele>70.310000000000002</ele>
        <time>2025-05-17T09:35:56Z</time>
      </trkpt>
      <trkpt lat="43.923602029681206" lon="5.009049978107214">
        <ele>68.870000000000005</ele>
        <time>2025-05-17T09:36:05Z</time>
      </trkpt>
      <trkpt lat="43.923490969464183" lon="5.009272014722228">
        <ele>67.909999999999997</ele>
        <time>2025-05-17T09:36:07Z</time>
      </trkpt>
      <trkpt lat="43.922997023910284" lon="5.010826019570231">
        <ele>64.549999999999997</ele>
        <time>2025-05-17T09:36:19Z</time>
      </trkpt>
      <trkpt lat="43.922958970069885" lon="5.0109329726547">
        <ele>64.069999999999993</ele>
        <time>2025-05-17T09:36:20Z</time>
      </trkpt>
      <trkpt lat="43.922453038394451" lon="5.01215698197484">
        <ele>61.659999999999997</ele>
        <time>2025-05-17T09:36:31Z</time>
      </trkpt>
      <trkpt lat="43.922090018168092" lon="5.013407981023192">
        <ele>64.549999999999997</ele>
        <time>2025-05-17T09:36:39Z</time>
      </trkpt>
      <trkpt lat="43.921989016234875" lon="5.015046978369355">
        <ele>68.870000000000005</ele>
        <time>2025-05-17T09:36:48Z</time>
      </trkpt>
      <trkpt lat="43.922057999297976" lon="5.016122963279486">
        <ele>71.760000000000005</ele>
        <time>2025-05-17T09:36:56Z</time>
      </trkpt>
      <trkpt lat="43.92206696793437" lon="5.016221031546593">
        <ele>72.239999999999995</ele>
        <time>2025-05-17T09:36:57Z</time>
      </trkpt>
      <trkpt lat="43.92200100235641" lon="5.01641197130084">
        <ele>72.719999999999999</ele>
        <time>2025-05-17T09:36:59Z</time>
      </trkpt>
      <trkpt lat="43.922095969319344" lon="5.016588997095823">
        <ele>72.719999999999999</ele>
        <time>2025-05-17T09:37:00Z</time>
      </trkpt>
      <trkpt lat="43.922096975147724" lon="5.016600983217359">
        <ele>73.200000000000003</ele>
        <time>2025-05-17T09:37:01Z</time>
      </trkpt>
      <trkpt lat="43.922108961269259" lon="5.01671296544373">
        <ele>73.680000000000007</ele>
        <time>2025-05-17T09:37:02Z</time>
      </trkpt>
      <trkpt lat="43.922122037038207" lon="5.016841040924192">
        <ele>73.680000000000007</ele>
        <time>2025-05-17T09:37:03Z</time>
      </trkpt>
      <trkpt lat="43.922136034816504" lon="5.016981018707156">
        <ele>73.680000000000007</ele>
        <time>2025-05-17T09:37:04Z</time>
      </trkpt>
      <trkpt lat="43.922184985131025" lon="5.018482971936464">
        <ele>74.640000000000001</ele>
        <time>2025-05-17T09:37:14Z</time>
      </trkpt>
      <trkpt lat="43.922052970156074" lon="5.018670978024602">
        <ele>74.640000000000001</ele>
        <time>2025-05-17T09:37:15Z</time>
      </trkpt>
      <trkpt lat="43.922052970156074" lon="5.018670978024602">
        <ele>74.159999999999997</ele>
        <time>2025-05-17T09:37:16Z</time>
      </trkpt>
      <trkpt lat="43.922009970992804" lon="5.018770974129438">
        <ele>74.640000000000001</ele>
        <time>2025-05-17T09:37:17Z</time>
      </trkpt>
      <trkpt lat="43.921998990699649" lon="5.018912963569164">
        <ele>74.159999999999997</ele>
        <time>2025-05-17T09:37:18Z</time>
      </trkpt>
      <trkpt lat="43.922009970992804" lon="5.019013965502381">
        <ele>74.159999999999997</ele>
        <time>2025-05-17T09:37:19Z</time>
      </trkpt>
      <trkpt lat="43.922009970992804" lon="5.019189985468984">
        <ele>74.159999999999997</ele>
        <time>2025-05-17T09:37:20Z</time>
      </trkpt>
      <trkpt lat="43.922007037326694" lon="5.01933197490871">
        <ele>73.680000000000007</ele>
        <time>2025-05-17T09:37:21Z</time>
      </trkpt>
      <trkpt lat="43.921979963779449" lon="5.019485028460622">
        <ele>73.200000000000003</ele>
        <time>2025-05-17T09:37:22Z</time>
      </trkpt>
      <trkpt lat="43.921476965770125" lon="5.021012965589762">
        <ele>71.269999999999996</ele>
        <time>2025-05-17T09:37:31Z</time>
      </trkpt>
      <trkpt lat="43.920989977195859" lon="5.022971983999014">
        <ele>72.239999999999995</ele>
        <time>2025-05-17T09:37:40Z</time>
      </trkpt>
      <trkpt lat="43.920474993065" lon="5.025597028434277">
        <ele>72.239999999999995</ele>
        <time>2025-05-17T09:37:51Z</time>
      </trkpt>
      <trkpt lat="43.920133011415601" lon="5.02691600471735">
        <ele>73.680000000000007</ele>
        <time>2025-05-17T09:37:59Z</time>
      </trkpt>
      <trkpt lat="43.920081965625286" lon="5.027023963630199">
        <ele>74.159999999999997</ele>
        <time>2025-05-17T09:38:00Z</time>
      </trkpt>
      <trkpt lat="43.920013988390565" lon="5.027167964726687">
        <ele>74.640000000000001</ele>
        <time>2025-05-17T09:38:01Z</time>
      </trkpt>
      <trkpt lat="43.919955985620618" lon="5.027214987203479">
        <ele>75.120000000000005</ele>
        <time>2025-05-17T09:38:02Z</time>
      </trkpt>
      <trkpt lat="43.919884990900755" lon="5.027312971651554">
        <ele>75.120000000000005</ele>
        <time>2025-05-17T09:38:03Z</time>
      </trkpt>
      <trkpt lat="43.919842997565866" lon="5.027425037696958">
        <ele>75.599999999999994</ele>
        <time>2025-05-17T09:38:04Z</time>
      </trkpt>
      <trkpt lat="43.919855989515781" lon="5.027572978287935">
        <ele>75.599999999999994</ele>
        <time>2025-05-17T09:38:05Z</time>
      </trkpt>
      <trkpt lat="43.919869987294078" lon="5.027717985212803">
        <ele>75.599999999999994</ele>
        <time>2025-05-17T09:38:06Z</time>
      </trkpt>
      <trkpt lat="43.919888008385897" lon="5.027871960774064">
        <ele>75.120000000000005</ele>
        <time>2025-05-17T09:38:07Z</time>
      </trkpt>
      <trkpt lat="43.919907035306096" lon="5.028047980740666">
        <ele>74.640000000000001</ele>
        <time>2025-05-17T09:38:08Z</time>
      </trkpt>
      <trkpt lat="43.919890020042658" lon="5.028202040120959">
        <ele>74.159999999999997</ele>
        <time>2025-05-17T09:38:09Z</time>
      </trkpt>
      <trkpt lat="43.919854983687401" lon="5.028373030945659">
        <ele>74.159999999999997</ele>
        <time>2025-05-17T09:38:10Z</time>
      </trkpt>
      <trkpt lat="43.919812990352511" lon="5.028546033427119">
        <ele>74.159999999999997</ele>
        <time>2025-05-17T09:38:11Z</time>
      </trkpt>
      <trkpt lat="43.919764962047338" lon="5.028704032301903">
        <ele>73.680000000000007</ele>
        <time>2025-05-17T09:38:12Z</time>
      </trkpt>
      <trkpt lat="43.919634958729148" lon="5.029176017269492">
        <ele>72.719999999999999</ele>
        <time>2025-05-17T09:38:16Z</time>
      </trkpt>
      <trkpt lat="43.919601012021303" lon="5.029269978404045">
        <ele>73.200000000000003</ele>
        <time>2025-05-17T09:38:17Z</time>
      </trkpt>
      <trkpt lat="43.919571004807949" lon="5.029376009479165">
        <ele>73.200000000000003</ele>
        <time>2025-05-17T09:38:18Z</time>
      </trkpt>
      <trkpt lat="43.919227011501789" lon="5.030680987983942">
        <ele>72.719999999999999</ele>
        <time>2025-05-17T09:38:30Z</time>
      </trkpt>
      <trkpt lat="43.91893096268177" lon="5.03215704113245">
        <ele>73.200000000000003</ele>
        <time>2025-05-17T09:38:42Z</time>
      </trkpt>
      <trkpt lat="43.918916964903474" lon="5.032291989773512">
        <ele>73.680000000000007</ele>
        <time>2025-05-17T09:38:43Z</time>
      </trkpt>
      <trkpt lat="43.919030958786607" lon="5.033897962421179">
        <ele>73.680000000000007</ele>
        <time>2025-05-17T09:38:54Z</time>
      </trkpt>
      <trkpt lat="43.919206978753209" lon="5.034870011731982">
        <ele>71.760000000000005</ele>
        <time>2025-05-17T09:39:03Z</time>
      </trkpt>
      <trkpt lat="43.919244026765227" lon="5.035107973963022">
        <ele>71.760000000000005</ele>
        <time>2025-05-17T09:39:05Z</time>
      </trkpt>
      <trkpt lat="43.91940101981163" lon="5.036128973588347">
        <ele>72.239999999999995</ele>
        <time>2025-05-17T09:39:13Z</time>
      </trkpt>
      <trkpt lat="43.919413005933166" lon="5.036243973299861">
        <ele>73.200000000000003</ele>
        <time>2025-05-17T09:39:14Z</time>
      </trkpt>
      <trkpt lat="43.919457010924816" lon="5.037361029535532">
        <ele>75.599999999999994</ele>
        <time>2025-05-17T09:39:23Z</time>
      </trkpt>
      <trkpt lat="43.919477965682745" lon="5.039169006049633">
        <ele>72.719999999999999</ele>
        <time>2025-05-17T09:39:34Z</time>
      </trkpt>
      <trkpt lat="43.919499004259706" lon="5.040820995345712">
        <ele>70.790000000000006</ele>
        <time>2025-05-17T09:39:44Z</time>
      </trkpt>
      <trkpt lat="43.919478971511126" lon="5.040983017534018">
        <ele>70.310000000000002</ele>
        <time>2025-05-17T09:39:45Z</time>
      </trkpt>
      <trkpt lat="43.919452987611294" lon="5.041135987266898">
        <ele>70.310000000000002</ele>
        <time>2025-05-17T09:39:46Z</time>
      </trkpt>
      <trkpt lat="43.919326001778245" lon="5.041796984151006">
        <ele>70.790000000000006</ele>
        <time>2025-05-17T09:39:52Z</time>
      </trkpt>
      <trkpt lat="43.919260036200285" lon="5.042168973013759">
        <ele>71.760000000000005</ele>
        <time>2025-05-17T09:39:55Z</time>
      </trkpt>
      <trkpt lat="43.919236985966563" lon="5.042298976331949">
        <ele>72.239999999999995</ele>
        <time>2025-05-17T09:39:56Z</time>
      </trkpt>
      <trkpt lat="43.919212007895112" lon="5.042438032105565">
        <ele>72.239999999999995</ele>
        <time>2025-05-17T09:39:57Z</time>
      </trkpt>
      <trkpt lat="43.919187029823661" lon="5.042575998231769">
        <ele>72.719999999999999</ele>
        <time>2025-05-17T09:39:58Z</time>
      </trkpt>
      <trkpt lat="43.919161967933178" lon="5.042717987671495">
        <ele>73.200000000000003</ele>
        <time>2025-05-17T09:39:59Z</time>
      </trkpt>
      <trkpt lat="43.919068006798625" lon="5.043235989287496">
        <ele>73.680000000000007</ele>
        <time>2025-05-17T09:40:03Z</time>
      </trkpt>
      <trkpt lat="43.919045040383935" lon="5.043354006484151">
        <ele>74.159999999999997</ele>
        <time>2025-05-17T09:40:04Z</time>
      </trkpt>
      <trkpt lat="43.919022995978594" lon="5.043469006195664">
        <ele>74.640000000000001</ele>
        <time>2025-05-17T09:40:05Z</time>
      </trkpt>
      <trkpt lat="43.919001035392284" lon="5.043580988422036">
        <ele>74.640000000000001</ele>
        <time>2025-05-17T09:40:06Z</time>
      </trkpt>
      <trkpt lat="43.918979996815324" lon="5.043690958991647">
        <ele>75.120000000000005</ele>
        <time>2025-05-17T09:40:07Z</time>
      </trkpt>
      <trkpt lat="43.918958958238363" lon="5.043810987845063">
        <ele>76.079999999999998</ele>
        <time>2025-05-17T09:40:08Z</time>
      </trkpt>
      <trkpt lat="43.918936997652054" lon="5.043933028355241">
        <ele>76.079999999999998</ele>
        <time>2025-05-17T09:40:09Z</time>
      </trkpt>
      <trkpt lat="43.918797019869089" lon="5.044697960838676">
        <ele>78.480000000000004</ele>
        <time>2025-05-17T09:40:16Z</time>
      </trkpt>
      <trkpt lat="43.918780004605651" lon="5.04481203854084">
        <ele>78.480000000000004</ele>
        <time>2025-05-17T09:40:17Z</time>
      </trkpt>
      <trkpt lat="43.918533995747566" lon="5.046152975410223">
        <ele>79.930000000000007</ele>
        <time>2025-05-17T09:40:28Z</time>
      </trkpt>
      <trkpt lat="43.918436011299491" lon="5.046665025874972">
        <ele>79.450000000000003</ele>
        <time>2025-05-17T09:40:32Z</time>
      </trkpt>
      <trkpt lat="43.918331991881132" lon="5.047251004725695">
        <ele>79.930000000000007</ele>
        <time>2025-05-17T09:40:37Z</time>
      </trkpt>
      <trkpt lat="43.918318999931216" lon="5.047341026365757">
        <ele>79.930000000000007</ele>
        <time>2025-05-17T09:40:38Z</time>
      </trkpt>
      <trkpt lat="43.918303996324539" lon="5.047423001378775">
        <ele>79.930000000000007</ele>
        <time>2025-05-17T09:40:39Z</time>
      </trkpt>
      <trkpt lat="43.918287986889482" lon="5.047510005533695">
        <ele>79.930000000000007</ele>
        <time>2025-05-17T09:40:40Z</time>
      </trkpt>
      <trkpt lat="43.918276000767946" lon="5.047573959454894">
        <ele>79.930000000000007</ele>
        <time>2025-05-17T09:40:41Z</time>
      </trkpt>
      <trkpt lat="43.918191008269787" lon="5.047685019671917">
        <ele>79.930000000000007</ele>
        <time>2025-05-17T09:40:42Z</time>
      </trkpt>
      <trkpt lat="43.918191008269787" lon="5.047783004119992">
        <ele>79.930000000000007</ele>
        <time>2025-05-17T09:40:43Z</time>
      </trkpt>
      <trkpt lat="43.918191008269787" lon="5.047892974689603">
        <ele>79.450000000000003</ele>
        <time>2025-05-17T09:40:44Z</time>
      </trkpt>
      <trkpt lat="43.918173993006349" lon="5.047992970794439">
        <ele>78.969999999999999</ele>
        <time>2025-05-17T09:40:45Z</time>
      </trkpt>
      <trkpt lat="43.918223027139902" lon="5.048134038224816">
        <ele>78.969999999999999</ele>
        <time>2025-05-17T09:40:46Z</time>
      </trkpt>
      <trkpt lat="43.918211041018367" lon="5.04825197160244">
        <ele>78.480000000000004</ele>
        <time>2025-05-17T09:40:47Z</time>
      </trkpt>
      <trkpt lat="43.91819997690618" lon="5.04835800267756">
        <ele>78.480000000000004</ele>
        <time>2025-05-17T09:40:48Z</time>
      </trkpt>
      <trkpt lat="43.918119007721543" lon="5.048795035108924">
        <ele>78</ele>
        <time>2025-05-17T09:40:54Z</time>
      </trkpt>
      <trkpt lat="43.918111966922879" lon="5.048833005130291">
        <ele>78</ele>
        <time>2025-05-17T09:40:55Z</time>
      </trkpt>
      <trkpt lat="43.918105009943247" lon="5.048862006515265">
        <ele>78</ele>
        <time>2025-05-17T09:40:56Z</time>
      </trkpt>
      <trkpt lat="43.918100986629725" lon="5.048883967101574">
        <ele>78</ele>
        <time>2025-05-17T09:40:57Z</time>
      </trkpt>
      <trkpt lat="43.918096041306853" lon="5.048908023163676">
        <ele>78</ele>
        <time>2025-05-17T09:40:58Z</time>
      </trkpt>
      <trkpt lat="43.91809000633657" lon="5.04893702454865">
        <ele>77.519999999999996</ele>
        <time>2025-05-17T09:40:59Z</time>
      </trkpt>
      <trkpt lat="43.918067961931229" lon="5.04902302287519">
        <ele>77.040000000000006</ele>
        <time>2025-05-17T09:41:02Z</time>
      </trkpt>
      <trkpt lat="43.918062010779977" lon="5.049043977633119">
        <ele>77.040000000000006</ele>
        <time>2025-05-17T09:41:03Z</time>
      </trkpt>
      <trkpt lat="43.918062010779977" lon="5.049043977633119">
        <ele>76.560000000000002</ele>
        <time>2025-05-17T09:41:18Z</time>
      </trkpt>
      <trkpt lat="43.917976012453437" lon="5.049118995666504">
        <ele>76.560000000000002</ele>
        <time>2025-05-17T09:41:22Z</time>
      </trkpt>
      <trkpt lat="43.917960003018379" lon="5.049135005101562">
        <ele>76.560000000000002</ele>
        <time>2025-05-17T09:41:23Z</time>
      </trkpt>
      <trkpt lat="43.917976012453437" lon="5.049118995666504">
        <ele>77.040000000000006</ele>
        <time>2025-05-17T09:41:24Z</time>
      </trkpt>
      <trkpt lat="43.917948016896844" lon="5.049207005649805">
        <ele>77.040000000000006</ele>
        <time>2025-05-17T09:41:25Z</time>
      </trkpt>
      <trkpt lat="43.917955979704857" lon="5.049229972064495">
        <ele>77.040000000000006</ele>
        <time>2025-05-17T09:41:26Z</time>
      </trkpt>
      <trkpt lat="43.917889008298516" lon="5.049832966178656">
        <ele>78.969999999999999</ele>
        <time>2025-05-17T09:41:36Z</time>
      </trkpt>
      <trkpt lat="43.917870987206697" lon="5.049918964505196">
        <ele>79.450000000000003</ele>
        <time>2025-05-17T09:41:37Z</time>
      </trkpt>
      <trkpt lat="43.91785598360002" lon="5.049993982538581">
        <ele>79.450000000000003</ele>
        <time>2025-05-17T09:41:38Z</time>
      </trkpt>
      <trkpt lat="43.917841985821724" lon="5.050061037763953">
        <ele>79.450000000000003</ele>
        <time>2025-05-17T09:41:39Z</time>
      </trkpt>
      <trkpt lat="43.917753975838423" lon="5.050493963062763">
        <ele>80.409999999999997</ele>
        <time>2025-05-17T09:41:45Z</time>
      </trkpt>
      <trkpt lat="43.917744001373649" lon="5.050545008853078">
        <ele>80.409999999999997</ele>
        <time>2025-05-17T09:41:46Z</time>
      </trkpt>
      <trkpt lat="43.917705025523901" lon="5.050737960264087">
        <ele>80.890000000000001</ele>
        <time>2025-05-17T09:41:50Z</time>
      </trkpt>
      <trkpt lat="43.917690021917224" lon="5.050811972469091">
        <ele>81.370000000000005</ele>
        <time>2025-05-17T09:41:51Z</time>
      </trkpt>
      <trkpt lat="43.917650040239096" lon="5.051005007699132">
        <ele>80.890000000000001</ele>
        <time>2025-05-17T09:41:54Z</time>
      </trkpt>
      <trkpt lat="43.917638976126909" lon="5.05106502212584">
        <ele>80.890000000000001</ele>
        <time>2025-05-17T09:41:55Z</time>
      </trkpt>
      <trkpt lat="43.917626990005374" lon="5.051126964390278">
        <ele>81.370000000000005</ele>
        <time>2025-05-17T09:41:56Z</time>
      </trkpt>
      <trkpt lat="43.917615003883839" lon="5.051192007958889">
        <ele>81.370000000000005</ele>
        <time>2025-05-17T09:41:57Z</time>
      </trkpt>
      <trkpt lat="43.917602011933923" lon="5.051257973536849">
        <ele>81.370000000000005</ele>
        <time>2025-05-17T09:41:58Z</time>
      </trkpt>
      <trkpt lat="43.917588014155626" lon="5.051329974085093">
        <ele>81.370000000000005</ele>
        <time>2025-05-17T09:41:59Z</time>
      </trkpt>
      <trkpt lat="43.917555995285511" lon="5.051499037072063">
        <ele>81.370000000000005</ele>
        <time>2025-05-17T09:42:01Z</time>
      </trkpt>
      <trkpt lat="43.917478965595365" lon="5.05190103314817">
        <ele>81.849999999999994</ele>
        <time>2025-05-17T09:42:06Z</time>
      </trkpt>
      <trkpt lat="43.917491035535932" lon="5.052075041458011">
        <ele>81.370000000000005</ele>
        <time>2025-05-17T09:42:08Z</time>
      </trkpt>
      <trkpt lat="43.917546020820737" lon="5.052220970392227">
        <ele>80.890000000000001</ele>
        <time>2025-05-17T09:42:10Z</time>
      </trkpt>
      <trkpt lat="43.917569993063807" lon="5.052285008132458">
        <ele>80.890000000000001</ele>
        <time>2025-05-17T09:42:11Z</time>
      </trkpt>
      <trkpt lat="43.917707037180662" lon="5.052477037534118">
        <ele>78</ele>
        <time>2025-05-17T09:42:19Z</time>
      </trkpt>
      <trkpt lat="43.917836034670472" lon="5.052631013095379">
        <ele>73.680000000000007</ele>
        <time>2025-05-17T09:42:31Z</time>
      </trkpt>
      <trkpt lat="43.917894959449768" lon="5.052699996158481">
        <ele>72.239999999999995</ele>
        <time>2025-05-17T09:42:40Z</time>
      </trkpt>
      <trkpt lat="43.917985986918211" lon="5.052851038053632">
        <ele>71.269999999999996</ele>
        <time>2025-05-17T09:42:50Z</time>
      </trkpt>
      <trkpt lat="43.918024962767959" lon="5.052929995581508">
        <ele>71.269999999999996</ele>
        <time>2025-05-17T09:42:52Z</time>
      </trkpt>
      <trkpt lat="43.918062010779977" lon="5.053003001958132">
        <ele>71.269999999999996</ele>
        <time>2025-05-17T09:42:53Z</time>
      </trkpt>
      <trkpt lat="43.918076008558273" lon="5.053066033869982">
        <ele>71.269999999999996</ele>
        <time>2025-05-17T09:42:54Z</time>
      </trkpt>
      <trkpt lat="43.918104004114866" lon="5.053185978904367">
        <ele>71.269999999999996</ele>
        <time>2025-05-17T09:43:01Z</time>
      </trkpt>
      <trkpt lat="43.918169969692826" lon="5.053413966670632">
        <ele>71.760000000000005</ele>
        <time>2025-05-17T09:43:14Z</time>
      </trkpt>
      <trkpt lat="43.918372979387641" lon="5.053883017972112">
        <ele>69.829999999999998</ele>
        <time>2025-05-17T09:43:26Z</time>
      </trkpt>
      <trkpt lat="43.918642960488796" lon="5.054444018751383">
        <ele>68.390000000000001</ele>
        <time>2025-05-17T09:43:34Z</time>
      </trkpt>
      <trkpt lat="43.918686965480447" lon="5.054525993764401">
        <ele>67.909999999999997</ele>
        <time>2025-05-17T09:43:35Z</time>
      </trkpt>
      <trkpt lat="43.918728958815336" lon="5.054605035111308">
        <ele>67.909999999999997</ele>
        <time>2025-05-17T09:43:36Z</time>
      </trkpt>
      <trkpt lat="43.918768018484116" lon="5.054677035659552">
        <ele>67.909999999999997</ele>
        <time>2025-05-17T09:43:37Z</time>
      </trkpt>
      <trkpt lat="43.91880196519196" lon="5.05473998375237">
        <ele>67.909999999999997</ele>
        <time>2025-05-17T09:43:38Z</time>
      </trkpt>
      <trkpt lat="43.918831972405314" lon="5.054796980693936">
        <ele>67.430000000000007</ele>
        <time>2025-05-17T09:43:39Z</time>
      </trkpt>
      <trkpt lat="43.918916964903474" lon="5.05495497956872">
        <ele>67.430000000000007</ele>
        <time>2025-05-17T09:43:42Z</time>
      </trkpt>
      <trkpt lat="43.918943032622337" lon="5.055003007873893">
        <ele>67.430000000000007</ele>
        <time>2025-05-17T09:43:43Z</time>
      </trkpt>
      <trkpt lat="43.918965999037027" lon="5.055049024522305">
        <ele>67.430000000000007</ele>
        <time>2025-05-17T09:43:44Z</time>
      </trkpt>
      <trkpt lat="43.918989971280098" lon="5.055100992321968">
        <ele>67.430000000000007</ele>
        <time>2025-05-17T09:43:45Z</time>
      </trkpt>
      <trkpt lat="43.91901696100831" lon="5.055158995091915">
        <ele>67.430000000000007</ele>
        <time>2025-05-17T09:43:46Z</time>
      </trkpt>
      <trkpt lat="43.919044034555554" lon="5.055215992033482">
        <ele>67.430000000000007</ele>
        <time>2025-05-17T09:43:47Z</time>
      </trkpt>
      <trkpt lat="43.919069012627006" lon="5.055271983146668">
        <ele>66.950000000000003</ele>
        <time>2025-05-17T09:43:48Z</time>
      </trkpt>
      <trkpt lat="43.919092984870076" lon="5.055322023108602">
        <ele>66.950000000000003</ele>
        <time>2025-05-17T09:43:49Z</time>
      </trkpt>
      <trkpt lat="43.919111005961895" lon="5.055357981473208">
        <ele>66.950000000000003</ele>
        <time>2025-05-17T09:43:50Z</time>
      </trkpt>
      <trkpt lat="43.91912198625505" lon="5.055381031706929">
        <ele>66.950000000000003</ele>
        <time>2025-05-17T09:43:51Z</time>
      </trkpt>
      <trkpt lat="43.919136989861727" lon="5.055410033091903">
        <ele>66.469999999999999</ele>
        <time>2025-05-17T09:43:53Z</time>
      </trkpt>
      <trkpt lat="43.919146964326501" lon="5.055430987849832">
        <ele>66.950000000000003</ele>
        <time>2025-05-17T09:43:54Z</time>
      </trkpt>
      <trkpt lat="43.919162973761559" lon="5.05564003251493">
        <ele>66.469999999999999</ele>
        <time>2025-05-17T09:44:00Z</time>
      </trkpt>
      <trkpt lat="43.919159034267068" lon="5.055681020021439">
        <ele>66.469999999999999</ele>
        <time>2025-05-17T09:44:01Z</time>
      </trkpt>
      <trkpt lat="43.919156016781926" lon="5.055702980607748">
        <ele>66.950000000000003</ele>
        <time>2025-05-17T09:44:02Z</time>
      </trkpt>
      <trkpt lat="43.919169008731842" lon="5.055714966729283">
        <ele>66.950000000000003</ele>
        <time>2025-05-17T09:44:03Z</time>
      </trkpt>
      <trkpt lat="43.919187029823661" lon="5.05572703666985">
        <ele>66.950000000000003</ele>
        <time>2025-05-17T09:44:04Z</time>
      </trkpt>
      <trkpt lat="43.919211002066731" lon="5.055742962285876">
        <ele>66.950000000000003</ele>
        <time>2025-05-17T09:44:05Z</time>
      </trkpt>
      <trkpt lat="43.919241009280086" lon="5.055762995034456">
        <ele>66.950000000000003</ele>
        <time>2025-05-17T09:44:06Z</time>
      </trkpt>
      <trkpt lat="43.919278979301453" lon="5.055787973105907">
        <ele>66.950000000000003</ele>
        <time>2025-05-17T09:44:07Z</time>
      </trkpt>
      <trkpt lat="43.919285014271736" lon="5.05579199641943">
        <ele>66.469999999999999</ele>
        <time>2025-05-17T09:44:08Z</time>
      </trkpt>
      <trkpt lat="43.919334970414639" lon="5.055894004181027">
        <ele>65.989999999999995</ele>
        <time>2025-05-17T09:44:09Z</time>
      </trkpt>
      <trkpt lat="43.919361038133502" lon="5.05594496615231">
        <ele>65.510000000000005</ele>
        <time>2025-05-17T09:44:10Z</time>
      </trkpt>
      <trkpt lat="43.919391967356205" lon="5.05600699223578">
        <ele>65.510000000000005</ele>
        <time>2025-05-17T09:44:11Z</time>
      </trkpt>
      <trkpt lat="43.919403031468391" lon="5.056074969470501">
        <ele>65.030000000000001</ele>
        <time>2025-05-17T09:44:12Z</time>
      </trkpt>
      <trkpt lat="43.919417029246688" lon="5.05615702830255">
        <ele>65.030000000000001</ele>
        <time>2025-05-17T09:44:13Z</time>
      </trkpt>
      <trkpt lat="43.919431027024984" lon="5.056237997487187">
        <ele>64.549999999999997</ele>
        <time>2025-05-17T09:44:14Z</time>
      </trkpt>
      <trkpt lat="43.919446030631661" lon="5.05633195862174">
        <ele>64.549999999999997</ele>
        <time>2025-05-17T09:44:15Z</time>
      </trkpt>
      <trkpt lat="43.919457010924816" lon="5.056434972211719">
        <ele>65.030000000000001</ele>
        <time>2025-05-17T09:44:16Z</time>
      </trkpt>
      <trkpt lat="43.919457010924816" lon="5.056670000776649">
        <ele>65.510000000000005</ele>
        <time>2025-05-17T09:44:18Z</time>
      </trkpt>
      <trkpt lat="43.919414011761546" lon="5.057390006259084">
        <ele>65.989999999999995</ele>
        <time>2025-05-17T09:44:24Z</time>
      </trkpt>
      <trkpt lat="43.919370006769896" lon="5.05761799402535">
        <ele>65.989999999999995</ele>
        <time>2025-05-17T09:44:27Z</time>
      </trkpt>
      <trkpt lat="43.919342011213303" lon="5.057758977636695">
        <ele>66.469999999999999</ele>
        <time>2025-05-17T09:44:29Z</time>
      </trkpt>
      <trkpt lat="43.919306974858046" lon="5.057914964854717">
        <ele>66.950000000000003</ele>
        <time>2025-05-17T09:44:31Z</time>
      </trkpt>
      <trkpt lat="43.918983014300466" lon="5.058890031650662">
        <ele>67.909999999999997</ele>
        <time>2025-05-17T09:44:40Z</time>
      </trkpt>
      <trkpt lat="43.918528966605663" lon="5.059952018782497">
        <ele>65.510000000000005</ele>
        <time>2025-05-17T09:44:50Z</time>
      </trkpt>
      <trkpt lat="43.918508011847734" lon="5.060001974925399">
        <ele>65.030000000000001</ele>
        <time>2025-05-17T09:44:51Z</time>
      </trkpt>
      <trkpt lat="43.918128982186317" lon="5.060744024813175">
        <ele>61.18</ele>
        <time>2025-05-17T09:45:01Z</time>
      </trkpt>
      <trkpt lat="43.917722962796688" lon="5.061575006693602">
        <ele>63.579999999999998</ele>
        <time>2025-05-17T09:45:10Z</time>
      </trkpt>
      <trkpt lat="43.917692033573985" lon="5.061638038605452">
        <ele>63.579999999999998</ele>
        <time>2025-05-17T09:45:11Z</time>
      </trkpt>
      <trkpt lat="43.917664038017392" lon="5.061694029718638">
        <ele>64.069999999999993</ele>
        <time>2025-05-17T09:45:12Z</time>
      </trkpt>
      <trkpt lat="43.917635958641768" lon="5.061752032488585">
        <ele>64.069999999999993</ele>
        <time>2025-05-17T09:45:13Z</time>
      </trkpt>
      <trkpt lat="43.917603017762303" lon="5.061815986409783">
        <ele>64.069999999999993</ele>
        <time>2025-05-17T09:45:14Z</time>
      </trkpt>
      <trkpt lat="43.917563036084175" lon="5.061889998614788">
        <ele>64.549999999999997</ele>
        <time>2025-05-17T09:45:15Z</time>
      </trkpt>
      <trkpt lat="43.917521964758635" lon="5.061966022476554">
        <ele>64.549999999999997</ele>
        <time>2025-05-17T09:45:16Z</time>
      </trkpt>
      <trkpt lat="43.917480977252126" lon="5.062041962519288">
        <ele>65.030000000000001</ele>
        <time>2025-05-17T09:45:17Z</time>
      </trkpt>
      <trkpt lat="43.917434038594365" lon="5.062128966674209">
        <ele>65.030000000000001</ele>
        <time>2025-05-17T09:45:18Z</time>
      </trkpt>
      <trkpt lat="43.917276039719582" lon="5.06243197247386">
        <ele>65.510000000000005</ele>
        <time>2025-05-17T09:45:21Z</time>
      </trkpt>
      <trkpt lat="43.91680296510458" lon="5.063650030642748">
        <ele>65.510000000000005</ele>
        <time>2025-05-17T09:45:30Z</time>
      </trkpt>
      <trkpt lat="43.916403986513615" lon="5.06539598107338">
        <ele>66.469999999999999</ele>
        <time>2025-05-17T09:45:42Z</time>
      </trkpt>
      <trkpt lat="43.916321005672216" lon="5.065677026286721">
        <ele>65.989999999999995</ele>
        <time>2025-05-17T09:45:46Z</time>
      </trkpt>
      <trkpt lat="43.916062004864216" lon="5.066263005137444">
        <ele>65.030000000000001</ele>
        <time>2025-05-17T09:45:53Z</time>
      </trkpt>
      <trkpt lat="43.916038032621145" lon="5.066315978765488">
        <ele>65.030000000000001</ele>
        <time>2025-05-17T09:45:54Z</time>
      </trkpt>
      <trkpt lat="43.915737960487604" lon="5.066977981477976">
        <ele>65.030000000000001</ele>
        <time>2025-05-17T09:46:01Z</time>
      </trkpt>
      <trkpt lat="43.91559898853302" lon="5.067411996424198">
        <ele>64.549999999999997</ele>
        <time>2025-05-17T09:46:04Z</time>
      </trkpt>
      <trkpt lat="43.915229011327028" lon="5.068988967686892">
        <ele>66.469999999999999</ele>
        <time>2025-05-17T09:46:14Z</time>
      </trkpt>
      <trkpt lat="43.915120968595147" lon="5.069278981536627">
        <ele>66.469999999999999</ele>
        <time>2025-05-17T09:46:16Z</time>
      </trkpt>
      <trkpt lat="43.915069000795484" lon="5.06943304091692">
        <ele>66.469999999999999</ele>
        <time>2025-05-17T09:46:17Z</time>
      </trkpt>
      <trkpt lat="43.914410015568137" lon="5.070833992213011">
        <ele>65.510000000000005</ele>
        <time>2025-05-17T09:46:27Z</time>
      </trkpt>
      <trkpt lat="43.91366302035749" lon="5.07235798984766">
        <ele>65.030000000000001</ele>
        <time>2025-05-17T09:46:38Z</time>
      </trkpt>
      <trkpt lat="43.912847964093089" lon="5.074246013537049">
        <ele>68.870000000000005</ele>
        <time>2025-05-17T09:46:51Z</time>
      </trkpt>
      <trkpt lat="43.912056041881442" lon="5.075661968439817">
        <ele>69.349999999999994</ele>
        <time>2025-05-17T09:46:59Z</time>
      </trkpt>
      <trkpt lat="43.911073012277484" lon="5.077127041295171">
        <ele>68.390000000000001</ele>
        <time>2025-05-17T09:47:08Z</time>
      </trkpt>
      <trkpt lat="43.909724028781056" lon="5.078729996457696">
        <ele>68.390000000000001</ele>
        <time>2025-05-17T09:47:19Z</time>
      </trkpt>
      <trkpt lat="43.908229032531381" lon="5.080248964950442">
        <ele>69.829999999999998</ele>
        <time>2025-05-17T09:47:30Z</time>
      </trkpt>
      <trkpt lat="43.90737097710371" lon="5.081085981801152">
        <ele>70.790000000000006</ele>
        <time>2025-05-17T09:47:38Z</time>
      </trkpt>
      <trkpt lat="43.907212978228927" lon="5.081184972077608">
        <ele>71.269999999999996</ele>
        <time>2025-05-17T09:47:40Z</time>
      </trkpt>
      <trkpt lat="43.907233010977507" lon="5.081279017031193">
        <ele>71.269999999999996</ele>
        <time>2025-05-17T09:47:41Z</time>
      </trkpt>
      <trkpt lat="43.907239967957139" lon="5.081369960680604">
        <ele>71.760000000000005</ele>
        <time>2025-05-17T09:47:42Z</time>
      </trkpt>
      <trkpt lat="43.907247008755803" lon="5.081455959007144">
        <ele>72.239999999999995</ele>
        <time>2025-05-17T09:47:43Z</time>
      </trkpt>
      <trkpt lat="43.907223958522081" lon="5.081605995073915">
        <ele>72.719999999999999</ele>
        <time>2025-05-17T09:47:44Z</time>
      </trkpt>
      <trkpt lat="43.907207027077675" lon="5.081715965643525">
        <ele>73.200000000000003</ele>
        <time>2025-05-17T09:47:45Z</time>
      </trkpt>
      <trkpt lat="43.907166961580515" lon="5.081823002547026">
        <ele>73.200000000000003</ele>
        <time>2025-05-17T09:47:46Z</time>
      </trkpt>
      <trkpt lat="43.906653989106417" lon="5.083046006038785">
        <ele>74.640000000000001</ele>
        <time>2025-05-17T09:47:54Z</time>
      </trkpt>
      <trkpt lat="43.905910011380911" lon="5.084677040576935">
        <ele>75.120000000000005</ele>
        <time>2025-05-17T09:48:04Z</time>
      </trkpt>
      <trkpt lat="43.90513401478529" lon="5.086240014061332">
        <ele>75.120000000000005</ele>
        <time>2025-05-17T09:48:14Z</time>
      </trkpt>
      <trkpt lat="43.904520040377975" lon="5.087571982294321">
        <ele>71.760000000000005</ele>
        <time>2025-05-17T09:48:21Z</time>
      </trkpt>
      <trkpt lat="43.904267996549606" lon="5.088185034692287">
        <ele>71.269999999999996</ele>
        <time>2025-05-17T09:48:24Z</time>
      </trkpt>
      <trkpt lat="43.903699032962322" lon="5.089615993201733">
        <ele>69.829999999999998</ele>
        <time>2025-05-17T09:48:31Z</time>
      </trkpt>
      <trkpt lat="43.903628960251808" lon="5.089801987633109">
        <ele>70.310000000000002</ele>
        <time>2025-05-17T09:48:32Z</time>
      </trkpt>
      <trkpt lat="43.903526030480862" lon="5.090218987315893">
        <ele>70.790000000000006</ele>
        <time>2025-05-17T09:48:34Z</time>
      </trkpt>
      <trkpt lat="43.903487976640463" lon="5.090457033365965">
        <ele>71.269999999999996</ele>
        <time>2025-05-17T09:48:35Z</time>
      </trkpt>
      <trkpt lat="43.903250014409423" lon="5.092878984287381">
        <ele>76.079999999999998</ele>
        <time>2025-05-17T09:48:45Z</time>
      </trkpt>
      <trkpt lat="43.902938039973378" lon="5.094860969111323">
        <ele>78</ele>
        <time>2025-05-17T09:48:53Z</time>
      </trkpt>
      <trkpt lat="43.902541995048523" lon="5.097889015451074">
        <ele>75.599999999999994</ele>
        <time>2025-05-17T09:49:05Z</time>
      </trkpt>
      <trkpt lat="43.902368992567062" lon="5.098683033138514">
        <ele>75.120000000000005</ele>
        <time>2025-05-17T09:49:09Z</time>
      </trkpt>
      <trkpt lat="43.90229900367558" lon="5.098881013691425">
        <ele>75.120000000000005</ele>
        <time>2025-05-17T09:49:10Z</time>
      </trkpt>
      <trkpt lat="43.902202025055885" lon="5.099066002294421">
        <ele>75.599999999999994</ele>
        <time>2025-05-17T09:49:11Z</time>
      </trkpt>
      <trkpt lat="43.901092009618878" lon="5.101198023185134">
        <ele>76.560000000000002</ele>
        <time>2025-05-17T09:49:22Z</time>
      </trkpt>
      <trkpt lat="43.899946035817266" lon="5.103283021599054">
        <ele>77.040000000000006</ele>
        <time>2025-05-17T09:49:33Z</time>
      </trkpt>
      <trkpt lat="43.899449994787574" lon="5.1041320245713">
        <ele>78.969999999999999</ele>
        <time>2025-05-17T09:49:38Z</time>
      </trkpt>
      <trkpt lat="43.899329965934157" lon="5.1042839884758">
        <ele>79.930000000000007</ele>
        <time>2025-05-17T09:49:39Z</time>
      </trkpt>
      <trkpt lat="43.899194011464715" lon="5.104404017329216">
        <ele>80.409999999999997</ele>
        <time>2025-05-17T09:49:40Z</time>
      </trkpt>
      <trkpt lat="43.898964012041688" lon="5.104609038680792">
        <ele>80.890000000000001</ele>
        <time>2025-05-17T09:49:42Z</time>
      </trkpt>
      <trkpt lat="43.898868039250374" lon="5.10475798510015">
        <ele>81.370000000000005</ele>
        <time>2025-05-17T09:49:43Z</time>
      </trkpt>
      <trkpt lat="43.898790003731847" lon="5.104880025610328">
        <ele>81.849999999999994</ele>
        <time>2025-05-17T09:49:44Z</time>
      </trkpt>
      <trkpt lat="43.89875203371048" lon="5.105031989514828">
        <ele>82.329999999999998</ele>
        <time>2025-05-17T09:49:45Z</time>
      </trkpt>
      <trkpt lat="43.898724960163236" lon="5.105198035016656">
        <ele>82.810000000000002</ele>
        <time>2025-05-17T09:49:46Z</time>
      </trkpt>
      <trkpt lat="43.898697970435023" lon="5.105366008356214">
        <ele>83.290000000000006</ele>
        <time>2025-05-17T09:49:47Z</time>
      </trkpt>
      <trkpt lat="43.898571990430355" lon="5.106152985244989">
        <ele>86.180000000000007</ele>
        <time>2025-05-17T09:49:53Z</time>
      </trkpt>
      <trkpt lat="43.898545000702143" lon="5.106323976069689">
        <ele>86.659999999999997</ele>
        <time>2025-05-17T09:49:55Z</time>
      </trkpt>
      <trkpt lat="43.898534020408988" lon="5.106390025466681">
        <ele>87.140000000000001</ele>
        <time>2025-05-17T09:49:56Z</time>
      </trkpt>
      <trkpt lat="43.898506024852395" lon="5.106520028784871">
        <ele>87.620000000000005</ele>
        <time>2025-05-17T09:49:57Z</time>
      </trkpt>
      <trkpt lat="43.898436035960913" lon="5.106536038219929">
        <ele>88.099999999999994</ele>
        <time>2025-05-17T09:49:58Z</time>
      </trkpt>
      <trkpt lat="43.898348025977612" lon="5.106554981321096">
        <ele>88.579999999999998</ele>
        <time>2025-05-17T09:49:59Z</time>
      </trkpt>
      <trkpt lat="43.898253981024027" lon="5.106576019898057">
        <ele>88.579999999999998</ele>
        <time>2025-05-17T09:50:00Z</time>
      </trkpt>
      <trkpt lat="43.898158008232713" lon="5.106596974655986">
        <ele>88.579999999999998</ele>
        <time>2025-05-17T09:50:01Z</time>
      </trkpt>
      <trkpt lat="43.898078966885805" lon="5.106654977425933">
        <ele>88.579999999999998</ele>
        <time>2025-05-17T09:50:02Z</time>
      </trkpt>
      <trkpt lat="43.898004032671452" lon="5.106736030429602">
        <ele>89.060000000000002</ele>
        <time>2025-05-17T09:50:03Z</time>
      </trkpt>
      <trkpt lat="43.897928008809686" lon="5.106816999614239">
        <ele>89.060000000000002</ele>
        <time>2025-05-17T09:50:04Z</time>
      </trkpt>
      <trkpt lat="43.897855002433062" lon="5.106893023476005">
        <ele>89.540000000000006</ele>
        <time>2025-05-17T09:50:05Z</time>
      </trkpt>
      <trkpt lat="43.897784007713199" lon="5.106969969347119">
        <ele>89.540000000000006</ele>
        <time>2025-05-17T09:50:06Z</time>
      </trkpt>
      <trkpt lat="43.897742014378309" lon="5.107100978493691">
        <ele>90.019999999999996</ele>
        <time>2025-05-17T09:50:07Z</time>
      </trkpt>
      <trkpt lat="43.897697003558278" lon="5.107241962105036">
        <ele>90.5</ele>
        <time>2025-05-17T09:50:08Z</time>
      </trkpt>
      <trkpt lat="43.897278998047113" lon="5.108798984438181">
        <ele>94.829999999999998</ele>
        <time>2025-05-17T09:50:17Z</time>
      </trkpt>
      <trkpt lat="43.896914971992373" lon="5.110103040933609">
        <ele>100.11</ele>
        <time>2025-05-17T09:50:26Z</time>
      </trkpt>
      <trkpt lat="43.896389007568359" lon="5.111237028613687">
        <ele>103.48</ele>
        <time>2025-05-17T09:50:35Z</time>
      </trkpt>
      <trkpt lat="43.896328993141651" lon="5.111379018053412">
        <ele>103.95999999999999</ele>
        <time>2025-05-17T09:50:36Z</time>
      </trkpt>
      <trkpt lat="43.896308038383722" lon="5.111535005271435">
        <ele>104.92</ele>
        <time>2025-05-17T09:50:37Z</time>
      </trkpt>
      <trkpt lat="43.896288005635142" lon="5.111698033288121">
        <ele>105.40000000000001</ele>
        <time>2025-05-17T09:50:38Z</time>
      </trkpt>
      <trkpt lat="43.896268978714943" lon="5.111857960000634">
        <ele>106.36</ele>
        <time>2025-05-17T09:50:39Z</time>
      </trkpt>
      <trkpt lat="43.896251041442156" lon="5.112014031037688">
        <ele>107.31999999999999</ele>
        <time>2025-05-17T09:50:40Z</time>
      </trkpt>
      <trkpt lat="43.896233020350337" lon="5.112167000770569">
        <ele>108.29000000000001</ele>
        <time>2025-05-17T09:50:41Z</time>
      </trkpt>
      <trkpt lat="43.896083990111947" lon="5.112863034009934">
        <ele>112.61</ele>
        <time>2025-05-17T09:50:48Z</time>
      </trkpt>
      <trkpt lat="43.89604602009058" lon="5.112977027893066">
        <ele>113.09</ele>
        <time>2025-05-17T09:50:49Z</time>
      </trkpt>
      <trkpt lat="43.895980976521969" lon="5.113020027056336">
        <ele>113.09</ele>
        <time>2025-05-17T09:50:50Z</time>
      </trkpt>
      <trkpt lat="43.895115964114666" lon="5.113352034240961">
        <ele>113.56999999999999</ele>
        <time>2025-05-17T09:51:01Z</time>
      </trkpt>
      <trkpt lat="43.894803989678621" lon="5.113437026739121">
        <ele>114.05</ele>
        <time>2025-05-17T09:51:05Z</time>
      </trkpt>
      <trkpt lat="43.894339967519045" lon="5.113669037818909">
        <ele>115.01000000000001</ele>
        <time>2025-05-17T09:51:13Z</time>
      </trkpt>
      <trkpt lat="43.894234020262957" lon="5.113707007840276">
        <ele>115.5</ele>
        <time>2025-05-17T09:51:15Z</time>
      </trkpt>
      <trkpt lat="43.894174005836248" lon="5.113707007840276">
        <ele>115.01000000000001</ele>
        <time>2025-05-17T09:51:16Z</time>
      </trkpt>
      <trkpt lat="43.894116003066301" lon="5.113685969263315">
        <ele>115.01000000000001</ele>
        <time>2025-05-17T09:51:17Z</time>
      </trkpt>
      <trkpt lat="43.893964039161801" lon="5.113658979535103">
        <ele>115.01000000000001</ele>
        <time>2025-05-17T09:51:19Z</time>
      </trkpt>
      <trkpt lat="43.893889021128416" lon="5.113677000626922">
        <ele>115.01000000000001</ele>
        <time>2025-05-17T09:51:20Z</time>
      </trkpt>
      <trkpt lat="43.893819032236934" lon="5.113712958991528">
        <ele>115.01000000000001</ele>
        <time>2025-05-17T09:51:21Z</time>
      </trkpt>
      <trkpt lat="43.893691962584853" lon="5.11380298063159">
        <ele>115.01000000000001</ele>
        <time>2025-05-17T09:51:23Z</time>
      </trkpt>
      <trkpt lat="43.893628008663654" lon="5.113848997280002">
        <ele>115.01000000000001</ele>
        <time>2025-05-17T09:51:24Z</time>
      </trkpt>
      <trkpt lat="43.893429022282362" lon="5.114001967012882">
        <ele>115.5</ele>
        <time>2025-05-17T09:51:27Z</time>
      </trkpt>
      <trkpt lat="43.892917977645993" lon="5.114274965599179">
        <ele>115.01000000000001</ele>
        <time>2025-05-17T09:51:36Z</time>
      </trkpt>
      <trkpt lat="43.8928899820894" lon="5.114288963377476">
        <ele>114.53</ele>
        <time>2025-05-17T09:51:37Z</time>
      </trkpt>
      <trkpt lat="43.892862992361188" lon="5.114301033318043">
        <ele>114.53</ele>
        <time>2025-05-17T09:51:38Z</time>
      </trkpt>
      <trkpt lat="43.892839020118117" lon="5.114313019439578">
        <ele>114.05</ele>
        <time>2025-05-17T09:51:39Z</time>
      </trkpt>
      <trkpt lat="43.892805995419621" lon="5.114329028874636">
        <ele>114.05</ele>
        <time>2025-05-17T09:51:40Z</time>
      </trkpt>
      <trkpt lat="43.892797026783228" lon="5.114337997511029">
        <ele>113.09</ele>
        <time>2025-05-17T09:51:49Z</time>
      </trkpt>
      <trkpt lat="43.892828039824963" lon="5.114455008879304">
        <ele>113.09</ele>
        <time>2025-05-17T09:51:50Z</time>
      </trkpt>
      <trkpt lat="43.893304970115423" lon="5.114801013842225">
        <ele>109.73</ele>
        <time>2025-05-17T09:51:58Z</time>
      </trkpt>
      <trkpt lat="43.893363978713751" lon="5.114844013005495">
        <ele>109.25</ele>
        <time>2025-05-17T09:51:59Z</time>
      </trkpt>
      <trkpt lat="43.893376970663667" lon="5.114923976361752">
        <ele>108.77</ele>
        <time>2025-05-17T09:52:00Z</time>
      </trkpt>
      <trkpt lat="43.893422987312078" lon="5.115197980776429">
        <ele>107.81</ele>
        <time>2025-05-17T09:52:03Z</time>
      </trkpt>
      <trkpt lat="43.893436985090375" lon="5.115280039608479">
        <ele>107.81</ele>
        <time>2025-05-17T09:52:04Z</time>
      </trkpt>
      <trkpt lat="43.893461041152477" lon="5.115374000743032">
        <ele>107.81</ele>
        <time>2025-05-17T09:52:05Z</time>
      </trkpt>
      <trkpt lat="43.893520971760154" lon="5.115447007119656">
        <ele>107.81</ele>
        <time>2025-05-17T09:52:06Z</time>
      </trkpt>
      <trkpt lat="43.893586015328765" lon="5.115473996847868">
        <ele>107.81</ele>
        <time>2025-05-17T09:52:07Z</time>
      </trkpt>
      <trkpt lat="43.893659021705389" lon="5.115504004061222">
        <ele>107.81</ele>
        <time>2025-05-17T09:52:08Z</time>
      </trkpt>
      <trkpt lat="43.893807968124747" lon="5.11556401848793">
        <ele>107.81</ele>
        <time>2025-05-17T09:52:10Z</time>
      </trkpt>
      <trkpt lat="43.894049031659961" lon="5.115662002936006">
        <ele>107.81</ele>
        <time>2025-05-17T09:52:13Z</time>
      </trkpt>
      <trkpt lat="43.894642973318696" lon="5.116081014275551">
        <ele>111.65000000000001</ele>
        <time>2025-05-17T09:52:21Z</time>
      </trkpt>
      <trkpt lat="43.894827039912343" lon="5.116254016757011">
        <ele>117.90000000000001</ele>
        <time>2025-05-17T09:52:24Z</time>
      </trkpt>
      <trkpt lat="43.895084029063582" lon="5.11657596565783">
        <ele>122.22</ele>
        <time>2025-05-17T09:52:28Z</time>
      </trkpt>
      <trkpt lat="43.8951660040766" lon="5.116689037531614">
        <ele>123.19</ele>
        <time>2025-05-17T09:52:29Z</time>
      </trkpt>
      <trkpt lat="43.895729016512632" lon="5.117556983605027">
        <ele>129.43000000000001</ele>
        <time>2025-05-17T09:52:35Z</time>
      </trkpt>
      <trkpt lat="43.895844016224146" lon="5.117728980258107">
        <ele>129.91999999999999</ele>
        <time>2025-05-17T09:52:36Z</time>
      </trkpt>
      <trkpt lat="43.895986005663872" lon="5.117837022989988">
        <ele>130.88</ele>
        <time>2025-05-17T09:52:37Z</time>
      </trkpt>
      <trkpt lat="43.896133024245501" lon="5.117950011044741">
        <ele>132.31999999999999</ele>
        <time>2025-05-17T09:52:38Z</time>
      </trkpt>
      <trkpt lat="43.896285993978381" lon="5.118067022413015">
        <ele>133.28</ele>
        <time>2025-05-17T09:52:39Z</time>
      </trkpt>
      <trkpt lat="43.897209009155631" lon="5.118745034560561">
        <ele>139.53</ele>
        <time>2025-05-17T09:52:45Z</time>
      </trkpt>
      <trkpt lat="43.897338006645441" lon="5.118841007351875">
        <ele>140.49000000000001</ele>
        <time>2025-05-17T09:52:46Z</time>
      </trkpt>
      <trkpt lat="43.897446971386671" lon="5.118996994569898">
        <ele>141.44999999999999</ele>
        <time>2025-05-17T09:52:47Z</time>
      </trkpt>
      <trkpt lat="43.897918034344912" lon="5.11973200365901">
        <ele>147.22</ele>
        <time>2025-05-17T09:52:52Z</time>
      </trkpt>
      <trkpt lat="43.897995986044407" lon="5.119895031675696">
        <ele>148.66</ele>
        <time>2025-05-17T09:52:53Z</time>
      </trkpt>
      <trkpt lat="43.898076033219695" lon="5.120061999186873">
        <ele>150.09999999999999</ele>
        <time>2025-05-17T09:52:54Z</time>
      </trkpt>
      <trkpt lat="43.898112997412682" lon="5.120243970304728">
        <ele>151.53999999999999</ele>
        <time>2025-05-17T09:52:55Z</time>
      </trkpt>
      <trkpt lat="43.898149039596319" lon="5.120451003313065">
        <ele>152.99000000000001</ele>
        <time>2025-05-17T09:52:56Z</time>
      </trkpt>
      <trkpt lat="43.898171000182629" lon="5.120658036321402">
        <ele>154.43000000000001</ele>
        <time>2025-05-17T09:52:57Z</time>
      </trkpt>
      <trkpt lat="43.898171000182629" lon="5.120868002995849">
        <ele>155.87</ele>
        <time>2025-05-17T09:52:58Z</time>
      </trkpt>
      <trkpt lat="43.898171000182629" lon="5.121242003515363">
        <ele>158.75</ele>
        <time>2025-05-17T09:53:00Z</time>
      </trkpt>
      <trkpt lat="43.898136969655752" lon="5.121414000168443">
        <ele>159.72</ele>
        <time>2025-05-17T09:53:01Z</time>
      </trkpt>
      <trkpt lat="43.898083996027708" lon="5.12155900709331">
        <ele>160.68000000000001</ele>
        <time>2025-05-17T09:53:02Z</time>
      </trkpt>
      <trkpt lat="43.898036973550916" lon="5.121685992926359">
        <ele>161.16</ele>
        <time>2025-05-17T09:53:03Z</time>
      </trkpt>
      <trkpt lat="43.897964973002672" lon="5.121797975152731">
        <ele>162.12</ele>
        <time>2025-05-17T09:53:04Z</time>
      </trkpt>
      <trkpt lat="43.897882997989655" lon="5.121896965429187">
        <ele>162.59999999999999</ele>
        <time>2025-05-17T09:53:05Z</time>
      </trkpt>
      <trkpt lat="43.897774033248425" lon="5.121997967362404">
        <ele>163.08000000000001</ele>
        <time>2025-05-17T09:53:06Z</time>
      </trkpt>
      <trkpt lat="43.897655010223389" lon="5.122028980404139">
        <ele>163.56</ele>
        <time>2025-05-17T09:53:07Z</time>
      </trkpt>
      <trkpt lat="43.897527018561959" lon="5.122063010931015">
        <ele>164.03999999999999</ele>
        <time>2025-05-17T09:53:08Z</time>
      </trkpt>
      <trkpt lat="43.897391986101866" lon="5.122062005102634">
        <ele>164.52000000000001</ele>
        <time>2025-05-17T09:53:09Z</time>
      </trkpt>
      <trkpt lat="43.897258965298533" lon="5.122042978182435">
        <ele>165</ele>
        <time>2025-05-17T09:53:10Z</time>
      </trkpt>
      <trkpt lat="43.897130973637104" lon="5.122025040909648">
        <ele>165.47999999999999</ele>
        <time>2025-05-17T09:53:11Z</time>
      </trkpt>
      <trkpt lat="43.896021964028478" lon="5.121743995696306">
        <ele>171.72999999999999</ele>
        <time>2025-05-17T09:53:21Z</time>
      </trkpt>
      <trkpt lat="43.895439002662897" lon="5.12162396684289">
        <ele>173.66</ele>
        <time>2025-05-17T09:53:26Z</time>
      </trkpt>
      <trkpt lat="43.895329032093287" lon="5.121670989319682">
        <ele>174.13999999999999</ele>
        <time>2025-05-17T09:53:27Z</time>
      </trkpt>
      <trkpt lat="43.895216966047883" lon="5.121719017624855">
        <ele>174.13999999999999</ele>
        <time>2025-05-17T09:53:28Z</time>
      </trkpt>
      <trkpt lat="43.895156029611826" lon="5.121798980981112">
        <ele>175.09999999999999</ele>
        <time>2025-05-17T09:53:29Z</time>
      </trkpt>
      <trkpt lat="43.895097021013498" lon="5.121924038976431">
        <ele>175.58000000000001</ele>
        <time>2025-05-17T09:53:30Z</time>
      </trkpt>
      <trkpt lat="43.895039018243551" lon="5.122045995667577">
        <ele>176.06</ele>
        <time>2025-05-17T09:53:31Z</time>
      </trkpt>
      <trkpt lat="43.89499400742352" lon="5.122142974287272">
        <ele>176.53999999999999</ele>
        <time>2025-05-17T09:53:32Z</time>
      </trkpt>
      <trkpt lat="43.894970035180449" lon="5.122271971777082">
        <ele>177.02000000000001</ele>
        <time>2025-05-17T09:53:33Z</time>
      </trkpt>
      <trkpt lat="43.894944973289967" lon="5.122405998408794">
        <ele>177.5</ele>
        <time>2025-05-17T09:53:34Z</time>
      </trkpt>
      <trkpt lat="43.894730983301997" lon="5.123804016038775">
        <ele>181.83000000000001</ele>
        <time>2025-05-17T09:53:42Z</time>
      </trkpt>
      <trkpt lat="43.894394030794501" lon="5.125277973711491">
        <ele>188.56</ele>
        <time>2025-05-17T09:53:50Z</time>
      </trkpt>
      <trkpt lat="43.894054982811213" lon="5.126534001901746">
        <ele>197.21000000000001</ele>
        <time>2025-05-17T09:53:58Z</time>
      </trkpt>
      <trkpt lat="43.893920034170151" lon="5.127127021551132">
        <ele>200.56999999999999</ele>
        <time>2025-05-17T09:54:01Z</time>
      </trkpt>
      <trkpt lat="43.893891032785177" lon="5.127346962690353">
        <ele>201.53</ele>
        <time>2025-05-17T09:54:02Z</time>
      </trkpt>
      <trkpt lat="43.893762035295367" lon="5.12817601673305">
        <ele>204.90000000000001</ele>
        <time>2025-05-17T09:54:06Z</time>
      </trkpt>
      <trkpt lat="43.893689028918743" lon="5.128338960930705">
        <ele>205.86000000000001</ele>
        <time>2025-05-17T09:54:07Z</time>
      </trkpt>
      <trkpt lat="43.89362096786499" lon="5.128491008654237">
        <ele>206.81999999999999</ele>
        <time>2025-05-17T09:54:08Z</time>
      </trkpt>
      <trkpt lat="43.893503034487367" lon="5.128635009750724">
        <ele>207.30000000000001</ele>
        <time>2025-05-17T09:54:09Z</time>
      </trkpt>
      <trkpt lat="43.893391974270344" lon="5.128770964220166">
        <ele>208.25999999999999</ele>
        <time>2025-05-17T09:54:10Z</time>
      </trkpt>
      <trkpt lat="43.893282003700733" lon="5.12890599668026">
        <ele>209.69999999999999</ele>
        <time>2025-05-17T09:54:11Z</time>
      </trkpt>
      <trkpt lat="43.893191982060671" lon="5.129084028303623">
        <ele>210.66999999999999</ele>
        <time>2025-05-17T09:54:12Z</time>
      </trkpt>
      <trkpt lat="43.893129033967853" lon="5.129263987764716">
        <ele>212.11000000000001</ele>
        <time>2025-05-17T09:54:13Z</time>
      </trkpt>
      <trkpt lat="43.893097015097737" lon="5.129456017166376">
        <ele>213.55000000000001</ele>
        <time>2025-05-17T09:54:14Z</time>
      </trkpt>
      <trkpt lat="43.893090980127454" lon="5.129650980234146">
        <ele>214.99000000000001</ele>
        <time>2025-05-17T09:54:15Z</time>
      </trkpt>
      <trkpt lat="43.893117969855666" lon="5.129854995757341">
        <ele>216.91</ele>
        <time>2025-05-17T09:54:16Z</time>
      </trkpt>
      <trkpt lat="43.893172033131123" lon="5.130062028765678">
        <ele>218.84</ele>
        <time>2025-05-17T09:54:17Z</time>
      </trkpt>
      <trkpt lat="43.893239004537463" lon="5.130266966298223">
        <ele>220.28</ele>
        <time>2025-05-17T09:54:18Z</time>
      </trkpt>
      <trkpt lat="43.893305975943804" lon="5.130472993478179">
        <ele>221.24000000000001</ele>
        <time>2025-05-17T09:54:19Z</time>
      </trkpt>
      <trkpt lat="43.89349197037518" lon="5.131040029227734">
        <ele>225.09</ele>
        <time>2025-05-17T09:54:22Z</time>
      </trkpt>
      <trkpt lat="43.893521977588534" lon="5.131210014224052">
        <ele>226.05000000000001</ele>
        <time>2025-05-17T09:54:23Z</time>
      </trkpt>
      <trkpt lat="43.89353496953845" lon="5.131378993391991">
        <ele>227.00999999999999</ele>
        <time>2025-05-17T09:54:24Z</time>
      </trkpt>
      <trkpt lat="43.893515020608902" lon="5.131535986438394">
        <ele>227.97</ele>
        <time>2025-05-17T09:54:25Z</time>
      </trkpt>
      <trkpt lat="43.893489958718419" lon="5.131700020283461">
        <ele>228.44999999999999</ele>
        <time>2025-05-17T09:54:26Z</time>
      </trkpt>
      <trkpt lat="43.893442014232278" lon="5.131873022764921">
        <ele>229.41</ele>
        <time>2025-05-17T09:54:27Z</time>
      </trkpt>
      <trkpt lat="43.89335903339088" lon="5.132024986669421">
        <ele>230.37</ele>
        <time>2025-05-17T09:54:28Z</time>
      </trkpt>
      <trkpt lat="43.893261970952153" lon="5.132163958624005">
        <ele>231.33000000000001</ele>
        <time>2025-05-17T09:54:29Z</time>
      </trkpt>
      <trkpt lat="43.893148982897401" lon="5.132266972213984">
        <ele>232.30000000000001</ele>
        <time>2025-05-17T09:54:30Z</time>
      </trkpt>
      <trkpt lat="43.89301504008472" lon="5.132365040481091">
        <ele>233.25999999999999</ele>
        <time>2025-05-17T09:54:31Z</time>
      </trkpt>
      <trkpt lat="43.892874978482723" lon="5.132455984130502">
        <ele>234.22</ele>
        <time>2025-05-17T09:54:32Z</time>
      </trkpt>
      <trkpt lat="43.892469964921474" lon="5.132610965520144">
        <ele>236.62</ele>
        <time>2025-05-17T09:54:35Z</time>
      </trkpt>
      <trkpt lat="43.892348008230329" lon="5.132610965520144">
        <ele>237.09999999999999</ele>
        <time>2025-05-17T09:54:36Z</time>
      </trkpt>
      <trkpt lat="43.892205012962222" lon="5.132610965520144">
        <ele>237.58000000000001</ele>
        <time>2025-05-17T09:54:37Z</time>
      </trkpt>
      <trkpt lat="43.892112979665399" lon="5.132555980235338">
        <ele>237.58000000000001</ele>
        <time>2025-05-17T09:54:38Z</time>
      </trkpt>
      <trkpt lat="43.891990017145872" lon="5.132481968030334">
        <ele>237.09999999999999</ele>
        <time>2025-05-17T09:54:39Z</time>
      </trkpt>
      <trkpt lat="43.891862025484443" lon="5.132405022159219">
        <ele>237.09999999999999</ele>
        <time>2025-05-17T09:54:40Z</time>
      </trkpt>
      <trkpt lat="43.891730010509491" lon="5.132325980812311">
        <ele>236.62</ele>
        <time>2025-05-17T09:54:41Z</time>
      </trkpt>
      <trkpt lat="43.891596989706159" lon="5.132275018841028">
        <ele>236.13999999999999</ele>
        <time>2025-05-17T09:54:42Z</time>
      </trkpt>
      <trkpt lat="43.891467992216349" lon="5.132249034941196">
        <ele>235.66</ele>
        <time>2025-05-17T09:54:43Z</time>
      </trkpt>
      <trkpt lat="43.891347041353583" lon="5.132224978879094">
        <ele>235.18000000000001</ele>
        <time>2025-05-17T09:54:44Z</time>
      </trkpt>
      <trkpt lat="43.891227012500167" lon="5.132250962778926">
        <ele>234.22</ele>
        <time>2025-05-17T09:54:45Z</time>
      </trkpt>
      <trkpt lat="43.891104971989989" lon="5.13227803632617">
        <ele>233.25999999999999</ele>
        <time>2025-05-17T09:54:46Z</time>
      </trkpt>
      <trkpt lat="43.890960970893502" lon="5.132309971377254">
        <ele>232.78</ele>
        <time>2025-05-17T09:54:47Z</time>
      </trkpt>
      <trkpt lat="43.890857035294175" lon="5.132370991632342">
        <ele>231.81</ele>
        <time>2025-05-17T09:54:48Z</time>
      </trkpt>
      <trkpt lat="43.889961009845138" lon="5.132954036816955">
        <ele>224.61000000000001</ele>
        <time>2025-05-17T09:54:57Z</time>
      </trkpt>
      <trkpt lat="43.889837963506579" lon="5.133158974349499">
        <ele>223.16</ele>
        <time>2025-05-17T09:54:59Z</time>
      </trkpt>
      <trkpt lat="43.889780966565013" lon="5.133255030959845">
        <ele>222.68000000000001</ele>
        <time>2025-05-17T09:55:00Z</time>
      </trkpt>
      <trkpt lat="43.889761017635465" lon="5.133369024842978">
        <ele>222.68000000000001</ele>
        <time>2025-05-17T09:55:01Z</time>
      </trkpt>
      <trkpt lat="43.889670995995402" lon="5.133885014802218">
        <ele>221.24000000000001</ele>
        <time>2025-05-17T09:55:08Z</time>
      </trkpt>
      <trkpt lat="43.889653980731964" lon="5.133981993421912">
        <ele>220.28</ele>
        <time>2025-05-17T09:55:11Z</time>
      </trkpt>
      <trkpt lat="43.889650963246822" lon="5.134003031998873">
        <ele>220.28</ele>
        <time>2025-05-17T09:55:12Z</time>
      </trkpt>
      <trkpt lat="43.889650963246822" lon="5.134003031998873">
        <ele>220.28</ele>
        <time>2025-05-17T09:55:13Z</time>
      </trkpt>
      <trkpt lat="43.889650963246822" lon="5.134003031998873">
        <ele>220.28</ele>
        <time>2025-05-17T09:55:24Z</time>
      </trkpt>
      <trkpt lat="43.889584997668862" lon="5.133993979543448">
        <ele>217.40000000000001</ele>
        <time>2025-05-17T10:00:12Z</time>
      </trkpt>
      <trkpt lat="43.889624979346991" lon="5.133962966501713">
        <ele>229.88999999999999</ele>
        <time>2025-05-17T10:00:54Z</time>
      </trkpt>
      <trkpt lat="43.889629002660513" lon="5.133941005915403">
        <ele>226.05000000000001</ele>
        <time>2025-05-17T10:01:48Z</time>
      </trkpt>
      <trkpt lat="43.889631014317274" lon="5.133945029228926">
        <ele>226.53</ele>
        <time>2025-05-17T10:02:35Z</time>
      </trkpt>
      <trkpt lat="43.889629002660513" lon="5.133947962895036">
        <ele>226.05000000000001</ele>
        <time>2025-05-17T10:03:23Z</time>
      </trkpt>
      <trkpt lat="43.889630008488894" lon="5.133948968723416">
        <ele>226.05000000000001</ele>
        <time>2025-05-17T10:04:10Z</time>
      </trkpt>
      <trkpt lat="43.889630008488894" lon="5.133948968723416">
        <ele>226.05000000000001</ele>
        <time>2025-05-17T10:04:11Z</time>
      </trkpt>
      <trkpt lat="43.889647023752332" lon="5.134027004241943">
        <ele>226.05000000000001</ele>
        <time>2025-05-17T10:04:14Z</time>
      </trkpt>
      <trkpt lat="43.889635037630796" lon="5.134092969819903">
        <ele>225.56999999999999</ele>
        <time>2025-05-17T10:04:15Z</time>
      </trkpt>
      <trkpt lat="43.8896210398525" lon="5.134173016995192">
        <ele>225.56999999999999</ele>
        <time>2025-05-17T10:04:16Z</time>
      </trkpt>
      <trkpt lat="43.889518026262522" lon="5.134766958653927">
        <ele>224.12</ele>
        <time>2025-05-17T10:04:22Z</time>
      </trkpt>
      <trkpt lat="43.889333959668875" lon="5.13582500629127">
        <ele>218.84</ele>
        <time>2025-05-17T10:04:29Z</time>
      </trkpt>
      <trkpt lat="43.889316022396088" lon="5.136207975447178">
        <ele>217.40000000000001</ele>
        <time>2025-05-17T10:04:31Z</time>
      </trkpt>
      <trkpt lat="43.889307975769043" lon="5.136408973485231">
        <ele>216.91</ele>
        <time>2025-05-17T10:04:32Z</time>
      </trkpt>
      <trkpt lat="43.889345023781061" lon="5.13655498623848">
        <ele>216.43000000000001</ele>
        <time>2025-05-17T10:04:33Z</time>
      </trkpt>
      <trkpt lat="43.889432027935982" lon="5.136695969849825">
        <ele>215.94999999999999</ele>
        <time>2025-05-17T10:04:34Z</time>
      </trkpt>
      <trkpt lat="43.889545015990734" lon="5.136858997866511">
        <ele>214.99000000000001</ele>
        <time>2025-05-17T10:04:35Z</time>
      </trkpt>
      <trkpt lat="43.889668984338641" lon="5.136926975101233">
        <ele>214.03</ele>
        <time>2025-05-17T10:04:36Z</time>
      </trkpt>
      <trkpt lat="43.889818014577031" lon="5.137009033933282">
        <ele>213.06999999999999</ele>
        <time>2025-05-17T10:04:37Z</time>
      </trkpt>
      <trkpt lat="43.890751004219055" lon="5.137551007792354">
        <ele>208.25999999999999</ele>
        <time>2025-05-17T10:04:43Z</time>
      </trkpt>
      <trkpt lat="43.890864998102188" lon="5.137663995847106">
        <ele>207.78</ele>
        <time>2025-05-17T10:04:44Z</time>
      </trkpt>
      <trkpt lat="43.890939010307193" lon="5.137739013880491">
        <ele>206.81999999999999</ele>
        <time>2025-05-17T10:04:45Z</time>
      </trkpt>
      <trkpt lat="43.890979997813702" lon="5.137916961684823">
        <ele>206.34</ele>
        <time>2025-05-17T10:04:46Z</time>
      </trkpt>
      <trkpt lat="43.891001036390662" lon="5.138031961396337">
        <ele>205.38</ele>
        <time>2025-05-17T10:04:47Z</time>
      </trkpt>
      <trkpt lat="43.890968011692166" lon="5.138177974149585">
        <ele>204.41999999999999</ele>
        <time>2025-05-17T10:04:48Z</time>
      </trkpt>
      <trkpt lat="43.890905985608697" lon="5.138296997174621">
        <ele>203.46000000000001</ele>
        <time>2025-05-17T10:04:49Z</time>
      </trkpt>
      <trkpt lat="43.890808001160622" lon="5.138448039069772">
        <ele>202.49000000000001</ele>
        <time>2025-05-17T10:04:50Z</time>
      </trkpt>
      <trkpt lat="43.890660982578993" lon="5.138485003262758">
        <ele>201.53</ele>
        <time>2025-05-17T10:04:51Z</time>
      </trkpt>
      <trkpt lat="43.890492003411055" lon="5.138502018526197">
        <ele>200.09</ele>
        <time>2025-05-17T10:04:52Z</time>
      </trkpt>
      <trkpt lat="43.890312965959311" lon="5.138517022132874">
        <ele>198.65000000000001</ele>
        <time>2025-05-17T10:04:53Z</time>
      </trkpt>
      <trkpt lat="43.889799993485212" lon="5.138591034337878">
        <ele>193.36000000000001</ele>
        <time>2025-05-17T10:04:56Z</time>
      </trkpt>
      <trkpt lat="43.889659009873867" lon="5.138667980208993">
        <ele>190.96000000000001</ele>
        <time>2025-05-17T10:04:57Z</time>
      </trkpt>
      <trkpt lat="43.889574017375708" lon="5.138794966042042">
        <ele>190</ele>
        <time>2025-05-17T10:04:58Z</time>
      </trkpt>
      <trkpt lat="43.889506962150335" lon="5.138929998502135">
        <ele>188.56</ele>
        <time>2025-05-17T10:04:59Z</time>
      </trkpt>
      <trkpt lat="43.889473015442491" lon="5.139095960184932">
        <ele>187.59</ele>
        <time>2025-05-17T10:05:00Z</time>
      </trkpt>
      <trkpt lat="43.889434961602092" lon="5.139296958222985">
        <ele>186.63</ele>
        <time>2025-05-17T10:05:01Z</time>
      </trkpt>
      <trkpt lat="43.889133967459202" lon="5.14083000831306">
        <ele>180.87</ele>
        <time>2025-05-17T10:05:07Z</time>
      </trkpt>
      <trkpt lat="43.8890649843961" lon="5.142047982662916">
        <ele>177.97999999999999</ele>
        <time>2025-05-17T10:05:13Z</time>
      </trkpt>
      <trkpt lat="43.889098009094596" lon="5.142390970140696">
        <ele>177.02000000000001</ele>
        <time>2025-05-17T10:05:15Z</time>
      </trkpt>
      <trkpt lat="43.889112006872892" lon="5.142546035349369">
        <ele>176.53999999999999</ele>
        <time>2025-05-17T10:05:16Z</time>
      </trkpt>
      <trkpt lat="43.889126004651189" lon="5.142694981768727">
        <ele>176.06</ele>
        <time>2025-05-17T10:05:17Z</time>
      </trkpt>
      <trkpt lat="43.889123992994428" lon="5.142855998128653">
        <ele>175.58000000000001</ele>
        <time>2025-05-17T10:05:18Z</time>
      </trkpt>
      <trkpt lat="43.889072025194764" lon="5.143018020316958">
        <ele>175.09999999999999</ele>
        <time>2025-05-17T10:05:19Z</time>
      </trkpt>
      <trkpt lat="43.888990972191095" lon="5.143168978393078">
        <ele>174.13999999999999</ele>
        <time>2025-05-17T10:05:20Z</time>
      </trkpt>
      <trkpt lat="43.888891981914639" lon="5.143294958397746">
        <ele>173.16999999999999</ele>
        <time>2025-05-17T10:05:21Z</time>
      </trkpt>
      <trkpt lat="43.888168036937714" lon="5.144229037687182">
        <ele>166.93000000000001</ele>
        <time>2025-05-17T10:05:29Z</time>
      </trkpt>
      <trkpt lat="43.887976007536054" lon="5.144475968554616">
        <ele>163.56</ele>
        <time>2025-05-17T10:05:34Z</time>
      </trkpt>
      <trkpt lat="43.887965027242899" lon="5.144489966332912">
        <ele>162.12</ele>
        <time>2025-05-17T10:05:42Z</time>
      </trkpt>
      <trkpt lat="43.88798899948597" lon="5.144459959119558">
        <ele>161.63999999999999</ele>
        <time>2025-05-17T10:05:44Z</time>
      </trkpt>
      <trkpt lat="43.88801196590066" lon="5.144431041553617">
        <ele>161.63999999999999</ele>
        <time>2025-05-17T10:05:45Z</time>
      </trkpt>
      <trkpt lat="43.888048008084297" lon="5.144384019076824">
        <ele>161.16</ele>
        <time>2025-05-17T10:05:46Z</time>
      </trkpt>
      <trkpt lat="43.888096958398819" lon="5.144320987164974">
        <ele>160.68000000000001</ele>
        <time>2025-05-17T10:05:47Z</time>
      </trkpt>
      <trkpt lat="43.888154039159417" lon="5.14424697495997">
        <ele>160.19999999999999</ele>
        <time>2025-05-17T10:05:48Z</time>
      </trkpt>
      <trkpt lat="43.888841019943357" lon="5.143362013623118">
        <ele>161.63999999999999</ele>
        <time>2025-05-17T10:05:56Z</time>
      </trkpt>
      <trkpt lat="43.889093985781074" lon="5.142975021153688">
        <ele>164.03999999999999</ele>
        <time>2025-05-17T10:06:00Z</time>
      </trkpt>
      <trkpt lat="43.889093985781074" lon="5.142975021153688">
        <ele>164.52000000000001</ele>
        <time>2025-05-17T10:06:01Z</time>
      </trkpt>
      <trkpt lat="43.889242010191083" lon="5.142917018383741">
        <ele>165.47999999999999</ele>
        <time>2025-05-17T10:06:02Z</time>
      </trkpt>
      <trkpt lat="43.889278974384069" lon="5.14295800589025">
        <ele>166.44999999999999</ele>
        <time>2025-05-17T10:06:03Z</time>
      </trkpt>
      <trkpt lat="43.889334965497255" lon="5.143019026145339">
        <ele>167.41</ele>
        <time>2025-05-17T10:06:04Z</time>
      </trkpt>
      <trkpt lat="43.889388022944331" lon="5.143101001158357">
        <ele>167.88999999999999</ele>
        <time>2025-05-17T10:06:05Z</time>
      </trkpt>
      <trkpt lat="43.889439990743995" lon="5.143240978941321">
        <ele>168.37</ele>
        <time>2025-05-17T10:06:06Z</time>
      </trkpt>
      <trkpt lat="43.889501010999084" lon="5.143403001129627">
        <ele>168.37</ele>
        <time>2025-05-17T10:06:07Z</time>
      </trkpt>
      <trkpt lat="43.889565970748663" lon="5.143576003611088">
        <ele>168.37</ele>
        <time>2025-05-17T10:06:08Z</time>
      </trkpt>
      <trkpt lat="43.889582986012101" lon="5.143768033012748">
        <ele>168.37</ele>
        <time>2025-05-17T10:06:09Z</time>
      </trkpt>
      <trkpt lat="43.889602012932301" lon="5.143972970545292">
        <ele>168.37</ele>
        <time>2025-05-17T10:06:10Z</time>
      </trkpt>
      <trkpt lat="43.889626991003752" lon="5.14495600014925">
        <ele>168.37</ele>
        <time>2025-05-17T10:06:15Z</time>
      </trkpt>
      <trkpt lat="43.889651969075203" lon="5.145477019250393">
        <ele>167.88999999999999</ele>
        <time>2025-05-17T10:06:19Z</time>
      </trkpt>
      <trkpt lat="43.889651969075203" lon="5.145576009526849">
        <ele>167.88999999999999</ele>
        <time>2025-05-17T10:06:20Z</time>
      </trkpt>
      <trkpt lat="43.889651969075203" lon="5.145671982318163">
        <ele>167.88999999999999</ele>
        <time>2025-05-17T10:06:21Z</time>
      </trkpt>
      <trkpt lat="43.889651969075203" lon="5.145768038928509">
        <ele>168.37</ele>
        <time>2025-05-17T10:06:22Z</time>
      </trkpt>
      <trkpt lat="43.889651969075203" lon="5.145864011719823">
        <ele>168.37</ele>
        <time>2025-05-17T10:06:23Z</time>
      </trkpt>
      <trkpt lat="43.889717012643814" lon="5.147062037140131">
        <ele>169.33000000000001</ele>
        <time>2025-05-17T10:06:33Z</time>
      </trkpt>
      <trkpt lat="43.889749031513929" lon="5.14731802046299">
        <ele>169.81</ele>
        <time>2025-05-17T10:06:35Z</time>
      </trkpt>
      <trkpt lat="43.889775015413761" lon="5.147442994639278">
        <ele>169.81</ele>
        <time>2025-05-17T10:06:36Z</time>
      </trkpt>
      <trkpt lat="43.889813991263509" lon="5.147561011835933">
        <ele>169.81</ele>
        <time>2025-05-17T10:06:37Z</time>
      </trkpt>
      <trkpt lat="43.889865037053823" lon="5.147681962698698">
        <ele>169.81</ele>
        <time>2025-05-17T10:06:38Z</time>
      </trkpt>
      <trkpt lat="43.889935025945306" lon="5.147781958803535">
        <ele>169.33000000000001</ele>
        <time>2025-05-17T10:06:39Z</time>
      </trkpt>
      <trkpt lat="43.890004009008408" lon="5.147882960736752">
        <ele>168.84999999999999</ele>
        <time>2025-05-17T10:06:40Z</time>
      </trkpt>
      <trkpt lat="43.890071986243129" lon="5.147973988205195">
        <ele>168.37</ele>
        <time>2025-05-17T10:06:41Z</time>
      </trkpt>
      <trkpt lat="43.890264015644789" lon="5.148218991234899">
        <ele>166.93000000000001</ele>
        <time>2025-05-17T10:06:44Z</time>
      </trkpt>
      <trkpt lat="43.890384966507554" lon="5.148472040891647">
        <ele>166.93000000000001</ele>
        <time>2025-05-17T10:06:47Z</time>
      </trkpt>
      <trkpt lat="43.890412962064147" lon="5.14862802810967">
        <ele>167.41</ele>
        <time>2025-05-17T10:06:49Z</time>
      </trkpt>
      <trkpt lat="43.890418997034431" lon="5.148704973980784">
        <ele>167.88999999999999</ele>
        <time>2025-05-17T10:06:50Z</time>
      </trkpt>
      <trkpt lat="43.890424026176333" lon="5.148768005892634">
        <ele>167.88999999999999</ele>
        <time>2025-05-17T10:06:51Z</time>
      </trkpt>
      <trkpt lat="43.890424026176333" lon="5.148768005892634">
        <ele>168.37</ele>
        <time>2025-05-17T10:06:52Z</time>
      </trkpt>
      <trkpt lat="43.890397036448121" lon="5.148848975077272">
        <ele>168.37</ele>
        <time>2025-05-17T10:06:53Z</time>
      </trkpt>
      <trkpt lat="43.890382032841444" lon="5.148894991725683">
        <ele>168.37</ele>
        <time>2025-05-17T10:06:54Z</time>
      </trkpt>
      <trkpt lat="43.890363005921245" lon="5.14895198866725">
        <ele>168.37</ele>
        <time>2025-05-17T10:06:55Z</time>
      </trkpt>
      <trkpt lat="43.890338027849793" lon="5.149026000872254">
        <ele>168.84999999999999</ele>
        <time>2025-05-17T10:06:56Z</time>
      </trkpt>
      <trkpt lat="43.890313971787691" lon="5.149092972278595">
        <ele>168.84999999999999</ele>
        <time>2025-05-17T10:06:57Z</time>
      </trkpt>
      <trkpt lat="43.890283964574337" lon="5.149176036939025">
        <ele>168.84999999999999</ele>
        <time>2025-05-17T10:06:58Z</time>
      </trkpt>
      <trkpt lat="43.890252029523253" lon="5.149272009730339">
        <ele>168.37</ele>
        <time>2025-05-17T10:06:59Z</time>
      </trkpt>
      <trkpt lat="43.890243982896209" lon="5.149373011663556">
        <ele>168.37</ele>
        <time>2025-05-17T10:07:00Z</time>
      </trkpt>
      <trkpt lat="43.890236020088196" lon="5.149480970576406">
        <ele>168.37</ele>
        <time>2025-05-17T10:07:01Z</time>
      </trkpt>
      <trkpt lat="43.890239037573338" lon="5.149591024965048">
        <ele>168.37</ele>
        <time>2025-05-17T10:07:02Z</time>
      </trkpt>
      <trkpt lat="43.890254041180015" lon="5.149690015241504">
        <ele>168.37</ele>
        <time>2025-05-17T10:07:03Z</time>
      </trkpt>
      <trkpt lat="43.89026896096766" lon="5.149783976376057">
        <ele>168.37</ele>
        <time>2025-05-17T10:07:04Z</time>
      </trkpt>
      <trkpt lat="43.890282958745956" lon="5.149877015501261">
        <ele>168.84999999999999</ele>
        <time>2025-05-17T10:07:05Z</time>
      </trkpt>
      <trkpt lat="43.890297962352633" lon="5.149970976635814">
        <ele>168.84999999999999</ele>
        <time>2025-05-17T10:07:06Z</time>
      </trkpt>
      <trkpt lat="43.890511030331254" lon="5.15112197957933">
        <ele>168.84999999999999</ele>
        <time>2025-05-17T10:07:17Z</time>
      </trkpt>
      <trkpt lat="43.89065402559936" lon="5.151798985898495">
        <ele>165.96000000000001</ele>
        <time>2025-05-17T10:07:23Z</time>
      </trkpt>
      <trkpt lat="43.89067598618567" lon="5.151903005316854">
        <ele>165.96000000000001</ele>
        <time>2025-05-17T10:07:24Z</time>
      </trkpt>
      <trkpt lat="43.890639021992683" lon="5.152094028890133">
        <ele>165.47999999999999</ele>
        <time>2025-05-17T10:07:25Z</time>
      </trkpt>
      <trkpt lat="43.890658970922232" lon="5.152182960882783">
        <ele>165.47999999999999</ele>
        <time>2025-05-17T10:07:26Z</time>
      </trkpt>
      <trkpt lat="43.89061102643609" lon="5.152278011664748">
        <ele>165</ele>
        <time>2025-05-17T10:07:27Z</time>
      </trkpt>
      <trkpt lat="43.890538020059466" lon="5.152380019426346">
        <ele>165</ele>
        <time>2025-05-17T10:07:28Z</time>
      </trkpt>
      <trkpt lat="43.890467025339603" lon="5.152467023581266">
        <ele>164.52000000000001</ele>
        <time>2025-05-17T10:07:29Z</time>
      </trkpt>
      <trkpt lat="43.890236020088196" lon="5.152749996632338">
        <ele>162.12</ele>
        <time>2025-05-17T10:07:32Z</time>
      </trkpt>
      <trkpt lat="43.890095036476851" lon="5.152924004942179">
        <ele>160.68000000000001</ele>
        <time>2025-05-17T10:07:34Z</time>
      </trkpt>
      <trkpt lat="43.890034016221762" lon="5.152998017147183">
        <ele>159.72</ele>
        <time>2025-05-17T10:07:35Z</time>
      </trkpt>
      <trkpt lat="43.889982970431447" lon="5.153059959411621">
        <ele>159.24000000000001</ele>
        <time>2025-05-17T10:07:36Z</time>
      </trkpt>
      <trkpt lat="43.889931002631783" lon="5.153123997151852">
        <ele>158.75</ele>
        <time>2025-05-17T10:07:37Z</time>
      </trkpt>
      <trkpt lat="43.889912981539965" lon="5.153145035728812">
        <ele>157.78999999999999</ele>
        <time>2025-05-17T10:07:38Z</time>
      </trkpt>
      <trkpt lat="43.889891020953655" lon="5.153171019628644">
        <ele>157.31</ele>
        <time>2025-05-17T10:07:39Z</time>
      </trkpt>
      <trkpt lat="43.889876017346978" lon="5.153189040720463">
        <ele>156.34999999999999</ele>
        <time>2025-05-17T10:07:40Z</time>
      </trkpt>
      <trkpt lat="43.889876017346978" lon="5.153189040720463">
        <ele>155.87</ele>
        <time>2025-05-17T10:07:53Z</time>
      </trkpt>
      <trkpt lat="43.889876017346978" lon="5.153189040720463">
        <ele>152.03</ele>
        <time>2025-05-17T10:08:15Z</time>
      </trkpt>
      <trkpt lat="43.889766968786716" lon="5.153315020725131">
        <ele>152.50999999999999</ele>
        <time>2025-05-17T10:08:20Z</time>
      </trkpt>
      <trkpt lat="43.889722963795066" lon="5.153366988524795">
        <ele>152.50999999999999</ele>
        <time>2025-05-17T10:08:21Z</time>
      </trkpt>
      <trkpt lat="43.889004969969392" lon="5.154243987053633">
        <ele>152.03</ele>
        <time>2025-05-17T10:08:33Z</time>
      </trkpt>
      <trkpt lat="43.888495014980435" lon="5.155251994729042">
        <ele>149.13999999999999</ele>
        <time>2025-05-17T10:08:43Z</time>
      </trkpt>
      <trkpt lat="43.88801297172904" lon="5.156552027910948">
        <ele>144.81999999999999</ele>
        <time>2025-05-17T10:08:54Z</time>
      </trkpt>
      <trkpt lat="43.887503016740084" lon="5.157607980072498">
        <ele>142.88999999999999</ele>
        <time>2025-05-17T10:09:04Z</time>
      </trkpt>
      <trkpt lat="43.886993983760476" lon="5.158869959414005">
        <ele>141.44999999999999</ele>
        <time>2025-05-17T10:09:13Z</time>
      </trkpt>
      <trkpt lat="43.886841014027596" lon="5.159646039828658">
        <ele>141.93000000000001</ele>
        <time>2025-05-17T10:09:18Z</time>
      </trkpt>
      <trkpt lat="43.886841014027596" lon="5.159776965156198">
        <ele>142.41</ele>
        <time>2025-05-17T10:09:19Z</time>
      </trkpt>
      <trkpt lat="43.886855011805892" lon="5.159896994009614">
        <ele>142.41</ele>
        <time>2025-05-17T10:09:20Z</time>
      </trkpt>
      <trkpt lat="43.886882001534104" lon="5.160005036741495">
        <ele>142.41</ele>
        <time>2025-05-17T10:09:21Z</time>
      </trkpt>
      <trkpt lat="43.886906979605556" lon="5.160106038674712">
        <ele>142.88999999999999</ele>
        <time>2025-05-17T10:09:22Z</time>
      </trkpt>
      <trkpt lat="43.887142008170485" lon="5.16102503053844">
        <ele>146.74000000000001</ele>
        <time>2025-05-17T10:09:32Z</time>
      </trkpt>
      <trkpt lat="43.887248961254954" lon="5.162302013486624">
        <ele>149.62</ele>
        <time>2025-05-17T10:09:40Z</time>
      </trkpt>
      <trkpt lat="43.887248961254954" lon="5.162505023181438">
        <ele>150.58000000000001</ele>
        <time>2025-05-17T10:09:41Z</time>
      </trkpt>
      <trkpt lat="43.887162962928414" lon="5.163998007774353">
        <ele>153.94999999999999</ele>
        <time>2025-05-17T10:09:48Z</time>
      </trkpt>
      <trkpt lat="43.886806983500719" lon="5.165385967120528">
        <ele>156.34999999999999</ele>
        <time>2025-05-17T10:09:55Z</time>
      </trkpt>
      <trkpt lat="43.886734982952476" lon="5.165539020672441">
        <ele>156.34999999999999</ele>
        <time>2025-05-17T10:09:56Z</time>
      </trkpt>
      <trkpt lat="43.886328041553497" lon="5.166264977306128">
        <ele>154.91</ele>
        <time>2025-05-17T10:10:03Z</time>
      </trkpt>
      <trkpt lat="43.886218992993236" lon="5.166471004486084">
        <ele>154.91</ele>
        <time>2025-05-17T10:10:06Z</time>
      </trkpt>
      <trkpt lat="43.886123020201921" lon="5.166511991992593">
        <ele>154.91</ele>
        <time>2025-05-17T10:10:07Z</time>
      </trkpt>
      <trkpt lat="43.886111034080386" lon="5.166557002812624">
        <ele>154.91</ele>
        <time>2025-05-17T10:10:08Z</time>
      </trkpt>
      <trkpt lat="43.886122014373541" lon="5.166663033887744">
        <ele>154.91</ele>
        <time>2025-05-17T10:10:09Z</time>
      </trkpt>
      <trkpt lat="43.886106004938483" lon="5.166724976152182">
        <ele>155.38999999999999</ele>
        <time>2025-05-17T10:10:10Z</time>
      </trkpt>
      <trkpt lat="43.886088989675045" lon="5.166791025549173">
        <ele>155.38999999999999</ele>
        <time>2025-05-17T10:10:11Z</time>
      </trkpt>
      <trkpt lat="43.886069962754846" lon="5.166865037754178">
        <ele>154.91</ele>
        <time>2025-05-17T10:10:12Z</time>
      </trkpt>
      <trkpt lat="43.885767962783575" lon="5.167833985760808">
        <ele>155.38999999999999</ele>
        <time>2025-05-17T10:10:22Z</time>
      </trkpt>
      <trkpt lat="43.885407038033009" lon="5.168870994821191">
        <ele>154.43000000000001</ele>
        <time>2025-05-17T10:10:32Z</time>
      </trkpt>
      <trkpt lat="43.885298995301127" lon="5.169090013951063">
        <ele>153.47</ele>
        <time>2025-05-17T10:10:34Z</time>
      </trkpt>
      <trkpt lat="43.885233029723167" lon="5.169161008670926">
        <ele>153.47</ele>
        <time>2025-05-17T10:10:35Z</time>
      </trkpt>
      <trkpt lat="43.885168991982937" lon="5.169228985905647">
        <ele>152.99000000000001</ele>
        <time>2025-05-17T10:10:36Z</time>
      </trkpt>
      <trkpt lat="43.885106965899467" lon="5.169294029474258">
        <ele>152.50999999999999</ele>
        <time>2025-05-17T10:10:37Z</time>
      </trkpt>
      <trkpt lat="43.885037982836366" lon="5.169368041679263">
        <ele>152.50999999999999</ele>
        <time>2025-05-17T10:10:38Z</time>
      </trkpt>
      <trkpt lat="43.884991966187954" lon="5.169400982558727">
        <ele>152.03</ele>
        <time>2025-05-17T10:10:39Z</time>
      </trkpt>
      <trkpt lat="43.88496003113687" lon="5.169424032792449">
        <ele>152.03</ele>
        <time>2025-05-17T10:10:40Z</time>
      </trkpt>
      <trkpt lat="43.884941004216671" lon="5.169438030570746">
        <ele>151.53999999999999</ele>
        <time>2025-05-17T10:10:41Z</time>
      </trkpt>
      <trkpt lat="43.884941004216671" lon="5.169438030570746">
        <ele>151.53999999999999</ele>
        <time>2025-05-17T10:10:42Z</time>
      </trkpt>
      <trkpt lat="43.88491895981133" lon="5.169453034177423">
        <ele>151.06</ele>
        <time>2025-05-17T10:10:45Z</time>
      </trkpt>
      <trkpt lat="43.88487302698195" lon="5.169412968680263">
        <ele>151.53999999999999</ele>
        <time>2025-05-17T10:10:46Z</time>
      </trkpt>
      <trkpt lat="43.884890964254737" lon="5.169486980885267">
        <ele>151.53999999999999</ele>
        <time>2025-05-17T10:10:47Z</time>
      </trkpt>
      <trkpt lat="43.884914014488459" lon="5.169584965333343">
        <ele>151.53999999999999</ele>
        <time>2025-05-17T10:10:48Z</time>
      </trkpt>
      <trkpt lat="43.88493899255991" lon="5.169693008065224">
        <ele>151.53999999999999</ele>
        <time>2025-05-17T10:10:49Z</time>
      </trkpt>
      <trkpt lat="43.885202016681433" lon="5.17084401100874">
        <ele>151.53999999999999</ele>
        <time>2025-05-17T10:10:58Z</time>
      </trkpt>
      <trkpt lat="43.885588003322482" lon="5.172459958121181">
        <ele>149.13999999999999</ele>
        <time>2025-05-17T10:11:08Z</time>
      </trkpt>
      <trkpt lat="43.885791013017297" lon="5.173322036862373">
        <ele>150.09999999999999</ele>
        <time>2025-05-17T10:11:13Z</time>
      </trkpt>
      <trkpt lat="43.886288981884718" lon="5.175114003941417">
        <ele>153.47</ele>
        <time>2025-05-17T10:11:24Z</time>
      </trkpt>
      <trkpt lat="43.886900022625923" lon="5.17694603651762">
        <ele>161.16</ele>
        <time>2025-05-17T10:11:36Z</time>
      </trkpt>
      <trkpt lat="43.887574011459947" lon="5.17890396527946">
        <ele>169.81</ele>
        <time>2025-05-17T10:11:49Z</time>
      </trkpt>
      <trkpt lat="43.888151021674275" lon="5.180593002587557">
        <ele>175.09999999999999</ele>
        <time>2025-05-17T10:12:00Z</time>
      </trkpt>
      <trkpt lat="43.888918971642852" lon="5.181732019409537">
        <ele>177.97999999999999</ele>
        <time>2025-05-17T10:12:07Z</time>
      </trkpt>
      <trkpt lat="43.889594972133636" lon="5.182586973533034">
        <ele>178.94</ele>
        <time>2025-05-17T10:12:12Z</time>
      </trkpt>
      <trkpt lat="43.890746980905533" lon="5.184979001060128">
        <ele>187.11000000000001</ele>
        <time>2025-05-17T10:12:23Z</time>
      </trkpt>
      <trkpt lat="43.891612999141216" lon="5.186448013409972">
        <ele>195.28</ele>
        <time>2025-05-17T10:12:31Z</time>
      </trkpt>
      <trkpt lat="43.892649002373219" lon="5.187595998868346">
        <ele>208.25999999999999</ele>
        <time>2025-05-17T10:12:40Z</time>
      </trkpt>
      <trkpt lat="43.893412007018924" lon="5.18829395994544">
        <ele>217.88</ele>
        <time>2025-05-17T10:12:45Z</time>
      </trkpt>
      <trkpt lat="43.894860986620188" lon="5.189185040071607">
        <ele>232.78</ele>
        <time>2025-05-17T10:12:53Z</time>
      </trkpt>
      <trkpt lat="43.896527979522943" lon="5.189996995031834">
        <ele>246.72</ele>
        <time>2025-05-17T10:13:02Z</time>
      </trkpt>
      <trkpt lat="43.897664984688163" lon="5.190232023596764">
        <ele>255.37</ele>
        <time>2025-05-17T10:13:08Z</time>
      </trkpt>
      <trkpt lat="43.897848967462778" lon="5.190324978902936">
        <ele>256.81</ele>
        <time>2025-05-17T10:13:09Z</time>
      </trkpt>
      <trkpt lat="43.898015012964606" lon="5.190436039119959">
        <ele>258.25</ele>
        <time>2025-05-17T10:13:10Z</time>
      </trkpt>
      <trkpt lat="43.8981310185045" lon="5.190578028559685">
        <ele>260.17000000000002</ele>
        <time>2025-05-17T10:13:11Z</time>
      </trkpt>
      <trkpt lat="43.898233026266098" lon="5.190738039091229">
        <ele>261.62</ele>
        <time>2025-05-17T10:13:12Z</time>
      </trkpt>
      <trkpt lat="43.898332016542554" lon="5.190944988280535">
        <ele>262.57999999999998</ele>
        <time>2025-05-17T10:13:13Z</time>
      </trkpt>
      <trkpt lat="43.898574002087116" lon="5.191347990185022">
        <ele>264.5</ele>
        <time>2025-05-17T10:13:15Z</time>
      </trkpt>
      <trkpt lat="43.898727977648377" lon="5.191517975181341">
        <ele>265.45999999999998</ele>
        <time>2025-05-17T10:13:16Z</time>
      </trkpt>
      <trkpt lat="43.899836987257004" lon="5.19237301312387">
        <ele>271.70999999999998</ele>
        <time>2025-05-17T10:13:23Z</time>
      </trkpt>
      <trkpt lat="43.900316013023257" lon="5.192692028358579">
        <ele>275.56</ele>
        <time>2025-05-17T10:13:26Z</time>
      </trkpt>
      <trkpt lat="43.90044903382659" lon="5.19284700974822">
        <ele>276.51999999999998</ele>
        <time>2025-05-17T10:13:27Z</time>
      </trkpt>
      <trkpt lat="43.90057903714478" lon="5.19299796782434">
        <ele>277.48000000000002</ele>
        <time>2025-05-17T10:13:28Z</time>
      </trkpt>
      <trkpt lat="43.900706022977829" lon="5.193143980577588">
        <ele>277.95999999999998</ele>
        <time>2025-05-17T10:13:29Z</time>
      </trkpt>
      <trkpt lat="43.900865027680993" lon="5.193195026367903">
        <ele>278.44</ele>
        <time>2025-05-17T10:13:30Z</time>
      </trkpt>
      <trkpt lat="43.901014979928732" lon="5.193242970854044">
        <ele>279.88</ele>
        <time>2025-05-17T10:13:31Z</time>
      </trkpt>
      <trkpt lat="43.901155963540077" lon="5.193288987502456">
        <ele>280.83999999999997</ele>
        <time>2025-05-17T10:13:32Z</time>
      </trkpt>
      <trkpt lat="43.901293007656932" lon="5.193332992494106">
        <ele>282.27999999999997</ele>
        <time>2025-05-17T10:13:33Z</time>
      </trkpt>
      <trkpt lat="43.901398032903671" lon="5.193456038832665">
        <ele>283.25</ele>
        <time>2025-05-17T10:13:34Z</time>
      </trkpt>
      <trkpt lat="43.901485037058592" lon="5.193567015230656">
        <ele>284.20999999999998</ele>
        <time>2025-05-17T10:13:35Z</time>
      </trkpt>
      <trkpt lat="43.901544967666268" lon="5.193678997457027">
        <ele>285.17000000000002</ele>
        <time>2025-05-17T10:13:36Z</time>
      </trkpt>
      <trkpt lat="43.901561982929707" lon="5.193796008825302">
        <ele>286.13</ele>
        <time>2025-05-17T10:13:37Z</time>
      </trkpt>
      <trkpt lat="43.901575980708003" lon="5.193890975788236">
        <ele>287.08999999999997</ele>
        <time>2025-05-17T10:13:38Z</time>
      </trkpt>
      <trkpt lat="43.901586038991809" lon="5.193962976336479">
        <ele>287.56999999999999</ele>
        <time>2025-05-17T10:13:39Z</time>
      </trkpt>
      <trkpt lat="43.901595007628202" lon="5.19402801990509">
        <ele>288.52999999999997</ele>
        <time>2025-05-17T10:13:40Z</time>
      </trkpt>
      <trkpt lat="43.901603976264596" lon="5.194087028503418">
        <ele>289.00999999999999</ele>
        <time>2025-05-17T10:13:41Z</time>
      </trkpt>
      <trkpt lat="43.901668014004827" lon="5.194193981587887">
        <ele>289.49000000000001</ele>
        <time>2025-05-17T10:13:42Z</time>
      </trkpt>
      <trkpt lat="43.901689974591136" lon="5.19419901072979">
        <ele>289.49000000000001</ele>
        <time>2025-05-17T10:13:43Z</time>
      </trkpt>
      <trkpt lat="43.901764992624521" lon="5.194218037649989">
        <ele>289.97000000000003</ele>
        <time>2025-05-17T10:13:44Z</time>
      </trkpt>
      <trkpt lat="43.901856020092964" lon="5.194238992407918">
        <ele>290.45999999999998</ele>
        <time>2025-05-17T10:13:45Z</time>
      </trkpt>
      <trkpt lat="43.902580970898271" lon="5.194430015981197">
        <ele>294.77999999999997</ele>
        <time>2025-05-17T10:13:51Z</time>
      </trkpt>
      <trkpt lat="43.902698988094926" lon="5.194491036236286">
        <ele>295.74000000000001</ele>
        <time>2025-05-17T10:13:52Z</time>
      </trkpt>
      <trkpt lat="43.902811976149678" lon="5.194576028734446">
        <ele>296.22000000000003</ele>
        <time>2025-05-17T10:13:53Z</time>
      </trkpt>
      <trkpt lat="43.902928987517953" lon="5.194665966555476">
        <ele>297.18000000000001</ele>
        <time>2025-05-17T10:13:54Z</time>
      </trkpt>
      <trkpt lat="43.903040969744325" lon="5.194751964882016">
        <ele>298.14999999999998</ele>
        <time>2025-05-17T10:13:55Z</time>
      </trkpt>
      <trkpt lat="43.903181031346321" lon="5.194779960438609">
        <ele>299.11000000000001</ele>
        <time>2025-05-17T10:13:56Z</time>
      </trkpt>
      <trkpt lat="43.903318997472525" lon="5.194796975702047">
        <ele>300.06999999999999</ele>
        <time>2025-05-17T10:13:57Z</time>
      </trkpt>
      <trkpt lat="43.903465010225773" lon="5.19480200484395">
        <ele>301.02999999999997</ele>
        <time>2025-05-17T10:13:58Z</time>
      </trkpt>
      <trkpt lat="43.903612028807402" lon="5.194807033985853">
        <ele>301.99000000000001</ele>
        <time>2025-05-17T10:13:59Z</time>
      </trkpt>
      <trkpt lat="43.904071021825075" lon="5.194792030379176">
        <ele>304.88</ele>
        <time>2025-05-17T10:14:02Z</time>
      </trkpt>
      <trkpt lat="43.904218040406704" lon="5.194760011509061">
        <ele>305.83999999999997</ele>
        <time>2025-05-17T10:14:03Z</time>
      </trkpt>
      <trkpt lat="43.904358018189669" lon="5.194711983203888">
        <ele>306.80000000000001</ele>
        <time>2025-05-17T10:14:04Z</time>
      </trkpt>
      <trkpt lat="43.904840983450413" lon="5.194597989320755">
        <ele>310.16000000000003</ele>
        <time>2025-05-17T10:14:08Z</time>
      </trkpt>
      <trkpt lat="43.904956988990307" lon="5.194617016240954">
        <ele>311.12</ele>
        <time>2025-05-17T10:14:09Z</time>
      </trkpt>
      <trkpt lat="43.905047010630369" lon="5.194720029830933">
        <ele>312.08999999999997</ele>
        <time>2025-05-17T10:14:10Z</time>
      </trkpt>
      <trkpt lat="43.905110964551568" lon="5.194837963208556">
        <ele>312.56999999999999</ele>
        <time>2025-05-17T10:14:11Z</time>
      </trkpt>
      <trkpt lat="43.905128985643387" lon="5.194955980405211">
        <ele>313.52999999999997</ele>
        <time>2025-05-17T10:14:12Z</time>
      </trkpt>
      <trkpt lat="43.905138960108161" lon="5.195099981501699">
        <ele>314.00999999999999</ele>
        <time>2025-05-17T10:14:13Z</time>
      </trkpt>
      <trkpt lat="43.905100990086794" lon="5.195248005911708">
        <ele>315.44999999999999</ele>
        <time>2025-05-17T10:14:14Z</time>
      </trkpt>
      <trkpt lat="43.90502898953855" lon="5.19536099396646">
        <ele>316.41000000000003</ele>
        <time>2025-05-17T10:14:15Z</time>
      </trkpt>
      <trkpt lat="43.90496201813221" lon="5.195464007556438">
        <ele>316.88999999999999</ele>
        <time>2025-05-17T10:14:16Z</time>
      </trkpt>
      <trkpt lat="43.904890017583966" lon="5.19557598978281">
        <ele>316.88999999999999</ele>
        <time>2025-05-17T10:14:17Z</time>
      </trkpt>
      <trkpt lat="43.904478969052434" lon="5.196340000256896">
        <ele>316.88999999999999</ele>
        <time>2025-05-17T10:14:23Z</time>
      </trkpt>
      <trkpt lat="43.904478969052434" lon="5.196457011625171">
        <ele>316.41000000000003</ele>
        <time>2025-05-17T10:14:24Z</time>
      </trkpt>
      <trkpt lat="43.904497995972633" lon="5.196599001064897">
        <ele>316.41000000000003</ele>
        <time>2025-05-17T10:14:25Z</time>
      </trkpt>
      <trkpt lat="43.904558010399342" lon="5.196725986897945">
        <ele>315.93000000000001</ele>
        <time>2025-05-17T10:14:26Z</time>
      </trkpt>
      <trkpt lat="43.904649037867785" lon="5.19682296551764">
        <ele>315.93000000000001</ele>
        <time>2025-05-17T10:14:27Z</time>
      </trkpt>
      <trkpt lat="43.904752973467112" lon="5.196879962459207">
        <ele>315.93000000000001</ele>
        <time>2025-05-17T10:14:28Z</time>
      </trkpt>
      <trkpt lat="43.905895007774234" lon="5.197412967681885">
        <ele>321.22000000000003</ele>
        <time>2025-05-17T10:14:39Z</time>
      </trkpt>
      <trkpt lat="43.906010007485747" lon="5.19740098156035">
        <ele>322.18000000000001</ele>
        <time>2025-05-17T10:14:40Z</time>
      </trkpt>
      <trkpt lat="43.906244030222297" lon="5.197376003488898">
        <ele>323.13999999999999</ele>
        <time>2025-05-17T10:14:42Z</time>
      </trkpt>
      <trkpt lat="43.90635802410543" lon="5.197353959083557">
        <ele>324.10000000000002</ele>
        <time>2025-05-17T10:14:43Z</time>
      </trkpt>
      <trkpt lat="43.907191017642617" lon="5.197140974923968">
        <ele>327.94999999999999</ele>
        <time>2025-05-17T10:14:50Z</time>
      </trkpt>
      <trkpt lat="43.907316997647285" lon="5.197157990187407">
        <ele>328.91000000000003</ele>
        <time>2025-05-17T10:14:51Z</time>
      </trkpt>
      <trkpt lat="43.907435014843941" lon="5.197216998785734">
        <ele>329.38999999999999</ele>
        <time>2025-05-17T10:14:52Z</time>
      </trkpt>
      <trkpt lat="43.907552026212215" lon="5.197280030697584">
        <ele>329.87</ele>
        <time>2025-05-17T10:14:53Z</time>
      </trkpt>
      <trkpt lat="43.907660990953445" lon="5.197351025417447">
        <ele>330.35000000000002</ele>
        <time>2025-05-17T10:14:54Z</time>
      </trkpt>
      <trkpt lat="43.907769033685327" lon="5.19742202013731">
        <ele>331.31</ele>
        <time>2025-05-17T10:14:55Z</time>
      </trkpt>
      <trkpt lat="43.908262979239225" lon="5.197692001238465">
        <ele>335.16000000000003</ele>
        <time>2025-05-17T10:15:00Z</time>
      </trkpt>
      <trkpt lat="43.908343026414514" lon="5.197692001238465">
        <ele>336.12</ele>
        <time>2025-05-17T10:15:01Z</time>
      </trkpt>
      <trkpt lat="43.908419972285628" lon="5.197692001238465">
        <ele>336.60000000000002</ele>
        <time>2025-05-17T10:15:02Z</time>
      </trkpt>
      <trkpt lat="43.908774023875594" lon="5.197643972933292">
        <ele>340.44</ele>
        <time>2025-05-17T10:15:07Z</time>
      </trkpt>
      <trkpt lat="43.908844012767076" lon="5.197622012346983">
        <ele>340.92000000000002</ele>
        <time>2025-05-17T10:15:08Z</time>
      </trkpt>
      <trkpt lat="43.908912995830178" lon="5.197599967941642">
        <ele>341.41000000000003</ele>
        <time>2025-05-17T10:15:09Z</time>
      </trkpt>
      <trkpt lat="43.908977033570409" lon="5.197579013183713">
        <ele>341.88999999999999</ele>
        <time>2025-05-17T10:15:10Z</time>
      </trkpt>
      <trkpt lat="43.909035958349705" lon="5.197558980435133">
        <ele>342.37</ele>
        <time>2025-05-17T10:15:11Z</time>
      </trkpt>
      <trkpt lat="43.909085998311639" lon="5.197531990706921">
        <ele>342.37</ele>
        <time>2025-05-17T10:15:12Z</time>
      </trkpt>
      <trkpt lat="43.90913100913167" lon="5.197509024292231">
        <ele>342.85000000000002</ele>
        <time>2025-05-17T10:15:13Z</time>
      </trkpt>
      <trkpt lat="43.909167973324656" lon="5.197488991543651">
        <ele>343.32999999999998</ele>
        <time>2025-05-17T10:15:14Z</time>
      </trkpt>
      <trkpt lat="43.909190017729998" lon="5.197478011250496">
        <ele>343.32999999999998</ele>
        <time>2025-05-17T10:15:15Z</time>
      </trkpt>
      <trkpt lat="43.909190017729998" lon="5.197478011250496">
        <ele>342.85000000000002</ele>
        <time>2025-05-17T10:15:27Z</time>
      </trkpt>
      <trkpt lat="43.909190017729998" lon="5.197478011250496">
        <ele>343.32999999999998</ele>
        <time>2025-05-17T10:16:12Z</time>
      </trkpt>
      <trkpt lat="43.909190017729998" lon="5.197478011250496">
        <ele>343.32999999999998</ele>
        <time>2025-05-17T10:17:06Z</time>
      </trkpt>
      <trkpt lat="43.909169984981418" lon="5.197394024580717">
        <ele>335.63999999999999</ele>
        <time>2025-05-17T10:18:16Z</time>
      </trkpt>
      <trkpt lat="43.909099996089935" lon="5.197408022359014">
        <ele>334.68000000000001</ele>
        <time>2025-05-17T10:18:28Z</time>
      </trkpt>
      <trkpt lat="43.909130003303289" lon="5.197446998208761">
        <ele>336.12</ele>
        <time>2025-05-17T10:18:34Z</time>
      </trkpt>
      <trkpt lat="43.909175014123321" lon="5.197485974058509">
        <ele>336.60000000000002</ele>
        <time>2025-05-17T10:18:36Z</time>
      </trkpt>
      <trkpt lat="43.909214995801449" lon="5.197464013472199">
        <ele>336.60000000000002</ele>
        <time>2025-05-17T10:18:37Z</time>
      </trkpt>
      <trkpt lat="43.909360002726316" lon="5.197386983782053">
        <ele>336.60000000000002</ele>
        <time>2025-05-17T10:18:39Z</time>
      </trkpt>
      <trkpt lat="43.909447006881237" lon="5.19735798239708">
        <ele>337.07999999999998</ele>
        <time>2025-05-17T10:18:40Z</time>
      </trkpt>
      <trkpt lat="43.910215962678194" lon="5.197165030986071">
        <ele>340.92000000000002</ele>
        <time>2025-05-17T10:18:48Z</time>
      </trkpt>
      <trkpt lat="43.910311013460159" lon="5.19712002016604">
        <ele>340.92000000000002</ele>
        <time>2025-05-17T10:18:49Z</time>
      </trkpt>
      <trkpt lat="43.91145003028214" lon="5.19660503603518">
        <ele>347.64999999999998</ele>
        <time>2025-05-17T10:19:00Z</time>
      </trkpt>
      <trkpt lat="43.911888990551233" lon="5.196490036323667">
        <ele>350.54000000000002</ele>
        <time>2025-05-17T10:19:04Z</time>
      </trkpt>
      <trkpt lat="43.911998039111495" lon="5.196490036323667">
        <ele>351.5</ele>
        <time>2025-05-17T10:19:05Z</time>
      </trkpt>
      <trkpt lat="43.912391988560557" lon="5.196515014395118">
        <ele>354.38</ele>
        <time>2025-05-17T10:19:09Z</time>
      </trkpt>
      <trkpt lat="43.912495002150536" lon="5.19654099829495">
        <ele>354.86000000000001</ele>
        <time>2025-05-17T10:19:10Z</time>
      </trkpt>
      <trkpt lat="43.913339981809258" lon="5.196748031303287">
        <ele>356.79000000000002</ele>
        <time>2025-05-17T10:19:18Z</time>
      </trkpt>
      <trkpt lat="43.913434026762843" lon="5.196796981617808">
        <ele>356.79000000000002</ele>
        <time>2025-05-17T10:19:19Z</time>
      </trkpt>
      <trkpt lat="43.913526982069016" lon="5.196846015751362">
        <ele>356.79000000000002</ele>
        <time>2025-05-17T10:19:20Z</time>
      </trkpt>
      <trkpt lat="43.913619015365839" lon="5.196894966065884">
        <ele>357.26999999999998</ele>
        <time>2025-05-17T10:19:21Z</time>
      </trkpt>
      <trkpt lat="43.91370601952076" lon="5.196940982714295">
        <ele>357.26999999999998</ele>
        <time>2025-05-17T10:19:22Z</time>
      </trkpt>
      <trkpt lat="43.913763016462326" lon="5.197006026282907">
        <ele>357.26999999999998</ele>
        <time>2025-05-17T10:19:23Z</time>
      </trkpt>
      <trkpt lat="43.913819007575512" lon="5.197069980204105">
        <ele>357.26999999999998</ele>
        <time>2025-05-17T10:19:24Z</time>
      </trkpt>
      <trkpt lat="43.913855971768498" lon="5.197112979367375">
        <ele>357.26999999999998</ele>
        <time>2025-05-17T10:19:25Z</time>
      </trkpt>
      <trkpt lat="43.913849014788866" lon="5.197180034592748">
        <ele>356.79000000000002</ele>
        <time>2025-05-17T10:19:26Z</time>
      </trkpt>
      <trkpt lat="43.913840968161821" lon="5.197263015434146">
        <ele>356.31</ele>
        <time>2025-05-17T10:19:27Z</time>
      </trkpt>
      <trkpt lat="43.913824958726764" lon="5.197340967133641">
        <ele>355.82999999999998</ele>
        <time>2025-05-17T10:19:28Z</time>
      </trkpt>
      <trkpt lat="43.913775002583861" lon="5.197411039844155">
        <ele>355.33999999999997</ele>
        <time>2025-05-17T10:19:29Z</time>
      </trkpt>
      <trkpt lat="43.913701996207237" lon="5.197488991543651">
        <ele>354.86000000000001</ele>
        <time>2025-05-17T10:19:30Z</time>
      </trkpt>
      <trkpt lat="43.913619015365839" lon="5.197526039555669">
        <ele>353.89999999999998</ele>
        <time>2025-05-17T10:19:31Z</time>
      </trkpt>
      <trkpt lat="43.913527987897396" lon="5.197567027062178">
        <ele>352.94</ele>
        <time>2025-05-17T10:19:32Z</time>
      </trkpt>
      <trkpt lat="43.912714021280408" lon="5.197841031476855">
        <ele>348.13</ele>
        <time>2025-05-17T10:19:40Z</time>
      </trkpt>
      <trkpt lat="43.912360975518823" lon="5.197966005653143">
        <ele>345.73000000000002</ele>
        <time>2025-05-17T10:19:44Z</time>
      </trkpt>
      <trkpt lat="43.912201970815659" lon="5.198072036728263">
        <ele>344.76999999999998</ele>
        <time>2025-05-17T10:19:46Z</time>
      </trkpt>
      <trkpt lat="43.912131981924176" lon="5.198134984821081">
        <ele>344.29000000000002</ele>
        <time>2025-05-17T10:19:47Z</time>
      </trkpt>
      <trkpt lat="43.91207498498261" lon="5.198205979540944">
        <ele>344.29000000000002</ele>
        <time>2025-05-17T10:19:48Z</time>
      </trkpt>
      <trkpt lat="43.911796035245061" lon="5.198549972847104">
        <ele>342.85000000000002</ele>
        <time>2025-05-17T10:19:52Z</time>
      </trkpt>
      <trkpt lat="43.9117940235883" lon="5.198552990332246">
        <ele>342.85000000000002</ele>
        <time>2025-05-17T10:19:53Z</time>
      </trkpt>
      <trkpt lat="43.911750018596649" lon="5.198623985052109">
        <ele>342.37</ele>
        <time>2025-05-17T10:19:54Z</time>
      </trkpt>
      <trkpt lat="43.911710036918521" lon="5.198688022792339">
        <ele>342.37</ele>
        <time>2025-05-17T10:19:55Z</time>
      </trkpt>
      <trkpt lat="43.911679023876786" lon="5.198737978935242">
        <ele>341.88999999999999</ele>
        <time>2025-05-17T10:19:56Z</time>
      </trkpt>
      <trkpt lat="43.911657985299826" lon="5.198771003633738">
        <ele>341.88999999999999</ele>
        <time>2025-05-17T10:19:57Z</time>
      </trkpt>
      <trkpt lat="43.911612974479795" lon="5.198844010010362">
        <ele>340.92000000000002</ele>
        <time>2025-05-17T10:20:05Z</time>
      </trkpt>
      <trkpt lat="43.91158196143806" lon="5.198893966153264">
        <ele>340.92000000000002</ele>
        <time>2025-05-17T10:20:06Z</time>
      </trkpt>
      <trkpt lat="43.911553965881467" lon="5.198965966701508">
        <ele>340.92000000000002</ele>
        <time>2025-05-17T10:20:07Z</time>
      </trkpt>
      <trkpt lat="43.911396972835064" lon="5.199375003576279">
        <ele>339.95999999999998</ele>
        <time>2025-05-17T10:20:12Z</time>
      </trkpt>
      <trkpt lat="43.911371994763613" lon="5.199439963325858">
        <ele>339.48000000000002</ele>
        <time>2025-05-17T10:20:13Z</time>
      </trkpt>
      <trkpt lat="43.91132396645844" lon="5.199558986350894">
        <ele>339</ele>
        <time>2025-05-17T10:20:15Z</time>
      </trkpt>
      <trkpt lat="43.911263030022383" lon="5.199625035747886">
        <ele>338.51999999999998</ele>
        <time>2025-05-17T10:20:16Z</time>
      </trkpt>
      <trkpt lat="43.91128096729517" lon="5.199752021580935">
        <ele>338.51999999999998</ele>
        <time>2025-05-17T10:20:17Z</time>
      </trkpt>
      <trkpt lat="43.91128096729517" lon="5.199778005480766">
        <ele>338.51999999999998</ele>
        <time>2025-05-17T10:20:18Z</time>
      </trkpt>
      <trkpt lat="43.91128096729517" lon="5.199858974665403">
        <ele>338.51999999999998</ele>
        <time>2025-05-17T10:20:19Z</time>
      </trkpt>
      <trkpt lat="43.91128096729517" lon="5.199938016012311">
        <ele>338.51999999999998</ele>
        <time>2025-05-17T10:20:20Z</time>
      </trkpt>
      <trkpt lat="43.911306029185653" lon="5.200198022648692">
        <ele>339.48000000000002</ele>
        <time>2025-05-17T10:20:24Z</time>
      </trkpt>
      <trkpt lat="43.91140996478498" lon="5.200609993189573">
        <ele>341.88999999999999</ele>
        <time>2025-05-17T10:20:35Z</time>
      </trkpt>
      <trkpt lat="43.911480037495494" lon="5.2006880287081">
        <ele>341.41000000000003</ele>
        <time>2025-05-17T10:20:38Z</time>
      </trkpt>
      <trkpt lat="43.911492023617029" lon="5.200702026486397">
        <ele>341.41000000000003</ele>
        <time>2025-05-17T10:20:39Z</time>
      </trkpt>
      <trkpt lat="43.911406025290489" lon="5.200657015666366">
        <ele>341.88999999999999</ele>
        <time>2025-05-17T10:20:40Z</time>
      </trkpt>
      <trkpt lat="43.91140803694725" lon="5.200634971261025">
        <ele>341.41000000000003</ele>
        <time>2025-05-17T10:20:42Z</time>
      </trkpt>
      <trkpt lat="43.911455981433392" lon="5.200661960989237">
        <ele>340.92000000000002</ele>
        <time>2025-05-17T10:20:43Z</time>
      </trkpt>
      <trkpt lat="43.911425974220037" lon="5.200628014281392">
        <ele>340.44</ele>
        <time>2025-05-17T10:20:44Z</time>
      </trkpt>
      <trkpt lat="43.911397978663445" lon="5.200572023168206">
        <ele>339.95999999999998</ele>
        <time>2025-05-17T10:20:45Z</time>
      </trkpt>
      <trkpt lat="43.911384986713529" lon="5.200529024004936">
        <ele>339.95999999999998</ele>
        <time>2025-05-17T10:20:46Z</time>
      </trkpt>
      <trkpt lat="43.911375012248755" lon="5.200497005134821">
        <ele>339.48000000000002</ele>
        <time>2025-05-17T10:20:47Z</time>
      </trkpt>
      <trkpt lat="43.91136696562171" lon="5.200469009578228">
        <ele>339</ele>
        <time>2025-05-17T10:20:48Z</time>
      </trkpt>
      <trkpt lat="43.911360008642077" lon="5.200447971001267">
        <ele>338.04000000000002</ele>
        <time>2025-05-17T10:20:49Z</time>
      </trkpt>
      <trkpt lat="43.911360008642077" lon="5.200447971001267">
        <ele>338.51999999999998</ele>
        <time>2025-05-17T10:20:59Z</time>
      </trkpt>
      <trkpt lat="43.911309968680143" lon="5.200399020686746">
        <ele>339</ele>
        <time>2025-05-17T10:21:01Z</time>
      </trkpt>
      <trkpt lat="43.911305023357272" lon="5.200426010414958">
        <ele>338.51999999999998</ele>
        <time>2025-05-17T10:21:02Z</time>
      </trkpt>
      <trkpt lat="43.911295970901847" lon="5.200470015406609">
        <ele>338.51999999999998</ele>
        <time>2025-05-17T10:21:03Z</time>
      </trkpt>
      <trkpt lat="43.911284990608692" lon="5.200523994863033">
        <ele>338.04000000000002</ele>
        <time>2025-05-17T10:21:04Z</time>
      </trkpt>
      <trkpt lat="43.911274010315537" lon="5.200583003461361">
        <ele>338.04000000000002</ele>
        <time>2025-05-17T10:21:05Z</time>
      </trkpt>
      <trkpt lat="43.911264035850763" lon="5.200641006231308">
        <ele>338.04000000000002</ele>
        <time>2025-05-17T10:21:06Z</time>
      </trkpt>
      <trkpt lat="43.911252971738577" lon="5.200700014829636">
        <ele>337.56</ele>
        <time>2025-05-17T10:21:07Z</time>
      </trkpt>
      <trkpt lat="43.9112379681319" lon="5.200781989842653">
        <ele>337.07999999999998</ele>
        <time>2025-05-17T10:21:10Z</time>
      </trkpt>
      <trkpt lat="43.9112379681319" lon="5.200781989842653">
        <ele>337.07999999999998</ele>
        <time>2025-05-17T10:21:11Z</time>
      </trkpt>
      <trkpt lat="43.911207960918546" lon="5.200922973453999">
        <ele>337.07999999999998</ele>
        <time>2025-05-17T10:21:12Z</time>
      </trkpt>
      <trkpt lat="43.911228999495506" lon="5.20094501785934">
        <ele>337.07999999999998</ele>
        <time>2025-05-17T10:21:13Z</time>
      </trkpt>
      <trkpt lat="43.911265041679144" lon="5.200980976223946">
        <ele>337.07999999999998</ele>
        <time>2025-05-17T10:21:14Z</time>
      </trkpt>
      <trkpt lat="43.911312986165285" lon="5.201027998700738">
        <ele>337.07999999999998</ele>
        <time>2025-05-17T10:21:15Z</time>
      </trkpt>
      <trkpt lat="43.911825958639383" lon="5.201455978676677">
        <ele>337.07999999999998</ele>
        <time>2025-05-17T10:21:22Z</time>
      </trkpt>
      <trkpt lat="43.913010992109776" lon="5.202392991632223">
        <ele>327.47000000000003</ele>
        <time>2025-05-17T10:21:34Z</time>
      </trkpt>
      <trkpt lat="43.913849014788866" lon="5.203163959085941">
        <ele>318.81</ele>
        <time>2025-05-17T10:21:43Z</time>
      </trkpt>
      <trkpt lat="43.91392101533711" lon="5.203280970454216">
        <ele>317.85000000000002</ele>
        <time>2025-05-17T10:21:44Z</time>
      </trkpt>
      <trkpt lat="43.91396502032876" lon="5.203408962115645">
        <ele>316.88999999999999</ele>
        <time>2025-05-17T10:21:45Z</time>
      </trkpt>
      <trkpt lat="43.914001984521747" lon="5.203561009839177">
        <ele>315.93000000000001</ele>
        <time>2025-05-17T10:21:46Z</time>
      </trkpt>
      <trkpt lat="43.914040960371494" lon="5.203723032027483">
        <ele>314.97000000000003</ele>
        <time>2025-05-17T10:21:47Z</time>
      </trkpt>
      <trkpt lat="43.914231983944774" lon="5.204513026401401">
        <ele>312.08999999999997</ele>
        <time>2025-05-17T10:21:52Z</time>
      </trkpt>
      <trkpt lat="43.914264002814889" lon="5.204665996134281">
        <ele>310.63999999999999</ele>
        <time>2025-05-17T10:21:53Z</time>
      </trkpt>
      <trkpt lat="43.914264002814889" lon="5.204826006665826">
        <ele>309.68000000000001</ele>
        <time>2025-05-17T10:21:54Z</time>
      </trkpt>
      <trkpt lat="43.914262996986508" lon="5.204969001933932">
        <ele>308.72000000000003</ele>
        <time>2025-05-17T10:21:55Z</time>
      </trkpt>
      <trkpt lat="43.914241958409548" lon="5.205101016908884">
        <ele>308.24000000000001</ele>
        <time>2025-05-17T10:21:56Z</time>
      </trkpt>
      <trkpt lat="43.91422301530838" lon="5.205223979428411">
        <ele>307.27999999999997</ele>
        <time>2025-05-17T10:21:57Z</time>
      </trkpt>
      <trkpt lat="43.914113966748118" lon="5.206110030412674">
        <ele>300.55000000000001</ele>
        <time>2025-05-17T10:22:07Z</time>
      </trkpt>
      <trkpt lat="43.914100974798203" lon="5.206931037828326">
        <ele>297.18000000000001</ele>
        <time>2025-05-17T10:22:15Z</time>
      </trkpt>
      <trkpt lat="43.914130982011557" lon="5.208242973312736">
        <ele>291.42000000000002</ele>
        <time>2025-05-17T10:22:24Z</time>
      </trkpt>
      <trkpt lat="43.914151014760137" lon="5.208398038521409">
        <ele>290.94</ele>
        <time>2025-05-17T10:22:25Z</time>
      </trkpt>
      <trkpt lat="43.914399035274982" lon="5.209351982921362">
        <ele>287.56999999999999</ele>
        <time>2025-05-17T10:22:31Z</time>
      </trkpt>
      <trkpt lat="43.914445973932743" lon="5.209510987624526">
        <ele>286.61000000000001</ele>
        <time>2025-05-17T10:22:32Z</time>
      </trkpt>
      <trkpt lat="43.914525015279651" lon="5.209635039791465">
        <ele>285.64999999999998</ele>
        <time>2025-05-17T10:22:33Z</time>
      </trkpt>
      <trkpt lat="43.914603972807527" lon="5.209761019796133">
        <ele>284.69</ele>
        <time>2025-05-17T10:22:34Z</time>
      </trkpt>
      <trkpt lat="43.914679996669292" lon="5.209880964830518">
        <ele>284.20999999999998</ele>
        <time>2025-05-17T10:22:35Z</time>
      </trkpt>
      <trkpt lat="43.914774041622877" lon="5.209976015612483">
        <ele>283.25</ele>
        <time>2025-05-17T10:22:36Z</time>
      </trkpt>
      <trkpt lat="43.914865991100669" lon="5.210061008110642">
        <ele>282.76999999999998</ele>
        <time>2025-05-17T10:22:37Z</time>
      </trkpt>
      <trkpt lat="43.914956012740731" lon="5.210144994780421">
        <ele>282.27999999999997</ele>
        <time>2025-05-17T10:22:38Z</time>
      </trkpt>
      <trkpt lat="43.915059026330709" lon="5.210191011428833">
        <ele>281.80000000000001</ele>
        <time>2025-05-17T10:22:39Z</time>
      </trkpt>
      <trkpt lat="43.915166985243559" lon="5.210229987278581">
        <ele>281.31999999999999</ele>
        <time>2025-05-17T10:22:40Z</time>
      </trkpt>
      <trkpt lat="43.915278967469931" lon="5.210269968956709">
        <ele>281.31999999999999</ele>
        <time>2025-05-17T10:22:41Z</time>
      </trkpt>
      <trkpt lat="43.915389021858573" lon="5.210310034453869">
        <ele>280.36000000000001</ele>
        <time>2025-05-17T10:22:42Z</time>
      </trkpt>
      <trkpt lat="43.915495974943042" lon="5.210350016131997">
        <ele>279.88</ele>
        <time>2025-05-17T10:22:43Z</time>
      </trkpt>
      <trkpt lat="43.915604017674923" lon="5.210388991981745">
        <ele>279.39999999999998</ele>
        <time>2025-05-17T10:22:44Z</time>
      </trkpt>
      <trkpt lat="43.915680041536689" lon="5.210415981709957">
        <ele>278.44</ele>
        <time>2025-05-17T10:22:45Z</time>
      </trkpt>
      <trkpt lat="43.915746007114649" lon="5.210547996684909">
        <ele>277.95999999999998</ele>
        <time>2025-05-17T10:22:46Z</time>
      </trkpt>
      <trkpt lat="43.915766039863229" lon="5.210631983354688">
        <ele>277</ele>
        <time>2025-05-17T10:22:47Z</time>
      </trkpt>
      <trkpt lat="43.915761010721326" lon="5.210727034136653">
        <ele>276.51999999999998</ele>
        <time>2025-05-17T10:22:48Z</time>
      </trkpt>
      <trkpt lat="43.915720023214817" lon="5.210819989442825">
        <ele>275.56</ele>
        <time>2025-05-17T10:22:49Z</time>
      </trkpt>
      <trkpt lat="43.915625978261232" lon="5.210912022739649">
        <ele>274.11000000000001</ele>
        <time>2025-05-17T10:22:50Z</time>
      </trkpt>
      <trkpt lat="43.915515001863241" lon="5.21091696806252">
        <ele>272.67000000000002</ele>
        <time>2025-05-17T10:22:51Z</time>
      </trkpt>
      <trkpt lat="43.915389021858573" lon="5.210921997204423">
        <ele>271.70999999999998</ele>
        <time>2025-05-17T10:22:52Z</time>
      </trkpt>
      <trkpt lat="43.915247032418847" lon="5.210929038003087">
        <ele>269.79000000000002</ele>
        <time>2025-05-17T10:22:53Z</time>
      </trkpt>
      <trkpt lat="43.915099008008838" lon="5.210958039388061">
        <ele>268.35000000000002</ele>
        <time>2025-05-17T10:22:54Z</time>
      </trkpt>
      <trkpt lat="43.914453014731407" lon="5.211159959435463">
        <ele>261.62</ele>
        <time>2025-05-17T10:22:58Z</time>
      </trkpt>
      <trkpt lat="43.913812972605228" lon="5.211361041292548">
        <ele>256.32999999999998</ele>
        <time>2025-05-17T10:23:02Z</time>
      </trkpt>
      <trkpt lat="43.913655979558825" lon="5.21134402602911">
        <ele>254.88999999999999</ele>
        <time>2025-05-17T10:23:03Z</time>
      </trkpt>
      <trkpt lat="43.913533017039299" lon="5.211331034079194">
        <ele>254.41</ele>
        <time>2025-05-17T10:23:04Z</time>
      </trkpt>
      <trkpt lat="43.913434026762843" lon="5.211320975795388">
        <ele>253.44</ele>
        <time>2025-05-17T10:23:05Z</time>
      </trkpt>
      <trkpt lat="43.91336303204298" lon="5.211385013535619">
        <ele>252.47999999999999</ele>
        <time>2025-05-17T10:23:06Z</time>
      </trkpt>
      <trkpt lat="43.913307962939143" lon="5.211474029347301">
        <ele>251.52000000000001</ele>
        <time>2025-05-17T10:23:07Z</time>
      </trkpt>
      <trkpt lat="43.913304023444653" lon="5.211563967168331">
        <ele>250.56</ele>
        <time>2025-05-17T10:23:08Z</time>
      </trkpt>
      <trkpt lat="43.913313997909427" lon="5.211677961051464">
        <ele>249.59999999999999</ele>
        <time>2025-05-17T10:23:09Z</time>
      </trkpt>
      <trkpt lat="43.913345010951161" lon="5.211764965206385">
        <ele>249.12</ele>
        <time>2025-05-17T10:23:10Z</time>
      </trkpt>
      <trkpt lat="43.913422962650657" lon="5.211820034310222">
        <ele>248.16</ele>
        <time>2025-05-17T10:23:11Z</time>
      </trkpt>
      <trkpt lat="43.913516001775861" lon="5.211885999888182">
        <ele>247.68000000000001</ele>
        <time>2025-05-17T10:23:12Z</time>
      </trkpt>
      <trkpt lat="43.913730997592211" lon="5.212037963792682">
        <ele>246.72</ele>
        <time>2025-05-17T10:23:14Z</time>
      </trkpt>
      <trkpt lat="43.913852032274008" lon="5.212129997089505">
        <ele>246.22999999999999</ele>
        <time>2025-05-17T10:23:15Z</time>
      </trkpt>
      <trkpt lat="43.914526021108031" lon="5.212877998128533">
        <ele>241.91</ele>
        <time>2025-05-17T10:23:21Z</time>
      </trkpt>
      <trkpt lat="43.914596009999514" lon="5.212995009496808">
        <ele>240.94999999999999</ele>
        <time>2025-05-17T10:23:22Z</time>
      </trkpt>
      <trkpt lat="43.914599027484655" lon="5.21310799755156">
        <ele>239.99000000000001</ele>
        <time>2025-05-17T10:23:23Z</time>
      </trkpt>
      <trkpt lat="43.914586035534739" lon="5.213270019739866">
        <ele>239.02000000000001</ele>
        <time>2025-05-17T10:23:24Z</time>
      </trkpt>
      <trkpt lat="43.914535995572805" lon="5.213406980037689">
        <ele>238.06</ele>
        <time>2025-05-17T10:23:25Z</time>
      </trkpt>
      <trkpt lat="43.914471035823226" lon="5.213586017489433">
        <ele>237.09999999999999</ele>
        <time>2025-05-17T10:23:26Z</time>
      </trkpt>
      <trkpt lat="43.9137920178473" lon="5.215347977355123">
        <ele>227.49000000000001</ele>
        <time>2025-05-17T10:23:35Z</time>
      </trkpt>
      <trkpt lat="43.913735020905733" lon="5.215515028685331">
        <ele>227.00999999999999</ele>
        <time>2025-05-17T10:23:36Z</time>
      </trkpt>
      <trkpt lat="43.913693027570844" lon="5.21568400785327">
        <ele>226.05000000000001</ele>
        <time>2025-05-17T10:23:37Z</time>
      </trkpt>
      <trkpt lat="43.913687998428941" lon="5.215864973142743">
        <ele>225.09</ele>
        <time>2025-05-17T10:23:38Z</time>
      </trkpt>
      <trkpt lat="43.913692021742463" lon="5.216052979230881">
        <ele>224.12</ele>
        <time>2025-05-17T10:23:39Z</time>
      </trkpt>
      <trkpt lat="43.913696967065334" lon="5.216255988925695">
        <ele>223.16</ele>
        <time>2025-05-17T10:23:40Z</time>
      </trkpt>
      <trkpt lat="43.913743989542127" lon="5.218311985954642">
        <ele>214.50999999999999</ele>
        <time>2025-05-17T10:23:49Z</time>
      </trkpt>
      <trkpt lat="43.913740972056985" lon="5.218539973720908">
        <ele>213.55000000000001</ele>
        <time>2025-05-17T10:23:50Z</time>
      </trkpt>
      <trkpt lat="43.913687998428941" lon="5.218759998679161">
        <ele>212.59</ele>
        <time>2025-05-17T10:23:51Z</time>
      </trkpt>
      <trkpt lat="43.913635024800897" lon="5.218980023637414">
        <ele>211.63</ele>
        <time>2025-05-17T10:23:52Z</time>
      </trkpt>
      <trkpt lat="43.913541985675693" lon="5.219173980876803">
        <ele>210.19</ele>
        <time>2025-05-17T10:23:53Z</time>
      </trkpt>
      <trkpt lat="43.913438972085714" lon="5.219347989186645">
        <ele>209.22</ele>
        <time>2025-05-17T10:23:54Z</time>
      </trkpt>
      <trkpt lat="43.913327995687723" lon="5.219528032466769">
        <ele>208.25999999999999</ele>
        <time>2025-05-17T10:23:55Z</time>
      </trkpt>
      <trkpt lat="43.913183994591236" lon="5.219684019684792">
        <ele>207.30000000000001</ele>
        <time>2025-05-17T10:23:56Z</time>
      </trkpt>
      <trkpt lat="43.91304200515151" lon="5.219837995246053">
        <ele>205.86000000000001</ele>
        <time>2025-05-17T10:23:57Z</time>
      </trkpt>
      <trkpt lat="43.912915019318461" lon="5.219975039362907">
        <ele>204.90000000000001</ele>
        <time>2025-05-17T10:23:58Z</time>
      </trkpt>
      <trkpt lat="43.912786021828651" lon="5.220115017145872">
        <ele>203.46000000000001</ele>
        <time>2025-05-17T10:23:59Z</time>
      </trkpt>
      <trkpt lat="43.912651995196939" lon="5.22026002407074">
        <ele>202.49000000000001</ele>
        <time>2025-05-17T10:24:00Z</time>
      </trkpt>
      <trkpt lat="43.911377023905516" lon="5.221672039479017">
        <ele>193.84</ele>
        <time>2025-05-17T10:24:10Z</time>
      </trkpt>
      <trkpt lat="43.910876037552953" lon="5.22221895866096">
        <ele>190.96000000000001</ele>
        <time>2025-05-17T10:24:15Z</time>
      </trkpt>
      <trkpt lat="43.910437999293208" lon="5.222692033275962">
        <ele>190</ele>
        <time>2025-05-17T10:24:20Z</time>
      </trkpt>
      <trkpt lat="43.910359963774681" lon="5.222765039652586">
        <ele>190</ele>
        <time>2025-05-17T10:24:21Z</time>
      </trkpt>
      <trkpt lat="43.910287963226438" lon="5.222804015502334">
        <ele>190</ele>
        <time>2025-05-17T10:24:22Z</time>
      </trkpt>
      <trkpt lat="43.910172963514924" lon="5.222866963595152">
        <ele>189.03999999999999</ele>
        <time>2025-05-17T10:24:28Z</time>
      </trkpt>
      <trkpt lat="43.91014102846384" lon="5.222852965816855">
        <ele>189.03999999999999</ele>
        <time>2025-05-17T10:24:29Z</time>
      </trkpt>
      <trkpt lat="43.910145973786712" lon="5.222909040749073">
        <ele>189.52000000000001</ele>
        <time>2025-05-17T10:24:30Z</time>
      </trkpt>
      <trkpt lat="43.910168018192053" lon="5.223152032122016">
        <ele>189.52000000000001</ele>
        <time>2025-05-17T10:24:32Z</time>
      </trkpt>
      <trkpt lat="43.910275977104902" lon="5.224358020350337">
        <ele>189.03999999999999</ele>
        <time>2025-05-17T10:24:38Z</time>
      </trkpt>
      <trkpt lat="43.910417966544628" lon="5.226602023467422">
        <ele>189.52000000000001</ele>
        <time>2025-05-17T10:24:47Z</time>
      </trkpt>
      <trkpt lat="43.910385025665164" lon="5.228687021881342">
        <ele>190</ele>
        <time>2025-05-17T10:24:56Z</time>
      </trkpt>
      <trkpt lat="43.910416038706899" lon="5.228916015475988">
        <ele>190</ele>
        <time>2025-05-17T10:24:57Z</time>
      </trkpt>
      <trkpt lat="43.910701023414731" lon="5.230357032269239">
        <ele>191.44</ele>
        <time>2025-05-17T10:25:04Z</time>
      </trkpt>
      <trkpt lat="43.910717032849789" lon="5.230568004772067">
        <ele>190.96000000000001</ele>
        <time>2025-05-17T10:25:05Z</time>
      </trkpt>
      <trkpt lat="43.910648971796036" lon="5.231616999953985">
        <ele>189.03999999999999</ele>
        <time>2025-05-17T10:25:11Z</time>
      </trkpt>
      <trkpt lat="43.91061301343143" lon="5.232162997126579">
        <ele>188.56</ele>
        <time>2025-05-17T10:25:16Z</time>
      </trkpt>
      <trkpt lat="43.910594992339611" lon="5.232478994876146">
        <ele>188.56</ele>
        <time>2025-05-17T10:25:18Z</time>
      </trkpt>
      <trkpt lat="43.910556016489863" lon="5.233348030596972">
        <ele>189.03999999999999</ele>
        <time>2025-05-17T10:25:22Z</time>
      </trkpt>
      <trkpt lat="43.910566996783018" lon="5.233569983392954">
        <ele>189.03999999999999</ele>
        <time>2025-05-17T10:25:23Z</time>
      </trkpt>
      <trkpt lat="43.910619970411062" lon="5.233799982815981">
        <ele>189.52000000000001</ele>
        <time>2025-05-17T10:25:24Z</time>
      </trkpt>
      <trkpt lat="43.910713009536266" lon="5.234005004167557">
        <ele>189.52000000000001</ele>
        <time>2025-05-17T10:25:25Z</time>
      </trkpt>
      <trkpt lat="43.9108079764992" lon="5.234212037175894">
        <ele>189.52000000000001</ele>
        <time>2025-05-17T10:25:26Z</time>
      </trkpt>
      <trkpt lat="43.910907972604036" lon="5.234429966658354">
        <ele>189.52000000000001</ele>
        <time>2025-05-17T10:25:27Z</time>
      </trkpt>
      <trkpt lat="43.911012997850776" lon="5.234659966081381">
        <ele>189.52000000000001</ele>
        <time>2025-05-17T10:25:28Z</time>
      </trkpt>
      <trkpt lat="43.911675000563264" lon="5.23626996204257">
        <ele>188.08000000000001</ele>
        <time>2025-05-17T10:25:35Z</time>
      </trkpt>
      <trkpt lat="43.912237007170916" lon="5.238099982962012">
        <ele>182.31</ele>
        <time>2025-05-17T10:25:43Z</time>
      </trkpt>
      <trkpt lat="43.912420989945531" lon="5.23951199837029">
        <ele>180.38</ele>
        <time>2025-05-17T10:25:50Z</time>
      </trkpt>
      <trkpt lat="43.9126349799335" lon="5.241158036515117">
        <ele>180.87</ele>
        <time>2025-05-17T10:25:57Z</time>
      </trkpt>
      <trkpt lat="43.913090033456683" lon="5.244653038680553">
        <ele>183.75</ele>
        <time>2025-05-17T10:26:08Z</time>
      </trkpt>
      <trkpt lat="43.913605017587543" lon="5.248616002500057">
        <ele>188.08000000000001</ele>
        <time>2025-05-17T10:26:22Z</time>
      </trkpt>
      <trkpt lat="43.914101980626583" lon="5.252442006021738">
        <ele>192.40000000000001</ele>
        <time>2025-05-17T10:26:36Z</time>
      </trkpt>
      <trkpt lat="43.914441028609872" lon="5.255056992173195">
        <ele>196.25</ele>
        <time>2025-05-17T10:26:46Z</time>
      </trkpt>
      <trkpt lat="43.914788039401174" lon="5.257639959454536">
        <ele>195.28</ele>
        <time>2025-05-17T10:26:55Z</time>
      </trkpt>
      <trkpt lat="43.915205039083958" lon="5.260092001408339">
        <ele>195.28</ele>
        <time>2025-05-17T10:27:04Z</time>
      </trkpt>
      <trkpt lat="43.916025962680578" lon="5.263019967824221">
        <ele>198.16999999999999</ele>
        <time>2025-05-17T10:27:15Z</time>
      </trkpt>
      <trkpt lat="43.916597021743655" lon="5.265641994774342">
        <ele>200.56999999999999</ele>
        <time>2025-05-17T10:27:25Z</time>
      </trkpt>
      <trkpt lat="43.91688896343112" lon="5.26746204122901">
        <ele>202.97999999999999</ele>
        <time>2025-05-17T10:27:33Z</time>
      </trkpt>
      <trkpt lat="43.917094990611076" lon="5.268920995295048">
        <ele>204.41999999999999</ele>
        <time>2025-05-17T10:27:42Z</time>
      </trkpt>
      <trkpt lat="43.917076969519258" lon="5.269143031910062">
        <ele>204.41999999999999</ele>
        <time>2025-05-17T10:27:43Z</time>
      </trkpt>
      <trkpt lat="43.916998011991382" lon="5.269222995266318">
        <ele>204.90000000000001</ele>
        <time>2025-05-17T10:27:44Z</time>
      </trkpt>
      <trkpt lat="43.916834983974695" lon="5.269428016617894">
        <ele>204.41999999999999</ele>
        <time>2025-05-17T10:27:46Z</time>
      </trkpt>
      <trkpt lat="43.916102992370725" lon="5.270333010703325">
        <ele>203.94</ele>
        <time>2025-05-17T10:27:53Z</time>
      </trkpt>
      <trkpt lat="43.914988031610847" lon="5.271413018926978">
        <ele>203.94</ele>
        <time>2025-05-17T10:28:01Z</time>
      </trkpt>
      <trkpt lat="43.914844030514359" lon="5.271484013646841">
        <ele>203.94</ele>
        <time>2025-05-17T10:28:02Z</time>
      </trkpt>
      <trkpt lat="43.914706986397505" lon="5.271552996709943">
        <ele>203.46000000000001</ele>
        <time>2025-05-17T10:28:03Z</time>
      </trkpt>
      <trkpt lat="43.914560973644257" lon="5.271576968953013">
        <ele>203.46000000000001</ele>
        <time>2025-05-17T10:28:04Z</time>
      </trkpt>
      <trkpt lat="43.914412027224898" lon="5.271586021408439">
        <ele>203.46000000000001</ele>
        <time>2025-05-17T10:28:05Z</time>
      </trkpt>
      <trkpt lat="43.914267020300031" lon="5.271593984216452">
        <ele>202.97999999999999</ele>
        <time>2025-05-17T10:28:06Z</time>
      </trkpt>
      <trkpt lat="43.913854965940118" lon="5.271646035835147">
        <ele>202.49000000000001</ele>
        <time>2025-05-17T10:28:09Z</time>
      </trkpt>
      <trkpt lat="43.913723034784198" lon="5.27171803638339">
        <ele>202.49000000000001</ele>
        <time>2025-05-17T10:28:10Z</time>
      </trkpt>
      <trkpt lat="43.91362002119422" lon="5.271806968376041">
        <ele>202.00999999999999</ele>
        <time>2025-05-17T10:28:11Z</time>
      </trkpt>
      <trkpt lat="43.913521030917764" lon="5.27197896502912">
        <ele>201.53</ele>
        <time>2025-05-17T10:28:12Z</time>
      </trkpt>
      <trkpt lat="43.913435032591224" lon="5.272131012752652">
        <ele>201.05000000000001</ele>
        <time>2025-05-17T10:28:13Z</time>
      </trkpt>
      <trkpt lat="43.913350040093064" lon="5.272279037162662">
        <ele>200.56999999999999</ele>
        <time>2025-05-17T10:28:14Z</time>
      </trkpt>
      <trkpt lat="43.913059020414948" lon="5.272711040452123">
        <ele>199.13</ele>
        <time>2025-05-17T10:28:17Z</time>
      </trkpt>
      <trkpt lat="43.912945026531816" lon="5.272843977436423">
        <ele>198.65000000000001</ele>
        <time>2025-05-17T10:28:18Z</time>
      </trkpt>
      <trkpt lat="43.912810999900103" lon="5.27294397354126">
        <ele>198.16999999999999</ele>
        <time>2025-05-17T10:28:19Z</time>
      </trkpt>
      <trkpt lat="43.912172969430685" lon="5.27339399792254">
        <ele>195.28</ele>
        <time>2025-05-17T10:28:24Z</time>
      </trkpt>
      <trkpt lat="43.912070961669087" lon="5.273465998470783">
        <ele>194.80000000000001</ele>
        <time>2025-05-17T10:28:25Z</time>
      </trkpt>
      <trkpt lat="43.911712970584631" lon="5.2737189643085">
        <ele>193.84</ele>
        <time>2025-05-17T10:28:29Z</time>
      </trkpt>
      <trkpt lat="43.911632001399994" lon="5.273851985111833">
        <ele>192.88</ele>
        <time>2025-05-17T10:28:31Z</time>
      </trkpt>
      <trkpt lat="43.911636024713516" lon="5.273896995931864">
        <ele>192.40000000000001</ele>
        <time>2025-05-17T10:28:32Z</time>
      </trkpt>
      <trkpt lat="43.911641975864768" lon="5.27395399287343">
        <ele>191.91999999999999</ele>
        <time>2025-05-17T10:28:33Z</time>
      </trkpt>
      <trkpt lat="43.91164599917829" lon="5.273994980379939">
        <ele>191.44</ele>
        <time>2025-05-17T10:28:34Z</time>
      </trkpt>
      <trkpt lat="43.911680029705167" lon="5.274076033383608">
        <ele>190.96000000000001</ele>
        <time>2025-05-17T10:28:35Z</time>
      </trkpt>
      <trkpt lat="43.91171196475625" lon="5.274149961769581">
        <ele>190.47999999999999</ele>
        <time>2025-05-17T10:28:36Z</time>
      </trkpt>
      <trkpt lat="43.911745995283127" lon="5.274227997288108">
        <ele>190</ele>
        <time>2025-05-17T10:28:37Z</time>
      </trkpt>
      <trkpt lat="43.911768961697817" lon="5.27433997951448">
        <ele>189.52000000000001</ele>
        <time>2025-05-17T10:28:38Z</time>
      </trkpt>
      <trkpt lat="43.911753036081791" lon="5.274451039731503">
        <ele>189.03999999999999</ele>
        <time>2025-05-17T10:28:39Z</time>
      </trkpt>
      <trkpt lat="43.911736020818353" lon="5.274577019736171">
        <ele>189.52000000000001</ele>
        <time>2025-05-17T10:28:40Z</time>
      </trkpt>
      <trkpt lat="43.911717999726534" lon="5.2747050113976">
        <ele>189.52000000000001</ele>
        <time>2025-05-17T10:28:41Z</time>
      </trkpt>
      <trkpt lat="43.911699978634715" lon="5.27483300305903">
        <ele>190</ele>
        <time>2025-05-17T10:28:42Z</time>
      </trkpt>
      <trkpt lat="43.911682041361928" lon="5.27496200054884">
        <ele>190.96000000000001</ele>
        <time>2025-05-17T10:28:43Z</time>
      </trkpt>
      <trkpt lat="43.911638036370277" lon="5.275236004963517">
        <ele>191.91999999999999</ele>
        <time>2025-05-17T10:28:45Z</time>
      </trkpt>
      <trkpt lat="43.911581039428711" lon="5.275357961654663">
        <ele>192.40000000000001</ele>
        <time>2025-05-17T10:28:46Z</time>
      </trkpt>
      <trkpt lat="43.911077035591006" lon="5.276538971811533">
        <ele>192.88</ele>
        <time>2025-05-17T10:28:54Z</time>
      </trkpt>
      <trkpt lat="43.910622987896204" lon="5.277888961136341">
        <ele>196.25</ele>
        <time>2025-05-17T10:29:02Z</time>
      </trkpt>
      <trkpt lat="43.910502959042788" lon="5.278218034654856">
        <ele>197.21000000000001</ele>
        <time>2025-05-17T10:29:04Z</time>
      </trkpt>
      <trkpt lat="43.909842967987061" lon="5.279515972360969">
        <ele>202.00999999999999</ele>
        <time>2025-05-17T10:29:13Z</time>
      </trkpt>
      <trkpt lat="43.909496963024139" lon="5.280228015035391">
        <ele>204.90000000000001</ele>
        <time>2025-05-17T10:29:20Z</time>
      </trkpt>
      <trkpt lat="43.908875025808811" lon="5.281584961339831">
        <ele>211.15000000000001</ele>
        <time>2025-05-17T10:29:28Z</time>
      </trkpt>
      <trkpt lat="43.90831695869565" lon="5.283398972824216">
        <ele>219.80000000000001</ele>
        <time>2025-05-17T10:29:37Z</time>
      </trkpt>
      <trkpt lat="43.908178992569447" lon="5.284349983558059">
        <ele>227.49000000000001</ele>
        <time>2025-05-17T10:29:43Z</time>
      </trkpt>
      <trkpt lat="43.908146973699331" lon="5.284460037946701">
        <ele>228.44999999999999</ele>
        <time>2025-05-17T10:29:44Z</time>
      </trkpt>
      <trkpt lat="43.908127024769783" lon="5.284531032666564">
        <ele>229.41</ele>
        <time>2025-05-17T10:29:45Z</time>
      </trkpt>
      <trkpt lat="43.908041026443243" lon="5.284564979374409">
        <ele>230.37</ele>
        <time>2025-05-17T10:29:46Z</time>
      </trkpt>
      <trkpt lat="43.907947987318039" lon="5.284603033214808">
        <ele>231.33000000000001</ele>
        <time>2025-05-17T10:29:47Z</time>
      </trkpt>
      <trkpt lat="43.907845979556441" lon="5.284643014892936">
        <ele>232.78</ele>
        <time>2025-05-17T10:29:48Z</time>
      </trkpt>
      <trkpt lat="43.907746989279985" lon="5.284682996571064">
        <ele>233.25999999999999</ele>
        <time>2025-05-17T10:29:49Z</time>
      </trkpt>
      <trkpt lat="43.907655961811543" lon="5.28469598852098">
        <ele>234.69999999999999</ele>
        <time>2025-05-17T10:29:50Z</time>
      </trkpt>
      <trkpt lat="43.907553032040596" lon="5.284676961600781">
        <ele>235.66</ele>
        <time>2025-05-17T10:29:51Z</time>
      </trkpt>
      <trkpt lat="43.90745404176414" lon="5.284660030156374">
        <ele>236.13999999999999</ele>
        <time>2025-05-17T10:29:52Z</time>
      </trkpt>
      <trkpt lat="43.907333007082343" lon="5.284637985751033">
        <ele>236.62</ele>
        <time>2025-05-17T10:29:53Z</time>
      </trkpt>
      <trkpt lat="43.9072419796139" lon="5.284655001014471">
        <ele>237.09999999999999</ele>
        <time>2025-05-17T10:29:54Z</time>
      </trkpt>
      <trkpt lat="43.907128991559148" lon="5.284675033763051">
        <ele>238.06</ele>
        <time>2025-05-17T10:29:55Z</time>
      </trkpt>
      <trkpt lat="43.906773012131453" lon="5.284874020144343">
        <ele>240.94999999999999</ele>
        <time>2025-05-17T10:29:58Z</time>
      </trkpt>
      <trkpt lat="43.906663963571191" lon="5.284937974065542">
        <ele>241.91</ele>
        <time>2025-05-17T10:29:59Z</time>
      </trkpt>
      <trkpt lat="43.906563967466354" lon="5.28499798849225">
        <ele>242.87</ele>
        <time>2025-05-17T10:30:00Z</time>
      </trkpt>
      <trkpt lat="43.906473023816943" lon="5.285051967948675">
        <ele>244.31</ele>
        <time>2025-05-17T10:30:01Z</time>
      </trkpt>
      <trkpt lat="43.906409991905093" lon="5.285089015960693">
        <ele>245.27000000000001</ele>
        <time>2025-05-17T10:30:02Z</time>
      </trkpt>
      <trkpt lat="43.906332962214947" lon="5.28519001789391">
        <ele>246.72</ele>
        <time>2025-05-17T10:30:03Z</time>
      </trkpt>
      <trkpt lat="43.906274037435651" lon="5.285267969593406">
        <ele>248.16</ele>
        <time>2025-05-17T10:30:04Z</time>
      </trkpt>
      <trkpt lat="43.906215028837323" lon="5.285346005111933">
        <ele>249.59999999999999</ele>
        <time>2025-05-17T10:30:05Z</time>
      </trkpt>
      <trkpt lat="43.906158031895757" lon="5.285420017316937">
        <ele>251.03999999999999</ele>
        <time>2025-05-17T10:30:06Z</time>
      </trkpt>
      <trkpt lat="43.906102040782571" lon="5.285494029521942">
        <ele>252</ele>
        <time>2025-05-17T10:30:07Z</time>
      </trkpt>
      <trkpt lat="43.905517989769578" lon="5.286260973662138">
        <ele>263.06</ele>
        <time>2025-05-17T10:30:17Z</time>
      </trkpt>
      <trkpt lat="43.90545504167676" lon="5.286342026665807">
        <ele>264.01999999999998</ele>
        <time>2025-05-17T10:30:18Z</time>
      </trkpt>
      <trkpt lat="43.904994959011674" lon="5.286947032436729">
        <ele>272.67000000000002</ele>
        <time>2025-05-17T10:30:25Z</time>
      </trkpt>
      <trkpt lat="43.904926981776953" lon="5.287034958600998">
        <ele>273.63</ele>
        <time>2025-05-17T10:30:26Z</time>
      </trkpt>
      <trkpt lat="43.904214017093182" lon="5.287848003208637">
        <ele>283.73000000000002</ele>
        <time>2025-05-17T10:30:35Z</time>
      </trkpt>
      <trkpt lat="43.903703978285193" lon="5.288629028946161">
        <ele>296.69999999999999</ele>
        <time>2025-05-17T10:30:44Z</time>
      </trkpt>
      <trkpt lat="43.903627032414079" lon="5.28875500895083">
        <ele>299.11000000000001</ele>
        <time>2025-05-17T10:30:46Z</time>
      </trkpt>
      <trkpt lat="43.903101989999413" lon="5.289210984483361">
        <ele>305.36000000000001</ele>
        <time>2025-05-17T10:30:54Z</time>
      </trkpt>
      <trkpt lat="43.902963018044829" lon="5.28935800306499">
        <ele>305.36000000000001</ele>
        <time>2025-05-17T10:30:56Z</time>
      </trkpt>
      <trkpt lat="43.902895962819457" lon="5.289430003613234">
        <ele>305.36000000000001</ele>
        <time>2025-05-17T10:30:57Z</time>
      </trkpt>
      <trkpt lat="43.902836032211781" lon="5.289494041353464">
        <ele>305.83999999999997</ele>
        <time>2025-05-17T10:30:58Z</time>
      </trkpt>
      <trkpt lat="43.902785992249846" lon="5.289547014981508">
        <ele>305.83999999999997</ele>
        <time>2025-05-17T10:30:59Z</time>
      </trkpt>
      <trkpt lat="43.902740981429815" lon="5.28959495946765">
        <ele>306.31999999999999</ele>
        <time>2025-05-17T10:31:00Z</time>
      </trkpt>
      <trkpt lat="43.902684990316629" lon="5.289619015529752">
        <ele>306.31999999999999</ele>
        <time>2025-05-17T10:31:01Z</time>
      </trkpt>
      <trkpt lat="43.902654983103275" lon="5.289632007479668">
        <ele>306.31999999999999</ele>
        <time>2025-05-17T10:31:02Z</time>
      </trkpt>
      <trkpt lat="43.902636040002108" lon="5.289639970287681">
        <ele>306.80000000000001</ele>
        <time>2025-05-17T10:31:03Z</time>
      </trkpt>
      <trkpt lat="43.902596980333328" lon="5.289713982492685">
        <ele>306.31999999999999</ele>
        <time>2025-05-17T10:31:04Z</time>
      </trkpt>
      <trkpt lat="43.902604021131992" lon="5.289780031889677">
        <ele>306.31999999999999</ele>
        <time>2025-05-17T10:31:05Z</time>
      </trkpt>
      <trkpt lat="43.902611983940005" lon="5.289861001074314">
        <ele>306.31999999999999</ele>
        <time>2025-05-17T10:31:06Z</time>
      </trkpt>
      <trkpt lat="43.902605026960373" lon="5.289948005229235">
        <ele>306.31999999999999</ele>
        <time>2025-05-17T10:31:07Z</time>
      </trkpt>
      <trkpt lat="43.902597986161709" lon="5.290039032697678">
        <ele>306.31999999999999</ele>
        <time>2025-05-17T10:31:08Z</time>
      </trkpt>
      <trkpt lat="43.902591029182076" lon="5.29013198800385">
        <ele>306.80000000000001</ele>
        <time>2025-05-17T10:31:09Z</time>
      </trkpt>
      <trkpt lat="43.902570996433496" lon="5.290193008258939">
        <ele>306.80000000000001</ele>
        <time>2025-05-17T10:31:10Z</time>
      </trkpt>
      <trkpt lat="43.902550963684916" lon="5.290252016857266">
        <ele>306.80000000000001</ele>
        <time>2025-05-17T10:31:11Z</time>
      </trkpt>
      <trkpt lat="43.902529003098607" lon="5.290315970778465">
        <ele>307.27999999999997</ele>
        <time>2025-05-17T10:31:12Z</time>
      </trkpt>
      <trkpt lat="43.902506036683917" lon="5.290385037660599">
        <ele>307.27999999999997</ele>
        <time>2025-05-17T10:31:13Z</time>
      </trkpt>
      <trkpt lat="43.902169000357389" lon="5.291361026465893">
        <ele>311.60000000000002</ele>
        <time>2025-05-17T10:31:26Z</time>
      </trkpt>
      <trkpt lat="43.901962973177433" lon="5.291625978425145">
        <ele>313.52999999999997</ele>
        <time>2025-05-17T10:31:33Z</time>
      </trkpt>
      <trkpt lat="43.901903964579105" lon="5.29167702421546">
        <ele>314.00999999999999</ele>
        <time>2025-05-17T10:31:34Z</time>
      </trkpt>
      <trkpt lat="43.901900025084615" lon="5.291719017550349">
        <ele>314.49000000000001</ele>
        <time>2025-05-17T10:31:35Z</time>
      </trkpt>
      <trkpt lat="43.901893990114331" lon="5.291777020320296">
        <ele>314.97000000000003</ele>
        <time>2025-05-17T10:31:36Z</time>
      </trkpt>
      <trkpt lat="43.901888038963079" lon="5.291838962584734">
        <ele>315.44999999999999</ele>
        <time>2025-05-17T10:31:37Z</time>
      </trkpt>
      <trkpt lat="43.901883009821177" lon="5.291891014203429">
        <ele>315.93000000000001</ele>
        <time>2025-05-17T10:31:38Z</time>
      </trkpt>
      <trkpt lat="43.901883009821177" lon="5.291891014203429">
        <ele>315.93000000000001</ele>
        <time>2025-05-17T10:31:39Z</time>
      </trkpt>
      <trkpt lat="43.901919974014163" lon="5.291965026408434">
        <ele>315.93000000000001</ele>
        <time>2025-05-17T10:31:40Z</time>
      </trkpt>
      <trkpt lat="43.901943024247885" lon="5.292011965066195">
        <ele>315.93000000000001</ele>
        <time>2025-05-17T10:31:41Z</time>
      </trkpt>
      <trkpt lat="43.901966996490955" lon="5.292059993371368">
        <ele>316.41000000000003</ele>
        <time>2025-05-17T10:31:42Z</time>
      </trkpt>
      <trkpt lat="43.901989040896297" lon="5.292103998363018">
        <ele>316.41000000000003</ele>
        <time>2025-05-17T10:31:43Z</time>
      </trkpt>
      <trkpt lat="43.902012007310987" lon="5.292149009183049">
        <ele>316.41000000000003</ele>
        <time>2025-05-17T10:31:44Z</time>
      </trkpt>
      <trkpt lat="43.902032962068915" lon="5.292191002517939">
        <ele>316.88999999999999</ele>
        <time>2025-05-17T10:31:45Z</time>
      </trkpt>
      <trkpt lat="43.902050983160734" lon="5.292226960882545">
        <ele>316.88999999999999</ele>
        <time>2025-05-17T10:31:46Z</time>
      </trkpt>
      <trkpt lat="43.902067998424172" lon="5.292261997237802">
        <ele>317.37</ele>
        <time>2025-05-17T10:31:47Z</time>
      </trkpt>
      <trkpt lat="43.902083002030849" lon="5.292293010279536">
        <ele>316.88999999999999</ele>
        <time>2025-05-17T10:31:48Z</time>
      </trkpt>
      <trkpt lat="43.902098005637527" lon="5.292329974472523">
        <ele>317.37</ele>
        <time>2025-05-17T10:31:49Z</time>
      </trkpt>
      <trkpt lat="43.902100017294288" lon="5.292373979464173">
        <ele>317.85000000000002</ele>
        <time>2025-05-17T10:31:50Z</time>
      </trkpt>
      <trkpt lat="43.902118960395455" lon="5.292685031890869">
        <ele>318.81</ele>
        <time>2025-05-17T10:31:53Z</time>
      </trkpt>
      <trkpt lat="43.902118960395455" lon="5.292685031890869">
        <ele>319.30000000000001</ele>
        <time>2025-05-17T10:31:54Z</time>
      </trkpt>
      <trkpt lat="43.902110997587442" lon="5.292801959440112">
        <ele>320.25999999999999</ele>
        <time>2025-05-17T10:31:57Z</time>
      </trkpt>
      <trkpt lat="43.902102028951049" lon="5.292937997728586">
        <ele>320.74000000000001</ele>
        <time>2025-05-17T10:31:59Z</time>
      </trkpt>
      <trkpt lat="43.902011001482606" lon="5.293428003787994">
        <ele>322.18000000000001</ele>
        <time>2025-05-17T10:32:10Z</time>
      </trkpt>
      <trkpt lat="43.901990968734026" lon="5.293477037921548">
        <ele>322.18000000000001</ele>
        <time>2025-05-17T10:32:11Z</time>
      </trkpt>
      <trkpt lat="43.901972025632858" lon="5.293523976579309">
        <ele>322.66000000000003</ele>
        <time>2025-05-17T10:32:12Z</time>
      </trkpt>
      <trkpt lat="43.901904970407486" lon="5.293754981830716">
        <ele>322.18000000000001</ele>
        <time>2025-05-17T10:32:20Z</time>
      </trkpt>
      <trkpt lat="43.901902036741376" lon="5.293766967952251">
        <ele>322.18000000000001</ele>
        <time>2025-05-17T10:32:28Z</time>
      </trkpt>
      <trkpt lat="43.901882003992796" lon="5.293843997642398">
        <ele>321.69999999999999</ele>
        <time>2025-05-17T10:32:29Z</time>
      </trkpt>
      <trkpt lat="43.901846967637539" lon="5.293861012905836">
        <ele>322.18000000000001</ele>
        <time>2025-05-17T10:32:30Z</time>
      </trkpt>
      <trkpt lat="43.901814026758075" lon="5.293878028169274">
        <ele>322.66000000000003</ele>
        <time>2025-05-17T10:32:31Z</time>
      </trkpt>
      <trkpt lat="43.901775972917676" lon="5.29389102011919">
        <ele>322.66000000000003</ele>
        <time>2025-05-17T10:32:32Z</time>
      </trkpt>
      <trkpt lat="43.901315974071622" lon="5.294004008173943">
        <ele>321.69999999999999</ele>
        <time>2025-05-17T10:32:43Z</time>
      </trkpt>
      <trkpt lat="43.901270963251591" lon="5.294015994295478">
        <ele>321.69999999999999</ele>
        <time>2025-05-17T10:32:44Z</time>
      </trkpt>
      <trkpt lat="43.90105496160686" lon="5.294067040085793">
        <ele>322.18000000000001</ele>
        <time>2025-05-17T10:32:53Z</time>
      </trkpt>
      <trkpt lat="43.901019003242254" lon="5.294072991237044">
        <ele>322.18000000000001</ele>
        <time>2025-05-17T10:33:16Z</time>
      </trkpt>
      <trkpt lat="43.9009889960289" lon="5.294078020378947">
        <ele>322.66000000000003</ele>
        <time>2025-05-17T10:33:17Z</time>
      </trkpt>
      <trkpt lat="43.900939039885998" lon="5.29408598318696">
        <ele>323.13999999999999</ele>
        <time>2025-05-17T10:33:18Z</time>
      </trkpt>
      <trkpt lat="43.900267984718084" lon="5.294195031747222">
        <ele>322.66000000000003</ele>
        <time>2025-05-17T10:33:26Z</time>
      </trkpt>
      <trkpt lat="43.899560971185565" lon="5.294226966798306">
        <ele>323.13999999999999</ele>
        <time>2025-05-17T10:33:35Z</time>
      </trkpt>
      <trkpt lat="43.89948402531445" lon="5.294210035353899">
        <ele>323.13999999999999</ele>
        <time>2025-05-17T10:33:36Z</time>
      </trkpt>
      <trkpt lat="43.899416970089078" lon="5.294156977906823">
        <ele>323.13999999999999</ele>
        <time>2025-05-17T10:33:37Z</time>
      </trkpt>
      <trkpt lat="43.899337006732821" lon="5.294090006500483">
        <ele>323.13999999999999</ele>
        <time>2025-05-17T10:33:38Z</time>
      </trkpt>
      <trkpt lat="43.899257965385914" lon="5.294024040922523">
        <ele>323.13999999999999</ele>
        <time>2025-05-17T10:33:39Z</time>
      </trkpt>
      <trkpt lat="43.89918495900929" lon="5.293963020667434">
        <ele>322.66000000000003</ele>
        <time>2025-05-17T10:33:40Z</time>
      </trkpt>
      <trkpt lat="43.899116981774569" lon="5.293906023725867">
        <ele>322.18000000000001</ele>
        <time>2025-05-17T10:33:41Z</time>
      </trkpt>
      <trkpt lat="43.899045987054706" lon="5.29384802095592">
        <ele>321.69999999999999</ele>
        <time>2025-05-17T10:33:42Z</time>
      </trkpt>
      <trkpt lat="43.898964012041688" lon="5.293779037892819">
        <ele>321.22000000000003</ele>
        <time>2025-05-17T10:33:43Z</time>
      </trkpt>
      <trkpt lat="43.898907015100121" lon="5.293752970173955">
        <ele>321.22000000000003</ele>
        <time>2025-05-17T10:33:44Z</time>
      </trkpt>
      <trkpt lat="43.89875203371048" lon="5.293680969625711">
        <ele>320.25999999999999</ele>
        <time>2025-05-17T10:33:46Z</time>
      </trkpt>
      <trkpt lat="43.8985800370574" lon="5.293650962412357">
        <ele>318.81</ele>
        <time>2025-05-17T10:33:48Z</time>
      </trkpt>
      <trkpt lat="43.898494960740209" lon="5.293670995160937">
        <ele>318.32999999999998</ele>
        <time>2025-05-17T10:33:49Z</time>
      </trkpt>
      <trkpt lat="43.89778702519834" lon="5.293981041759253">
        <ele>313.52999999999997</ele>
        <time>2025-05-17T10:33:57Z</time>
      </trkpt>
      <trkpt lat="43.897727010771632" lon="5.294059999287128">
        <ele>313.52999999999997</ele>
        <time>2025-05-17T10:33:58Z</time>
      </trkpt>
      <trkpt lat="43.897672025486827" lon="5.294158989563584">
        <ele>313.05000000000001</ele>
        <time>2025-05-17T10:33:59Z</time>
      </trkpt>
      <trkpt lat="43.89761796221137" lon="5.29425797984004">
        <ele>312.56999999999999</ele>
        <time>2025-05-17T10:34:00Z</time>
      </trkpt>
      <trkpt lat="43.897560965269804" lon="5.294361999258399">
        <ele>312.56999999999999</ele>
        <time>2025-05-17T10:34:01Z</time>
      </trkpt>
      <trkpt lat="43.897501034662127" lon="5.294470963999629">
        <ele>312.56999999999999</ele>
        <time>2025-05-17T10:34:02Z</time>
      </trkpt>
      <trkpt lat="43.897139020264149" lon="5.295217959210277">
        <ele>309.68000000000001</ele>
        <time>2025-05-17T10:34:08Z</time>
      </trkpt>
      <trkpt lat="43.897085962817073" lon="5.295332036912441">
        <ele>309.19999999999999</ele>
        <time>2025-05-17T10:34:09Z</time>
      </trkpt>
      <trkpt lat="43.897038018330932" lon="5.295435972511768">
        <ele>308.24000000000001</ele>
        <time>2025-05-17T10:34:10Z</time>
      </trkpt>
      <trkpt lat="43.896989990025759" lon="5.295538986101747">
        <ele>307.75999999999999</ele>
        <time>2025-05-17T10:34:11Z</time>
      </trkpt>
      <trkpt lat="43.896930981427431" lon="5.295625990256667">
        <ele>306.80000000000001</ele>
        <time>2025-05-17T10:34:12Z</time>
      </trkpt>
      <trkpt lat="43.896873984485865" lon="5.295706959441304">
        <ele>306.31999999999999</ele>
        <time>2025-05-17T10:34:13Z</time>
      </trkpt>
      <trkpt lat="43.896821010857821" lon="5.295784994959831">
        <ele>305.83999999999997</ele>
        <time>2025-05-17T10:34:14Z</time>
      </trkpt>
      <trkpt lat="43.896753033623099" lon="5.295881973579526">
        <ele>305.36000000000001</ele>
        <time>2025-05-17T10:34:15Z</time>
      </trkpt>
      <trkpt lat="43.896651025861502" lon="5.295901000499725">
        <ele>304.38999999999999</ele>
        <time>2025-05-17T10:34:16Z</time>
      </trkpt>
      <trkpt lat="43.896548012271523" lon="5.295887002721429">
        <ele>303.43000000000001</ele>
        <time>2025-05-17T10:34:17Z</time>
      </trkpt>
      <trkpt lat="43.895448977127671" lon="5.295817013829947">
        <ele>296.22000000000003</ele>
        <time>2025-05-17T10:34:27Z</time>
      </trkpt>
      <trkpt lat="43.894795021042228" lon="5.295761022716761">
        <ele>293.81999999999999</ele>
        <time>2025-05-17T10:34:33Z</time>
      </trkpt>
      <trkpt lat="43.893935959786177" lon="5.295456005260348">
        <ele>292.86000000000001</ele>
        <time>2025-05-17T10:34:40Z</time>
      </trkpt>
      <trkpt lat="43.892776994034648" lon="5.294963987544179">
        <ele>288.52999999999997</ele>
        <time>2025-05-17T10:34:48Z</time>
      </trkpt>
      <trkpt lat="43.892365023493767" lon="5.294732982292771">
        <ele>286.61000000000001</ele>
        <time>2025-05-17T10:34:51Z</time>
      </trkpt>
      <trkpt lat="43.89224499464035" lon="5.294604990631342">
        <ele>285.64999999999998</ele>
        <time>2025-05-17T10:34:52Z</time>
      </trkpt>
      <trkpt lat="43.892134018242359" lon="5.294458977878094">
        <ele>284.69</ele>
        <time>2025-05-17T10:34:53Z</time>
      </trkpt>
      <trkpt lat="43.891465980559587" lon="5.293603017926216">
        <ele>279.39999999999998</ele>
        <time>2025-05-17T10:34:59Z</time>
      </trkpt>
      <trkpt lat="43.891356009989977" lon="5.29350402764976">
        <ele>278.44</ele>
        <time>2025-05-17T10:35:00Z</time>
      </trkpt>
      <trkpt lat="43.891232963651419" lon="5.29343998990953">
        <ele>277.48000000000002</ele>
        <time>2025-05-17T10:35:01Z</time>
      </trkpt>
      <trkpt lat="43.891097009181976" lon="5.293405037373304">
        <ele>276.04000000000002</ele>
        <time>2025-05-17T10:35:02Z</time>
      </trkpt>
      <trkpt lat="43.890948984771967" lon="5.293366983532906">
        <ele>275.06999999999999</ele>
        <time>2025-05-17T10:35:03Z</time>
      </trkpt>
      <trkpt lat="43.890794003382325" lon="5.293327001854777">
        <ele>274.11000000000001</ele>
        <time>2025-05-17T10:35:04Z</time>
      </trkpt>
      <trkpt lat="43.889610981568694" lon="5.293092979118228">
        <ele>265.94</ele>
        <time>2025-05-17T10:35:11Z</time>
      </trkpt>
      <trkpt lat="43.889464968815446" lon="5.293092979118228">
        <ele>264.5</ele>
        <time>2025-05-17T10:35:12Z</time>
      </trkpt>
      <trkpt lat="43.889350974932313" lon="5.293092979118228">
        <ele>263.06</ele>
        <time>2025-05-17T10:35:13Z</time>
      </trkpt>
      <trkpt lat="43.889217032119632" lon="5.293184006586671">
        <ele>261.62</ele>
        <time>2025-05-17T10:35:14Z</time>
      </trkpt>
      <trkpt lat="43.889093985781074" lon="5.293266987428069">
        <ele>260.64999999999998</ele>
        <time>2025-05-17T10:35:15Z</time>
      </trkpt>
      <trkpt lat="43.888971023261547" lon="5.293350974097848">
        <ele>259.20999999999998</ele>
        <time>2025-05-17T10:35:16Z</time>
      </trkpt>
      <trkpt lat="43.88872099108994" lon="5.293509978801012">
        <ele>257.29000000000002</ele>
        <time>2025-05-17T10:35:18Z</time>
      </trkpt>
      <trkpt lat="43.888594005256891" lon="5.293551972135902">
        <ele>255.84999999999999</ele>
        <time>2025-05-17T10:35:19Z</time>
      </trkpt>
      <trkpt lat="43.888470036908984" lon="5.293577034026384">
        <ele>254.41</ele>
        <time>2025-05-17T10:35:20Z</time>
      </trkpt>
      <trkpt lat="43.888338021934032" lon="5.293521964922547">
        <ele>253.44</ele>
        <time>2025-05-17T10:35:21Z</time>
      </trkpt>
      <trkpt lat="43.888198966160417" lon="5.2934639621526">
        <ele>252.47999999999999</ele>
        <time>2025-05-17T10:35:22Z</time>
      </trkpt>
      <trkpt lat="43.886887030676007" lon="5.292916037142277">
        <ele>250.08000000000001</ele>
        <time>2025-05-17T10:35:31Z</time>
      </trkpt>
      <trkpt lat="43.8852399867028" lon="5.292329974472523">
        <ele>242.38999999999999</ele>
        <time>2025-05-17T10:35:41Z</time>
      </trkpt>
      <trkpt lat="43.884453009814024" lon="5.292196031659842">
        <ele>238.06</ele>
        <time>2025-05-17T10:35:46Z</time>
      </trkpt>
      <trkpt lat="43.883266970515251" lon="5.292197959497571">
        <ele>233.25999999999999</ele>
        <time>2025-05-17T10:35:54Z</time>
      </trkpt>
      <trkpt lat="43.883120035752654" lon="5.292217992246151">
        <ele>232.78</ele>
        <time>2025-05-17T10:35:55Z</time>
      </trkpt>
      <trkpt lat="43.882980979979038" lon="5.292296027764678">
        <ele>232.30000000000001</ele>
        <time>2025-05-17T10:35:56Z</time>
      </trkpt>
      <trkpt lat="43.881827965378761" lon="5.29294403269887">
        <ele>226.05000000000001</ele>
        <time>2025-05-17T10:36:04Z</time>
      </trkpt>
      <trkpt lat="43.881380036473274" lon="5.293235974386334">
        <ele>224.12</ele>
        <time>2025-05-17T10:36:07Z</time>
      </trkpt>
      <trkpt lat="43.881232012063265" lon="5.293352985754609">
        <ele>223.63999999999999</ele>
        <time>2025-05-17T10:36:08Z</time>
      </trkpt>
      <trkpt lat="43.880610996857285" lon="5.29406301677227">
        <ele>219.80000000000001</ele>
        <time>2025-05-17T10:36:13Z</time>
      </trkpt>
      <trkpt lat="43.880477976053953" lon="5.294144991785288">
        <ele>218.84</ele>
        <time>2025-05-17T10:36:14Z</time>
      </trkpt>
      <trkpt lat="43.880347972735763" lon="5.294216992333531">
        <ele>218.36000000000001</ele>
        <time>2025-05-17T10:36:15Z</time>
      </trkpt>
      <trkpt lat="43.880216041579843" lon="5.294288992881775">
        <ele>217.40000000000001</ele>
        <time>2025-05-17T10:36:16Z</time>
      </trkpt>
      <trkpt lat="43.880076985806227" lon="5.29434397816658">
        <ele>216.91</ele>
        <time>2025-05-17T10:36:17Z</time>
      </trkpt>
      <trkpt lat="43.878953978419304" lon="5.294789979234338">
        <ele>212.11000000000001</ele>
        <time>2025-05-17T10:36:25Z</time>
      </trkpt>
      <trkpt lat="43.87885901145637" lon="5.294873965904117">
        <ele>212.11000000000001</ele>
        <time>2025-05-17T10:36:26Z</time>
      </trkpt>
      <trkpt lat="43.878817018121481" lon="5.29502802528441">
        <ele>211.15000000000001</ele>
        <time>2025-05-17T10:36:27Z</time>
      </trkpt>
      <trkpt lat="43.87877301312983" lon="5.295195998623967">
        <ele>210.66999999999999</ele>
        <time>2025-05-17T10:36:28Z</time>
      </trkpt>
      <trkpt lat="43.878791034221649" lon="5.295388028025627">
        <ele>209.69999999999999</ele>
        <time>2025-05-17T10:36:29Z</time>
      </trkpt>
      <trkpt lat="43.878810983151197" lon="5.295593971386552">
        <ele>208.74000000000001</ele>
        <time>2025-05-17T10:36:30Z</time>
      </trkpt>
      <trkpt lat="43.878832021728158" lon="5.295807039365172">
        <ele>208.25999999999999</ele>
        <time>2025-05-17T10:36:31Z</time>
      </trkpt>
      <trkpt lat="43.878867980092764" lon="5.296397041529417">
        <ele>206.34</ele>
        <time>2025-05-17T10:36:34Z</time>
      </trkpt>
      <trkpt lat="43.878844007849693" lon="5.296565014868975">
        <ele>205.86000000000001</ele>
        <time>2025-05-17T10:36:35Z</time>
      </trkpt>
      <trkpt lat="43.8788160122931" lon="5.296761989593506">
        <ele>205.38</ele>
        <time>2025-05-17T10:36:36Z</time>
      </trkpt>
      <trkpt lat="43.878760021179914" lon="5.296883024275303">
        <ele>204.90000000000001</ele>
        <time>2025-05-17T10:36:37Z</time>
      </trkpt>
      <trkpt lat="43.878681985661387" lon="5.297044962644577">
        <ele>204.90000000000001</ele>
        <time>2025-05-17T10:36:38Z</time>
      </trkpt>
      <trkpt lat="43.878563968464732" lon="5.29713599011302">
        <ele>204.41999999999999</ele>
        <time>2025-05-17T10:36:39Z</time>
      </trkpt>
      <trkpt lat="43.878441005945206" lon="5.297230035066605">
        <ele>203.94</ele>
        <time>2025-05-17T10:36:40Z</time>
      </trkpt>
      <trkpt lat="43.878317037597299" lon="5.297326007857919">
        <ele>203.46000000000001</ele>
        <time>2025-05-17T10:36:41Z</time>
      </trkpt>
      <trkpt lat="43.878086032345891" lon="5.29752298258245">
        <ele>203.46000000000001</ele>
        <time>2025-05-17T10:36:43Z</time>
      </trkpt>
      <trkpt lat="43.877981007099152" lon="5.29765198007226">
        <ele>202.97999999999999</ele>
        <time>2025-05-17T10:36:44Z</time>
      </trkpt>
      <trkpt lat="43.87787296436727" lon="5.297785000875592">
        <ele>202.97999999999999</ele>
        <time>2025-05-17T10:36:45Z</time>
      </trkpt>
      <trkpt lat="43.877800041809678" lon="5.297948028892279">
        <ele>202.97999999999999</ele>
        <time>2025-05-17T10:36:46Z</time>
      </trkpt>
      <trkpt lat="43.87772100046277" lon="5.298156989738345">
        <ele>202.97999999999999</ele>
        <time>2025-05-17T10:36:47Z</time>
      </trkpt>
      <trkpt lat="43.877671966329217" lon="5.298310965299606">
        <ele>203.46000000000001</ele>
        <time>2025-05-17T10:36:48Z</time>
      </trkpt>
      <trkpt lat="43.877253038808703" lon="5.299436990171671">
        <ele>203.46000000000001</ele>
        <time>2025-05-17T10:36:54Z</time>
      </trkpt>
      <trkpt lat="43.877155976369977" lon="5.299614015966654">
        <ele>202.97999999999999</ele>
        <time>2025-05-17T10:36:55Z</time>
      </trkpt>
      <trkpt lat="43.876394983381033" lon="5.300599979236722">
        <ele>200.09</ele>
        <time>2025-05-17T10:37:02Z</time>
      </trkpt>
      <trkpt lat="43.875429974868894" lon="5.30149600468576">
        <ele>195.77000000000001</ele>
        <time>2025-05-17T10:37:10Z</time>
      </trkpt>
      <trkpt lat="43.874673005193472" lon="5.3021190315485">
        <ele>193.84</ele>
        <time>2025-05-17T10:37:15Z</time>
      </trkpt>
      <trkpt lat="43.873613029718399" lon="5.303449993953109">
        <ele>191.91999999999999</ele>
        <time>2025-05-17T10:37:23Z</time>
      </trkpt>
      <trkpt lat="43.873157976195216" lon="5.303800022229552">
        <ele>191.91999999999999</ele>
        <time>2025-05-17T10:37:26Z</time>
      </trkpt>
      <trkpt lat="43.871956011280417" lon="5.304378960281611">
        <ele>188.56</ele>
        <time>2025-05-17T10:37:33Z</time>
      </trkpt>
      <trkpt lat="43.871766999363899" lon="5.304432017728686">
        <ele>188.08000000000001</ele>
        <time>2025-05-17T10:37:34Z</time>
      </trkpt>
      <trkpt lat="43.871572958305478" lon="5.304459007456899">
        <ele>187.11000000000001</ele>
        <time>2025-05-17T10:37:35Z</time>
      </trkpt>
      <trkpt lat="43.871384030207992" lon="5.304444003850222">
        <ele>186.63</ele>
        <time>2025-05-17T10:37:36Z</time>
      </trkpt>
      <trkpt lat="43.871197029948235" lon="5.304430006071925">
        <ele>185.66999999999999</ele>
        <time>2025-05-17T10:37:37Z</time>
      </trkpt>
      <trkpt lat="43.869569012895226" lon="5.304200006648898">
        <ele>181.34999999999999</ele>
        <time>2025-05-17T10:37:46Z</time>
      </trkpt>
      <trkpt lat="43.867402039468288" lon="5.304068997502327">
        <ele>177.02000000000001</ele>
        <time>2025-05-17T10:37:58Z</time>
      </trkpt>
      <trkpt lat="43.865961022675037" lon="5.304330009967089">
        <ele>174.62</ele>
        <time>2025-05-17T10:38:07Z</time>
      </trkpt>
      <trkpt lat="43.865837976336479" lon="5.304399998858571">
        <ele>174.62</ele>
        <time>2025-05-17T10:38:08Z</time>
      </trkpt>
      <trkpt lat="43.865722976624966" lon="5.304464958608151">
        <ele>174.62</ele>
        <time>2025-05-17T10:38:09Z</time>
      </trkpt>
      <trkpt lat="43.865316035225987" lon="5.304766036570072">
        <ele>174.13999999999999</ele>
        <time>2025-05-17T10:38:14Z</time>
      </trkpt>
      <trkpt lat="43.865169016644359" lon="5.304680038243532">
        <ele>174.13999999999999</ele>
        <time>2025-05-17T10:38:15Z</time>
      </trkpt>
      <trkpt lat="43.865025015547872" lon="5.30469998717308">
        <ele>174.13999999999999</ele>
        <time>2025-05-17T10:38:17Z</time>
      </trkpt>
      <trkpt lat="43.86495603248477" lon="5.304776011034846">
        <ele>174.13999999999999</ele>
        <time>2025-05-17T10:38:18Z</time>
      </trkpt>
      <trkpt lat="43.864911021664739" lon="5.304829990491271">
        <ele>174.62</ele>
        <time>2025-05-17T10:38:19Z</time>
      </trkpt>
      <trkpt lat="43.864911021664739" lon="5.304951025173068">
        <ele>175.09999999999999</ele>
        <time>2025-05-17T10:38:20Z</time>
      </trkpt>
      <trkpt lat="43.864834997802973" lon="5.305114975199103">
        <ele>175.58000000000001</ele>
        <time>2025-05-17T10:38:21Z</time>
      </trkpt>
      <trkpt lat="43.864756962284446" lon="5.305186975747347">
        <ele>176.06</ele>
        <time>2025-05-17T10:38:22Z</time>
      </trkpt>
      <trkpt lat="43.864669036120176" lon="5.305270040407777">
        <ele>176.06</ele>
        <time>2025-05-17T10:38:23Z</time>
      </trkpt>
      <trkpt lat="43.86457297950983" lon="5.305358972400427">
        <ele>176.53999999999999</ele>
        <time>2025-05-17T10:38:24Z</time>
      </trkpt>
      <trkpt lat="43.864016002044082" lon="5.305916033685207">
        <ele>177.02000000000001</ele>
        <time>2025-05-17T10:38:29Z</time>
      </trkpt>
      <trkpt lat="43.863910976797342" lon="5.306070009246469">
        <ele>177.02000000000001</ele>
        <time>2025-05-17T10:38:30Z</time>
      </trkpt>
      <trkpt lat="43.863356010988355" lon="5.306965028867126">
        <ele>177.02000000000001</ele>
        <time>2025-05-17T10:38:36Z</time>
      </trkpt>
      <trkpt lat="43.863062979653478" lon="5.30725596472621">
        <ele>176.53999999999999</ele>
        <time>2025-05-17T10:38:39Z</time>
      </trkpt>
      <trkpt lat="43.862936999648809" lon="5.30731899663806">
        <ele>176.53999999999999</ele>
        <time>2025-05-17T10:38:40Z</time>
      </trkpt>
      <trkpt lat="43.862791992723942" lon="5.307364007458091">
        <ele>176.53999999999999</ele>
        <time>2025-05-17T10:38:41Z</time>
      </trkpt>
      <trkpt lat="43.862025970593095" lon="5.307500967755914">
        <ele>177.02000000000001</ele>
        <time>2025-05-17T10:38:47Z</time>
      </trkpt>
      <trkpt lat="43.861892027780414" lon="5.307481018826366">
        <ele>177.02000000000001</ele>
        <time>2025-05-17T10:38:48Z</time>
      </trkpt>
      <trkpt lat="43.861767975613475" lon="5.3074049949646">
        <ele>177.5</ele>
        <time>2025-05-17T10:38:49Z</time>
      </trkpt>
      <trkpt lat="43.861649036407471" lon="5.307330982759595">
        <ele>177.5</ele>
        <time>2025-05-17T10:38:50Z</time>
      </trkpt>
      <trkpt lat="43.861548034474254" lon="5.307268034666777">
        <ele>177.5</ele>
        <time>2025-05-17T10:38:51Z</time>
      </trkpt>
      <trkpt lat="43.86145600117743" lon="5.307211959734559">
        <ele>177.5</ele>
        <time>2025-05-17T10:38:52Z</time>
      </trkpt>
      <trkpt lat="43.861395986750722" lon="5.307158986106515">
        <ele>177.5</ele>
        <time>2025-05-17T10:38:53Z</time>
      </trkpt>
      <trkpt lat="43.861354999244213" lon="5.307123027741909">
        <ele>177.5</ele>
        <time>2025-05-17T10:38:54Z</time>
      </trkpt>
      <trkpt lat="43.861331027001143" lon="5.307101989164949">
        <ele>177.5</ele>
        <time>2025-05-17T10:38:55Z</time>
      </trkpt>
      <trkpt lat="43.861316023394465" lon="5.307088997215033">
        <ele>177.5</ele>
        <time>2025-05-17T10:38:56Z</time>
      </trkpt>
      <trkpt lat="43.861301019787788" lon="5.306863021105528">
        <ele>177.5</ele>
        <time>2025-05-17T10:39:03Z</time>
      </trkpt>
      <trkpt lat="43.861246034502983" lon="5.306808035820723">
        <ele>177.5</ele>
        <time>2025-05-17T10:39:04Z</time>
      </trkpt>
      <trkpt lat="43.861194988712668" lon="5.306757995858789">
        <ele>177.5</ele>
        <time>2025-05-17T10:39:05Z</time>
      </trkpt>
      <trkpt lat="43.86111200787127" lon="5.306794038042426">
        <ele>177.97999999999999</ele>
        <time>2025-05-17T10:39:06Z</time>
      </trkpt>
      <trkpt lat="43.861052999272943" lon="5.306843994185329">
        <ele>177.97999999999999</ele>
        <time>2025-05-17T10:39:07Z</time>
      </trkpt>
      <trkpt lat="43.861002959311008" lon="5.306982966139913">
        <ele>177.97999999999999</ele>
        <time>2025-05-17T10:39:08Z</time>
      </trkpt>
      <trkpt lat="43.860913021489978" lon="5.307009033858776">
        <ele>178.46000000000001</ele>
        <time>2025-05-17T10:39:09Z</time>
      </trkpt>
      <trkpt lat="43.860807996243238" lon="5.30703904107213">
        <ele>178.46000000000001</ele>
        <time>2025-05-17T10:39:10Z</time>
      </trkpt>
      <trkpt lat="43.860689979046583" lon="5.307072987779975">
        <ele>178.94</ele>
        <time>2025-05-17T10:39:11Z</time>
      </trkpt>
      <trkpt lat="43.860566010698676" lon="5.307109029963613">
        <ele>178.94</ele>
        <time>2025-05-17T10:39:12Z</time>
      </trkpt>
      <trkpt lat="43.860440030694008" lon="5.307145994156599">
        <ele>178.94</ele>
        <time>2025-05-17T10:39:13Z</time>
      </trkpt>
      <trkpt lat="43.860311033204198" lon="5.307182958349586">
        <ele>178.94</ele>
        <time>2025-05-17T10:39:14Z</time>
      </trkpt>
      <trkpt lat="43.859019968658686" lon="5.307569028809667">
        <ele>184.22999999999999</ele>
        <time>2025-05-17T10:39:22Z</time>
      </trkpt>
      <trkpt lat="43.857034966349602" lon="5.308164982125163">
        <ele>183.27000000000001</ele>
        <time>2025-05-17T10:39:32Z</time>
      </trkpt>
      <trkpt lat="43.85513998568058" lon="5.308730006217957">
        <ele>184.22999999999999</ele>
        <time>2025-05-17T10:39:42Z</time>
      </trkpt>
      <trkpt lat="43.853010982275009" lon="5.309350015595555">
        <ele>190</ele>
        <time>2025-05-17T10:39:54Z</time>
      </trkpt>
      <trkpt lat="43.852849965915084" lon="5.309411035850644">
        <ele>190.47999999999999</ele>
        <time>2025-05-17T10:39:55Z</time>
      </trkpt>
      <trkpt lat="43.852713005617261" lon="5.309497034177184">
        <ele>190.96000000000001</ele>
        <time>2025-05-17T10:39:56Z</time>
      </trkpt>
      <trkpt lat="43.852585013955832" lon="5.309625025838614">
        <ele>190.96000000000001</ele>
        <time>2025-05-17T10:39:57Z</time>
      </trkpt>
      <trkpt lat="43.852479988709092" lon="5.309776989743114">
        <ele>191.44</ele>
        <time>2025-05-17T10:39:58Z</time>
      </trkpt>
      <trkpt lat="43.852379992604256" lon="5.309944041073322">
        <ele>191.91999999999999</ele>
        <time>2025-05-17T10:39:59Z</time>
      </trkpt>
      <trkpt lat="43.852277984842658" lon="5.310114026069641">
        <ele>192.40000000000001</ele>
        <time>2025-05-17T10:40:00Z</time>
      </trkpt>
      <trkpt lat="43.851256985217333" lon="5.311502991244197">
        <ele>196.72999999999999</ele>
        <time>2025-05-17T10:40:09Z</time>
      </trkpt>
      <trkpt lat="43.851022962480783" lon="5.311759980395436">
        <ele>197.21000000000001</ele>
        <time>2025-05-17T10:40:11Z</time>
      </trkpt>
      <trkpt lat="43.850890025496483" lon="5.311859976500273">
        <ele>197.21000000000001</ele>
        <time>2025-05-17T10:40:12Z</time>
      </trkpt>
      <trkpt lat="43.850751975551248" lon="5.311926025897265">
        <ele>197.69</ele>
        <time>2025-05-17T10:40:13Z</time>
      </trkpt>
      <trkpt lat="43.850194998085499" lon="5.312076983973384">
        <ele>198.65000000000001</ele>
        <time>2025-05-17T10:40:17Z</time>
      </trkpt>
      <trkpt lat="43.850055020302534" lon="5.312064997851849">
        <ele>198.16999999999999</ele>
        <time>2025-05-17T10:40:18Z</time>
      </trkpt>
      <trkpt lat="43.849912025034428" lon="5.312015963718295">
        <ele>198.16999999999999</ele>
        <time>2025-05-17T10:40:19Z</time>
      </trkpt>
      <trkpt lat="43.849769029766321" lon="5.311966007575393">
        <ele>198.16999999999999</ele>
        <time>2025-05-17T10:40:20Z</time>
      </trkpt>
      <trkpt lat="43.849612036719918" lon="5.311911022290587">
        <ele>198.16999999999999</ele>
        <time>2025-05-17T10:40:21Z</time>
      </trkpt>
      <trkpt lat="43.849498964846134" lon="5.311786970123649">
        <ele>198.16999999999999</ele>
        <time>2025-05-17T10:40:22Z</time>
      </trkpt>
      <trkpt lat="43.849377008154988" lon="5.311652021482587">
        <ele>198.65000000000001</ele>
        <time>2025-05-17T10:40:23Z</time>
      </trkpt>
      <trkpt lat="43.849247004836798" lon="5.3115080203861">
        <ele>199.61000000000001</ele>
        <time>2025-05-17T10:40:24Z</time>
      </trkpt>
      <trkpt lat="43.849117001518607" lon="5.311356978490949">
        <ele>200.56999999999999</ele>
        <time>2025-05-17T10:40:25Z</time>
      </trkpt>
      <trkpt lat="43.848720034584403" lon="5.310937967151403">
        <ele>202.49000000000001</ele>
        <time>2025-05-17T10:40:28Z</time>
      </trkpt>
      <trkpt lat="43.84856203570962" lon="5.310808969661593">
        <ele>202.97999999999999</ele>
        <time>2025-05-17T10:40:29Z</time>
      </trkpt>
      <trkpt lat="43.847464006394148" lon="5.310213016346097">
        <ele>207.78</ele>
        <time>2025-05-17T10:40:35Z</time>
      </trkpt>
      <trkpt lat="43.847303995862603" lon="5.31017797999084">
        <ele>208.74000000000001</ele>
        <time>2025-05-17T10:40:36Z</time>
      </trkpt>
      <trkpt lat="43.84714599698782" lon="5.310156019404531">
        <ele>209.22</ele>
        <time>2025-05-17T10:40:37Z</time>
      </trkpt>
      <trkpt lat="43.846987998113036" lon="5.310172028839588">
        <ele>210.19</ele>
        <time>2025-05-17T10:40:38Z</time>
      </trkpt>
      <trkpt lat="43.846828993409872" lon="5.310187032446265">
        <ele>210.66999999999999</ele>
        <time>2025-05-17T10:40:39Z</time>
      </trkpt>
      <trkpt lat="43.846666971221566" lon="5.310225002467632">
        <ele>211.15000000000001</ele>
        <time>2025-05-17T10:40:40Z</time>
      </trkpt>
      <trkpt lat="43.84583598934114" lon="5.310365986078978">
        <ele>214.03</ele>
        <time>2025-05-17T10:40:45Z</time>
      </trkpt>
      <trkpt lat="43.845259984955192" lon="5.310381995514035">
        <ele>215.47</ele>
        <time>2025-05-17T10:40:49Z</time>
      </trkpt>
      <trkpt lat="43.845123024657369" lon="5.310436980798841">
        <ele>215.94999999999999</ele>
        <time>2025-05-17T10:40:50Z</time>
      </trkpt>
      <trkpt lat="43.844324983656406" lon="5.310831014066935">
        <ele>220.28</ele>
        <time>2025-05-17T10:40:56Z</time>
      </trkpt>
      <trkpt lat="43.844207972288132" lon="5.310866972431541">
        <ele>221.24000000000001</ele>
        <time>2025-05-17T10:40:57Z</time>
      </trkpt>
      <trkpt lat="43.844082998111844" lon="5.310880970209837">
        <ele>221.72</ele>
        <time>2025-05-17T10:40:58Z</time>
      </trkpt>
      <trkpt lat="43.843956012278795" lon="5.310849035158753">
        <ele>222.68000000000001</ele>
        <time>2025-05-17T10:40:59Z</time>
      </trkpt>
      <trkpt lat="43.843826008960605" lon="5.310813998803496">
        <ele>223.16</ele>
        <time>2025-05-17T10:41:00Z</time>
      </trkpt>
      <trkpt lat="43.842780031263828" lon="5.310487020760775">
        <ele>226.53</ele>
        <time>2025-05-17T10:41:07Z</time>
      </trkpt>
      <trkpt lat="43.842640975490212" lon="5.310385012999177">
        <ele>226.53</ele>
        <time>2025-05-17T10:41:08Z</time>
      </trkpt>
      <trkpt lat="43.842512983828783" lon="5.310276970267296">
        <ele>226.53</ele>
        <time>2025-05-17T10:41:09Z</time>
      </trkpt>
      <trkpt lat="43.842403013259172" lon="5.310136992484331">
        <ele>226.53</ele>
        <time>2025-05-17T10:41:10Z</time>
      </trkpt>
      <trkpt lat="43.842298993840814" lon="5.309972036629915">
        <ele>227.00999999999999</ele>
        <time>2025-05-17T10:41:11Z</time>
      </trkpt>
      <trkpt lat="43.842109981924295" lon="5.309592001140118">
        <ele>227.49000000000001</ele>
        <time>2025-05-17T10:41:13Z</time>
      </trkpt>
      <trkpt lat="43.842025995254517" lon="5.309387985616922">
        <ele>227.97</ele>
        <time>2025-05-17T10:41:14Z</time>
      </trkpt>
      <trkpt lat="43.84194502606988" lon="5.309175001457334">
        <ele>227.97</ele>
        <time>2025-05-17T10:41:15Z</time>
      </trkpt>
      <trkpt lat="43.841651994735003" lon="5.307842027395964">
        <ele>232.30000000000001</ele>
        <time>2025-05-17T10:41:21Z</time>
      </trkpt>
      <trkpt lat="43.841577982529998" lon="5.3076639957726">
        <ele>232.78</ele>
        <time>2025-05-17T10:41:22Z</time>
      </trkpt>
      <trkpt lat="43.841499025002122" lon="5.307473978027701">
        <ele>233.25999999999999</ele>
        <time>2025-05-17T10:41:23Z</time>
      </trkpt>
      <trkpt lat="43.841387964785099" lon="5.307301981374621">
        <ele>234.22</ele>
        <time>2025-05-17T10:41:24Z</time>
      </trkpt>
      <trkpt lat="43.841268019750714" lon="5.307139959186316">
        <ele>234.69999999999999</ele>
        <time>2025-05-17T10:41:25Z</time>
      </trkpt>
      <trkpt lat="43.841031985357404" lon="5.306858997792006">
        <ele>236.62</ele>
        <time>2025-05-17T10:41:27Z</time>
      </trkpt>
      <trkpt lat="43.840918997302651" lon="5.306738968938589">
        <ele>237.09999999999999</ele>
        <time>2025-05-17T10:41:28Z</time>
      </trkpt>
      <trkpt lat="43.840778013691306" lon="5.30667400918901">
        <ele>237.58000000000001</ele>
        <time>2025-05-17T10:41:29Z</time>
      </trkpt>
      <trkpt lat="43.840616997331381" lon="5.306624975055456">
        <ele>238.06</ele>
        <time>2025-05-17T10:41:30Z</time>
      </trkpt>
      <trkpt lat="43.84044298902154" lon="5.306607037782669">
        <ele>238.53999999999999</ele>
        <time>2025-05-17T10:41:31Z</time>
      </trkpt>
      <trkpt lat="43.839790038764477" lon="5.306547023355961">
        <ele>240.94999999999999</ele>
        <time>2025-05-17T10:41:35Z</time>
      </trkpt>
      <trkpt lat="43.83964603766799" lon="5.306559009477496">
        <ele>241.43000000000001</ele>
        <time>2025-05-17T10:41:36Z</time>
      </trkpt>
      <trkpt lat="43.839502958580852" lon="5.306616006419063">
        <ele>242.38999999999999</ele>
        <time>2025-05-17T10:41:37Z</time>
      </trkpt>
      <trkpt lat="43.839350994676352" lon="5.306677026674151">
        <ele>243.34999999999999</ele>
        <time>2025-05-17T10:41:38Z</time>
      </trkpt>
      <trkpt lat="43.83919701911509" lon="5.306743998080492">
        <ele>244.31</ele>
        <time>2025-05-17T10:41:39Z</time>
      </trkpt>
      <trkpt lat="43.839041031897068" lon="5.306823961436749">
        <ele>244.78999999999999</ele>
        <time>2025-05-17T10:41:40Z</time>
      </trkpt>
      <trkpt lat="43.838879009708762" lon="5.306906020268798">
        <ele>245.75</ele>
        <time>2025-05-17T10:41:41Z</time>
      </trkpt>
      <trkpt lat="43.837518962100148" lon="5.307670030742884">
        <ele>253.44</ele>
        <time>2025-05-17T10:41:49Z</time>
      </trkpt>
      <trkpt lat="43.837382001802325" lon="5.307800034061074">
        <ele>254.41</ele>
        <time>2025-05-17T10:41:50Z</time>
      </trkpt>
      <trkpt lat="43.837272031232715" lon="5.307958032935858">
        <ele>254.88999999999999</ele>
        <time>2025-05-17T10:41:51Z</time>
      </trkpt>
      <trkpt lat="43.837203970178962" lon="5.308134974911809">
        <ele>255.84999999999999</ele>
        <time>2025-05-17T10:41:52Z</time>
      </trkpt>
      <trkpt lat="43.837185027077794" lon="5.308296997100115">
        <ele>256.32999999999998</ele>
        <time>2025-05-17T10:41:53Z</time>
      </trkpt>
      <trkpt lat="43.837181003764272" lon="5.30848097987473">
        <ele>257.29000000000002</ele>
        <time>2025-05-17T10:41:54Z</time>
      </trkpt>
      <trkpt lat="43.837175974622369" lon="5.30869203619659">
        <ele>258.25</ele>
        <time>2025-05-17T10:41:55Z</time>
      </trkpt>
      <trkpt lat="43.837170023471117" lon="5.308916000649333">
        <ele>258.73000000000002</ele>
        <time>2025-05-17T10:41:56Z</time>
      </trkpt>
      <trkpt lat="43.837148984894156" lon="5.309139965102077">
        <ele>259.20999999999998</ele>
        <time>2025-05-17T10:41:57Z</time>
      </trkpt>
      <trkpt lat="43.837081007659435" lon="5.309379016980529">
        <ele>259.20999999999998</ele>
        <time>2025-05-17T10:41:58Z</time>
      </trkpt>
      <trkpt lat="43.836974976584315" lon="5.309555036947131">
        <ele>259.69</ele>
        <time>2025-05-17T10:41:59Z</time>
      </trkpt>
      <trkpt lat="43.836837010458112" lon="5.309698032215238">
        <ele>259.69</ele>
        <time>2025-05-17T10:42:00Z</time>
      </trkpt>
      <trkpt lat="43.836700972169638" lon="5.309819988906384">
        <ele>259.69</ele>
        <time>2025-05-17T10:42:01Z</time>
      </trkpt>
      <trkpt lat="43.836581027135253" lon="5.309929037466645">
        <ele>260.17000000000002</ele>
        <time>2025-05-17T10:42:02Z</time>
      </trkpt>
      <trkpt lat="43.83646996691823" lon="5.310062980279326">
        <ele>260.17000000000002</ele>
        <time>2025-05-17T10:42:03Z</time>
      </trkpt>
      <trkpt lat="43.836382962763309" lon="5.310239000245929">
        <ele>260.17000000000002</ele>
        <time>2025-05-17T10:42:04Z</time>
      </trkpt>
      <trkpt lat="43.836289001628757" lon="5.310426000505686">
        <ele>260.17000000000002</ele>
        <time>2025-05-17T10:42:05Z</time>
      </trkpt>
      <trkpt lat="43.836178025230765" lon="5.310597997158766">
        <ele>260.17000000000002</ele>
        <time>2025-05-17T10:42:06Z</time>
      </trkpt>
      <trkpt lat="43.836048021912575" lon="5.310746021568775">
        <ele>260.64999999999998</ele>
        <time>2025-05-17T10:42:07Z</time>
      </trkpt>
      <trkpt lat="43.835883988067508" lon="5.310844006016851">
        <ele>261.13999999999999</ele>
        <time>2025-05-17T10:42:08Z</time>
      </trkpt>
      <trkpt lat="43.835710985586047" lon="5.31094903126359">
        <ele>261.62</ele>
        <time>2025-05-17T10:42:09Z</time>
      </trkpt>
      <trkpt lat="43.833984984084964" lon="5.312018981203437">
        <ele>269.79000000000002</ele>
        <time>2025-05-17T10:42:19Z</time>
      </trkpt>
      <trkpt lat="43.833835031837225" lon="5.312144961208105">
        <ele>270.75</ele>
        <time>2025-05-17T10:42:20Z</time>
      </trkpt>
      <trkpt lat="43.833712991327047" lon="5.312302960082889">
        <ele>271.70999999999998</ele>
        <time>2025-05-17T10:42:21Z</time>
      </trkpt>
      <trkpt lat="43.833590028807521" lon="5.312460958957672">
        <ele>272.67000000000002</ele>
        <time>2025-05-17T10:42:22Z</time>
      </trkpt>
      <trkpt lat="43.833467988297343" lon="5.312618035823107">
        <ele>274.11000000000001</ele>
        <time>2025-05-17T10:42:23Z</time>
      </trkpt>
      <trkpt lat="43.833347037434578" lon="5.31277502886951">
        <ele>275.56</ele>
        <time>2025-05-17T10:42:24Z</time>
      </trkpt>
      <trkpt lat="43.833222985267639" lon="5.312935039401054">
        <ele>277</ele>
        <time>2025-05-17T10:42:25Z</time>
      </trkpt>
      <trkpt lat="43.832935988903046" lon="5.313223041594029">
        <ele>279.88</ele>
        <time>2025-05-17T10:42:27Z</time>
      </trkpt>
      <trkpt lat="43.832786958664656" lon="5.313371988013387">
        <ele>280.83999999999997</ele>
        <time>2025-05-17T10:42:28Z</time>
      </trkpt>
      <trkpt lat="43.832614962011576" lon="5.313483970239759">
        <ele>282.27999999999997</ele>
        <time>2025-05-17T10:42:29Z</time>
      </trkpt>
      <trkpt lat="43.830874040722847" lon="5.31464796513319">
        <ele>295.74000000000001</ele>
        <time>2025-05-17T10:42:39Z</time>
      </trkpt>
      <trkpt lat="43.830347992479801" lon="5.314997993409634">
        <ele>301.02999999999997</ele>
        <time>2025-05-17T10:42:43Z</time>
      </trkpt>
      <trkpt lat="43.830195022746921" lon="5.315001010894775">
        <ele>301.99000000000001</ele>
        <time>2025-05-17T10:42:44Z</time>
      </trkpt>
      <trkpt lat="43.830048004165292" lon="5.314980978146195">
        <ele>302.94999999999999</ele>
        <time>2025-05-17T10:42:45Z</time>
      </trkpt>
      <trkpt lat="43.829898973926902" lon="5.314944013953209">
        <ele>304.38999999999999</ele>
        <time>2025-05-17T10:42:46Z</time>
      </trkpt>
      <trkpt lat="43.829752039164305" lon="5.31486002728343">
        <ele>305.36000000000001</ele>
        <time>2025-05-17T10:42:47Z</time>
      </trkpt>
      <trkpt lat="43.829597979784012" lon="5.314759025350213">
        <ele>306.31999999999999</ele>
        <time>2025-05-17T10:42:48Z</time>
      </trkpt>
      <trkpt lat="43.829435035586357" lon="5.314651988446713">
        <ele>307.27999999999997</ele>
        <time>2025-05-17T10:42:49Z</time>
      </trkpt>
      <trkpt lat="43.829090036451817" lon="5.314471023157239">
        <ele>309.68000000000001</ele>
        <time>2025-05-17T10:42:51Z</time>
      </trkpt>
      <trkpt lat="43.828913010656834" lon="5.314401034265757">
        <ele>310.63999999999999</ele>
        <time>2025-05-17T10:42:52Z</time>
      </trkpt>
      <trkpt lat="43.827784974128008" lon="5.314060980454087">
        <ele>319.30000000000001</ele>
        <time>2025-05-17T10:42:59Z</time>
      </trkpt>
      <trkpt lat="43.82763896137476" lon="5.313970958814025">
        <ele>319.77999999999997</ele>
        <time>2025-05-17T10:43:00Z</time>
      </trkpt>
      <trkpt lat="43.82755103521049" lon="5.313844978809357">
        <ele>320.74000000000001</ele>
        <time>2025-05-17T10:43:01Z</time>
      </trkpt>
      <trkpt lat="43.827459001913667" lon="5.313682034611702">
        <ele>321.69999999999999</ele>
        <time>2025-05-17T10:43:02Z</time>
      </trkpt>
      <trkpt lat="43.827382978051901" lon="5.313488999381661">
        <ele>322.66000000000003</ele>
        <time>2025-05-17T10:43:03Z</time>
      </trkpt>
      <trkpt lat="43.827303014695644" lon="5.313285989686847">
        <ele>323.62</ele>
        <time>2025-05-17T10:43:04Z</time>
      </trkpt>
      <trkpt lat="43.826448982581496" lon="5.31142202205956">
        <ele>330.82999999999998</ele>
        <time>2025-05-17T10:43:13Z</time>
      </trkpt>
      <trkpt lat="43.826248990371823" lon="5.310836965218186">
        <ele>333.70999999999998</ele>
        <time>2025-05-17T10:43:16Z</time>
      </trkpt>
      <trkpt lat="43.826204985380173" lon="5.310669997707009">
        <ele>334.68000000000001</ele>
        <time>2025-05-17T10:43:17Z</time>
      </trkpt>
      <trkpt lat="43.826171038672328" lon="5.310517027974129">
        <ele>335.63999999999999</ele>
        <time>2025-05-17T10:43:18Z</time>
      </trkpt>
      <trkpt lat="43.826140025630593" lon="5.310376966372132">
        <ele>336.60000000000002</ele>
        <time>2025-05-17T10:43:19Z</time>
      </trkpt>
      <trkpt lat="43.826085962355137" lon="5.310257021337748">
        <ele>337.07999999999998</ele>
        <time>2025-05-17T10:43:20Z</time>
      </trkpt>
      <trkpt lat="43.826030977070332" lon="5.310140009969473">
        <ele>337.56</ele>
        <time>2025-05-17T10:43:21Z</time>
      </trkpt>
      <trkpt lat="43.82583299651742" lon="5.309858964756131">
        <ele>339.48000000000002</ele>
        <time>2025-05-17T10:43:24Z</time>
      </trkpt>
      <trkpt lat="43.825759990140796" lon="5.309781013056636">
        <ele>339.95999999999998</ele>
        <time>2025-05-17T10:43:25Z</time>
      </trkpt>
      <trkpt lat="43.825686983764172" lon="5.309702977538109">
        <ele>340.44</ele>
        <time>2025-05-17T10:43:26Z</time>
      </trkpt>
      <trkpt lat="43.825452039018273" lon="5.309531986713409">
        <ele>341.88999999999999</ele>
        <time>2025-05-17T10:43:29Z</time>
      </trkpt>
      <trkpt lat="43.825241988524795" lon="5.309386979788542">
        <ele>343.81</ele>
        <time>2025-05-17T10:43:32Z</time>
      </trkpt>
      <trkpt lat="43.825191026553512" lon="5.309352027252317">
        <ele>344.76999999999998</ele>
        <time>2025-05-17T10:43:33Z</time>
      </trkpt>
      <trkpt lat="43.825144004076719" lon="5.309319002553821">
        <ele>345.73000000000002</ele>
        <time>2025-05-17T10:43:34Z</time>
      </trkpt>
      <trkpt lat="43.825107039883733" lon="5.309293018653989">
        <ele>346.69</ele>
        <time>2025-05-17T10:43:35Z</time>
      </trkpt>
      <trkpt lat="43.825078038498759" lon="5.309177013114095">
        <ele>347.64999999999998</ele>
        <time>2025-05-17T10:43:36Z</time>
      </trkpt>
      <trkpt lat="43.82505901157856" lon="5.309096965938807">
        <ele>348.13</ele>
        <time>2025-05-17T10:43:37Z</time>
      </trkpt>
      <trkpt lat="43.82503897882998" lon="5.309006022289395">
        <ele>349.10000000000002</ele>
        <time>2025-05-17T10:43:38Z</time>
      </trkpt>
      <trkpt lat="43.8249740190804" lon="5.308717014268041">
        <ele>351.01999999999998</ele>
        <time>2025-05-17T10:43:41Z</time>
      </trkpt>
      <trkpt lat="43.82495398633182" lon="5.308621963486075">
        <ele>351.5</ele>
        <time>2025-05-17T10:43:42Z</time>
      </trkpt>
      <trkpt lat="43.824933031573892" lon="5.308521967381239">
        <ele>351.5</ele>
        <time>2025-05-17T10:43:43Z</time>
      </trkpt>
      <trkpt lat="43.82491098716855" lon="5.30841501429677">
        <ele>351.5</ele>
        <time>2025-05-17T10:43:44Z</time>
      </trkpt>
      <trkpt lat="43.824896989390254" lon="5.308315018191934">
        <ele>351.5</ele>
        <time>2025-05-17T10:43:45Z</time>
      </trkpt>
      <trkpt lat="43.824785007163882" lon="5.307946968823671">
        <ele>351.98000000000002</ele>
        <time>2025-05-17T10:43:49Z</time>
      </trkpt>
      <trkpt lat="43.824756005778909" lon="5.307854013517499">
        <ele>352.45999999999998</ele>
        <time>2025-05-17T10:43:50Z</time>
      </trkpt>
      <trkpt lat="43.824718035757542" lon="5.307773966342211">
        <ele>352.45999999999998</ele>
        <time>2025-05-17T10:43:51Z</time>
      </trkpt>
      <trkpt lat="43.824626002460718" lon="5.307628959417343">
        <ele>352.94</ele>
        <time>2025-05-17T10:43:53Z</time>
      </trkpt>
      <trkpt lat="43.824581997469068" lon="5.307559976354241">
        <ele>352.94</ele>
        <time>2025-05-17T10:43:54Z</time>
      </trkpt>
      <trkpt lat="43.824470015242696" lon="5.30738496221602">
        <ele>352.94</ele>
        <time>2025-05-17T10:43:57Z</time>
      </trkpt>
      <trkpt lat="43.824419975280762" lon="5.30714800581336">
        <ele>352.94</ele>
        <time>2025-05-17T10:44:00Z</time>
      </trkpt>
      <trkpt lat="43.824401032179594" lon="5.307098971679807">
        <ele>352.94</ele>
        <time>2025-05-17T10:44:01Z</time>
      </trkpt>
      <trkpt lat="43.824377981945872" lon="5.30704096890986">
        <ele>352.45999999999998</ele>
        <time>2025-05-17T10:44:02Z</time>
      </trkpt>
      <trkpt lat="43.824327019974589" lon="5.307027976959944">
        <ele>351.98000000000002</ele>
        <time>2025-05-17T10:44:03Z</time>
      </trkpt>
      <trkpt lat="43.824291983619332" lon="5.30701900832355">
        <ele>351.5</ele>
        <time>2025-05-17T10:44:04Z</time>
      </trkpt>
      <trkpt lat="43.824267005547881" lon="5.30708103440702">
        <ele>351.01999999999998</ele>
        <time>2025-05-17T10:44:05Z</time>
      </trkpt>
      <trkpt lat="43.824168015271425" lon="5.307078016921878">
        <ele>351.01999999999998</ele>
        <time>2025-05-17T10:44:06Z</time>
      </trkpt>
      <trkpt lat="43.824123004451394" lon="5.307052033022046">
        <ele>350.54000000000002</ele>
        <time>2025-05-17T10:44:07Z</time>
      </trkpt>
      <trkpt lat="43.824071958661079" lon="5.307022025808692">
        <ele>350.54000000000002</ele>
        <time>2025-05-17T10:44:08Z</time>
      </trkpt>
      <trkpt lat="43.824017979204655" lon="5.306990006938577">
        <ele>350.54000000000002</ele>
        <time>2025-05-17T10:44:09Z</time>
      </trkpt>
      <trkpt lat="43.823958970606327" lon="5.3069559764117">
        <ele>350.54000000000002</ele>
        <time>2025-05-17T10:44:10Z</time>
      </trkpt>
      <trkpt lat="43.823727965354919" lon="5.306820021942258">
        <ele>350.54000000000002</ele>
        <time>2025-05-17T10:44:14Z</time>
      </trkpt>
      <trkpt lat="43.823674991726875" lon="5.306789008900523">
        <ele>351.01999999999998</ele>
        <time>2025-05-17T10:44:15Z</time>
      </trkpt>
      <trkpt lat="43.823624029755592" lon="5.306759001687169">
        <ele>350.54000000000002</ele>
        <time>2025-05-17T10:44:16Z</time>
      </trkpt>
      <trkpt lat="43.823572983965278" lon="5.306727988645434">
        <ele>350.54000000000002</ele>
        <time>2025-05-17T10:44:17Z</time>
      </trkpt>
      <trkpt lat="43.823522021993995" lon="5.306698987260461">
        <ele>350.06</ele>
        <time>2025-05-17T10:44:18Z</time>
      </trkpt>
      <trkpt lat="43.823476005345583" lon="5.306665962561965">
        <ele>350.06</ele>
        <time>2025-05-17T10:44:19Z</time>
      </trkpt>
      <trkpt lat="43.82342797704041" lon="5.30663101002574">
        <ele>350.06</ele>
        <time>2025-05-17T10:44:20Z</time>
      </trkpt>
      <trkpt lat="43.823377015069127" lon="5.306594967842102">
        <ele>349.57999999999998</ele>
        <time>2025-05-17T10:44:21Z</time>
      </trkpt>
      <trkpt lat="43.823343990370631" lon="5.306556997820735">
        <ele>349.10000000000002</ele>
        <time>2025-05-17T10:44:22Z</time>
      </trkpt>
      <trkpt lat="43.823299985378981" lon="5.306500000879169">
        <ele>349.10000000000002</ele>
        <time>2025-05-17T10:44:23Z</time>
      </trkpt>
      <trkpt lat="43.82325598038733" lon="5.306440992280841">
        <ele>348.62</ele>
        <time>2025-05-17T10:44:24Z</time>
      </trkpt>
      <trkpt lat="43.823210969567299" lon="5.306380977854133">
        <ele>348.62</ele>
        <time>2025-05-17T10:44:25Z</time>
      </trkpt>
      <trkpt lat="43.823165036737919" lon="5.306320963427424">
        <ele>348.62</ele>
        <time>2025-05-17T10:44:26Z</time>
      </trkpt>
      <trkpt lat="43.823121031746268" lon="5.306262960657477">
        <ele>348.13</ele>
        <time>2025-05-17T10:44:27Z</time>
      </trkpt>
      <trkpt lat="43.822903018444777" lon="5.306011000648141">
        <ele>346.20999999999998</ele>
        <time>2025-05-17T10:44:32Z</time>
      </trkpt>
      <trkpt lat="43.822862030938268" lon="5.305980993434787">
        <ele>345.73000000000002</ele>
        <time>2025-05-17T10:44:33Z</time>
      </trkpt>
      <trkpt lat="43.822823977097869" lon="5.305952997878194">
        <ele>345.25</ele>
        <time>2025-05-17T10:44:34Z</time>
      </trkpt>
      <trkpt lat="43.822786007076502" lon="5.305926008149982">
        <ele>345.25</ele>
        <time>2025-05-17T10:44:35Z</time>
      </trkpt>
      <trkpt lat="43.822701014578342" lon="5.305908992886543">
        <ele>344.76999999999998</ele>
        <time>2025-05-17T10:44:36Z</time>
      </trkpt>
      <trkpt lat="43.822665978223085" lon="5.30594696290791">
        <ele>344.29000000000002</ele>
        <time>2025-05-17T10:44:37Z</time>
      </trkpt>
      <trkpt lat="43.822599006816745" lon="5.306021980941296">
        <ele>344.29000000000002</ele>
        <time>2025-05-17T10:44:39Z</time>
      </trkpt>
      <trkpt lat="43.822560030966997" lon="5.306064980104566">
        <ele>344.29000000000002</ele>
        <time>2025-05-17T10:44:40Z</time>
      </trkpt>
      <trkpt lat="43.822534969076514" lon="5.306129017844796">
        <ele>344.29000000000002</ele>
        <time>2025-05-17T10:44:41Z</time>
      </trkpt>
      <trkpt lat="43.822539998218417" lon="5.306174028664827">
        <ele>344.76999999999998</ele>
        <time>2025-05-17T10:44:42Z</time>
      </trkpt>
      <trkpt lat="43.82254502736032" lon="5.306228008121252">
        <ele>345.25</ele>
        <time>2025-05-17T10:44:43Z</time>
      </trkpt>
      <trkpt lat="43.822550978511572" lon="5.306280981749296">
        <ele>345.25</ele>
        <time>2025-05-17T10:44:44Z</time>
      </trkpt>
      <trkpt lat="43.822576962411404" lon="5.306332027539611">
        <ele>345.73000000000002</ele>
        <time>2025-05-17T10:44:45Z</time>
      </trkpt>
      <trkpt lat="43.822617027908564" lon="5.306366980075836">
        <ele>345.73000000000002</ele>
        <time>2025-05-17T10:44:46Z</time>
      </trkpt>
      <trkpt lat="43.822660027071834" lon="5.306405033916235">
        <ele>346.20999999999998</ele>
        <time>2025-05-17T10:44:47Z</time>
      </trkpt>
      <trkpt lat="43.822960015386343" lon="5.306679038330913">
        <ele>346.69</ele>
        <time>2025-05-17T10:44:53Z</time>
      </trkpt>
      <trkpt lat="43.823002008721232" lon="5.306732011958957">
        <ele>346.69</ele>
        <time>2025-05-17T10:44:54Z</time>
      </trkpt>
      <trkpt lat="43.823048025369644" lon="5.306790014728904">
        <ele>346.69</ele>
        <time>2025-05-17T10:44:55Z</time>
      </trkpt>
      <trkpt lat="43.823097981512547" lon="5.306852962821722">
        <ele>346.69</ele>
        <time>2025-05-17T10:44:56Z</time>
      </trkpt>
      <trkpt lat="43.823148021474481" lon="5.306915994733572">
        <ele>346.69</ele>
        <time>2025-05-17T10:44:57Z</time>
      </trkpt>
      <trkpt lat="43.823197977617383" lon="5.306979026645422">
        <ele>347.17000000000002</ele>
        <time>2025-05-17T10:44:58Z</time>
      </trkpt>
      <trkpt lat="43.823251035064459" lon="5.307045998051763">
        <ele>347.17000000000002</ele>
        <time>2025-05-17T10:44:59Z</time>
      </trkpt>
      <trkpt lat="43.823305014520884" lon="5.307112969458103">
        <ele>347.17000000000002</ele>
        <time>2025-05-17T10:45:00Z</time>
      </trkpt>
      <trkpt lat="43.823573989793658" lon="5.307452017441392">
        <ele>348.13</ele>
        <time>2025-05-17T10:45:06Z</time>
      </trkpt>
      <trkpt lat="43.823600979521871" lon="5.307485964149237">
        <ele>348.62</ele>
        <time>2025-05-17T10:45:07Z</time>
      </trkpt>
      <trkpt lat="43.823621012270451" lon="5.307523012161255">
        <ele>349.10000000000002</ele>
        <time>2025-05-17T10:45:08Z</time>
      </trkpt>
      <trkpt lat="43.823643978685141" lon="5.307569028809667">
        <ele>349.10000000000002</ele>
        <time>2025-05-17T10:45:09Z</time>
      </trkpt>
      <trkpt lat="43.823665017262101" lon="5.307612027972937">
        <ele>348.62</ele>
        <time>2025-05-17T10:45:10Z</time>
      </trkpt>
      <trkpt lat="43.823688989505172" lon="5.307658966630697">
        <ele>348.62</ele>
        <time>2025-05-17T10:45:11Z</time>
      </trkpt>
      <trkpt lat="43.823700975626707" lon="5.307725016027689">
        <ele>348.62</ele>
        <time>2025-05-17T10:45:12Z</time>
      </trkpt>
      <trkpt lat="43.823774987831712" lon="5.307935988530517">
        <ele>347.64999999999998</ele>
        <time>2025-05-17T10:45:15Z</time>
      </trkpt>
      <trkpt lat="43.823803989216685" lon="5.308004971593618">
        <ele>347.17000000000002</ele>
        <time>2025-05-17T10:45:16Z</time>
      </trkpt>
      <trkpt lat="43.82383500225842" lon="5.308076972141862">
        <ele>346.69</ele>
        <time>2025-05-17T10:45:17Z</time>
      </trkpt>
      <trkpt lat="43.823866015300155" lon="5.308152996003628">
        <ele>346.69</ele>
        <time>2025-05-17T10:45:18Z</time>
      </trkpt>
      <trkpt lat="43.823897028341889" lon="5.308232037350535">
        <ele>346.69</ele>
        <time>2025-05-17T10:45:19Z</time>
      </trkpt>
      <trkpt lat="43.823931980878115" lon="5.308318035677075">
        <ele>346.20999999999998</ele>
        <time>2025-05-17T10:45:20Z</time>
      </trkpt>
      <trkpt lat="43.824115041643381" lon="5.308766970410943">
        <ele>345.73000000000002</ele>
        <time>2025-05-17T10:45:25Z</time>
      </trkpt>
      <trkpt lat="43.824158962816" lon="5.308856992051005">
        <ele>346.20999999999998</ele>
        <time>2025-05-17T10:45:26Z</time>
      </trkpt>
      <trkpt lat="43.824419975280762" lon="5.309378011152148">
        <ele>350.54000000000002</ele>
        <time>2025-05-17T10:45:32Z</time>
      </trkpt>
      <trkpt lat="43.824449982494116" lon="5.309468032792211">
        <ele>351.5</ele>
        <time>2025-05-17T10:45:33Z</time>
      </trkpt>
      <trkpt lat="43.824477978050709" lon="5.309551013633609">
        <ele>352.45999999999998</ele>
        <time>2025-05-17T10:45:34Z</time>
      </trkpt>
      <trkpt lat="43.824505973607302" lon="5.309637011960149">
        <ele>353.42000000000002</ele>
        <time>2025-05-17T10:45:35Z</time>
      </trkpt>
      <trkpt lat="43.824535980820656" lon="5.30972502194345">
        <ele>353.89999999999998</ele>
        <time>2025-05-17T10:45:36Z</time>
      </trkpt>
      <trkpt lat="43.824554001912475" lon="5.30981102026999">
        <ele>354.86000000000001</ele>
        <time>2025-05-17T10:45:37Z</time>
      </trkpt>
      <trkpt lat="43.824561964720488" lon="5.309882014989853">
        <ele>355.82999999999998</ele>
        <time>2025-05-17T10:45:38Z</time>
      </trkpt>
      <trkpt lat="43.824569005519152" lon="5.3099400177598">
        <ele>356.79000000000002</ele>
        <time>2025-05-17T10:45:39Z</time>
      </trkpt>
      <trkpt lat="43.824561964720488" lon="5.309981005266309">
        <ele>357.75</ele>
        <time>2025-05-17T10:45:40Z</time>
      </trkpt>
      <trkpt lat="43.824548972770572" lon="5.310016041621566">
        <ele>358.70999999999998</ele>
        <time>2025-05-17T10:45:41Z</time>
      </trkpt>
      <trkpt lat="43.824538998305798" lon="5.310042025521398">
        <ele>359.67000000000002</ele>
        <time>2025-05-17T10:45:42Z</time>
      </trkpt>
      <trkpt lat="43.824482001364231" lon="5.310019981116056">
        <ele>361.11000000000001</ele>
        <time>2025-05-17T10:45:44Z</time>
      </trkpt>
      <trkpt lat="43.824469009414315" lon="5.309958960860968">
        <ele>361.58999999999997</ele>
        <time>2025-05-17T10:45:45Z</time>
      </trkpt>
      <trkpt lat="43.824452999979258" lon="5.309886038303375">
        <ele>362.06999999999999</ele>
        <time>2025-05-17T10:45:46Z</time>
      </trkpt>
      <trkpt lat="43.824420981109142" lon="5.309737008064985">
        <ele>363.51999999999998</ele>
        <time>2025-05-17T10:45:48Z</time>
      </trkpt>
      <trkpt lat="43.824404971674085" lon="5.309662995859981">
        <ele>364</ele>
        <time>2025-05-17T10:45:49Z</time>
      </trkpt>
      <trkpt lat="43.824377981945872" lon="5.309589989483357">
        <ele>364.48000000000002</ele>
        <time>2025-05-17T10:45:50Z</time>
      </trkpt>
      <trkpt lat="43.824346968904138" lon="5.309521006420255">
        <ele>364.48000000000002</ele>
        <time>2025-05-17T10:45:51Z</time>
      </trkpt>
      <trkpt lat="43.824315033853054" lon="5.309448000043631">
        <ele>364.95999999999998</ele>
        <time>2025-05-17T10:45:52Z</time>
      </trkpt>
      <trkpt lat="43.824090985581279" lon="5.309010967612267">
        <ele>366.88</ele>
        <time>2025-05-17T10:45:58Z</time>
      </trkpt>
      <trkpt lat="43.824061984196305" lon="5.308958999812603">
        <ele>366.88</ele>
        <time>2025-05-17T10:45:59Z</time>
      </trkpt>
      <trkpt lat="43.824033988639712" lon="5.30891097150743">
        <ele>367.36000000000001</ele>
        <time>2025-05-17T10:46:00Z</time>
      </trkpt>
      <trkpt lat="43.823979003354907" lon="5.308813992887735">
        <ele>367.83999999999997</ele>
        <time>2025-05-17T10:46:02Z</time>
      </trkpt>
      <trkpt lat="43.823954025283456" lon="5.308769987896085">
        <ele>367.83999999999997</ele>
        <time>2025-05-17T10:46:03Z</time>
      </trkpt>
      <trkpt lat="43.823932986706495" lon="5.308734029531479">
        <ele>367.83999999999997</ele>
        <time>2025-05-17T10:46:04Z</time>
      </trkpt>
      <trkpt lat="43.823759984225035" lon="5.308430017903447">
        <ele>369.75999999999999</ele>
        <time>2025-05-17T10:46:13Z</time>
      </trkpt>
      <trkpt lat="43.823530990630388" lon="5.30802701599896">
        <ele>370.73000000000002</ele>
        <time>2025-05-17T10:46:23Z</time>
      </trkpt>
      <trkpt lat="43.823462007567286" lon="5.307904975488782">
        <ele>372.17000000000002</ele>
        <time>2025-05-17T10:46:33Z</time>
      </trkpt>
      <trkpt lat="43.823435017839074" lon="5.307858036831021">
        <ele>372.17000000000002</ele>
        <time>2025-05-17T10:47:20Z</time>
      </trkpt>
      <trkpt lat="43.823176017031074" lon="5.30753399245441">
        <ele>371.69</ele>
        <time>2025-05-17T10:47:25Z</time>
      </trkpt>
      <trkpt lat="43.823103010654449" lon="5.307497028261423">
        <ele>371.69</ele>
        <time>2025-05-17T10:47:27Z</time>
      </trkpt>
      <trkpt lat="43.822858007624745" lon="5.30744799412787">
        <ele>371.20999999999998</ele>
        <time>2025-05-17T10:47:32Z</time>
      </trkpt>
      <trkpt lat="43.822821965441108" lon="5.307458974421024">
        <ele>371.69</ele>
        <time>2025-05-17T10:47:33Z</time>
      </trkpt>
      <trkpt lat="43.822790030390024" lon="5.30749099329114">
        <ele>372.17000000000002</ele>
        <time>2025-05-17T10:47:34Z</time>
      </trkpt>
      <trkpt lat="43.822777038440108" lon="5.307529969140887">
        <ele>372.17000000000002</ele>
        <time>2025-05-17T10:47:35Z</time>
      </trkpt>
      <trkpt lat="43.822765974327922" lon="5.307561988011003">
        <ele>372.64999999999998</ele>
        <time>2025-05-17T10:47:36Z</time>
      </trkpt>
      <trkpt lat="43.822755999863148" lon="5.307590989395976">
        <ele>372.64999999999998</ele>
        <time>2025-05-17T10:47:37Z</time>
      </trkpt>
      <trkpt lat="43.822662960737944" lon="5.307988040149212">
        <ele>373.61000000000001</ele>
        <time>2025-05-17T10:47:45Z</time>
      </trkpt>
      <trkpt lat="43.822608981281519" lon="5.308410990983248">
        <ele>374.08999999999997</ele>
        <time>2025-05-17T10:47:51Z</time>
      </trkpt>
      <trkpt lat="43.822599006816745" lon="5.308486009016633">
        <ele>374.08999999999997</ele>
        <time>2025-05-17T10:47:52Z</time>
      </trkpt>
      <trkpt lat="43.82258702069521" lon="5.308568989858031">
        <ele>373.61000000000001</ele>
        <time>2025-05-17T10:47:53Z</time>
      </trkpt>
      <trkpt lat="43.822575034573674" lon="5.308649959042668">
        <ele>374.08999999999997</ele>
        <time>2025-05-17T10:47:54Z</time>
      </trkpt>
      <trkpt lat="43.822575034573674" lon="5.308701004832983">
        <ele>374.08999999999997</ele>
        <time>2025-05-17T10:47:55Z</time>
      </trkpt>
      <trkpt lat="43.822575034573674" lon="5.308750960975885">
        <ele>373.61000000000001</ele>
        <time>2025-05-17T10:47:56Z</time>
      </trkpt>
      <trkpt lat="43.822575034573674" lon="5.308785997331142">
        <ele>373.61000000000001</ele>
        <time>2025-05-17T10:47:57Z</time>
      </trkpt>
      <trkpt lat="43.822575034573674" lon="5.308785997331142">
        <ele>374.08999999999997</ele>
        <time>2025-05-17T10:48:09Z</time>
      </trkpt>
      <trkpt lat="43.822575034573674" lon="5.308785997331142">
        <ele>374.08999999999997</ele>
        <time>2025-05-17T10:48:55Z</time>
      </trkpt>
      <trkpt lat="43.822575034573674" lon="5.308785997331142">
        <ele>374.08999999999997</ele>
        <time>2025-05-17T10:49:46Z</time>
      </trkpt>
      <trkpt lat="43.822575034573674" lon="5.309240967035294">
        <ele>376.00999999999999</ele>
        <time>2025-05-17T10:50:04Z</time>
      </trkpt>
      <trkpt lat="43.822575034573674" lon="5.309339035302401">
        <ele>376.97000000000003</ele>
        <time>2025-05-17T10:50:05Z</time>
      </trkpt>
      <trkpt lat="43.822575034573674" lon="5.309485970064998">
        <ele>377.94</ele>
        <time>2025-05-17T10:50:07Z</time>
      </trkpt>
      <trkpt lat="43.822602024301887" lon="5.309602981433272">
        <ele>377.94</ele>
        <time>2025-05-17T10:50:08Z</time>
      </trkpt>
      <trkpt lat="43.822619039565325" lon="5.309677999466658">
        <ele>377.94</ele>
        <time>2025-05-17T10:50:09Z</time>
      </trkpt>
      <trkpt lat="43.822661032900214" lon="5.309937000274658">
        <ele>377.94</ele>
        <time>2025-05-17T10:50:12Z</time>
      </trkpt>
      <trkpt lat="43.822677964344621" lon="5.309992991387844">
        <ele>377.94</ele>
        <time>2025-05-17T10:50:13Z</time>
      </trkpt>
      <trkpt lat="43.822951968759298" lon="5.310866972431541">
        <ele>379.86000000000001</ele>
        <time>2025-05-17T10:50:23Z</time>
      </trkpt>
      <trkpt lat="43.822985999286175" lon="5.31094903126359">
        <ele>380.33999999999997</ele>
        <time>2025-05-17T10:50:24Z</time>
      </trkpt>
      <trkpt lat="43.823295962065458" lon="5.311625031754375">
        <ele>385.14999999999998</ele>
        <time>2025-05-17T10:50:31Z</time>
      </trkpt>
      <trkpt lat="43.823348013684154" lon="5.311760986223817">
        <ele>385.63</ele>
        <time>2025-05-17T10:50:32Z</time>
      </trkpt>
      <trkpt lat="43.823364023119211" lon="5.311860982328653">
        <ele>386.11000000000001</ele>
        <time>2025-05-17T10:50:33Z</time>
      </trkpt>
      <trkpt lat="43.823381960391998" lon="5.311969025060535">
        <ele>386.58999999999997</ele>
        <time>2025-05-17T10:50:34Z</time>
      </trkpt>
      <trkpt lat="43.823383972048759" lon="5.312056029215455">
        <ele>387.06999999999999</ele>
        <time>2025-05-17T10:50:35Z</time>
      </trkpt>
      <trkpt lat="43.823367040604353" lon="5.312159964814782">
        <ele>387.55000000000001</ele>
        <time>2025-05-17T10:50:36Z</time>
      </trkpt>
      <trkpt lat="43.823348013684154" lon="5.312271025031805">
        <ele>388.50999999999999</ele>
        <time>2025-05-17T10:50:37Z</time>
      </trkpt>
      <trkpt lat="43.823231002315879" lon="5.31296999193728">
        <ele>389.94999999999999</ele>
        <time>2025-05-17T10:50:42Z</time>
      </trkpt>
      <trkpt lat="43.823199989274144" lon="5.313132014125586">
        <ele>390.91000000000003</ele>
        <time>2025-05-17T10:50:43Z</time>
      </trkpt>
      <trkpt lat="43.823105022311211" lon="5.314733041450381">
        <ele>396.68000000000001</ele>
        <time>2025-05-17T10:50:51Z</time>
      </trkpt>
      <trkpt lat="43.823091024532914" lon="5.315127996727824">
        <ele>399.07999999999998</ele>
        <time>2025-05-17T10:50:53Z</time>
      </trkpt>
      <trkpt lat="43.823007959872484" lon="5.315643986687064">
        <ele>401.97000000000003</ele>
        <time>2025-05-17T10:50:56Z</time>
      </trkpt>
      <trkpt lat="43.82297501899302" lon="5.315752029418945">
        <ele>402.93000000000001</ele>
        <time>2025-05-17T10:50:57Z</time>
      </trkpt>
      <trkpt lat="43.822747031226754" lon="5.316119994968176">
        <ele>408.69999999999999</ele>
        <time>2025-05-17T10:51:02Z</time>
      </trkpt>
      <trkpt lat="43.822663966566324" lon="5.316210016608238">
        <ele>409.66000000000003</ele>
        <time>2025-05-17T10:51:03Z</time>
      </trkpt>
      <trkpt lat="43.822589032351971" lon="5.316291991621256">
        <ele>410.62</ele>
        <time>2025-05-17T10:51:04Z</time>
      </trkpt>
      <trkpt lat="43.822532035410404" lon="5.316353011876345">
        <ele>411.57999999999998</ele>
        <time>2025-05-17T10:51:05Z</time>
      </trkpt>
      <trkpt lat="43.822430027648807" lon="5.316366003826261">
        <ele>413.01999999999998</ele>
        <time>2025-05-17T10:51:06Z</time>
      </trkpt>
      <trkpt lat="43.822317039594054" lon="5.316338008269668">
        <ele>413.5</ele>
        <time>2025-05-17T10:51:07Z</time>
      </trkpt>
      <trkpt lat="43.822212014347315" lon="5.316186966374517">
        <ele>413.98000000000002</ele>
        <time>2025-05-17T10:51:08Z</time>
      </trkpt>
      <trkpt lat="43.822173960506916" lon="5.316027961671352">
        <ele>414.94999999999999</ele>
        <time>2025-05-17T10:51:09Z</time>
      </trkpt>
      <trkpt lat="43.822133978828788" lon="5.315861999988556">
        <ele>415.91000000000003</ele>
        <time>2025-05-17T10:51:10Z</time>
      </trkpt>
      <trkpt lat="43.82209500297904" lon="5.315702995285392">
        <ele>416.38999999999999</ele>
        <time>2025-05-17T10:51:11Z</time>
      </trkpt>
      <trkpt lat="43.822059966623783" lon="5.315558994188905">
        <ele>417.35000000000002</ele>
        <time>2025-05-17T10:51:12Z</time>
      </trkpt>
      <trkpt lat="43.821978997439146" lon="5.31546201556921">
        <ele>418.31</ele>
        <time>2025-05-17T10:51:13Z</time>
      </trkpt>
      <trkpt lat="43.821867015212774" lon="5.315412981435657">
        <ele>418.31</ele>
        <time>2025-05-17T10:51:14Z</time>
      </trkpt>
      <trkpt lat="43.821739023551345" lon="5.315386997535825">
        <ele>418.79000000000002</ele>
        <time>2025-05-17T10:51:15Z</time>
      </trkpt>
      <trkpt lat="43.821614971384406" lon="5.315414993092418">
        <ele>419.26999999999998</ele>
        <time>2025-05-17T10:51:16Z</time>
      </trkpt>
      <trkpt lat="43.821508018299937" lon="5.315472995862365">
        <ele>420.23000000000002</ele>
        <time>2025-05-17T10:51:17Z</time>
      </trkpt>
      <trkpt lat="43.821419002488256" lon="5.315578021109104">
        <ele>420.70999999999998</ele>
        <time>2025-05-17T10:51:18Z</time>
      </trkpt>
      <trkpt lat="43.821369968354702" lon="5.315714981406927">
        <ele>421.19</ele>
        <time>2025-05-17T10:51:19Z</time>
      </trkpt>
      <trkpt lat="43.821318000555038" lon="5.315867029130459">
        <ele>421.68000000000001</ele>
        <time>2025-05-17T10:51:20Z</time>
      </trkpt>
      <trkpt lat="43.821267038583755" lon="5.316014969721437">
        <ele>422.16000000000003</ele>
        <time>2025-05-17T10:51:21Z</time>
      </trkpt>
      <trkpt lat="43.821152038872242" lon="5.316273970529437">
        <ele>424.07999999999998</ele>
        <time>2025-05-17T10:51:23Z</time>
      </trkpt>
      <trkpt lat="43.82108598947525" lon="5.316368015483022">
        <ele>424.56</ele>
        <time>2025-05-17T10:51:24Z</time>
      </trkpt>
      <trkpt lat="43.820993034169078" lon="5.316431969404221">
        <ele>426</ele>
        <time>2025-05-17T10:51:25Z</time>
      </trkpt>
      <trkpt lat="43.820892032235861" lon="5.316457031294704">
        <ele>426.95999999999998</ele>
        <time>2025-05-17T10:51:26Z</time>
      </trkpt>
      <trkpt lat="43.820796981453896" lon="5.316402968019247">
        <ele>427.92000000000002</ele>
        <time>2025-05-17T10:51:27Z</time>
      </trkpt>
      <trkpt lat="43.820691034197807" lon="5.316329961642623">
        <ele>429.37</ele>
        <time>2025-05-17T10:51:28Z</time>
      </trkpt>
      <trkpt lat="43.820581985637546" lon="5.316249998286367">
        <ele>430.32999999999998</ele>
        <time>2025-05-17T10:51:29Z</time>
      </trkpt>
      <trkpt lat="43.820479977875948" lon="5.316159976646304">
        <ele>431.29000000000002</ele>
        <time>2025-05-17T10:51:30Z</time>
      </trkpt>
      <trkpt lat="43.820379981771111" lon="5.316085964441299">
        <ele>432.25</ele>
        <time>2025-05-17T10:51:31Z</time>
      </trkpt>
      <trkpt lat="43.820265987887979" lon="5.316047994419932">
        <ele>432.73000000000002</ele>
        <time>2025-05-17T10:51:32Z</time>
      </trkpt>
      <trkpt lat="43.82016004063189" lon="5.316070038825274">
        <ele>433.20999999999998</ele>
        <time>2025-05-17T10:51:33Z</time>
      </trkpt>
      <trkpt lat="43.820064989849925" lon="5.316138016059995">
        <ele>433.69</ele>
        <time>2025-05-17T10:51:34Z</time>
      </trkpt>
      <trkpt lat="43.819964993745089" lon="5.316269025206566">
        <ele>434.17000000000002</ele>
        <time>2025-05-17T10:51:35Z</time>
      </trkpt>
      <trkpt lat="43.819862985983491" lon="5.316401962190867">
        <ele>434.64999999999998</ele>
        <time>2025-05-17T10:51:36Z</time>
      </trkpt>
      <trkpt lat="43.818745007738471" lon="5.317916991189122">
        <ele>438.98000000000002</ele>
        <time>2025-05-17T10:51:46Z</time>
      </trkpt>
      <trkpt lat="43.817686038091779" lon="5.319400001317263">
        <ele>440.42000000000002</ele>
        <time>2025-05-17T10:51:55Z</time>
      </trkpt>
      <trkpt lat="43.817425025627017" lon="5.319765033200383">
        <ele>440.42000000000002</ele>
        <time>2025-05-17T10:51:57Z</time>
      </trkpt>
      <trkpt lat="43.817247999832034" lon="5.32014699652791">
        <ele>440.89999999999998</ele>
        <time>2025-05-17T10:51:59Z</time>
      </trkpt>
      <trkpt lat="43.817179016768932" lon="5.320368027314544">
        <ele>440.89999999999998</ele>
        <time>2025-05-17T10:52:00Z</time>
      </trkpt>
      <trkpt lat="43.817111039534211" lon="5.320586962625384">
        <ele>440.89999999999998</ele>
        <time>2025-05-17T10:52:01Z</time>
      </trkpt>
      <trkpt lat="43.816608963534236" lon="5.322193019092083">
        <ele>442.33999999999997</ele>
        <time>2025-05-17T10:52:09Z</time>
      </trkpt>
      <trkpt lat="43.816000018268824" lon="5.32392798922956">
        <ele>438.98000000000002</ele>
        <time>2025-05-17T10:52:17Z</time>
      </trkpt>
      <trkpt lat="43.815892981365323" lon="5.324128987267613">
        <ele>438.01999999999998</ele>
        <time>2025-05-17T10:52:18Z</time>
      </trkpt>
      <trkpt lat="43.815213963389397" lon="5.325122997164726">
        <ele>430.81</ele>
        <time>2025-05-17T10:52:24Z</time>
      </trkpt>
      <trkpt lat="43.815170964226127" lon="5.325273033231497">
        <ele>429.85000000000002</ele>
        <time>2025-05-17T10:52:25Z</time>
      </trkpt>
      <trkpt lat="43.81515302695334" lon="5.325405970215797">
        <ele>428.88999999999999</ele>
        <time>2025-05-17T10:52:26Z</time>
      </trkpt>
      <trkpt lat="43.815167024731636" lon="5.325545025989413">
        <ele>427.44</ele>
        <time>2025-05-17T10:52:27Z</time>
      </trkpt>
      <trkpt lat="43.815209018066525" lon="5.325649967417121">
        <ele>426.48000000000002</ele>
        <time>2025-05-17T10:52:28Z</time>
      </trkpt>
      <trkpt lat="43.815300967544317" lon="5.325773013755679">
        <ele>425.51999999999998</ele>
        <time>2025-05-17T10:52:29Z</time>
      </trkpt>
      <trkpt lat="43.815384032204747" lon="5.325827999040484">
        <ele>424.56</ele>
        <time>2025-05-17T10:52:30Z</time>
      </trkpt>
      <trkpt lat="43.8154970202595" lon="5.325870998203754">
        <ele>424.56</ele>
        <time>2025-05-17T10:52:31Z</time>
      </trkpt>
      <trkpt lat="43.815619982779026" lon="5.325894970446825">
        <ele>423.60000000000002</ele>
        <time>2025-05-17T10:52:32Z</time>
      </trkpt>
      <trkpt lat="43.815747974440455" lon="5.325919026508927">
        <ele>423.12</ele>
        <time>2025-05-17T10:52:33Z</time>
      </trkpt>
      <trkpt lat="43.816331019625068" lon="5.326030002906919">
        <ele>418.31</ele>
        <time>2025-05-17T10:52:39Z</time>
      </trkpt>
      <trkpt lat="43.81638097576797" lon="5.326079959049821">
        <ele>417.82999999999998</ele>
        <time>2025-05-17T10:52:40Z</time>
      </trkpt>
      <trkpt lat="43.816420035436749" lon="5.326128993183374">
        <ele>416.38999999999999</ele>
        <time>2025-05-17T10:52:41Z</time>
      </trkpt>
      <trkpt lat="43.816438978537917" lon="5.326206022873521">
        <ele>415.91000000000003</ele>
        <time>2025-05-17T10:52:42Z</time>
      </trkpt>
      <trkpt lat="43.816460017114878" lon="5.326287997886539">
        <ele>414.94999999999999</ele>
        <time>2025-05-17T10:52:43Z</time>
      </trkpt>
      <trkpt lat="43.816419029608369" lon="5.326406015083194">
        <ele>413.98000000000002</ele>
        <time>2025-05-17T10:52:44Z</time>
      </trkpt>
      <trkpt lat="43.816367983818054" lon="5.326554039493203">
        <ele>413.01999999999998</ele>
        <time>2025-05-17T10:52:45Z</time>
      </trkpt>
      <trkpt lat="43.816312998533249" lon="5.326716983690858">
        <ele>412.06</ele>
        <time>2025-05-17T10:52:46Z</time>
      </trkpt>
      <trkpt lat="43.816257007420063" lon="5.326880011707544">
        <ele>411.10000000000002</ele>
        <time>2025-05-17T10:52:47Z</time>
      </trkpt>
      <trkpt lat="43.816202022135258" lon="5.327039016410708">
        <ele>409.66000000000003</ele>
        <time>2025-05-17T10:52:48Z</time>
      </trkpt>
      <trkpt lat="43.816130021587014" lon="5.327119985595346">
        <ele>408.69999999999999</ele>
        <time>2025-05-17T10:52:49Z</time>
      </trkpt>
      <trkpt lat="43.816059026867151" lon="5.327200032770634">
        <ele>407.74000000000001</ele>
        <time>2025-05-17T10:52:50Z</time>
      </trkpt>
      <trkpt lat="43.815980991348624" lon="5.327269015833736">
        <ele>406.76999999999998</ele>
        <time>2025-05-17T10:52:51Z</time>
      </trkpt>
      <trkpt lat="43.815902033820748" lon="5.327327018603683">
        <ele>406.29000000000002</ele>
        <time>2025-05-17T10:52:52Z</time>
      </trkpt>
      <trkpt lat="43.815822992473841" lon="5.32738502137363">
        <ele>405.81</ele>
        <time>2025-05-17T10:52:53Z</time>
      </trkpt>
      <trkpt lat="43.815744034945965" lon="5.327444029971957">
        <ele>405.81</ele>
        <time>2025-05-17T10:52:54Z</time>
      </trkpt>
      <trkpt lat="43.815501965582371" lon="5.327648967504501">
        <ele>404.37</ele>
        <time>2025-05-17T10:52:57Z</time>
      </trkpt>
      <trkpt lat="43.81543398834765" lon="5.32775198109448">
        <ele>403.88999999999999</ele>
        <time>2025-05-17T10:52:58Z</time>
      </trkpt>
      <trkpt lat="43.815366011112928" lon="5.327852983027697">
        <ele>403.41000000000003</ele>
        <time>2025-05-17T10:52:59Z</time>
      </trkpt>
      <trkpt lat="43.815299039706588" lon="5.327953984960914">
        <ele>402.93000000000001</ele>
        <time>2025-05-17T10:53:00Z</time>
      </trkpt>
      <trkpt lat="43.815259980037808" lon="5.328060016036034">
        <ele>402.44999999999999</ele>
        <time>2025-05-17T10:53:01Z</time>
      </trkpt>
      <trkpt lat="43.815231984481215" lon="5.328170992434025">
        <ele>402.44999999999999</ele>
        <time>2025-05-17T10:53:02Z</time>
      </trkpt>
      <trkpt lat="43.815206000581384" lon="5.328276017680764">
        <ele>402.44999999999999</ele>
        <time>2025-05-17T10:53:03Z</time>
      </trkpt>
      <trkpt lat="43.815181022509933" lon="5.328376013785601">
        <ele>401.97000000000003</ele>
        <time>2025-05-17T10:53:04Z</time>
      </trkpt>
      <trkpt lat="43.815151015296578" lon="5.328666027635336">
        <ele>400.52999999999997</ele>
        <time>2025-05-17T10:53:07Z</time>
      </trkpt>
      <trkpt lat="43.815151015296578" lon="5.328769041225314">
        <ele>399.56999999999999</ele>
        <time>2025-05-17T10:53:08Z</time>
      </trkpt>
      <trkpt lat="43.815184962004423" lon="5.329405982047319">
        <ele>395.72000000000003</ele>
        <time>2025-05-17T10:53:15Z</time>
      </trkpt>
      <trkpt lat="43.815189991146326" lon="5.329468008130789">
        <ele>395.24000000000001</ele>
        <time>2025-05-17T10:53:16Z</time>
      </trkpt>
      <trkpt lat="43.815171970054507" lon="5.329528022557497">
        <ele>394.27999999999997</ele>
        <time>2025-05-17T10:53:17Z</time>
      </trkpt>
      <trkpt lat="43.815130982547998" lon="5.329569010064006">
        <ele>393.80000000000001</ele>
        <time>2025-05-17T10:53:18Z</time>
      </trkpt>
      <trkpt lat="43.81507096812129" lon="5.329559035599232">
        <ele>393.31999999999999</ele>
        <time>2025-05-17T10:53:19Z</time>
      </trkpt>
      <trkpt lat="43.815011037513614" lon="5.329521987587214">
        <ele>392.83999999999997</ele>
        <time>2025-05-17T10:53:20Z</time>
      </trkpt>
      <trkpt lat="43.814967032521963" lon="5.329418973997235">
        <ele>392.36000000000001</ele>
        <time>2025-05-17T10:53:21Z</time>
      </trkpt>
      <trkpt lat="43.814907018095255" lon="5.329274972900748">
        <ele>391.38999999999999</ele>
        <time>2025-05-17T10:53:22Z</time>
      </trkpt>
      <trkpt lat="43.81483300589025" lon="5.329098030924797">
        <ele>390.91000000000003</ele>
        <time>2025-05-17T10:53:23Z</time>
      </trkpt>
      <trkpt lat="43.814517008140683" lon="5.328141991049051">
        <ele>387.06999999999999</ele>
        <time>2025-05-17T10:53:28Z</time>
      </trkpt>
      <trkpt lat="43.81450803950429" lon="5.327964965254068">
        <ele>386.11000000000001</ele>
        <time>2025-05-17T10:53:29Z</time>
      </trkpt>
      <trkpt lat="43.814560007303953" lon="5.327842002734542">
        <ele>385.63</ele>
        <time>2025-05-17T10:53:30Z</time>
      </trkpt>
      <trkpt lat="43.814629996195436" lon="5.327711999416351">
        <ele>385.14999999999998</ele>
        <time>2025-05-17T10:53:31Z</time>
      </trkpt>
      <trkpt lat="43.814699985086918" lon="5.327581996098161">
        <ele>384.66000000000003</ele>
        <time>2025-05-17T10:53:32Z</time>
      </trkpt>
      <trkpt lat="43.814765028655529" lon="5.327460961416364">
        <ele>383.69999999999999</ele>
        <time>2025-05-17T10:53:33Z</time>
      </trkpt>
      <trkpt lat="43.814805010333657" lon="5.327355014160276">
        <ele>382.74000000000001</ele>
        <time>2025-05-17T10:53:34Z</time>
      </trkpt>
      <trkpt lat="43.814793024212122" lon="5.327252000570297">
        <ele>381.77999999999997</ele>
        <time>2025-05-17T10:53:35Z</time>
      </trkpt>
      <trkpt lat="43.814750025048852" lon="5.327172037214041">
        <ele>380.33999999999997</ele>
        <time>2025-05-17T10:53:36Z</time>
      </trkpt>
      <trkpt lat="43.814667966216803" lon="5.327132977545261">
        <ele>379.38</ele>
        <time>2025-05-17T10:53:37Z</time>
      </trkpt>
      <trkpt lat="43.814563024789095" lon="5.327083021402359">
        <ele>378.89999999999998</ele>
        <time>2025-05-17T10:53:38Z</time>
      </trkpt>
      <trkpt lat="43.814336964860559" lon="5.326973972842097">
        <ele>376.97000000000003</ele>
        <time>2025-05-17T10:53:40Z</time>
      </trkpt>
      <trkpt lat="43.814248032867908" lon="5.326908007264137">
        <ele>376.49000000000001</ele>
        <time>2025-05-17T10:53:41Z</time>
      </trkpt>
      <trkpt lat="43.814142001792789" lon="5.326802982017398">
        <ele>375.52999999999997</ele>
        <time>2025-05-17T10:53:42Z</time>
      </trkpt>
      <trkpt lat="43.814121969044209" lon="5.326752020046115">
        <ele>375.05000000000001</ele>
        <time>2025-05-17T10:53:43Z</time>
      </trkpt>
      <trkpt lat="43.814079975709319" lon="5.326642971485853">
        <ele>374.56999999999999</ele>
        <time>2025-05-17T10:53:44Z</time>
      </trkpt>
      <trkpt lat="43.81388702429831" lon="5.326150031760335">
        <ele>372.17000000000002</ele>
        <time>2025-05-17T10:53:48Z</time>
      </trkpt>
      <trkpt lat="43.813840001821518" lon="5.326028997078538">
        <ele>371.69</ele>
        <time>2025-05-17T10:53:49Z</time>
      </trkpt>
      <trkpt lat="43.813799014315009" lon="5.325922966003418">
        <ele>371.20999999999998</ele>
        <time>2025-05-17T10:53:50Z</time>
      </trkpt>
      <trkpt lat="43.813735982403159" lon="5.325838979333639">
        <ele>370.73000000000002</ele>
        <time>2025-05-17T10:53:51Z</time>
      </trkpt>
      <trkpt lat="43.813683008775115" lon="5.325767984613776">
        <ele>370.24000000000001</ele>
        <time>2025-05-17T10:53:52Z</time>
      </trkpt>
      <trkpt lat="43.813606984913349" lon="5.325744012370706">
        <ele>369.75999999999999</ele>
        <time>2025-05-17T10:53:53Z</time>
      </trkpt>
      <trkpt lat="43.813533978536725" lon="5.325735965743661">
        <ele>369.27999999999997</ele>
        <time>2025-05-17T10:53:54Z</time>
      </trkpt>
      <trkpt lat="43.81345996633172" lon="5.325745018199086">
        <ele>369.27999999999997</ele>
        <time>2025-05-17T10:53:55Z</time>
      </trkpt>
      <trkpt lat="43.813396012410522" lon="5.325803020969033">
        <ele>369.27999999999997</ele>
        <time>2025-05-17T10:53:56Z</time>
      </trkpt>
      <trkpt lat="43.8133280351758" lon="5.325864041224122">
        <ele>369.27999999999997</ele>
        <time>2025-05-17T10:53:57Z</time>
      </trkpt>
      <trkpt lat="43.813261985778809" lon="5.325939981266856">
        <ele>369.27999999999997</ele>
        <time>2025-05-17T10:53:58Z</time>
      </trkpt>
      <trkpt lat="43.813255028799176" lon="5.326051963493228">
        <ele>368.80000000000001</ele>
        <time>2025-05-17T10:53:59Z</time>
      </trkpt>
      <trkpt lat="43.813248993828893" lon="5.326168974861503">
        <ele>368.80000000000001</ele>
        <time>2025-05-17T10:54:00Z</time>
      </trkpt>
      <trkpt lat="43.81324103102088" lon="5.326309036463499">
        <ele>368.31999999999999</ele>
        <time>2025-05-17T10:54:01Z</time>
      </trkpt>
      <trkpt lat="43.813260979950428" lon="5.326414983719587">
        <ele>368.31999999999999</ele>
        <time>2025-05-17T10:54:02Z</time>
      </trkpt>
      <trkpt lat="43.813512017950416" lon="5.327743012458086">
        <ele>361.11000000000001</ele>
        <time>2025-05-17T10:54:10Z</time>
      </trkpt>
      <trkpt lat="43.81376096047461" lon="5.329145975410938">
        <ele>356.31</ele>
        <time>2025-05-17T10:54:16Z</time>
      </trkpt>
      <trkpt lat="43.813771018758416" lon="5.329383015632629">
        <ele>355.33999999999997</ele>
        <time>2025-05-17T10:54:17Z</time>
      </trkpt>
      <trkpt lat="43.813808988779783" lon="5.330082988366485">
        <ele>351.98000000000002</ele>
        <time>2025-05-17T10:54:20Z</time>
      </trkpt>
      <trkpt lat="43.813846036791801" lon="5.330302007496357">
        <ele>351.01999999999998</ele>
        <time>2025-05-17T10:54:21Z</time>
      </trkpt>
      <trkpt lat="43.813920971006155" lon="5.330752031877637">
        <ele>348.62</ele>
        <time>2025-05-17T10:54:23Z</time>
      </trkpt>
      <trkpt lat="43.813957013189793" lon="5.330969039350748">
        <ele>347.64999999999998</ele>
        <time>2025-05-17T10:54:24Z</time>
      </trkpt>
      <trkpt lat="43.813961958512664" lon="5.331166014075279">
        <ele>346.69</ele>
        <time>2025-05-17T10:54:25Z</time>
      </trkpt>
      <trkpt lat="43.813933962956071" lon="5.331384027376771">
        <ele>345.73000000000002</ele>
        <time>2025-05-17T10:54:26Z</time>
      </trkpt>
      <trkpt lat="43.813872020691633" lon="5.331602040678263">
        <ele>344.29000000000002</ele>
        <time>2025-05-17T10:54:27Z</time>
      </trkpt>
      <trkpt lat="43.813700024038553" lon="5.332201011478901">
        <ele>340.92000000000002</ele>
        <time>2025-05-17T10:54:30Z</time>
      </trkpt>
      <trkpt lat="43.813691977411509" lon="5.33237099647522">
        <ele>339.48000000000002</ele>
        <time>2025-05-17T10:54:31Z</time>
      </trkpt>
      <trkpt lat="43.813698012381792" lon="5.332530001178384">
        <ele>338.04000000000002</ele>
        <time>2025-05-17T10:54:32Z</time>
      </trkpt>
      <trkpt lat="43.813740005716681" lon="5.33267299644649">
        <ele>337.07999999999998</ele>
        <time>2025-05-17T10:54:33Z</time>
      </trkpt>
      <trkpt lat="43.813816029578447" lon="5.33280098810792">
        <ele>336.12</ele>
        <time>2025-05-17T10:54:34Z</time>
      </trkpt>
      <trkpt lat="43.813899010419846" lon="5.33290802501142">
        <ele>335.16000000000003</ele>
        <time>2025-05-17T10:54:35Z</time>
      </trkpt>
      <trkpt lat="43.813985008746386" lon="5.333017995581031">
        <ele>334.68000000000001</ele>
        <time>2025-05-17T10:54:36Z</time>
      </trkpt>
      <trkpt lat="43.814072012901306" lon="5.333127966150641">
        <ele>333.70999999999998</ele>
        <time>2025-05-17T10:54:37Z</time>
      </trkpt>
      <trkpt lat="43.814142001792789" lon="5.333218993619084">
        <ele>333.23000000000002</ele>
        <time>2025-05-17T10:54:38Z</time>
      </trkpt>
      <trkpt lat="43.814160022884607" lon="5.333365006372333">
        <ele>332.26999999999998</ele>
        <time>2025-05-17T10:54:39Z</time>
      </trkpt>
      <trkpt lat="43.81414401344955" lon="5.3335100132972">
        <ele>331.79000000000002</ele>
        <time>2025-05-17T10:54:40Z</time>
      </trkpt>
      <trkpt lat="43.814110988751054" lon="5.333677986636758">
        <ele>331.79000000000002</ele>
        <time>2025-05-17T10:54:41Z</time>
      </trkpt>
      <trkpt lat="43.814047034829855" lon="5.33385300077498">
        <ele>331.31</ele>
        <time>2025-05-17T10:54:42Z</time>
      </trkpt>
      <trkpt lat="43.813937986269593" lon="5.333988033235073">
        <ele>330.82999999999998</ele>
        <time>2025-05-17T10:54:43Z</time>
      </trkpt>
      <trkpt lat="43.813833966851234" lon="5.334118958562613">
        <ele>330.35000000000002</ele>
        <time>2025-05-17T10:54:44Z</time>
      </trkpt>
      <trkpt lat="43.813752997666597" lon="5.33428299240768">
        <ele>329.38999999999999</ele>
        <time>2025-05-17T10:54:45Z</time>
      </trkpt>
      <trkpt lat="43.813688037917018" lon="5.334449959918857">
        <ele>328.91000000000003</ele>
        <time>2025-05-17T10:54:46Z</time>
      </trkpt>
      <trkpt lat="43.813625006005168" lon="5.334613993763924">
        <ele>327.94999999999999</ele>
        <time>2025-05-17T10:54:47Z</time>
      </trkpt>
      <trkpt lat="43.813549987971783" lon="5.334767969325185">
        <ele>326.99000000000001</ele>
        <time>2025-05-17T10:54:48Z</time>
      </trkpt>
      <trkpt lat="43.813452003523707" lon="5.334904007613659">
        <ele>325.54000000000002</ele>
        <time>2025-05-17T10:54:49Z</time>
      </trkpt>
      <trkpt lat="43.813355024904013" lon="5.335038034245372">
        <ele>324.57999999999998</ele>
        <time>2025-05-17T10:54:50Z</time>
      </trkpt>
      <trkpt lat="43.813274977728724" lon="5.335173988714814">
        <ele>323.13999999999999</ele>
        <time>2025-05-17T10:54:51Z</time>
      </trkpt>
      <trkpt lat="43.81319803185761" lon="5.335342967882752">
        <ele>322.18000000000001</ele>
        <time>2025-05-17T10:54:52Z</time>
      </trkpt>
      <trkpt lat="43.813186967745423" lon="5.335499960929155">
        <ele>321.22000000000003</ele>
        <time>2025-05-17T10:54:53Z</time>
      </trkpt>
      <trkpt lat="43.813173975795507" lon="5.335695007815957">
        <ele>320.25999999999999</ele>
        <time>2025-05-17T10:54:54Z</time>
      </trkpt>
      <trkpt lat="43.813122007995844" lon="5.336320968344808">
        <ele>316.88999999999999</ele>
        <time>2025-05-17T10:54:57Z</time>
      </trkpt>
      <trkpt lat="43.813052019104362" lon="5.336525989696384">
        <ele>316.41000000000003</ele>
        <time>2025-05-17T10:54:58Z</time>
      </trkpt>
      <trkpt lat="43.812980018556118" lon="5.336735034361482">
        <ele>315.93000000000001</ele>
        <time>2025-05-17T10:54:59Z</time>
      </trkpt>
      <trkpt lat="43.812773991376162" lon="5.337332999333739">
        <ele>313.52999999999997</ele>
        <time>2025-05-17T10:55:02Z</time>
      </trkpt>
      <trkpt lat="43.81270601414144" lon="5.337531985715032">
        <ele>313.05000000000001</ele>
        <time>2025-05-17T10:55:03Z</time>
      </trkpt>
      <trkpt lat="43.812653040513396" lon="5.337748993188143">
        <ele>312.56999999999999</ele>
        <time>2025-05-17T10:55:04Z</time>
      </trkpt>
      <trkpt lat="43.812546003609896" lon="5.338863031938672">
        <ele>310.16000000000003</ele>
        <time>2025-05-17T10:55:09Z</time>
      </trkpt>
      <trkpt lat="43.812509961426258" lon="5.339237032458186">
        <ele>309.19999999999999</ele>
        <time>2025-05-17T10:55:11Z</time>
      </trkpt>
      <trkpt lat="43.812494035810232" lon="5.339396959170699">
        <ele>308.72000000000003</ele>
        <time>2025-05-17T10:55:12Z</time>
      </trkpt>
      <trkpt lat="43.812412982806563" lon="5.339517993852496">
        <ele>307.75999999999999</ele>
        <time>2025-05-17T10:55:13Z</time>
      </trkpt>
      <trkpt lat="43.812296977266669" lon="5.33963399939239">
        <ele>307.75999999999999</ele>
        <time>2025-05-17T10:55:14Z</time>
      </trkpt>
      <trkpt lat="43.81216999143362" lon="5.339714968577027">
        <ele>307.27999999999997</ele>
        <time>2025-05-17T10:55:15Z</time>
      </trkpt>
      <trkpt lat="43.811368010938168" lon="5.340291978791356">
        <ele>305.83999999999997</ele>
        <time>2025-05-17T10:55:21Z</time>
      </trkpt>
      <trkpt lat="43.811272038146853" lon="5.340411001816392">
        <ele>305.36000000000001</ele>
        <time>2025-05-17T10:55:22Z</time>
      </trkpt>
      <trkpt lat="43.811138011515141" lon="5.34057897515595">
        <ele>305.36000000000001</ele>
        <time>2025-05-17T10:55:23Z</time>
      </trkpt>
      <trkpt lat="43.810539040714502" lon="5.341970035806298">
        <ele>303.43000000000001</ele>
        <time>2025-05-17T10:55:30Z</time>
      </trkpt>
      <trkpt lat="43.810422029346228" lon="5.342295002192259">
        <ele>302.47000000000003</ele>
        <time>2025-05-17T10:55:32Z</time>
      </trkpt>
      <trkpt lat="43.810420017689466" lon="5.342415031045675">
        <ele>301.99000000000001</ele>
        <time>2025-05-17T10:55:33Z</time>
      </trkpt>
      <trkpt lat="43.810444995760918" lon="5.34251200966537">
        <ele>301.50999999999999</ele>
        <time>2025-05-17T10:55:34Z</time>
      </trkpt>
      <trkpt lat="43.810507021844387" lon="5.342612005770207">
        <ele>301.50999999999999</ele>
        <time>2025-05-17T10:55:35Z</time>
      </trkpt>
      <trkpt lat="43.81057801656425" lon="5.342703033238649">
        <ele>301.50999999999999</ele>
        <time>2025-05-17T10:55:36Z</time>
      </trkpt>
      <trkpt lat="43.810653034597635" lon="5.342782996594906">
        <ele>301.02999999999997</ele>
        <time>2025-05-17T10:55:37Z</time>
      </trkpt>
      <trkpt lat="43.810792006552219" lon="5.342933032661676">
        <ele>300.55000000000001</ele>
        <time>2025-05-17T10:55:39Z</time>
      </trkpt>
      <trkpt lat="43.810841040685773" lon="5.343002015724778">
        <ele>300.06999999999999</ele>
        <time>2025-05-17T10:55:40Z</time>
      </trkpt>
      <trkpt lat="43.81085897795856" lon="5.343132019042969">
        <ele>299.58999999999997</ele>
        <time>2025-05-17T10:55:41Z</time>
      </trkpt>
      <trkpt lat="43.810845986008644" lon="5.343164037913084">
        <ele>299.58999999999997</ele>
        <time>2025-05-17T10:55:42Z</time>
      </trkpt>
      <trkpt lat="43.810823019593954" lon="5.343217011541128">
        <ele>299.11000000000001</ele>
        <time>2025-05-17T10:55:43Z</time>
      </trkpt>
      <trkpt lat="43.810739032924175" lon="5.343202007934451">
        <ele>298.63</ele>
        <time>2025-05-17T10:55:44Z</time>
      </trkpt>
      <trkpt lat="43.810694022104144" lon="5.343137970194221">
        <ele>298.63</ele>
        <time>2025-05-17T10:55:45Z</time>
      </trkpt>
      <trkpt lat="43.810631996020675" lon="5.3430509660393">
        <ele>298.14999999999998</ele>
        <time>2025-05-17T10:55:46Z</time>
      </trkpt>
      <trkpt lat="43.81055798381567" lon="5.342951975762844">
        <ele>297.67000000000002</ele>
        <time>2025-05-17T10:55:47Z</time>
      </trkpt>
      <trkpt lat="43.810251960530877" lon="5.342517038807273">
        <ele>295.74000000000001</ele>
        <time>2025-05-17T10:55:51Z</time>
      </trkpt>
      <trkpt lat="43.810194041579962" lon="5.342432968318462">
        <ele>295.74000000000001</ele>
        <time>2025-05-17T10:55:52Z</time>
      </trkpt>
      <trkpt lat="43.810188006609678" lon="5.342331966385245">
        <ele>295.25999999999999</ele>
        <time>2025-05-17T10:55:53Z</time>
      </trkpt>
      <trkpt lat="43.810216002166271" lon="5.342209003865719">
        <ele>294.77999999999997</ele>
        <time>2025-05-17T10:55:54Z</time>
      </trkpt>
      <trkpt lat="43.810251038521528" lon="5.342158041894436">
        <ele>294.30000000000001</ele>
        <time>2025-05-17T10:55:55Z</time>
      </trkpt>
      <trkpt lat="43.810312980785966" lon="5.342069026082754">
        <ele>294.30000000000001</ele>
        <time>2025-05-17T10:55:56Z</time>
      </trkpt>
      <trkpt lat="43.810375006869435" lon="5.341979004442692">
        <ele>293.81999999999999</ele>
        <time>2025-05-17T10:55:57Z</time>
      </trkpt>
      <trkpt lat="43.810422029346228" lon="5.341885965317488">
        <ele>293.33999999999997</ele>
        <time>2025-05-17T10:55:58Z</time>
      </trkpt>
      <trkpt lat="43.810452958568931" lon="5.341783035546541">
        <ele>292.86000000000001</ele>
        <time>2025-05-17T10:55:59Z</time>
      </trkpt>
      <trkpt lat="43.810464022681117" lon="5.341684967279434">
        <ele>292.38</ele>
        <time>2025-05-17T10:56:00Z</time>
      </trkpt>
      <trkpt lat="43.810437032952905" lon="5.341596035286784">
        <ele>292.38</ele>
        <time>2025-05-17T10:56:01Z</time>
      </trkpt>
      <trkpt lat="43.810396967455745" lon="5.341498972848058">
        <ele>291.89999999999998</ele>
        <time>2025-05-17T10:56:02Z</time>
      </trkpt>
      <trkpt lat="43.810321027413011" lon="5.341483969241381">
        <ele>291.89999999999998</ele>
        <time>2025-05-17T10:56:03Z</time>
      </trkpt>
      <trkpt lat="43.810251038521528" lon="5.341516993939877">
        <ele>291.42000000000002</ele>
        <time>2025-05-17T10:56:04Z</time>
      </trkpt>
      <trkpt lat="43.810203010216355" lon="5.341574996709824">
        <ele>290.94</ele>
        <time>2025-05-17T10:56:05Z</time>
      </trkpt>
      <trkpt lat="43.810162022709846" lon="5.341672981157899">
        <ele>290.45999999999998</ele>
        <time>2025-05-17T10:56:06Z</time>
      </trkpt>
      <trkpt lat="43.810115000233054" lon="5.341787980869412">
        <ele>289.97000000000003</ele>
        <time>2025-05-17T10:56:07Z</time>
      </trkpt>
      <trkpt lat="43.810052974149585" lon="5.341927036643028">
        <ele>289.00999999999999</ele>
        <time>2025-05-17T10:56:08Z</time>
      </trkpt>
      <trkpt lat="43.809973010793328" lon="5.342038013041019">
        <ele>288.05000000000001</ele>
        <time>2025-05-17T10:56:09Z</time>
      </trkpt>
      <trkpt lat="43.809853987768292" lon="5.342075983062387">
        <ele>287.08999999999997</ele>
        <time>2025-05-17T10:56:10Z</time>
      </trkpt>
      <trkpt lat="43.809770001098514" lon="5.342053016647697">
        <ele>286.13</ele>
        <time>2025-05-17T10:56:11Z</time>
      </trkpt>
      <trkpt lat="43.80967696197331" lon="5.342010017484427">
        <ele>285.17000000000002</ele>
        <time>2025-05-17T10:56:12Z</time>
      </trkpt>
      <trkpt lat="43.809574032202363" lon="5.341962995007634">
        <ele>284.69</ele>
        <time>2025-05-17T10:56:13Z</time>
      </trkpt>
      <trkpt lat="43.809478981420398" lon="5.341964000836015">
        <ele>284.20999999999998</ele>
        <time>2025-05-17T10:56:14Z</time>
      </trkpt>
      <trkpt lat="43.809415027499199" lon="5.341988978907466">
        <ele>283.25</ele>
        <time>2025-05-17T10:56:15Z</time>
      </trkpt>
      <trkpt lat="43.809372028335929" lon="5.342086963355541">
        <ele>282.76999999999998</ele>
        <time>2025-05-17T10:56:16Z</time>
      </trkpt>
      <trkpt lat="43.809174969792366" lon="5.342525001615286">
        <ele>281.80000000000001</ele>
        <time>2025-05-17T10:56:19Z</time>
      </trkpt>
      <trkpt lat="43.809088971465826" lon="5.342671014368534">
        <ele>281.31999999999999</ele>
        <time>2025-05-17T10:56:20Z</time>
      </trkpt>
      <trkpt lat="43.808975983411074" lon="5.34279003739357">
        <ele>280.83999999999997</ele>
        <time>2025-05-17T10:56:21Z</time>
      </trkpt>
      <trkpt lat="43.807845013216138" lon="5.343746999278665">
        <ele>278.44</ele>
        <time>2025-05-17T10:56:29Z</time>
      </trkpt>
      <trkpt lat="43.807061975821853" lon="5.344117982313037">
        <ele>277.95999999999998</ele>
        <time>2025-05-17T10:56:34Z</time>
      </trkpt>
      <trkpt lat="43.806910011917353" lon="5.344233987852931">
        <ele>277.95999999999998</ele>
        <time>2025-05-17T10:56:35Z</time>
      </trkpt>
      <trkpt lat="43.806759975850582" lon="5.344347981736064">
        <ele>277.48000000000002</ele>
        <time>2025-05-17T10:56:36Z</time>
      </trkpt>
      <trkpt lat="43.805598998442292" lon="5.34509003162384">
        <ele>277</ele>
        <time>2025-05-17T10:56:44Z</time>
      </trkpt>
      <trkpt lat="43.805457009002566" lon="5.345106041058898">
        <ele>276.51999999999998</ele>
        <time>2025-05-17T10:56:45Z</time>
      </trkpt>
      <trkpt lat="43.805338991805911" lon="5.345044014975429">
        <ele>276.04000000000002</ele>
        <time>2025-05-17T10:56:46Z</time>
      </trkpt>
      <trkpt lat="43.805259028449655" lon="5.344999004155397">
        <ele>275.56</ele>
        <time>2025-05-17T10:56:47Z</time>
      </trkpt>
      <trkpt lat="43.805236984044313" lon="5.34489800222218">
        <ele>275.06999999999999</ele>
        <time>2025-05-17T10:56:48Z</time>
      </trkpt>
      <trkpt lat="43.805212005972862" lon="5.344779985025525">
        <ele>274.58999999999997</ele>
        <time>2025-05-17T10:56:49Z</time>
      </trkpt>
      <trkpt lat="43.805181998759508" lon="5.344642018899322">
        <ele>274.11000000000001</ele>
        <time>2025-05-17T10:56:50Z</time>
      </trkpt>
      <trkpt lat="43.80507999099791" lon="5.34416601061821">
        <ele>273.63</ele>
        <time>2025-05-17T10:56:53Z</time>
      </trkpt>
      <trkpt lat="43.805008996278048" lon="5.344033995643258">
        <ele>273.63</ele>
        <time>2025-05-17T10:56:54Z</time>
      </trkpt>
      <trkpt lat="43.804931966587901" lon="5.343946991488338">
        <ele>274.11000000000001</ele>
        <time>2025-05-17T10:56:55Z</time>
      </trkpt>
      <trkpt lat="43.804854014888406" lon="5.343924025073648">
        <ele>274.11000000000001</ele>
        <time>2025-05-17T10:56:56Z</time>
      </trkpt>
      <trkpt lat="43.804767010733485" lon="5.343968030065298">
        <ele>274.58999999999997</ele>
        <time>2025-05-17T10:56:57Z</time>
      </trkpt>
      <trkpt lat="43.80467195995152" lon="5.344014968723059">
        <ele>274.58999999999997</ele>
        <time>2025-05-17T10:56:58Z</time>
      </trkpt>
      <trkpt lat="43.804575987160206" lon="5.344064002856612">
        <ele>274.11000000000001</ele>
        <time>2025-05-17T10:56:59Z</time>
      </trkpt>
      <trkpt lat="43.804489988833666" lon="5.344094010069966">
        <ele>274.11000000000001</ele>
        <time>2025-05-17T10:57:00Z</time>
      </trkpt>
      <trkpt lat="43.804363003000617" lon="5.344070037826896">
        <ele>274.11000000000001</ele>
        <time>2025-05-17T10:57:01Z</time>
      </trkpt>
      <trkpt lat="43.804225036874413" lon="5.344042964279652">
        <ele>274.11000000000001</ele>
        <time>2025-05-17T10:57:02Z</time>
      </trkpt>
      <trkpt lat="43.804085981100798" lon="5.344015974551439">
        <ele>274.11000000000001</ele>
        <time>2025-05-17T10:57:03Z</time>
      </trkpt>
      <trkpt lat="43.803954971954226" lon="5.343990996479988">
        <ele>274.11000000000001</ele>
        <time>2025-05-17T10:57:04Z</time>
      </trkpt>
      <trkpt lat="43.803808037191629" lon="5.343989990651608">
        <ele>273.63</ele>
        <time>2025-05-17T10:57:05Z</time>
      </trkpt>
      <trkpt lat="43.803683985024691" lon="5.344066014513373">
        <ele>273.14999999999998</ele>
        <time>2025-05-17T10:57:06Z</time>
      </trkpt>
      <trkpt lat="43.803559010848403" lon="5.344142038375139">
        <ele>273.14999999999998</ele>
        <time>2025-05-17T10:57:07Z</time>
      </trkpt>
      <trkpt lat="43.803435964509845" lon="5.344206998124719">
        <ele>273.14999999999998</ele>
        <time>2025-05-17T10:57:08Z</time>
      </trkpt>
      <trkpt lat="43.803311996161938" lon="5.344223007559776">
        <ele>273.14999999999998</ele>
        <time>2025-05-17T10:57:09Z</time>
      </trkpt>
      <trkpt lat="43.803204037249088" lon="5.344169028103352">
        <ele>273.14999999999998</ele>
        <time>2025-05-17T10:57:10Z</time>
      </trkpt>
      <trkpt lat="43.803085014224052" lon="5.344084035605192">
        <ele>273.14999999999998</ele>
        <time>2025-05-17T10:57:11Z</time>
      </trkpt>
      <trkpt lat="43.802960962057114" lon="5.343996025621891">
        <ele>273.14999999999998</ele>
        <time>2025-05-17T10:57:12Z</time>
      </trkpt>
      <trkpt lat="43.802831964567304" lon="5.343903992325068">
        <ele>272.67000000000002</ele>
        <time>2025-05-17T10:57:13Z</time>
      </trkpt>
      <trkpt lat="43.80269299261272" lon="5.343872979283333">
        <ele>272.67000000000002</ele>
        <time>2025-05-17T10:57:14Z</time>
      </trkpt>
      <trkpt lat="43.802572041749954" lon="5.34390801563859">
        <ele>272.19</ele>
        <time>2025-05-17T10:57:15Z</time>
      </trkpt>
      <trkpt lat="43.802447989583015" lon="5.343989990651608">
        <ele>272.19</ele>
        <time>2025-05-17T10:57:16Z</time>
      </trkpt>
      <trkpt lat="43.802355034276843" lon="5.344088980928063">
        <ele>272.19</ele>
        <time>2025-05-17T10:57:17Z</time>
      </trkpt>
      <trkpt lat="43.802237017080188" lon="5.344214038923383">
        <ele>271.70999999999998</ele>
        <time>2025-05-17T10:57:18Z</time>
      </trkpt>
      <trkpt lat="43.802116988226771" lon="5.344341024756432">
        <ele>271.23000000000002</ele>
        <time>2025-05-17T10:57:19Z</time>
      </trkpt>
      <trkpt lat="43.801987990736961" lon="5.34442400559783">
        <ele>270.75</ele>
        <time>2025-05-17T10:57:20Z</time>
      </trkpt>
      <trkpt lat="43.801852036267519" lon="5.344417970627546">
        <ele>270.26999999999998</ele>
        <time>2025-05-17T10:57:21Z</time>
      </trkpt>
      <trkpt lat="43.801722032949328" lon="5.344372959807515">
        <ele>270.26999999999998</ele>
        <time>2025-05-17T10:57:22Z</time>
      </trkpt>
      <trkpt lat="43.801590017974377" lon="5.344286039471626">
        <ele>270.26999999999998</ele>
        <time>2025-05-17T10:57:23Z</time>
      </trkpt>
      <trkpt lat="43.801438976079226" lon="5.344186965376139">
        <ele>270.26999999999998</ele>
        <time>2025-05-17T10:57:24Z</time>
      </trkpt>
      <trkpt lat="43.801277037709951" lon="5.34408001229167">
        <ele>270.75</ele>
        <time>2025-05-17T10:57:25Z</time>
      </trkpt>
      <trkpt lat="43.799817999824882" lon="5.343279037624598">
        <ele>272.67000000000002</ele>
        <time>2025-05-17T10:57:33Z</time>
      </trkpt>
      <trkpt lat="43.799149040132761" lon="5.342763969674707">
        <ele>273.63</ele>
        <time>2025-05-17T10:57:37Z</time>
      </trkpt>
      <trkpt lat="43.799015013501048" lon="5.342592978850007">
        <ele>273.63</ele>
        <time>2025-05-17T10:57:38Z</time>
      </trkpt>
      <trkpt lat="43.798878975212574" lon="5.342420982196927">
        <ele>273.63</ele>
        <time>2025-05-17T10:57:39Z</time>
      </trkpt>
      <trkpt lat="43.798791971057653" lon="5.342191988602281">
        <ele>273.63</ele>
        <time>2025-05-17T10:57:40Z</time>
      </trkpt>
      <trkpt lat="43.798717958852649" lon="5.341976992785931">
        <ele>273.63</ele>
        <time>2025-05-17T10:57:41Z</time>
      </trkpt>
      <trkpt lat="43.798649981617928" lon="5.341775994747877">
        <ele>273.63</ele>
        <time>2025-05-17T10:57:42Z</time>
      </trkpt>
      <trkpt lat="43.798606982454658" lon="5.34165202639997">
        <ele>273.63</ele>
        <time>2025-05-17T10:57:43Z</time>
      </trkpt>
      <trkpt lat="43.798481002449989" lon="5.341497967019677">
        <ele>272.67000000000002</ele>
        <time>2025-05-17T10:57:44Z</time>
      </trkpt>
      <trkpt lat="43.798405984416604" lon="5.341413980349898">
        <ele>272.67000000000002</ele>
        <time>2025-05-17T10:57:45Z</time>
      </trkpt>
      <trkpt lat="43.798296013846993" lon="5.34139595925808">
        <ele>272.19</ele>
        <time>2025-05-17T10:57:46Z</time>
      </trkpt>
      <trkpt lat="43.798208003863692" lon="5.34143996424973">
        <ele>271.70999999999998</ele>
        <time>2025-05-17T10:57:47Z</time>
      </trkpt>
      <trkpt lat="43.798133991658688" lon="5.341504001989961">
        <ele>271.70999999999998</ele>
        <time>2025-05-17T10:57:48Z</time>
      </trkpt>
      <trkpt lat="43.798067020252347" lon="5.341571979224682">
        <ele>271.23000000000002</ele>
        <time>2025-05-17T10:57:49Z</time>
      </trkpt>
      <trkpt lat="43.798003988340497" lon="5.341636016964912">
        <ele>271.23000000000002</ele>
        <time>2025-05-17T10:57:50Z</time>
      </trkpt>
      <trkpt lat="43.797936011105776" lon="5.341706005856395">
        <ele>271.70999999999998</ele>
        <time>2025-05-17T10:57:51Z</time>
      </trkpt>
      <trkpt lat="43.797853030264378" lon="5.341790998354554">
        <ele>272.19</ele>
        <time>2025-05-17T10:57:52Z</time>
      </trkpt>
      <trkpt lat="43.797030011191964" lon="5.342658022418618">
        <ele>272.67000000000002</ele>
        <time>2025-05-17T10:57:59Z</time>
      </trkpt>
      <trkpt lat="43.79689397290349" lon="5.34281300380826">
        <ele>272.19</ele>
        <time>2025-05-17T10:58:00Z</time>
      </trkpt>
      <trkpt lat="43.796359039843082" lon="5.343519011512399">
        <ele>270.75</ele>
        <time>2025-05-17T10:58:04Z</time>
      </trkpt>
      <trkpt lat="43.796246973797679" lon="5.343668963760138">
        <ele>269.79000000000002</ele>
        <time>2025-05-17T10:58:05Z</time>
      </trkpt>
      <trkpt lat="43.796083023771644" lon="5.343730989843607">
        <ele>268.35000000000002</ele>
        <time>2025-05-17T10:58:06Z</time>
      </trkpt>
      <trkpt lat="43.795943967998028" lon="5.343768959864974">
        <ele>266.89999999999998</ele>
        <time>2025-05-17T10:58:07Z</time>
      </trkpt>
      <trkpt lat="43.795803990215063" lon="5.343725038692355">
        <ele>266.42000000000002</ele>
        <time>2025-05-17T10:58:08Z</time>
      </trkpt>
      <trkpt lat="43.79566602408886" lon="5.343682039529085">
        <ele>264.98000000000002</ele>
        <time>2025-05-17T10:58:09Z</time>
      </trkpt>
      <trkpt lat="43.795526968315244" lon="5.343679022043943">
        <ele>263.54000000000002</ele>
        <time>2025-05-17T10:58:10Z</time>
      </trkpt>
      <trkpt lat="43.795385984703898" lon="5.343711040914059">
        <ele>262.10000000000002</ele>
        <time>2025-05-17T10:58:11Z</time>
      </trkpt>
      <trkpt lat="43.795231003314257" lon="5.343782035633922">
        <ele>260.64999999999998</ele>
        <time>2025-05-17T10:58:12Z</time>
      </trkpt>
      <trkpt lat="43.79467997699976" lon="5.344032989814878">
        <ele>256.32999999999998</ele>
        <time>2025-05-17T10:58:15Z</time>
      </trkpt>
      <trkpt lat="43.793722009286284" lon="5.344302970916033">
        <ele>251.03999999999999</ele>
        <time>2025-05-17T10:58:20Z</time>
      </trkpt>
      <trkpt lat="43.793575996533036" lon="5.344439009204507">
        <ele>250.08000000000001</ele>
        <time>2025-05-17T10:58:21Z</time>
      </trkpt>
      <trkpt lat="43.793426966294646" lon="5.344577981159091">
        <ele>248.63999999999999</ele>
        <time>2025-05-17T10:58:22Z</time>
      </trkpt>
      <trkpt lat="43.792537981644273" lon="5.345350038260222">
        <ele>243.34999999999999</ele>
        <time>2025-05-17T10:58:29Z</time>
      </trkpt>
      <trkpt lat="43.791556041687727" lon="5.345871979370713">
        <ele>241.91</ele>
        <time>2025-05-17T10:58:36Z</time>
      </trkpt>
      <trkpt lat="43.790778033435345" lon="5.346209015697241">
        <ele>239.99000000000001</ele>
        <time>2025-05-17T10:58:40Z</time>
      </trkpt>
      <trkpt lat="43.790596984326839" lon="5.346368020400405">
        <ele>239.99000000000001</ele>
        <time>2025-05-17T10:58:41Z</time>
      </trkpt>
      <trkpt lat="43.790413001552224" lon="5.34653096459806">
        <ele>239.99000000000001</ele>
        <time>2025-05-17T10:58:42Z</time>
      </trkpt>
      <trkpt lat="43.789269961416721" lon="5.347628993913531">
        <ele>239.50999999999999</ele>
        <time>2025-05-17T10:58:49Z</time>
      </trkpt>
      <trkpt lat="43.789011966437101" lon="5.348008023574948">
        <ele>239.50999999999999</ele>
        <time>2025-05-17T10:58:51Z</time>
      </trkpt>
      <trkpt lat="43.788864025846124" lon="5.348132997751236">
        <ele>239.50999999999999</ele>
        <time>2025-05-17T10:58:52Z</time>
      </trkpt>
      <trkpt lat="43.788716001436114" lon="5.348221007734537">
        <ele>239.02000000000001</ele>
        <time>2025-05-17T10:58:53Z</time>
      </trkpt>
      <trkpt lat="43.788579041138291" lon="5.348243974149227">
        <ele>239.02000000000001</ele>
        <time>2025-05-17T10:58:54Z</time>
      </trkpt>
      <trkpt lat="43.788424981757998" lon="5.348209021613002">
        <ele>238.53999999999999</ele>
        <time>2025-05-17T10:58:55Z</time>
      </trkpt>
      <trkpt lat="43.788250973448157" lon="5.348169961944223">
        <ele>238.53999999999999</ele>
        <time>2025-05-17T10:58:56Z</time>
      </trkpt>
      <trkpt lat="43.788071013987064" lon="5.348091004416347">
        <ele>238.06</ele>
        <time>2025-05-17T10:58:57Z</time>
      </trkpt>
      <trkpt lat="43.787877978757024" lon="5.347979022189975">
        <ele>238.06</ele>
        <time>2025-05-17T10:58:58Z</time>
      </trkpt>
      <trkpt lat="43.787141963839531" lon="5.347523968666792">
        <ele>237.58000000000001</ele>
        <time>2025-05-17T10:59:02Z</time>
      </trkpt>
      <trkpt lat="43.786994023248553" lon="5.347502008080483">
        <ele>237.58000000000001</ele>
        <time>2025-05-17T10:59:03Z</time>
      </trkpt>
      <trkpt lat="43.786842981353402" lon="5.347525980323553">
        <ele>237.09999999999999</ele>
        <time>2025-05-17T10:59:04Z</time>
      </trkpt>
      <trkpt lat="43.785555018112063" lon="5.347676016390324">
        <ele>232.78</ele>
        <time>2025-05-17T10:59:11Z</time>
      </trkpt>
      <trkpt lat="43.785384027287364" lon="5.347670987248421">
        <ele>232.78</ele>
        <time>2025-05-17T10:59:12Z</time>
      </trkpt>
      <trkpt lat="43.785238014534116" lon="5.347611978650093">
        <ele>232.30000000000001</ele>
        <time>2025-05-17T10:59:13Z</time>
      </trkpt>
      <trkpt lat="43.785128965973854" lon="5.34751701168716">
        <ele>231.81</ele>
        <time>2025-05-17T10:59:14Z</time>
      </trkpt>
      <trkpt lat="43.785067023709416" lon="5.347445011138916">
        <ele>231.33000000000001</ele>
        <time>2025-05-17T10:59:15Z</time>
      </trkpt>
      <trkpt lat="43.785036010667682" lon="5.347285000607371">
        <ele>230.84999999999999</ele>
        <time>2025-05-17T10:59:16Z</time>
      </trkpt>
      <trkpt lat="43.785002985969186" lon="5.34710998646915">
        <ele>230.37</ele>
        <time>2025-05-17T10:59:17Z</time>
      </trkpt>
      <trkpt lat="43.784966021776199" lon="5.34691896289587">
        <ele>229.88999999999999</ele>
        <time>2025-05-17T10:59:18Z</time>
      </trkpt>
      <trkpt lat="43.784937020391226" lon="5.346717964857817">
        <ele>229.88999999999999</ele>
        <time>2025-05-17T10:59:19Z</time>
      </trkpt>
      <trkpt lat="43.784885974600911" lon="5.346329966560006">
        <ele>228.93000000000001</ele>
        <time>2025-05-17T10:59:21Z</time>
      </trkpt>
      <trkpt lat="43.784837024286389" lon="5.34618403762579">
        <ele>228.44999999999999</ele>
        <time>2025-05-17T10:59:22Z</time>
      </trkpt>
      <trkpt lat="43.784767035394907" lon="5.346071971580386">
        <ele>227.97</ele>
        <time>2025-05-17T10:59:23Z</time>
      </trkpt>
      <trkpt lat="43.784661004319787" lon="5.346056967973709">
        <ele>227.49000000000001</ele>
        <time>2025-05-17T10:59:24Z</time>
      </trkpt>
      <trkpt lat="43.784566959366202" lon="5.346086975187063">
        <ele>227.00999999999999</ele>
        <time>2025-05-17T10:59:25Z</time>
      </trkpt>
      <trkpt lat="43.784460006281734" lon="5.346167022362351">
        <ele>226.53</ele>
        <time>2025-05-17T10:59:26Z</time>
      </trkpt>
      <trkpt lat="43.78438800573349" lon="5.346307000145316">
        <ele>226.05000000000001</ele>
        <time>2025-05-17T10:59:27Z</time>
      </trkpt>
      <trkpt lat="43.784337965771556" lon="5.346467010676861">
        <ele>226.05000000000001</ele>
        <time>2025-05-17T10:59:28Z</time>
      </trkpt>
      <trkpt lat="43.784326985478401" lon="5.346635989844799">
        <ele>225.56999999999999</ele>
        <time>2025-05-17T10:59:29Z</time>
      </trkpt>
      <trkpt lat="43.784352969378233" lon="5.34680899232626">
        <ele>225.56999999999999</ele>
        <time>2025-05-17T10:59:30Z</time>
      </trkpt>
      <trkpt lat="43.784375013783574" lon="5.346961040049791">
        <ele>225.09</ele>
        <time>2025-05-17T10:59:31Z</time>
      </trkpt>
      <trkpt lat="43.784356992691755" lon="5.347100012004376">
        <ele>225.56999999999999</ele>
        <time>2025-05-17T10:59:32Z</time>
      </trkpt>
      <trkpt lat="43.78432204015553" lon="5.34725901670754">
        <ele>225.09</ele>
        <time>2025-05-17T10:59:33Z</time>
      </trkpt>
      <trkpt lat="43.784260014072061" lon="5.34743101336062">
        <ele>225.09</ele>
        <time>2025-05-17T10:59:34Z</time>
      </trkpt>
      <trkpt lat="43.784162029623985" lon="5.347573002800345">
        <ele>224.61000000000001</ele>
        <time>2025-05-17T10:59:35Z</time>
      </trkpt>
      <trkpt lat="43.784073013812304" lon="5.347703006118536">
        <ele>224.61000000000001</ele>
        <time>2025-05-17T10:59:36Z</time>
      </trkpt>
      <trkpt lat="43.783970000222325" lon="5.347780035808682">
        <ele>224.61000000000001</ele>
        <time>2025-05-17T10:59:37Z</time>
      </trkpt>
      <trkpt lat="43.783858017995954" lon="5.347834015265107">
        <ele>224.61000000000001</ele>
        <time>2025-05-17T10:59:38Z</time>
      </trkpt>
      <trkpt lat="43.783729020506144" lon="5.347847007215023">
        <ele>224.12</ele>
        <time>2025-05-17T10:59:39Z</time>
      </trkpt>
      <trkpt lat="43.782937014475465" lon="5.347941974177957">
        <ele>223.63999999999999</ele>
        <time>2025-05-17T10:59:44Z</time>
      </trkpt>
      <trkpt lat="43.78275596536696" lon="5.347956977784634">
        <ele>223.16</ele>
        <time>2025-05-17T10:59:45Z</time>
      </trkpt>
      <trkpt lat="43.782570976763964" lon="5.347936023026705">
        <ele>222.68000000000001</ele>
        <time>2025-05-17T10:59:46Z</time>
      </trkpt>
      <trkpt lat="43.782395040616393" lon="5.347859999164939">
        <ele>222.19999999999999</ele>
        <time>2025-05-17T10:59:47Z</time>
      </trkpt>
      <trkpt lat="43.78221801482141" lon="5.347783975303173">
        <ele>222.19999999999999</ele>
        <time>2025-05-17T10:59:48Z</time>
      </trkpt>
      <trkpt lat="43.781387032940984" lon="5.347466971725225">
        <ele>220.28</ele>
        <time>2025-05-17T10:59:53Z</time>
      </trkpt>
      <trkpt lat="43.781242026016116" lon="5.347466971725225">
        <ele>220.28</ele>
        <time>2025-05-17T10:59:54Z</time>
      </trkpt>
      <trkpt lat="43.781137000769377" lon="5.347512988373637">
        <ele>220.28</ele>
        <time>2025-05-17T10:59:55Z</time>
      </trkpt>
      <trkpt lat="43.781041027978063" lon="5.347608039155603">
        <ele>219.80000000000001</ele>
        <time>2025-05-17T10:59:56Z</time>
      </trkpt>
      <trkpt lat="43.780941031873226" lon="5.347717003896833">
        <ele>219.31999999999999</ele>
        <time>2025-05-17T10:59:57Z</time>
      </trkpt>
      <trkpt lat="43.780866013839841" lon="5.347895035520196">
        <ele>218.84</ele>
        <time>2025-05-17T10:59:58Z</time>
      </trkpt>
      <trkpt lat="43.780787978321314" lon="5.348079018294811">
        <ele>218.84</ele>
        <time>2025-05-17T10:59:59Z</time>
      </trkpt>
      <trkpt lat="43.780711032450199" lon="5.348259983584285">
        <ele>218.36000000000001</ele>
        <time>2025-05-17T11:00:00Z</time>
      </trkpt>
      <trkpt lat="43.780674990266562" lon="5.348479002714157">
        <ele>217.88</ele>
        <time>2025-05-17T11:00:01Z</time>
      </trkpt>
      <trkpt lat="43.780638026073575" lon="5.34869902767241">
        <ele>218.36000000000001</ele>
        <time>2025-05-17T11:00:02Z</time>
      </trkpt>
      <trkpt lat="43.780601983889937" lon="5.34891402348876">
        <ele>218.84</ele>
        <time>2025-05-17T11:00:03Z</time>
      </trkpt>
      <trkpt lat="43.78054398111999" lon="5.349118039011955">
        <ele>218.84</ele>
        <time>2025-05-17T11:00:04Z</time>
      </trkpt>
      <trkpt lat="43.780461000278592" lon="5.349300010129809">
        <ele>219.31999999999999</ele>
        <time>2025-05-17T11:00:05Z</time>
      </trkpt>
      <trkpt lat="43.780385982245207" lon="5.349464965984225">
        <ele>218.84</ele>
        <time>2025-05-17T11:00:06Z</time>
      </trkpt>
      <trkpt lat="43.780278023332357" lon="5.349561022594571">
        <ele>218.36000000000001</ele>
        <time>2025-05-17T11:00:07Z</time>
      </trkpt>
      <trkpt lat="43.780163023620844" lon="5.349606033414602">
        <ele>218.36000000000001</ele>
        <time>2025-05-17T11:00:08Z</time>
      </trkpt>
      <trkpt lat="43.780039977282286" lon="5.349562028422952">
        <ele>217.88</ele>
        <time>2025-05-17T11:00:09Z</time>
      </trkpt>
      <trkpt lat="43.779911985620856" lon="5.349484998732805">
        <ele>217.88</ele>
        <time>2025-05-17T11:00:10Z</time>
      </trkpt>
      <trkpt lat="43.779771002009511" lon="5.349400006234646">
        <ele>217.40000000000001</ele>
        <time>2025-05-17T11:00:11Z</time>
      </trkpt>
      <trkpt lat="43.779474031180143" lon="5.349271008744836">
        <ele>216.91</ele>
        <time>2025-05-17T11:00:13Z</time>
      </trkpt>
      <trkpt lat="43.779335981234908" lon="5.349282994866371">
        <ele>216.91</ele>
        <time>2025-05-17T11:00:14Z</time>
      </trkpt>
      <trkpt lat="43.779202960431576" lon="5.349339991807938">
        <ele>216.43000000000001</ele>
        <time>2025-05-17T11:00:15Z</time>
      </trkpt>
      <trkpt lat="43.77906097099185" lon="5.349440993741155">
        <ele>216.43000000000001</ele>
        <time>2025-05-17T11:00:16Z</time>
      </trkpt>
      <trkpt lat="43.778908001258969" lon="5.349549958482385">
        <ele>216.91</ele>
        <time>2025-05-17T11:00:17Z</time>
      </trkpt>
      <trkpt lat="43.778429981321096" lon="5.349831003695726">
        <ele>216.91</ele>
        <time>2025-05-17T11:00:20Z</time>
      </trkpt>
      <trkpt lat="43.778253961354494" lon="5.349869979545474">
        <ele>216.91</ele>
        <time>2025-05-17T11:00:21Z</time>
      </trkpt>
      <trkpt lat="43.778065033257008" lon="5.349869979545474">
        <ele>216.43000000000001</ele>
        <time>2025-05-17T11:00:22Z</time>
      </trkpt>
      <trkpt lat="43.777493974193931" lon="5.349863022565842">
        <ele>215.47</ele>
        <time>2025-05-17T11:00:25Z</time>
      </trkpt>
      <trkpt lat="43.777314014732838" lon="5.349797978997231">
        <ele>214.99000000000001</ele>
        <time>2025-05-17T11:00:26Z</time>
      </trkpt>
      <trkpt lat="43.777139000594616" lon="5.349721033126116">
        <ele>214.50999999999999</ele>
        <time>2025-05-17T11:00:27Z</time>
      </trkpt>
      <trkpt lat="43.776817973703146" lon="5.349545013159514">
        <ele>213.55000000000001</ele>
        <time>2025-05-17T11:00:29Z</time>
      </trkpt>
      <trkpt lat="43.776656035333872" lon="5.34951601177454">
        <ele>213.55000000000001</ele>
        <time>2025-05-17T11:00:30Z</time>
      </trkpt>
      <trkpt lat="43.776490995660424" lon="5.349518023431301">
        <ele>213.55000000000001</ele>
        <time>2025-05-17T11:00:31Z</time>
      </trkpt>
      <trkpt lat="43.776326039806008" lon="5.349578037858009">
        <ele>213.55000000000001</ele>
        <time>2025-05-17T11:00:32Z</time>
      </trkpt>
      <trkpt lat="43.776174997910857" lon="5.349684990942478">
        <ele>213.55000000000001</ele>
        <time>2025-05-17T11:00:33Z</time>
      </trkpt>
      <trkpt lat="43.776026973500848" lon="5.349821029230952">
        <ele>213.06999999999999</ele>
        <time>2025-05-17T11:00:34Z</time>
      </trkpt>
      <trkpt lat="43.775892024859786" lon="5.350004006177187">
        <ele>213.06999999999999</ele>
        <time>2025-05-17T11:00:35Z</time>
      </trkpt>
      <trkpt lat="43.77575296908617" lon="5.350191006436944">
        <ele>213.06999999999999</ele>
        <time>2025-05-17T11:00:36Z</time>
      </trkpt>
      <trkpt lat="43.77549497410655" lon="5.35057095810771">
        <ele>213.06999999999999</ele>
        <time>2025-05-17T11:00:38Z</time>
      </trkpt>
      <trkpt lat="43.775382991880178" lon="5.350775979459286">
        <ele>212.59</ele>
        <time>2025-05-17T11:00:39Z</time>
      </trkpt>
      <trkpt lat="43.775282995775342" lon="5.350984018296003">
        <ele>212.59</ele>
        <time>2025-05-17T11:00:40Z</time>
      </trkpt>
      <trkpt lat="43.775210995227098" lon="5.351199014112353">
        <ele>213.06999999999999</ele>
        <time>2025-05-17T11:00:41Z</time>
      </trkpt>
      <trkpt lat="43.775164978578687" lon="5.351424990221858">
        <ele>213.06999999999999</ele>
        <time>2025-05-17T11:00:42Z</time>
      </trkpt>
      <trkpt lat="43.775124996900558" lon="5.351659012958407">
        <ele>212.59</ele>
        <time>2025-05-17T11:00:43Z</time>
      </trkpt>
      <trkpt lat="43.77508400939405" lon="5.351898986846209">
        <ele>212.59</ele>
        <time>2025-05-17T11:00:44Z</time>
      </trkpt>
      <trkpt lat="43.775018965825438" lon="5.352132003754377">
        <ele>212.11000000000001</ele>
        <time>2025-05-17T11:00:45Z</time>
      </trkpt>
      <trkpt lat="43.774933973327279" lon="5.352329984307289">
        <ele>212.11000000000001</ele>
        <time>2025-05-17T11:00:46Z</time>
      </trkpt>
      <trkpt lat="43.774831965565681" lon="5.352466022595763">
        <ele>212.11000000000001</ele>
        <time>2025-05-17T11:00:47Z</time>
      </trkpt>
      <trkpt lat="43.774693999439478" lon="5.352603988721967">
        <ele>211.63</ele>
        <time>2025-05-17T11:00:48Z</time>
      </trkpt>
      <trkpt lat="43.77456902526319" lon="5.352669032290578">
        <ele>211.63</ele>
        <time>2025-05-17T11:00:49Z</time>
      </trkpt>
      <trkpt lat="43.774415971711278" lon="5.352690992876887">
        <ele>211.15000000000001</ele>
        <time>2025-05-17T11:00:50Z</time>
      </trkpt>
      <trkpt lat="43.774265013635159" lon="5.352713037282229">
        <ele>210.66999999999999</ele>
        <time>2025-05-17T11:00:51Z</time>
      </trkpt>
      <trkpt lat="43.774116989225149" lon="5.352733992040157">
        <ele>210.19</ele>
        <time>2025-05-17T11:00:52Z</time>
      </trkpt>
      <trkpt lat="43.773954967036843" lon="5.352814961224794">
        <ele>209.69999999999999</ele>
        <time>2025-05-17T11:00:53Z</time>
      </trkpt>
      <trkpt lat="43.773801997303963" lon="5.352944964542985">
        <ele>208.74000000000001</ele>
        <time>2025-05-17T11:00:54Z</time>
      </trkpt>
      <trkpt lat="43.773642992600799" lon="5.353097012266517">
        <ele>208.25999999999999</ele>
        <time>2025-05-17T11:00:55Z</time>
      </trkpt>
      <trkpt lat="43.773199003189802" lon="5.35355600528419">
        <ele>206.34</ele>
        <time>2025-05-17T11:00:58Z</time>
      </trkpt>
      <trkpt lat="43.773090960457921" lon="5.35374803468585">
        <ele>205.86000000000001</ele>
        <time>2025-05-17T11:00:59Z</time>
      </trkpt>
      <trkpt lat="43.773010997101665" lon="5.353937968611717">
        <ele>205.86000000000001</ele>
        <time>2025-05-17T11:01:00Z</time>
      </trkpt>
      <trkpt lat="43.772945031523705" lon="5.354136032983661">
        <ele>206.34</ele>
        <time>2025-05-17T11:01:01Z</time>
      </trkpt>
      <trkpt lat="43.772887028753757" lon="5.354354968294501">
        <ele>206.34</ele>
        <time>2025-05-17T11:01:02Z</time>
      </trkpt>
      <trkpt lat="43.772848974913359" lon="5.354589996859431">
        <ele>206.34</ele>
        <time>2025-05-17T11:01:03Z</time>
      </trkpt>
      <trkpt lat="43.772804969921708" lon="5.354827037081122">
        <ele>206.34</ele>
        <time>2025-05-17T11:01:04Z</time>
      </trkpt>
      <trkpt lat="43.772712014615536" lon="5.355039015412331">
        <ele>205.86000000000001</ele>
        <time>2025-05-17T11:01:05Z</time>
      </trkpt>
      <trkpt lat="43.772598020732403" lon="5.355246970430017">
        <ele>205.86000000000001</ele>
        <time>2025-05-17T11:01:06Z</time>
      </trkpt>
      <trkpt lat="43.772470029070973" lon="5.355440005660057">
        <ele>205.38</ele>
        <time>2025-05-17T11:01:07Z</time>
      </trkpt>
      <trkpt lat="43.772326027974486" lon="5.355608984827995">
        <ele>205.38</ele>
        <time>2025-05-17T11:01:08Z</time>
      </trkpt>
      <trkpt lat="43.772176997736096" lon="5.355764972046018">
        <ele>205.86000000000001</ele>
        <time>2025-05-17T11:01:09Z</time>
      </trkpt>
      <trkpt lat="43.77115398645401" lon="5.356787983328104">
        <ele>208.74000000000001</ele>
        <time>2025-05-17T11:01:17Z</time>
      </trkpt>
      <trkpt lat="43.771040998399258" lon="5.356900971382856">
        <ele>208.74000000000001</ele>
        <time>2025-05-17T11:01:18Z</time>
      </trkpt>
      <trkpt lat="43.770813010632992" lon="5.357128959149122">
        <ele>209.69999999999999</ele>
        <time>2025-05-17T11:01:20Z</time>
      </trkpt>
      <trkpt lat="43.770698010921478" lon="5.357243036851287">
        <ele>209.69999999999999</ele>
        <time>2025-05-17T11:01:21Z</time>
      </trkpt>
      <trkpt lat="43.76971397548914" lon="5.358234029263258">
        <ele>213.06999999999999</ele>
        <time>2025-05-17T11:01:30Z</time>
      </trkpt>
      <trkpt lat="43.769634012132883" lon="5.358324972912669">
        <ele>213.06999999999999</ele>
        <time>2025-05-17T11:01:31Z</time>
      </trkpt>
      <trkpt lat="43.769554970785975" lon="5.358394039794803">
        <ele>213.55000000000001</ele>
        <time>2025-05-17T11:01:32Z</time>
      </trkpt>
      <trkpt lat="43.769482970237732" lon="5.358457993716002">
        <ele>213.55000000000001</ele>
        <time>2025-05-17T11:01:33Z</time>
      </trkpt>
      <trkpt lat="43.768737986683846" lon="5.359160983934999">
        <ele>214.99000000000001</ele>
        <time>2025-05-17T11:01:41Z</time>
      </trkpt>
      <trkpt lat="43.767782030627131" lon="5.359899010509253">
        <ele>217.40000000000001</ele>
        <time>2025-05-17T11:01:50Z</time>
      </trkpt>
      <trkpt lat="43.767679017037153" lon="5.359978973865509">
        <ele>218.36000000000001</ele>
        <time>2025-05-17T11:01:51Z</time>
      </trkpt>
      <trkpt lat="43.76692296937108" lon="5.360632007941604">
        <ele>220.75999999999999</ele>
        <time>2025-05-17T11:02:00Z</time>
      </trkpt>
      <trkpt lat="43.766635973006487" lon="5.361017994582653">
        <ele>218.84</ele>
        <time>2025-05-17T11:02:05Z</time>
      </trkpt>
      <trkpt lat="43.766593979671597" lon="5.361080020666122">
        <ele>218.36000000000001</ele>
        <time>2025-05-17T11:02:06Z</time>
      </trkpt>
      <trkpt lat="43.766558021306992" lon="5.36113902926445">
        <ele>217.88</ele>
        <time>2025-05-17T11:02:07Z</time>
      </trkpt>
      <trkpt lat="43.76621201634407" lon="5.361883006989956">
        <ele>216.91</ele>
        <time>2025-05-17T11:02:17Z</time>
      </trkpt>
      <trkpt lat="43.766034990549088" lon="5.36244903691113">
        <ele>219.80000000000001</ele>
        <time>2025-05-17T11:02:24Z</time>
      </trkpt>
      <trkpt lat="43.765844972804189" lon="5.363427959382534">
        <ele>223.63999999999999</ele>
        <time>2025-05-17T11:02:34Z</time>
      </trkpt>
      <trkpt lat="43.765828963369131" lon="5.363526027649641">
        <ele>224.12</ele>
        <time>2025-05-17T11:02:35Z</time>
      </trkpt>
      <trkpt lat="43.765812031924725" lon="5.363628035411239">
        <ele>224.61000000000001</ele>
        <time>2025-05-17T11:02:36Z</time>
      </trkpt>
      <trkpt lat="43.765706000849605" lon="5.364119969308376">
        <ele>226.05000000000001</ele>
        <time>2025-05-17T11:02:41Z</time>
      </trkpt>
      <trkpt lat="43.765682028606534" lon="5.364217031747103">
        <ele>226.05000000000001</ele>
        <time>2025-05-17T11:02:42Z</time>
      </trkpt>
      <trkpt lat="43.765282966196537" lon="5.365191008895636">
        <ele>229.88999999999999</ele>
        <time>2025-05-17T11:02:53Z</time>
      </trkpt>
      <trkpt lat="43.765251031145453" lon="5.365277007222176">
        <ele>230.37</ele>
        <time>2025-05-17T11:02:54Z</time>
      </trkpt>
      <trkpt lat="43.765110969543457" lon="5.365340961143374">
        <ele>230.37</ele>
        <time>2025-05-17T11:02:55Z</time>
      </trkpt>
      <trkpt lat="43.765081968158484" lon="5.365409022197127">
        <ele>231.33000000000001</ele>
        <time>2025-05-17T11:02:57Z</time>
      </trkpt>
      <trkpt lat="43.764920029789209" lon="5.365569032728672">
        <ele>231.81</ele>
        <time>2025-05-17T11:03:00Z</time>
      </trkpt>
      <trkpt lat="43.764859009534121" lon="5.365612031891942">
        <ele>232.30000000000001</ele>
        <time>2025-05-17T11:03:01Z</time>
      </trkpt>
      <trkpt lat="43.764637978747487" lon="5.365755027160049">
        <ele>232.78</ele>
        <time>2025-05-17T11:03:04Z</time>
      </trkpt>
      <trkpt lat="43.763808002695441" lon="5.365873966366053">
        <ele>230.37</ele>
        <time>2025-05-17T11:03:13Z</time>
      </trkpt>
      <trkpt lat="43.763615973293781" lon="5.365829039365053">
        <ele>229.41</ele>
        <time>2025-05-17T11:03:15Z</time>
      </trkpt>
      <trkpt lat="43.76335202716291" lon="5.365727031603456">
        <ele>227.97</ele>
        <time>2025-05-17T11:03:18Z</time>
      </trkpt>
      <trkpt lat="43.763277009129524" lon="5.365684032440186">
        <ele>227.97</ele>
        <time>2025-05-17T11:03:19Z</time>
      </trkpt>
      <trkpt lat="43.762615006417036" lon="5.365097969770432">
        <ele>226.53</ele>
        <time>2025-05-17T11:03:27Z</time>
      </trkpt>
      <trkpt lat="43.762534037232399" lon="5.365017000585794">
        <ele>225.56999999999999</ele>
        <time>2025-05-17T11:03:28Z</time>
      </trkpt>
      <trkpt lat="43.76202198676765" lon="5.364623973146081">
        <ele>224.12</ele>
        <time>2025-05-17T11:03:36Z</time>
      </trkpt>
      <trkpt lat="43.76200002618134" lon="5.364610981196165">
        <ele>224.12</ele>
        <time>2025-05-17T11:03:37Z</time>
      </trkpt>
      <trkpt lat="43.761929031461477" lon="5.364418029785156">
        <ele>224.12</ele>
        <time>2025-05-17T11:03:38Z</time>
      </trkpt>
      <trkpt lat="43.76182802952826" lon="5.364524982869625">
        <ele>224.12</ele>
        <time>2025-05-17T11:03:39Z</time>
      </trkpt>
      <trkpt lat="43.761780001223087" lon="5.364532023668289">
        <ele>224.12</ele>
        <time>2025-05-17T11:03:40Z</time>
      </trkpt>
      <trkpt lat="43.76167799346149" lon="5.364547027274966">
        <ele>224.12</ele>
        <time>2025-05-17T11:03:41Z</time>
      </trkpt>
      <trkpt lat="43.760721031576395" lon="5.364820025861263">
        <ele>225.09</ele>
        <time>2025-05-17T11:03:50Z</time>
      </trkpt>
      <trkpt lat="43.760233959183097" lon="5.36496402695775">
        <ele>224.61000000000001</ele>
        <time>2025-05-17T11:03:54Z</time>
      </trkpt>
      <trkpt lat="43.760120971128345" lon="5.365000991150737">
        <ele>224.61000000000001</ele>
        <time>2025-05-17T11:03:55Z</time>
      </trkpt>
      <trkpt lat="43.758867038413882" lon="5.365426959469914">
        <ele>222.19999999999999</ele>
        <time>2025-05-17T11:04:05Z</time>
      </trkpt>
      <trkpt lat="43.758020969107747" lon="5.365699036046863">
        <ele>221.72</ele>
        <time>2025-05-17T11:04:11Z</time>
      </trkpt>
      <trkpt lat="43.757862970232964" lon="5.365732982754707">
        <ele>221.72</ele>
        <time>2025-05-17T11:04:12Z</time>
      </trkpt>
      <trkpt lat="43.757694996893406" lon="5.365743041038513">
        <ele>222.19999999999999</ele>
        <time>2025-05-17T11:04:13Z</time>
      </trkpt>
      <trkpt lat="43.757518976926804" lon="5.365732982754707">
        <ele>222.19999999999999</ele>
        <time>2025-05-17T11:04:14Z</time>
      </trkpt>
      <trkpt lat="43.75733801163733" lon="5.36571403965354">
        <ele>222.19999999999999</ele>
        <time>2025-05-17T11:04:15Z</time>
      </trkpt>
      <trkpt lat="43.757150005549192" lon="5.365679003298283">
        <ele>222.68000000000001</ele>
        <time>2025-05-17T11:04:16Z</time>
      </trkpt>
      <trkpt lat="43.755120998248458" lon="5.365279018878937">
        <ele>228.93000000000001</ele>
        <time>2025-05-17T11:04:26Z</time>
      </trkpt>
      <trkpt lat="43.754514986649156" lon="5.365270972251892">
        <ele>231.33000000000001</ele>
        <time>2025-05-17T11:04:29Z</time>
      </trkpt>
      <trkpt lat="43.754314994439483" lon="5.36526502110064">
        <ele>232.30000000000001</ele>
        <time>2025-05-17T11:04:30Z</time>
      </trkpt>
      <trkpt lat="43.75299702398479" lon="5.36494298838079">
        <ele>238.53999999999999</ele>
        <time>2025-05-17T11:04:37Z</time>
      </trkpt>
      <trkpt lat="43.751932019367814" lon="5.364293977618218">
        <ele>244.31</ele>
        <time>2025-05-17T11:04:43Z</time>
      </trkpt>
      <trkpt lat="43.750760983675718" lon="5.363897010684013">
        <ele>248.63999999999999</ele>
        <time>2025-05-17T11:04:50Z</time>
      </trkpt>
      <trkpt lat="43.750423025339842" lon="5.363820986822248">
        <ele>249.12</ele>
        <time>2025-05-17T11:04:52Z</time>
      </trkpt>
      <trkpt lat="43.750241976231337" lon="5.363802965730429">
        <ele>249.12</ele>
        <time>2025-05-17T11:04:53Z</time>
      </trkpt>
      <trkpt lat="43.7493010237813" lon="5.363756027072668">
        <ele>249.59999999999999</ele>
        <time>2025-05-17T11:04:58Z</time>
      </trkpt>
      <trkpt lat="43.749131038784981" lon="5.363680003210902">
        <ele>249.59999999999999</ele>
        <time>2025-05-17T11:04:59Z</time>
      </trkpt>
      <trkpt lat="43.748983014374971" lon="5.363591993227601">
        <ele>249.59999999999999</ele>
        <time>2025-05-17T11:05:00Z</time>
      </trkpt>
      <trkpt lat="43.748848987743258" lon="5.363514041528106">
        <ele>249.59999999999999</ele>
        <time>2025-05-17T11:05:01Z</time>
      </trkpt>
      <trkpt lat="43.748782016336918" lon="5.363473976030946">
        <ele>250.08000000000001</ele>
        <time>2025-05-17T11:05:02Z</time>
      </trkpt>
      <trkpt lat="43.748646983876824" lon="5.363512029871345">
        <ele>250.08000000000001</ele>
        <time>2025-05-17T11:05:03Z</time>
      </trkpt>
      <trkpt lat="43.748570960015059" lon="5.363569026812911">
        <ele>250.08000000000001</ele>
        <time>2025-05-17T11:05:04Z</time>
      </trkpt>
      <trkpt lat="43.748471969738603" lon="5.363656030967832">
        <ele>249.59999999999999</ele>
        <time>2025-05-17T11:05:05Z</time>
      </trkpt>
      <trkpt lat="43.74835797585547" lon="5.363784022629261">
        <ele>249.59999999999999</ele>
        <time>2025-05-17T11:05:06Z</time>
      </trkpt>
      <trkpt lat="43.748236019164324" lon="5.363919977098703">
        <ele>249.59999999999999</ele>
        <time>2025-05-17T11:05:07Z</time>
      </trkpt>
      <trkpt lat="43.747969977557659" lon="5.364215020090342">
        <ele>249.12</ele>
        <time>2025-05-17T11:05:09Z</time>
      </trkpt>
      <trkpt lat="43.747821031138301" lon="5.364381987601519">
        <ele>248.16</ele>
        <time>2025-05-17T11:05:10Z</time>
      </trkpt>
      <trkpt lat="43.747193980962038" lon="5.364954974502325">
        <ele>247.19999999999999</ele>
        <time>2025-05-17T11:05:14Z</time>
      </trkpt>
      <trkpt lat="43.747055009007454" lon="5.364989005029202">
        <ele>247.19999999999999</ele>
        <time>2025-05-17T11:05:15Z</time>
      </trkpt>
      <trkpt lat="43.746937997639179" lon="5.364954974502325">
        <ele>246.72</ele>
        <time>2025-05-17T11:05:16Z</time>
      </trkpt>
      <trkpt lat="43.746862979605794" lon="5.364852966740727">
        <ele>246.22999999999999</ele>
        <time>2025-05-17T11:05:17Z</time>
      </trkpt>
      <trkpt lat="43.746815035119653" lon="5.36472799256444">
        <ele>246.22999999999999</ele>
        <time>2025-05-17T11:05:18Z</time>
      </trkpt>
      <trkpt lat="43.74678703956306" lon="5.36457602865994">
        <ele>245.75</ele>
        <time>2025-05-17T11:05:19Z</time>
      </trkpt>
      <trkpt lat="43.74678997322917" lon="5.364395985379815">
        <ele>245.27000000000001</ele>
        <time>2025-05-17T11:05:20Z</time>
      </trkpt>
      <trkpt lat="43.746821992099285" lon="5.364199010655284">
        <ele>244.78999999999999</ele>
        <time>2025-05-17T11:05:21Z</time>
      </trkpt>
      <trkpt lat="43.746855016797781" lon="5.363992983475328">
        <ele>244.78999999999999</ele>
        <time>2025-05-17T11:05:22Z</time>
      </trkpt>
      <trkpt lat="43.746886029839516" lon="5.363801959902048">
        <ele>244.31</ele>
        <time>2025-05-17T11:05:23Z</time>
      </trkpt>
      <trkpt lat="43.746869014576077" lon="5.363642033189535">
        <ele>243.83000000000001</ele>
        <time>2025-05-17T11:05:24Z</time>
      </trkpt>
      <trkpt lat="43.746822997927666" lon="5.363510018214583">
        <ele>242.87</ele>
        <time>2025-05-17T11:05:25Z</time>
      </trkpt>
      <trkpt lat="43.74674404039979" lon="5.363367022946477">
        <ele>241.91</ele>
        <time>2025-05-17T11:05:26Z</time>
      </trkpt>
      <trkpt lat="43.746631974354386" lon="5.363296028226614">
        <ele>240.94999999999999</ele>
        <time>2025-05-17T11:05:27Z</time>
      </trkpt>
      <trkpt lat="43.746500965207815" lon="5.363214975222945">
        <ele>240.47</ele>
        <time>2025-05-17T11:05:28Z</time>
      </trkpt>
      <trkpt lat="43.746352018788457" lon="5.363189997151494">
        <ele>239.99000000000001</ele>
        <time>2025-05-17T11:05:29Z</time>
      </trkpt>
      <trkpt lat="43.746197037398815" lon="5.363181028515101">
        <ele>239.50999999999999</ele>
        <time>2025-05-17T11:05:30Z</time>
      </trkpt>
      <trkpt lat="43.746035015210509" lon="5.363201983273029">
        <ele>239.02000000000001</ele>
        <time>2025-05-17T11:05:31Z</time>
      </trkpt>
      <trkpt lat="43.745872993022203" lon="5.363239031285048">
        <ele>238.06</ele>
        <time>2025-05-17T11:05:32Z</time>
      </trkpt>
      <trkpt lat="43.745706025511026" lon="5.363304996863008">
        <ele>237.58000000000001</ele>
        <time>2025-05-17T11:05:33Z</time>
      </trkpt>
      <trkpt lat="43.74554299749434" lon="5.363370040431619">
        <ele>237.09999999999999</ele>
        <time>2025-05-17T11:05:34Z</time>
      </trkpt>
      <trkpt lat="43.745387010276318" lon="5.363432988524437">
        <ele>236.13999999999999</ele>
        <time>2025-05-17T11:05:35Z</time>
      </trkpt>
      <trkpt lat="43.744826009497046" lon="5.363637004047632">
        <ele>233.74000000000001</ele>
        <time>2025-05-17T11:05:39Z</time>
      </trkpt>
      <trkpt lat="43.744700029492378" lon="5.363655025139451">
        <ele>233.25999999999999</ele>
        <time>2025-05-17T11:05:40Z</time>
      </trkpt>
      <trkpt lat="43.744575977325439" lon="5.363672962412238">
        <ele>232.78</ele>
        <time>2025-05-17T11:05:41Z</time>
      </trkpt>
      <trkpt lat="43.744460977613926" lon="5.363686038181186">
        <ele>232.78</ele>
        <time>2025-05-17T11:05:42Z</time>
      </trkpt>
      <trkpt lat="43.744341032579541" lon="5.363641027361155">
        <ele>232.30000000000001</ele>
        <time>2025-05-17T11:05:43Z</time>
      </trkpt>
      <trkpt lat="43.744214968755841" lon="5.363594004884362">
        <ele>231.81</ele>
        <time>2025-05-17T11:05:44Z</time>
      </trkpt>
      <trkpt lat="43.742789039388299" lon="5.363154038786888">
        <ele>228.44999999999999</ele>
        <time>2025-05-17T11:05:54Z</time>
      </trkpt>
      <trkpt lat="43.742614025250077" lon="5.363169964402914">
        <ele>227.97</ele>
        <time>2025-05-17T11:05:55Z</time>
      </trkpt>
      <trkpt lat="43.741215001791716" lon="5.363594004884362">
        <ele>223.16</ele>
        <time>2025-05-17T11:06:03Z</time>
      </trkpt>
      <trkpt lat="43.741063037887216" lon="5.363615965470672">
        <ele>222.68000000000001</ele>
        <time>2025-05-17T11:06:04Z</time>
      </trkpt>
      <trkpt lat="43.740925993770361" lon="5.363618982955813">
        <ele>222.19999999999999</ele>
        <time>2025-05-17T11:06:05Z</time>
      </trkpt>
      <trkpt lat="43.740808982402086" lon="5.3636110201478">
        <ele>221.72</ele>
        <time>2025-05-17T11:06:06Z</time>
      </trkpt>
      <trkpt lat="43.740190984681249" lon="5.363648990169168">
        <ele>219.80000000000001</ele>
        <time>2025-05-17T11:06:14Z</time>
      </trkpt>
      <trkpt lat="43.740047989413142" lon="5.363716967403889">
        <ele>219.31999999999999</ele>
        <time>2025-05-17T11:06:16Z</time>
      </trkpt>
      <trkpt lat="43.739975988864899" lon="5.363768013194203">
        <ele>219.31999999999999</ele>
        <time>2025-05-17T11:06:17Z</time>
      </trkpt>
      <trkpt lat="43.739900970831513" lon="5.363821992650628">
        <ele>219.31999999999999</ele>
        <time>2025-05-17T11:06:18Z</time>
      </trkpt>
      <trkpt lat="43.739107036963105" lon="5.364612992852926">
        <ele>216.43000000000001</ele>
        <time>2025-05-17T11:06:30Z</time>
      </trkpt>
      <trkpt lat="43.738385019823909" lon="5.365364011377096">
        <ele>212.11000000000001</ele>
        <time>2025-05-17T11:06:39Z</time>
      </trkpt>
      <trkpt lat="43.737970031797886" lon="5.365767013281584">
        <ele>207.78</ele>
        <time>2025-05-17T11:06:45Z</time>
      </trkpt>
      <trkpt lat="43.737864000722766" lon="5.365886958315969">
        <ele>206.81999999999999</ele>
        <time>2025-05-17T11:06:47Z</time>
      </trkpt>
      <trkpt lat="43.737799040973186" lon="5.365959964692593">
        <ele>205.86000000000001</ele>
        <time>2025-05-17T11:06:48Z</time>
      </trkpt>
      <trkpt lat="43.737397966906428" lon="5.366353997960687">
        <ele>202.97999999999999</ele>
        <time>2025-05-17T11:06:53Z</time>
      </trkpt>
      <trkpt lat="43.737316997721791" lon="5.366419041529298">
        <ele>202.49000000000001</ele>
        <time>2025-05-17T11:06:54Z</time>
      </trkpt>
      <trkpt lat="43.73707702383399" lon="5.366591038182378">
        <ele>201.53</ele>
        <time>2025-05-17T11:06:57Z</time>
      </trkpt>
      <trkpt lat="43.736967975273728" lon="5.366605035960674">
        <ele>201.05000000000001</ele>
        <time>2025-05-17T11:06:58Z</time>
      </trkpt>
      <trkpt lat="43.736903015524149" lon="5.366562036797404">
        <ele>200.56999999999999</ele>
        <time>2025-05-17T11:06:59Z</time>
      </trkpt>
      <trkpt lat="43.736854987218976" lon="5.366416024044156">
        <ele>200.56999999999999</ele>
        <time>2025-05-17T11:07:00Z</time>
      </trkpt>
      <trkpt lat="43.736839983612299" lon="5.366309992969036">
        <ele>200.09</ele>
        <time>2025-05-17T11:07:01Z</time>
      </trkpt>
      <trkpt lat="43.73681902885437" lon="5.366190969944">
        <ele>200.09</ele>
        <time>2025-05-17T11:07:02Z</time>
      </trkpt>
      <trkpt lat="43.736788015812635" lon="5.36606096662581">
        <ele>199.61000000000001</ele>
        <time>2025-05-17T11:07:03Z</time>
      </trkpt>
      <trkpt lat="43.736749961972237" lon="5.365938004106283">
        <ele>199.13</ele>
        <time>2025-05-17T11:07:04Z</time>
      </trkpt>
      <trkpt lat="43.736691037192941" lon="5.36584597080946">
        <ele>198.65000000000001</ele>
        <time>2025-05-17T11:07:05Z</time>
      </trkpt>
      <trkpt lat="43.736638985574245" lon="5.365763995796442">
        <ele>198.16999999999999</ele>
        <time>2025-05-17T11:07:06Z</time>
      </trkpt>
      <trkpt lat="43.736591963097453" lon="5.365698030218482">
        <ele>197.69</ele>
        <time>2025-05-17T11:07:07Z</time>
      </trkpt>
      <trkpt lat="43.736545024439692" lon="5.365642039105296">
        <ele>197.69</ele>
        <time>2025-05-17T11:07:08Z</time>
      </trkpt>
      <trkpt lat="43.73649699613452" lon="5.365584958344698">
        <ele>197.21000000000001</ele>
        <time>2025-05-17T11:07:09Z</time>
      </trkpt>
      <trkpt lat="43.736442010849714" lon="5.365518992766738">
        <ele>196.72999999999999</ele>
        <time>2025-05-17T11:07:10Z</time>
      </trkpt>
      <trkpt lat="43.736378978937864" lon="5.365432994440198">
        <ele>196.72999999999999</ele>
        <time>2025-05-17T11:07:11Z</time>
      </trkpt>
      <trkpt lat="43.736318964511156" lon="5.36532998085022">
        <ele>196.25</ele>
        <time>2025-05-17T11:07:12Z</time>
      </trkpt>
      <trkpt lat="43.736250987276435" lon="5.365211963653565">
        <ele>195.77000000000001</ele>
        <time>2025-05-17T11:07:13Z</time>
      </trkpt>
      <trkpt lat="43.73621896840632" lon="5.365100987255573">
        <ele>195.77000000000001</ele>
        <time>2025-05-17T11:07:14Z</time>
      </trkpt>
      <trkpt lat="43.736186027526855" lon="5.364968972280622">
        <ele>195.28</ele>
        <time>2025-05-17T11:07:15Z</time>
      </trkpt>
      <trkpt lat="43.736164988949895" lon="5.364739978685975">
        <ele>194.80000000000001</ele>
        <time>2025-05-17T11:07:17Z</time>
      </trkpt>
      <trkpt lat="43.736179992556572" lon="5.364601006731391">
        <ele>194.31999999999999</ele>
        <time>2025-05-17T11:07:18Z</time>
      </trkpt>
      <trkpt lat="43.736192984506488" lon="5.3644710034132">
        <ele>193.84</ele>
        <time>2025-05-17T11:07:19Z</time>
      </trkpt>
      <trkpt lat="43.736206982284784" lon="5.364339994266629">
        <ele>192.88</ele>
        <time>2025-05-17T11:07:20Z</time>
      </trkpt>
      <trkpt lat="43.736229026690125" lon="5.36421300843358">
        <ele>192.40000000000001</ele>
        <time>2025-05-17T11:07:21Z</time>
      </trkpt>
      <trkpt lat="43.736248975619674" lon="5.364093985408545">
        <ele>191.44</ele>
        <time>2025-05-17T11:07:22Z</time>
      </trkpt>
      <trkpt lat="43.736270014196634" lon="5.36397797986865">
        <ele>190.96000000000001</ele>
        <time>2025-05-17T11:07:23Z</time>
      </trkpt>
      <trkpt lat="43.736288035288453" lon="5.363870020955801">
        <ele>190</ele>
        <time>2025-05-17T11:07:24Z</time>
      </trkpt>
      <trkpt lat="43.736311001703143" lon="5.363772036507726">
        <ele>188.56</ele>
        <time>2025-05-17T11:07:25Z</time>
      </trkpt>
      <trkpt lat="43.736335979774594" lon="5.363671034574509">
        <ele>187.59</ele>
        <time>2025-05-17T11:07:26Z</time>
      </trkpt>
      <trkpt lat="43.736363975331187" lon="5.363559974357486">
        <ele>186.63</ele>
        <time>2025-05-17T11:07:27Z</time>
      </trkpt>
      <trkpt lat="43.736397000029683" lon="5.363444974645972">
        <ele>185.66999999999999</ele>
        <time>2025-05-17T11:07:28Z</time>
      </trkpt>
      <trkpt lat="43.736419966444373" lon="5.363327963277698">
        <ele>184.22999999999999</ele>
        <time>2025-05-17T11:07:29Z</time>
      </trkpt>
      <trkpt lat="43.736530020833015" lon="5.362530006095767">
        <ele>177.5</ele>
        <time>2025-05-17T11:07:35Z</time>
      </trkpt>
      <trkpt lat="43.736548963934183" lon="5.362392961978912">
        <ele>176.06</ele>
        <time>2025-05-17T11:07:36Z</time>
      </trkpt>
      <trkpt lat="43.736675027757883" lon="5.361652001738548">
        <ele>169.81</ele>
        <time>2025-05-17T11:07:42Z</time>
      </trkpt>
      <trkpt lat="43.736989013850689" lon="5.360327996313572">
        <ele>162.12</ele>
        <time>2025-05-17T11:07:51Z</time>
      </trkpt>
      <trkpt lat="43.737133014947176" lon="5.359707986935973">
        <ele>157.78999999999999</ele>
        <time>2025-05-17T11:07:55Z</time>
      </trkpt>
      <trkpt lat="43.737138966098428" lon="5.359596004709601">
        <ele>156.34999999999999</ele>
        <time>2025-05-17T11:07:56Z</time>
      </trkpt>
      <trkpt lat="43.737143995240331" lon="5.35950698889792">
        <ele>155.87</ele>
        <time>2025-05-17T11:07:57Z</time>
      </trkpt>
      <trkpt lat="43.737152041867375" lon="5.359375979751349">
        <ele>154.91</ele>
        <time>2025-05-17T11:07:58Z</time>
      </trkpt>
      <trkpt lat="43.737152041867375" lon="5.359375979751349">
        <ele>154.91</ele>
        <time>2025-05-17T11:07:59Z</time>
      </trkpt>
      <trkpt lat="43.73703402467072" lon="5.359275983646512">
        <ele>155.38999999999999</ele>
        <time>2025-05-17T11:08:00Z</time>
      </trkpt>
      <trkpt lat="43.737024972215295" lon="5.359285036101937">
        <ele>155.38999999999999</ele>
        <time>2025-05-17T11:08:01Z</time>
      </trkpt>
      <trkpt lat="43.737007034942508" lon="5.359300961717963">
        <ele>155.38999999999999</ele>
        <time>2025-05-17T11:08:02Z</time>
      </trkpt>
      <trkpt lat="43.736975016072392" lon="5.359331974759698">
        <ele>155.38999999999999</ele>
        <time>2025-05-17T11:08:03Z</time>
      </trkpt>
      <trkpt lat="43.73692698776722" lon="5.359376985579729">
        <ele>155.38999999999999</ele>
        <time>2025-05-17T11:08:04Z</time>
      </trkpt>
      <trkpt lat="43.736873008310795" lon="5.359428031370044">
        <ele>154.91</ele>
        <time>2025-05-17T11:08:05Z</time>
      </trkpt>
      <trkpt lat="43.736393982544541" lon="5.359917031601071">
        <ele>153.94999999999999</ele>
        <time>2025-05-17T11:08:13Z</time>
      </trkpt>
      <trkpt lat="43.736327011138201" lon="5.359978973865509">
        <ele>153.94999999999999</ele>
        <time>2025-05-17T11:08:14Z</time>
      </trkpt>
      <trkpt lat="43.736183010041714" lon="5.360110988840461">
        <ele>153.47</ele>
        <time>2025-05-17T11:08:16Z</time>
      </trkpt>
      <trkpt lat="43.735366025939584" lon="5.360931996256113">
        <ele>152.50999999999999</ele>
        <time>2025-05-17T11:08:26Z</time>
      </trkpt>
      <trkpt lat="43.735300982370973" lon="5.361017994582653">
        <ele>152.50999999999999</ele>
        <time>2025-05-17T11:08:27Z</time>
      </trkpt>
      <trkpt lat="43.735249014571309" lon="5.361121008172631">
        <ele>152.99000000000001</ele>
        <time>2025-05-17T11:08:28Z</time>
      </trkpt>
      <trkpt lat="43.735198974609375" lon="5.361221004277468">
        <ele>153.47</ele>
        <time>2025-05-17T11:08:29Z</time>
      </trkpt>
      <trkpt lat="43.735176008194685" lon="5.361338015645742">
        <ele>153.47</ele>
        <time>2025-05-17T11:08:30Z</time>
      </trkpt>
      <trkpt lat="43.735150024294853" lon="5.361466007307172">
        <ele>153.47</ele>
        <time>2025-05-17T11:08:31Z</time>
      </trkpt>
      <trkpt lat="43.735124040395021" lon="5.361596010625362">
        <ele>152.99000000000001</ele>
        <time>2025-05-17T11:08:32Z</time>
      </trkpt>
      <trkpt lat="43.735081041231751" lon="5.36197897978127">
        <ele>152.99000000000001</ele>
        <time>2025-05-17T11:08:35Z</time>
      </trkpt>
      <trkpt lat="43.735070982947946" lon="5.362101020291448">
        <ele>153.47</ele>
        <time>2025-05-17T11:08:36Z</time>
      </trkpt>
      <trkpt lat="43.73503896407783" lon="5.362258013337851">
        <ele>152.99000000000001</ele>
        <time>2025-05-17T11:08:37Z</time>
      </trkpt>
      <trkpt lat="43.734880965203047" lon="5.363160995766521">
        <ele>150.58000000000001</ele>
        <time>2025-05-17T11:08:43Z</time>
      </trkpt>
      <trkpt lat="43.734583994373679" lon="5.364722963422537">
        <ele>147.22</ele>
        <time>2025-05-17T11:08:53Z</time>
      </trkpt>
      <trkpt lat="43.734569996595383" lon="5.364881968125701">
        <ele>147.22</ele>
        <time>2025-05-17T11:08:54Z</time>
      </trkpt>
      <trkpt lat="43.734561027958989" lon="5.365043990314007">
        <ele>147.22</ele>
        <time>2025-05-17T11:08:55Z</time>
      </trkpt>
      <trkpt lat="43.734581982716918" lon="5.365227973088622">
        <ele>147.22</ele>
        <time>2025-05-17T11:08:56Z</time>
      </trkpt>
      <trkpt lat="43.734619030728936" lon="5.365371974185109">
        <ele>147.69999999999999</ele>
        <time>2025-05-17T11:08:57Z</time>
      </trkpt>
      <trkpt lat="43.734657000750303" lon="5.365517986938357">
        <ele>148.66</ele>
        <time>2025-05-17T11:08:58Z</time>
      </trkpt>
      <trkpt lat="43.734726989641786" lon="5.365804983302951">
        <ele>149.62</ele>
        <time>2025-05-17T11:09:00Z</time>
      </trkpt>
      <trkpt lat="43.734726989641786" lon="5.365943033248186">
        <ele>150.09999999999999</ele>
        <time>2025-05-17T11:09:01Z</time>
      </trkpt>
      <trkpt lat="43.734726989641786" lon="5.366076976060867">
        <ele>150.58000000000001</ele>
        <time>2025-05-17T11:09:02Z</time>
      </trkpt>
      <trkpt lat="43.734726989641786" lon="5.3662099968642">
        <ele>151.53999999999999</ele>
        <time>2025-05-17T11:09:03Z</time>
      </trkpt>
      <trkpt lat="43.734716009348631" lon="5.366341006010771">
        <ele>151.53999999999999</ele>
        <time>2025-05-17T11:09:04Z</time>
      </trkpt>
      <trkpt lat="43.734421972185373" lon="5.367402993142605">
        <ele>156.83000000000001</ele>
        <time>2025-05-17T11:09:13Z</time>
      </trkpt>
      <trkpt lat="43.733974965289235" lon="5.368609987199307">
        <ele>159.24000000000001</ele>
        <time>2025-05-17T11:09:22Z</time>
      </trkpt>
      <trkpt lat="43.733930038288236" lon="5.368878040462732">
        <ele>159.72</ele>
        <time>2025-05-17T11:09:24Z</time>
      </trkpt>
      <trkpt lat="43.733814032748342" lon="5.370127027854323">
        <ele>161.63999999999999</ele>
        <time>2025-05-17T11:09:36Z</time>
      </trkpt>
      <trkpt lat="43.733656033873558" lon="5.371177028864622">
        <ele>165</ele>
        <time>2025-05-17T11:09:47Z</time>
      </trkpt>
      <trkpt lat="43.733641030266881" lon="5.371273001655936">
        <ele>165.47999999999999</ele>
        <time>2025-05-17T11:09:48Z</time>
      </trkpt>
      <trkpt lat="43.733626026660204" lon="5.371370986104012">
        <ele>165.47999999999999</ele>
        <time>2025-05-17T11:09:49Z</time>
      </trkpt>
      <trkpt lat="43.733546985313296" lon="5.371955959126353">
        <ele>166.44999999999999</ele>
        <time>2025-05-17T11:09:55Z</time>
      </trkpt>
      <trkpt lat="43.733546985313296" lon="5.372146982699633">
        <ele>166.44999999999999</ele>
        <time>2025-05-17T11:09:57Z</time>
      </trkpt>
      <trkpt lat="43.733546985313296" lon="5.372239015996456">
        <ele>166.44999999999999</ele>
        <time>2025-05-17T11:09:58Z</time>
      </trkpt>
      <trkpt lat="43.733546985313296" lon="5.372339012101293">
        <ele>166.44999999999999</ele>
        <time>2025-05-17T11:09:59Z</time>
      </trkpt>
      <trkpt lat="43.733642036095262" lon="5.373335033655167">
        <ele>167.41</ele>
        <time>2025-05-17T11:10:08Z</time>
      </trkpt>
      <trkpt lat="43.733718981966376" lon="5.373924029991031">
        <ele>168.37</ele>
        <time>2025-05-17T11:10:14Z</time>
      </trkpt>
      <trkpt lat="43.733714036643505" lon="5.37398898974061">
        <ele>168.84999999999999</ele>
        <time>2025-05-17T11:10:15Z</time>
      </trkpt>
      <trkpt lat="43.733708001673222" lon="5.374067025259137">
        <ele>169.33000000000001</ele>
        <time>2025-05-17T11:10:16Z</time>
      </trkpt>
      <trkpt lat="43.733586966991425" lon="5.374622996896505">
        <ele>172.21000000000001</ele>
        <time>2025-05-17T11:10:26Z</time>
      </trkpt>
      <trkpt lat="43.733582021668553" lon="5.374644035473466">
        <ele>172.21000000000001</ele>
        <time>2025-05-17T11:10:27Z</time>
      </trkpt>
      <trkpt lat="43.73357598669827" lon="5.374665996059775">
        <ele>172.69</ele>
        <time>2025-05-17T11:10:28Z</time>
      </trkpt>
      <trkpt lat="43.73348998837173" lon="5.374760963022709">
        <ele>173.66</ele>
        <time>2025-05-17T11:10:31Z</time>
      </trkpt>
      <trkpt lat="43.733470039442182" lon="5.374753000214696">
        <ele>173.66</ele>
        <time>2025-05-17T11:10:32Z</time>
      </trkpt>
      <trkpt lat="43.733435003086925" lon="5.374741014093161">
        <ele>173.66</ele>
        <time>2025-05-17T11:10:33Z</time>
      </trkpt>
      <trkpt lat="43.7333810236305" lon="5.3747199755162">
        <ele>173.16999999999999</ele>
        <time>2025-05-17T11:10:34Z</time>
      </trkpt>
      <trkpt lat="43.733313968405128" lon="5.37469600327313">
        <ele>173.16999999999999</ele>
        <time>2025-05-17T11:10:35Z</time>
      </trkpt>
      <trkpt lat="43.73316996730864" lon="5.374642023816705">
        <ele>173.16999999999999</ele>
        <time>2025-05-17T11:10:37Z</time>
      </trkpt>
      <trkpt lat="43.733091009780765" lon="5.374613022431731">
        <ele>173.16999999999999</ele>
        <time>2025-05-17T11:10:38Z</time>
      </trkpt>
      <trkpt lat="43.732325993478298" lon="5.37441504187882">
        <ele>172.69</ele>
        <time>2025-05-17T11:10:48Z</time>
      </trkpt>
      <trkpt lat="43.731602970510721" lon="5.374297024682164">
        <ele>169.33000000000001</ele>
        <time>2025-05-17T11:10:58Z</time>
      </trkpt>
      <trkpt lat="43.731366014108062" lon="5.374263999983668">
        <ele>169.81</ele>
        <time>2025-05-17T11:11:01Z</time>
      </trkpt>
      <trkpt lat="43.731290996074677" lon="5.374251008033752">
        <ele>169.33000000000001</ele>
        <time>2025-05-17T11:11:02Z</time>
      </trkpt>
      <trkpt lat="43.731217989698052" lon="5.374239021912217">
        <ele>169.33000000000001</ele>
        <time>2025-05-17T11:11:03Z</time>
      </trkpt>
      <trkpt lat="43.730949014425278" lon="5.374191999435425">
        <ele>168.37</ele>
        <time>2025-05-17T11:11:07Z</time>
      </trkpt>
      <trkpt lat="43.730891011655331" lon="5.374182024970651">
        <ele>168.37</ele>
        <time>2025-05-17T11:11:08Z</time>
      </trkpt>
      <trkpt lat="43.73050200752914" lon="5.374060990288854">
        <ele>166.93000000000001</ele>
        <time>2025-05-17T11:11:14Z</time>
      </trkpt>
      <trkpt lat="43.729786025360227" lon="5.373667040839791">
        <ele>161.16</ele>
        <time>2025-05-17T11:11:24Z</time>
      </trkpt>
      <trkpt lat="43.729480002075434" lon="5.373504012823105">
        <ele>159.72</ele>
        <time>2025-05-17T11:11:29Z</time>
      </trkpt>
      <trkpt lat="43.729425016790628" lon="5.373474005609751">
        <ele>159.24000000000001</ele>
        <time>2025-05-17T11:11:30Z</time>
      </trkpt>
      <trkpt lat="43.729366008192301" lon="5.373442992568016">
        <ele>159.24000000000001</ele>
        <time>2025-05-17T11:11:31Z</time>
      </trkpt>
      <trkpt lat="43.72902000322938" lon="5.373259009793401">
        <ele>157.78999999999999</ele>
        <time>2025-05-17T11:11:36Z</time>
      </trkpt>
      <trkpt lat="43.728972980752587" lon="5.373235959559679">
        <ele>157.78999999999999</ele>
        <time>2025-05-17T11:11:37Z</time>
      </trkpt>
      <trkpt lat="43.72889100573957" lon="5.37319396622479">
        <ele>157.78999999999999</ele>
        <time>2025-05-17T11:11:38Z</time>
      </trkpt>
      <trkpt lat="43.728845994919538" lon="5.373175023123622">
        <ele>157.78999999999999</ele>
        <time>2025-05-17T11:11:39Z</time>
      </trkpt>
      <trkpt lat="43.72878497466445" lon="5.37314903922379">
        <ele>158.27000000000001</ele>
        <time>2025-05-17T11:11:40Z</time>
      </trkpt>
      <trkpt lat="43.728725966066122" lon="5.37312900647521">
        <ele>158.27000000000001</ele>
        <time>2025-05-17T11:11:41Z</time>
      </trkpt>
      <trkpt lat="43.728553969413042" lon="5.373112997040153">
        <ele>158.27000000000001</ele>
        <time>2025-05-17T11:11:48Z</time>
      </trkpt>
      <trkpt lat="43.728404017165303" lon="5.373011995106936">
        <ele>158.75</ele>
        <time>2025-05-17T11:11:52Z</time>
      </trkpt>
      <trkpt lat="43.728298991918564" lon="5.37289397791028">
        <ele>158.75</ele>
        <time>2025-05-17T11:11:54Z</time>
      </trkpt>
      <trkpt lat="43.728236965835094" lon="5.37289397791028">
        <ele>158.75</ele>
        <time>2025-05-17T11:11:55Z</time>
      </trkpt>
      <trkpt lat="43.728178041055799" lon="5.37289397791028">
        <ele>158.75</ele>
        <time>2025-05-17T11:11:56Z</time>
      </trkpt>
      <trkpt lat="43.728110985830426" lon="5.372951980680227">
        <ele>159.24000000000001</ele>
        <time>2025-05-17T11:11:57Z</time>
      </trkpt>
      <trkpt lat="43.728076033294201" lon="5.373020963743329">
        <ele>159.24000000000001</ele>
        <time>2025-05-17T11:11:58Z</time>
      </trkpt>
      <trkpt lat="43.728076033294201" lon="5.37302297540009">
        <ele>159.24000000000001</ele>
        <time>2025-05-17T11:11:59Z</time>
      </trkpt>
      <trkpt lat="43.728033034130931" lon="5.373262027278543">
        <ele>159.24000000000001</ele>
        <time>2025-05-17T11:12:00Z</time>
      </trkpt>
      <trkpt lat="43.727962961420417" lon="5.373303014785051">
        <ele>159.24000000000001</ele>
        <time>2025-05-17T11:12:01Z</time>
      </trkpt>
      <trkpt lat="43.727886015549302" lon="5.373348025605083">
        <ele>158.75</ele>
        <time>2025-05-17T11:12:02Z</time>
      </trkpt>
      <trkpt lat="43.727808985859156" lon="5.373392030596733">
        <ele>158.27000000000001</ele>
        <time>2025-05-17T11:12:03Z</time>
      </trkpt>
      <trkpt lat="43.727732039988041" lon="5.373437041416764">
        <ele>157.78999999999999</ele>
        <time>2025-05-17T11:12:04Z</time>
      </trkpt>
      <trkpt lat="43.727651992812753" lon="5.373483980074525">
        <ele>157.78999999999999</ele>
        <time>2025-05-17T11:12:05Z</time>
      </trkpt>
      <trkpt lat="43.727125022560358" lon="5.373786985874176">
        <ele>155.87</ele>
        <time>2025-05-17T11:12:13Z</time>
      </trkpt>
      <trkpt lat="43.727056961506605" lon="5.373821016401053">
        <ele>155.87</ele>
        <time>2025-05-17T11:12:14Z</time>
      </trkpt>
      <trkpt lat="43.726982027292252" lon="5.37385898642242">
        <ele>155.38999999999999</ele>
        <time>2025-05-17T11:12:15Z</time>
      </trkpt>
      <trkpt lat="43.726895023137331" lon="5.37390198558569">
        <ele>155.38999999999999</ele>
        <time>2025-05-17T11:12:16Z</time>
      </trkpt>
      <trkpt lat="43.726796032860875" lon="5.373958982527256">
        <ele>155.38999999999999</ele>
        <time>2025-05-17T11:12:17Z</time>
      </trkpt>
      <trkpt lat="43.726686984300613" lon="5.374025031924248">
        <ele>154.91</ele>
        <time>2025-05-17T11:12:18Z</time>
      </trkpt>
      <trkpt lat="43.725490970537066" lon="5.374744031578302">
        <ele>155.38999999999999</ele>
        <time>2025-05-17T11:12:27Z</time>
      </trkpt>
      <trkpt lat="43.72382297180593" lon="5.375662017613649">
        <ele>158.27000000000001</ele>
        <time>2025-05-17T11:12:37Z</time>
      </trkpt>
      <trkpt lat="43.72197300195694" lon="5.376551002264023">
        <ele>158.75</ele>
        <time>2025-05-17T11:12:48Z</time>
      </trkpt>
      <trkpt lat="43.720122026279569" lon="5.377184003591538">
        <ele>161.16</ele>
        <time>2025-05-17T11:12:57Z</time>
      </trkpt>
      <trkpt lat="43.719296995550394" lon="5.377276036888361">
        <ele>162.59999999999999</ele>
        <time>2025-05-17T11:13:01Z</time>
      </trkpt>
      <trkpt lat="43.718697018921375" lon="5.377217028290033">
        <ele>163.08000000000001</ele>
        <time>2025-05-17T11:13:04Z</time>
      </trkpt>
      <trkpt lat="43.717388017103076" lon="5.376529041677713">
        <ele>165.47999999999999</ele>
        <time>2025-05-17T11:13:11Z</time>
      </trkpt>
      <trkpt lat="43.716281019151211" lon="5.37523596547544">
        <ele>165.96000000000001</ele>
        <time>2025-05-17T11:13:18Z</time>
      </trkpt>
      <trkpt lat="43.715434027835727" lon="5.373337967321277">
        <ele>165.47999999999999</ele>
        <time>2025-05-17T11:13:26Z</time>
      </trkpt>
      <trkpt lat="43.714097030460835" lon="5.36962796933949">
        <ele>162.12</ele>
        <time>2025-05-17T11:13:41Z</time>
      </trkpt>
      <trkpt lat="43.712953990325332" lon="5.366723975166678">
        <ele>162.12</ele>
        <time>2025-05-17T11:13:53Z</time>
      </trkpt>
      <trkpt lat="43.712834967300296" lon="5.366507973521948">
        <ele>162.12</ele>
        <time>2025-05-17T11:13:54Z</time>
      </trkpt>
      <trkpt lat="43.712686020880938" lon="5.366335976868868">
        <ele>162.12</ele>
        <time>2025-05-17T11:13:55Z</time>
      </trkpt>
      <trkpt lat="43.712531961500645" lon="5.366173032671213">
        <ele>162.12</ele>
        <time>2025-05-17T11:13:56Z</time>
      </trkpt>
      <trkpt lat="43.712371028959751" lon="5.366045963019133">
        <ele>162.12</ele>
        <time>2025-05-17T11:13:57Z</time>
      </trkpt>
      <trkpt lat="43.712203977629542" lon="5.365938004106283">
        <ele>162.59999999999999</ele>
        <time>2025-05-17T11:13:58Z</time>
      </trkpt>
      <trkpt lat="43.712034998461604" lon="5.365844964981079">
        <ele>163.08000000000001</ele>
        <time>2025-05-17T11:13:59Z</time>
      </trkpt>
      <trkpt lat="43.70994295924902" lon="5.364736039191485">
        <ele>164.52000000000001</ele>
        <time>2025-05-17T11:14:12Z</time>
      </trkpt>
      <trkpt lat="43.70841896161437" lon="5.363659970462322">
        <ele>166.44999999999999</ele>
        <time>2025-05-17T11:14:22Z</time>
      </trkpt>
      <trkpt lat="43.70816096663475" lon="5.363303991034627">
        <ele>167.41</ele>
        <time>2025-05-17T11:14:25Z</time>
      </trkpt>
      <trkpt lat="43.708120984956622" lon="5.363193014636636">
        <ele>167.88999999999999</ele>
        <time>2025-05-17T11:14:26Z</time>
      </trkpt>
      <trkpt lat="43.708084020763636" lon="5.363099975511432">
        <ele>168.84999999999999</ele>
        <time>2025-05-17T11:14:27Z</time>
      </trkpt>
      <trkpt lat="43.70805099606514" lon="5.363026969134808">
        <ele>169.33000000000001</ele>
        <time>2025-05-17T11:14:28Z</time>
      </trkpt>
      <trkpt lat="43.708019983023405" lon="5.362961003556848">
        <ele>169.81</ele>
        <time>2025-05-17T11:14:29Z</time>
      </trkpt>
      <trkpt lat="43.708039009943604" lon="5.362801998853684">
        <ele>170.28999999999999</ele>
        <time>2025-05-17T11:14:30Z</time>
      </trkpt>
      <trkpt lat="43.708092989400029" lon="5.362764028832316">
        <ele>170.77000000000001</ele>
        <time>2025-05-17T11:14:31Z</time>
      </trkpt>
      <trkpt lat="43.708165995776653" lon="5.362711977213621">
        <ele>170.77000000000001</ele>
        <time>2025-05-17T11:14:32Z</time>
      </trkpt>
      <trkpt lat="43.708258029073477" lon="5.362648023292422">
        <ele>171.25</ele>
        <time>2025-05-17T11:14:33Z</time>
      </trkpt>
      <trkpt lat="43.708761027082801" lon="5.362290032207966">
        <ele>169.81</ele>
        <time>2025-05-17T11:14:39Z</time>
      </trkpt>
      <trkpt lat="43.708774019032717" lon="5.362225994467735">
        <ele>169.81</ele>
        <time>2025-05-17T11:14:40Z</time>
      </trkpt>
      <trkpt lat="43.70875901542604" lon="5.362164974212647">
        <ele>169.81</ele>
        <time>2025-05-17T11:14:41Z</time>
      </trkpt>
      <trkpt lat="43.70873898267746" lon="5.362081993371248">
        <ele>169.33000000000001</ele>
        <time>2025-05-17T11:14:42Z</time>
      </trkpt>
      <trkpt lat="43.70871601626277" lon="5.361990965902805">
        <ele>168.84999999999999</ele>
        <time>2025-05-17T11:14:43Z</time>
      </trkpt>
      <trkpt lat="43.708690032362938" lon="5.361883006989956">
        <ele>168.37</ele>
        <time>2025-05-17T11:14:44Z</time>
      </trkpt>
      <trkpt lat="43.708659019321203" lon="5.361759038642049">
        <ele>168.37</ele>
        <time>2025-05-17T11:14:45Z</time>
      </trkpt>
      <trkpt lat="43.708590036258101" lon="5.361476987600327">
        <ele>168.37</ele>
        <time>2025-05-17T11:14:47Z</time>
      </trkpt>
      <trkpt lat="43.708554999902844" lon="5.361330974847078">
        <ele>168.37</ele>
        <time>2025-05-17T11:14:48Z</time>
      </trkpt>
      <trkpt lat="43.708509989082813" lon="5.361186973750591">
        <ele>167.88999999999999</ele>
        <time>2025-05-17T11:14:49Z</time>
      </trkpt>
      <trkpt lat="43.708444023504853" lon="5.36105303093791">
        <ele>167.88999999999999</ele>
        <time>2025-05-17T11:14:50Z</time>
      </trkpt>
      <trkpt lat="43.70837202295661" lon="5.360911963507533">
        <ele>167.88999999999999</ele>
        <time>2025-05-17T11:14:51Z</time>
      </trkpt>
      <trkpt lat="43.708112016320229" lon="5.360526982694864">
        <ele>167.41</ele>
        <time>2025-05-17T11:14:54Z</time>
      </trkpt>
      <trkpt lat="43.708011014387012" lon="5.360424974933267">
        <ele>167.41</ele>
        <time>2025-05-17T11:14:55Z</time>
      </trkpt>
      <trkpt lat="43.707927027717233" lon="5.360340988263488">
        <ele>167.41</ele>
        <time>2025-05-17T11:14:56Z</time>
      </trkpt>
      <trkpt lat="43.707797024399042" lon="5.360297989100218">
        <ele>167.41</ele>
        <time>2025-05-17T11:14:57Z</time>
      </trkpt>
      <trkpt lat="43.70768403634429" lon="5.36028097383678">
        <ele>167.88999999999999</ele>
        <time>2025-05-17T11:14:58Z</time>
      </trkpt>
      <trkpt lat="43.707573981955647" lon="5.360289020463824">
        <ele>167.88999999999999</ele>
        <time>2025-05-17T11:14:59Z</time>
      </trkpt>
      <trkpt lat="43.707466023042798" lon="5.360296983271837">
        <ele>168.37</ele>
        <time>2025-05-17T11:15:00Z</time>
      </trkpt>
      <trkpt lat="43.707354040816426" lon="5.360284997150302">
        <ele>168.84999999999999</ele>
        <time>2025-05-17T11:15:01Z</time>
      </trkpt>
      <trkpt lat="43.707241974771023" lon="5.360269993543625">
        <ele>168.84999999999999</ele>
        <time>2025-05-17T11:15:02Z</time>
      </trkpt>
      <trkpt lat="43.707130998373032" lon="5.360252978280187">
        <ele>169.33000000000001</ele>
        <time>2025-05-17T11:15:03Z</time>
      </trkpt>
      <trkpt lat="43.707060003653169" lon="5.360149964690208">
        <ele>169.81</ele>
        <time>2025-05-17T11:15:04Z</time>
      </trkpt>
      <trkpt lat="43.706984985619783" lon="5.360039994120598">
        <ele>169.81</ele>
        <time>2025-05-17T11:15:05Z</time>
      </trkpt>
      <trkpt lat="43.706896975636482" lon="5.359912002459168">
        <ele>170.28999999999999</ele>
        <time>2025-05-17T11:15:06Z</time>
      </trkpt>
      <trkpt lat="43.706867974251509" lon="5.359754003584385">
        <ele>170.77000000000001</ele>
        <time>2025-05-17T11:15:07Z</time>
      </trkpt>
      <trkpt lat="43.70686998590827" lon="5.359559962525964">
        <ele>171.25</ele>
        <time>2025-05-17T11:15:08Z</time>
      </trkpt>
      <trkpt lat="43.706896975636482" lon="5.359371034428477">
        <ele>172.21000000000001</ele>
        <time>2025-05-17T11:15:09Z</time>
      </trkpt>
      <trkpt lat="43.706925977021456" lon="5.359171964228153">
        <ele>172.21000000000001</ele>
        <time>2025-05-17T11:15:10Z</time>
      </trkpt>
      <trkpt lat="43.706954978406429" lon="5.358965015038848">
        <ele>172.69</ele>
        <time>2025-05-17T11:15:11Z</time>
      </trkpt>
      <trkpt lat="43.706957995891571" lon="5.358751025050879">
        <ele>172.69</ele>
        <time>2025-05-17T11:15:12Z</time>
      </trkpt>
      <trkpt lat="43.706943998113275" lon="5.35789598710835">
        <ele>173.66</ele>
        <time>2025-05-17T11:15:16Z</time>
      </trkpt>
      <trkpt lat="43.706940980628133" lon="5.357726002112031">
        <ele>174.13999999999999</ele>
        <time>2025-05-17T11:15:17Z</time>
      </trkpt>
      <trkpt lat="43.706876020878553" lon="5.357585018500686">
        <ele>174.13999999999999</ele>
        <time>2025-05-17T11:15:18Z</time>
      </trkpt>
      <trkpt lat="43.706793040037155" lon="5.357520980760455">
        <ele>174.62</ele>
        <time>2025-05-17T11:15:19Z</time>
      </trkpt>
      <trkpt lat="43.706696983426809" lon="5.357477981597185">
        <ele>175.58000000000001</ele>
        <time>2025-05-17T11:15:20Z</time>
      </trkpt>
      <trkpt lat="43.706591036170721" lon="5.357445040717721">
        <ele>175.58000000000001</ele>
        <time>2025-05-17T11:15:21Z</time>
      </trkpt>
      <trkpt lat="43.706465978175402" lon="5.357405981048942">
        <ele>176.06</ele>
        <time>2025-05-17T11:15:22Z</time>
      </trkpt>
      <trkpt lat="43.706343015655875" lon="5.357367005199194">
        <ele>176.06</ele>
        <time>2025-05-17T11:15:23Z</time>
      </trkpt>
      <trkpt lat="43.706226004287601" lon="5.357358958572149">
        <ele>176.53999999999999</ele>
        <time>2025-05-17T11:15:24Z</time>
      </trkpt>
      <trkpt lat="43.706120979040861" lon="5.357390977442265">
        <ele>177.02000000000001</ele>
        <time>2025-05-17T11:15:25Z</time>
      </trkpt>
      <trkpt lat="43.706026012077928" lon="5.357458032667637">
        <ele>177.5</ele>
        <time>2025-05-17T11:15:26Z</time>
      </trkpt>
      <trkpt lat="43.705928027629852" lon="5.357527015730739">
        <ele>178.46000000000001</ele>
        <time>2025-05-17T11:15:27Z</time>
      </trkpt>
      <trkpt lat="43.705829037353396" lon="5.357597004622221">
        <ele>178.94</ele>
        <time>2025-05-17T11:15:28Z</time>
      </trkpt>
      <trkpt lat="43.70551697909832" lon="5.357773024588823">
        <ele>180.38</ele>
        <time>2025-05-17T11:15:31Z</time>
      </trkpt>
      <trkpt lat="43.705402985215187" lon="5.357782999053598">
        <ele>180.87</ele>
        <time>2025-05-17T11:15:32Z</time>
      </trkpt>
      <trkpt lat="43.705297037959099" lon="5.357755003497005">
        <ele>180.87</ele>
        <time>2025-05-17T11:15:33Z</time>
      </trkpt>
      <trkpt lat="43.705192012712359" lon="5.357693983241916">
        <ele>180.87</ele>
        <time>2025-05-17T11:15:34Z</time>
      </trkpt>
      <trkpt lat="43.705082964152098" lon="5.35761795938015">
        <ele>180.38</ele>
        <time>2025-05-17T11:15:35Z</time>
      </trkpt>
      <trkpt lat="43.705006018280983" lon="5.357477981597185">
        <ele>180.38</ele>
        <time>2025-05-17T11:15:36Z</time>
      </trkpt>
      <trkpt lat="43.704923959448934" lon="5.357330963015556">
        <ele>179.90000000000001</ele>
        <time>2025-05-17T11:15:37Z</time>
      </trkpt>
      <trkpt lat="43.704854976385832" lon="5.357157038524747">
        <ele>179.90000000000001</ele>
        <time>2025-05-17T11:15:38Z</time>
      </trkpt>
      <trkpt lat="43.704576026648283" lon="5.356122041121125">
        <ele>177.97999999999999</ele>
        <time>2025-05-17T11:15:43Z</time>
      </trkpt>
      <trkpt lat="43.704515006393194" lon="5.355898998677731">
        <ele>177.5</ele>
        <time>2025-05-17T11:15:44Z</time>
      </trkpt>
      <trkpt lat="43.704515006393194" lon="5.355686014518142">
        <ele>177.02000000000001</ele>
        <time>2025-05-17T11:15:45Z</time>
      </trkpt>
      <trkpt lat="43.70454803109169" lon="5.355452997609973">
        <ele>177.02000000000001</ele>
        <time>2025-05-17T11:15:46Z</time>
      </trkpt>
      <trkpt lat="43.704630006104708" lon="5.355245964601636">
        <ele>177.5</ele>
        <time>2025-05-17T11:15:47Z</time>
      </trkpt>
      <trkpt lat="43.704719021916389" lon="5.355025017634034">
        <ele>177.97999999999999</ele>
        <time>2025-05-17T11:15:48Z</time>
      </trkpt>
      <trkpt lat="43.705356968566775" lon="5.353428013622761">
        <ele>180.87</ele>
        <time>2025-05-17T11:15:55Z</time>
      </trkpt>
      <trkpt lat="43.705587973818183" lon="5.352687975391746">
        <ele>180.38</ele>
        <time>2025-05-17T11:15:59Z</time>
      </trkpt>
      <trkpt lat="43.705594008788466" lon="5.352500975131989">
        <ele>179.41999999999999</ele>
        <time>2025-05-17T11:16:00Z</time>
      </trkpt>
      <trkpt lat="43.705545980483294" lon="5.352339958772063">
        <ele>178.94</ele>
        <time>2025-05-17T11:16:01Z</time>
      </trkpt>
      <trkpt lat="43.705447996035218" lon="5.352208027616143">
        <ele>178.46000000000001</ele>
        <time>2025-05-17T11:16:02Z</time>
      </trkpt>
      <trkpt lat="43.70534498244524" lon="5.35207400098443">
        <ele>177.97999999999999</ele>
        <time>2025-05-17T11:16:03Z</time>
      </trkpt>
      <trkpt lat="43.705217996612191" lon="5.351955983787775">
        <ele>177.5</ele>
        <time>2025-05-17T11:16:04Z</time>
      </trkpt>
      <trkpt lat="43.704289030283689" lon="5.351097006350756">
        <ele>175.58000000000001</ele>
        <time>2025-05-17T11:16:10Z</time>
      </trkpt>
      <trkpt lat="43.703414965420961" lon="5.350135015323758">
        <ele>175.58000000000001</ele>
        <time>2025-05-17T11:16:16Z</time>
      </trkpt>
      <trkpt lat="43.702565040439367" lon="5.348864989355207">
        <ele>176.53999999999999</ele>
        <time>2025-05-17T11:16:23Z</time>
      </trkpt>
      <trkpt lat="43.702477030456066" lon="5.348646976053715">
        <ele>176.53999999999999</ele>
        <time>2025-05-17T11:16:24Z</time>
      </trkpt>
      <trkpt lat="43.702329006046057" lon="5.348559971898794">
        <ele>176.53999999999999</ele>
        <time>2025-05-17T11:16:25Z</time>
      </trkpt>
      <trkpt lat="43.70216597802937" lon="5.34846399910748">
        <ele>176.53999999999999</ele>
        <time>2025-05-17T11:16:26Z</time>
      </trkpt>
      <trkpt lat="43.701990963891149" lon="5.348380012437701">
        <ele>176.06</ele>
        <time>2025-05-17T11:16:27Z</time>
      </trkpt>
      <trkpt lat="43.701803963631392" lon="5.348298037424684">
        <ele>176.06</ele>
        <time>2025-05-17T11:16:28Z</time>
      </trkpt>
      <trkpt lat="43.701609000563622" lon="5.348213966935873">
        <ele>176.06</ele>
        <time>2025-05-17T11:16:29Z</time>
      </trkpt>
      <trkpt lat="43.700168989598751" lon="5.347609966993332">
        <ele>177.02000000000001</ele>
        <time>2025-05-17T11:16:36Z</time>
      </trkpt>
      <trkpt lat="43.698195973411202" lon="5.346569018438458">
        <ele>179.41999999999999</ele>
        <time>2025-05-17T11:16:46Z</time>
      </trkpt>
      <trkpt lat="43.696087002754211" lon="5.34509003162384">
        <ele>184.22999999999999</ele>
        <time>2025-05-17T11:16:57Z</time>
      </trkpt>
      <trkpt lat="43.695043036714196" lon="5.344125023111701">
        <ele>188.08000000000001</ele>
        <time>2025-05-17T11:17:03Z</time>
      </trkpt>
      <trkpt lat="43.694848995655775" lon="5.344041958451271">
        <ele>188.56</ele>
        <time>2025-05-17T11:17:04Z</time>
      </trkpt>
      <trkpt lat="43.694650009274483" lon="5.343971969559789">
        <ele>189.52000000000001</ele>
        <time>2025-05-17T11:17:05Z</time>
      </trkpt>
      <trkpt lat="43.691645013168454" lon="5.342980977147818">
        <ele>198.65000000000001</ele>
        <time>2025-05-17T11:17:20Z</time>
      </trkpt>
      <trkpt lat="43.689325992017984" lon="5.342157036066055">
        <ele>202.00999999999999</ele>
        <time>2025-05-17T11:17:32Z</time>
      </trkpt>
      <trkpt lat="43.687875000759959" lon="5.341177023947239">
        <ele>206.81999999999999</ele>
        <time>2025-05-17T11:17:40Z</time>
      </trkpt>
      <trkpt lat="43.687520027160645" lon="5.34098600037396">
        <ele>208.25999999999999</ele>
        <time>2025-05-17T11:17:42Z</time>
      </trkpt>
      <trkpt lat="43.687324980273843" lon="5.340930009260774">
        <ele>208.74000000000001</ele>
        <time>2025-05-17T11:17:43Z</time>
      </trkpt>
      <trkpt lat="43.687126999720931" lon="5.340874018147588">
        <ele>209.69999999999999</ele>
        <time>2025-05-17T11:17:44Z</time>
      </trkpt>
      <trkpt lat="43.686926001682878" lon="5.340881980955601">
        <ele>210.66999999999999</ele>
        <time>2025-05-17T11:17:45Z</time>
      </trkpt>
      <trkpt lat="43.686722991988063" lon="5.340915005654097">
        <ele>211.15000000000001</ele>
        <time>2025-05-17T11:17:46Z</time>
      </trkpt>
      <trkpt lat="43.686517970636487" lon="5.340949036180973">
        <ele>211.63</ele>
        <time>2025-05-17T11:17:47Z</time>
      </trkpt>
      <trkpt lat="43.68630800396204" lon="5.340983988717198">
        <ele>212.59</ele>
        <time>2025-05-17T11:17:48Z</time>
      </trkpt>
      <trkpt lat="43.686104994267225" lon="5.341038974002004">
        <ele>213.06999999999999</ele>
        <time>2025-05-17T11:17:49Z</time>
      </trkpt>
      <trkpt lat="43.685908019542694" lon="5.34113796427846">
        <ele>214.03</ele>
        <time>2025-05-17T11:17:50Z</time>
      </trkpt>
      <trkpt lat="43.684291988611221" lon="5.341985039412975">
        <ele>219.80000000000001</ele>
        <time>2025-05-17T11:17:58Z</time>
      </trkpt>
      <trkpt lat="43.682858012616634" lon="5.342601025477052">
        <ele>225.09</ele>
        <time>2025-05-17T11:18:05Z</time>
      </trkpt>
      <trkpt lat="43.681166041642427" lon="5.343254981562495">
        <ele>232.78</ele>
        <time>2025-05-17T11:18:14Z</time>
      </trkpt>
      <trkpt lat="43.680111011490226" lon="5.343663012608886">
        <ele>236.13999999999999</ele>
        <time>2025-05-17T11:18:20Z</time>
      </trkpt>
      <trkpt lat="43.678619032725692" lon="5.344254020601511">
        <ele>240.94999999999999</ele>
        <time>2025-05-17T11:18:27Z</time>
      </trkpt>
      <trkpt lat="43.677223026752472" lon="5.344943013042212">
        <ele>246.72</ele>
        <time>2025-05-17T11:18:35Z</time>
      </trkpt>
      <trkpt lat="43.676869980990887" lon="5.345344003289938">
        <ele>249.12</ele>
        <time>2025-05-17T11:18:38Z</time>
      </trkpt>
      <trkpt lat="43.676771996542811" lon="5.345511976629496">
        <ele>249.59999999999999</ele>
        <time>2025-05-17T11:18:39Z</time>
      </trkpt>
      <trkpt lat="43.676407970488071" lon="5.346317980438471">
        <ele>252.96000000000001</ele>
        <time>2025-05-17T11:18:43Z</time>
      </trkpt>
      <trkpt lat="43.676140001043677" lon="5.347250970080495">
        <ele>255.37</ele>
        <time>2025-05-17T11:18:47Z</time>
      </trkpt>
      <trkpt lat="43.676063977181911" lon="5.347483986988664">
        <ele>256.32999999999998</ele>
        <time>2025-05-17T11:18:48Z</time>
      </trkpt>
      <trkpt lat="43.675958029925823" lon="5.347695965319872">
        <ele>256.81</ele>
        <time>2025-05-17T11:18:49Z</time>
      </trkpt>
      <trkpt lat="43.675851998850703" lon="5.347909033298492">
        <ele>257.29000000000002</ele>
        <time>2025-05-17T11:18:50Z</time>
      </trkpt>
      <trkpt lat="43.675745967775583" lon="5.34812000580132">
        <ele>257.76999999999998</ele>
        <time>2025-05-17T11:18:51Z</time>
      </trkpt>
      <trkpt lat="43.674570992588997" lon="5.349361030384898">
        <ele>262.57999999999998</ele>
        <time>2025-05-17T11:18:59Z</time>
      </trkpt>
      <trkpt lat="43.674396984279156" lon="5.349503019824624">
        <ele>263.54000000000002</ele>
        <time>2025-05-17T11:19:00Z</time>
      </trkpt>
      <trkpt lat="43.673350000753999" lon="5.350462999194861">
        <ele>266.89999999999998</ele>
        <time>2025-05-17T11:19:06Z</time>
      </trkpt>
      <trkpt lat="43.67242899723351" lon="5.351687008515">
        <ele>268.82999999999998</ele>
        <time>2025-05-17T11:19:12Z</time>
      </trkpt>
      <trkpt lat="43.671936979517341" lon="5.352461999282241">
        <ele>270.26999999999998</ele>
        <time>2025-05-17T11:19:16Z</time>
      </trkpt>
      <trkpt lat="43.671773029491305" lon="5.35260901786387">
        <ele>270.75</ele>
        <time>2025-05-17T11:19:17Z</time>
      </trkpt>
      <trkpt lat="43.671597009524703" lon="5.352754024788737">
        <ele>270.75</ele>
        <time>2025-05-17T11:19:18Z</time>
      </trkpt>
      <trkpt lat="43.671417972072959" lon="5.352843040600419">
        <ele>271.23000000000002</ele>
        <time>2025-05-17T11:19:19Z</time>
      </trkpt>
      <trkpt lat="43.671244969591498" lon="5.352913029491901">
        <ele>271.23000000000002</ele>
        <time>2025-05-17T11:19:20Z</time>
      </trkpt>
      <trkpt lat="43.671065010130405" lon="5.352916968986392">
        <ele>271.70999999999998</ele>
        <time>2025-05-17T11:19:21Z</time>
      </trkpt>
      <trkpt lat="43.670878009870648" lon="5.352903977036476">
        <ele>272.19</ele>
        <time>2025-05-17T11:19:22Z</time>
      </trkpt>
      <trkpt lat="43.670680029317737" lon="5.352859972044826">
        <ele>272.67000000000002</ele>
        <time>2025-05-17T11:19:23Z</time>
      </trkpt>
      <trkpt lat="43.670480037108064" lon="5.352814961224794">
        <ele>273.63</ele>
        <time>2025-05-17T11:19:24Z</time>
      </trkpt>
      <trkpt lat="43.670290019363165" lon="5.352771962061524">
        <ele>274.58999999999997</ele>
        <time>2025-05-17T11:19:25Z</time>
      </trkpt>
      <trkpt lat="43.670075023546815" lon="5.352724017575383">
        <ele>275.56</ele>
        <time>2025-05-17T11:19:26Z</time>
      </trkpt>
      <trkpt lat="43.669923981651664" lon="5.352780008688569">
        <ele>276.04000000000002</ele>
        <time>2025-05-17T11:19:27Z</time>
      </trkpt>
      <trkpt lat="43.669747961685061" lon="5.352883022278547">
        <ele>277</ele>
        <time>2025-05-17T11:19:28Z</time>
      </trkpt>
      <trkpt lat="43.669566996395588" lon="5.352995004504919">
        <ele>278.44</ele>
        <time>2025-05-17T11:19:29Z</time>
      </trkpt>
      <trkpt lat="43.669389970600605" lon="5.353102963417769">
        <ele>278.92000000000002</ele>
        <time>2025-05-17T11:19:30Z</time>
      </trkpt>
      <trkpt lat="43.669223003089428" lon="5.353196002542973">
        <ele>279.39999999999998</ele>
        <time>2025-05-17T11:19:31Z</time>
      </trkpt>
      <trkpt lat="43.66903499700129" lon="5.353201031684876">
        <ele>279.88</ele>
        <time>2025-05-17T11:19:32Z</time>
      </trkpt>
      <trkpt lat="43.66883902810514" lon="5.353205977007747">
        <ele>280.36000000000001</ele>
        <time>2025-05-17T11:19:33Z</time>
      </trkpt>
      <trkpt lat="43.668309962376952" lon="5.353175969794393">
        <ele>282.27999999999997</ele>
        <time>2025-05-17T11:19:36Z</time>
      </trkpt>
      <trkpt lat="43.668168978765607" lon="5.353110004216433">
        <ele>282.27999999999997</ele>
        <time>2025-05-17T11:19:37Z</time>
      </trkpt>
      <trkpt lat="43.668054984882474" lon="5.352982012555003">
        <ele>281.80000000000001</ele>
        <time>2025-05-17T11:19:38Z</time>
      </trkpt>
      <trkpt lat="43.667934034019709" lon="5.352844968438149">
        <ele>281.31999999999999</ele>
        <time>2025-05-17T11:19:39Z</time>
      </trkpt>
      <trkpt lat="43.66780998185277" lon="5.352705996483564">
        <ele>281.31999999999999</ele>
        <time>2025-05-17T11:19:40Z</time>
      </trkpt>
      <trkpt lat="43.667693976312876" lon="5.352572975680232">
        <ele>281.31999999999999</ele>
        <time>2025-05-17T11:19:41Z</time>
      </trkpt>
      <trkpt lat="43.667553998529911" lon="5.35250298678875">
        <ele>281.80000000000001</ele>
        <time>2025-05-17T11:19:42Z</time>
      </trkpt>
      <trkpt lat="43.667393987998366" lon="5.352456970140338">
        <ele>282.27999999999997</ele>
        <time>2025-05-17T11:19:43Z</time>
      </trkpt>
      <trkpt lat="43.667226014658809" lon="5.352426040917635">
        <ele>283.25</ele>
        <time>2025-05-17T11:19:44Z</time>
      </trkpt>
      <trkpt lat="43.667054018005729" lon="5.35239796154201">
        <ele>283.73000000000002</ele>
        <time>2025-05-17T11:19:45Z</time>
      </trkpt>
      <trkpt lat="43.66673500277102" lon="5.352325038984418">
        <ele>284.69</ele>
        <time>2025-05-17T11:19:47Z</time>
      </trkpt>
      <trkpt lat="43.666612040251493" lon="5.352296959608793">
        <ele>285.64999999999998</ele>
        <time>2025-05-17T11:19:48Z</time>
      </trkpt>
      <trkpt lat="43.666522018611431" lon="5.352151030674577">
        <ele>286.13</ele>
        <time>2025-05-17T11:19:49Z</time>
      </trkpt>
      <trkpt lat="43.666440965607762" lon="5.351999988779426">
        <ele>286.13</ele>
        <time>2025-05-17T11:19:50Z</time>
      </trkpt>
      <trkpt lat="43.666358990594745" lon="5.351847019046545">
        <ele>286.61000000000001</ele>
        <time>2025-05-17T11:19:51Z</time>
      </trkpt>
      <trkpt lat="43.666276009753346" lon="5.351692037656903">
        <ele>286.61000000000001</ele>
        <time>2025-05-17T11:19:52Z</time>
      </trkpt>
      <trkpt lat="43.665859010070562" lon="5.350931966677308">
        <ele>288.05000000000001</ele>
        <time>2025-05-17T11:19:57Z</time>
      </trkpt>
      <trkpt lat="43.665775023400784" lon="5.350823001936078">
        <ele>289.00999999999999</ele>
        <time>2025-05-17T11:19:58Z</time>
      </trkpt>
      <trkpt lat="43.665691958740354" lon="5.350714959204197">
        <ele>289.49000000000001</ele>
        <time>2025-05-17T11:19:59Z</time>
      </trkpt>
      <trkpt lat="43.665607972070575" lon="5.350605994462967">
        <ele>290.45999999999998</ele>
        <time>2025-05-17T11:20:00Z</time>
      </trkpt>
      <trkpt lat="43.665513005107641" lon="5.350510021671653">
        <ele>290.94</ele>
        <time>2025-05-17T11:20:01Z</time>
      </trkpt>
      <trkpt lat="43.665418960154057" lon="5.350431986153126">
        <ele>291.89999999999998</ele>
        <time>2025-05-17T11:20:02Z</time>
      </trkpt>
      <trkpt lat="43.665327010676265" lon="5.35035596229136">
        <ele>292.38</ele>
        <time>2025-05-17T11:20:03Z</time>
      </trkpt>
      <trkpt lat="43.664341969415545" lon="5.349592035636306">
        <ele>300.06999999999999</ele>
        <time>2025-05-17T11:20:14Z</time>
      </trkpt>
      <trkpt lat="43.664186988025904" lon="5.349460020661354">
        <ele>301.99000000000001</ele>
        <time>2025-05-17T11:20:16Z</time>
      </trkpt>
      <trkpt lat="43.664068970829248" lon="5.349348960444331">
        <ele>303.43000000000001</ele>
        <time>2025-05-17T11:20:18Z</time>
      </trkpt>
      <trkpt lat="43.664021026343107" lon="5.349284000694752">
        <ele>303.91000000000003</ele>
        <time>2025-05-17T11:20:19Z</time>
      </trkpt>
      <trkpt lat="43.663974003866315" lon="5.349219040945172">
        <ele>304.38999999999999</ele>
        <time>2025-05-17T11:20:20Z</time>
      </trkpt>
      <trkpt lat="43.663924969732761" lon="5.349150979891419">
        <ele>304.38999999999999</ele>
        <time>2025-05-17T11:20:21Z</time>
      </trkpt>
      <trkpt lat="43.663863027468324" lon="5.349105969071388">
        <ele>304.88</ele>
        <time>2025-05-17T11:20:22Z</time>
      </trkpt>
      <trkpt lat="43.663795972242951" lon="5.349064981564879">
        <ele>305.36000000000001</ele>
        <time>2025-05-17T11:20:23Z</time>
      </trkpt>
      <trkpt lat="43.663729000836611" lon="5.34902298822999">
        <ele>305.83999999999997</ele>
        <time>2025-05-17T11:20:24Z</time>
      </trkpt>
      <trkpt lat="43.663376960903406" lon="5.348873035982251">
        <ele>307.75999999999999</ele>
        <time>2025-05-17T11:20:29Z</time>
      </trkpt>
      <trkpt lat="43.663306972011924" lon="5.348855014890432">
        <ele>308.24000000000001</ele>
        <time>2025-05-17T11:20:30Z</time>
      </trkpt>
      <trkpt lat="43.663171017542481" lon="5.348879992961884">
        <ele>310.16000000000003</ele>
        <time>2025-05-17T11:20:32Z</time>
      </trkpt>
      <trkpt lat="43.663123995065689" lon="5.348945958539844">
        <ele>311.12</ele>
        <time>2025-05-17T11:20:33Z</time>
      </trkpt>
      <trkpt lat="43.663069009780884" lon="5.349021982401609">
        <ele>312.08999999999997</ele>
        <time>2025-05-17T11:20:34Z</time>
      </trkpt>
      <trkpt lat="43.662657039240003" lon="5.349670993164182">
        <ele>315.44999999999999</ele>
        <time>2025-05-17T11:20:42Z</time>
      </trkpt>
      <trkpt lat="43.662367025390267" lon="5.350254960358143">
        <ele>317.37</ele>
        <time>2025-05-17T11:20:48Z</time>
      </trkpt>
      <trkpt lat="43.662322014570236" lon="5.350340958684683">
        <ele>317.85000000000002</ele>
        <time>2025-05-17T11:20:49Z</time>
      </trkpt>
      <trkpt lat="43.662237022072077" lon="5.350509015843272">
        <ele>318.32999999999998</ele>
        <time>2025-05-17T11:20:51Z</time>
      </trkpt>
      <trkpt lat="43.662198968231678" lon="5.350589985027909">
        <ele>318.81</ele>
        <time>2025-05-17T11:20:52Z</time>
      </trkpt>
      <trkpt lat="43.662082962691784" lon="5.350836999714375">
        <ele>318.81</ele>
        <time>2025-05-17T11:20:55Z</time>
      </trkpt>
      <trkpt lat="43.662044992670417" lon="5.350918974727392">
        <ele>318.81</ele>
        <time>2025-05-17T11:20:56Z</time>
      </trkpt>
      <trkpt lat="43.661435963585973" lon="5.351907033473253">
        <ele>320.25999999999999</ele>
        <time>2025-05-17T11:21:07Z</time>
      </trkpt>
      <trkpt lat="43.661363963037729" lon="5.352015998214483">
        <ele>320.25999999999999</ele>
        <time>2025-05-17T11:21:08Z</time>
      </trkpt>
      <trkpt lat="43.660529963672161" lon="5.352934990078211">
        <ele>319.30000000000001</ele>
        <time>2025-05-17T11:21:18Z</time>
      </trkpt>
      <trkpt lat="43.659637961536646" lon="5.353797990828753">
        <ele>317.85000000000002</ele>
        <time>2025-05-17T11:21:27Z</time>
      </trkpt>
      <trkpt lat="43.658631965517998" lon="5.354688987135887">
        <ele>318.32999999999998</ele>
        <time>2025-05-17T11:21:37Z</time>
      </trkpt>
      <trkpt lat="43.658313034102321" lon="5.354938013479114">
        <ele>318.32999999999998</ele>
        <time>2025-05-17T11:21:40Z</time>
      </trkpt>
      <trkpt lat="43.65820499137044" lon="5.354997022077441">
        <ele>318.32999999999998</ele>
        <time>2025-05-17T11:21:41Z</time>
      </trkpt>
      <trkpt lat="43.658089991658926" lon="5.355024011805654">
        <ele>318.32999999999998</ele>
        <time>2025-05-17T11:21:42Z</time>
      </trkpt>
      <trkpt lat="43.657973986119032" lon="5.354983024299145">
        <ele>318.32999999999998</ele>
        <time>2025-05-17T11:21:43Z</time>
      </trkpt>
      <trkpt lat="43.657844988629222" lon="5.355019988492131">
        <ele>318.32999999999998</ele>
        <time>2025-05-17T11:21:44Z</time>
      </trkpt>
      <trkpt lat="43.657758990302682" lon="5.355104980990291">
        <ele>318.32999999999998</ele>
        <time>2025-05-17T11:21:45Z</time>
      </trkpt>
      <trkpt lat="43.657678021118045" lon="5.355249987915158">
        <ele>318.32999999999998</ele>
        <time>2025-05-17T11:21:46Z</time>
      </trkpt>
      <trkpt lat="43.657599985599518" lon="5.35536096431315">
        <ele>318.32999999999998</ele>
        <time>2025-05-17T11:21:47Z</time>
      </trkpt>
      <trkpt lat="43.657493032515049" lon="5.355446962639689">
        <ele>318.32999999999998</ele>
        <time>2025-05-17T11:21:48Z</time>
      </trkpt>
      <trkpt lat="43.657371997833252" lon="5.355491973459721">
        <ele>318.32999999999998</ele>
        <time>2025-05-17T11:21:49Z</time>
      </trkpt>
      <trkpt lat="43.657247023656964" lon="5.355491973459721">
        <ele>318.32999999999998</ele>
        <time>2025-05-17T11:21:50Z</time>
      </trkpt>
      <trkpt lat="43.657117020338774" lon="5.355491973459721">
        <ele>318.32999999999998</ele>
        <time>2025-05-17T11:21:51Z</time>
      </trkpt>
      <trkpt lat="43.656017985194921" lon="5.355512006208301">
        <ele>316.88999999999999</ele>
        <time>2025-05-17T11:21:58Z</time>
      </trkpt>
      <trkpt lat="43.654192993417382" lon="5.356007963418961">
        <ele>314.49000000000001</ele>
        <time>2025-05-17T11:22:08Z</time>
      </trkpt>
      <trkpt lat="43.653790997341275" lon="5.356179960072041">
        <ele>315.44999999999999</ele>
        <time>2025-05-17T11:22:10Z</time>
      </trkpt>
      <trkpt lat="43.652133978903294" lon="5.357232978567481">
        <ele>318.32999999999998</ele>
        <time>2025-05-17T11:22:19Z</time>
      </trkpt>
      <trkpt lat="43.650928996503353" lon="5.357641009613872">
        <ele>320.25999999999999</ele>
        <time>2025-05-17T11:22:25Z</time>
      </trkpt>
      <trkpt lat="43.648447031155229" lon="5.35806798376143">
        <ele>325.54000000000002</ele>
        <time>2025-05-17T11:22:37Z</time>
      </trkpt>
      <trkpt lat="43.645918965339661" lon="5.358499987050891">
        <ele>327.47000000000003</ele>
        <time>2025-05-17T11:22:49Z</time>
      </trkpt>
      <trkpt lat="43.644262030720711" lon="5.359092000871897">
        <ele>325.54000000000002</ele>
        <time>2025-05-17T11:22:57Z</time>
      </trkpt>
      <trkpt lat="43.643372040241957" lon="5.359824998304248">
        <ele>325.06</ele>
        <time>2025-05-17T11:23:02Z</time>
      </trkpt>
      <trkpt lat="43.643212029710412" lon="5.359919965267181">
        <ele>325.06</ele>
        <time>2025-05-17T11:23:03Z</time>
      </trkpt>
      <trkpt lat="43.643049001693726" lon="5.359978973865509">
        <ele>325.06</ele>
        <time>2025-05-17T11:23:04Z</time>
      </trkpt>
      <trkpt lat="43.642868036404252" lon="5.359975034371018">
        <ele>325.54000000000002</ele>
        <time>2025-05-17T11:23:05Z</time>
      </trkpt>
      <trkpt lat="43.642695033922791" lon="5.359921976923943">
        <ele>325.54000000000002</ele>
        <time>2025-05-17T11:23:06Z</time>
      </trkpt>
      <trkpt lat="43.642526976764202" lon="5.359832961112261">
        <ele>326.01999999999998</ele>
        <time>2025-05-17T11:23:07Z</time>
      </trkpt>
      <trkpt lat="43.642365038394928" lon="5.35970002412796">
        <ele>326.5</ele>
        <time>2025-05-17T11:23:08Z</time>
      </trkpt>
      <trkpt lat="43.64219999872148" lon="5.359563985839486">
        <ele>326.99000000000001</ele>
        <time>2025-05-17T11:23:09Z</time>
      </trkpt>
      <trkpt lat="43.641263991594315" lon="5.35892503336072">
        <ele>327.47000000000003</ele>
        <time>2025-05-17T11:23:15Z</time>
      </trkpt>
      <trkpt lat="43.640720006078482" lon="5.35884196870029">
        <ele>327.94999999999999</ele>
        <time>2025-05-17T11:23:18Z</time>
      </trkpt>
      <trkpt lat="43.640538034960628" lon="5.35886300727725">
        <ele>328.43000000000001</ele>
        <time>2025-05-17T11:23:19Z</time>
      </trkpt>
      <trkpt lat="43.640183983370662" lon="5.358954034745693">
        <ele>328.91000000000003</ele>
        <time>2025-05-17T11:23:21Z</time>
      </trkpt>
      <trkpt lat="43.640002012252808" lon="5.359000973403454">
        <ele>329.38999999999999</ele>
        <time>2025-05-17T11:23:22Z</time>
      </trkpt>
      <trkpt lat="43.639822974801064" lon="5.359046990051866">
        <ele>329.87</ele>
        <time>2025-05-17T11:23:23Z</time>
      </trkpt>
      <trkpt lat="43.639133982360363" lon="5.35955099388957">
        <ele>332.75</ele>
        <time>2025-05-17T11:23:27Z</time>
      </trkpt>
      <trkpt lat="43.63770604133606" lon="5.360853960737586">
        <ele>338.04000000000002</ele>
        <time>2025-05-17T11:23:36Z</time>
      </trkpt>
      <trkpt lat="43.637159960344434" lon="5.361059987917543">
        <ele>339.95999999999998</ele>
        <time>2025-05-17T11:23:39Z</time>
      </trkpt>
      <trkpt lat="43.636971032246947" lon="5.361080020666122">
        <ele>340.44</ele>
        <time>2025-05-17T11:23:40Z</time>
      </trkpt>
      <trkpt lat="43.636793000623584" lon="5.361083038151264">
        <ele>340.92000000000002</ele>
        <time>2025-05-17T11:23:41Z</time>
      </trkpt>
      <trkpt lat="43.636608012020588" lon="5.36105596460402">
        <ele>341.41000000000003</ele>
        <time>2025-05-17T11:23:42Z</time>
      </trkpt>
      <trkpt lat="43.63641900010407" lon="5.361028974875808">
        <ele>342.37</ele>
        <time>2025-05-17T11:23:43Z</time>
      </trkpt>
      <trkpt lat="43.636235017329454" lon="5.360986981540918">
        <ele>342.85000000000002</ele>
        <time>2025-05-17T11:23:44Z</time>
      </trkpt>
      <trkpt lat="43.634215984493494" lon="5.360488006845117">
        <ele>350.54000000000002</ele>
        <time>2025-05-17T11:23:55Z</time>
      </trkpt>
      <trkpt lat="43.633149974048138" lon="5.360051980242133">
        <ele>353.42000000000002</ele>
        <time>2025-05-17T11:24:01Z</time>
      </trkpt>
      <trkpt lat="43.632987029850483" lon="5.35991501994431">
        <ele>353.42000000000002</ele>
        <time>2025-05-17T11:24:02Z</time>
      </trkpt>
      <trkpt lat="43.632841017097235" lon="5.359754003584385">
        <ele>353.42000000000002</ele>
        <time>2025-05-17T11:24:03Z</time>
      </trkpt>
      <trkpt lat="43.631424978375435" lon="5.357963964343071">
        <ele>353.42000000000002</ele>
        <time>2025-05-17T11:24:13Z</time>
      </trkpt>
      <trkpt lat="43.630228964611888" lon="5.35641398280859">
        <ele>359.19</ele>
        <time>2025-05-17T11:24:22Z</time>
      </trkpt>
      <trkpt lat="43.630112959071994" lon="5.356208961457014">
        <ele>359.67000000000002</ele>
        <time>2025-05-17T11:24:23Z</time>
      </trkpt>
      <trkpt lat="43.630012040957808" lon="5.355982985347509">
        <ele>359.67000000000002</ele>
        <time>2025-05-17T11:24:24Z</time>
      </trkpt>
      <trkpt lat="43.629946997389197" lon="5.355735970661044">
        <ele>360.14999999999998</ele>
        <time>2025-05-17T11:24:25Z</time>
      </trkpt>
      <trkpt lat="43.629882037639618" lon="5.355487028136849">
        <ele>360.63</ele>
        <time>2025-05-17T11:24:26Z</time>
      </trkpt>
      <trkpt lat="43.629816994071007" lon="5.355235990136862">
        <ele>360.63</ele>
        <time>2025-05-17T11:24:27Z</time>
      </trkpt>
      <trkpt lat="43.629769971594214" lon="5.354971960186958">
        <ele>360.63</ele>
        <time>2025-05-17T11:24:28Z</time>
      </trkpt>
      <trkpt lat="43.629274014383554" lon="5.352219007909298">
        <ele>363.51999999999998</ele>
        <time>2025-05-17T11:24:38Z</time>
      </trkpt>
      <trkpt lat="43.629106041043997" lon="5.351430019363761">
        <ele>364</ele>
        <time>2025-05-17T11:24:41Z</time>
      </trkpt>
      <trkpt lat="43.629016019403934" lon="5.351191973313689">
        <ele>364.48000000000002</ele>
        <time>2025-05-17T11:24:42Z</time>
      </trkpt>
      <trkpt lat="43.628917029127479" lon="5.350957028567791">
        <ele>364.48000000000002</ele>
        <time>2025-05-17T11:24:43Z</time>
      </trkpt>
      <trkpt lat="43.628820972517133" lon="5.350727029144764">
        <ele>364.95999999999998</ele>
        <time>2025-05-17T11:24:44Z</time>
      </trkpt>
      <trkpt lat="43.628698009997606" lon="5.350531982257962">
        <ele>365.44</ele>
        <time>2025-05-17T11:24:45Z</time>
      </trkpt>
      <trkpt lat="43.628574041649699" lon="5.350340958684683">
        <ele>365.92000000000002</ele>
        <time>2025-05-17T11:24:46Z</time>
      </trkpt>
      <trkpt lat="43.628442026674747" lon="5.350171979516745">
        <ele>366.39999999999998</ele>
        <time>2025-05-17T11:24:47Z</time>
      </trkpt>
      <trkpt lat="43.628286961466074" lon="5.350041976198554">
        <ele>366.88</ele>
        <time>2025-05-17T11:24:48Z</time>
      </trkpt>
      <trkpt lat="43.628136003389955" lon="5.349914990365505">
        <ele>366.88</ele>
        <time>2025-05-17T11:24:49Z</time>
      </trkpt>
      <trkpt lat="43.627979010343552" lon="5.349810970947146">
        <ele>367.36000000000001</ele>
        <time>2025-05-17T11:24:50Z</time>
      </trkpt>
      <trkpt lat="43.627807013690472" lon="5.349711980670691">
        <ele>367.36000000000001</ele>
        <time>2025-05-17T11:24:51Z</time>
      </trkpt>
      <trkpt lat="43.626529024913907" lon="5.349390031769872">
        <ele>367.83999999999997</ele>
        <time>2025-05-17T11:24:58Z</time>
      </trkpt>
      <trkpt lat="43.624960016459227" lon="5.349297998473048">
        <ele>364.48000000000002</ele>
        <time>2025-05-17T11:25:06Z</time>
      </trkpt>
      <trkpt lat="43.624438997358084" lon="5.349380979314446">
        <ele>363.04000000000002</ele>
        <time>2025-05-17T11:25:09Z</time>
      </trkpt>
      <trkpt lat="43.624330032616854" lon="5.349491033703089">
        <ele>363.04000000000002</ele>
        <time>2025-05-17T11:25:10Z</time>
      </trkpt>
      <trkpt lat="43.624231964349747" lon="5.349636962637305">
        <ele>363.04000000000002</ele>
        <time>2025-05-17T11:25:11Z</time>
      </trkpt>
      <trkpt lat="43.62417203374207" lon="5.349748022854328">
        <ele>363.04000000000002</ele>
        <time>2025-05-17T11:25:12Z</time>
      </trkpt>
      <trkpt lat="43.624133979901671" lon="5.349940974265337">
        <ele>363.04000000000002</ele>
        <time>2025-05-17T11:25:13Z</time>
      </trkpt>
      <trkpt lat="43.624093998223543" lon="5.350152030587196">
        <ele>363.04000000000002</ele>
        <time>2025-05-17T11:25:14Z</time>
      </trkpt>
      <trkpt lat="43.624052004888654" lon="5.350363003090024">
        <ele>362.55000000000001</ele>
        <time>2025-05-17T11:25:15Z</time>
      </trkpt>
      <trkpt lat="43.623984027653933" lon="5.350586967542768">
        <ele>362.06999999999999</ele>
        <time>2025-05-17T11:25:16Z</time>
      </trkpt>
      <trkpt lat="43.623881014063954" lon="5.350772961974144">
        <ele>362.06999999999999</ele>
        <time>2025-05-17T11:25:17Z</time>
      </trkpt>
      <trkpt lat="43.623790992423892" lon="5.350877987220883">
        <ele>361.58999999999997</ele>
        <time>2025-05-17T11:25:18Z</time>
      </trkpt>
      <trkpt lat="43.62361497245729" lon="5.350957028567791">
        <ele>361.58999999999997</ele>
        <time>2025-05-17T11:25:19Z</time>
      </trkpt>
      <trkpt lat="43.623473988845944" lon="5.350961973890662">
        <ele>361.58999999999997</ele>
        <time>2025-05-17T11:25:20Z</time>
      </trkpt>
      <trkpt lat="43.623327976092696" lon="5.350958034396172">
        <ele>361.11000000000001</ele>
        <time>2025-05-17T11:25:21Z</time>
      </trkpt>
      <trkpt lat="43.623169977217913" lon="5.35095501691103">
        <ele>361.11000000000001</ele>
        <time>2025-05-17T11:25:22Z</time>
      </trkpt>
      <trkpt lat="43.622527001425624" lon="5.350982006639242">
        <ele>359.67000000000002</ele>
        <time>2025-05-17T11:25:26Z</time>
      </trkpt>
      <trkpt lat="43.62239196896553" lon="5.351045960560441">
        <ele>359.67000000000002</ele>
        <time>2025-05-17T11:25:27Z</time>
      </trkpt>
      <trkpt lat="43.622264983132482" lon="5.351104969158769">
        <ele>359.19</ele>
        <time>2025-05-17T11:25:28Z</time>
      </trkpt>
      <trkpt lat="43.622190970927477" lon="5.351251987740398">
        <ele>358.70999999999998</ele>
        <time>2025-05-17T11:25:29Z</time>
      </trkpt>
      <trkpt lat="43.622121987864375" lon="5.351425996050239">
        <ele>358.23000000000002</ele>
        <time>2025-05-17T11:25:30Z</time>
      </trkpt>
      <trkpt lat="43.622101033106446" lon="5.35162297077477">
        <ele>357.26999999999998</ele>
        <time>2025-05-17T11:25:31Z</time>
      </trkpt>
      <trkpt lat="43.622113019227982" lon="5.351831009611487">
        <ele>357.26999999999998</ele>
        <time>2025-05-17T11:25:32Z</time>
      </trkpt>
      <trkpt lat="43.622136991471052" lon="5.352054974064231">
        <ele>356.79000000000002</ele>
        <time>2025-05-17T11:25:33Z</time>
      </trkpt>
      <trkpt lat="43.622160041704774" lon="5.352272987365723">
        <ele>356.31</ele>
        <time>2025-05-17T11:25:34Z</time>
      </trkpt>
      <trkpt lat="43.622297002002597" lon="5.353227015584707">
        <ele>356.31</ele>
        <time>2025-05-17T11:25:38Z</time>
      </trkpt>
      <trkpt lat="43.622292978689075" lon="5.353706041350961">
        <ele>355.82999999999998</ele>
        <time>2025-05-17T11:25:40Z</time>
      </trkpt>
      <trkpt lat="43.622244028374553" lon="5.353934029117227">
        <ele>355.82999999999998</ele>
        <time>2025-05-17T11:25:41Z</time>
      </trkpt>
      <trkpt lat="43.622166998684406" lon="5.354136032983661">
        <ele>356.31</ele>
        <time>2025-05-17T11:25:42Z</time>
      </trkpt>
      <trkpt lat="43.622060967609286" lon="5.354312974959612">
        <ele>356.31</ele>
        <time>2025-05-17T11:25:43Z</time>
      </trkpt>
      <trkpt lat="43.621953008696437" lon="5.354493018239737">
        <ele>356.31</ele>
        <time>2025-05-17T11:25:44Z</time>
      </trkpt>
      <trkpt lat="43.621811019256711" lon="5.354602988809347">
        <ele>356.79000000000002</ele>
        <time>2025-05-17T11:25:45Z</time>
      </trkpt>
      <trkpt lat="43.621668023988605" lon="5.354708014056087">
        <ele>356.79000000000002</ele>
        <time>2025-05-17T11:25:46Z</time>
      </trkpt>
      <trkpt lat="43.621529974043369" lon="5.354741038754582">
        <ele>356.31</ele>
        <time>2025-05-17T11:25:47Z</time>
      </trkpt>
      <trkpt lat="43.621392007917166" lon="5.354724023491144">
        <ele>356.31</ele>
        <time>2025-05-17T11:25:48Z</time>
      </trkpt>
      <trkpt lat="43.621249012649059" lon="5.354659985750914">
        <ele>356.31</ele>
        <time>2025-05-17T11:25:49Z</time>
      </trkpt>
      <trkpt lat="43.621116997674108" lon="5.354549009352922">
        <ele>355.82999999999998</ele>
        <time>2025-05-17T11:25:50Z</time>
      </trkpt>
      <trkpt lat="43.620975008234382" lon="5.354425041005015">
        <ele>355.33999999999997</ele>
        <time>2025-05-17T11:25:51Z</time>
      </trkpt>
      <trkpt lat="43.620836036279798" lon="5.354303000494838">
        <ele>354.86000000000001</ele>
        <time>2025-05-17T11:25:52Z</time>
      </trkpt>
      <trkpt lat="43.620702009648085" lon="5.354185989126563">
        <ele>353.42000000000002</ele>
        <time>2025-05-17T11:25:53Z</time>
      </trkpt>
      <trkpt lat="43.620550967752934" lon="5.354053974151611">
        <ele>352.45999999999998</ele>
        <time>2025-05-17T11:25:54Z</time>
      </trkpt>
      <trkpt lat="43.620400009676814" lon="5.354023966938257">
        <ele>351.5</ele>
        <time>2025-05-17T11:25:55Z</time>
      </trkpt>
      <trkpt lat="43.620235975831747" lon="5.353991026058793">
        <ele>351.01999999999998</ele>
        <time>2025-05-17T11:25:56Z</time>
      </trkpt>
      <trkpt lat="43.620075965300202" lon="5.354043999686837">
        <ele>350.54000000000002</ele>
        <time>2025-05-17T11:25:57Z</time>
      </trkpt>
      <trkpt lat="43.619918972253799" lon="5.354098984971643">
        <ele>349.57999999999998</ele>
        <time>2025-05-17T11:25:58Z</time>
      </trkpt>
      <trkpt lat="43.619782011955976" lon="5.354182971641421">
        <ele>349.10000000000002</ele>
        <time>2025-05-17T11:25:59Z</time>
      </trkpt>
      <trkpt lat="43.619637005031109" lon="5.354296965524554">
        <ele>348.62</ele>
        <time>2025-05-17T11:26:00Z</time>
      </trkpt>
      <trkpt lat="43.619501972571015" lon="5.35443602129817">
        <ele>348.13</ele>
        <time>2025-05-17T11:26:01Z</time>
      </trkpt>
      <trkpt lat="43.619376998394728" lon="5.354597959667444">
        <ele>347.64999999999998</ele>
        <time>2025-05-17T11:26:02Z</time>
      </trkpt>
      <trkpt lat="43.619279013946652" lon="5.354796024039388">
        <ele>346.69</ele>
        <time>2025-05-17T11:26:03Z</time>
      </trkpt>
      <trkpt lat="43.619184968993068" lon="5.355013031512499">
        <ele>345.73000000000002</ele>
        <time>2025-05-17T11:26:04Z</time>
      </trkpt>
      <trkpt lat="43.619092013686895" lon="5.35523003898561">
        <ele>344.76999999999998</ele>
        <time>2025-05-17T11:26:05Z</time>
      </trkpt>
      <trkpt lat="43.618995035067201" lon="5.355451991781592">
        <ele>343.81</ele>
        <time>2025-05-17T11:26:06Z</time>
      </trkpt>
      <trkpt lat="43.618425987660885" lon="5.356763005256653">
        <ele>335.63999999999999</ele>
        <time>2025-05-17T11:26:12Z</time>
      </trkpt>
      <trkpt lat="43.617826011031866" lon="5.357973016798496">
        <ele>329.38999999999999</ele>
        <time>2025-05-17T11:26:18Z</time>
      </trkpt>
      <trkpt lat="43.616744996979833" lon="5.359234996140003">
        <ele>323.62</ele>
        <time>2025-05-17T11:26:26Z</time>
      </trkpt>
      <trkpt lat="43.615606985986233" lon="5.360425980761647">
        <ele>319.77999999999997</ele>
        <time>2025-05-17T11:26:35Z</time>
      </trkpt>
      <trkpt lat="43.613962959498167" lon="5.362138990312815">
        <ele>317.85000000000002</ele>
        <time>2025-05-17T11:26:47Z</time>
      </trkpt>
      <trkpt lat="43.612543987110257" lon="5.363623006269336">
        <ele>315.93000000000001</ele>
        <time>2025-05-17T11:26:57Z</time>
      </trkpt>
      <trkpt lat="43.611272033303976" lon="5.364890014752746">
        <ele>316.41000000000003</ele>
        <time>2025-05-17T11:27:06Z</time>
      </trkpt>
      <trkpt lat="43.609995972365141" lon="5.365412039682269">
        <ele>313.52999999999997</ele>
        <time>2025-05-17T11:27:13Z</time>
      </trkpt>
      <trkpt lat="43.608002001419663" lon="5.365573978051543">
        <ele>310.63999999999999</ele>
        <time>2025-05-17T11:27:23Z</time>
      </trkpt>
      <trkpt lat="43.606517985463142" lon="5.36569501273334">
        <ele>308.72000000000003</ele>
        <time>2025-05-17T11:27:31Z</time>
      </trkpt>
      <trkpt lat="43.604686036705971" lon="5.365816969424486">
        <ele>302.94999999999999</ele>
        <time>2025-05-17T11:27:40Z</time>
      </trkpt>
      <trkpt lat="43.603086015209556" lon="5.365924006327987">
        <ele>297.18000000000001</ele>
        <time>2025-05-17T11:27:48Z</time>
      </trkpt>
      <trkpt lat="43.601379040628672" lon="5.366036994382739">
        <ele>293.33999999999997</ele>
        <time>2025-05-17T11:27:57Z</time>
      </trkpt>
      <trkpt lat="43.599611967802048" lon="5.36616800352931">
        <ele>290.45999999999998</ele>
        <time>2025-05-17T11:28:06Z</time>
      </trkpt>
      <trkpt lat="43.597451029345393" lon="5.36634000018239">
        <ele>294.30000000000001</ele>
        <time>2025-05-17T11:28:17Z</time>
      </trkpt>
      <trkpt lat="43.595516989007592" lon="5.366461034864187">
        <ele>298.63</ele>
        <time>2025-05-17T11:28:27Z</time>
      </trkpt>
      <trkpt lat="43.593660984188318" lon="5.366606041789055">
        <ele>293.81999999999999</ele>
        <time>2025-05-17T11:28:37Z</time>
      </trkpt>
      <trkpt lat="43.593107024207711" lon="5.366671001538634">
        <ele>291.89999999999998</ele>
        <time>2025-05-17T11:28:40Z</time>
      </trkpt>
      <trkpt lat="43.592932010069489" lon="5.366762029007077">
        <ele>291.42000000000002</ele>
        <time>2025-05-17T11:28:41Z</time>
      </trkpt>
      <trkpt lat="43.592758001759648" lon="5.366851966828108">
        <ele>290.45999999999998</ele>
        <time>2025-05-17T11:28:42Z</time>
      </trkpt>
      <trkpt lat="43.59187999740243" lon="5.367282964289188">
        <ele>287.08999999999997</ele>
        <time>2025-05-17T11:28:47Z</time>
      </trkpt>
      <trkpt lat="43.591141970828176" lon="5.367405004799366">
        <ele>284.69</ele>
        <time>2025-05-17T11:28:51Z</time>
      </trkpt>
      <trkpt lat="43.589286971837282" lon="5.367569038644433">
        <ele>283.73000000000002</ele>
        <time>2025-05-17T11:29:01Z</time>
      </trkpt>
      <trkpt lat="43.587888032197952" lon="5.368327014148235">
        <ele>281.31999999999999</ele>
        <time>2025-05-17T11:29:09Z</time>
      </trkpt>
      <trkpt lat="43.586840964853764" lon="5.369246006011963">
        <ele>275.06999999999999</ele>
        <time>2025-05-17T11:29:17Z</time>
      </trkpt>
      <trkpt lat="43.586706016212702" lon="5.369321024045348">
        <ele>274.58999999999997</ele>
        <time>2025-05-17T11:29:18Z</time>
      </trkpt>
      <trkpt lat="43.586648013442755" lon="5.369352959096432">
        <ele>274.11000000000001</ele>
        <time>2025-05-17T11:29:19Z</time>
      </trkpt>
      <trkpt lat="43.586606020107865" lon="5.369296967983246">
        <ele>273.63</ele>
        <time>2025-05-17T11:29:20Z</time>
      </trkpt>
      <trkpt lat="43.58655103482306" lon="5.369224967435002">
        <ele>272.67000000000002</ele>
        <time>2025-05-17T11:29:21Z</time>
      </trkpt>
      <trkpt lat="43.586509963497519" lon="5.369148021563888">
        <ele>272.19</ele>
        <time>2025-05-17T11:29:22Z</time>
      </trkpt>
      <trkpt lat="43.586451960727572" lon="5.36900301463902">
        <ele>271.70999999999998</ele>
        <time>2025-05-17T11:29:23Z</time>
      </trkpt>
      <trkpt lat="43.58638096600771" lon="5.368920033797622">
        <ele>271.23000000000002</ele>
        <time>2025-05-17T11:29:24Z</time>
      </trkpt>
      <trkpt lat="43.586264960467815" lon="5.368880974128842">
        <ele>271.23000000000002</ele>
        <time>2025-05-17T11:29:25Z</time>
      </trkpt>
      <trkpt lat="43.586160019040108" lon="5.368911987170577">
        <ele>271.23000000000002</ele>
        <time>2025-05-17T11:29:26Z</time>
      </trkpt>
      <trkpt lat="43.586068991571665" lon="5.368989016860724">
        <ele>271.23000000000002</ele>
        <time>2025-05-17T11:29:27Z</time>
      </trkpt>
      <trkpt lat="43.585956003516912" lon="5.369017012417316">
        <ele>270.75</ele>
        <time>2025-05-17T11:29:28Z</time>
      </trkpt>
      <trkpt lat="43.585836980491877" lon="5.36904601380229">
        <ele>270.26999999999998</ele>
        <time>2025-05-17T11:29:29Z</time>
      </trkpt>
      <trkpt lat="43.585727009922266" lon="5.369108961895108">
        <ele>269.79000000000002</ele>
        <time>2025-05-17T11:29:30Z</time>
      </trkpt>
      <trkpt lat="43.585646040737629" lon="5.369223961606622">
        <ele>269.31</ele>
        <time>2025-05-17T11:29:31Z</time>
      </trkpt>
      <trkpt lat="43.58558502048254" lon="5.369365029036999">
        <ele>268.82999999999998</ele>
        <time>2025-05-17T11:29:32Z</time>
      </trkpt>
      <trkpt lat="43.58552098274231" lon="5.369513975456357">
        <ele>268.35000000000002</ele>
        <time>2025-05-17T11:29:33Z</time>
      </trkpt>
      <trkpt lat="43.585418974980712" lon="5.369634004309773">
        <ele>268.35000000000002</ele>
        <time>2025-05-17T11:29:34Z</time>
      </trkpt>
      <trkpt lat="43.585307998582721" lon="5.369703993201256">
        <ele>267.86000000000001</ele>
        <time>2025-05-17T11:29:35Z</time>
      </trkpt>
      <trkpt lat="43.585195010527968" lon="5.369735006242991">
        <ele>267.86000000000001</ele>
        <time>2025-05-17T11:29:36Z</time>
      </trkpt>
      <trkpt lat="43.585066013038158" lon="5.369723020121455">
        <ele>267.38</ele>
        <time>2025-05-17T11:29:37Z</time>
      </trkpt>
      <trkpt lat="43.584924023598433" lon="5.36971103399992">
        <ele>266.89999999999998</ele>
        <time>2025-05-17T11:29:38Z</time>
      </trkpt>
      <trkpt lat="43.583891037851572" lon="5.369613971561194">
        <ele>263.54000000000002</ele>
        <time>2025-05-17T11:29:46Z</time>
      </trkpt>
      <trkpt lat="43.583641005679965" lon="5.369511041790247">
        <ele>262.57999999999998</ele>
        <time>2025-05-17T11:29:48Z</time>
      </trkpt>
      <trkpt lat="43.58354302123189" lon="5.369424037635326">
        <ele>262.57999999999998</ele>
        <time>2025-05-17T11:29:49Z</time>
      </trkpt>
      <trkpt lat="43.583463979884982" lon="5.369312977418304">
        <ele>262.10000000000002</ele>
        <time>2025-05-17T11:29:50Z</time>
      </trkpt>
      <trkpt lat="43.583401031792164" lon="5.369178028777242">
        <ele>261.62</ele>
        <time>2025-05-17T11:29:51Z</time>
      </trkpt>
      <trkpt lat="43.583337999880314" lon="5.369047019630671">
        <ele>260.64999999999998</ele>
        <time>2025-05-17T11:29:52Z</time>
      </trkpt>
      <trkpt lat="43.583301035687327" lon="5.368906036019325">
        <ele>260.17000000000002</ele>
        <time>2025-05-17T11:29:53Z</time>
      </trkpt>
      <trkpt lat="43.583301035687327" lon="5.368751976639032">
        <ele>259.69</ele>
        <time>2025-05-17T11:29:54Z</time>
      </trkpt>
      <trkpt lat="43.583301035687327" lon="5.36859598942101">
        <ele>259.20999999999998</ele>
        <time>2025-05-17T11:29:55Z</time>
      </trkpt>
      <trkpt lat="43.583301035687327" lon="5.368012022227049">
        <ele>258.73000000000002</ele>
        <time>2025-05-17T11:30:01Z</time>
      </trkpt>
      <trkpt lat="43.583301035687327" lon="5.367963993921876">
        <ele>258.25</ele>
        <time>2025-05-17T11:30:03Z</time>
      </trkpt>
      <trkpt lat="43.583262981846929" lon="5.367943961173296">
        <ele>257.76999999999998</ele>
        <time>2025-05-17T11:30:04Z</time>
      </trkpt>
      <trkpt lat="43.583172038197517" lon="5.367960976436734">
        <ele>256.81</ele>
        <time>2025-05-17T11:30:06Z</time>
      </trkpt>
      <trkpt lat="43.583129039034247" lon="5.367969023063779">
        <ele>255.84999999999999</ele>
        <time>2025-05-17T11:30:07Z</time>
      </trkpt>
      <trkpt lat="43.582956958562136" lon="5.368001963943243">
        <ele>253.93000000000001</ele>
        <time>2025-05-17T11:30:11Z</time>
      </trkpt>
      <trkpt lat="43.582700975239277" lon="5.368119981139898">
        <ele>251.52000000000001</ele>
        <time>2025-05-17T11:30:15Z</time>
      </trkpt>
      <trkpt lat="43.582627968862653" lon="5.368192987516522">
        <ele>251.03999999999999</ele>
        <time>2025-05-17T11:30:16Z</time>
      </trkpt>
      <trkpt lat="43.582572983577847" lon="5.368282003328204">
        <ele>250.56</ele>
        <time>2025-05-17T11:30:17Z</time>
      </trkpt>
      <trkpt lat="43.582533001899719" lon="5.368374036625028">
        <ele>251.03999999999999</ele>
        <time>2025-05-17T11:30:18Z</time>
      </trkpt>
      <trkpt lat="43.582494026049972" lon="5.368463974446058">
        <ele>251.52000000000001</ele>
        <time>2025-05-17T11:30:19Z</time>
      </trkpt>
      <trkpt lat="43.582459995523095" lon="5.368542009964585">
        <ele>252</ele>
        <time>2025-05-17T11:30:20Z</time>
      </trkpt>
      <trkpt lat="43.582425964996219" lon="5.368619961664081">
        <ele>252.47999999999999</ele>
        <time>2025-05-17T11:30:21Z</time>
      </trkpt>
      <trkpt lat="43.582171993330121" lon="5.369239971041679">
        <ele>254.41</ele>
        <time>2025-05-17T11:30:28Z</time>
      </trkpt>
      <trkpt lat="43.581819031387568" lon="5.370111018419266">
        <ele>254.41</ele>
        <time>2025-05-17T11:30:37Z</time>
      </trkpt>
      <trkpt lat="43.581777038052678" lon="5.370215037837625">
        <ele>254.41</ele>
        <time>2025-05-17T11:30:38Z</time>
      </trkpt>
      <trkpt lat="43.581691039726138" lon="5.370426010340452">
        <ele>254.88999999999999</ele>
        <time>2025-05-17T11:30:40Z</time>
      </trkpt>
      <trkpt lat="43.581650974228978" lon="5.370525000616908">
        <ele>255.37</ele>
        <time>2025-05-17T11:30:41Z</time>
      </trkpt>
      <trkpt lat="43.581143030896783" lon="5.371766025200486">
        <ele>257.76999999999998</ele>
        <time>2025-05-17T11:30:54Z</time>
      </trkpt>
      <trkpt lat="43.580904984846711" lon="5.372350998222828">
        <ele>258.25</ele>
        <time>2025-05-17T11:31:00Z</time>
      </trkpt>
      <trkpt lat="43.580544982105494" lon="5.373287005349994">
        <ele>261.62</ele>
        <time>2025-05-17T11:31:09Z</time>
      </trkpt>
      <trkpt lat="43.580210963264108" lon="5.374138019979">
        <ele>264.01999999999998</ele>
        <time>2025-05-17T11:31:15Z</time>
      </trkpt>
      <trkpt lat="43.580185985192657" lon="5.374262994155288">
        <ele>264.5</ele>
        <time>2025-05-17T11:31:16Z</time>
      </trkpt>
      <trkpt lat="43.579926984384656" lon="5.375569984316826">
        <ele>263.54000000000002</ele>
        <time>2025-05-17T11:31:27Z</time>
      </trkpt>
      <trkpt lat="43.579751970246434" lon="5.376423010602593">
        <ele>263.54000000000002</ele>
        <time>2025-05-17T11:31:35Z</time>
      </trkpt>
      <trkpt lat="43.579556001350284" lon="5.37738298997283">
        <ele>261.62</ele>
        <time>2025-05-17T11:31:43Z</time>
      </trkpt>
      <trkpt lat="43.579399008303881" lon="5.3781149815768">
        <ele>260.17000000000002</ele>
        <time>2025-05-17T11:31:49Z</time>
      </trkpt>
      <trkpt lat="43.57888100668788" lon="5.379172023385763">
        <ele>261.13999999999999</ele>
        <time>2025-05-17T11:31:59Z</time>
      </trkpt>
      <trkpt lat="43.578509017825127" lon="5.379900997504592">
        <ele>263.06</ele>
        <time>2025-05-17T11:32:09Z</time>
      </trkpt>
      <trkpt lat="43.577956985682249" lon="5.381018975749612">
        <ele>265.45999999999998</ele>
        <time>2025-05-17T11:32:20Z</time>
      </trkpt>
      <trkpt lat="43.577923960983753" lon="5.381133975461125">
        <ele>265.94</ele>
        <time>2025-05-17T11:32:21Z</time>
      </trkpt>
      <trkpt lat="43.57789303176105" lon="5.381241012364626">
        <ele>265.45999999999998</ele>
        <time>2025-05-17T11:32:22Z</time>
      </trkpt>
      <trkpt lat="43.577889008447528" lon="5.381361963227391">
        <ele>265.94</ele>
        <time>2025-05-17T11:32:23Z</time>
      </trkpt>
      <trkpt lat="43.577883979305625" lon="5.381485009565949">
        <ele>265.45999999999998</ele>
        <time>2025-05-17T11:32:24Z</time>
      </trkpt>
      <trkpt lat="43.577880039811134" lon="5.381607972085476">
        <ele>265.45999999999998</ele>
        <time>2025-05-17T11:32:25Z</time>
      </trkpt>
      <trkpt lat="43.57782899402082" lon="5.382552025839686">
        <ele>264.5</ele>
        <time>2025-05-17T11:32:32Z</time>
      </trkpt>
      <trkpt lat="43.577745007351041" lon="5.383072039112449">
        <ele>265.94</ele>
        <time>2025-05-17T11:32:37Z</time>
      </trkpt>
      <trkpt lat="43.577735032886267" lon="5.383130041882396">
        <ele>266.42000000000002</ele>
        <time>2025-05-17T11:32:38Z</time>
      </trkpt>
      <trkpt lat="43.577735032886267" lon="5.383130041882396">
        <ele>266.89999999999998</ele>
        <time>2025-05-17T11:32:46Z</time>
      </trkpt>
      <trkpt lat="43.577755987644196" lon="5.383423995226622">
        <ele>267.86000000000001</ele>
        <time>2025-05-17T11:32:51Z</time>
      </trkpt>
      <trkpt lat="43.577706031501293" lon="5.383510999381542">
        <ele>267.86000000000001</ele>
        <time>2025-05-17T11:32:52Z</time>
      </trkpt>
      <trkpt lat="43.57716497965157" lon="5.384396966546774">
        <ele>269.31</ele>
        <time>2025-05-17T11:32:59Z</time>
      </trkpt>
      <trkpt lat="43.576594004407525" lon="5.385322999209166">
        <ele>269.79000000000002</ele>
        <time>2025-05-17T11:33:05Z</time>
      </trkpt>
      <trkpt lat="43.575493963435292" lon="5.38713701069355">
        <ele>268.82999999999998</ele>
        <time>2025-05-17T11:33:16Z</time>
      </trkpt>
      <trkpt lat="43.574202982708812" lon="5.389260984957218">
        <ele>266.42000000000002</ele>
        <time>2025-05-17T11:33:27Z</time>
      </trkpt>
      <trkpt lat="43.573216013610363" lon="5.390896964818239">
        <ele>266.89999999999998</ele>
        <time>2025-05-17T11:33:37Z</time>
      </trkpt>
      <trkpt lat="43.572979979217052" lon="5.391182033345103">
        <ele>266.42000000000002</ele>
        <time>2025-05-17T11:33:40Z</time>
      </trkpt>
      <trkpt lat="43.572918958961964" lon="5.391255961731076">
        <ele>266.42000000000002</ele>
        <time>2025-05-17T11:33:41Z</time>
      </trkpt>
      <trkpt lat="43.572855005040765" lon="5.391333997249603">
        <ele>266.42000000000002</ele>
        <time>2025-05-17T11:33:42Z</time>
      </trkpt>
      <trkpt lat="43.572528026998043" lon="5.391504988074303">
        <ele>265.94</ele>
        <time>2025-05-17T11:33:46Z</time>
      </trkpt>
      <trkpt lat="43.572474969550967" lon="5.391612024977803">
        <ele>265.94</ele>
        <time>2025-05-17T11:33:47Z</time>
      </trkpt>
      <trkpt lat="43.572449991479516" lon="5.391718978062272">
        <ele>265.45999999999998</ele>
        <time>2025-05-17T11:33:48Z</time>
      </trkpt>
      <trkpt lat="43.572444040328264" lon="5.391886029392481">
        <ele>265.45999999999998</ele>
        <time>2025-05-17T11:33:49Z</time>
      </trkpt>
      <trkpt lat="43.572486033663154" lon="5.39197001606226">
        <ele>265.45999999999998</ele>
        <time>2025-05-17T11:33:50Z</time>
      </trkpt>
      <trkpt lat="43.57256599701941" lon="5.392070012167096">
        <ele>264.98000000000002</ele>
        <time>2025-05-17T11:33:51Z</time>
      </trkpt>
      <trkpt lat="43.572696000337601" lon="5.392214013263583">
        <ele>264.98000000000002</ele>
        <time>2025-05-17T11:33:52Z</time>
      </trkpt>
      <trkpt lat="43.572688037529588" lon="5.392361031845212">
        <ele>264.5</ele>
        <time>2025-05-17T11:33:53Z</time>
      </trkpt>
      <trkpt lat="43.572720978409052" lon="5.392842991277576">
        <ele>264.01999999999998</ele>
        <time>2025-05-17T11:33:56Z</time>
      </trkpt>
      <trkpt lat="43.572747968137264" lon="5.393029991537333">
        <ele>264.01999999999998</ele>
        <time>2025-05-17T11:33:57Z</time>
      </trkpt>
      <trkpt lat="43.57282399199903" lon="5.393186984583736">
        <ele>264.01999999999998</ele>
        <time>2025-05-17T11:33:58Z</time>
      </trkpt>
      <trkpt lat="43.572904039174318" lon="5.393352024257183">
        <ele>264.5</ele>
        <time>2025-05-17T11:33:59Z</time>
      </trkpt>
      <trkpt lat="43.572986014187336" lon="5.393521003425121">
        <ele>264.5</ele>
        <time>2025-05-17T11:34:00Z</time>
      </trkpt>
      <trkpt lat="43.573197992518544" lon="5.394072029739618">
        <ele>264.5</ele>
        <time>2025-05-17T11:34:03Z</time>
      </trkpt>
      <trkpt lat="43.573257001116872" lon="5.394266992807388">
        <ele>264.5</ele>
        <time>2025-05-17T11:34:04Z</time>
      </trkpt>
      <trkpt lat="43.573303017765284" lon="5.394462961703539">
        <ele>264.5</ele>
        <time>2025-05-17T11:34:05Z</time>
      </trkpt>
      <trkpt lat="43.573316009715199" lon="5.394876021891832">
        <ele>264.5</ele>
        <time>2025-05-17T11:34:07Z</time>
      </trkpt>
      <trkpt lat="43.573322966694832" lon="5.395080959424377">
        <ele>264.5</ele>
        <time>2025-05-17T11:34:08Z</time>
      </trkpt>
      <trkpt lat="43.573291031643748" lon="5.395294027402997">
        <ele>264.5</ele>
        <time>2025-05-17T11:34:09Z</time>
      </trkpt>
      <trkpt lat="43.573259012773633" lon="5.395511034876108">
        <ele>264.5</ele>
        <time>2025-05-17T11:34:10Z</time>
      </trkpt>
      <trkpt lat="43.573211990296841" lon="5.395723013207316">
        <ele>264.5</ele>
        <time>2025-05-17T11:34:11Z</time>
      </trkpt>
      <trkpt lat="43.573134038597345" lon="5.395923005416989">
        <ele>264.98000000000002</ele>
        <time>2025-05-17T11:34:12Z</time>
      </trkpt>
      <trkpt lat="43.573056003078818" lon="5.396122997626662">
        <ele>264.98000000000002</ele>
        <time>2025-05-17T11:34:13Z</time>
      </trkpt>
      <trkpt lat="43.57295298948884" lon="5.396307986229658">
        <ele>265.45999999999998</ele>
        <time>2025-05-17T11:34:14Z</time>
      </trkpt>
      <trkpt lat="43.572846036404371" lon="5.396490041166544">
        <ele>265.94</ele>
        <time>2025-05-17T11:34:15Z</time>
      </trkpt>
      <trkpt lat="43.572726007550955" lon="5.396660026162863">
        <ele>265.94</ele>
        <time>2025-05-17T11:34:16Z</time>
      </trkpt>
      <trkpt lat="43.570878971368074" lon="5.399321028962731">
        <ele>276.51999999999998</ele>
        <time>2025-05-17T11:34:31Z</time>
      </trkpt>
      <trkpt lat="43.569792006164789" lon="5.401428993791342">
        <ele>282.27999999999997</ele>
        <time>2025-05-17T11:34:42Z</time>
      </trkpt>
      <trkpt lat="43.568665981292725" lon="5.403513992205262">
        <ele>279.39999999999998</ele>
        <time>2025-05-17T11:34:52Z</time>
      </trkpt>
      <trkpt lat="43.567708013579249" lon="5.404313039034605">
        <ele>280.36000000000001</ele>
        <time>2025-05-17T11:34:58Z</time>
      </trkpt>
      <trkpt lat="43.567525036633015" lon="5.404373975470662">
        <ele>280.83999999999997</ele>
        <time>2025-05-17T11:34:59Z</time>
      </trkpt>
      <trkpt lat="43.566294992342591" lon="5.404469026252627">
        <ele>282.27999999999997</ele>
        <time>2025-05-17T11:35:06Z</time>
      </trkpt>
      <trkpt lat="43.565644975751638" lon="5.404287977144122">
        <ele>282.27999999999997</ele>
        <time>2025-05-17T11:35:12Z</time>
      </trkpt>
      <trkpt lat="43.565499968826771" lon="5.404240032657981">
        <ele>282.27999999999997</ele>
        <time>2025-05-17T11:35:14Z</time>
      </trkpt>
      <trkpt lat="43.565426040440798" lon="5.404028976336122">
        <ele>282.27999999999997</ele>
        <time>2025-05-17T11:35:15Z</time>
      </trkpt>
      <trkpt lat="43.565408019348979" lon="5.404001986607909">
        <ele>282.27999999999997</ele>
        <time>2025-05-17T11:35:16Z</time>
      </trkpt>
      <trkpt lat="43.565354039892554" lon="5.403921017423272">
        <ele>282.27999999999997</ele>
        <time>2025-05-17T11:35:17Z</time>
      </trkpt>
      <trkpt lat="43.56525999493897" lon="5.403899978846312">
        <ele>282.27999999999997</ele>
        <time>2025-05-17T11:35:18Z</time>
      </trkpt>
      <trkpt lat="43.565181037411094" lon="5.403899978846312">
        <ele>282.76999999999998</ele>
        <time>2025-05-17T11:35:19Z</time>
      </trkpt>
      <trkpt lat="43.565109958872199" lon="5.403944989666343">
        <ele>282.76999999999998</ele>
        <time>2025-05-17T11:35:20Z</time>
      </trkpt>
      <trkpt lat="43.565052961930633" lon="5.404013972729445">
        <ele>282.76999999999998</ele>
        <time>2025-05-17T11:35:21Z</time>
      </trkpt>
      <trkpt lat="43.565031001344323" lon="5.404103994369507">
        <ele>282.76999999999998</ele>
        <time>2025-05-17T11:35:22Z</time>
      </trkpt>
      <trkpt lat="43.565019015222788" lon="5.404200972989202">
        <ele>283.25</ele>
        <time>2025-05-17T11:35:23Z</time>
      </trkpt>
      <trkpt lat="43.565042987465858" lon="5.404299963265657">
        <ele>283.73000000000002</ele>
        <time>2025-05-17T11:35:24Z</time>
      </trkpt>
      <trkpt lat="43.565097972750664" lon="5.404386967420578">
        <ele>284.20999999999998</ele>
        <time>2025-05-17T11:35:25Z</time>
      </trkpt>
      <trkpt lat="43.565177014097571" lon="5.404417980462313">
        <ele>284.20999999999998</ele>
        <time>2025-05-17T11:35:26Z</time>
      </trkpt>
      <trkpt lat="43.565286984667182" lon="5.404514959082007">
        <ele>284.20999999999998</ele>
        <time>2025-05-17T11:35:27Z</time>
      </trkpt>
      <trkpt lat="43.565313974395394" lon="5.404644962400198">
        <ele>283.73000000000002</ele>
        <time>2025-05-17T11:35:28Z</time>
      </trkpt>
      <trkpt lat="43.565343981608748" lon="5.40479801595211">
        <ele>283.73000000000002</ele>
        <time>2025-05-17T11:35:29Z</time>
      </trkpt>
      <trkpt lat="43.565364014357328" lon="5.404957020655274">
        <ele>283.73000000000002</ele>
        <time>2025-05-17T11:35:30Z</time>
      </trkpt>
      <trkpt lat="43.5653689596802" lon="5.405110996216536">
        <ele>284.20999999999998</ele>
        <time>2025-05-17T11:35:31Z</time>
      </trkpt>
      <trkpt lat="43.565372982993722" lon="5.405245022848249">
        <ele>284.20999999999998</ele>
        <time>2025-05-17T11:35:32Z</time>
      </trkpt>
      <trkpt lat="43.565377006307244" lon="5.405368991196156">
        <ele>284.69</ele>
        <time>2025-05-17T11:35:33Z</time>
      </trkpt>
      <trkpt lat="43.565381029620767" lon="5.405492959544063">
        <ele>284.69</ele>
        <time>2025-05-17T11:35:34Z</time>
      </trkpt>
      <trkpt lat="43.565411036834121" lon="5.405612988397479">
        <ele>285.17000000000002</ele>
        <time>2025-05-17T11:35:35Z</time>
      </trkpt>
      <trkpt lat="43.565479014068842" lon="5.405710972845554">
        <ele>286.13</ele>
        <time>2025-05-17T11:35:36Z</time>
      </trkpt>
      <trkpt lat="43.565555037930608" lon="5.405804011970758">
        <ele>286.61000000000001</ele>
        <time>2025-05-17T11:35:37Z</time>
      </trkpt>
      <trkpt lat="43.565644975751638" lon="5.40587198920548">
        <ele>287.08999999999997</ele>
        <time>2025-05-17T11:35:38Z</time>
      </trkpt>
      <trkpt lat="43.565734997391701" lon="5.405939966440201">
        <ele>287.56999999999999</ele>
        <time>2025-05-17T11:35:39Z</time>
      </trkpt>
      <trkpt lat="43.566256016492844" lon="5.406343974173069">
        <ele>289.49000000000001</ele>
        <time>2025-05-17T11:35:45Z</time>
      </trkpt>
      <trkpt lat="43.566476963460445" lon="5.406528040766716">
        <ele>289.49000000000001</ele>
        <time>2025-05-17T11:35:48Z</time>
      </trkpt>
      <trkpt lat="43.566711992025375" lon="5.406724009662867">
        <ele>289.97000000000003</ele>
        <time>2025-05-17T11:35:51Z</time>
      </trkpt>
      <trkpt lat="43.566800002008677" lon="5.406797016039491">
        <ele>289.97000000000003</ele>
        <time>2025-05-17T11:35:52Z</time>
      </trkpt>
      <trkpt lat="43.566883988678455" lon="5.406858958303928">
        <ele>289.97000000000003</ele>
        <time>2025-05-17T11:35:53Z</time>
      </trkpt>
      <trkpt lat="43.567069983109832" lon="5.406993990764022">
        <ele>289.49000000000001</ele>
        <time>2025-05-17T11:35:55Z</time>
      </trkpt>
      <trkpt lat="43.567918986082077" lon="5.407614000141621">
        <ele>284.20999999999998</ele>
        <time>2025-05-17T11:36:04Z</time>
      </trkpt>
      <trkpt lat="43.568516029044986" lon="5.408041980117559">
        <ele>282.76999999999998</ele>
        <time>2025-05-17T11:36:10Z</time>
      </trkpt>
      <trkpt lat="43.568562967702746" lon="5.408084979280829">
        <ele>282.27999999999997</ele>
        <time>2025-05-17T11:36:11Z</time>
      </trkpt>
      <trkpt lat="43.568729013204575" lon="5.408240966498852">
        <ele>281.31999999999999</ele>
        <time>2025-05-17T11:36:13Z</time>
      </trkpt>
      <trkpt lat="43.568818029016256" lon="5.408325036987662">
        <ele>281.31999999999999</ele>
        <time>2025-05-17T11:36:14Z</time>
      </trkpt>
      <trkpt lat="43.568918025121093" lon="5.408375998958945">
        <ele>280.83999999999997</ele>
        <time>2025-05-17T11:36:15Z</time>
      </trkpt>
      <trkpt lat="43.569032019004226" lon="5.408399971202016">
        <ele>280.83999999999997</ele>
        <time>2025-05-17T11:36:16Z</time>
      </trkpt>
      <trkpt lat="43.569146012887359" lon="5.408425033092499">
        <ele>280.83999999999997</ele>
        <time>2025-05-17T11:36:17Z</time>
      </trkpt>
      <trkpt lat="43.569255983456969" lon="5.408447999507189">
        <ele>280.83999999999997</ele>
        <time>2025-05-17T11:36:18Z</time>
      </trkpt>
      <trkpt lat="43.569459998980165" lon="5.408492004498839">
        <ele>280.36000000000001</ele>
        <time>2025-05-17T11:36:19Z</time>
      </trkpt>
      <trkpt lat="43.56960198841989" lon="5.408525029197335">
        <ele>279.88</ele>
        <time>2025-05-17T11:36:21Z</time>
      </trkpt>
      <trkpt lat="43.569724028930068" lon="5.408553024753928">
        <ele>279.88</ele>
        <time>2025-05-17T11:36:22Z</time>
      </trkpt>
      <trkpt lat="43.569849003106356" lon="5.408582026138902">
        <ele>279.88</ele>
        <time>2025-05-17T11:36:23Z</time>
      </trkpt>
      <trkpt lat="43.569978000596166" lon="5.408611027523875">
        <ele>279.88</ele>
        <time>2025-05-17T11:36:24Z</time>
      </trkpt>
      <trkpt lat="43.570105992257595" lon="5.408638017252088">
        <ele>279.88</ele>
        <time>2025-05-17T11:36:25Z</time>
      </trkpt>
      <trkpt lat="43.570778975263238" lon="5.408811019733548">
        <ele>281.31999999999999</ele>
        <time>2025-05-17T11:36:30Z</time>
      </trkpt>
      <trkpt lat="43.570915013551712" lon="5.408848989754915">
        <ele>281.80000000000001</ele>
        <time>2025-05-17T11:36:31Z</time>
      </trkpt>
      <trkpt lat="43.571091033518314" lon="5.40890003554523">
        <ele>281.80000000000001</ele>
        <time>2025-05-17T11:36:32Z</time>
      </trkpt>
      <trkpt lat="43.571453969925642" lon="5.40898603387177">
        <ele>282.76999999999998</ele>
        <time>2025-05-17T11:36:35Z</time>
      </trkpt>
      <trkpt lat="43.571584979072213" lon="5.409019980579615">
        <ele>283.73000000000002</ele>
        <time>2025-05-17T11:36:36Z</time>
      </trkpt>
      <trkpt lat="43.572622993960977" lon="5.409306976944208">
        <ele>284.69</ele>
        <time>2025-05-17T11:36:44Z</time>
      </trkpt>
      <trkpt lat="43.573061032220721" lon="5.409379983320832">
        <ele>283.73000000000002</ele>
        <time>2025-05-17T11:36:49Z</time>
      </trkpt>
      <trkpt lat="43.573107970878482" lon="5.409392975270748">
        <ele>283.25</ele>
        <time>2025-05-17T11:36:50Z</time>
      </trkpt>
      <trkpt lat="43.573217019438744" lon="5.409386018291116">
        <ele>283.25</ele>
        <time>2025-05-17T11:36:51Z</time>
      </trkpt>
      <trkpt lat="43.573307041078806" lon="5.409379983320832">
        <ele>283.25</ele>
        <time>2025-05-17T11:36:52Z</time>
      </trkpt>
      <trkpt lat="43.573404019698501" lon="5.4093730263412">
        <ele>283.25</ele>
        <time>2025-05-17T11:36:53Z</time>
      </trkpt>
      <trkpt lat="43.573925038799644" lon="5.409362968057394">
        <ele>283.73000000000002</ele>
        <time>2025-05-17T11:36:58Z</time>
      </trkpt>
      <trkpt lat="43.574052024632692" lon="5.409372020512819">
        <ele>283.25</ele>
        <time>2025-05-17T11:36:59Z</time>
      </trkpt>
      <trkpt lat="43.574066022410989" lon="5.409369003027678">
        <ele>282.76999999999998</ele>
        <time>2025-05-17T11:37:00Z</time>
      </trkpt>
      <trkpt lat="43.574160989373922" lon="5.409337989985943">
        <ele>282.27999999999997</ele>
        <time>2025-05-17T11:37:01Z</time>
      </trkpt>
      <trkpt lat="43.574166018515825" lon="5.409297002479434">
        <ele>281.80000000000001</ele>
        <time>2025-05-17T11:37:02Z</time>
      </trkpt>
      <trkpt lat="43.574173981323838" lon="5.409227013587952">
        <ele>281.80000000000001</ele>
        <time>2025-05-17T11:37:03Z</time>
      </trkpt>
      <trkpt lat="43.574198959395289" lon="5.409022998064756">
        <ele>280.36000000000001</ele>
        <time>2025-05-17T11:37:05Z</time>
      </trkpt>
      <trkpt lat="43.574352012947202" lon="5.407746015116572">
        <ele>274.58999999999997</ele>
        <time>2025-05-17T11:37:13Z</time>
      </trkpt>
      <trkpt lat="43.574467012658715" lon="5.406790981069207">
        <ele>271.23000000000002</ele>
        <time>2025-05-17T11:37:18Z</time>
      </trkpt>
      <trkpt lat="43.574496014043689" lon="5.406637005507946">
        <ele>270.75</ele>
        <time>2025-05-17T11:37:19Z</time>
      </trkpt>
      <trkpt lat="43.574555022642016" lon="5.406513959169388">
        <ele>270.26999999999998</ele>
        <time>2025-05-17T11:37:20Z</time>
      </trkpt>
      <trkpt lat="43.574612019583583" lon="5.406394014135003">
        <ele>269.79000000000002</ele>
        <time>2025-05-17T11:37:21Z</time>
      </trkpt>
      <trkpt lat="43.574674967676401" lon="5.40625898167491">
        <ele>269.79000000000002</ele>
        <time>2025-05-17T11:37:22Z</time>
      </trkpt>
      <trkpt lat="43.575300006195903" lon="5.405147038400173">
        <ele>270.26999999999998</ele>
        <time>2025-05-17T11:37:30Z</time>
      </trkpt>
      <trkpt lat="43.575346022844315" lon="5.404977975413203">
        <ele>270.75</ele>
        <time>2025-05-17T11:37:31Z</time>
      </trkpt>
      <trkpt lat="43.575651040300727" lon="5.403881035745144">
        <ele>274.11000000000001</ele>
        <time>2025-05-17T11:37:39Z</time>
      </trkpt>
      <trkpt lat="43.575677024200559" lon="5.403785984963179">
        <ele>275.06999999999999</ele>
        <time>2025-05-17T11:37:41Z</time>
      </trkpt>
      <trkpt lat="43.575705019757152" lon="5.403685988858342">
        <ele>275.06999999999999</ele>
        <time>2025-05-17T11:37:42Z</time>
      </trkpt>
      <trkpt lat="43.57568297535181" lon="5.403632009401918">
        <ele>275.56</ele>
        <time>2025-05-17T11:37:43Z</time>
      </trkpt>
      <trkpt lat="43.575643999502063" lon="5.403534024953842">
        <ele>275.56</ele>
        <time>2025-05-17T11:37:44Z</time>
      </trkpt>
      <trkpt lat="43.57559597119689" lon="5.403413996100426">
        <ele>276.04000000000002</ele>
        <time>2025-05-17T11:37:45Z</time>
      </trkpt>
      <trkpt lat="43.575422968715429" lon="5.402981992810965">
        <ele>275.56</ele>
        <time>2025-05-17T11:37:48Z</time>
      </trkpt>
      <trkpt lat="43.575360020622611" lon="5.402814019471407">
        <ele>275.56</ele>
        <time>2025-05-17T11:37:49Z</time>
      </trkpt>
      <trkpt lat="43.57533797621727" lon="5.402614027261734">
        <ele>275.06999999999999</ele>
        <time>2025-05-17T11:37:50Z</time>
      </trkpt>
      <trkpt lat="43.575151981785893" lon="5.401297984644771">
        <ele>274.58999999999997</ele>
        <time>2025-05-17T11:37:56Z</time>
      </trkpt>
      <trkpt lat="43.574807988479733" lon="5.399850010871887">
        <ele>272.67000000000002</ele>
        <time>2025-05-17T11:38:02Z</time>
      </trkpt>
      <trkpt lat="43.574548987671733" lon="5.398141024634242">
        <ele>268.35000000000002</ele>
        <time>2025-05-17T11:38:09Z</time>
      </trkpt>
      <trkpt lat="43.574468018487096" lon="5.397932985797525">
        <ele>268.35000000000002</ele>
        <time>2025-05-17T11:38:10Z</time>
      </trkpt>
      <trkpt lat="43.574178004637361" lon="5.397082976996899">
        <ele>268.35000000000002</ele>
        <time>2025-05-17T11:38:14Z</time>
      </trkpt>
      <trkpt lat="43.573649022728205" lon="5.395255973562598">
        <ele>266.89999999999998</ele>
        <time>2025-05-17T11:38:22Z</time>
      </trkpt>
      <trkpt lat="43.573431009426713" lon="5.393166029825807">
        <ele>267.38</ele>
        <time>2025-05-17T11:38:31Z</time>
      </trkpt>
      <trkpt lat="43.573341993615031" lon="5.39259203709662">
        <ele>267.38</ele>
        <time>2025-05-17T11:38:34Z</time>
      </trkpt>
      <trkpt lat="43.573301006108522" lon="5.392442001029849">
        <ele>267.38</ele>
        <time>2025-05-17T11:38:35Z</time>
      </trkpt>
      <trkpt lat="43.573223976418376" lon="5.392321972176433">
        <ele>267.38</ele>
        <time>2025-05-17T11:38:36Z</time>
      </trkpt>
      <trkpt lat="43.573159016668797" lon="5.392219964414835">
        <ele>267.38</ele>
        <time>2025-05-17T11:38:37Z</time>
      </trkpt>
      <trkpt lat="43.573103025555611" lon="5.392133966088295">
        <ele>267.38</ele>
        <time>2025-05-17T11:38:38Z</time>
      </trkpt>
      <trkpt lat="43.573053991422057" lon="5.392060037702322">
        <ele>267.38</ele>
        <time>2025-05-17T11:38:39Z</time>
      </trkpt>
      <trkpt lat="43.573005963116884" lon="5.391988037154079">
        <ele>267.38</ele>
        <time>2025-05-17T11:38:40Z</time>
      </trkpt>
      <trkpt lat="43.572959024459124" lon="5.391917964443564">
        <ele>267.38</ele>
        <time>2025-05-17T11:38:41Z</time>
      </trkpt>
      <trkpt lat="43.572942009195685" lon="5.391801036894321">
        <ele>267.86000000000001</ele>
        <time>2025-05-17T11:38:42Z</time>
      </trkpt>
      <trkpt lat="43.572948966175318" lon="5.391686959192157">
        <ele>268.35000000000002</ele>
        <time>2025-05-17T11:38:43Z</time>
      </trkpt>
      <trkpt lat="43.572957012802362" lon="5.391558967530727">
        <ele>268.35000000000002</ele>
        <time>2025-05-17T11:38:44Z</time>
      </trkpt>
      <trkpt lat="43.573001017794013" lon="5.391432987526059">
        <ele>268.82999999999998</ele>
        <time>2025-05-17T11:38:45Z</time>
      </trkpt>
      <trkpt lat="43.573054997250438" lon="5.391297033056617">
        <ele>268.82999999999998</ele>
        <time>2025-05-17T11:38:46Z</time>
      </trkpt>
      <trkpt lat="43.573110988363624" lon="5.391157977283001">
        <ele>268.82999999999998</ele>
        <time>2025-05-17T11:38:47Z</time>
      </trkpt>
      <trkpt lat="43.573169996961951" lon="5.391010036692023">
        <ele>268.82999999999998</ele>
        <time>2025-05-17T11:38:48Z</time>
      </trkpt>
      <trkpt lat="43.574001984670758" lon="5.389592992141843">
        <ele>268.82999999999998</ele>
        <time>2025-05-17T11:38:56Z</time>
      </trkpt>
      <trkpt lat="43.575219959020615" lon="5.38758896291256">
        <ele>269.31</ele>
        <time>2025-05-17T11:39:07Z</time>
      </trkpt>
      <trkpt lat="43.576203994452953" lon="5.385966980829835">
        <ele>270.26999999999998</ele>
        <time>2025-05-17T11:39:17Z</time>
      </trkpt>
      <trkpt lat="43.57754903845489" lon="5.383772011846304">
        <ele>271.70999999999998</ele>
        <time>2025-05-17T11:39:30Z</time>
      </trkpt>
      <trkpt lat="43.578487979248166" lon="5.382205015048385">
        <ele>272.19</ele>
        <time>2025-05-17T11:39:40Z</time>
      </trkpt>
      <trkpt lat="43.579826988279819" lon="5.379981966689229">
        <ele>268.35000000000002</ele>
        <time>2025-05-17T11:39:53Z</time>
      </trkpt>
      <trkpt lat="43.580841030925512" lon="5.378308016806841">
        <ele>265.45999999999998</ele>
        <time>2025-05-17T11:40:03Z</time>
      </trkpt>
      <trkpt lat="43.582137962803245" lon="5.376182030886412">
        <ele>263.06</ele>
        <time>2025-05-17T11:40:15Z</time>
      </trkpt>
      <trkpt lat="43.583555007353425" lon="5.373843982815743">
        <ele>263.54000000000002</ele>
        <time>2025-05-17T11:40:29Z</time>
      </trkpt>
      <trkpt lat="43.584650019183755" lon="5.372002981603146">
        <ele>265.94</ele>
        <time>2025-05-17T11:40:41Z</time>
      </trkpt>
      <trkpt lat="43.585747964680195" lon="5.370182013139129">
        <ele>267.38</ele>
        <time>2025-05-17T11:40:53Z</time>
      </trkpt>
      <trkpt lat="43.585988022387028" lon="5.369853023439646">
        <ele>267.38</ele>
        <time>2025-05-17T11:40:58Z</time>
      </trkpt>
      <trkpt lat="43.586172005161643" lon="5.369530990719795">
        <ele>266.89999999999998</ele>
        <time>2025-05-17T11:41:08Z</time>
      </trkpt>
      <trkpt lat="43.586236964911222" lon="5.369525039568543">
        <ele>266.89999999999998</ele>
        <time>2025-05-17T11:41:09Z</time>
      </trkpt>
      <trkpt lat="43.586325980722904" lon="5.369525039568543">
        <ele>266.89999999999998</ele>
        <time>2025-05-17T11:41:10Z</time>
      </trkpt>
      <trkpt lat="43.586387000977993" lon="5.36947600543499">
        <ele>266.89999999999998</ele>
        <time>2025-05-17T11:41:11Z</time>
      </trkpt>
      <trkpt lat="43.586455984041095" lon="5.369372991845012">
        <ele>266.42000000000002</ele>
        <time>2025-05-17T11:41:12Z</time>
      </trkpt>
      <trkpt lat="43.586489008739591" lon="5.369270984083414">
        <ele>266.42000000000002</ele>
        <time>2025-05-17T11:41:13Z</time>
      </trkpt>
      <trkpt lat="43.586503006517887" lon="5.369123965501785">
        <ele>266.89999999999998</ele>
        <time>2025-05-17T11:41:14Z</time>
      </trkpt>
      <trkpt lat="43.586476016789675" lon="5.369031010195613">
        <ele>266.89999999999998</ele>
        <time>2025-05-17T11:41:15Z</time>
      </trkpt>
      <trkpt lat="43.586400998756289" lon="5.368944006040692">
        <ele>267.38</ele>
        <time>2025-05-17T11:41:16Z</time>
      </trkpt>
      <trkpt lat="43.586325980722904" lon="5.368880974128842">
        <ele>267.38</ele>
        <time>2025-05-17T11:41:17Z</time>
      </trkpt>
      <trkpt lat="43.586238976567984" lon="5.368880974128842">
        <ele>267.38</ele>
        <time>2025-05-17T11:41:18Z</time>
      </trkpt>
      <trkpt lat="43.586155995726585" lon="5.368916010484099">
        <ele>267.38</ele>
        <time>2025-05-17T11:41:19Z</time>
      </trkpt>
      <trkpt lat="43.586075026541948" lon="5.36898298189044">
        <ele>267.38</ele>
        <time>2025-05-17T11:41:20Z</time>
      </trkpt>
      <trkpt lat="43.586030015721917" lon="5.369091024622321">
        <ele>267.38</ele>
        <time>2025-05-17T11:41:21Z</time>
      </trkpt>
      <trkpt lat="43.586004031822085" lon="5.369160007685423">
        <ele>267.38</ele>
        <time>2025-05-17T11:41:22Z</time>
      </trkpt>
      <trkpt lat="43.586048036813736" lon="5.369301997125149">
        <ele>267.38</ele>
        <time>2025-05-17T11:41:23Z</time>
      </trkpt>
      <trkpt lat="43.586042001843452" lon="5.369530990719795">
        <ele>267.38</ele>
        <time>2025-05-17T11:41:24Z</time>
      </trkpt>
      <trkpt lat="43.585983999073505" lon="5.369641967117786">
        <ele>267.38</ele>
        <time>2025-05-17T11:41:25Z</time>
      </trkpt>
      <trkpt lat="43.585918033495545" lon="5.369768030941486">
        <ele>266.89999999999998</ele>
        <time>2025-05-17T11:41:26Z</time>
      </trkpt>
      <trkpt lat="43.585853995755315" lon="5.369889987632632">
        <ele>266.89999999999998</ele>
        <time>2025-05-17T11:41:27Z</time>
      </trkpt>
      <trkpt lat="43.585066013038158" lon="5.3713249694556">
        <ele>265.45999999999998</ele>
        <time>2025-05-17T11:41:36Z</time>
      </trkpt>
      <trkpt lat="43.584409961476922" lon="5.372425010427833">
        <ele>265.45999999999998</ele>
        <time>2025-05-17T11:41:42Z</time>
      </trkpt>
      <trkpt lat="43.583132978528738" lon="5.374534986913204">
        <ele>263.54000000000002</ele>
        <time>2025-05-17T11:41:52Z</time>
      </trkpt>
      <trkpt lat="43.581792963668704" lon="5.376742025837302">
        <ele>264.01999999999998</ele>
        <time>2025-05-17T11:42:03Z</time>
      </trkpt>
      <trkpt lat="43.580868020653725" lon="5.37826300598681">
        <ele>265.45999999999998</ele>
        <time>2025-05-17T11:42:11Z</time>
      </trkpt>
      <trkpt lat="43.579219970852137" lon="5.380973964929581">
        <ele>269.31</ele>
        <time>2025-05-17T11:42:25Z</time>
      </trkpt>
      <trkpt lat="43.577698990702629" lon="5.383522985503078">
        <ele>270.26999999999998</ele>
        <time>2025-05-17T11:42:38Z</time>
      </trkpt>
      <trkpt lat="43.57581197284162" lon="5.386612974107266">
        <ele>270.75</ele>
        <time>2025-05-17T11:42:54Z</time>
      </trkpt>
      <trkpt lat="43.57406803406775" lon="5.389482015743852">
        <ele>269.79000000000002</ele>
        <time>2025-05-17T11:43:08Z</time>
      </trkpt>
      <trkpt lat="43.572895992547274" lon="5.391284041106701">
        <ele>269.31</ele>
        <time>2025-05-17T11:43:18Z</time>
      </trkpt>
      <trkpt lat="43.572819968685508" lon="5.391374984756112">
        <ele>269.31</ele>
        <time>2025-05-17T11:43:19Z</time>
      </trkpt>
      <trkpt lat="43.572725001722574" lon="5.391389988362789">
        <ele>269.31</ele>
        <time>2025-05-17T11:43:20Z</time>
      </trkpt>
      <trkpt lat="43.572602961212397" lon="5.391405997797847">
        <ele>269.31</ele>
        <time>2025-05-17T11:43:21Z</time>
      </trkpt>
      <trkpt lat="43.572541018947959" lon="5.391488978639245">
        <ele>270.26999999999998</ele>
        <time>2025-05-17T11:43:22Z</time>
      </trkpt>
      <trkpt lat="43.57247899286449" lon="5.391591992229223">
        <ele>271.23000000000002</ele>
        <time>2025-05-17T11:43:23Z</time>
      </trkpt>
      <trkpt lat="43.572455020621419" lon="5.391697017475963">
        <ele>271.70999999999998</ele>
        <time>2025-05-17T11:43:24Z</time>
      </trkpt>
      <trkpt lat="43.572431970387697" lon="5.391797013580799">
        <ele>272.19</ele>
        <time>2025-05-17T11:43:25Z</time>
      </trkpt>
      <trkpt lat="43.572470024228096" lon="5.391936991363764">
        <ele>272.19</ele>
        <time>2025-05-17T11:43:26Z</time>
      </trkpt>
      <trkpt lat="43.572531966492534" lon="5.392027013003826">
        <ele>272.19</ele>
        <time>2025-05-17T11:43:27Z</time>
      </trkpt>
      <trkpt lat="43.5725889634341" lon="5.392086021602154">
        <ele>272.19</ele>
        <time>2025-05-17T11:43:28Z</time>
      </trkpt>
      <trkpt lat="43.572653001174331" lon="5.392117034643889">
        <ele>271.70999999999998</ele>
        <time>2025-05-17T11:43:29Z</time>
      </trkpt>
      <trkpt lat="43.572701029479504" lon="5.392141006886959">
        <ele>271.23000000000002</ele>
        <time>2025-05-17T11:43:30Z</time>
      </trkpt>
      <trkpt lat="43.572775041684508" lon="5.392088033258915">
        <ele>270.75</ele>
        <time>2025-05-17T11:43:31Z</time>
      </trkpt>
      <trkpt lat="43.572900015860796" lon="5.392055008560419">
        <ele>270.75</ele>
        <time>2025-05-17T11:43:32Z</time>
      </trkpt>
      <trkpt lat="43.572985008358955" lon="5.392089961096644">
        <ele>270.75</ele>
        <time>2025-05-17T11:43:33Z</time>
      </trkpt>
      <trkpt lat="43.573077963665128" lon="5.392129020765424">
        <ele>270.75</ele>
        <time>2025-05-17T11:43:34Z</time>
      </trkpt>
      <trkpt lat="43.573174020275474" lon="5.392243014648557">
        <ele>270.26999999999998</ele>
        <time>2025-05-17T11:43:35Z</time>
      </trkpt>
      <trkpt lat="43.573258006945252" lon="5.392374023795128">
        <ele>269.79000000000002</ele>
        <time>2025-05-17T11:43:36Z</time>
      </trkpt>
      <trkpt lat="43.573332019150257" lon="5.39255197159946">
        <ele>269.31</ele>
        <time>2025-05-17T11:43:37Z</time>
      </trkpt>
      <trkpt lat="43.573376024141908" lon="5.392756992951036">
        <ele>268.35000000000002</ele>
        <time>2025-05-17T11:43:38Z</time>
      </trkpt>
      <trkpt lat="43.573406031355262" lon="5.39298003539443">
        <ele>268.35000000000002</ele>
        <time>2025-05-17T11:43:39Z</time>
      </trkpt>
      <trkpt lat="43.573437966406345" lon="5.39321699179709">
        <ele>267.86000000000001</ele>
        <time>2025-05-17T11:43:40Z</time>
      </trkpt>
      <trkpt lat="43.573602000251412" lon="5.395103003829718">
        <ele>266.42000000000002</ele>
        <time>2025-05-17T11:43:47Z</time>
      </trkpt>
      <trkpt lat="43.573682969436049" lon="5.395368961617351">
        <ele>266.42000000000002</ele>
        <time>2025-05-17T11:43:48Z</time>
      </trkpt>
      <trkpt lat="43.573759999126196" lon="5.395619999617338">
        <ele>266.42000000000002</ele>
        <time>2025-05-17T11:43:49Z</time>
      </trkpt>
      <trkpt lat="43.573834011331201" lon="5.395861985161901">
        <ele>265.94</ele>
        <time>2025-05-17T11:43:50Z</time>
      </trkpt>
      <trkpt lat="43.573905006051064" lon="5.396092990413308">
        <ele>265.45999999999998</ele>
        <time>2025-05-17T11:43:51Z</time>
      </trkpt>
      <trkpt lat="43.574296021834016" lon="5.397501988336444">
        <ele>264.98000000000002</ele>
        <time>2025-05-17T11:43:57Z</time>
      </trkpt>
      <trkpt lat="43.574471035972238" lon="5.39794203825295">
        <ele>265.94</ele>
        <time>2025-05-17T11:43:59Z</time>
      </trkpt>
      <trkpt lat="43.574554016813636" lon="5.398163991048932">
        <ele>265.94</ele>
        <time>2025-05-17T11:44:00Z</time>
      </trkpt>
      <trkpt lat="43.57460699044168" lon="5.398403964936733">
        <ele>266.42000000000002</ele>
        <time>2025-05-17T11:44:01Z</time>
      </trkpt>
      <trkpt lat="43.574648983776569" lon="5.398648967966437">
        <ele>266.42000000000002</ele>
        <time>2025-05-17T11:44:02Z</time>
      </trkpt>
      <trkpt lat="43.574683014303446" lon="5.398903023451567">
        <ele>266.89999999999998</ele>
        <time>2025-05-17T11:44:03Z</time>
      </trkpt>
      <trkpt lat="43.575066989287734" lon="5.400956002995372">
        <ele>272.19</ele>
        <time>2025-05-17T11:44:11Z</time>
      </trkpt>
      <trkpt lat="43.575263964012265" lon="5.401915982365608">
        <ele>273.14999999999998</ele>
        <time>2025-05-17T11:44:15Z</time>
      </trkpt>
      <trkpt lat="43.575291037559509" lon="5.402168026193976">
        <ele>273.63</ele>
        <time>2025-05-17T11:44:16Z</time>
      </trkpt>
      <trkpt lat="43.575339987874031" lon="5.402625007554889">
        <ele>274.11000000000001</ele>
        <time>2025-05-17T11:44:18Z</time>
      </trkpt>
      <trkpt lat="43.575361026450992" lon="5.402827011421323">
        <ele>274.58999999999997</ele>
        <time>2025-05-17T11:44:19Z</time>
      </trkpt>
      <trkpt lat="43.575436966493726" lon="5.403016023337841">
        <ele>275.06999999999999</ele>
        <time>2025-05-17T11:44:20Z</time>
      </trkpt>
      <trkpt lat="43.576350007206202" lon="5.405191965401173">
        <ele>280.36000000000001</ele>
        <time>2025-05-17T11:44:31Z</time>
      </trkpt>
      <trkpt lat="43.577114017680287" lon="5.407112007960677">
        <ele>282.27999999999997</ele>
        <time>2025-05-17T11:44:39Z</time>
      </trkpt>
      <trkpt lat="43.57718501240015" lon="5.40739799849689">
        <ele>282.27999999999997</ele>
        <time>2025-05-17T11:44:40Z</time>
      </trkpt>
      <trkpt lat="43.577203033491969" lon="5.407660016790032">
        <ele>282.27999999999997</ele>
        <time>2025-05-17T11:44:41Z</time>
      </trkpt>
      <trkpt lat="43.577221976593137" lon="5.407947013154626">
        <ele>282.27999999999997</ele>
        <time>2025-05-17T11:44:42Z</time>
      </trkpt>
      <trkpt lat="43.577239997684956" lon="5.408222023397684">
        <ele>282.27999999999997</ele>
        <time>2025-05-17T11:44:43Z</time>
      </trkpt>
      <trkpt lat="43.577212002128363" lon="5.408737007528544">
        <ele>281.80000000000001</ele>
        <time>2025-05-17T11:44:45Z</time>
      </trkpt>
      <trkpt lat="43.577187024056911" lon="5.40898603387177">
        <ele>281.31999999999999</ele>
        <time>2025-05-17T11:44:46Z</time>
      </trkpt>
      <trkpt lat="43.576853005215526" lon="5.41051397100091">
        <ele>279.88</ele>
        <time>2025-05-17T11:44:53Z</time>
      </trkpt>
      <trkpt lat="43.576546981930733" lon="5.411889022216201">
        <ele>285.17000000000002</ele>
        <time>2025-05-17T11:45:02Z</time>
      </trkpt>
      <trkpt lat="43.576060999184847" lon="5.413421988487244">
        <ele>289.97000000000003</ele>
        <time>2025-05-17T11:45:12Z</time>
      </trkpt>
      <trkpt lat="43.575713988393545" lon="5.414306027814746">
        <ele>289.97000000000003</ele>
        <time>2025-05-17T11:45:18Z</time>
      </trkpt>
      <trkpt lat="43.575650034472346" lon="5.414613978937268">
        <ele>289.97000000000003</ele>
        <time>2025-05-17T11:45:20Z</time>
      </trkpt>
      <trkpt lat="43.575220964848995" lon="5.416848007589579">
        <ele>291.89999999999998</ele>
        <time>2025-05-17T11:45:34Z</time>
      </trkpt>
      <trkpt lat="43.575080987066031" lon="5.417833970859647">
        <ele>293.33999999999997</ele>
        <time>2025-05-17T11:45:41Z</time>
      </trkpt>
      <trkpt lat="43.57507998123765" lon="5.417942013591528">
        <ele>293.33999999999997</ele>
        <time>2025-05-17T11:45:42Z</time>
      </trkpt>
      <trkpt lat="43.575078975409269" lon="5.418048966675997">
        <ele>292.86000000000001</ele>
        <time>2025-05-17T11:45:43Z</time>
      </trkpt>
      <trkpt lat="43.575076963752508" lon="5.418158015236259">
        <ele>292.86000000000001</ele>
        <time>2025-05-17T11:45:44Z</time>
      </trkpt>
      <trkpt lat="43.575076041743159" lon="5.418262034654617">
        <ele>292.38</ele>
        <time>2025-05-17T11:45:45Z</time>
      </trkpt>
      <trkpt lat="43.575075035914779" lon="5.418370999395847">
        <ele>292.38</ele>
        <time>2025-05-17T11:45:46Z</time>
      </trkpt>
      <trkpt lat="43.575073024258018" lon="5.418493039906025">
        <ele>291.89999999999998</ele>
        <time>2025-05-17T11:45:47Z</time>
      </trkpt>
      <trkpt lat="43.575071012601256" lon="5.418635029345751">
        <ele>291.89999999999998</ele>
        <time>2025-05-17T11:45:48Z</time>
      </trkpt>
      <trkpt lat="43.575021978467703" lon="5.42026799172163">
        <ele>290.45999999999998</ele>
        <time>2025-05-17T11:45:58Z</time>
      </trkpt>
      <trkpt lat="43.574932040646672" lon="5.421453025192022">
        <ele>289.97000000000003</ele>
        <time>2025-05-17T11:46:06Z</time>
      </trkpt>
      <trkpt lat="43.574932040646672" lon="5.421532988548279">
        <ele>289.97000000000003</ele>
        <time>2025-05-17T11:46:07Z</time>
      </trkpt>
      <trkpt lat="43.574932040646672" lon="5.421594008803368">
        <ele>290.45999999999998</ele>
        <time>2025-05-17T11:46:08Z</time>
      </trkpt>
      <trkpt lat="43.574880994856358" lon="5.421717977151275">
        <ele>289.97000000000003</ele>
        <time>2025-05-17T11:46:09Z</time>
      </trkpt>
      <trkpt lat="43.574825003743172" lon="5.421773968264461">
        <ele>289.97000000000003</ele>
        <time>2025-05-17T11:46:10Z</time>
      </trkpt>
      <trkpt lat="43.574737999588251" lon="5.422003967687488">
        <ele>289.97000000000003</ele>
        <time>2025-05-17T11:46:12Z</time>
      </trkpt>
      <trkpt lat="43.574662981554866" lon="5.422069011256099">
        <ele>289.97000000000003</ele>
        <time>2025-05-17T11:46:13Z</time>
      </trkpt>
      <trkpt lat="43.574592992663383" lon="5.422130031511188">
        <ele>290.45999999999998</ele>
        <time>2025-05-17T11:46:14Z</time>
      </trkpt>
      <trkpt lat="43.574404986575246" lon="5.422301022335887">
        <ele>290.94</ele>
        <time>2025-05-17T11:46:17Z</time>
      </trkpt>
      <trkpt lat="43.574343966320157" lon="5.422362964600325">
        <ele>291.42000000000002</ele>
        <time>2025-05-17T11:46:18Z</time>
      </trkpt>
      <trkpt lat="43.574282024055719" lon="5.422422979027033">
        <ele>291.42000000000002</ele>
        <time>2025-05-17T11:46:19Z</time>
      </trkpt>
      <trkpt lat="43.573576016351581" lon="5.422980040311813">
        <ele>293.33999999999997</ele>
        <time>2025-05-17T11:46:28Z</time>
      </trkpt>
      <trkpt lat="43.57277998700738" lon="5.423434004187584">
        <ele>293.81999999999999</ele>
        <time>2025-05-17T11:46:35Z</time>
      </trkpt>
      <trkpt lat="43.571117017418146" lon="5.424229027703404">
        <ele>294.30000000000001</ele>
        <time>2025-05-17T11:46:46Z</time>
      </trkpt>
      <trkpt lat="43.56925799511373" lon="5.42516796849668">
        <ele>299.58999999999997</ele>
        <time>2025-05-17T11:46:57Z</time>
      </trkpt>
      <trkpt lat="43.568006996065378" lon="5.426129959523678">
        <ele>305.83999999999997</ele>
        <time>2025-05-17T11:47:06Z</time>
      </trkpt>
      <trkpt lat="43.566466988995671" lon="5.42724902741611">
        <ele>306.80000000000001</ele>
        <time>2025-05-17T11:47:16Z</time>
      </trkpt>
      <trkpt lat="43.564667981117964" lon="5.428587030619383">
        <ele>304.88</ele>
        <time>2025-05-17T11:47:28Z</time>
      </trkpt>
      <trkpt lat="43.563677994534373" lon="5.429562013596296">
        <ele>306.31999999999999</ele>
        <time>2025-05-17T11:47:35Z</time>
      </trkpt>
      <trkpt lat="43.563542040064931" lon="5.429691011086106">
        <ele>306.80000000000001</ele>
        <time>2025-05-17T11:47:36Z</time>
      </trkpt>
      <trkpt lat="43.562169000506401" lon="5.430714022368193">
        <ele>310.16000000000003</ele>
        <time>2025-05-17T11:47:45Z</time>
      </trkpt>
      <trkpt lat="43.562023993581533" lon="5.430855005979538">
        <ele>310.63999999999999</ele>
        <time>2025-05-17T11:47:46Z</time>
      </trkpt>
      <trkpt lat="43.56188703328371" lon="5.430989032611251">
        <ele>311.12</ele>
        <time>2025-05-17T11:47:47Z</time>
      </trkpt>
      <trkpt lat="43.561753006651998" lon="5.431119035929442">
        <ele>311.60000000000002</ele>
        <time>2025-05-17T11:47:48Z</time>
      </trkpt>
      <trkpt lat="43.561623003333807" lon="5.43124602176249">
        <ele>312.08999999999997</ele>
        <time>2025-05-17T11:47:49Z</time>
      </trkpt>
      <trkpt lat="43.561498029157519" lon="5.431356998160482">
        <ele>312.08999999999997</ele>
        <time>2025-05-17T11:47:50Z</time>
      </trkpt>
      <trkpt lat="43.561361990869045" lon="5.431430004537106">
        <ele>312.56999999999999</ele>
        <time>2025-05-17T11:47:51Z</time>
      </trkpt>
      <trkpt lat="43.561241962015629" lon="5.431494964286685">
        <ele>312.56999999999999</ele>
        <time>2025-05-17T11:47:52Z</time>
      </trkpt>
      <trkpt lat="43.561121011152864" lon="5.431520026177168">
        <ele>313.52999999999997</ele>
        <time>2025-05-17T11:47:53Z</time>
      </trkpt>
      <trkpt lat="43.560522040352225" lon="5.431642988696694">
        <ele>316.88999999999999</ele>
        <time>2025-05-17T11:47:58Z</time>
      </trkpt>
      <trkpt lat="43.560408968478441" lon="5.431721024215221">
        <ele>317.85000000000002</ele>
        <time>2025-05-17T11:47:59Z</time>
      </trkpt>
      <trkpt lat="43.560290029272437" lon="5.431808028370142">
        <ele>318.32999999999998</ele>
        <time>2025-05-17T11:48:00Z</time>
      </trkpt>
      <trkpt lat="43.559185964986682" lon="5.432591987773776">
        <ele>323.13999999999999</ele>
        <time>2025-05-17T11:48:08Z</time>
      </trkpt>
      <trkpt lat="43.558838032186031" lon="5.432845959439874">
        <ele>324.57999999999998</ele>
        <time>2025-05-17T11:48:11Z</time>
      </trkpt>
      <trkpt lat="43.557894984260201" lon="5.433679036796093">
        <ele>327.94999999999999</ele>
        <time>2025-05-17T11:48:21Z</time>
      </trkpt>
      <trkpt lat="43.557836981490254" lon="5.43373896740377">
        <ele>328.43000000000001</ele>
        <time>2025-05-17T11:48:22Z</time>
      </trkpt>
      <trkpt lat="43.557730028405786" lon="5.433777021244168">
        <ele>328.91000000000003</ele>
        <time>2025-05-17T11:48:23Z</time>
      </trkpt>
      <trkpt lat="43.557639000937343" lon="5.433753971010447">
        <ele>329.38999999999999</ele>
        <time>2025-05-17T11:48:24Z</time>
      </trkpt>
      <trkpt lat="43.557533975690603" lon="5.433726981282234">
        <ele>329.87</ele>
        <time>2025-05-17T11:48:25Z</time>
      </trkpt>
      <trkpt lat="43.557420987635851" lon="5.433698985725641">
        <ele>329.87</ele>
        <time>2025-05-17T11:48:26Z</time>
      </trkpt>
      <trkpt lat="43.557313028723001" lon="5.433699991554022">
        <ele>330.35000000000002</ele>
        <time>2025-05-17T11:48:27Z</time>
      </trkpt>
      <trkpt lat="43.557213032618165" lon="5.433735027909279">
        <ele>330.82999999999998</ele>
        <time>2025-05-17T11:48:28Z</time>
      </trkpt>
      <trkpt lat="43.557110019028187" lon="5.433771992102265">
        <ele>331.31</ele>
        <time>2025-05-17T11:48:29Z</time>
      </trkpt>
      <trkpt lat="43.556078039109707" lon="5.433968966826797">
        <ele>335.16000000000003</ele>
        <time>2025-05-17T11:48:38Z</time>
      </trkpt>
      <trkpt lat="43.554862998425961" lon="5.434054965153337">
        <ele>339.48000000000002</ele>
        <time>2025-05-17T11:48:48Z</time>
      </trkpt>
      <trkpt lat="43.553979964926839" lon="5.43434196151793">
        <ele>342.37</ele>
        <time>2025-05-17T11:48:55Z</time>
      </trkpt>
      <trkpt lat="43.553858008235693" lon="5.43442795984447">
        <ele>342.85000000000002</ele>
        <time>2025-05-17T11:48:56Z</time>
      </trkpt>
      <trkpt lat="43.553747031837702" lon="5.434527033939958">
        <ele>342.85000000000002</ele>
        <time>2025-05-17T11:48:57Z</time>
      </trkpt>
      <trkpt lat="43.552787974476814" lon="5.435615004971623">
        <ele>343.81</ele>
        <time>2025-05-17T11:49:05Z</time>
      </trkpt>
      <trkpt lat="43.552365023642778" lon="5.435939971357584">
        <ele>344.76999999999998</ele>
        <time>2025-05-17T11:49:10Z</time>
      </trkpt>
      <trkpt lat="43.552294028922915" lon="5.435957992449403">
        <ele>344.29000000000002</ele>
        <time>2025-05-17T11:49:11Z</time>
      </trkpt>
      <trkpt lat="43.552210964262486" lon="5.435875011608005">
        <ele>344.29000000000002</ele>
        <time>2025-05-17T11:49:12Z</time>
      </trkpt>
      <trkpt lat="43.552137035876513" lon="5.435799993574619">
        <ele>344.29000000000002</ele>
        <time>2025-05-17T11:49:13Z</time>
      </trkpt>
      <trkpt lat="43.552086995914578" lon="5.435704020783305">
        <ele>344.76999999999998</ele>
        <time>2025-05-17T11:49:14Z</time>
      </trkpt>
      <trkpt lat="43.552057994529605" lon="5.435578040778637">
        <ele>345.25</ele>
        <time>2025-05-17T11:49:15Z</time>
      </trkpt>
      <trkpt lat="43.552051037549973" lon="5.435447031632066">
        <ele>345.25</ele>
        <time>2025-05-17T11:49:16Z</time>
      </trkpt>
      <trkpt lat="43.552096970379353" lon="5.435325996950269">
        <ele>345.73000000000002</ele>
        <time>2025-05-17T11:49:17Z</time>
      </trkpt>
      <trkpt lat="43.552172994241118" lon="5.435228012502194">
        <ele>346.20999999999998</ele>
        <time>2025-05-17T11:49:18Z</time>
      </trkpt>
      <trkpt lat="43.552266033366323" lon="5.435181995853782">
        <ele>346.69</ele>
        <time>2025-05-17T11:49:19Z</time>
      </trkpt>
      <trkpt lat="43.552365023642778" lon="5.435175960883498">
        <ele>347.17000000000002</ele>
        <time>2025-05-17T11:49:20Z</time>
      </trkpt>
      <trkpt lat="43.552471976727247" lon="5.435170009732246">
        <ele>348.13</ele>
        <time>2025-05-17T11:49:21Z</time>
      </trkpt>
      <trkpt lat="43.552600974217057" lon="5.435175038874149">
        <ele>348.62</ele>
        <time>2025-05-17T11:49:22Z</time>
      </trkpt>
      <trkpt lat="43.552732989192009" lon="5.435244021937251">
        <ele>349.57999999999998</ele>
        <time>2025-05-17T11:49:23Z</time>
      </trkpt>
      <trkpt lat="43.552861986681819" lon="5.435336977243424">
        <ele>350.06</ele>
        <time>2025-05-17T11:49:24Z</time>
      </trkpt>
      <trkpt lat="43.553004981949925" lon="5.435449965298176">
        <ele>350.54000000000002</ele>
        <time>2025-05-17T11:49:25Z</time>
      </trkpt>
      <trkpt lat="43.553132973611355" lon="5.435600001364946">
        <ele>351.01999999999998</ele>
        <time>2025-05-17T11:49:26Z</time>
      </trkpt>
      <trkpt lat="43.553675031289458" lon="5.436309026554227">
        <ele>352.94</ele>
        <time>2025-05-17T11:49:30Z</time>
      </trkpt>
      <trkpt lat="43.554385984316468" lon="5.438028993085027">
        <ele>356.79000000000002</ele>
        <time>2025-05-17T11:49:37Z</time>
      </trkpt>
      <trkpt lat="43.555493988096714" lon="5.441182013601065">
        <ele>349.10000000000002</ele>
        <time>2025-05-17T11:49:49Z</time>
      </trkpt>
      <trkpt lat="43.556383978575468" lon="5.443745031952858">
        <ele>336.60000000000002</ele>
        <time>2025-05-17T11:49:58Z</time>
      </trkpt>
      <trkpt lat="43.557295007631183" lon="5.44634903781116">
        <ele>330.82999999999998</ele>
        <time>2025-05-17T11:50:08Z</time>
      </trkpt>
      <trkpt lat="43.55831902474165" lon="5.449163010343909">
        <ele>327.94999999999999</ele>
        <time>2025-05-17T11:50:18Z</time>
      </trkpt>
      <trkpt lat="43.559204991906881" lon="5.451138038188219">
        <ele>320.25999999999999</ele>
        <time>2025-05-17T11:50:26Z</time>
      </trkpt>
      <trkpt lat="43.56064198538661" lon="5.453904988244176">
        <ele>309.19999999999999</ele>
        <time>2025-05-17T11:50:37Z</time>
      </trkpt>
      <trkpt lat="43.561491994187236" lon="5.455908011645079">
        <ele>304.88</ele>
        <time>2025-05-17T11:50:45Z</time>
      </trkpt>
      <trkpt lat="43.562481980770826" lon="5.458755008876324">
        <ele>307.27999999999997</ele>
        <time>2025-05-17T11:50:56Z</time>
      </trkpt>
      <trkpt lat="43.563332995399833" lon="5.461208978667855">
        <ele>312.08999999999997</ele>
        <time>2025-05-17T11:51:06Z</time>
      </trkpt>
      <trkpt lat="43.563857031986117" lon="5.462630968540907">
        <ele>312.56999999999999</ele>
        <time>2025-05-17T11:51:14Z</time>
      </trkpt>
      <trkpt lat="43.564045960083604" lon="5.463209990411997">
        <ele>314.49000000000001</ele>
        <time>2025-05-17T11:51:18Z</time>
      </trkpt>
      <trkpt lat="43.564097005873919" lon="5.463448036462069">
        <ele>315.44999999999999</ele>
        <time>2025-05-17T11:51:20Z</time>
      </trkpt>
      <trkpt lat="43.564115026965737" lon="5.463541997596622">
        <ele>316.88999999999999</ele>
        <time>2025-05-17T11:51:21Z</time>
      </trkpt>
      <trkpt lat="43.564127013087273" lon="5.463601006194949">
        <ele>317.85000000000002</ele>
        <time>2025-05-17T11:51:22Z</time>
      </trkpt>
      <trkpt lat="43.564076973125339" lon="5.46381700783968">
        <ele>318.32999999999998</ele>
        <time>2025-05-17T11:51:23Z</time>
      </trkpt>
      <trkpt lat="43.56405601836741" lon="5.463806027546525">
        <ele>319.30000000000001</ele>
        <time>2025-05-17T11:51:24Z</time>
      </trkpt>
      <trkpt lat="43.563973037526011" lon="5.463761016726494">
        <ele>320.74000000000001</ele>
        <time>2025-05-17T11:51:29Z</time>
      </trkpt>
      <trkpt lat="43.563911011442542" lon="5.463728997856379">
        <ele>321.22000000000003</ele>
        <time>2025-05-17T11:51:30Z</time>
      </trkpt>
      <trkpt lat="43.563823001459241" lon="5.463687004521489">
        <ele>321.22000000000003</ele>
        <time>2025-05-17T11:51:31Z</time>
      </trkpt>
      <trkpt lat="43.563032001256943" lon="5.463292971253395">
        <ele>322.18000000000001</ele>
        <time>2025-05-17T11:51:37Z</time>
      </trkpt>
      <trkpt lat="43.562087025493383" lon="5.462816040962935">
        <ele>321.22000000000003</ele>
        <time>2025-05-17T11:51:45Z</time>
      </trkpt>
      <trkpt lat="43.561975965276361" lon="5.462760971859098">
        <ele>321.22000000000003</ele>
        <time>2025-05-17T11:51:46Z</time>
      </trkpt>
      <trkpt lat="43.561867000535131" lon="5.462705986574292">
        <ele>321.22000000000003</ele>
        <time>2025-05-17T11:51:47Z</time>
      </trkpt>
      <trkpt lat="43.560747010633349" lon="5.462130988016725">
        <ele>318.81</ele>
        <time>2025-05-17T11:51:57Z</time>
      </trkpt>
      <trkpt lat="43.560050977393985" lon="5.461772996932268">
        <ele>315.44999999999999</ele>
        <time>2025-05-17T11:52:04Z</time>
      </trkpt>
      <trkpt lat="43.558930987492204" lon="5.461181988939643">
        <ele>312.08999999999997</ele>
        <time>2025-05-17T11:52:14Z</time>
      </trkpt>
      <trkpt lat="43.557617040351033" lon="5.460528032854199">
        <ele>306.31999999999999</ele>
        <time>2025-05-17T11:52:25Z</time>
      </trkpt>
      <trkpt lat="43.557021003216505" lon="5.460204994305968">
        <ele>302.47000000000003</ele>
        <time>2025-05-17T11:52:32Z</time>
      </trkpt>
      <trkpt lat="43.556971969082952" lon="5.460184039548039">
        <ele>301.99000000000001</ele>
        <time>2025-05-17T11:52:33Z</time>
      </trkpt>
      <trkpt lat="43.556776000186801" lon="5.460082031786442">
        <ele>299.58999999999997</ele>
        <time>2025-05-17T11:52:38Z</time>
      </trkpt>
      <trkpt lat="43.556676004081964" lon="5.460026962682605">
        <ele>298.14999999999998</ele>
        <time>2025-05-17T11:52:41Z</time>
      </trkpt>
      <trkpt lat="43.55632203631103" lon="5.459899976849556">
        <ele>295.25999999999999</ele>
        <time>2025-05-17T11:52:46Z</time>
      </trkpt>
      <trkpt lat="43.556256992742419" lon="5.459881033748388">
        <ele>294.77999999999997</ele>
        <time>2025-05-17T11:52:47Z</time>
      </trkpt>
      <trkpt lat="43.556198989972472" lon="5.459862006828189">
        <ele>294.77999999999997</ele>
        <time>2025-05-17T11:52:48Z</time>
      </trkpt>
      <trkpt lat="43.55600100941956" lon="5.459783971309662">
        <ele>293.81999999999999</ele>
        <time>2025-05-17T11:52:52Z</time>
      </trkpt>
      <trkpt lat="43.555815014988184" lon="5.459666959941387">
        <ele>291.89999999999998</ele>
        <time>2025-05-17T11:53:00Z</time>
      </trkpt>
      <trkpt lat="43.555704960599542" lon="5.459588002413511">
        <ele>291.42000000000002</ele>
        <time>2025-05-17T11:53:18Z</time>
      </trkpt>
      <trkpt lat="43.555517038330436" lon="5.459441989660263">
        <ele>290.45999999999998</ele>
        <time>2025-05-17T11:53:22Z</time>
      </trkpt>
      <trkpt lat="43.555455012246966" lon="5.459407037124038">
        <ele>289.97000000000003</ele>
        <time>2025-05-17T11:53:23Z</time>
      </trkpt>
      <trkpt lat="43.555391980335116" lon="5.459373006597161">
        <ele>289.49000000000001</ele>
        <time>2025-05-17T11:53:24Z</time>
      </trkpt>
      <trkpt lat="43.555325008928776" lon="5.459323972463608">
        <ele>289.00999999999999</ele>
        <time>2025-05-17T11:53:25Z</time>
      </trkpt>
      <trkpt lat="43.555252002552152" lon="5.459278961643577">
        <ele>288.52999999999997</ele>
        <time>2025-05-17T11:53:26Z</time>
      </trkpt>
      <trkpt lat="43.555167010053992" lon="5.459233028814197">
        <ele>287.56999999999999</ele>
        <time>2025-05-17T11:53:27Z</time>
      </trkpt>
      <trkpt lat="43.555077994242311" lon="5.459185000509024">
        <ele>286.61000000000001</ele>
        <time>2025-05-17T11:53:28Z</time>
      </trkpt>
      <trkpt lat="43.554985960945487" lon="5.45913596637547">
        <ele>285.64999999999998</ele>
        <time>2025-05-17T11:53:29Z</time>
      </trkpt>
      <trkpt lat="43.554138969630003" lon="5.458691976964474">
        <ele>281.31999999999999</ele>
        <time>2025-05-17T11:53:37Z</time>
      </trkpt>
      <trkpt lat="43.55282099917531" lon="5.458012036979199">
        <ele>282.27999999999997</ele>
        <time>2025-05-17T11:53:48Z</time>
      </trkpt>
      <trkpt lat="43.551542004570365" lon="5.45732899568975">
        <ele>284.20999999999998</ele>
        <time>2025-05-17T11:53:59Z</time>
      </trkpt>
      <trkpt lat="43.5502640157938" lon="5.456657018512487">
        <ele>286.61000000000001</ele>
        <time>2025-05-17T11:54:10Z</time>
      </trkpt>
      <trkpt lat="43.548842025920749" lon="5.455815978348255">
        <ele>288.05000000000001</ele>
        <time>2025-05-17T11:54:23Z</time>
      </trkpt>
      <trkpt lat="43.547510979697108" lon="5.455177025869489">
        <ele>279.39999999999998</ele>
        <time>2025-05-17T11:54:34Z</time>
      </trkpt>
      <trkpt lat="43.546802960336208" lon="5.454900003969669">
        <ele>272.67000000000002</ele>
        <time>2025-05-17T11:54:40Z</time>
      </trkpt>
      <trkpt lat="43.546687960624695" lon="5.454864967614412">
        <ele>271.70999999999998</ele>
        <time>2025-05-17T11:54:41Z</time>
      </trkpt>
      <trkpt lat="43.546571033075452" lon="5.454848958179355">
        <ele>270.75</ele>
        <time>2025-05-17T11:54:42Z</time>
      </trkpt>
      <trkpt lat="43.546451004222035" lon="5.454877037554979">
        <ele>269.79000000000002</ele>
        <time>2025-05-17T11:54:43Z</time>
      </trkpt>
      <trkpt lat="43.546328963711858" lon="5.454905033111572">
        <ele>268.82999999999998</ele>
        <time>2025-05-17T11:54:44Z</time>
      </trkpt>
      <trkpt lat="43.544958019629121" lon="5.455393027514219">
        <ele>255.84999999999999</ele>
        <time>2025-05-17T11:54:56Z</time>
      </trkpt>
      <trkpt lat="43.544834973290563" lon="5.455423034727573">
        <ele>255.37</ele>
        <time>2025-05-17T11:54:57Z</time>
      </trkpt>
      <trkpt lat="43.5444410238415" lon="5.455441977828741">
        <ele>252</ele>
        <time>2025-05-17T11:55:00Z</time>
      </trkpt>
      <trkpt lat="43.544362988322973" lon="5.455425968393683">
        <ele>251.03999999999999</ele>
        <time>2025-05-17T11:55:01Z</time>
      </trkpt>
      <trkpt lat="43.542997995391488" lon="5.455151963979006">
        <ele>240.94999999999999</ele>
        <time>2025-05-17T11:55:13Z</time>
      </trkpt>
      <trkpt lat="43.542918032035232" lon="5.455137966200709">
        <ele>239.99000000000001</ele>
        <time>2025-05-17T11:55:14Z</time>
      </trkpt>
      <trkpt lat="43.54280998930335" lon="5.455011986196041">
        <ele>239.50999999999999</ele>
        <time>2025-05-17T11:55:15Z</time>
      </trkpt>
      <trkpt lat="43.542798003181815" lon="5.454988013952971">
        <ele>238.53999999999999</ele>
        <time>2025-05-17T11:55:16Z</time>
      </trkpt>
      <trkpt lat="43.54276699014008" lon="5.454926993697882">
        <ele>238.06</ele>
        <time>2025-05-17T11:55:17Z</time>
      </trkpt>
      <trkpt lat="43.542609997093678" lon="5.454963035881519">
        <ele>237.09999999999999</ele>
        <time>2025-05-17T11:55:18Z</time>
      </trkpt>
      <trkpt lat="43.542537996545434" lon="5.454890029504895">
        <ele>236.62</ele>
        <time>2025-05-17T11:55:19Z</time>
      </trkpt>
      <trkpt lat="43.541995016857982" lon="5.454494990408421">
        <ele>233.25999999999999</ele>
        <time>2025-05-17T11:55:26Z</time>
      </trkpt>
      <trkpt lat="43.541924022138119" lon="5.45445098541677">
        <ele>232.78</ele>
        <time>2025-05-17T11:55:27Z</time>
      </trkpt>
      <trkpt lat="43.541858978569508" lon="5.454418966546655">
        <ele>232.78</ele>
        <time>2025-05-17T11:55:28Z</time>
      </trkpt>
      <trkpt lat="43.541598971933126" lon="5.454288963228464">
        <ele>230.84999999999999</ele>
        <time>2025-05-17T11:55:32Z</time>
      </trkpt>
      <trkpt lat="43.541532000526786" lon="5.454254010692239">
        <ele>230.84999999999999</ele>
        <time>2025-05-17T11:55:33Z</time>
      </trkpt>
      <trkpt lat="43.540945015847683" lon="5.453958967700601">
        <ele>230.84999999999999</ele>
        <time>2025-05-17T11:55:42Z</time>
      </trkpt>
      <trkpt lat="43.540332969278097" lon="5.45374296605587">
        <ele>232.30000000000001</ele>
        <time>2025-05-17T11:55:51Z</time>
      </trkpt>
      <trkpt lat="43.540258035063744" lon="5.453717987984419">
        <ele>232.78</ele>
        <time>2025-05-17T11:55:52Z</time>
      </trkpt>
      <trkpt lat="43.539931979030371" lon="5.45363299548626">
        <ele>233.25999999999999</ele>
        <time>2025-05-17T11:55:56Z</time>
      </trkpt>
      <trkpt lat="43.539850004017353" lon="5.45361296273768">
        <ele>233.25999999999999</ele>
        <time>2025-05-17T11:55:57Z</time>
      </trkpt>
      <trkpt lat="43.539554961025715" lon="5.45354699715972">
        <ele>234.22</ele>
        <time>2025-05-17T11:56:01Z</time>
      </trkpt>
      <trkpt lat="43.539484972134233" lon="5.453540040180087">
        <ele>234.69999999999999</ele>
        <time>2025-05-17T11:56:02Z</time>
      </trkpt>
      <trkpt lat="43.539415989071131" lon="5.453531993553042">
        <ele>235.18000000000001</ele>
        <time>2025-05-17T11:56:03Z</time>
      </trkpt>
      <trkpt lat="43.539084987714887" lon="5.453497041016817">
        <ele>236.13999999999999</ele>
        <time>2025-05-17T11:56:08Z</time>
      </trkpt>
      <trkpt lat="43.539011981338263" lon="5.453488994389772">
        <ele>236.62</ele>
        <time>2025-05-17T11:56:09Z</time>
      </trkpt>
      <trkpt lat="43.539011981338263" lon="5.453488994389772">
        <ele>237.09999999999999</ele>
        <time>2025-05-17T11:56:10Z</time>
      </trkpt>
      <trkpt lat="43.538829004392028" lon="5.453437026590109">
        <ele>237.09999999999999</ele>
        <time>2025-05-17T11:56:11Z</time>
      </trkpt>
      <trkpt lat="43.53874996304512" lon="5.453378017991781">
        <ele>237.58000000000001</ele>
        <time>2025-05-17T11:56:12Z</time>
      </trkpt>
      <trkpt lat="43.537786966189742" lon="5.453022960573435">
        <ele>240.94999999999999</ele>
        <time>2025-05-17T11:56:23Z</time>
      </trkpt>
      <trkpt lat="43.537682024762034" lon="5.452951965853572">
        <ele>241.43000000000001</ele>
        <time>2025-05-17T11:56:24Z</time>
      </trkpt>
      <trkpt lat="43.537682024762034" lon="5.452951965853572">
        <ele>241.91</ele>
        <time>2025-05-17T11:56:25Z</time>
      </trkpt>
      <trkpt lat="43.537615975365043" lon="5.452833026647568">
        <ele>242.87</ele>
        <time>2025-05-17T11:56:26Z</time>
      </trkpt>
      <trkpt lat="43.537540035322309" lon="5.452863033860922">
        <ele>243.83000000000001</ele>
        <time>2025-05-17T11:56:27Z</time>
      </trkpt>
      <trkpt lat="43.537530982866883" lon="5.452866973355413">
        <ele>244.31</ele>
        <time>2025-05-17T11:56:28Z</time>
      </trkpt>
      <trkpt lat="43.53737398982048" lon="5.452915001660585">
        <ele>244.31</ele>
        <time>2025-05-17T11:56:29Z</time>
      </trkpt>
      <trkpt lat="43.537276005372405" lon="5.452906033024192">
        <ele>244.31</ele>
        <time>2025-05-17T11:56:30Z</time>
      </trkpt>
      <trkpt lat="43.537176009267569" lon="5.452894968912005">
        <ele>244.31</ele>
        <time>2025-05-17T11:56:31Z</time>
      </trkpt>
      <trkpt lat="43.537074001505971" lon="5.452877031639218">
        <ele>243.83000000000001</ele>
        <time>2025-05-17T11:56:32Z</time>
      </trkpt>
      <trkpt lat="43.536976017057896" lon="5.452837971970439">
        <ele>243.83000000000001</ele>
        <time>2025-05-17T11:56:33Z</time>
      </trkpt>
      <trkpt lat="43.536591958254576" lon="5.452646026387811">
        <ele>243.34999999999999</ele>
        <time>2025-05-17T11:56:37Z</time>
      </trkpt>
      <trkpt lat="43.536501014605165" lon="5.452578971162438">
        <ele>242.87</ele>
        <time>2025-05-17T11:56:38Z</time>
      </trkpt>
      <trkpt lat="43.535651005804539" lon="5.451867012307048">
        <ele>239.50999999999999</ele>
        <time>2025-05-17T11:56:47Z</time>
      </trkpt>
      <trkpt lat="43.535556038841605" lon="5.451785959303379">
        <ele>238.53999999999999</ele>
        <time>2025-05-17T11:56:48Z</time>
      </trkpt>
      <trkpt lat="43.535462999716401" lon="5.451705995947123">
        <ele>238.06</ele>
        <time>2025-05-17T11:56:49Z</time>
      </trkpt>
      <trkpt lat="43.535286979749799" lon="5.451555959880352">
        <ele>236.62</ele>
        <time>2025-05-17T11:56:51Z</time>
      </trkpt>
      <trkpt lat="43.535205004736781" lon="5.451487982645631">
        <ele>235.66</ele>
        <time>2025-05-17T11:56:52Z</time>
      </trkpt>
      <trkpt lat="43.53511699475348" lon="5.451434003189206">
        <ele>235.18000000000001</ele>
        <time>2025-05-17T11:56:53Z</time>
      </trkpt>
      <trkpt lat="43.534855982288718" lon="5.451295031234622">
        <ele>232.30000000000001</ele>
        <time>2025-05-17T11:56:56Z</time>
      </trkpt>
      <trkpt lat="43.534660013392568" lon="5.451229987666011">
        <ele>229.88999999999999</ele>
        <time>2025-05-17T11:56:58Z</time>
      </trkpt>
      <trkpt lat="43.533703973516822" lon="5.451053967699409">
        <ele>218.36000000000001</ele>
        <time>2025-05-17T11:57:08Z</time>
      </trkpt>
      <trkpt lat="43.532661013305187" lon="5.450876019895077">
        <ele>209.22</ele>
        <time>2025-05-17T11:57:20Z</time>
      </trkpt>
      <trkpt lat="43.53257903829217" lon="5.450859004631639">
        <ele>207.78</ele>
        <time>2025-05-17T11:57:22Z</time>
      </trkpt>
      <trkpt lat="43.532549031078815" lon="5.450852969661355">
        <ele>207.30000000000001</ele>
        <time>2025-05-17T11:57:23Z</time>
      </trkpt>
      <trkpt lat="43.532549031078815" lon="5.450852969661355">
        <ele>206.81999999999999</ele>
        <time>2025-05-17T11:57:36Z</time>
      </trkpt>
      <trkpt lat="43.532549031078815" lon="5.450852969661355">
        <ele>207.30000000000001</ele>
        <time>2025-05-17T11:58:08Z</time>
      </trkpt>
      <trkpt lat="43.532469989731908" lon="5.450836960226297">
        <ele>206.81999999999999</ele>
        <time>2025-05-17T11:58:16Z</time>
      </trkpt>
      <trkpt lat="43.532338980585337" lon="5.450678039342165">
        <ele>206.81999999999999</ele>
        <time>2025-05-17T11:58:17Z</time>
      </trkpt>
      <trkpt lat="43.532338980585337" lon="5.450678039342165">
        <ele>206.34</ele>
        <time>2025-05-17T11:58:18Z</time>
      </trkpt>
      <trkpt lat="43.532360019162297" lon="5.450571002438664">
        <ele>206.34</ele>
        <time>2025-05-17T11:58:19Z</time>
      </trkpt>
      <trkpt lat="43.532373011112213" lon="5.450482992455363">
        <ele>206.34</ele>
        <time>2025-05-17T11:58:20Z</time>
      </trkpt>
      <trkpt lat="43.53238700889051" lon="5.450385008007288">
        <ele>205.86000000000001</ele>
        <time>2025-05-17T11:58:21Z</time>
      </trkpt>
      <trkpt lat="43.532405029982328" lon="5.450276965275407">
        <ele>205.86000000000001</ele>
        <time>2025-05-17T11:58:22Z</time>
      </trkpt>
      <trkpt lat="43.532421961426735" lon="5.450158026069403">
        <ele>205.86000000000001</ele>
        <time>2025-05-17T11:58:23Z</time>
      </trkpt>
      <trkpt lat="43.53257903829217" lon="5.448933010920882">
        <ele>204.41999999999999</ele>
        <time>2025-05-17T11:58:32Z</time>
      </trkpt>
      <trkpt lat="43.532593036070466" lon="5.448836032301188">
        <ele>204.90000000000001</ele>
        <time>2025-05-17T11:58:38Z</time>
      </trkpt>
      <trkpt lat="43.532594963908195" lon="5.448818011209369">
        <ele>204.90000000000001</ele>
        <time>2025-05-17T11:59:00Z</time>
      </trkpt>
      <trkpt lat="43.532604016363621" lon="5.448763025924563">
        <ele>205.38</ele>
        <time>2025-05-17T11:59:01Z</time>
      </trkpt>
      <trkpt lat="43.532682973891497" lon="5.448216022923589">
        <ele>207.30000000000001</ele>
        <time>2025-05-17T11:59:07Z</time>
      </trkpt>
      <trkpt lat="43.532706024125218" lon="5.448047965764999">
        <ele>209.22</ele>
        <time>2025-05-17T11:59:16Z</time>
      </trkpt>
      <trkpt lat="43.532706024125218" lon="5.448047965764999">
        <ele>209.22</ele>
        <time>2025-05-17T11:59:40Z</time>
      </trkpt>
      <trkpt lat="43.532647015526891" lon="5.447927014902234">
        <ele>219.80000000000001</ele>
        <time>2025-05-17T13:15:40Z</time>
      </trkpt>
      <trkpt lat="43.532655984163284" lon="5.447934977710247">
        <ele>218.84</ele>
        <time>2025-05-17T13:16:17Z</time>
      </trkpt>
      <trkpt lat="43.532653972506523" lon="5.447933971881867">
        <ele>218.36000000000001</ele>
        <time>2025-05-17T13:16:48Z</time>
      </trkpt>
      <trkpt lat="43.532662019133568" lon="5.44791997410357">
        <ele>218.36000000000001</ele>
        <time>2025-05-17T13:17:09Z</time>
      </trkpt>
      <trkpt lat="43.532729996368289" lon="5.447877980768681">
        <ele>219.31999999999999</ele>
        <time>2025-05-17T13:17:24Z</time>
      </trkpt>
      <trkpt lat="43.532744999974966" lon="5.447767004370689">
        <ele>219.80000000000001</ele>
        <time>2025-05-17T13:17:34Z</time>
      </trkpt>
      <trkpt lat="43.532765032723546" lon="5.447540022432804">
        <ele>220.75999999999999</ele>
        <time>2025-05-17T13:18:10Z</time>
      </trkpt>
      <trkpt lat="43.532781964167953" lon="5.447331983596087">
        <ele>217.88</ele>
        <time>2025-05-17T13:18:13Z</time>
      </trkpt>
      <trkpt lat="43.532787999138236" lon="5.447260988876224">
        <ele>216.91</ele>
        <time>2025-05-17T13:18:14Z</time>
      </trkpt>
      <trkpt lat="43.532781964167953" lon="5.447182031348348">
        <ele>216.43000000000001</ele>
        <time>2025-05-17T13:18:15Z</time>
      </trkpt>
      <trkpt lat="43.53277500718832" lon="5.447112964466214">
        <ele>215.94999999999999</ele>
        <time>2025-05-17T13:18:16Z</time>
      </trkpt>
      <trkpt lat="43.532766038551927" lon="5.44703702442348">
        <ele>214.99000000000001</ele>
        <time>2025-05-17T13:18:17Z</time>
      </trkpt>
      <trkpt lat="43.53275497443974" lon="5.446939961984754">
        <ele>214.50999999999999</ele>
        <time>2025-05-17T13:18:18Z</time>
      </trkpt>
      <trkpt lat="43.532743994146585" lon="5.446836026385427">
        <ele>214.03</ele>
        <time>2025-05-17T13:18:19Z</time>
      </trkpt>
      <trkpt lat="43.53273200802505" lon="5.446728989481926">
        <ele>213.55000000000001</ele>
        <time>2025-05-17T13:18:20Z</time>
      </trkpt>
      <trkpt lat="43.532723039388657" lon="5.446659000590444">
        <ele>213.06999999999999</ele>
        <time>2025-05-17T13:18:21Z</time>
      </trkpt>
      <trkpt lat="43.532715998589993" lon="5.446627987548709">
        <ele>212.59</ele>
        <time>2025-05-17T13:18:22Z</time>
      </trkpt>
      <trkpt lat="43.53270904161036" lon="5.446602003648877">
        <ele>212.11000000000001</ele>
        <time>2025-05-17T13:18:23Z</time>
      </trkpt>
      <trkpt lat="43.532698983326554" lon="5.446562021970749">
        <ele>211.63</ele>
        <time>2025-05-17T13:18:24Z</time>
      </trkpt>
      <trkpt lat="43.532683979719877" lon="5.446293968707323">
        <ele>211.15000000000001</ele>
        <time>2025-05-17T13:18:25Z</time>
      </trkpt>
      <trkpt lat="43.532726978883147" lon="5.446267984807491">
        <ele>210.19</ele>
        <time>2025-05-17T13:18:26Z</time>
      </trkpt>
      <trkpt lat="43.532767966389656" lon="5.44624300673604">
        <ele>209.69999999999999</ele>
        <time>2025-05-17T13:18:27Z</time>
      </trkpt>
      <trkpt lat="43.532808031886816" lon="5.44621903449297">
        <ele>209.22</ele>
        <time>2025-05-17T13:18:28Z</time>
      </trkpt>
      <trkpt lat="43.532849019393325" lon="5.446193972602487">
        <ele>208.74000000000001</ele>
        <time>2025-05-17T13:18:29Z</time>
      </trkpt>
      <trkpt lat="43.532891012728214" lon="5.446167988702655">
        <ele>207.78</ele>
        <time>2025-05-17T13:18:30Z</time>
      </trkpt>
      <trkpt lat="43.532939963042736" lon="5.446137981489301">
        <ele>207.30000000000001</ele>
        <time>2025-05-17T13:18:31Z</time>
      </trkpt>
      <trkpt lat="43.532994026318192" lon="5.446105040609837">
        <ele>206.34</ele>
        <time>2025-05-17T13:18:32Z</time>
      </trkpt>
      <trkpt lat="43.533050017431378" lon="5.446073021739721">
        <ele>206.34</ele>
        <time>2025-05-17T13:18:33Z</time>
      </trkpt>
      <trkpt lat="43.533113971352577" lon="5.446038991212845">
        <ele>205.86000000000001</ele>
        <time>2025-05-17T13:18:34Z</time>
      </trkpt>
      <trkpt lat="43.53318396024406" lon="5.446002027019858">
        <ele>205.38</ele>
        <time>2025-05-17T13:18:35Z</time>
      </trkpt>
      <trkpt lat="43.533251015469432" lon="5.445966990664601">
        <ele>205.38</ele>
        <time>2025-05-17T13:18:36Z</time>
      </trkpt>
      <trkpt lat="43.533304994925857" lon="5.445938995108008">
        <ele>205.38</ele>
        <time>2025-05-17T13:18:37Z</time>
      </trkpt>
      <trkpt lat="43.533346988260746" lon="5.445917034521699">
        <ele>205.38</ele>
        <time>2025-05-17T13:18:38Z</time>
      </trkpt>
      <trkpt lat="43.533432986587286" lon="5.445871017873287">
        <ele>205.38</ele>
        <time>2025-05-17T13:18:39Z</time>
      </trkpt>
      <trkpt lat="43.533432986587286" lon="5.445871017873287">
        <ele>205.38</ele>
        <time>2025-05-17T13:18:40Z</time>
      </trkpt>
      <trkpt lat="43.53359199129045" lon="5.445910999551415">
        <ele>204.90000000000001</ele>
        <time>2025-05-17T13:18:41Z</time>
      </trkpt>
      <trkpt lat="43.533602971583605" lon="5.445976965129376">
        <ele>204.41999999999999</ele>
        <time>2025-05-17T13:18:42Z</time>
      </trkpt>
      <trkpt lat="43.533613029867411" lon="5.446046032011509">
        <ele>204.41999999999999</ele>
        <time>2025-05-17T13:18:43Z</time>
      </trkpt>
      <trkpt lat="43.533624010160565" lon="5.446117026731372">
        <ele>204.41999999999999</ele>
        <time>2025-05-17T13:18:44Z</time>
      </trkpt>
      <trkpt lat="43.533639013767242" lon="5.446174023672938">
        <ele>204.41999999999999</ele>
        <time>2025-05-17T13:18:45Z</time>
      </trkpt>
      <trkpt lat="43.533760970458388" lon="5.446654977276921">
        <ele>206.34</ele>
        <time>2025-05-17T13:18:51Z</time>
      </trkpt>
      <trkpt lat="43.533818973228335" lon="5.446751033887267">
        <ele>206.81999999999999</ele>
        <time>2025-05-17T13:18:52Z</time>
      </trkpt>
      <trkpt lat="43.533855015411973" lon="5.4467389639467">
        <ele>206.81999999999999</ele>
        <time>2025-05-17T13:18:53Z</time>
      </trkpt>
      <trkpt lat="43.53391301818192" lon="5.446720020845532">
        <ele>207.30000000000001</ele>
        <time>2025-05-17T13:18:54Z</time>
      </trkpt>
      <trkpt lat="43.533983007073402" lon="5.446696970611811">
        <ele>207.30000000000001</ele>
        <time>2025-05-17T13:18:55Z</time>
      </trkpt>
      <trkpt lat="43.534060958772898" lon="5.446660006418824">
        <ele>207.30000000000001</ele>
        <time>2025-05-17T13:18:56Z</time>
      </trkpt>
      <trkpt lat="43.534282995387912" lon="5.44652396813035">
        <ele>207.30000000000001</ele>
        <time>2025-05-17T13:18:59Z</time>
      </trkpt>
      <trkpt lat="43.53434300981462" lon="5.446484992280603">
        <ele>207.30000000000001</ele>
        <time>2025-05-17T13:19:00Z</time>
      </trkpt>
      <trkpt lat="43.534527998417616" lon="5.446377033367753">
        <ele>208.25999999999999</ele>
        <time>2025-05-17T13:19:03Z</time>
      </trkpt>
      <trkpt lat="43.534564962610602" lon="5.446357000619173">
        <ele>209.22</ele>
        <time>2025-05-17T13:19:04Z</time>
      </trkpt>
      <trkpt lat="43.534635035321116" lon="5.446321964263916">
        <ele>210.19</ele>
        <time>2025-05-17T13:19:05Z</time>
      </trkpt>
      <trkpt lat="43.534641992300749" lon="5.446335962042213">
        <ele>210.66999999999999</ele>
        <time>2025-05-17T13:19:06Z</time>
      </trkpt>
      <trkpt lat="43.534668982028961" lon="5.446382984519005">
        <ele>211.15000000000001</ele>
        <time>2025-05-17T13:19:07Z</time>
      </trkpt>
      <trkpt lat="43.534720027819276" lon="5.446474011987448">
        <ele>211.63</ele>
        <time>2025-05-17T13:19:08Z</time>
      </trkpt>
      <trkpt lat="43.534851036965847" lon="5.447447989135981">
        <ele>216.91</ele>
        <time>2025-05-17T13:19:17Z</time>
      </trkpt>
      <trkpt lat="43.534895963966846" lon="5.448088031262159">
        <ele>216.43000000000001</ele>
        <time>2025-05-17T13:19:23Z</time>
      </trkpt>
      <trkpt lat="43.534907028079033" lon="5.44817796908319">
        <ele>216.43000000000001</ele>
        <time>2025-05-17T13:19:24Z</time>
      </trkpt>
      <trkpt lat="43.535027978941798" lon="5.449125040322542">
        <ele>218.36000000000001</ele>
        <time>2025-05-17T13:19:34Z</time>
      </trkpt>
      <trkpt lat="43.535043988376856" lon="5.449205003678799">
        <ele>218.36000000000001</ele>
        <time>2025-05-17T13:19:35Z</time>
      </trkpt>
      <trkpt lat="43.535061003640294" lon="5.449289996176958">
        <ele>218.84</ele>
        <time>2025-05-17T13:19:36Z</time>
      </trkpt>
      <trkpt lat="43.535078018903732" lon="5.449375994503498">
        <ele>218.84</ele>
        <time>2025-05-17T13:19:37Z</time>
      </trkpt>
      <trkpt lat="43.535096039995551" lon="5.449464004486799">
        <ele>218.84</ele>
        <time>2025-05-17T13:19:38Z</time>
      </trkpt>
      <trkpt lat="43.535127975046635" lon="5.449740020558238">
        <ele>220.28</ele>
        <time>2025-05-17T13:19:41Z</time>
      </trkpt>
      <trkpt lat="43.535127975046635" lon="5.449839010834694">
        <ele>221.24000000000001</ele>
        <time>2025-05-17T13:19:42Z</time>
      </trkpt>
      <trkpt lat="43.535127975046635" lon="5.449947975575924">
        <ele>222.19999999999999</ele>
        <time>2025-05-17T13:19:43Z</time>
      </trkpt>
      <trkpt lat="43.535118000581861" lon="5.450033973902464">
        <ele>223.16</ele>
        <time>2025-05-17T13:19:44Z</time>
      </trkpt>
      <trkpt lat="43.535106014460325" lon="5.450134975835681">
        <ele>223.63999999999999</ele>
        <time>2025-05-17T13:19:45Z</time>
      </trkpt>
      <trkpt lat="43.53509402833879" lon="5.45023899525404">
        <ele>224.61000000000001</ele>
        <time>2025-05-17T13:19:46Z</time>
      </trkpt>
      <trkpt lat="43.535081958398223" lon="5.450339997187257">
        <ele>225.56999999999999</ele>
        <time>2025-05-17T13:19:47Z</time>
      </trkpt>
      <trkpt lat="43.535069972276688" lon="5.450438987463713">
        <ele>226.05000000000001</ele>
        <time>2025-05-17T13:19:48Z</time>
      </trkpt>
      <trkpt lat="43.535037031397223" lon="5.450710980221629">
        <ele>227.97</ele>
        <time>2025-05-17T13:19:51Z</time>
      </trkpt>
      <trkpt lat="43.535009035840631" lon="5.450879037380219">
        <ele>228.93000000000001</ele>
        <time>2025-05-17T13:19:53Z</time>
      </trkpt>
      <trkpt lat="43.534941980615258" lon="5.451282039284706">
        <ele>231.81</ele>
        <time>2025-05-17T13:20:01Z</time>
      </trkpt>
      <trkpt lat="43.534969976171851" lon="5.451342975720763">
        <ele>232.30000000000001</ele>
        <time>2025-05-17T13:20:02Z</time>
      </trkpt>
      <trkpt lat="43.535006018355489" lon="5.451365020126104">
        <ele>232.78</ele>
        <time>2025-05-17T13:20:03Z</time>
      </trkpt>
      <trkpt lat="43.535059997811913" lon="5.451398966833949">
        <ele>233.25999999999999</ele>
        <time>2025-05-17T13:20:04Z</time>
      </trkpt>
      <trkpt lat="43.535118000581861" lon="5.451434003189206">
        <ele>233.74000000000001</ele>
        <time>2025-05-17T13:20:05Z</time>
      </trkpt>
      <trkpt lat="43.535365015268326" lon="5.451622009277344">
        <ele>235.18000000000001</ele>
        <time>2025-05-17T13:20:09Z</time>
      </trkpt>
      <trkpt lat="43.535435004159808" lon="5.451682023704052">
        <ele>235.18000000000001</ele>
        <time>2025-05-17T13:20:10Z</time>
      </trkpt>
      <trkpt lat="43.535501975566149" lon="5.451740026473999">
        <ele>235.66</ele>
        <time>2025-05-17T13:20:11Z</time>
      </trkpt>
      <trkpt lat="43.535569030791521" lon="5.451796017587185">
        <ele>236.13999999999999</ele>
        <time>2025-05-17T13:20:12Z</time>
      </trkpt>
      <trkpt lat="43.535641031339765" lon="5.451857959851623">
        <ele>237.09999999999999</ele>
        <time>2025-05-17T13:20:13Z</time>
      </trkpt>
      <trkpt lat="43.535786038264632" lon="5.451982012018561">
        <ele>238.06</ele>
        <time>2025-05-17T13:20:15Z</time>
      </trkpt>
      <trkpt lat="43.535867007449269" lon="5.452050995081663">
        <ele>238.53999999999999</ele>
        <time>2025-05-17T13:20:16Z</time>
      </trkpt>
      <trkpt lat="43.536209994927049" lon="5.45234402641654">
        <ele>240.94999999999999</ele>
        <time>2025-05-17T13:20:20Z</time>
      </trkpt>
      <trkpt lat="43.536467989906669" lon="5.452556004747748">
        <ele>241.91</ele>
        <time>2025-05-17T13:20:23Z</time>
      </trkpt>
      <trkpt lat="43.536561029031873" lon="5.452622976154089">
        <ele>242.38999999999999</ele>
        <time>2025-05-17T13:20:24Z</time>
      </trkpt>
      <trkpt lat="43.537327973172069" lon="5.452909972518683">
        <ele>244.78999999999999</ele>
        <time>2025-05-17T13:20:33Z</time>
      </trkpt>
      <trkpt lat="43.537432998418808" lon="5.452921036630869">
        <ele>244.78999999999999</ele>
        <time>2025-05-17T13:20:35Z</time>
      </trkpt>
      <trkpt lat="43.537485972046852" lon="5.45292598195374">
        <ele>245.27000000000001</ele>
        <time>2025-05-17T13:20:36Z</time>
      </trkpt>
      <trkpt lat="43.537530982866883" lon="5.452931011095643">
        <ele>245.27000000000001</ele>
        <time>2025-05-17T13:20:37Z</time>
      </trkpt>
      <trkpt lat="43.538249982520938" lon="5.453193029388785">
        <ele>244.31</ele>
        <time>2025-05-17T13:20:46Z</time>
      </trkpt>
      <trkpt lat="43.538404041901231" lon="5.453238962218165">
        <ele>243.34999999999999</ele>
        <time>2025-05-17T13:20:48Z</time>
      </trkpt>
      <trkpt lat="43.538466989994049" lon="5.453256983309984">
        <ele>242.87</ele>
        <time>2025-05-17T13:20:49Z</time>
      </trkpt>
      <trkpt lat="43.538521975278854" lon="5.453273998573422">
        <ele>242.38999999999999</ele>
        <time>2025-05-17T13:20:50Z</time>
      </trkpt>
      <trkpt lat="43.538587018847466" lon="5.453293025493622">
        <ele>241.91</ele>
        <time>2025-05-17T13:20:51Z</time>
      </trkpt>
      <trkpt lat="43.538669999688864" lon="5.453318003565073">
        <ele>241.43000000000001</ele>
        <time>2025-05-17T13:20:52Z</time>
      </trkpt>
      <trkpt lat="43.538742000237107" lon="5.453371983021498">
        <ele>241.43000000000001</ele>
        <time>2025-05-17T13:20:53Z</time>
      </trkpt>
      <trkpt lat="43.538816012442112" lon="5.453427974134684">
        <ele>241.43000000000001</ele>
        <time>2025-05-17T13:20:54Z</time>
      </trkpt>
      <trkpt lat="43.538862029090524" lon="5.453617991879582">
        <ele>241.43000000000001</ele>
        <time>2025-05-17T13:20:55Z</time>
      </trkpt>
      <trkpt lat="43.538899999111891" lon="5.453637018799782">
        <ele>241.43000000000001</ele>
        <time>2025-05-17T13:20:56Z</time>
      </trkpt>
      <trkpt lat="43.539011981338263" lon="5.453488994389772">
        <ele>241.43000000000001</ele>
        <time>2025-05-17T13:20:57Z</time>
      </trkpt>
      <trkpt lat="43.539037965238094" lon="5.453491006046534">
        <ele>240.94999999999999</ele>
        <time>2025-05-17T13:20:58Z</time>
      </trkpt>
      <trkpt lat="43.539089011028409" lon="5.453497041016817">
        <ele>240.47</ele>
        <time>2025-05-17T13:20:59Z</time>
      </trkpt>
      <trkpt lat="43.539145002141595" lon="5.453502992168069">
        <ele>239.99000000000001</ele>
        <time>2025-05-17T13:21:00Z</time>
      </trkpt>
      <trkpt lat="43.539205016568303" lon="5.453509027138352">
        <ele>239.50999999999999</ele>
        <time>2025-05-17T13:21:01Z</time>
      </trkpt>
      <trkpt lat="43.539264025166631" lon="5.453515984117985">
        <ele>239.02000000000001</ele>
        <time>2025-05-17T13:21:02Z</time>
      </trkpt>
      <trkpt lat="43.539322027936578" lon="5.453522019088268">
        <ele>238.53999999999999</ele>
        <time>2025-05-17T13:21:03Z</time>
      </trkpt>
      <trkpt lat="43.539459994062781" lon="5.453537022694945">
        <ele>237.58000000000001</ele>
        <time>2025-05-17T13:21:05Z</time>
      </trkpt>
      <trkpt lat="43.539534006267786" lon="5.453544985502958">
        <ele>237.58000000000001</ele>
        <time>2025-05-17T13:21:06Z</time>
      </trkpt>
      <trkpt lat="43.539612963795662" lon="5.453553032130003">
        <ele>237.09999999999999</ele>
        <time>2025-05-17T13:21:07Z</time>
      </trkpt>
      <trkpt lat="43.540600016713142" lon="5.453831981867552">
        <ele>236.13999999999999</ele>
        <time>2025-05-17T13:21:19Z</time>
      </trkpt>
      <trkpt lat="43.540743011981249" lon="5.453870035707951">
        <ele>236.62</ele>
        <time>2025-05-17T13:21:21Z</time>
      </trkpt>
      <trkpt lat="43.540815012529492" lon="5.453901970759034">
        <ele>236.62</ele>
        <time>2025-05-17T13:21:22Z</time>
      </trkpt>
      <trkpt lat="43.540881983935833" lon="5.453930972144008">
        <ele>236.62</ele>
        <time>2025-05-17T13:21:23Z</time>
      </trkpt>
      <trkpt lat="43.541508028283715" lon="5.454239007085562">
        <ele>239.50999999999999</ele>
        <time>2025-05-17T13:21:34Z</time>
      </trkpt>
      <trkpt lat="43.541797958314419" lon="5.454388037323952">
        <ele>239.50999999999999</ele>
        <time>2025-05-17T13:21:38Z</time>
      </trkpt>
      <trkpt lat="43.541873982176185" lon="5.454426007345319">
        <ele>239.50999999999999</ele>
        <time>2025-05-17T13:21:39Z</time>
      </trkpt>
      <trkpt lat="43.541953023523092" lon="5.454469006508589">
        <ele>239.02000000000001</ele>
        <time>2025-05-17T13:21:40Z</time>
      </trkpt>
      <trkpt lat="43.54209903627634" lon="5.454560033977032">
        <ele>238.06</ele>
        <time>2025-05-17T13:21:42Z</time>
      </trkpt>
      <trkpt lat="43.54237999767065" lon="5.454753991216421">
        <ele>237.58000000000001</ele>
        <time>2025-05-17T13:21:46Z</time>
      </trkpt>
      <trkpt lat="43.542440012097359" lon="5.454799002036452">
        <ele>238.06</ele>
        <time>2025-05-17T13:21:47Z</time>
      </trkpt>
      <trkpt lat="43.542488040402532" lon="5.454840995371342">
        <ele>238.06</ele>
        <time>2025-05-17T13:21:48Z</time>
      </trkpt>
      <trkpt lat="43.542526010423899" lon="5.454877959564328">
        <ele>238.06</ele>
        <time>2025-05-17T13:21:49Z</time>
      </trkpt>
      <trkpt lat="43.542563980445266" lon="5.454916013404727">
        <ele>238.06</ele>
        <time>2025-05-17T13:21:50Z</time>
      </trkpt>
      <trkpt lat="43.54263799265027" lon="5.454991031438112">
        <ele>238.53999999999999</ele>
        <time>2025-05-17T13:21:52Z</time>
      </trkpt>
      <trkpt lat="43.542681997641921" lon="5.455183982849121">
        <ele>239.02000000000001</ele>
        <time>2025-05-17T13:21:53Z</time>
      </trkpt>
      <trkpt lat="43.542738994583488" lon="5.455183982849121">
        <ele>239.02000000000001</ele>
        <time>2025-05-17T13:21:54Z</time>
      </trkpt>
      <trkpt lat="43.54280998930335" lon="5.455120028927922">
        <ele>239.50999999999999</ele>
        <time>2025-05-17T13:21:55Z</time>
      </trkpt>
      <trkpt lat="43.54287201538682" lon="5.455130003392696">
        <ele>239.99000000000001</ele>
        <time>2025-05-17T13:21:56Z</time>
      </trkpt>
      <trkpt lat="43.54313101619482" lon="5.455177025869489">
        <ele>240.94999999999999</ele>
        <time>2025-05-17T13:21:59Z</time>
      </trkpt>
      <trkpt lat="43.54371196590364" lon="5.455284984782338">
        <ele>245.27000000000001</ele>
        <time>2025-05-17T13:22:05Z</time>
      </trkpt>
      <trkpt lat="43.544459966942668" lon="5.455441977828741">
        <ele>251.03999999999999</ele>
        <time>2025-05-17T13:22:12Z</time>
      </trkpt>
      <trkpt lat="43.54456901550293" lon="5.455441977828741">
        <ele>252</ele>
        <time>2025-05-17T13:22:13Z</time>
      </trkpt>
      <trkpt lat="43.544791974127293" lon="5.455434015020728">
        <ele>252.96000000000001</ele>
        <time>2025-05-17T13:22:15Z</time>
      </trkpt>
      <trkpt lat="43.545776009559631" lon="5.455103013664484">
        <ele>259.20999999999998</ele>
        <time>2025-05-17T13:22:24Z</time>
      </trkpt>
      <trkpt lat="43.54588002897799" lon="5.455063031986356">
        <ele>259.69</ele>
        <time>2025-05-17T13:22:25Z</time>
      </trkpt>
      <trkpt lat="43.546096030622721" lon="5.454983990639448">
        <ele>262.10000000000002</ele>
        <time>2025-05-17T13:22:27Z</time>
      </trkpt>
      <trkpt lat="43.546222010627389" lon="5.454948032274842">
        <ele>263.06</ele>
        <time>2025-05-17T13:22:28Z</time>
      </trkpt>
      <trkpt lat="43.546543959528208" lon="5.454855998978019">
        <ele>266.42000000000002</ele>
        <time>2025-05-17T13:22:31Z</time>
      </trkpt>
      <trkpt lat="43.54665401391685" lon="5.454854993149638">
        <ele>267.86000000000001</ele>
        <time>2025-05-17T13:22:32Z</time>
      </trkpt>
      <trkpt lat="43.546764990314841" lon="5.454888017848134">
        <ele>269.31</ele>
        <time>2025-05-17T13:22:33Z</time>
      </trkpt>
      <trkpt lat="43.547906018793583" lon="5.455355979502201">
        <ele>281.80000000000001</ele>
        <time>2025-05-17T13:22:43Z</time>
      </trkpt>
      <trkpt lat="43.548532985150814" lon="5.455643981695175">
        <ele>288.05000000000001</ele>
        <time>2025-05-17T13:22:50Z</time>
      </trkpt>
      <trkpt lat="43.549322979524732" lon="5.456085037440062">
        <ele>294.30000000000001</ele>
        <time>2025-05-17T13:22:58Z</time>
      </trkpt>
      <trkpt lat="43.549654986709356" lon="5.456305984407663">
        <ele>294.77999999999997</ele>
        <time>2025-05-17T13:23:01Z</time>
      </trkpt>
      <trkpt lat="43.54977099224925" lon="5.456373961642385">
        <ele>294.77999999999997</ele>
        <time>2025-05-17T13:23:02Z</time>
      </trkpt>
      <trkpt lat="43.549886997789145" lon="5.456439005210996">
        <ele>294.77999999999997</ele>
        <time>2025-05-17T13:23:03Z</time>
      </trkpt>
      <trkpt lat="43.550930041819811" lon="5.457014003768563">
        <ele>294.77999999999997</ele>
        <time>2025-05-17T13:23:13Z</time>
      </trkpt>
      <trkpt lat="43.552227979525924" lon="5.457696039229631">
        <ele>295.74000000000001</ele>
        <time>2025-05-17T13:23:26Z</time>
      </trkpt>
      <trkpt lat="43.553547039628029" lon="5.458375979214907">
        <ele>297.67000000000002</ele>
        <time>2025-05-17T13:23:38Z</time>
      </trkpt>
      <trkpt lat="43.554458990693092" lon="5.458856010809541">
        <ele>297.67000000000002</ele>
        <time>2025-05-17T13:23:47Z</time>
      </trkpt>
      <trkpt lat="43.554774988442659" lon="5.459021972492337">
        <ele>297.18000000000001</ele>
        <time>2025-05-17T13:23:51Z</time>
      </trkpt>
      <trkpt lat="43.554996019229293" lon="5.459140995517373">
        <ele>296.22000000000003</ele>
        <time>2025-05-17T13:23:57Z</time>
      </trkpt>
      <trkpt lat="43.554996019229293" lon="5.459140995517373">
        <ele>296.22000000000003</ele>
        <time>2025-05-17T13:24:16Z</time>
      </trkpt>
      <trkpt lat="43.555214032530785" lon="5.459258006885648">
        <ele>294.77999999999997</ele>
        <time>2025-05-17T13:24:24Z</time>
      </trkpt>
      <trkpt lat="43.555214032530785" lon="5.459258006885648">
        <ele>294.77999999999997</ele>
        <time>2025-05-17T13:24:40Z</time>
      </trkpt>
      <trkpt lat="43.555231969803572" lon="5.459267981350422">
        <ele>294.77999999999997</ele>
        <time>2025-05-17T13:25:04Z</time>
      </trkpt>
      <trkpt lat="43.555298019200563" lon="5.45930402353406">
        <ele>291.89999999999998</ele>
        <time>2025-05-17T13:25:05Z</time>
      </trkpt>
      <trkpt lat="43.555331965908408" lon="5.459329001605511">
        <ele>291.42000000000002</ele>
        <time>2025-05-17T13:25:06Z</time>
      </trkpt>
      <trkpt lat="43.555394997820258" lon="5.459374012425542">
        <ele>290.94</ele>
        <time>2025-05-17T13:25:07Z</time>
      </trkpt>
      <trkpt lat="43.555475967004895" lon="5.459419023245573">
        <ele>290.94</ele>
        <time>2025-05-17T13:25:08Z</time>
      </trkpt>
      <trkpt lat="43.555556014180183" lon="5.459463028237224">
        <ele>290.94</ele>
        <time>2025-05-17T13:25:09Z</time>
      </trkpt>
      <trkpt lat="43.555865976959467" lon="5.459698978811503">
        <ele>291.42000000000002</ele>
        <time>2025-05-17T13:25:13Z</time>
      </trkpt>
      <trkpt lat="43.556256992742419" lon="5.459881033748388">
        <ele>292.38</ele>
        <time>2025-05-17T13:25:18Z</time>
      </trkpt>
      <trkpt lat="43.556347014382482" lon="5.45990701764822">
        <ele>292.38</ele>
        <time>2025-05-17T13:25:19Z</time>
      </trkpt>
      <trkpt lat="43.556512976065278" lon="5.459968037903309">
        <ele>292.38</ele>
        <time>2025-05-17T13:25:21Z</time>
      </trkpt>
      <trkpt lat="43.557022009044886" lon="5.460206000134349">
        <ele>293.33999999999997</ele>
        <time>2025-05-17T13:25:28Z</time>
      </trkpt>
      <trkpt lat="43.557124016806483" lon="5.46025101095438">
        <ele>293.81999999999999</ele>
        <time>2025-05-17T13:25:29Z</time>
      </trkpt>
      <trkpt lat="43.55799799785018" lon="5.460717966780067">
        <ele>298.63</ele>
        <time>2025-05-17T13:25:37Z</time>
      </trkpt>
      <trkpt lat="43.55881498195231" lon="5.461120968684554">
        <ele>302.47000000000003</ele>
        <time>2025-05-17T13:25:45Z</time>
      </trkpt>
      <trkpt lat="43.55887801386416" lon="5.46115399338305">
        <ele>302.94999999999999</ele>
        <time>2025-05-17T13:25:46Z</time>
      </trkpt>
      <trkpt lat="43.559077000245452" lon="5.461257006973028">
        <ele>304.88</ele>
        <time>2025-05-17T13:25:53Z</time>
      </trkpt>
      <trkpt lat="43.55948100797832" lon="5.461480971425772">
        <ele>307.75999999999999</ele>
        <time>2025-05-17T13:26:01Z</time>
      </trkpt>
      <trkpt lat="43.560288017615676" lon="5.461895037442446">
        <ele>313.05000000000001</ele>
        <time>2025-05-17T13:26:11Z</time>
      </trkpt>
      <trkpt lat="43.561279010027647" lon="5.462407004088163">
        <ele>317.37</ele>
        <time>2025-05-17T13:26:19Z</time>
      </trkpt>
      <trkpt lat="43.562443004921079" lon="5.462993988767266">
        <ele>317.85000000000002</ele>
        <time>2025-05-17T13:26:28Z</time>
      </trkpt>
      <trkpt lat="43.563891984522343" lon="5.463720029219985">
        <ele>320.25999999999999</ele>
        <time>2025-05-17T13:26:39Z</time>
      </trkpt>
      <trkpt lat="43.565349010750651" lon="5.464454032480717">
        <ele>325.06</ele>
        <time>2025-05-17T13:26:49Z</time>
      </trkpt>
      <trkpt lat="43.567055985331535" lon="5.465357014909387">
        <ele>331.79000000000002</ele>
        <time>2025-05-17T13:27:00Z</time>
      </trkpt>
      <trkpt lat="43.569138972088695" lon="5.466647995635867">
        <ele>332.26999999999998</ele>
        <time>2025-05-17T13:27:13Z</time>
      </trkpt>
      <trkpt lat="43.570689037442207" lon="5.46820099465549">
        <ele>335.63999999999999</ele>
        <time>2025-05-17T13:27:24Z</time>
      </trkpt>
      <trkpt lat="43.571400996297598" lon="5.468836007639766">
        <ele>338.04000000000002</ele>
        <time>2025-05-17T13:27:29Z</time>
      </trkpt>
      <trkpt lat="43.571558995172381" lon="5.468914965167642">
        <ele>338.51999999999998</ele>
        <time>2025-05-17T13:27:30Z</time>
      </trkpt>
      <trkpt lat="43.571715988218784" lon="5.468977997079492">
        <ele>339</ele>
        <time>2025-05-17T13:27:31Z</time>
      </trkpt>
      <trkpt lat="43.571880022063851" lon="5.469023007899523">
        <ele>339.48000000000002</ele>
        <time>2025-05-17T13:27:32Z</time>
      </trkpt>
      <trkpt lat="43.572043972089887" lon="5.469024013727903">
        <ele>340.44</ele>
        <time>2025-05-17T13:27:33Z</time>
      </trkpt>
      <trkpt lat="43.57237103395164" lon="5.469019990414381">
        <ele>341.88999999999999</ele>
        <time>2025-05-17T13:27:35Z</time>
      </trkpt>
      <trkpt lat="43.573492029681802" lon="5.468602990731597">
        <ele>344.76999999999998</ele>
        <time>2025-05-17T13:27:42Z</time>
      </trkpt>
      <trkpt lat="43.574157971888781" lon="5.468552028760314">
        <ele>342.85000000000002</ele>
        <time>2025-05-17T13:27:46Z</time>
      </trkpt>
      <trkpt lat="43.574322005733848" lon="5.468563009053469">
        <ele>342.37</ele>
        <time>2025-05-17T13:27:47Z</time>
      </trkpt>
      <trkpt lat="43.574472963809967" lon="5.468611959367991">
        <ele>341.41000000000003</ele>
        <time>2025-05-17T13:27:48Z</time>
      </trkpt>
      <trkpt lat="43.574624005705118" lon="5.468659987673163">
        <ele>340.44</ele>
        <time>2025-05-17T13:27:49Z</time>
      </trkpt>
      <trkpt lat="43.574769012629986" lon="5.468707010149956">
        <ele>339.48000000000002</ele>
        <time>2025-05-17T13:27:50Z</time>
      </trkpt>
      <trkpt lat="43.574904967099428" lon="5.468750009313226">
        <ele>338.51999999999998</ele>
        <time>2025-05-17T13:27:51Z</time>
      </trkpt>
      <trkpt lat="43.575547020882368" lon="5.4688670206815">
        <ele>335.63999999999999</ele>
        <time>2025-05-17T13:27:57Z</time>
      </trkpt>
      <trkpt lat="43.57563897036016" lon="5.468873977661133">
        <ele>335.63999999999999</ele>
        <time>2025-05-17T13:27:58Z</time>
      </trkpt>
      <trkpt lat="43.57572203502059" lon="5.468956036493182">
        <ele>335.63999999999999</ele>
        <time>2025-05-17T13:27:59Z</time>
      </trkpt>
      <trkpt lat="43.57585497200489" lon="5.46893298625946">
        <ele>336.12</ele>
        <time>2025-05-17T13:28:00Z</time>
      </trkpt>
      <trkpt lat="43.577061966061592" lon="5.46953103505075">
        <ele>338.04000000000002</ele>
        <time>2025-05-17T13:28:11Z</time>
      </trkpt>
      <trkpt lat="43.578180028125644" lon="5.470036966726184">
        <ele>334.19999999999999</ele>
        <time>2025-05-17T13:28:21Z</time>
      </trkpt>
      <trkpt lat="43.578276000916958" lon="5.470081977546215">
        <ele>333.70999999999998</ele>
        <time>2025-05-17T13:28:22Z</time>
      </trkpt>
      <trkpt lat="43.578466018661857" lon="5.470168981701136">
        <ele>332.26999999999998</ele>
        <time>2025-05-17T13:28:25Z</time>
      </trkpt>
      <trkpt lat="43.57851798646152" lon="5.470194965600967">
        <ele>331.79000000000002</ele>
        <time>2025-05-17T13:28:26Z</time>
      </trkpt>
      <trkpt lat="43.579214019700885" lon="5.470526972785592">
        <ele>327.94999999999999</ele>
        <time>2025-05-17T13:28:35Z</time>
      </trkpt>
      <trkpt lat="43.579649962484837" lon="5.470711961388588">
        <ele>326.99000000000001</ele>
        <time>2025-05-17T13:28:42Z</time>
      </trkpt>
      <trkpt lat="43.579649962484837" lon="5.470711961388588">
        <ele>326.99000000000001</ele>
        <time>2025-05-17T13:28:53Z</time>
      </trkpt>
      <trkpt lat="43.579663960263133" lon="5.470717996358872">
        <ele>326.99000000000001</ele>
        <time>2025-05-17T13:29:11Z</time>
      </trkpt>
      <trkpt lat="43.579697990790009" lon="5.470732999965549">
        <ele>326.99000000000001</ele>
        <time>2025-05-17T13:29:12Z</time>
      </trkpt>
      <trkpt lat="43.58006302267313" lon="5.470892004668713">
        <ele>325.06</ele>
        <time>2025-05-17T13:29:19Z</time>
      </trkpt>
      <trkpt lat="43.580467030405998" lon="5.471072969958186">
        <ele>324.10000000000002</ele>
        <time>2025-05-17T13:29:27Z</time>
      </trkpt>
      <trkpt lat="43.581392979249358" lon="5.471561970189214">
        <ele>324.10000000000002</ele>
        <time>2025-05-17T13:29:37Z</time>
      </trkpt>
      <trkpt lat="43.582285987213254" lon="5.472270995378494">
        <ele>328.43000000000001</ele>
        <time>2025-05-17T13:29:48Z</time>
      </trkpt>
      <trkpt lat="43.582451026886702" lon="5.472445003688335">
        <ele>330.82999999999998</ele>
        <time>2025-05-17T13:29:55Z</time>
      </trkpt>
      <trkpt lat="43.582530990242958" lon="5.472749015316367">
        <ele>332.75</ele>
        <time>2025-05-17T13:30:05Z</time>
      </trkpt>
      <trkpt lat="43.58247097581625" lon="5.472929980605841">
        <ele>332.26999999999998</ele>
        <time>2025-05-17T13:30:09Z</time>
      </trkpt>
      <trkpt lat="43.582338960841298" lon="5.472833001986146">
        <ele>331.79000000000002</ele>
        <time>2025-05-17T13:30:16Z</time>
      </trkpt>
      <trkpt lat="43.582350024953485" lon="5.472817998379469">
        <ele>331.31</ele>
        <time>2025-05-17T13:30:36Z</time>
      </trkpt>
      <trkpt lat="43.582350024953485" lon="5.472817998379469">
        <ele>331.31</ele>
        <time>2025-05-17T13:30:56Z</time>
      </trkpt>
      <trkpt lat="43.582324041053653" lon="5.472815986722708">
        <ele>333.23000000000002</ele>
        <time>2025-05-17T13:30:57Z</time>
      </trkpt>
      <trkpt lat="43.582306019961834" lon="5.472755972296">
        <ele>331.79000000000002</ele>
        <time>2025-05-17T13:31:07Z</time>
      </trkpt>
      <trkpt lat="43.582311971113086" lon="5.472751026973128">
        <ele>331.31</ele>
        <time>2025-05-17T13:31:54Z</time>
      </trkpt>
      <trkpt lat="43.582310965284705" lon="5.472750021144748">
        <ele>331.31</ele>
        <time>2025-05-17T13:32:40Z</time>
      </trkpt>
      <trkpt lat="43.582312976941466" lon="5.472740968689323">
        <ele>330.82999999999998</ele>
        <time>2025-05-17T13:33:16Z</time>
      </trkpt>
      <trkpt lat="43.582396041601896" lon="5.472425976768136">
        <ele>356.31</ele>
        <time>2025-05-17T13:36:12Z</time>
      </trkpt>
      <trkpt lat="43.582337033003569" lon="5.472673997282982">
        <ele>340.44</ele>
        <time>2025-05-17T13:36:28Z</time>
      </trkpt>
      <trkpt lat="43.582367962226272" lon="5.472566038370132">
        <ele>337.56</ele>
        <time>2025-05-17T13:36:59Z</time>
      </trkpt>
      <trkpt lat="43.582356981933117" lon="5.47249797731638">
        <ele>321.69999999999999</ele>
        <time>2025-05-17T13:37:37Z</time>
      </trkpt>
      <trkpt lat="43.582413978874683" lon="5.472407033666968">
        <ele>327.47000000000003</ele>
        <time>2025-05-17T13:37:55Z</time>
      </trkpt>
      <trkpt lat="43.582387994974852" lon="5.472379960119724">
        <ele>327.47000000000003</ele>
        <time>2025-05-17T13:37:56Z</time>
      </trkpt>
      <trkpt lat="43.582354970276356" lon="5.472345007583499">
        <ele>327.47000000000003</ele>
        <time>2025-05-17T13:37:57Z</time>
      </trkpt>
      <trkpt lat="43.582324041053653" lon="5.472311982885003">
        <ele>327.47000000000003</ele>
        <time>2025-05-17T13:37:58Z</time>
      </trkpt>
      <trkpt lat="43.582174004986882" lon="5.472726970911026">
        <ele>327.94999999999999</ele>
        <time>2025-05-17T13:38:03Z</time>
      </trkpt>
      <trkpt lat="43.582193031907082" lon="5.472757983952761">
        <ele>328.43000000000001</ele>
        <time>2025-05-17T13:38:04Z</time>
      </trkpt>
      <trkpt lat="43.582421019673347" lon="5.473080016672611">
        <ele>329.87</ele>
        <time>2025-05-17T13:38:14Z</time>
      </trkpt>
      <trkpt lat="43.582421019673347" lon="5.473080016672611">
        <ele>330.82999999999998</ele>
        <time>2025-05-17T13:38:15Z</time>
      </trkpt>
      <trkpt lat="43.582456978037953" lon="5.47297197394073">
        <ele>331.31</ele>
        <time>2025-05-17T13:38:16Z</time>
      </trkpt>
      <trkpt lat="43.58247198164463" lon="5.472926963120699">
        <ele>331.79000000000002</ele>
        <time>2025-05-17T13:38:17Z</time>
      </trkpt>
      <trkpt lat="43.582485979422927" lon="5.472883963957429">
        <ele>331.79000000000002</ele>
        <time>2025-05-17T13:38:18Z</time>
      </trkpt>
      <trkpt lat="43.582515986636281" lon="5.472794026136398">
        <ele>331.79000000000002</ele>
        <time>2025-05-17T13:38:20Z</time>
      </trkpt>
      <trkpt lat="43.582552028819919" lon="5.472693024203181">
        <ele>331.79000000000002</ele>
        <time>2025-05-17T13:38:21Z</time>
      </trkpt>
      <trkpt lat="43.582595027983189" lon="5.472679026424885">
        <ele>331.79000000000002</ele>
        <time>2025-05-17T13:38:22Z</time>
      </trkpt>
      <trkpt lat="43.582692006602883" lon="5.472662011161447">
        <ele>331.79000000000002</ele>
        <time>2025-05-17T13:38:23Z</time>
      </trkpt>
      <trkpt lat="43.582740034908056" lon="5.472702998667955">
        <ele>331.31</ele>
        <time>2025-05-17T13:38:24Z</time>
      </trkpt>
      <trkpt lat="43.582790996879339" lon="5.472747003659606">
        <ele>331.31</ele>
        <time>2025-05-17T13:38:25Z</time>
      </trkpt>
      <trkpt lat="43.582828966900706" lon="5.472779022529721">
        <ele>331.31</ele>
        <time>2025-05-17T13:38:26Z</time>
      </trkpt>
      <trkpt lat="43.582884036004543" lon="5.472835013642907">
        <ele>331.79000000000002</ele>
        <time>2025-05-17T13:38:27Z</time>
      </trkpt>
      <trkpt lat="43.582926029339433" lon="5.472877006977797">
        <ele>331.79000000000002</ele>
        <time>2025-05-17T13:38:28Z</time>
      </trkpt>
      <trkpt lat="43.582969028502703" lon="5.472916988655925">
        <ele>332.26999999999998</ele>
        <time>2025-05-17T13:38:29Z</time>
      </trkpt>
      <trkpt lat="43.583488035947084" lon="5.47335796058178">
        <ele>333.70999999999998</ele>
        <time>2025-05-17T13:38:38Z</time>
      </trkpt>
      <trkpt lat="43.58358995988965" lon="5.473495004698634">
        <ele>334.19999999999999</ele>
        <time>2025-05-17T13:38:40Z</time>
      </trkpt>
      <trkpt lat="43.583730021491647" lon="5.473680999130011">
        <ele>334.68000000000001</ele>
        <time>2025-05-17T13:38:43Z</time>
      </trkpt>
      <trkpt lat="43.583859018981457" lon="5.473702037706971">
        <ele>335.16000000000003</ele>
        <time>2025-05-17T13:38:44Z</time>
      </trkpt>
      <trkpt lat="43.584620011970401" lon="5.474115014076233">
        <ele>333.70999999999998</ele>
        <time>2025-05-17T13:38:53Z</time>
      </trkpt>
      <trkpt lat="43.585576973855495" lon="5.474726976826787">
        <ele>336.60000000000002</ele>
        <time>2025-05-17T13:39:04Z</time>
      </trkpt>
      <trkpt lat="43.585917027667165" lon="5.474971979856491">
        <ele>336.12</ele>
        <time>2025-05-17T13:39:09Z</time>
      </trkpt>
      <trkpt lat="43.586754966527224" lon="5.475621996447444">
        <ele>338.04000000000002</ele>
        <time>2025-05-17T13:39:21Z</time>
      </trkpt>
      <trkpt lat="43.587050009518862" lon="5.475839003920555">
        <ele>338.51999999999998</ele>
        <time>2025-05-17T13:39:28Z</time>
      </trkpt>
      <trkpt lat="43.587113041430712" lon="5.475885020568967">
        <ele>338.51999999999998</ele>
        <time>2025-05-17T13:39:29Z</time>
      </trkpt>
      <trkpt lat="43.587654009461403" lon="5.476348958909512">
        <ele>339.48000000000002</ele>
        <time>2025-05-17T13:39:37Z</time>
      </trkpt>
      <trkpt lat="43.587973024696112" lon="5.476615000516176">
        <ele>340.44</ele>
        <time>2025-05-17T13:39:41Z</time>
      </trkpt>
      <trkpt lat="43.588033961132169" lon="5.476676020771265">
        <ele>340.92000000000002</ele>
        <time>2025-05-17T13:39:42Z</time>
      </trkpt>
      <trkpt lat="43.588122976943851" lon="5.47673000022769">
        <ele>340.92000000000002</ele>
        <time>2025-05-17T13:39:43Z</time>
      </trkpt>
      <trkpt lat="43.588209981098771" lon="5.476781968027353">
        <ele>341.88999999999999</ele>
        <time>2025-05-17T13:39:44Z</time>
      </trkpt>
      <trkpt lat="43.588301008567214" lon="5.476840976625681">
        <ele>342.37</ele>
        <time>2025-05-17T13:39:45Z</time>
      </trkpt>
      <trkpt lat="43.588397987186909" lon="5.47690199688077">
        <ele>343.32999999999998</ele>
        <time>2025-05-17T13:39:46Z</time>
      </trkpt>
      <trkpt lat="43.588494965806603" lon="5.476963017135859">
        <ele>344.29000000000002</ele>
        <time>2025-05-17T13:39:47Z</time>
      </trkpt>
      <trkpt lat="43.589241039007902" lon="5.477326037362218">
        <ele>350.54000000000002</ele>
        <time>2025-05-17T13:39:55Z</time>
      </trkpt>
      <trkpt lat="43.589546978473663" lon="5.477563999593258">
        <ele>351.5</ele>
        <time>2025-05-17T13:40:00Z</time>
      </trkpt>
      <trkpt lat="43.589610010385513" lon="5.477615967392921">
        <ele>351.5</ele>
        <time>2025-05-17T13:40:01Z</time>
      </trkpt>
      <trkpt lat="43.589676981791854" lon="5.477671036496759">
        <ele>351.98000000000002</ele>
        <time>2025-05-17T13:40:02Z</time>
      </trkpt>
      <trkpt lat="43.59016397036612" lon="5.478188032284379">
        <ele>350.54000000000002</ele>
        <time>2025-05-17T13:40:09Z</time>
      </trkpt>
      <trkpt lat="43.590564038604498" lon="5.478761019185185">
        <ele>350.06</ele>
        <time>2025-05-17T13:40:16Z</time>
      </trkpt>
      <trkpt lat="43.59061298891902" lon="5.478833019733429">
        <ele>349.57999999999998</ele>
        <time>2025-05-17T13:40:17Z</time>
      </trkpt>
      <trkpt lat="43.590669985860586" lon="5.47892002388835">
        <ele>349.10000000000002</ele>
        <time>2025-05-17T13:40:18Z</time>
      </trkpt>
      <trkpt lat="43.590734023600817" lon="5.479015996679664">
        <ele>349.10000000000002</ele>
        <time>2025-05-17T13:40:19Z</time>
      </trkpt>
      <trkpt lat="43.590802000835538" lon="5.479116998612881">
        <ele>348.62</ele>
        <time>2025-05-17T13:40:20Z</time>
      </trkpt>
      <trkpt lat="43.591624014079571" lon="5.480271019041538">
        <ele>345.25</ele>
        <time>2025-05-17T13:40:30Z</time>
      </trkpt>
      <trkpt lat="43.592914994806051" lon="5.481508020311594">
        <ele>351.5</ele>
        <time>2025-05-17T13:40:43Z</time>
      </trkpt>
      <trkpt lat="43.59334297478199" lon="5.481774983927608">
        <ele>353.42000000000002</ele>
        <time>2025-05-17T13:40:47Z</time>
      </trkpt>
      <trkpt lat="43.593495022505522" lon="5.481867017224431">
        <ele>354.38</ele>
        <time>2025-05-17T13:40:49Z</time>
      </trkpt>
      <trkpt lat="43.593627037480474" lon="5.481947986409068">
        <ele>355.33999999999997</ele>
        <time>2025-05-17T13:40:55Z</time>
      </trkpt>
      <trkpt lat="43.59364103525877" lon="5.481956033036113">
        <ele>355.33999999999997</ele>
        <time>2025-05-17T13:40:56Z</time>
      </trkpt>
      <trkpt lat="43.593657966703176" lon="5.481966007500887">
        <ele>355.33999999999997</ele>
        <time>2025-05-17T13:40:57Z</time>
      </trkpt>
      <trkpt lat="43.59379299916327" lon="5.482048988342285">
        <ele>356.31</ele>
        <time>2025-05-17T13:41:01Z</time>
      </trkpt>
      <trkpt lat="43.593834992498159" lon="5.482076983898878">
        <ele>356.79000000000002</ele>
        <time>2025-05-17T13:41:02Z</time>
      </trkpt>
      <trkpt lat="43.59379299916327" lon="5.482242023572326">
        <ele>356.79000000000002</ele>
        <time>2025-05-17T13:41:03Z</time>
      </trkpt>
      <trkpt lat="43.593829041346908" lon="5.48240102827549">
        <ele>356.79000000000002</ele>
        <time>2025-05-17T13:41:05Z</time>
      </trkpt>
      <trkpt lat="43.593873968347907" lon="5.482485014945269">
        <ele>356.79000000000002</ele>
        <time>2025-05-17T13:41:06Z</time>
      </trkpt>
      <trkpt lat="43.593958038836718" lon="5.482491971924901">
        <ele>357.26999999999998</ele>
        <time>2025-05-17T13:41:07Z</time>
      </trkpt>
      <trkpt lat="43.594021992757916" lon="5.482460036873817">
        <ele>356.79000000000002</ele>
        <time>2025-05-17T13:41:08Z</time>
      </trkpt>
      <trkpt lat="43.594072032719851" lon="5.482434974983335">
        <ele>356.31</ele>
        <time>2025-05-17T13:41:09Z</time>
      </trkpt>
      <trkpt lat="43.594072032719851" lon="5.482434974983335">
        <ele>355.82999999999998</ele>
        <time>2025-05-17T13:41:10Z</time>
      </trkpt>
      <trkpt lat="43.594212010502815" lon="5.482249986380339">
        <ele>355.82999999999998</ele>
        <time>2025-05-17T13:41:11Z</time>
      </trkpt>
      <trkpt lat="43.594284011051059" lon="5.482258033007383">
        <ele>355.33999999999997</ele>
        <time>2025-05-17T13:41:12Z</time>
      </trkpt>
      <trkpt lat="43.594370009377599" lon="5.482285022735596">
        <ele>355.82999999999998</ele>
        <time>2025-05-17T13:41:13Z</time>
      </trkpt>
      <trkpt lat="43.594445027410984" lon="5.482326010242105">
        <ele>356.31</ele>
        <time>2025-05-17T13:41:14Z</time>
      </trkpt>
      <trkpt lat="43.594514010474086" lon="5.482363980263472">
        <ele>356.31</ele>
        <time>2025-05-17T13:41:15Z</time>
      </trkpt>
      <trkpt lat="43.594642002135515" lon="5.482455007731915">
        <ele>357.26999999999998</ele>
        <time>2025-05-17T13:41:17Z</time>
      </trkpt>
      <trkpt lat="43.594705034047365" lon="5.482507981359959">
        <ele>357.26999999999998</ele>
        <time>2025-05-17T13:41:18Z</time>
      </trkpt>
      <trkpt lat="43.595309033989906" lon="5.483040986582637">
        <ele>358.23000000000002</ele>
        <time>2025-05-17T13:41:28Z</time>
      </trkpt>
      <trkpt lat="43.595559988170862" lon="5.483336029574275">
        <ele>358.70999999999998</ele>
        <time>2025-05-17T13:41:32Z</time>
      </trkpt>
      <trkpt lat="43.596345959231257" lon="5.484108002856374">
        <ele>361.11000000000001</ele>
        <time>2025-05-17T13:41:42Z</time>
      </trkpt>
      <trkpt lat="43.596425000578165" lon="5.484168017283082">
        <ele>361.58999999999997</ele>
        <time>2025-05-17T13:41:43Z</time>
      </trkpt>
      <trkpt lat="43.596501024439931" lon="5.484225014224649">
        <ele>362.06999999999999</ele>
        <time>2025-05-17T13:41:44Z</time>
      </trkpt>
      <trkpt lat="43.596570007503033" lon="5.484275976195931">
        <ele>362.06999999999999</ele>
        <time>2025-05-17T13:41:45Z</time>
      </trkpt>
      <trkpt lat="43.596637984737754" lon="5.484327021986246">
        <ele>362.55000000000001</ele>
        <time>2025-05-17T13:41:46Z</time>
      </trkpt>
      <trkpt lat="43.596920035779476" lon="5.484537994489074">
        <ele>363.51999999999998</ele>
        <time>2025-05-17T13:41:50Z</time>
      </trkpt>
      <trkpt lat="43.597135031595826" lon="5.484660034999251">
        <ele>363.51999999999998</ele>
        <time>2025-05-17T13:41:53Z</time>
      </trkpt>
      <trkpt lat="43.597195968031883" lon="5.484691970050335">
        <ele>364</ele>
        <time>2025-05-17T13:41:54Z</time>
      </trkpt>
      <trkpt lat="43.597254976630211" lon="5.48472398892045">
        <ele>364</ele>
        <time>2025-05-17T13:41:55Z</time>
      </trkpt>
      <trkpt lat="43.597356984391809" lon="5.484768999740481">
        <ele>364</ele>
        <time>2025-05-17T13:41:57Z</time>
      </trkpt>
      <trkpt lat="43.597420016303658" lon="5.484795989468694">
        <ele>364.48000000000002</ele>
        <time>2025-05-17T13:41:58Z</time>
      </trkpt>
      <trkpt lat="43.597420016303658" lon="5.484795989468694">
        <ele>364.48000000000002</ele>
        <time>2025-05-17T13:41:59Z</time>
      </trkpt>
      <trkpt lat="43.597464021295309" lon="5.484807975590229">
        <ele>364.48000000000002</ele>
        <time>2025-05-17T13:42:00Z</time>
      </trkpt>
      <trkpt lat="43.597496040165424" lon="5.484817028045654">
        <ele>364.48000000000002</ele>
        <time>2025-05-17T13:42:01Z</time>
      </trkpt>
      <trkpt lat="43.597522024065256" lon="5.484823985025287">
        <ele>364.95999999999998</ele>
        <time>2025-05-17T13:42:02Z</time>
      </trkpt>
      <trkpt lat="43.597548007965088" lon="5.484832031652331">
        <ele>364.95999999999998</ele>
        <time>2025-05-17T13:42:03Z</time>
      </trkpt>
      <trkpt lat="43.597572986036539" lon="5.484838988631964">
        <ele>364.95999999999998</ele>
        <time>2025-05-17T13:42:04Z</time>
      </trkpt>
      <trkpt lat="43.597611039876938" lon="5.484848963096738">
        <ele>365.44</ele>
        <time>2025-05-17T13:42:06Z</time>
      </trkpt>
      <trkpt lat="43.597625959664583" lon="5.48485298641026">
        <ele>365.44</ele>
        <time>2025-05-17T13:42:07Z</time>
      </trkpt>
      <trkpt lat="43.597653033211827" lon="5.484861033037305">
        <ele>365.92000000000002</ele>
        <time>2025-05-17T13:42:08Z</time>
      </trkpt>
      <trkpt lat="43.597743976861238" lon="5.484886011108756">
        <ele>366.39999999999998</ele>
        <time>2025-05-17T13:42:10Z</time>
      </trkpt>
      <trkpt lat="43.597985962405801" lon="5.484952982515097">
        <ele>367.36000000000001</ele>
        <time>2025-05-17T13:42:14Z</time>
      </trkpt>
      <trkpt lat="43.598561966791749" lon="5.485053984448314">
        <ele>368.80000000000001</ele>
        <time>2025-05-17T13:42:25Z</time>
      </trkpt>
      <trkpt lat="43.598707979544997" lon="5.485095977783203">
        <ele>368.80000000000001</ele>
        <time>2025-05-17T13:42:27Z</time>
      </trkpt>
      <trkpt lat="43.598964968696237" lon="5.485138976946473">
        <ele>369.75999999999999</ele>
        <time>2025-05-17T13:42:31Z</time>
      </trkpt>
      <trkpt lat="43.59901400282979" lon="5.485144006088376">
        <ele>369.75999999999999</ele>
        <time>2025-05-17T13:42:32Z</time>
      </trkpt>
      <trkpt lat="43.599146017804742" lon="5.485155992209911">
        <ele>370.24000000000001</ele>
        <time>2025-05-17T13:42:34Z</time>
      </trkpt>
      <trkpt lat="43.599209971725941" lon="5.485162027180195">
        <ele>370.73000000000002</ele>
        <time>2025-05-17T13:42:35Z</time>
      </trkpt>
      <trkpt lat="43.59933502972126" lon="5.48517401330173">
        <ele>370.73000000000002</ele>
        <time>2025-05-17T13:42:37Z</time>
      </trkpt>
      <trkpt lat="43.599414993077517" lon="5.485181976109743">
        <ele>370.73000000000002</ele>
        <time>2025-05-17T13:42:39Z</time>
      </trkpt>
      <trkpt lat="43.59950702637434" lon="5.48528197221458">
        <ele>371.20999999999998</ele>
        <time>2025-05-17T13:42:40Z</time>
      </trkpt>
      <trkpt lat="43.599563017487526" lon="5.485341986641288">
        <ele>370.73000000000002</ele>
        <time>2025-05-17T13:42:41Z</time>
      </trkpt>
      <trkpt lat="43.599612973630428" lon="5.485397977754474">
        <ele>371.20999999999998</ele>
        <time>2025-05-17T13:42:42Z</time>
      </trkpt>
      <trkpt lat="43.599651027470827" lon="5.485438965260983">
        <ele>371.69</ele>
        <time>2025-05-17T13:42:43Z</time>
      </trkpt>
      <trkpt lat="43.599697966128588" lon="5.485533010214567">
        <ele>371.20999999999998</ele>
        <time>2025-05-17T13:42:44Z</time>
      </trkpt>
      <trkpt lat="43.599743982776999" lon="5.485612973570824">
        <ele>371.20999999999998</ele>
        <time>2025-05-17T13:42:45Z</time>
      </trkpt>
      <trkpt lat="43.599794022738934" lon="5.485694026574493">
        <ele>371.20999999999998</ele>
        <time>2025-05-17T13:42:46Z</time>
      </trkpt>
      <trkpt lat="43.600326022133231" lon="5.486541017889977">
        <ele>372.64999999999998</ele>
        <time>2025-05-17T13:42:56Z</time>
      </trkpt>
      <trkpt lat="43.600573036819696" lon="5.486928010359407">
        <ele>373.13</ele>
        <time>2025-05-17T13:43:01Z</time>
      </trkpt>
      <trkpt lat="43.600760959088802" lon="5.487250965088606">
        <ele>372.17000000000002</ele>
        <time>2025-05-17T13:43:05Z</time>
      </trkpt>
      <trkpt lat="43.600798007100821" lon="5.48732397146523">
        <ele>371.69</ele>
        <time>2025-05-17T13:43:06Z</time>
      </trkpt>
      <trkpt lat="43.600809993222356" lon="5.487349033355713">
        <ele>371.20999999999998</ele>
        <time>2025-05-17T13:43:07Z</time>
      </trkpt>
      <trkpt lat="43.600790966302156" lon="5.487566962838173">
        <ele>370.73000000000002</ele>
        <time>2025-05-17T13:43:08Z</time>
      </trkpt>
      <trkpt lat="43.600832037627697" lon="5.487627983093262">
        <ele>370.24000000000001</ele>
        <time>2025-05-17T13:43:09Z</time>
      </trkpt>
      <trkpt lat="43.600914012640715" lon="5.487600993365049">
        <ele>370.24000000000001</ele>
        <time>2025-05-17T13:43:10Z</time>
      </trkpt>
      <trkpt lat="43.601021971553564" lon="5.487677017226815">
        <ele>370.24000000000001</ele>
        <time>2025-05-17T13:43:11Z</time>
      </trkpt>
      <trkpt lat="43.601081985980272" lon="5.487767960876226">
        <ele>369.75999999999999</ele>
        <time>2025-05-17T13:43:12Z</time>
      </trkpt>
      <trkpt lat="43.601130014285445" lon="5.487900981679559">
        <ele>369.75999999999999</ele>
        <time>2025-05-17T13:43:13Z</time>
      </trkpt>
      <trkpt lat="43.601176030933857" lon="5.488039031624794">
        <ele>369.75999999999999</ele>
        <time>2025-05-17T13:43:14Z</time>
      </trkpt>
      <trkpt lat="43.601207965984941" lon="5.488189989700913">
        <ele>370.24000000000001</ele>
        <time>2025-05-17T13:43:15Z</time>
      </trkpt>
      <trkpt lat="43.601229004561901" lon="5.488347988575697">
        <ele>370.24000000000001</ele>
        <time>2025-05-17T13:43:16Z</time>
      </trkpt>
      <trkpt lat="43.601229004561901" lon="5.488517973572016">
        <ele>370.24000000000001</ele>
        <time>2025-05-17T13:43:17Z</time>
      </trkpt>
      <trkpt lat="43.601210983470082" lon="5.488679995760322">
        <ele>369.75999999999999</ele>
        <time>2025-05-17T13:43:18Z</time>
      </trkpt>
      <trkpt lat="43.601192040368915" lon="5.488844029605389">
        <ele>369.27999999999997</ele>
        <time>2025-05-17T13:43:19Z</time>
      </trkpt>
      <trkpt lat="43.601175025105476" lon="5.48899901099503">
        <ele>368.80000000000001</ele>
        <time>2025-05-17T13:43:20Z</time>
      </trkpt>
      <trkpt lat="43.601110987365246" lon="5.489130020141602">
        <ele>368.31999999999999</ele>
        <time>2025-05-17T13:43:21Z</time>
      </trkpt>
      <trkpt lat="43.601045021787286" lon="5.489261029288173">
        <ele>367.83999999999997</ele>
        <time>2025-05-17T13:43:22Z</time>
      </trkpt>
      <trkpt lat="43.600963968783617" lon="5.489376028999686">
        <ele>367.36000000000001</ele>
        <time>2025-05-17T13:43:23Z</time>
      </trkpt>
      <trkpt lat="43.600722989067435" lon="5.489755980670452">
        <ele>365.44</ele>
        <time>2025-05-17T13:43:26Z</time>
      </trkpt>
      <trkpt lat="43.600673032924533" lon="5.489907022565603">
        <ele>364.48000000000002</ele>
        <time>2025-05-17T13:43:27Z</time>
      </trkpt>
      <trkpt lat="43.600632967427373" lon="5.490059992298484">
        <ele>364</ele>
        <time>2025-05-17T13:43:28Z</time>
      </trkpt>
      <trkpt lat="43.600613018497825" lon="5.490235006436706">
        <ele>363.51999999999998</ele>
        <time>2025-05-17T13:43:29Z</time>
      </trkpt>
      <trkpt lat="43.600591979920864" lon="5.490428041666746">
        <ele>362.55000000000001</ele>
        <time>2025-05-17T13:43:30Z</time>
      </trkpt>
      <trkpt lat="43.600473962724209" lon="5.491603016853333">
        <ele>357.75</ele>
        <time>2025-05-17T13:43:35Z</time>
      </trkpt>
      <trkpt lat="43.60051603987813" lon="5.491861011832953">
        <ele>356.31</ele>
        <time>2025-05-17T13:43:36Z</time>
      </trkpt>
      <trkpt lat="43.600564990192652" lon="5.492120012640953">
        <ele>354.86000000000001</ele>
        <time>2025-05-17T13:43:37Z</time>
      </trkpt>
      <trkpt lat="43.600660962983966" lon="5.492340037599206">
        <ele>353.89999999999998</ele>
        <time>2025-05-17T13:43:38Z</time>
      </trkpt>
      <trkpt lat="43.600777974352241" lon="5.49254103563726">
        <ele>352.94</ele>
        <time>2025-05-17T13:43:39Z</time>
      </trkpt>
      <trkpt lat="43.600914012640715" lon="5.492734992876649">
        <ele>351.5</ele>
        <time>2025-05-17T13:43:40Z</time>
      </trkpt>
      <trkpt lat="43.602512022480369" lon="5.49501596018672">
        <ele>337.56</ele>
        <time>2025-05-17T13:43:51Z</time>
      </trkpt>
      <trkpt lat="43.602662980556488" lon="5.49520798958838">
        <ele>336.60000000000002</ele>
        <time>2025-05-17T13:43:52Z</time>
      </trkpt>
      <trkpt lat="43.602833971381187" lon="5.495373029261828">
        <ele>335.63999999999999</ele>
        <time>2025-05-17T13:43:53Z</time>
      </trkpt>
      <trkpt lat="43.603176958858967" lon="5.495704030618072">
        <ele>334.19999999999999</ele>
        <time>2025-05-17T13:43:55Z</time>
      </trkpt>
      <trkpt lat="43.60333202406764" lon="5.495878960937262">
        <ele>333.23000000000002</ele>
        <time>2025-05-17T13:43:56Z</time>
      </trkpt>
      <trkpt lat="43.603613991290331" lon="5.496188001707196">
        <ele>332.26999999999998</ele>
        <time>2025-05-17T13:43:58Z</time>
      </trkpt>
      <trkpt lat="43.603752041235566" lon="5.496251033619046">
        <ele>331.79000000000002</ele>
        <time>2025-05-17T13:43:59Z</time>
      </trkpt>
      <trkpt lat="43.603898975998163" lon="5.49624097533524">
        <ele>330.82999999999998</ele>
        <time>2025-05-17T13:44:00Z</time>
      </trkpt>
      <trkpt lat="43.60404297709465" lon="5.496223960071802">
        <ele>330.35000000000002</ele>
        <time>2025-05-17T13:44:01Z</time>
      </trkpt>
      <trkpt lat="43.604194018989801" lon="5.496128993108869">
        <ele>329.87</ele>
        <time>2025-05-17T13:44:02Z</time>
      </trkpt>
      <trkpt lat="43.604337014257908" lon="5.495988009497523">
        <ele>329.38999999999999</ele>
        <time>2025-05-17T13:44:03Z</time>
      </trkpt>
      <trkpt lat="43.604480009526014" lon="5.495834033936262">
        <ele>329.38999999999999</ele>
        <time>2025-05-17T13:44:04Z</time>
      </trkpt>
      <trkpt lat="43.604619987308979" lon="5.49565801396966">
        <ele>329.38999999999999</ele>
        <time>2025-05-17T13:44:05Z</time>
      </trkpt>
      <trkpt lat="43.605285007506609" lon="5.494818985462189">
        <ele>328.43000000000001</ele>
        <time>2025-05-17T13:44:10Z</time>
      </trkpt>
      <trkpt lat="43.605400007218122" lon="5.494672972708941">
        <ele>328.43000000000001</ele>
        <time>2025-05-17T13:44:11Z</time>
      </trkpt>
      <trkpt lat="43.605931000784039" lon="5.494066039100289">
        <ele>326.99000000000001</ele>
        <time>2025-05-17T13:44:16Z</time>
      </trkpt>
      <trkpt lat="43.606047006323934" lon="5.493991021066904">
        <ele>326.99000000000001</ele>
        <time>2025-05-17T13:44:17Z</time>
      </trkpt>
      <trkpt lat="43.606308018788695" lon="5.493917008861899">
        <ele>326.5</ele>
        <time>2025-05-17T13:44:19Z</time>
      </trkpt>
      <trkpt lat="43.606449002400041" lon="5.493942992761731">
        <ele>326.5</ele>
        <time>2025-05-17T13:44:20Z</time>
      </trkpt>
      <trkpt lat="43.606582023203373" lon="5.494006024673581">
        <ele>326.5</ele>
        <time>2025-05-17T13:44:21Z</time>
      </trkpt>
      <trkpt lat="43.606712026521564" lon="5.494095040485263">
        <ele>326.5</ele>
        <time>2025-05-17T13:44:22Z</time>
      </trkpt>
      <trkpt lat="43.606832977384329" lon="5.494175003841519">
        <ele>326.01999999999998</ele>
        <time>2025-05-17T13:44:23Z</time>
      </trkpt>
      <trkpt lat="43.606930961832404" lon="5.494298972189426">
        <ele>325.54000000000002</ele>
        <time>2025-05-17T13:44:24Z</time>
      </trkpt>
      <trkpt lat="43.607017965987325" lon="5.494417995214462">
        <ele>325.54000000000002</ele>
        <time>2025-05-17T13:44:25Z</time>
      </trkpt>
      <trkpt lat="43.607011009007692" lon="5.494730975478888">
        <ele>325.54000000000002</ele>
        <time>2025-05-17T13:44:26Z</time>
      </trkpt>
      <trkpt lat="43.607022995129228" lon="5.494754025712609">
        <ele>325.06</ele>
        <time>2025-05-17T13:44:27Z</time>
      </trkpt>
      <trkpt lat="43.607067000120878" lon="5.49484102986753">
        <ele>325.06</ele>
        <time>2025-05-17T13:44:28Z</time>
      </trkpt>
      <trkpt lat="43.607159033417702" lon="5.494875982403755">
        <ele>324.57999999999998</ele>
        <time>2025-05-17T13:44:29Z</time>
      </trkpt>
      <trkpt lat="43.607183005660772" lon="5.494881011545658">
        <ele>323.62</ele>
        <time>2025-05-17T13:44:30Z</time>
      </trkpt>
      <trkpt lat="43.607361037284136" lon="5.494779003784061">
        <ele>323.13999999999999</ele>
        <time>2025-05-17T13:44:31Z</time>
      </trkpt>
      <trkpt lat="43.607456004247069" lon="5.494831977412105">
        <ele>323.13999999999999</ele>
        <time>2025-05-17T13:44:32Z</time>
      </trkpt>
      <trkpt lat="43.607569998130202" lon="5.494901966303587">
        <ele>322.66000000000003</ele>
        <time>2025-05-17T13:44:33Z</time>
      </trkpt>
      <trkpt lat="43.607691032811999" lon="5.494983019307256">
        <ele>322.18000000000001</ele>
        <time>2025-05-17T13:44:34Z</time>
      </trkpt>
      <trkpt lat="43.607811983674765" lon="5.495098019018769">
        <ele>321.69999999999999</ele>
        <time>2025-05-17T13:44:35Z</time>
      </trkpt>
      <trkpt lat="43.607941986992955" lon="5.495223999023438">
        <ele>321.22000000000003</ele>
        <time>2025-05-17T13:44:36Z</time>
      </trkpt>
      <trkpt lat="43.609254006296396" lon="5.496787978336215">
        <ele>314.00999999999999</ele>
        <time>2025-05-17T13:44:46Z</time>
      </trkpt>
      <trkpt lat="43.609867980703712" lon="5.497589036822319">
        <ele>310.63999999999999</ele>
        <time>2025-05-17T13:44:51Z</time>
      </trkpt>
      <trkpt lat="43.609968982636929" lon="5.497748041525483">
        <ele>310.16000000000003</ele>
        <time>2025-05-17T13:44:52Z</time>
      </trkpt>
      <trkpt lat="43.610152965411544" lon="5.498035959899426">
        <ele>310.16000000000003</ele>
        <time>2025-05-17T13:44:54Z</time>
      </trkpt>
      <trkpt lat="43.610195964574814" lon="5.498184990137816">
        <ele>310.63999999999999</ele>
        <time>2025-05-17T13:44:55Z</time>
      </trkpt>
      <trkpt lat="43.610224965959787" lon="5.498309964314103">
        <ele>310.63999999999999</ele>
        <time>2025-05-17T13:44:56Z</time>
      </trkpt>
      <trkpt lat="43.610251033678651" lon="5.498421024531126">
        <ele>310.63999999999999</ele>
        <time>2025-05-17T13:44:57Z</time>
      </trkpt>
      <trkpt lat="43.610240975394845" lon="5.498609030619264">
        <ele>310.63999999999999</ele>
        <time>2025-05-17T13:44:58Z</time>
      </trkpt>
      <trkpt lat="43.610300989821553" lon="5.498692011460662">
        <ele>310.63999999999999</ele>
        <time>2025-05-17T13:44:59Z</time>
      </trkpt>
      <trkpt lat="43.61038195900619" lon="5.498736016452313">
        <ele>310.63999999999999</ele>
        <time>2025-05-17T13:45:00Z</time>
      </trkpt>
      <trkpt lat="43.610454965382814" lon="5.498724030330777">
        <ele>310.63999999999999</ele>
        <time>2025-05-17T13:45:01Z</time>
      </trkpt>
      <trkpt lat="43.61055001616478" lon="5.498744985088706">
        <ele>310.16000000000003</ele>
        <time>2025-05-17T13:45:02Z</time>
      </trkpt>
      <trkpt lat="43.610650012269616" lon="5.49877398647368">
        <ele>310.16000000000003</ele>
        <time>2025-05-17T13:45:03Z</time>
      </trkpt>
      <trkpt lat="43.610767023637891" lon="5.498808017000556">
        <ele>309.68000000000001</ele>
        <time>2025-05-17T13:45:04Z</time>
      </trkpt>
      <trkpt lat="43.610872970893979" lon="5.498887980356813">
        <ele>309.68000000000001</ele>
        <time>2025-05-17T13:45:05Z</time>
      </trkpt>
      <trkpt lat="43.610985036939383" lon="5.498972972854972">
        <ele>309.68000000000001</ele>
        <time>2025-05-17T13:45:06Z</time>
      </trkpt>
      <trkpt lat="43.611911991611123" lon="5.499793980270624">
        <ele>312.56999999999999</ele>
        <time>2025-05-17T13:45:13Z</time>
      </trkpt>
      <trkpt lat="43.613013038411736" lon="5.500999968498945">
        <ele>316.88999999999999</ele>
        <time>2025-05-17T13:45:19Z</time>
      </trkpt>
      <trkpt lat="43.614745996892452" lon="5.502882041037083">
        <ele>326.99000000000001</ele>
        <time>2025-05-17T13:45:29Z</time>
      </trkpt>
      <trkpt lat="43.616564031690359" lon="5.504794958978891">
        <ele>336.60000000000002</ele>
        <time>2025-05-17T13:45:40Z</time>
      </trkpt>
      <trkpt lat="43.617821987718344" lon="5.505622001364827">
        <ele>340.44</ele>
        <time>2025-05-17T13:45:47Z</time>
      </trkpt>
      <trkpt lat="43.619989966973662" lon="5.506333960220218">
        <ele>340.44</ele>
        <time>2025-05-17T13:45:58Z</time>
      </trkpt>
      <trkpt lat="43.621835997328162" lon="5.507207019254565">
        <ele>334.19999999999999</ele>
        <time>2025-05-17T13:46:08Z</time>
      </trkpt>
      <trkpt lat="43.623502990230918" lon="5.508635966107249">
        <ele>329.38999999999999</ele>
        <time>2025-05-17T13:46:18Z</time>
      </trkpt>
      <trkpt lat="43.625037968158722" lon="5.509266033768654">
        <ele>326.01999999999998</ele>
        <time>2025-05-17T13:46:26Z</time>
      </trkpt>
      <trkpt lat="43.627614984288812" lon="5.509933987632394">
        <ele>314.49000000000001</ele>
        <time>2025-05-17T13:46:39Z</time>
      </trkpt>
      <trkpt lat="43.629053989425302" lon="5.51059297285974">
        <ele>308.24000000000001</ele>
        <time>2025-05-17T13:46:47Z</time>
      </trkpt>
      <trkpt lat="43.630136009305716" lon="5.511711034923792">
        <ele>305.83999999999997</ele>
        <time>2025-05-17T13:46:54Z</time>
      </trkpt>
      <trkpt lat="43.631619019433856" lon="5.514045981690288">
        <ele>300.55000000000001</ele>
        <time>2025-05-17T13:47:06Z</time>
      </trkpt>
      <trkpt lat="43.63171499222517" lon="5.51426500082016">
        <ele>299.58999999999997</ele>
        <time>2025-05-17T13:47:07Z</time>
      </trkpt>
      <trkpt lat="43.6322729755193" lon="5.515932999551296">
        <ele>292.86000000000001</ele>
        <time>2025-05-17T13:47:14Z</time>
      </trkpt>
      <trkpt lat="43.632391998544335" lon="5.516131985932589">
        <ele>291.89999999999998</ele>
        <time>2025-05-17T13:47:15Z</time>
      </trkpt>
      <trkpt lat="43.632508004084229" lon="5.516322003677487">
        <ele>290.94</ele>
        <time>2025-05-17T13:47:16Z</time>
      </trkpt>
      <trkpt lat="43.632645970210433" lon="5.516451001167297">
        <ele>289.49000000000001</ele>
        <time>2025-05-17T13:47:17Z</time>
      </trkpt>
      <trkpt lat="43.63276700489223" lon="5.516562983393669">
        <ele>288.52999999999997</ele>
        <time>2025-05-17T13:47:18Z</time>
      </trkpt>
      <trkpt lat="43.632869012653828" lon="5.516641018912196">
        <ele>287.56999999999999</ele>
        <time>2025-05-17T13:47:19Z</time>
      </trkpt>
      <trkpt lat="43.63295903429389" lon="5.516689969226718">
        <ele>287.08999999999997</ele>
        <time>2025-05-17T13:47:20Z</time>
      </trkpt>
      <trkpt lat="43.633026005700231" lon="5.516726011410356">
        <ele>286.61000000000001</ele>
        <time>2025-05-17T13:47:21Z</time>
      </trkpt>
      <trkpt lat="43.633078979328275" lon="5.516755012795329">
        <ele>286.13</ele>
        <time>2025-05-17T13:47:22Z</time>
      </trkpt>
      <trkpt lat="43.633129019290209" lon="5.516782002523542">
        <ele>285.64999999999998</ele>
        <time>2025-05-17T13:47:23Z</time>
      </trkpt>
      <trkpt lat="43.633424984291196" lon="5.516904965043068">
        <ele>281.31999999999999</ele>
        <time>2025-05-17T13:47:31Z</time>
      </trkpt>
      <trkpt lat="43.633471000939608" lon="5.51690898835659">
        <ele>280.83999999999997</ele>
        <time>2025-05-17T13:47:32Z</time>
      </trkpt>
      <trkpt lat="43.634096961468458" lon="5.51690798252821">
        <ele>277</ele>
        <time>2025-05-17T13:47:45Z</time>
      </trkpt>
      <trkpt lat="43.634281028062105" lon="5.516890967264772">
        <ele>275.06999999999999</ele>
        <time>2025-05-17T13:47:52Z</time>
      </trkpt>
      <trkpt lat="43.634719988331199" lon="5.516847968101502">
        <ele>274.11000000000001</ele>
        <time>2025-05-17T13:48:01Z</time>
      </trkpt>
      <trkpt lat="43.634928027167916" lon="5.516981994733214">
        <ele>273.63</ele>
        <time>2025-05-17T13:48:03Z</time>
      </trkpt>
      <trkpt lat="43.634959040209651" lon="5.516988029703498">
        <ele>273.63</ele>
        <time>2025-05-17T13:48:04Z</time>
      </trkpt>
      <trkpt lat="43.6350669991225" lon="5.516978977248073">
        <ele>273.14999999999998</ele>
        <time>2025-05-17T13:48:05Z</time>
      </trkpt>
      <trkpt lat="43.635136988013983" lon="5.516927009448409">
        <ele>272.67000000000002</ele>
        <time>2025-05-17T13:48:06Z</time>
      </trkpt>
      <trkpt lat="43.635218041017652" lon="5.516870012506843">
        <ele>272.19</ele>
        <time>2025-05-17T13:48:07Z</time>
      </trkpt>
      <trkpt lat="43.635291969403625" lon="5.516829025000334">
        <ele>271.23000000000002</ele>
        <time>2025-05-17T13:48:08Z</time>
      </trkpt>
      <trkpt lat="43.635379979386926" lon="5.516816033050418">
        <ele>270.75</ele>
        <time>2025-05-17T13:48:09Z</time>
      </trkpt>
      <trkpt lat="43.635833021253347" lon="5.516749983653426">
        <ele>269.79000000000002</ele>
        <time>2025-05-17T13:48:13Z</time>
      </trkpt>
      <trkpt lat="43.63596897572279" lon="5.516730034723878">
        <ele>269.31</ele>
        <time>2025-05-17T13:48:14Z</time>
      </trkpt>
      <trkpt lat="43.637169012799859" lon="5.516849979758263">
        <ele>265.45999999999998</ele>
        <time>2025-05-17T13:48:21Z</time>
      </trkpt>
      <trkpt lat="43.638318004086614" lon="5.517539978027344">
        <ele>262.10000000000002</ele>
        <time>2025-05-17T13:48:28Z</time>
      </trkpt>
      <trkpt lat="43.639260968193412" lon="5.518749989569187">
        <ele>258.25</ele>
        <time>2025-05-17T13:48:35Z</time>
      </trkpt>
      <trkpt lat="43.639888018369675" lon="5.520296031609178">
        <ele>255.37</ele>
        <time>2025-05-17T13:48:42Z</time>
      </trkpt>
      <trkpt lat="43.640133021399379" lon="5.522013986483216">
        <ele>249.59999999999999</ele>
        <time>2025-05-17T13:48:50Z</time>
      </trkpt>
      <trkpt lat="43.640294959768653" lon="5.523855993524194">
        <ele>242.87</ele>
        <time>2025-05-17T13:48:59Z</time>
      </trkpt>
      <trkpt lat="43.640308035537601" lon="5.523974010720849">
        <ele>242.38999999999999</ele>
        <time>2025-05-17T13:49:00Z</time>
      </trkpt>
      <trkpt lat="43.640317004173994" lon="5.524059003219008">
        <ele>241.43000000000001</ele>
        <time>2025-05-17T13:49:01Z</time>
      </trkpt>
      <trkpt lat="43.640324966982007" lon="5.524132009595633">
        <ele>240.47</ele>
        <time>2025-05-17T13:49:02Z</time>
      </trkpt>
      <trkpt lat="43.640332007780671" lon="5.524194035679102">
        <ele>239.99000000000001</ele>
        <time>2025-05-17T13:49:03Z</time>
      </trkpt>
      <trkpt lat="43.640404008328915" lon="5.524851009249687">
        <ele>233.74000000000001</ele>
        <time>2025-05-17T13:49:14Z</time>
      </trkpt>
      <trkpt lat="43.640413982793689" lon="5.524948993697763">
        <ele>233.74000000000001</ele>
        <time>2025-05-17T13:49:15Z</time>
      </trkpt>
      <trkpt lat="43.640421023592353" lon="5.525047983974218">
        <ele>233.25999999999999</ele>
        <time>2025-05-17T13:49:16Z</time>
      </trkpt>
      <trkpt lat="43.640421023592353" lon="5.525141023099423">
        <ele>232.78</ele>
        <time>2025-05-17T13:49:17Z</time>
      </trkpt>
      <trkpt lat="43.640421023592353" lon="5.525231966748834">
        <ele>232.30000000000001</ele>
        <time>2025-05-17T13:49:18Z</time>
      </trkpt>
      <trkpt lat="43.640421023592353" lon="5.52532802335918">
        <ele>231.81</ele>
        <time>2025-05-17T13:49:19Z</time>
      </trkpt>
      <trkpt lat="43.640421023592353" lon="5.525428019464016">
        <ele>231.33000000000001</ele>
        <time>2025-05-17T13:49:20Z</time>
      </trkpt>
      <trkpt lat="43.640340976417065" lon="5.525633040815592">
        <ele>230.84999999999999</ele>
        <time>2025-05-17T13:49:22Z</time>
      </trkpt>
      <trkpt lat="43.640360003337264" lon="5.525719961151481">
        <ele>230.37</ele>
        <time>2025-05-17T13:49:23Z</time>
      </trkpt>
      <trkpt lat="43.640409959480166" lon="5.525811994448304">
        <ele>230.37</ele>
        <time>2025-05-17T13:49:24Z</time>
      </trkpt>
      <trkpt lat="43.640468968078494" lon="5.525831021368504">
        <ele>229.88999999999999</ele>
        <time>2025-05-17T13:49:25Z</time>
      </trkpt>
      <trkpt lat="43.640579022467136" lon="5.525901010259986">
        <ele>229.88999999999999</ele>
        <time>2025-05-17T13:49:26Z</time>
      </trkpt>
      <trkpt lat="43.640601988881826" lon="5.526003018021584">
        <ele>229.88999999999999</ele>
        <time>2025-05-17T13:49:27Z</time>
      </trkpt>
      <trkpt lat="43.640625961124897" lon="5.526122963055968">
        <ele>229.41</ele>
        <time>2025-05-17T13:49:28Z</time>
      </trkpt>
      <trkpt lat="43.64065202884376" lon="5.526261013001204">
        <ele>229.88999999999999</ele>
        <time>2025-05-17T13:49:29Z</time>
      </trkpt>
      <trkpt lat="43.640967020764947" lon="5.527996988967061">
        <ele>233.74000000000001</ele>
        <time>2025-05-17T13:49:40Z</time>
      </trkpt>
      <trkpt lat="43.641352001577616" lon="5.530132027342916">
        <ele>227.97</ele>
        <time>2025-05-17T13:49:51Z</time>
      </trkpt>
      <trkpt lat="43.641655007377267" lon="5.531756021082401">
        <ele>221.24000000000001</ele>
        <time>2025-05-17T13:50:00Z</time>
      </trkpt>
      <trkpt lat="43.641741005703807" lon="5.532244015485048">
        <ele>219.31999999999999</ele>
        <time>2025-05-17T13:50:03Z</time>
      </trkpt>
      <trkpt lat="43.641884000971913" lon="5.533053958788514">
        <ele>214.99000000000001</ele>
        <time>2025-05-17T13:50:08Z</time>
      </trkpt>
      <trkpt lat="43.641914008185267" lon="5.533212963491678">
        <ele>214.50999999999999</ele>
        <time>2025-05-17T13:50:09Z</time>
      </trkpt>
      <trkpt lat="43.641971005126834" lon="5.533507000654936">
        <ele>213.55000000000001</ele>
        <time>2025-05-17T13:50:11Z</time>
      </trkpt>
      <trkpt lat="43.641996989026666" lon="5.533634992316365">
        <ele>213.06999999999999</ele>
        <time>2025-05-17T13:50:12Z</time>
      </trkpt>
      <trkpt lat="43.642119029536843" lon="5.534230023622513">
        <ele>213.55000000000001</ele>
        <time>2025-05-17T13:50:18Z</time>
      </trkpt>
      <trkpt lat="43.64213596098125" lon="5.534311998635531">
        <ele>214.03</ele>
        <time>2025-05-17T13:50:19Z</time>
      </trkpt>
      <trkpt lat="43.642116012051702" lon="5.534598995000124">
        <ele>214.50999999999999</ele>
        <time>2025-05-17T13:50:22Z</time>
      </trkpt>
      <trkpt lat="43.642137972638011" lon="5.534641994163394">
        <ele>214.50999999999999</ele>
        <time>2025-05-17T13:50:23Z</time>
      </trkpt>
      <trkpt lat="43.642226988449693" lon="5.534852966666222">
        <ele>214.50999999999999</ele>
        <time>2025-05-17T13:50:25Z</time>
      </trkpt>
      <trkpt lat="43.642239980399609" lon="5.534965032711625">
        <ele>214.50999999999999</ele>
        <time>2025-05-17T13:50:26Z</time>
      </trkpt>
      <trkpt lat="43.642443995922804" lon="5.536078987643123">
        <ele>215.94999999999999</ele>
        <time>2025-05-17T13:50:34Z</time>
      </trkpt>
      <trkpt lat="43.642604006454349" lon="5.536941988393664">
        <ele>216.43000000000001</ele>
        <time>2025-05-17T13:50:39Z</time>
      </trkpt>
      <trkpt lat="43.64275798201561" lon="5.537851005792618">
        <ele>217.40000000000001</ele>
        <time>2025-05-17T13:50:44Z</time>
      </trkpt>
      <trkpt lat="43.642786983400583" lon="5.538037000223994">
        <ele>217.88</ele>
        <time>2025-05-17T13:50:45Z</time>
      </trkpt>
      <trkpt lat="43.642985969781876" lon="5.53901500068605">
        <ele>216.91</ele>
        <time>2025-05-17T13:50:52Z</time>
      </trkpt>
      <trkpt lat="43.643013965338469" lon="5.539177022874355">
        <ele>214.99000000000001</ele>
        <time>2025-05-17T13:50:57Z</time>
      </trkpt>
      <trkpt lat="43.643066016957164" lon="5.539497965946794">
        <ele>213.55000000000001</ele>
        <time>2025-05-17T13:51:13Z</time>
      </trkpt>
      <trkpt lat="43.643107004463673" lon="5.539764007553458">
        <ele>212.59</ele>
        <time>2025-05-17T13:51:16Z</time>
      </trkpt>
      <trkpt lat="43.643125025555491" lon="5.539876995608211">
        <ele>212.59</ele>
        <time>2025-05-17T13:51:17Z</time>
      </trkpt>
      <trkpt lat="43.643143968656659" lon="5.54024001583457">
        <ele>212.59</ele>
        <time>2025-05-17T13:51:20Z</time>
      </trkpt>
      <trkpt lat="43.643124019727111" lon="5.541485985741019">
        <ele>215.47</ele>
        <time>2025-05-17T13:51:29Z</time>
      </trkpt>
      <trkpt lat="43.643111027777195" lon="5.542145976796746">
        <ele>217.40000000000001</ele>
        <time>2025-05-17T13:51:34Z</time>
      </trkpt>
      <trkpt lat="43.643108010292053" lon="5.542299030348659">
        <ele>217.88</ele>
        <time>2025-05-17T13:51:35Z</time>
      </trkpt>
      <trkpt lat="43.643099963665009" lon="5.543880024924874">
        <ele>220.75999999999999</ele>
        <time>2025-05-17T13:51:44Z</time>
      </trkpt>
      <trkpt lat="43.643253017216921" lon="5.545208975672722">
        <ele>221.24000000000001</ele>
        <time>2025-05-17T13:51:52Z</time>
      </trkpt>
      <trkpt lat="43.643271960318089" lon="5.545376027002931">
        <ele>221.72</ele>
        <time>2025-05-17T13:51:53Z</time>
      </trkpt>
      <trkpt lat="43.643476981669664" lon="5.547275030985475">
        <ele>221.72</ele>
        <time>2025-05-17T13:52:03Z</time>
      </trkpt>
      <trkpt lat="43.643676973879337" lon="5.549140004441142">
        <ele>217.40000000000001</ele>
        <time>2025-05-17T13:52:13Z</time>
      </trkpt>
      <trkpt lat="43.643738999962807" lon="5.549726989120245">
        <ele>216.91</ele>
        <time>2025-05-17T13:52:16Z</time>
      </trkpt>
      <trkpt lat="43.64396296441555" lon="5.551817016676068">
        <ele>217.40000000000001</ele>
        <time>2025-05-17T13:52:26Z</time>
      </trkpt>
      <trkpt lat="43.64421802572906" lon="5.554200997576118">
        <ele>218.36000000000001</ele>
        <time>2025-05-17T13:52:36Z</time>
      </trkpt>
      <trkpt lat="43.644468979910016" lon="5.55659000761807">
        <ele>219.80000000000001</ele>
        <time>2025-05-17T13:52:46Z</time>
      </trkpt>
      <trkpt lat="43.644737033173442" lon="5.559160988777876">
        <ele>220.28</ele>
        <time>2025-05-17T13:52:57Z</time>
      </trkpt>
      <trkpt lat="43.644946999847889" lon="5.561164012178779">
        <ele>221.72</ele>
        <time>2025-05-17T13:53:06Z</time>
      </trkpt>
      <trkpt lat="43.645079014822841" lon="5.562434960156679">
        <ele>221.72</ele>
        <time>2025-05-17T13:53:15Z</time>
      </trkpt>
      <trkpt lat="43.645173981785774" lon="5.563351018354297">
        <ele>221.24000000000001</ele>
        <time>2025-05-17T13:53:22Z</time>
      </trkpt>
      <trkpt lat="43.645182028412819" lon="5.563425030559301">
        <ele>221.24000000000001</ele>
        <time>2025-05-17T13:53:23Z</time>
      </trkpt>
      <trkpt lat="43.645187979564071" lon="5.563489990308881">
        <ele>220.75999999999999</ele>
        <time>2025-05-17T13:53:24Z</time>
      </trkpt>
      <trkpt lat="43.645195020362735" lon="5.56355101056397">
        <ele>220.28</ele>
        <time>2025-05-17T13:53:25Z</time>
      </trkpt>
      <trkpt lat="43.645200971513987" lon="5.563613036647439">
        <ele>220.28</ele>
        <time>2025-05-17T13:53:26Z</time>
      </trkpt>
      <trkpt lat="43.64520700648427" lon="5.563668021932244">
        <ele>220.28</ele>
        <time>2025-05-17T13:53:27Z</time>
      </trkpt>
      <trkpt lat="43.645213041454554" lon="5.56372300721705">
        <ele>220.28</ele>
        <time>2025-05-17T13:53:28Z</time>
      </trkpt>
      <trkpt lat="43.645217986777425" lon="5.563777992501855">
        <ele>219.80000000000001</ele>
        <time>2025-05-17T13:53:29Z</time>
      </trkpt>
      <trkpt lat="43.645225027576089" lon="5.563842030242086">
        <ele>219.80000000000001</ele>
        <time>2025-05-17T13:53:30Z</time>
      </trkpt>
      <trkpt lat="43.645233996212482" lon="5.563929034397006">
        <ele>220.28</ele>
        <time>2025-05-17T13:53:31Z</time>
      </trkpt>
      <trkpt lat="43.645246988162398" lon="5.564049985259771">
        <ele>219.80000000000001</ele>
        <time>2025-05-17T13:53:32Z</time>
      </trkpt>
      <trkpt lat="43.645260985940695" lon="5.564186023548245">
        <ele>219.80000000000001</ele>
        <time>2025-05-17T13:53:33Z</time>
      </trkpt>
      <trkpt lat="43.645273977890611" lon="5.564313009381294">
        <ele>219.80000000000001</ele>
        <time>2025-05-17T13:53:34Z</time>
      </trkpt>
      <trkpt lat="43.645286969840527" lon="5.56443496607244">
        <ele>219.31999999999999</ele>
        <time>2025-05-17T13:53:35Z</time>
      </trkpt>
      <trkpt lat="43.645300967618823" lon="5.564569998532534">
        <ele>218.84</ele>
        <time>2025-05-17T13:53:36Z</time>
      </trkpt>
      <trkpt lat="43.64544396288693" lon="5.565951000899077">
        <ele>217.88</ele>
        <time>2025-05-17T13:53:45Z</time>
      </trkpt>
      <trkpt lat="43.645630041137338" lon="5.567744979634881">
        <ele>216.43000000000001</ele>
        <time>2025-05-17T13:53:55Z</time>
      </trkpt>
      <trkpt lat="43.645738000050187" lon="5.568776959553361">
        <ele>217.88</ele>
        <time>2025-05-17T13:54:02Z</time>
      </trkpt>
      <trkpt lat="43.645747974514961" lon="5.568874021992087">
        <ele>217.88</ele>
        <time>2025-05-17T13:54:03Z</time>
      </trkpt>
      <trkpt lat="43.645759038627148" lon="5.568972006440163">
        <ele>217.88</ele>
        <time>2025-05-17T13:54:04Z</time>
      </trkpt>
      <trkpt lat="43.645776975899935" lon="5.569132016971707">
        <ele>218.36000000000001</ele>
        <time>2025-05-17T13:54:06Z</time>
      </trkpt>
      <trkpt lat="43.645785022526979" lon="5.569209968671203">
        <ele>218.36000000000001</ele>
        <time>2025-05-17T13:54:07Z</time>
      </trkpt>
      <trkpt lat="43.645793991163373" lon="5.569285992532969">
        <ele>218.36000000000001</ele>
        <time>2025-05-17T13:54:08Z</time>
      </trkpt>
      <trkpt lat="43.645802037790418" lon="5.569355981424451">
        <ele>218.84</ele>
        <time>2025-05-17T13:54:09Z</time>
      </trkpt>
      <trkpt lat="43.645810000598431" lon="5.569436028599739">
        <ele>218.84</ele>
        <time>2025-05-17T13:54:10Z</time>
      </trkpt>
      <trkpt lat="43.645820980891585" lon="5.56952697224915">
        <ele>219.31999999999999</ele>
        <time>2025-05-17T13:54:11Z</time>
      </trkpt>
      <trkpt lat="43.645831039175391" lon="5.569623028859496">
        <ele>219.80000000000001</ele>
        <time>2025-05-17T13:54:12Z</time>
      </trkpt>
      <trkpt lat="43.645841013640165" lon="5.569711960852146">
        <ele>219.80000000000001</ele>
        <time>2025-05-17T13:54:13Z</time>
      </trkpt>
      <trkpt lat="43.645850988104939" lon="5.569800976663828">
        <ele>219.80000000000001</ele>
        <time>2025-05-17T13:54:14Z</time>
      </trkpt>
      <trkpt lat="43.645860962569714" lon="5.569886974990368">
        <ele>220.28</ele>
        <time>2025-05-17T13:54:15Z</time>
      </trkpt>
      <trkpt lat="43.645870015025139" lon="5.569973979145289">
        <ele>220.28</ele>
        <time>2025-05-17T13:54:16Z</time>
      </trkpt>
      <trkpt lat="43.645880995318294" lon="5.570067018270493">
        <ele>220.75999999999999</ele>
        <time>2025-05-17T13:54:17Z</time>
      </trkpt>
      <trkpt lat="43.645892981439829" lon="5.570179000496864">
        <ele>220.75999999999999</ele>
        <time>2025-05-17T13:54:18Z</time>
      </trkpt>
      <trkpt lat="43.646033965051174" lon="5.57154499925673">
        <ele>221.72</ele>
        <time>2025-05-17T13:54:27Z</time>
      </trkpt>
      <trkpt lat="43.646106971427798" lon="5.572504978626967">
        <ele>223.16</ele>
        <time>2025-05-17T13:54:35Z</time>
      </trkpt>
      <trkpt lat="43.646106971427798" lon="5.572607992216945">
        <ele>221.72</ele>
        <time>2025-05-17T13:54:40Z</time>
      </trkpt>
      <trkpt lat="43.646106971427798" lon="5.572957014665008">
        <ele>221.72</ele>
        <time>2025-05-17T13:54:50Z</time>
      </trkpt>
      <trkpt lat="43.646106971427798" lon="5.573042007163167">
        <ele>221.24000000000001</ele>
        <time>2025-05-17T13:54:51Z</time>
      </trkpt>
      <trkpt lat="43.646063972264528" lon="5.573321962729096">
        <ele>220.75999999999999</ele>
        <time>2025-05-17T13:54:54Z</time>
      </trkpt>
      <trkpt lat="43.646063972264528" lon="5.57339396327734">
        <ele>220.75999999999999</ele>
        <time>2025-05-17T13:54:55Z</time>
      </trkpt>
      <trkpt lat="43.646167991682887" lon="5.573670985177159">
        <ele>220.28</ele>
        <time>2025-05-17T13:54:57Z</time>
      </trkpt>
      <trkpt lat="43.646137984469533" lon="5.573795959353447">
        <ele>220.28</ele>
        <time>2025-05-17T13:54:58Z</time>
      </trkpt>
      <trkpt lat="43.646104037761688" lon="5.573938032612205">
        <ele>220.28</ele>
        <time>2025-05-17T13:54:59Z</time>
      </trkpt>
      <trkpt lat="43.646063972264528" lon="5.57410198263824">
        <ele>220.28</ele>
        <time>2025-05-17T13:55:00Z</time>
      </trkpt>
      <trkpt lat="43.646032959222794" lon="5.574262998998165">
        <ele>220.28</ele>
        <time>2025-05-17T13:55:01Z</time>
      </trkpt>
      <trkpt lat="43.645794996991754" lon="5.57584198191762">
        <ele>218.36000000000001</ele>
        <time>2025-05-17T13:55:11Z</time>
      </trkpt>
      <trkpt lat="43.645751997828484" lon="5.576480012387037">
        <ele>217.40000000000001</ele>
        <time>2025-05-17T13:55:17Z</time>
      </trkpt>
      <trkpt lat="43.645748980343342" lon="5.576553018763661">
        <ele>217.40000000000001</ele>
        <time>2025-05-17T13:55:18Z</time>
      </trkpt>
      <trkpt lat="43.645746968686581" lon="5.576642034575343">
        <ele>217.40000000000001</ele>
        <time>2025-05-17T13:55:25Z</time>
      </trkpt>
      <trkpt lat="43.645774964243174" lon="5.577027015388012">
        <ele>218.36000000000001</ele>
        <time>2025-05-17T13:55:35Z</time>
      </trkpt>
      <trkpt lat="43.645810000598431" lon="5.577243017032743">
        <ele>218.36000000000001</ele>
        <time>2025-05-17T13:55:38Z</time>
      </trkpt>
      <trkpt lat="43.645821986719966" lon="5.577306970953941">
        <ele>217.88</ele>
        <time>2025-05-17T13:55:39Z</time>
      </trkpt>
      <trkpt lat="43.645878983661532" lon="5.577608970925212">
        <ele>218.36000000000001</ele>
        <time>2025-05-17T13:55:44Z</time>
      </trkpt>
      <trkpt lat="43.645886024460196" lon="5.577670997008681">
        <ele>218.36000000000001</ele>
        <time>2025-05-17T13:55:45Z</time>
      </trkpt>
      <trkpt lat="43.645893987268209" lon="5.577736962586641">
        <ele>218.36000000000001</ele>
        <time>2025-05-17T13:55:46Z</time>
      </trkpt>
      <trkpt lat="43.645950984209776" lon="5.578019013628364">
        <ele>218.84</ele>
        <time>2025-05-17T13:55:50Z</time>
      </trkpt>
      <trkpt lat="43.645964981988072" lon="5.578096965327859">
        <ele>218.84</ele>
        <time>2025-05-17T13:55:51Z</time>
      </trkpt>
      <trkpt lat="43.645979985594749" lon="5.57818103581667">
        <ele>218.84</ele>
        <time>2025-05-17T13:55:52Z</time>
      </trkpt>
      <trkpt lat="43.646128010004759" lon="5.5787009652704">
        <ele>218.84</ele>
        <time>2025-05-17T13:55:57Z</time>
      </trkpt>
      <trkpt lat="43.646160028874874" lon="5.57878402993083">
        <ele>218.84</ele>
        <time>2025-05-17T13:55:58Z</time>
      </trkpt>
      <trkpt lat="43.646191963925958" lon="5.578862987458706">
        <ele>218.84</ele>
        <time>2025-05-17T13:55:59Z</time>
      </trkpt>
      <trkpt lat="43.646223982796073" lon="5.578944040462375">
        <ele>218.84</ele>
        <time>2025-05-17T13:56:00Z</time>
      </trkpt>
      <trkpt lat="43.646249966695905" lon="5.579013023525477">
        <ele>218.84</ele>
        <time>2025-05-17T13:56:01Z</time>
      </trkpt>
      <trkpt lat="43.646377036347985" lon="5.579396998509765">
        <ele>217.88</ele>
        <time>2025-05-17T13:56:09Z</time>
      </trkpt>
      <trkpt lat="43.646416012197733" lon="5.579549968242645">
        <ele>217.88</ele>
        <time>2025-05-17T13:56:13Z</time>
      </trkpt>
      <trkpt lat="43.646450964733958" lon="5.579977026209235">
        <ele>217.40000000000001</ele>
        <time>2025-05-17T13:56:17Z</time>
      </trkpt>
      <trkpt lat="43.646450964733958" lon="5.581049993634224">
        <ele>217.40000000000001</ele>
        <time>2025-05-17T13:56:26Z</time>
      </trkpt>
      <trkpt lat="43.646450964733958" lon="5.581110008060932">
        <ele>217.88</ele>
        <time>2025-05-17T13:56:27Z</time>
      </trkpt>
      <trkpt lat="43.646450964733958" lon="5.581165999174118">
        <ele>217.88</ele>
        <time>2025-05-17T13:56:28Z</time>
      </trkpt>
      <trkpt lat="43.646450964733958" lon="5.581215033307672">
        <ele>217.88</ele>
        <time>2025-05-17T13:56:29Z</time>
      </trkpt>
      <trkpt lat="43.646450964733958" lon="5.581260966137052">
        <ele>217.88</ele>
        <time>2025-05-17T13:56:30Z</time>
      </trkpt>
      <trkpt lat="43.646449958905578" lon="5.581301031634212">
        <ele>217.88</ele>
        <time>2025-05-17T13:56:31Z</time>
      </trkpt>
      <trkpt lat="43.646449958905578" lon="5.581332966685295">
        <ele>217.88</ele>
        <time>2025-05-17T13:56:32Z</time>
      </trkpt>
      <trkpt lat="43.646449036896229" lon="5.581360040232539">
        <ele>217.88</ele>
        <time>2025-05-17T13:56:33Z</time>
      </trkpt>
      <trkpt lat="43.646449036896229" lon="5.581360040232539">
        <ele>218.36000000000001</ele>
        <time>2025-05-17T13:56:47Z</time>
      </trkpt>
      <trkpt lat="43.646438978612423" lon="5.581740997731686">
        <ele>219.31999999999999</ele>
        <time>2025-05-17T13:56:56Z</time>
      </trkpt>
      <trkpt lat="43.646429004147649" lon="5.582407023757696">
        <ele>217.88</ele>
        <time>2025-05-17T13:57:06Z</time>
      </trkpt>
      <trkpt lat="43.646429004147649" lon="5.582454968243837">
        <ele>217.88</ele>
        <time>2025-05-17T13:57:07Z</time>
      </trkpt>
      <trkpt lat="43.646429004147649" lon="5.582496039569378">
        <ele>217.88</ele>
        <time>2025-05-17T13:57:08Z</time>
      </trkpt>
      <trkpt lat="43.646429004147649" lon="5.582543984055519">
        <ele>218.36000000000001</ele>
        <time>2025-05-17T13:57:09Z</time>
      </trkpt>
      <trkpt lat="43.646429004147649" lon="5.582621013745666">
        <ele>218.36000000000001</ele>
        <time>2025-05-17T13:57:10Z</time>
      </trkpt>
      <trkpt lat="43.646429004147649" lon="5.582668958231807">
        <ele>218.36000000000001</ele>
        <time>2025-05-17T13:57:11Z</time>
      </trkpt>
      <trkpt lat="43.646429004147649" lon="5.582734001800418">
        <ele>218.36000000000001</ele>
        <time>2025-05-17T13:57:12Z</time>
      </trkpt>
      <trkpt lat="43.646429004147649" lon="5.582797033712268">
        <ele>218.36000000000001</ele>
        <time>2025-05-17T13:57:13Z</time>
      </trkpt>
      <trkpt lat="43.646429004147649" lon="5.582857970148325">
        <ele>218.84</ele>
        <time>2025-05-17T13:57:14Z</time>
      </trkpt>
      <trkpt lat="43.646429004147649" lon="5.582921002060175">
        <ele>218.84</ele>
        <time>2025-05-17T13:57:15Z</time>
      </trkpt>
      <trkpt lat="43.646429004147649" lon="5.583881987258792">
        <ele>220.28</ele>
        <time>2025-05-17T13:57:26Z</time>
      </trkpt>
      <trkpt lat="43.646441996097565" lon="5.585083030164242">
        <ele>220.28</ele>
        <time>2025-05-17T13:57:36Z</time>
      </trkpt>
      <trkpt lat="43.646450964733958" lon="5.58596296235919">
        <ele>220.28</ele>
        <time>2025-05-17T13:57:43Z</time>
      </trkpt>
      <trkpt lat="43.646340994164348" lon="5.587326027452946">
        <ele>221.24000000000001</ele>
        <time>2025-05-17T13:57:54Z</time>
      </trkpt>
      <trkpt lat="43.646309981122613" lon="5.587919969111681">
        <ele>221.72</ele>
        <time>2025-05-17T13:57:59Z</time>
      </trkpt>
      <trkpt lat="43.646291960030794" lon="5.588138988241553">
        <ele>221.24000000000001</ele>
        <time>2025-05-17T13:58:01Z</time>
      </trkpt>
      <trkpt lat="43.646252984181046" lon="5.58860301040113">
        <ele>220.75999999999999</ele>
        <time>2025-05-17T13:58:06Z</time>
      </trkpt>
      <trkpt lat="43.646247033029795" lon="5.588684985414147">
        <ele>220.28</ele>
        <time>2025-05-17T13:58:07Z</time>
      </trkpt>
      <trkpt lat="43.646235968917608" lon="5.58884097263217">
        <ele>220.28</ele>
        <time>2025-05-17T13:58:09Z</time>
      </trkpt>
      <trkpt lat="43.646222976967692" lon="5.588909033685923">
        <ele>220.28</ele>
        <time>2025-05-17T13:58:10Z</time>
      </trkpt>
      <trkpt lat="43.646146031096578" lon="5.58980698697269">
        <ele>220.28</ele>
        <time>2025-05-17T13:58:18Z</time>
      </trkpt>
      <trkpt lat="43.646129015833139" lon="5.590153997763991">
        <ele>220.28</ele>
        <time>2025-05-17T13:58:21Z</time>
      </trkpt>
      <trkpt lat="43.646128010004759" lon="5.59047200717032">
        <ele>220.28</ele>
        <time>2025-05-17T13:58:24Z</time>
      </trkpt>
      <trkpt lat="43.646161034703255" lon="5.590555993840098">
        <ele>220.75999999999999</ele>
        <time>2025-05-17T13:58:25Z</time>
      </trkpt>
      <trkpt lat="43.646176038309932" lon="5.590640986338258">
        <ele>220.75999999999999</ele>
        <time>2025-05-17T13:58:26Z</time>
      </trkpt>
      <trkpt lat="43.646192969754338" lon="5.590732013806701">
        <ele>220.75999999999999</ele>
        <time>2025-05-17T13:58:27Z</time>
      </trkpt>
      <trkpt lat="43.646205961704254" lon="5.590841984376311">
        <ele>220.75999999999999</ele>
        <time>2025-05-17T13:58:28Z</time>
      </trkpt>
      <trkpt lat="43.646273016929626" lon="5.591941019520164">
        <ele>220.28</ele>
        <time>2025-05-17T13:58:35Z</time>
      </trkpt>
      <trkpt lat="43.646262036636472" lon="5.592312002554536">
        <ele>219.80000000000001</ele>
        <time>2025-05-17T13:58:37Z</time>
      </trkpt>
      <trkpt lat="43.646257007494569" lon="5.592505959793925">
        <ele>219.31999999999999</ele>
        <time>2025-05-17T13:58:38Z</time>
      </trkpt>
      <trkpt lat="43.646250972524285" lon="5.59270603582263">
        <ele>219.31999999999999</ele>
        <time>2025-05-17T13:58:39Z</time>
      </trkpt>
      <trkpt lat="43.646449958905578" lon="5.594391971826553">
        <ele>219.31999999999999</ele>
        <time>2025-05-17T13:58:48Z</time>
      </trkpt>
      <trkpt lat="43.646932002156973" lon="5.595948994159699">
        <ele>219.80000000000001</ele>
        <time>2025-05-17T13:58:58Z</time>
      </trkpt>
      <trkpt lat="43.647467019036412" lon="5.597616992890835">
        <ele>221.72</ele>
        <time>2025-05-17T13:59:09Z</time>
      </trkpt>
      <trkpt lat="43.647725014016032" lon="5.598374968394637">
        <ele>221.72</ele>
        <time>2025-05-17T13:59:14Z</time>
      </trkpt>
      <trkpt lat="43.648123992606997" lon="5.599637031555176">
        <ele>222.19999999999999</ele>
        <time>2025-05-17T13:59:22Z</time>
      </trkpt>
      <trkpt lat="43.64821401424706" lon="5.599912963807583">
        <ele>222.68000000000001</ele>
        <time>2025-05-17T13:59:24Z</time>
      </trkpt>
      <trkpt lat="43.648262964561582" lon="5.600066017359495">
        <ele>223.16</ele>
        <time>2025-05-17T13:59:25Z</time>
      </trkpt>
      <trkpt lat="43.64870997145772" lon="5.60140703804791">
        <ele>221.72</ele>
        <time>2025-05-17T13:59:34Z</time>
      </trkpt>
      <trkpt lat="43.649213975295424" lon="5.602908991277218">
        <ele>221.72</ele>
        <time>2025-05-17T13:59:44Z</time>
      </trkpt>
      <trkpt lat="43.649768019095063" lon="5.604582019150257">
        <ele>221.24000000000001</ele>
        <time>2025-05-17T13:59:55Z</time>
      </trkpt>
      <trkpt lat="43.650386016815901" lon="5.606344984844327">
        <ele>226.53</ele>
        <time>2025-05-17T14:00:05Z</time>
      </trkpt>
      <trkpt lat="43.651327975094318" lon="5.608448004350066">
        <ele>230.84999999999999</ele>
        <time>2025-05-17T14:00:15Z</time>
      </trkpt>
      <trkpt lat="43.652631025761366" lon="5.610645990818739">
        <ele>231.81</ele>
        <time>2025-05-17T14:00:25Z</time>
      </trkpt>
      <trkpt lat="43.653266038745642" lon="5.611688029021025">
        <ele>232.78</ele>
        <time>2025-05-17T14:00:30Z</time>
      </trkpt>
      <trkpt lat="43.653581030666828" lon="5.612317007035017">
        <ele>232.78</ele>
        <time>2025-05-17T14:00:33Z</time>
      </trkpt>
      <trkpt lat="43.653835002332926" lon="5.613000970333815">
        <ele>232.30000000000001</ele>
        <time>2025-05-17T14:00:36Z</time>
      </trkpt>
      <trkpt lat="43.654206991195679" lon="5.614806013181806">
        <ele>231.81</ele>
        <time>2025-05-17T14:00:43Z</time>
      </trkpt>
      <trkpt lat="43.654583003371954" lon="5.617453018203378">
        <ele>233.25999999999999</ele>
        <time>2025-05-17T14:00:53Z</time>
      </trkpt>
      <trkpt lat="43.655165964737535" lon="5.61997102573514">
        <ele>233.25999999999999</ele>
        <time>2025-05-17T14:01:03Z</time>
      </trkpt>
      <trkpt lat="43.655788991600275" lon="5.622435975819826">
        <ele>234.22</ele>
        <time>2025-05-17T14:01:13Z</time>
      </trkpt>
      <trkpt lat="43.656065007671714" lon="5.623684041202068">
        <ele>234.69999999999999</ele>
        <time>2025-05-17T14:01:18Z</time>
      </trkpt>
      <trkpt lat="43.656119992956519" lon="5.623930972069502">
        <ele>234.69999999999999</ele>
        <time>2025-05-17T14:01:19Z</time>
      </trkpt>
      <trkpt lat="43.656247984617949" lon="5.624662041664124">
        <ele>235.66</ele>
        <time>2025-05-17T14:01:22Z</time>
      </trkpt>
      <trkpt lat="43.656544033437967" lon="5.627288008108735">
        <ele>237.09999999999999</ele>
        <time>2025-05-17T14:01:32Z</time>
      </trkpt>
      <trkpt lat="43.65668099373579" lon="5.628101974725723">
        <ele>237.58000000000001</ele>
        <time>2025-05-17T14:01:35Z</time>
      </trkpt>
      <trkpt lat="43.65749697200954" lon="5.630098963156343">
        <ele>237.58000000000001</ele>
        <time>2025-05-17T14:01:43Z</time>
      </trkpt>
      <trkpt lat="43.658123016357422" lon="5.63178900629282">
        <ele>236.62</ele>
        <time>2025-05-17T14:01:50Z</time>
      </trkpt>
      <trkpt lat="43.658195016905665" lon="5.632036020979285">
        <ele>236.62</ele>
        <time>2025-05-17T14:01:51Z</time>
      </trkpt>
      <trkpt lat="43.658600030466914" lon="5.633270004764199">
        <ele>236.13999999999999</ele>
        <time>2025-05-17T14:01:56Z</time>
      </trkpt>
      <trkpt lat="43.658691979944706" lon="5.633512996137142">
        <ele>236.13999999999999</ele>
        <time>2025-05-17T14:01:57Z</time>
      </trkpt>
      <trkpt lat="43.659766037017107" lon="5.635753981769085">
        <ele>239.50999999999999</ele>
        <time>2025-05-17T14:02:07Z</time>
      </trkpt>
      <trkpt lat="43.660690980032086" lon="5.637145964428783">
        <ele>243.34999999999999</ele>
        <time>2025-05-17T14:02:14Z</time>
      </trkpt>
      <trkpt lat="43.661133963614702" lon="5.638003014028072">
        <ele>244.31</ele>
        <time>2025-05-17T14:02:18Z</time>
      </trkpt>
      <trkpt lat="43.662020014598966" lon="5.639796992763877">
        <ele>246.22999999999999</ele>
        <time>2025-05-17T14:02:26Z</time>
      </trkpt>
      <trkpt lat="43.662242973223329" lon="5.640248022973537">
        <ele>245.75</ele>
        <time>2025-05-17T14:02:28Z</time>
      </trkpt>
      <trkpt lat="43.662354033440351" lon="5.640471987426281">
        <ele>245.75</ele>
        <time>2025-05-17T14:02:29Z</time>
      </trkpt>
      <trkpt lat="43.662468027323484" lon="5.640702992677689">
        <ele>245.75</ele>
        <time>2025-05-17T14:02:30Z</time>
      </trkpt>
      <trkpt lat="43.663654988631606" lon="5.642292033880949">
        <ele>245.27000000000001</ele>
        <time>2025-05-17T14:02:38Z</time>
      </trkpt>
      <trkpt lat="43.66510396823287" lon="5.643869005143642">
        <ele>248.63999999999999</ele>
        <time>2025-05-17T14:02:47Z</time>
      </trkpt>
      <trkpt lat="43.666287995874882" lon="5.645295018330216">
        <ele>250.08000000000001</ele>
        <time>2025-05-17T14:02:55Z</time>
      </trkpt>
      <trkpt lat="43.66752902045846" lon="5.647076005116105">
        <ele>249.12</ele>
        <time>2025-05-17T14:03:04Z</time>
      </trkpt>
      <trkpt lat="43.668789993971586" lon="5.648068003356457">
        <ele>248.63999999999999</ele>
        <time>2025-05-17T14:03:11Z</time>
      </trkpt>
      <trkpt lat="43.670369982719421" lon="5.648608971387148">
        <ele>244.78999999999999</ele>
        <time>2025-05-17T14:03:19Z</time>
      </trkpt>
      <trkpt lat="43.671852992847562" lon="5.649311961606145">
        <ele>240.47</ele>
        <time>2025-05-17T14:03:27Z</time>
      </trkpt>
      <trkpt lat="43.67423596791923" lon="5.650737974792719">
        <ele>238.53999999999999</ele>
        <time>2025-05-17T14:03:41Z</time>
      </trkpt>
      <trkpt lat="43.67573800496757" lon="5.651957960799336">
        <ele>237.58000000000001</ele>
        <time>2025-05-17T14:03:50Z</time>
      </trkpt>
      <trkpt lat="43.677610019221902" lon="5.653540967032313">
        <ele>239.02000000000001</ele>
        <time>2025-05-17T14:04:01Z</time>
      </trkpt>
      <trkpt lat="43.679841030389071" lon="5.655317008495331">
        <ele>240.47</ele>
        <time>2025-05-17T14:04:15Z</time>
      </trkpt>
      <trkpt lat="43.681235024705529" lon="5.655724033713341">
        <ele>238.06</ele>
        <time>2025-05-17T14:04:23Z</time>
      </trkpt>
      <trkpt lat="43.682533968240023" lon="5.65604698844254">
        <ele>238.53999999999999</ele>
        <time>2025-05-17T14:04:31Z</time>
      </trkpt>
      <trkpt lat="43.68269800208509" lon="5.6561319809407">
        <ele>238.53999999999999</ele>
        <time>2025-05-17T14:04:32Z</time>
      </trkpt>
      <trkpt lat="43.682864969596267" lon="5.656243041157723">
        <ele>238.53999999999999</ele>
        <time>2025-05-17T14:04:33Z</time>
      </trkpt>
      <trkpt lat="43.683018023148179" lon="5.656385030597448">
        <ele>238.53999999999999</ele>
        <time>2025-05-17T14:04:34Z</time>
      </trkpt>
      <trkpt lat="43.683174010366201" lon="5.656530037522316">
        <ele>239.02000000000001</ele>
        <time>2025-05-17T14:04:35Z</time>
      </trkpt>
      <trkpt lat="43.683807011693716" lon="5.657179970294237">
        <ele>239.50999999999999</ele>
        <time>2025-05-17T14:04:39Z</time>
      </trkpt>
      <trkpt lat="43.684060983359814" lon="5.657622031867504">
        <ele>239.99000000000001</ele>
        <time>2025-05-17T14:04:41Z</time>
      </trkpt>
      <trkpt lat="43.684172965586185" lon="5.65782998688519">
        <ele>239.99000000000001</ele>
        <time>2025-05-17T14:04:42Z</time>
      </trkpt>
      <trkpt lat="43.684258041903377" lon="5.658117989078164">
        <ele>239.99000000000001</ele>
        <time>2025-05-17T14:04:43Z</time>
      </trkpt>
      <trkpt lat="43.684334987774491" lon="5.658382019028068">
        <ele>239.99000000000001</ele>
        <time>2025-05-17T14:04:44Z</time>
      </trkpt>
      <trkpt lat="43.684406988322735" lon="5.65864697098732">
        <ele>239.99000000000001</ele>
        <time>2025-05-17T14:04:45Z</time>
      </trkpt>
      <trkpt lat="43.684469014406204" lon="5.658920975401998">
        <ele>239.99000000000001</ele>
        <time>2025-05-17T14:04:46Z</time>
      </trkpt>
      <trkpt lat="43.685148032382131" lon="5.661562029272318">
        <ele>240.94999999999999</ele>
        <time>2025-05-17T14:04:56Z</time>
      </trkpt>
      <trkpt lat="43.685756977647543" lon="5.663134977221489">
        <ele>240.47</ele>
        <time>2025-05-17T14:05:03Z</time>
      </trkpt>
      <trkpt lat="43.685802994295955" lon="5.663391966372728">
        <ele>240.47</ele>
        <time>2025-05-17T14:05:04Z</time>
      </trkpt>
      <trkpt lat="43.68605000898242" lon="5.664458982646465">
        <ele>239.99000000000001</ele>
        <time>2025-05-17T14:05:08Z</time>
      </trkpt>
      <trkpt lat="43.686131983995438" lon="5.664709014818072">
        <ele>239.99000000000001</ele>
        <time>2025-05-17T14:05:09Z</time>
      </trkpt>
      <trkpt lat="43.686241032555699" lon="5.664927028119564">
        <ele>241.43000000000001</ele>
        <time>2025-05-17T14:05:10Z</time>
      </trkpt>
      <trkpt lat="43.686362989246845" lon="5.66513498313725">
        <ele>241.91</ele>
        <time>2025-05-17T14:05:11Z</time>
      </trkpt>
      <trkpt lat="43.686515036970377" lon="5.665285019204021">
        <ele>242.38999999999999</ele>
        <time>2025-05-17T14:05:12Z</time>
      </trkpt>
      <trkpt lat="43.686676975339651" lon="5.665409993380308">
        <ele>242.87</ele>
        <time>2025-05-17T14:05:13Z</time>
      </trkpt>
      <trkpt lat="43.686836985871196" lon="5.665533961728215">
        <ele>243.34999999999999</ele>
        <time>2025-05-17T14:05:14Z</time>
      </trkpt>
      <trkpt lat="43.686993978917599" lon="5.665654996410012">
        <ele>243.34999999999999</ele>
        <time>2025-05-17T14:05:15Z</time>
      </trkpt>
      <trkpt lat="43.688271967694163" lon="5.666606007143855">
        <ele>247.19999999999999</ele>
        <time>2025-05-17T14:05:24Z</time>
      </trkpt>
      <trkpt lat="43.68839300237596" lon="5.66678898409009">
        <ele>247.19999999999999</ele>
        <time>2025-05-17T14:05:25Z</time>
      </trkpt>
      <trkpt lat="43.688471037894487" lon="5.666904989629984">
        <ele>247.19999999999999</ele>
        <time>2025-05-17T14:05:26Z</time>
      </trkpt>
      <trkpt lat="43.688513031229377" lon="5.667016971856356">
        <ele>247.19999999999999</ele>
        <time>2025-05-17T14:05:27Z</time>
      </trkpt>
      <trkpt lat="43.688602969050407" lon="5.667301034554839">
        <ele>247.19999999999999</ele>
        <time>2025-05-17T14:05:29Z</time>
      </trkpt>
      <trkpt lat="43.688744036480784" lon="5.667421985417604">
        <ele>247.19999999999999</ele>
        <time>2025-05-17T14:05:30Z</time>
      </trkpt>
      <trkpt lat="43.688818970695138" lon="5.66751996986568">
        <ele>247.19999999999999</ele>
        <time>2025-05-17T14:05:31Z</time>
      </trkpt>
      <trkpt lat="43.689394975081086" lon="5.668662004172802">
        <ele>247.68000000000001</ele>
        <time>2025-05-17T14:05:39Z</time>
      </trkpt>
      <trkpt lat="43.689716001972556" lon="5.669243037700653">
        <ele>248.16</ele>
        <time>2025-05-17T14:05:43Z</time>
      </trkpt>
      <trkpt lat="43.689780039712787" lon="5.669419979676604">
        <ele>248.16</ele>
        <time>2025-05-17T14:05:44Z</time>
      </trkpt>
      <trkpt lat="43.690397031605244" lon="5.671199960634112">
        <ele>248.63999999999999</ele>
        <time>2025-05-17T14:05:53Z</time>
      </trkpt>
      <trkpt lat="43.690400971099734" lon="5.671401964500547">
        <ele>249.12</ele>
        <time>2025-05-17T14:05:54Z</time>
      </trkpt>
      <trkpt lat="43.690406000241637" lon="5.671613020822406">
        <ele>249.12</ele>
        <time>2025-05-17T14:05:55Z</time>
      </trkpt>
      <trkpt lat="43.690373981371522" lon="5.673151016235352">
        <ele>251.52000000000001</ele>
        <time>2025-05-17T14:06:02Z</time>
      </trkpt>
      <trkpt lat="43.690322013571858" lon="5.673379004001617">
        <ele>252</ele>
        <time>2025-05-17T14:06:03Z</time>
      </trkpt>
      <trkpt lat="43.690269961953163" lon="5.67360196262598">
        <ele>252.47999999999999</ele>
        <time>2025-05-17T14:06:04Z</time>
      </trkpt>
      <trkpt lat="43.690215982496738" lon="5.674045030027628">
        <ele>253.44</ele>
        <time>2025-05-17T14:06:06Z</time>
      </trkpt>
      <trkpt lat="43.69011196307838" lon="5.676056016236544">
        <ele>255.37</ele>
        <time>2025-05-17T14:06:14Z</time>
      </trkpt>
      <trkpt lat="43.690030993893743" lon="5.677063018083572">
        <ele>256.81</ele>
        <time>2025-05-17T14:06:18Z</time>
      </trkpt>
      <trkpt lat="43.690049014985561" lon="5.677310032770038">
        <ele>256.81</ele>
        <time>2025-05-17T14:06:19Z</time>
      </trkpt>
      <trkpt lat="43.690076004713774" lon="5.677557969465852">
        <ele>257.29000000000002</ele>
        <time>2025-05-17T14:06:20Z</time>
      </trkpt>
      <trkpt lat="43.69019603356719" lon="5.679183974862099">
        <ele>259.69</ele>
        <time>2025-05-17T14:06:27Z</time>
      </trkpt>
      <trkpt lat="43.690200978890061" lon="5.679415985941887">
        <ele>260.17000000000002</ele>
        <time>2025-05-17T14:06:28Z</time>
      </trkpt>
      <trkpt lat="43.690160997211933" lon="5.679654031991959">
        <ele>260.17000000000002</ele>
        <time>2025-05-17T14:06:29Z</time>
      </trkpt>
      <trkpt lat="43.690107017755508" lon="5.679883025586605">
        <ele>260.64999999999998</ele>
        <time>2025-05-17T14:06:30Z</time>
      </trkpt>
      <trkpt lat="43.690051026642323" lon="5.680115958675742">
        <ele>260.64999999999998</ele>
        <time>2025-05-17T14:06:31Z</time>
      </trkpt>
      <trkpt lat="43.689996041357517" lon="5.680345958098769">
        <ele>261.13999999999999</ele>
        <time>2025-05-17T14:06:32Z</time>
      </trkpt>
      <trkpt lat="43.689512992277741" lon="5.681554963812232">
        <ele>264.5</ele>
        <time>2025-05-17T14:06:38Z</time>
      </trkpt>
      <trkpt lat="43.689470998942852" lon="5.681771971285343">
        <ele>265.45999999999998</ele>
        <time>2025-05-17T14:06:39Z</time>
      </trkpt>
      <trkpt lat="43.689441997557878" lon="5.68200197070837">
        <ele>265.94</ele>
        <time>2025-05-17T14:06:40Z</time>
      </trkpt>
      <trkpt lat="43.68925197981298" lon="5.684284027665854">
        <ele>265.94</ele>
        <time>2025-05-17T14:06:49Z</time>
      </trkpt>
      <trkpt lat="43.689146032556891" lon="5.687487004324794">
        <ele>268.82999999999998</ele>
        <time>2025-05-17T14:07:01Z</time>
      </trkpt>
      <trkpt lat="43.689077971503139" lon="5.690798023715615">
        <ele>273.14999999999998</ele>
        <time>2025-05-17T14:07:13Z</time>
      </trkpt>
      <trkpt lat="43.688896000385284" lon="5.693744011223316">
        <ele>275.06999999999999</ele>
        <time>2025-05-17T14:07:24Z</time>
      </trkpt>
      <trkpt lat="43.688658038154244" lon="5.697141028940678">
        <ele>269.79000000000002</ele>
        <time>2025-05-17T14:07:36Z</time>
      </trkpt>
      <trkpt lat="43.688398031517863" lon="5.699205994606018">
        <ele>263.54000000000002</ele>
        <time>2025-05-17T14:07:44Z</time>
      </trkpt>
      <trkpt lat="43.687706021592021" lon="5.70109804160893">
        <ele>261.62</ele>
        <time>2025-05-17T14:07:52Z</time>
      </trkpt>
      <trkpt lat="43.686630958691239" lon="5.703200977295637">
        <ele>260.64999999999998</ele>
        <time>2025-05-17T14:08:02Z</time>
      </trkpt>
      <trkpt lat="43.685970967635512" lon="5.70466797798872">
        <ele>261.62</ele>
        <time>2025-05-17T14:08:10Z</time>
      </trkpt>
      <trkpt lat="43.685782039538026" lon="5.705530978739262">
        <ele>262.10000000000002</ele>
        <time>2025-05-17T14:08:18Z</time>
      </trkpt>
      <trkpt lat="43.68577198125422" lon="5.705726025626063">
        <ele>262.10000000000002</ele>
        <time>2025-05-17T14:08:20Z</time>
      </trkpt>
      <trkpt lat="43.685766030102968" lon="5.705832978710532">
        <ele>262.57999999999998</ele>
        <time>2025-05-17T14:08:21Z</time>
      </trkpt>
      <trkpt lat="43.685694029554725" lon="5.707301991060376">
        <ele>262.57999999999998</ele>
        <time>2025-05-17T14:08:32Z</time>
      </trkpt>
      <trkpt lat="43.685653964057565" lon="5.708940988406539">
        <ele>261.13999999999999</ele>
        <time>2025-05-17T14:08:44Z</time>
      </trkpt>
      <trkpt lat="43.685653964057565" lon="5.709573989734054">
        <ele>261.62</ele>
        <time>2025-05-17T14:08:48Z</time>
      </trkpt>
      <trkpt lat="43.685653964057565" lon="5.709700975567102">
        <ele>262.10000000000002</ele>
        <time>2025-05-17T14:08:49Z</time>
      </trkpt>
      <trkpt lat="43.685681037604809" lon="5.709998030215502">
        <ele>262.10000000000002</ele>
        <time>2025-05-17T14:08:52Z</time>
      </trkpt>
      <trkpt lat="43.685693023726344" lon="5.710076987743378">
        <ele>262.10000000000002</ele>
        <time>2025-05-17T14:08:53Z</time>
      </trkpt>
      <trkpt lat="43.685702998191118" lon="5.710144964978099">
        <ele>262.10000000000002</ele>
        <time>2025-05-17T14:08:54Z</time>
      </trkpt>
      <trkpt lat="43.685711966827512" lon="5.710201039910317">
        <ele>262.10000000000002</ele>
        <time>2025-05-17T14:08:55Z</time>
      </trkpt>
      <trkpt lat="43.685718001797795" lon="5.710243033245206">
        <ele>262.10000000000002</ele>
        <time>2025-05-17T14:08:56Z</time>
      </trkpt>
      <trkpt lat="43.685724036768079" lon="5.710277985781431">
        <ele>262.57999999999998</ele>
        <time>2025-05-17T14:08:57Z</time>
      </trkpt>
      <trkpt lat="43.68572898209095" lon="5.710314027965069">
        <ele>262.57999999999998</ele>
        <time>2025-05-17T14:08:58Z</time>
      </trkpt>
      <trkpt lat="43.685736022889614" lon="5.710355015471578">
        <ele>263.06</ele>
        <time>2025-05-17T14:08:59Z</time>
      </trkpt>
      <trkpt lat="43.685816992074251" lon="5.710799004882574">
        <ele>263.54000000000002</ele>
        <time>2025-05-17T14:09:04Z</time>
      </trkpt>
      <trkpt lat="43.685851022601128" lon="5.710932025685906">
        <ele>263.06</ele>
        <time>2025-05-17T14:09:05Z</time>
      </trkpt>
      <trkpt lat="43.685883963480592" lon="5.711064040660858">
        <ele>263.06</ele>
        <time>2025-05-17T14:09:06Z</time>
      </trkpt>
      <trkpt lat="43.685918999835849" lon="5.711205024272203">
        <ele>262.57999999999998</ele>
        <time>2025-05-17T14:09:07Z</time>
      </trkpt>
      <trkpt lat="43.685954036191106" lon="5.711351959034801">
        <ele>262.57999999999998</ele>
        <time>2025-05-17T14:09:08Z</time>
      </trkpt>
      <trkpt lat="43.686458040028811" lon="5.71330402046442">
        <ele>261.62</ele>
        <time>2025-05-17T14:09:19Z</time>
      </trkpt>
      <trkpt lat="43.687024991959333" lon="5.715557998046279">
        <ele>260.64999999999998</ele>
        <time>2025-05-17T14:09:29Z</time>
      </trkpt>
      <trkpt lat="43.687949012964964" lon="5.718585960566998">
        <ele>261.62</ele>
        <time>2025-05-17T14:09:42Z</time>
      </trkpt>
      <trkpt lat="43.688777983188629" lon="5.720840021967888">
        <ele>260.64999999999998</ele>
        <time>2025-05-17T14:09:52Z</time>
      </trkpt>
      <trkpt lat="43.690121015533805" lon="5.722593013197184">
        <ele>262.10000000000002</ele>
        <time>2025-05-17T14:10:02Z</time>
      </trkpt>
      <trkpt lat="43.691995041444898" lon="5.724930977448821">
        <ele>261.62</ele>
        <time>2025-05-17T14:10:15Z</time>
      </trkpt>
      <trkpt lat="43.693129029124975" lon="5.726523036137223">
        <ele>261.62</ele>
        <time>2025-05-17T14:10:23Z</time>
      </trkpt>
      <trkpt lat="43.69324897415936" lon="5.726751023903489">
        <ele>261.62</ele>
        <time>2025-05-17T14:10:24Z</time>
      </trkpt>
      <trkpt lat="43.693833025172353" lon="5.727864978834987">
        <ele>264.5</ele>
        <time>2025-05-17T14:10:29Z</time>
      </trkpt>
      <trkpt lat="43.693940984085202" lon="5.728073017671704">
        <ele>264.98000000000002</ele>
        <time>2025-05-17T14:10:30Z</time>
      </trkpt>
      <trkpt lat="43.694077022373676" lon="5.728262029588223">
        <ele>265.45999999999998</ele>
        <time>2025-05-17T14:10:31Z</time>
      </trkpt>
      <trkpt lat="43.694219011813402" lon="5.728448024019599">
        <ele>265.45999999999998</ele>
        <time>2025-05-17T14:10:32Z</time>
      </trkpt>
      <trkpt lat="43.694359995424747" lon="5.728634018450975">
        <ele>265.94</ele>
        <time>2025-05-17T14:10:33Z</time>
      </trkpt>
      <trkpt lat="43.695877036079764" lon="5.730667971074581">
        <ele>265.94</ele>
        <time>2025-05-17T14:10:44Z</time>
      </trkpt>
      <trkpt lat="43.696669964119792" lon="5.731754014268518">
        <ele>264.98000000000002</ele>
        <time>2025-05-17T14:10:52Z</time>
      </trkpt>
      <trkpt lat="43.696797033771873" lon="5.732021983712912">
        <ele>264.98000000000002</ele>
        <time>2025-05-17T14:10:54Z</time>
      </trkpt>
      <trkpt lat="43.69687800295651" lon="5.732333036139607">
        <ele>265.45999999999998</ele>
        <time>2025-05-17T14:10:56Z</time>
      </trkpt>
      <trkpt lat="43.696940029039979" lon="5.732395984232426">
        <ele>265.45999999999998</ele>
        <time>2025-05-17T14:10:57Z</time>
      </trkpt>
      <trkpt lat="43.697103979066014" lon="5.732385003939271">
        <ele>265.45999999999998</ele>
        <time>2025-05-17T14:10:58Z</time>
      </trkpt>
      <trkpt lat="43.697205986827612" lon="5.732472008094192">
        <ele>265.45999999999998</ele>
        <time>2025-05-17T14:10:59Z</time>
      </trkpt>
      <trkpt lat="43.697319980710745" lon="5.732567980885506">
        <ele>265.45999999999998</ele>
        <time>2025-05-17T14:11:00Z</time>
      </trkpt>
      <trkpt lat="43.697439003735781" lon="5.732693960890174">
        <ele>265.45999999999998</ele>
        <time>2025-05-17T14:11:01Z</time>
      </trkpt>
      <trkpt lat="43.697558026760817" lon="5.732837039977312">
        <ele>265.45999999999998</ele>
        <time>2025-05-17T14:11:02Z</time>
      </trkpt>
      <trkpt lat="43.698707018047571" lon="5.734117962419987">
        <ele>263.54000000000002</ele>
        <time>2025-05-17T14:11:10Z</time>
      </trkpt>
      <trkpt lat="43.698926037177444" lon="5.734578967094421">
        <ele>263.54000000000002</ele>
        <time>2025-05-17T14:11:12Z</time>
      </trkpt>
      <trkpt lat="43.69902896694839" lon="5.734821036458015">
        <ele>263.54000000000002</ele>
        <time>2025-05-17T14:11:13Z</time>
      </trkpt>
      <trkpt lat="43.699128963053226" lon="5.735055981203914">
        <ele>263.06</ele>
        <time>2025-05-17T14:11:14Z</time>
      </trkpt>
      <trkpt lat="43.699196018278599" lon="5.735319005325437">
        <ele>263.06</ele>
        <time>2025-05-17T14:11:15Z</time>
      </trkpt>
      <trkpt lat="43.699261983856559" lon="5.735579011961818">
        <ele>262.57999999999998</ele>
        <time>2025-05-17T14:11:16Z</time>
      </trkpt>
      <trkpt lat="43.699329039081931" lon="5.735839018598199">
        <ele>262.57999999999998</ele>
        <time>2025-05-17T14:11:17Z</time>
      </trkpt>
      <trkpt lat="43.699834970757365" lon="5.738147981464863">
        <ele>261.62</ele>
        <time>2025-05-17T14:11:27Z</time>
      </trkpt>
      <trkpt lat="43.699923986569047" lon="5.738896988332272">
        <ele>263.06</ele>
        <time>2025-05-17T14:11:32Z</time>
      </trkpt>
      <trkpt lat="43.699836982414126" lon="5.739197982475162">
        <ele>263.06</ele>
        <time>2025-05-17T14:11:34Z</time>
      </trkpt>
      <trkpt lat="43.699836982414126" lon="5.739197982475162">
        <ele>263.54000000000002</ele>
        <time>2025-05-17T14:11:35Z</time>
      </trkpt>
      <trkpt lat="43.699816027656198" lon="5.739304013550282">
        <ele>264.01999999999998</ele>
        <time>2025-05-17T14:11:36Z</time>
      </trkpt>
      <trkpt lat="43.699835976585746" lon="5.739481961354613">
        <ele>264.5</ele>
        <time>2025-05-17T14:11:37Z</time>
      </trkpt>
      <trkpt lat="43.699890039861202" lon="5.739571982994676">
        <ele>264.5</ele>
        <time>2025-05-17T14:11:38Z</time>
      </trkpt>
      <trkpt lat="43.699922980740666" lon="5.739626968279481">
        <ele>264.5</ele>
        <time>2025-05-17T14:11:39Z</time>
      </trkpt>
      <trkpt lat="43.700095983222127" lon="5.739677008241415">
        <ele>264.98000000000002</ele>
        <time>2025-05-17T14:11:40Z</time>
      </trkpt>
      <trkpt lat="43.700151974335313" lon="5.739797037094832">
        <ele>264.98000000000002</ele>
        <time>2025-05-17T14:11:41Z</time>
      </trkpt>
      <trkpt lat="43.700202014297247" lon="5.739906001836062">
        <ele>264.98000000000002</ele>
        <time>2025-05-17T14:11:42Z</time>
      </trkpt>
      <trkpt lat="43.700312990695238" lon="5.740065006539226">
        <ele>264.98000000000002</ele>
        <time>2025-05-17T14:11:43Z</time>
      </trkpt>
      <trkpt lat="43.70063703507185" lon="5.741576012223959">
        <ele>266.42000000000002</ele>
        <time>2025-05-17T14:11:50Z</time>
      </trkpt>
      <trkpt lat="43.701077001169324" lon="5.744818970561028">
        <ele>274.58999999999997</ele>
        <time>2025-05-17T14:12:02Z</time>
      </trkpt>
      <trkpt lat="43.701550997793674" lon="5.746941016986966">
        <ele>278.92000000000002</ele>
        <time>2025-05-17T14:12:10Z</time>
      </trkpt>
      <trkpt lat="43.701574970036745" lon="5.747210998088121">
        <ele>279.39999999999998</ele>
        <time>2025-05-17T14:12:11Z</time>
      </trkpt>
      <trkpt lat="43.701612018048763" lon="5.747997974976897">
        <ele>279.88</ele>
        <time>2025-05-17T14:12:14Z</time>
      </trkpt>
      <trkpt lat="43.701663985848427" lon="5.748226968571544">
        <ele>280.36000000000001</ele>
        <time>2025-05-17T14:12:15Z</time>
      </trkpt>
      <trkpt lat="43.701726011931896" lon="5.748425032943487">
        <ele>280.36000000000001</ele>
        <time>2025-05-17T14:12:16Z</time>
      </trkpt>
      <trkpt lat="43.701845034956932" lon="5.748590994626284">
        <ele>280.83999999999997</ele>
        <time>2025-05-17T14:12:17Z</time>
      </trkpt>
      <trkpt lat="43.701961040496826" lon="5.748752010986209">
        <ele>281.31999999999999</ele>
        <time>2025-05-17T14:12:18Z</time>
      </trkpt>
      <trkpt lat="43.70207897387445" lon="5.748916966840625">
        <ele>281.80000000000001</ele>
        <time>2025-05-17T14:12:19Z</time>
      </trkpt>
      <trkpt lat="43.702984973788261" lon="5.750223034992814">
        <ele>284.20999999999998</ele>
        <time>2025-05-17T14:12:26Z</time>
      </trkpt>
      <trkpt lat="43.703762982040644" lon="5.751566989347339">
        <ele>286.61000000000001</ele>
        <time>2025-05-17T14:12:32Z</time>
      </trkpt>
      <trkpt lat="43.704382991418242" lon="5.753258960321546">
        <ele>289.97000000000003</ele>
        <time>2025-05-17T14:12:40Z</time>
      </trkpt>
      <trkpt lat="43.704416016116738" lon="5.75343799777329">
        <ele>289.97000000000003</ele>
        <time>2025-05-17T14:12:41Z</time>
      </trkpt>
      <trkpt lat="43.704386008903384" lon="5.753681994974613">
        <ele>290.45999999999998</ele>
        <time>2025-05-17T14:12:42Z</time>
      </trkpt>
      <trkpt lat="43.704406041651964" lon="5.753773022443056">
        <ele>290.45999999999998</ele>
        <time>2025-05-17T14:12:43Z</time>
      </trkpt>
      <trkpt lat="43.704460021108389" lon="5.753913000226021">
        <ele>290.45999999999998</ele>
        <time>2025-05-17T14:12:44Z</time>
      </trkpt>
      <trkpt lat="43.704515006393194" lon="5.753981983289123">
        <ele>290.45999999999998</ele>
        <time>2025-05-17T14:12:45Z</time>
      </trkpt>
      <trkpt lat="43.704664958640933" lon="5.754004027694464">
        <ele>290.45999999999998</ele>
        <time>2025-05-17T14:12:46Z</time>
      </trkpt>
      <trkpt lat="43.704731008037925" lon="5.754098994657397">
        <ele>290.94</ele>
        <time>2025-05-17T14:12:47Z</time>
      </trkpt>
      <trkpt lat="43.70480602607131" lon="5.754209971055389">
        <ele>290.94</ele>
        <time>2025-05-17T14:12:48Z</time>
      </trkpt>
      <trkpt lat="43.704885989427567" lon="5.754326982423663">
        <ele>290.94</ele>
        <time>2025-05-17T14:12:49Z</time>
      </trkpt>
      <trkpt lat="43.705730969086289" lon="5.755488965660334">
        <ele>291.42000000000002</ele>
        <time>2025-05-17T14:12:57Z</time>
      </trkpt>
      <trkpt lat="43.705959040671587" lon="5.755857015028596">
        <ele>290.94</ele>
        <time>2025-05-17T14:12:59Z</time>
      </trkpt>
      <trkpt lat="43.70607303455472" lon="5.75605901889503">
        <ele>290.94</ele>
        <time>2025-05-17T14:13:00Z</time>
      </trkpt>
      <trkpt lat="43.706148974597454" lon="5.756290024146438">
        <ele>290.94</ele>
        <time>2025-05-17T14:13:01Z</time>
      </trkpt>
      <trkpt lat="43.706968976184726" lon="5.75876503251493">
        <ele>290.45999999999998</ele>
        <time>2025-05-17T14:13:11Z</time>
      </trkpt>
      <trkpt lat="43.707830971106887" lon="5.76132302172482">
        <ele>289.97000000000003</ele>
        <time>2025-05-17T14:13:22Z</time>
      </trkpt>
      <trkpt lat="43.708462966606021" lon="5.763186989352107">
        <ele>292.38</ele>
        <time>2025-05-17T14:13:31Z</time>
      </trkpt>
      <trkpt lat="43.709090016782284" lon="5.765265030786395">
        <ele>294.30000000000001</ele>
        <time>2025-05-17T14:13:42Z</time>
      </trkpt>
      <trkpt lat="43.709111977368593" lon="5.765469968318939">
        <ele>294.30000000000001</ele>
        <time>2025-05-17T14:13:43Z</time>
      </trkpt>
      <trkpt lat="43.709123963490129" lon="5.765677001327276">
        <ele>294.30000000000001</ele>
        <time>2025-05-17T14:13:44Z</time>
      </trkpt>
      <trkpt lat="43.709080964326859" lon="5.7660729624331">
        <ele>294.77999999999997</ele>
        <time>2025-05-17T14:13:46Z</time>
      </trkpt>
      <trkpt lat="43.708999995142221" lon="5.766602028161287">
        <ele>295.74000000000001</ele>
        <time>2025-05-17T14:13:49Z</time>
      </trkpt>
      <trkpt lat="43.709016004577279" lon="5.766776036471129">
        <ele>295.74000000000001</ele>
        <time>2025-05-17T14:13:50Z</time>
      </trkpt>
      <trkpt lat="43.709066966548562" lon="5.766941998153925">
        <ele>295.25999999999999</ele>
        <time>2025-05-17T14:13:51Z</time>
      </trkpt>
      <trkpt lat="43.709131004288793" lon="5.767094967886806">
        <ele>295.25999999999999</ele>
        <time>2025-05-17T14:13:52Z</time>
      </trkpt>
      <trkpt lat="43.709197975695133" lon="5.767251960933209">
        <ele>294.77999999999997</ele>
        <time>2025-05-17T14:13:53Z</time>
      </trkpt>
      <trkpt lat="43.709265030920506" lon="5.767409959807992">
        <ele>294.77999999999997</ele>
        <time>2025-05-17T14:13:54Z</time>
      </trkpt>
      <trkpt lat="43.710075980052352" lon="5.769131015986204">
        <ele>295.74000000000001</ele>
        <time>2025-05-17T14:14:04Z</time>
      </trkpt>
      <trkpt lat="43.710928000509739" lon="5.770843019708991">
        <ele>296.22000000000003</ele>
        <time>2025-05-17T14:14:13Z</time>
      </trkpt>
      <trkpt lat="43.71144600212574" lon="5.772051019594073">
        <ele>296.69999999999999</ele>
        <time>2025-05-17T14:14:20Z</time>
      </trkpt>
      <trkpt lat="43.712058970704675" lon="5.773493964225054">
        <ele>298.63</ele>
        <time>2025-05-17T14:14:31Z</time>
      </trkpt>
      <trkpt lat="43.712145974859595" lon="5.773751037195325">
        <ele>298.14999999999998</ele>
        <time>2025-05-17T14:14:33Z</time>
      </trkpt>
      <trkpt lat="43.712180005386472" lon="5.773882968351245">
        <ele>298.14999999999998</ele>
        <time>2025-05-17T14:14:34Z</time>
      </trkpt>
      <trkpt lat="43.712212024256587" lon="5.774006014689803">
        <ele>298.63</ele>
        <time>2025-05-17T14:14:35Z</time>
      </trkpt>
      <trkpt lat="43.712238008156419" lon="5.774109028279781">
        <ele>298.63</ele>
        <time>2025-05-17T14:14:36Z</time>
      </trkpt>
      <trkpt lat="43.712260974571109" lon="5.774197038263083">
        <ele>298.63</ele>
        <time>2025-05-17T14:14:37Z</time>
      </trkpt>
      <trkpt lat="43.71215402148664" lon="5.774410022422671">
        <ele>298.63</ele>
        <time>2025-05-17T14:14:38Z</time>
      </trkpt>
      <trkpt lat="43.71215402148664" lon="5.774410022422671">
        <ele>298.63</ele>
        <time>2025-05-17T14:14:39Z</time>
      </trkpt>
      <trkpt lat="43.712137006223202" lon="5.774468025192618">
        <ele>298.63</ele>
        <time>2025-05-17T14:14:40Z</time>
      </trkpt>
      <trkpt lat="43.712125020101666" lon="5.774608002975583">
        <ele>298.63</ele>
        <time>2025-05-17T14:14:41Z</time>
      </trkpt>
      <trkpt lat="43.712146980687976" lon="5.77468503266573">
        <ele>298.63</ele>
        <time>2025-05-17T14:14:42Z</time>
      </trkpt>
      <trkpt lat="43.712201965972781" lon="5.774766001850367">
        <ele>298.63</ele>
        <time>2025-05-17T14:14:43Z</time>
      </trkpt>
      <trkpt lat="43.712256029248238" lon="5.774829033762217">
        <ele>298.63</ele>
        <time>2025-05-17T14:14:44Z</time>
      </trkpt>
      <trkpt lat="43.71228301897645" lon="5.77485996298492">
        <ele>298.63</ele>
        <time>2025-05-17T14:14:45Z</time>
      </trkpt>
      <trkpt lat="43.712401036173105" lon="5.77485996298492">
        <ele>298.63</ele>
        <time>2025-05-17T14:14:46Z</time>
      </trkpt>
      <trkpt lat="43.712547970935702" lon="5.774876978248358">
        <ele>298.14999999999998</ele>
        <time>2025-05-17T14:14:47Z</time>
      </trkpt>
      <trkpt lat="43.712607985362411" lon="5.774970017373562">
        <ele>298.14999999999998</ele>
        <time>2025-05-17T14:14:48Z</time>
      </trkpt>
      <trkpt lat="43.712675962597132" lon="5.775076970458031">
        <ele>297.67000000000002</ele>
        <time>2025-05-17T14:14:49Z</time>
      </trkpt>
      <trkpt lat="43.712750980630517" lon="5.775194987654686">
        <ele>297.18000000000001</ele>
        <time>2025-05-17T14:14:50Z</time>
      </trkpt>
      <trkpt lat="43.712825998663902" lon="5.775324990972877">
        <ele>297.18000000000001</ele>
        <time>2025-05-17T14:14:51Z</time>
      </trkpt>
      <trkpt lat="43.712893975898623" lon="5.775465974584222">
        <ele>296.69999999999999</ele>
        <time>2025-05-17T14:14:52Z</time>
      </trkpt>
      <trkpt lat="43.712966982275248" lon="5.775616010650992">
        <ele>296.22000000000003</ele>
        <time>2025-05-17T14:14:53Z</time>
      </trkpt>
      <trkpt lat="43.713623033836484" lon="5.777141014114022">
        <ele>291.42000000000002</ele>
        <time>2025-05-17T14:15:01Z</time>
      </trkpt>
      <trkpt lat="43.714205995202065" lon="5.778697030618787">
        <ele>286.61000000000001</ele>
        <time>2025-05-17T14:15:08Z</time>
      </trkpt>
      <trkpt lat="43.714338010177016" lon="5.778845977038145">
        <ele>285.64999999999998</ele>
        <time>2025-05-17T14:15:09Z</time>
      </trkpt>
      <trkpt lat="43.714467007666826" lon="5.778990983963013">
        <ele>284.69</ele>
        <time>2025-05-17T14:15:10Z</time>
      </trkpt>
      <trkpt lat="43.714879984036088" lon="5.779355010017753">
        <ele>281.80000000000001</ele>
        <time>2025-05-17T14:15:13Z</time>
      </trkpt>
      <trkpt lat="43.714994983747602" lon="5.779518038034439">
        <ele>280.83999999999997</ele>
        <time>2025-05-17T14:15:14Z</time>
      </trkpt>
      <trkpt lat="43.715086011216044" lon="5.779705960303545">
        <ele>280.36000000000001</ele>
        <time>2025-05-17T14:15:15Z</time>
      </trkpt>
      <trkpt lat="43.715301007032394" lon="5.780347008258104">
        <ele>277.48000000000002</ele>
        <time>2025-05-17T14:15:18Z</time>
      </trkpt>
      <trkpt lat="43.715393962338567" lon="5.780823016539216">
        <ele>276.51999999999998</ele>
        <time>2025-05-17T14:15:20Z</time>
      </trkpt>
      <trkpt lat="43.715691016986966" lon="5.783296013250947">
        <ele>273.14999999999998</ele>
        <time>2025-05-17T14:15:30Z</time>
      </trkpt>
      <trkpt lat="43.715895032510161" lon="5.785106001421809">
        <ele>269.79000000000002</ele>
        <time>2025-05-17T14:15:37Z</time>
      </trkpt>
      <trkpt lat="43.715919004753232" lon="5.785370031371713">
        <ele>269.31</ele>
        <time>2025-05-17T14:15:38Z</time>
      </trkpt>
      <trkpt lat="43.716031992807984" lon="5.786939039826393">
        <ele>264.01999999999998</ele>
        <time>2025-05-17T14:15:45Z</time>
      </trkpt>
      <trkpt lat="43.716062000021338" lon="5.787112964317203">
        <ele>263.06</ele>
        <time>2025-05-17T14:15:46Z</time>
      </trkpt>
      <trkpt lat="43.716096030548215" lon="5.787282027304173">
        <ele>262.57999999999998</ele>
        <time>2025-05-17T14:15:47Z</time>
      </trkpt>
      <trkpt lat="43.716156966984272" lon="5.787442037835717">
        <ele>262.10000000000002</ele>
        <time>2025-05-17T14:15:48Z</time>
      </trkpt>
      <trkpt lat="43.716249000281096" lon="5.787574974820018">
        <ele>261.62</ele>
        <time>2025-05-17T14:15:49Z</time>
      </trkpt>
      <trkpt lat="43.716346984729171" lon="5.787701038643718">
        <ele>261.13999999999999</ele>
        <time>2025-05-17T14:15:50Z</time>
      </trkpt>
      <trkpt lat="43.716455027461052" lon="5.787824001163244">
        <ele>260.64999999999998</ele>
        <time>2025-05-17T14:15:51Z</time>
      </trkpt>
      <trkpt lat="43.71655804105103" lon="5.78794302418828">
        <ele>260.64999999999998</ele>
        <time>2025-05-17T14:15:52Z</time>
      </trkpt>
      <trkpt lat="43.7167530041188" lon="5.788169000297785">
        <ele>259.20999999999998</ele>
        <time>2025-05-17T14:15:54Z</time>
      </trkpt>
      <trkpt lat="43.716801032423973" lon="5.788326999172568">
        <ele>258.73000000000002</ele>
        <time>2025-05-17T14:15:55Z</time>
      </trkpt>
      <trkpt lat="43.716841014102101" lon="5.788493966683745">
        <ele>257.76999999999998</ele>
        <time>2025-05-17T14:15:56Z</time>
      </trkpt>
      <trkpt lat="43.717051986604929" lon="5.790063980966806">
        <ele>259.20999999999998</ele>
        <time>2025-05-17T14:16:04Z</time>
      </trkpt>
      <trkpt lat="43.717206967994571" lon="5.792298009619117">
        <ele>260.64999999999998</ele>
        <time>2025-05-17T14:16:14Z</time>
      </trkpt>
      <trkpt lat="43.717619022354484" lon="5.794169018045068">
        <ele>262.10000000000002</ele>
        <time>2025-05-17T14:16:23Z</time>
      </trkpt>
      <trkpt lat="43.717923033982515" lon="5.796084031462669">
        <ele>263.06</ele>
        <time>2025-05-17T14:16:32Z</time>
      </trkpt>
      <trkpt lat="43.718222016468644" lon="5.798489972949028">
        <ele>264.5</ele>
        <time>2025-05-17T14:16:43Z</time>
      </trkpt>
      <trkpt lat="43.718590987846255" lon="5.80117603763938">
        <ele>267.86000000000001</ele>
        <time>2025-05-17T14:16:56Z</time>
      </trkpt>
      <trkpt lat="43.718589982017875" lon="5.8022749889642">
        <ele>268.82999999999998</ele>
        <time>2025-05-17T14:17:01Z</time>
      </trkpt>
      <trkpt lat="43.718546982854605" lon="5.803882973268628">
        <ele>269.31</ele>
        <time>2025-05-17T14:17:08Z</time>
      </trkpt>
      <trkpt lat="43.718567015603185" lon="5.804112972691655">
        <ele>269.31</ele>
        <time>2025-05-17T14:17:09Z</time>
      </trkpt>
      <trkpt lat="43.718586964532733" lon="5.804342972114682">
        <ele>269.79000000000002</ele>
        <time>2025-05-17T14:17:10Z</time>
      </trkpt>
      <trkpt lat="43.719103960320354" lon="5.806522015482187">
        <ele>272.67000000000002</ele>
        <time>2025-05-17T14:17:20Z</time>
      </trkpt>
      <trkpt lat="43.719662027433515" lon="5.808156989514828">
        <ele>276.51999999999998</ele>
        <time>2025-05-17T14:17:29Z</time>
      </trkpt>
      <trkpt lat="43.719780966639519" lon="5.808481033891439">
        <ele>277.48000000000002</ele>
        <time>2025-05-17T14:17:31Z</time>
      </trkpt>
      <trkpt lat="43.719835029914975" lon="5.808628974482417">
        <ele>277.48000000000002</ele>
        <time>2025-05-17T14:17:32Z</time>
      </trkpt>
      <trkpt lat="43.719886997714639" lon="5.808770963922143">
        <ele>277.95999999999998</ele>
        <time>2025-05-17T14:17:33Z</time>
      </trkpt>
      <trkpt lat="43.720029992982745" lon="5.808989983052015">
        <ele>277.95999999999998</ele>
        <time>2025-05-17T14:17:35Z</time>
      </trkpt>
      <trkpt lat="43.720110962167382" lon="5.809088973328471">
        <ele>278.44</ele>
        <time>2025-05-17T14:17:36Z</time>
      </trkpt>
      <trkpt lat="43.720416985452175" lon="5.809451993554831">
        <ele>278.92000000000002</ele>
        <time>2025-05-17T14:17:40Z</time>
      </trkpt>
      <trkpt lat="43.721271017566323" lon="5.810137968510389">
        <ele>277.95999999999998</ele>
        <time>2025-05-17T14:17:49Z</time>
      </trkpt>
      <trkpt lat="43.721497999504209" lon="5.810238970443606">
        <ele>277.95999999999998</ele>
        <time>2025-05-17T14:17:51Z</time>
      </trkpt>
      <trkpt lat="43.722378015518188" lon="5.810413984581828">
        <ele>277</ele>
        <time>2025-05-17T14:18:00Z</time>
      </trkpt>
      <trkpt lat="43.722448004409671" lon="5.810429994016886">
        <ele>277</ele>
        <time>2025-05-17T14:18:01Z</time>
      </trkpt>
      <trkpt lat="43.72251195833087" lon="5.810444997623563">
        <ele>277</ele>
        <time>2025-05-17T14:18:02Z</time>
      </trkpt>
      <trkpt lat="43.722577001899481" lon="5.810457989573479">
        <ele>277</ele>
        <time>2025-05-17T14:18:03Z</time>
      </trkpt>
      <trkpt lat="43.722583958879113" lon="5.81065303646028">
        <ele>277</ele>
        <time>2025-05-17T14:18:04Z</time>
      </trkpt>
      <trkpt lat="43.722640033811331" lon="5.810709027573466">
        <ele>277.48000000000002</ele>
        <time>2025-05-17T14:18:05Z</time>
      </trkpt>
      <trkpt lat="43.722750004380941" lon="5.810705004259944">
        <ele>277.48000000000002</ele>
        <time>2025-05-17T14:18:06Z</time>
      </trkpt>
      <trkpt lat="43.722774982452393" lon="5.81069502979517">
        <ele>277.48000000000002</ele>
        <time>2025-05-17T14:18:07Z</time>
      </trkpt>
      <trkpt lat="43.72287699021399" lon="5.810538036748767">
        <ele>277.48000000000002</ele>
        <time>2025-05-17T14:18:08Z</time>
      </trkpt>
      <trkpt lat="43.72296198271215" lon="5.81052403897047">
        <ele>277.48000000000002</ele>
        <time>2025-05-17T14:18:09Z</time>
      </trkpt>
      <trkpt lat="43.723059967160225" lon="5.81052303314209">
        <ele>277</ele>
        <time>2025-05-17T14:18:10Z</time>
      </trkpt>
      <trkpt lat="43.723156023770571" lon="5.81052303314209">
        <ele>277</ele>
        <time>2025-05-17T14:18:11Z</time>
      </trkpt>
      <trkpt lat="43.723249984905124" lon="5.81052303314209">
        <ele>276.51999999999998</ele>
        <time>2025-05-17T14:18:12Z</time>
      </trkpt>
      <trkpt lat="43.72354100458324" lon="5.810565026476979">
        <ele>277</ele>
        <time>2025-05-17T14:18:15Z</time>
      </trkpt>
      <trkpt lat="43.724521016702056" lon="5.810691006481648">
        <ele>277</ele>
        <time>2025-05-17T14:18:25Z</time>
      </trkpt>
      <trkpt lat="43.725499017164111" lon="5.810822015628219">
        <ele>277</ele>
        <time>2025-05-17T14:18:37Z</time>
      </trkpt>
      <trkpt lat="43.725809985771775" lon="5.810873983427882">
        <ele>276.04000000000002</ele>
        <time>2025-05-17T14:18:43Z</time>
      </trkpt>
      <trkpt lat="43.725864971056581" lon="5.810887981206179">
        <ele>276.04000000000002</ele>
        <time>2025-05-17T14:18:44Z</time>
      </trkpt>
      <trkpt lat="43.72590403072536" lon="5.810887981206179">
        <ele>276.04000000000002</ele>
        <time>2025-05-17T14:18:45Z</time>
      </trkpt>
      <trkpt lat="43.725965972989798" lon="5.810894016176462">
        <ele>275.56</ele>
        <time>2025-05-17T14:18:46Z</time>
      </trkpt>
      <trkpt lat="43.726026993244886" lon="5.810918994247913">
        <ele>275.56</ele>
        <time>2025-05-17T14:18:47Z</time>
      </trkpt>
      <trkpt lat="43.726092958822846" lon="5.810945983976126">
        <ele>275.56</ele>
        <time>2025-05-17T14:18:48Z</time>
      </trkpt>
      <trkpt lat="43.72616202570498" lon="5.810974985361099">
        <ele>275.56</ele>
        <time>2025-05-17T14:18:49Z</time>
      </trkpt>
      <trkpt lat="43.726316001266241" lon="5.811038017272949">
        <ele>275.06999999999999</ele>
        <time>2025-05-17T14:18:51Z</time>
      </trkpt>
      <trkpt lat="43.726460002362728" lon="5.811226023361087">
        <ele>275.06999999999999</ele>
        <time>2025-05-17T14:18:54Z</time>
      </trkpt>
      <trkpt lat="43.726511970162392" lon="5.811291988939047">
        <ele>275.06999999999999</ele>
        <time>2025-05-17T14:18:55Z</time>
      </trkpt>
      <trkpt lat="43.726544994860888" lon="5.811373963952065">
        <ele>275.06999999999999</ele>
        <time>2025-05-17T14:18:56Z</time>
      </trkpt>
      <trkpt lat="43.726565027609468" lon="5.811453005298972">
        <ele>274.58999999999997</ele>
        <time>2025-05-17T14:18:57Z</time>
      </trkpt>
      <trkpt lat="43.726579025387764" lon="5.8115120138973">
        <ele>275.06999999999999</ele>
        <time>2025-05-17T14:18:58Z</time>
      </trkpt>
      <trkpt lat="43.726591011509299" lon="5.811558030545712">
        <ele>275.06999999999999</ele>
        <time>2025-05-17T14:18:59Z</time>
      </trkpt>
      <trkpt lat="43.726600985974073" lon="5.81159901805222">
        <ele>275.06999999999999</ele>
        <time>2025-05-17T14:19:00Z</time>
      </trkpt>
      <trkpt lat="43.726612972095609" lon="5.811647968366742">
        <ele>275.56</ele>
        <time>2025-05-17T14:19:01Z</time>
      </trkpt>
      <trkpt lat="43.726651025936007" lon="5.811828011646867">
        <ele>276.04000000000002</ele>
        <time>2025-05-17T14:19:04Z</time>
      </trkpt>
      <trkpt lat="43.72665898874402" lon="5.811875034123659">
        <ele>276.04000000000002</ele>
        <time>2025-05-17T14:19:05Z</time>
      </trkpt>
      <trkpt lat="43.726595034822822" lon="5.812024986371398">
        <ele>276.04000000000002</ele>
        <time>2025-05-17T14:19:06Z</time>
      </trkpt>
      <trkpt lat="43.726595034822822" lon="5.812047030776739">
        <ele>276.51999999999998</ele>
        <time>2025-05-17T14:19:07Z</time>
      </trkpt>
      <trkpt lat="43.726595034822822" lon="5.812110984697938">
        <ele>276.51999999999998</ele>
        <time>2025-05-17T14:19:08Z</time>
      </trkpt>
      <trkpt lat="43.726681033149362" lon="5.812198994681239">
        <ele>276.51999999999998</ele>
        <time>2025-05-17T14:19:09Z</time>
      </trkpt>
      <trkpt lat="43.726681033149362" lon="5.812274012714624">
        <ele>277</ele>
        <time>2025-05-17T14:19:10Z</time>
      </trkpt>
      <trkpt lat="43.726681033149362" lon="5.812367973849177">
        <ele>277</ele>
        <time>2025-05-17T14:19:11Z</time>
      </trkpt>
      <trkpt lat="43.726681033149362" lon="5.812451038509607">
        <ele>277.48000000000002</ele>
        <time>2025-05-17T14:19:12Z</time>
      </trkpt>
      <trkpt lat="43.726751022040844" lon="5.812917994335294">
        <ele>279.39999999999998</ele>
        <time>2025-05-17T14:19:17Z</time>
      </trkpt>
      <trkpt lat="43.726767031475902" lon="5.813012039288878">
        <ele>279.39999999999998</ele>
        <time>2025-05-17T14:19:18Z</time>
      </trkpt>
      <trkpt lat="43.726826962083578" lon="5.813071969896555">
        <ele>279.39999999999998</ele>
        <time>2025-05-17T14:19:19Z</time>
      </trkpt>
      <trkpt lat="43.726895023137331" lon="5.813141036778688">
        <ele>279.88</ele>
        <time>2025-05-17T14:19:20Z</time>
      </trkpt>
      <trkpt lat="43.726968029513955" lon="5.813158974051476">
        <ele>279.88</ele>
        <time>2025-05-17T14:19:21Z</time>
      </trkpt>
      <trkpt lat="43.727059978991747" lon="5.813182024285197">
        <ele>279.88</ele>
        <time>2025-05-17T14:19:22Z</time>
      </trkpt>
      <trkpt lat="43.727141031995416" lon="5.813153022900224">
        <ele>279.39999999999998</ele>
        <time>2025-05-17T14:19:23Z</time>
      </trkpt>
      <trkpt lat="43.72723700478673" lon="5.813112035393715">
        <ele>278.92000000000002</ele>
        <time>2025-05-17T14:19:24Z</time>
      </trkpt>
      <trkpt lat="43.727332977578044" lon="5.813071969896555">
        <ele>278.92000000000002</ele>
        <time>2025-05-17T14:19:25Z</time>
      </trkpt>
      <trkpt lat="43.727528024464846" lon="5.813000975176692">
        <ele>277.95999999999998</ele>
        <time>2025-05-17T14:19:27Z</time>
      </trkpt>
      <trkpt lat="43.728211987763643" lon="5.812860997393727">
        <ele>278.92000000000002</ele>
        <time>2025-05-17T14:19:36Z</time>
      </trkpt>
      <trkpt lat="43.728347020223737" lon="5.812834007665515">
        <ele>279.39999999999998</ele>
        <time>2025-05-17T14:19:38Z</time>
      </trkpt>
      <trkpt lat="43.729050010442734" lon="5.812722025439143">
        <ele>279.39999999999998</ele>
        <time>2025-05-17T14:19:47Z</time>
      </trkpt>
      <trkpt lat="43.72912997379899" lon="5.812726970762014">
        <ele>279.88</ele>
        <time>2025-05-17T14:19:48Z</time>
      </trkpt>
      <trkpt lat="43.729233993217349" lon="5.812733005732298">
        <ele>280.36000000000001</ele>
        <time>2025-05-17T14:19:49Z</time>
      </trkpt>
      <trkpt lat="43.729281015694141" lon="5.812753038480878">
        <ele>280.36000000000001</ele>
        <time>2025-05-17T14:19:50Z</time>
      </trkpt>
      <trkpt lat="43.729338012635708" lon="5.812776004895568">
        <ele>280.83999999999997</ele>
        <time>2025-05-17T14:19:51Z</time>
      </trkpt>
      <trkpt lat="43.729389980435371" lon="5.812797965481877">
        <ele>281.31999999999999</ele>
        <time>2025-05-17T14:19:52Z</time>
      </trkpt>
      <trkpt lat="43.729437002912164" lon="5.812816992402077">
        <ele>281.80000000000001</ele>
        <time>2025-05-17T14:19:53Z</time>
      </trkpt>
      <trkpt lat="43.729597013443708" lon="5.812911037355661">
        <ele>283.25</ele>
        <time>2025-05-17T14:19:56Z</time>
      </trkpt>
      <trkpt lat="43.730230014771223" lon="5.813990961760283">
        <ele>288.52999999999997</ele>
        <time>2025-05-17T14:20:10Z</time>
      </trkpt>
      <trkpt lat="43.730952031910419" lon="5.815645968541503">
        <ele>290.45999999999998</ele>
        <time>2025-05-17T14:20:26Z</time>
      </trkpt>
      <trkpt lat="43.731298036873341" lon="5.816702004522085">
        <ele>292.86000000000001</ele>
        <time>2025-05-17T14:20:35Z</time>
      </trkpt>
      <trkpt lat="43.731386968865991" lon="5.817245990037918">
        <ele>294.30000000000001</ele>
        <time>2025-05-17T14:20:39Z</time>
      </trkpt>
      <trkpt lat="43.731409013271332" lon="5.817385967820883">
        <ele>294.30000000000001</ele>
        <time>2025-05-17T14:20:40Z</time>
      </trkpt>
      <trkpt lat="43.731434997171164" lon="5.817528963088989">
        <ele>294.30000000000001</ele>
        <time>2025-05-17T14:20:41Z</time>
      </trkpt>
      <trkpt lat="43.731676982715726" lon="5.819223029538989">
        <ele>295.74000000000001</ele>
        <time>2025-05-17T14:20:52Z</time>
      </trkpt>
      <trkpt lat="43.731819977983832" lon="5.820371014997363">
        <ele>296.22000000000003</ele>
        <time>2025-05-17T14:21:02Z</time>
      </trkpt>
      <trkpt lat="43.732132958248258" lon="5.821885038167238">
        <ele>295.74000000000001</ele>
        <time>2025-05-17T14:21:13Z</time>
      </trkpt>
      <trkpt lat="43.732282994315028" lon="5.822633039206266">
        <ele>295.74000000000001</ele>
        <time>2025-05-17T14:21:21Z</time>
      </trkpt>
      <trkpt lat="43.732504025101662" lon="5.823976993560791">
        <ele>295.74000000000001</ele>
        <time>2025-05-17T14:21:30Z</time>
      </trkpt>
      <trkpt lat="43.732538977637887" lon="5.82474703900516">
        <ele>294.77999999999997</ele>
        <time>2025-05-17T14:21:37Z</time>
      </trkpt>
      <trkpt lat="43.732589017599821" lon="5.825954033061862">
        <ele>295.74000000000001</ele>
        <time>2025-05-17T14:21:46Z</time>
      </trkpt>
      <trkpt lat="43.73277903534472" lon="5.827371999621391">
        <ele>298.14999999999998</ele>
        <time>2025-05-17T14:21:55Z</time>
      </trkpt>
      <trkpt lat="43.732946002855897" lon="5.828664992004633">
        <ele>301.02999999999997</ele>
        <time>2025-05-17T14:22:03Z</time>
      </trkpt>
      <trkpt lat="43.732989002019167" lon="5.830308012664318">
        <ele>302.94999999999999</ele>
        <time>2025-05-17T14:22:13Z</time>
      </trkpt>
      <trkpt lat="43.733107019215822" lon="5.830948976799846">
        <ele>304.88</ele>
        <time>2025-05-17T14:22:17Z</time>
      </trkpt>
      <trkpt lat="43.733194023370743" lon="5.83125801756978">
        <ele>306.31999999999999</ele>
        <time>2025-05-17T14:22:19Z</time>
      </trkpt>
      <trkpt lat="43.733504991978407" lon="5.832121018320322">
        <ele>310.63999999999999</ele>
        <time>2025-05-17T14:22:27Z</time>
      </trkpt>
      <trkpt lat="43.73357598669827" lon="5.832339031621814">
        <ele>311.60000000000002</ele>
        <time>2025-05-17T14:22:29Z</time>
      </trkpt>
      <trkpt lat="43.733716970309615" lon="5.832904977723956">
        <ele>313.05000000000001</ele>
        <time>2025-05-17T14:22:33Z</time>
      </trkpt>
      <trkpt lat="43.733752006664872" lon="5.833070017397404">
        <ele>313.52999999999997</ele>
        <time>2025-05-17T14:22:34Z</time>
      </trkpt>
      <trkpt lat="43.733824007213116" lon="5.833413004875183">
        <ele>314.97000000000003</ele>
        <time>2025-05-17T14:22:36Z</time>
      </trkpt>
      <trkpt lat="43.734097005799413" lon="5.834517991170287">
        <ele>315.93000000000001</ele>
        <time>2025-05-17T14:22:42Z</time>
      </trkpt>
      <trkpt lat="43.734175963327289" lon="5.83469401113689">
        <ele>315.93000000000001</ele>
        <time>2025-05-17T14:22:43Z</time>
      </trkpt>
      <trkpt lat="43.734281994402409" lon="5.834853015840054">
        <ele>315.93000000000001</ele>
        <time>2025-05-17T14:22:44Z</time>
      </trkpt>
      <trkpt lat="43.73495195992291" lon="5.835676034912467">
        <ele>316.88999999999999</ele>
        <time>2025-05-17T14:22:50Z</time>
      </trkpt>
      <trkpt lat="43.73589601367712" lon="5.836738022044301">
        <ele>317.37</ele>
        <time>2025-05-17T14:22:58Z</time>
      </trkpt>
      <trkpt lat="43.736473023891449" lon="5.83766296505928">
        <ele>317.85000000000002</ele>
        <time>2025-05-17T14:23:04Z</time>
      </trkpt>
      <trkpt lat="43.736531026661396" lon="5.837809983640909">
        <ele>317.85000000000002</ele>
        <time>2025-05-17T14:23:05Z</time>
      </trkpt>
      <trkpt lat="43.736546030268073" lon="5.837968988344073">
        <ele>317.85000000000002</ele>
        <time>2025-05-17T14:23:06Z</time>
      </trkpt>
      <trkpt lat="43.736537983641028" lon="5.838148025795817">
        <ele>317.85000000000002</ele>
        <time>2025-05-17T14:23:07Z</time>
      </trkpt>
      <trkpt lat="43.736530020833015" lon="5.838332008570433">
        <ele>317.85000000000002</ele>
        <time>2025-05-17T14:23:08Z</time>
      </trkpt>
      <trkpt lat="43.736499007791281" lon="5.838524037972093">
        <ele>317.85000000000002</ele>
        <time>2025-05-17T14:23:09Z</time>
      </trkpt>
      <trkpt lat="43.736365986987948" lon="5.839496003463864">
        <ele>316.88999999999999</ele>
        <time>2025-05-17T14:23:14Z</time>
      </trkpt>
      <trkpt lat="43.736389959231019" lon="5.839671017602086">
        <ele>316.41000000000003</ele>
        <time>2025-05-17T14:23:15Z</time>
      </trkpt>
      <trkpt lat="43.736444022506475" lon="5.839833039790392">
        <ele>316.41000000000003</ele>
        <time>2025-05-17T14:23:16Z</time>
      </trkpt>
      <trkpt lat="43.73652096837759" lon="5.839994978159666">
        <ele>315.93000000000001</ele>
        <time>2025-05-17T14:23:17Z</time>
      </trkpt>
      <trkpt lat="43.73660696670413" lon="5.840143002569675">
        <ele>315.93000000000001</ele>
        <time>2025-05-17T14:23:18Z</time>
      </trkpt>
      <trkpt lat="43.73669195920229" lon="5.840289015322924">
        <ele>315.44999999999999</ele>
        <time>2025-05-17T14:23:19Z</time>
      </trkpt>
      <trkpt lat="43.73681802302599" lon="5.840357998386025">
        <ele>314.97000000000003</ele>
        <time>2025-05-17T14:23:20Z</time>
      </trkpt>
      <trkpt lat="43.736894968897104" lon="5.840392028912902">
        <ele>314.97000000000003</ele>
        <time>2025-05-17T14:23:21Z</time>
      </trkpt>
      <trkpt lat="43.737049028277397" lon="5.840370990335941">
        <ele>314.49000000000001</ele>
        <time>2025-05-17T14:23:22Z</time>
      </trkpt>
      <trkpt lat="43.737171990796924" lon="5.840353975072503">
        <ele>314.00999999999999</ele>
        <time>2025-05-17T14:23:23Z</time>
      </trkpt>
      <trkpt lat="43.737612962722778" lon="5.840292032808065">
        <ele>312.56999999999999</ele>
        <time>2025-05-17T14:23:26Z</time>
      </trkpt>
      <trkpt lat="43.738756002858281" lon="5.840354980900884">
        <ele>308.24000000000001</ele>
        <time>2025-05-17T14:23:33Z</time>
      </trkpt>
      <trkpt lat="43.739769039675593" lon="5.840523960068822">
        <ele>304.38999999999999</ele>
        <time>2025-05-17T14:23:39Z</time>
      </trkpt>
      <trkpt lat="43.740798002108932" lon="5.840896032750607">
        <ele>297.67000000000002</ele>
        <time>2025-05-17T14:23:46Z</time>
      </trkpt>
      <trkpt lat="43.742028968408704" lon="5.841777976602316">
        <ele>293.33999999999997</ele>
        <time>2025-05-17T14:23:55Z</time>
      </trkpt>
      <trkpt lat="43.742323005571961" lon="5.842010993510485">
        <ele>292.86000000000001</ele>
        <time>2025-05-17T14:23:59Z</time>
      </trkpt>
      <trkpt lat="43.742369022220373" lon="5.842048041522503">
        <ele>292.86000000000001</ele>
        <time>2025-05-17T14:24:00Z</time>
      </trkpt>
      <trkpt lat="43.742586029693484" lon="5.842222971841693">
        <ele>291.42000000000002</ele>
        <time>2025-05-17T14:24:09Z</time>
      </trkpt>
      <trkpt lat="43.742635985836387" lon="5.842263037338853">
        <ele>290.94</ele>
        <time>2025-05-17T14:24:18Z</time>
      </trkpt>
      <trkpt lat="43.742765989154577" lon="5.842124987393618">
        <ele>294.30000000000001</ele>
        <time>2025-05-17T14:26:30Z</time>
      </trkpt>
      <trkpt lat="43.742726007476449" lon="5.842195982113481">
        <ele>296.22000000000003</ele>
        <time>2025-05-17T14:27:06Z</time>
      </trkpt>
      <trkpt lat="43.742760038003325" lon="5.842195982113481">
        <ele>301.50999999999999</ele>
        <time>2025-05-17T14:27:56Z</time>
      </trkpt>
      <trkpt lat="43.742757020518184" lon="5.842169998213649">
        <ele>301.02999999999997</ele>
        <time>2025-05-17T14:28:40Z</time>
      </trkpt>
      <trkpt lat="43.742752997204661" lon="5.842177961021662">
        <ele>299.58999999999997</ele>
        <time>2025-05-17T14:29:37Z</time>
      </trkpt>
      <trkpt lat="43.742752997204661" lon="5.842177961021662">
        <ele>299.58999999999997</ele>
        <time>2025-05-17T14:29:45Z</time>
      </trkpt>
      <trkpt lat="43.742702035233378" lon="5.842193970456719">
        <ele>298.63</ele>
        <time>2025-05-17T14:30:11Z</time>
      </trkpt>
      <trkpt lat="43.742716033011675" lon="5.842206040397286">
        <ele>298.14999999999998</ele>
        <time>2025-05-17T14:30:59Z</time>
      </trkpt>
      <trkpt lat="43.742716033011675" lon="5.842206040397286">
        <ele>298.14999999999998</ele>
        <time>2025-05-17T14:31:21Z</time>
      </trkpt>
      <trkpt lat="43.742720978334546" lon="5.842332020401955">
        <ele>295.74000000000001</ele>
        <time>2025-05-17T14:31:27Z</time>
      </trkpt>
      <trkpt lat="43.742776969447732" lon="5.842377031221986">
        <ele>294.77999999999997</ele>
        <time>2025-05-17T14:31:28Z</time>
      </trkpt>
      <trkpt lat="43.742847964167595" lon="5.842437967658043">
        <ele>294.30000000000001</ele>
        <time>2025-05-17T14:31:29Z</time>
      </trkpt>
      <trkpt lat="43.742925999686122" lon="5.842509968206286">
        <ele>293.81999999999999</ele>
        <time>2025-05-17T14:31:30Z</time>
      </trkpt>
      <trkpt lat="43.74300797469914" lon="5.842584986239672">
        <ele>293.33999999999997</ele>
        <time>2025-05-17T14:31:31Z</time>
      </trkpt>
      <trkpt lat="43.743979018181562" lon="5.843476988375187">
        <ele>292.38</ele>
        <time>2025-05-17T14:31:40Z</time>
      </trkpt>
      <trkpt lat="43.744357964023948" lon="5.843889964744449">
        <ele>292.86000000000001</ele>
        <time>2025-05-17T14:31:43Z</time>
      </trkpt>
      <trkpt lat="43.745034970343113" lon="5.844846004620194">
        <ele>294.77999999999997</ele>
        <time>2025-05-17T14:31:49Z</time>
      </trkpt>
      <trkpt lat="43.745236974209547" lon="5.845130989328027">
        <ele>296.22000000000003</ele>
        <time>2025-05-17T14:31:51Z</time>
      </trkpt>
      <trkpt lat="43.745340993627906" lon="5.845235008746386">
        <ele>296.22000000000003</ele>
        <time>2025-05-17T14:31:52Z</time>
      </trkpt>
      <trkpt lat="43.7454569991678" lon="5.84530902095139">
        <ele>296.69999999999999</ele>
        <time>2025-05-17T14:31:53Z</time>
      </trkpt>
      <trkpt lat="43.745589014142752" lon="5.845349002629519">
        <ele>297.18000000000001</ele>
        <time>2025-05-17T14:31:54Z</time>
      </trkpt>
      <trkpt lat="43.745727986097336" lon="5.845349002629519">
        <ele>297.18000000000001</ele>
        <time>2025-05-17T14:31:55Z</time>
      </trkpt>
      <trkpt lat="43.745873998850584" lon="5.845398958772421">
        <ele>297.67000000000002</ele>
        <time>2025-05-17T14:31:56Z</time>
      </trkpt>
      <trkpt lat="43.74601699411869" lon="5.84545997902751">
        <ele>297.67000000000002</ele>
        <time>2025-05-17T14:31:57Z</time>
      </trkpt>
      <trkpt lat="43.746151020750403" lon="5.845565004274249">
        <ele>297.67000000000002</ele>
        <time>2025-05-17T14:31:58Z</time>
      </trkpt>
      <trkpt lat="43.746279012411833" lon="5.845685033127666">
        <ele>297.67000000000002</ele>
        <time>2025-05-17T14:31:59Z</time>
      </trkpt>
      <trkpt lat="43.746408009901643" lon="5.845815036445856">
        <ele>298.14999999999998</ele>
        <time>2025-05-17T14:32:00Z</time>
      </trkpt>
      <trkpt lat="43.747557001188397" lon="5.847226968035102">
        <ele>299.11000000000001</ele>
        <time>2025-05-17T14:32:09Z</time>
      </trkpt>
      <trkpt lat="43.748168963938951" lon="5.848043030127883">
        <ele>302.47000000000003</ele>
        <time>2025-05-17T14:32:14Z</time>
      </trkpt>
      <trkpt lat="43.74827197752893" lon="5.848208991810679">
        <ele>302.47000000000003</ele>
        <time>2025-05-17T14:32:15Z</time>
      </trkpt>
      <trkpt lat="43.748306008055806" lon="5.848396997898817">
        <ele>302.94999999999999</ele>
        <time>2025-05-17T14:32:16Z</time>
      </trkpt>
      <trkpt lat="43.748341966420412" lon="5.848594978451729">
        <ele>303.43000000000001</ele>
        <time>2025-05-17T14:32:17Z</time>
      </trkpt>
      <trkpt lat="43.74837800860405" lon="5.848798993974924">
        <ele>303.43000000000001</ele>
        <time>2025-05-17T14:32:18Z</time>
      </trkpt>
      <trkpt lat="43.748415978625417" lon="5.849008960649371">
        <ele>303.43000000000001</ele>
        <time>2025-05-17T14:32:19Z</time>
      </trkpt>
      <trkpt lat="43.748459983617067" lon="5.849253963679075">
        <ele>302.94999999999999</ele>
        <time>2025-05-17T14:32:20Z</time>
      </trkpt>
      <trkpt lat="43.748535001650453" lon="5.849435012787581">
        <ele>302.94999999999999</ele>
        <time>2025-05-17T14:32:21Z</time>
      </trkpt>
      <trkpt lat="43.748625023290515" lon="5.849653026089072">
        <ele>303.43000000000001</ele>
        <time>2025-05-17T14:32:22Z</time>
      </trkpt>
      <trkpt lat="43.749587014317513" lon="5.85145303979516">
        <ele>303.43000000000001</ele>
        <time>2025-05-17T14:32:30Z</time>
      </trkpt>
      <trkpt lat="43.750650007277727" lon="5.853026993572712">
        <ele>303.43000000000001</ele>
        <time>2025-05-17T14:32:37Z</time>
      </trkpt>
      <trkpt lat="43.751870999112725" lon="5.855109980329871">
        <ele>302.47000000000003</ele>
        <time>2025-05-17T14:32:46Z</time>
      </trkpt>
      <trkpt lat="43.751897988840938" lon="5.855340985581279">
        <ele>302.47000000000003</ele>
        <time>2025-05-17T14:32:47Z</time>
      </trkpt>
      <trkpt lat="43.751927996054292" lon="5.855605015531182">
        <ele>302.47000000000003</ele>
        <time>2025-05-17T14:32:48Z</time>
      </trkpt>
      <trkpt lat="43.751959009096026" lon="5.855874996632338">
        <ele>301.99000000000001</ele>
        <time>2025-05-17T14:32:49Z</time>
      </trkpt>
      <trkpt lat="43.752135029062629" lon="5.856970008462668">
        <ele>301.50999999999999</ele>
        <time>2025-05-17T14:32:53Z</time>
      </trkpt>
      <trkpt lat="43.752217004075646" lon="5.857234038412571">
        <ele>301.50999999999999</ele>
        <time>2025-05-17T14:32:54Z</time>
      </trkpt>
      <trkpt lat="43.752313982695341" lon="5.857482980936766">
        <ele>301.02999999999997</ele>
        <time>2025-05-17T14:32:55Z</time>
      </trkpt>
      <trkpt lat="43.752492014318705" lon="5.858001988381147">
        <ele>301.02999999999997</ele>
        <time>2025-05-17T14:32:57Z</time>
      </trkpt>
      <trkpt lat="43.753128033131361" lon="5.860203998163343">
        <ele>301.50999999999999</ele>
        <time>2025-05-17T14:33:05Z</time>
      </trkpt>
      <trkpt lat="43.753531035035849" lon="5.861625988036394">
        <ele>302.94999999999999</ele>
        <time>2025-05-17T14:33:11Z</time>
      </trkpt>
      <trkpt lat="43.753639999777079" lon="5.861833021044731">
        <ele>302.94999999999999</ele>
        <time>2025-05-17T14:33:12Z</time>
      </trkpt>
      <trkpt lat="43.753738990053535" lon="5.862022032961249">
        <ele>303.43000000000001</ele>
        <time>2025-05-17T14:33:13Z</time>
      </trkpt>
      <trkpt lat="43.75387703999877" lon="5.862224036827683">
        <ele>303.43000000000001</ele>
        <time>2025-05-17T14:33:14Z</time>
      </trkpt>
      <trkpt lat="43.754005031660199" lon="5.862411037087441">
        <ele>303.43000000000001</ele>
        <time>2025-05-17T14:33:15Z</time>
      </trkpt>
      <trkpt lat="43.754259003326297" lon="5.862785037606955">
        <ele>303.91000000000003</ele>
        <time>2025-05-17T14:33:17Z</time>
      </trkpt>
      <trkpt lat="43.75435397028923" lon="5.863007996231318">
        <ele>303.91000000000003</ele>
        <time>2025-05-17T14:33:18Z</time>
      </trkpt>
      <trkpt lat="43.754452038556337" lon="5.863239001482725">
        <ele>303.91000000000003</ele>
        <time>2025-05-17T14:33:19Z</time>
      </trkpt>
      <trkpt lat="43.755100965499878" lon="5.865232972428203">
        <ele>303.91000000000003</ele>
        <time>2025-05-17T14:33:27Z</time>
      </trkpt>
      <trkpt lat="43.755407994613051" lon="5.86593403480947">
        <ele>303.43000000000001</ele>
        <time>2025-05-17T14:33:30Z</time>
      </trkpt>
      <trkpt lat="43.755459040403366" lon="5.866184988990426">
        <ele>303.43000000000001</ele>
        <time>2025-05-17T14:33:31Z</time>
      </trkpt>
      <trkpt lat="43.755482006818056" lon="5.866439966484904">
        <ele>303.43000000000001</ele>
        <time>2025-05-17T14:33:32Z</time>
      </trkpt>
      <trkpt lat="43.755584014579654" lon="5.867535984143615">
        <ele>302.94999999999999</ele>
        <time>2025-05-17T14:33:37Z</time>
      </trkpt>
      <trkpt lat="43.755649980157614" lon="5.86771703325212">
        <ele>302.94999999999999</ele>
        <time>2025-05-17T14:33:38Z</time>
      </trkpt>
      <trkpt lat="43.755718041211367" lon="5.867857011035085">
        <ele>302.94999999999999</ele>
        <time>2025-05-17T14:33:39Z</time>
      </trkpt>
      <trkpt lat="43.755796998739243" lon="5.86799799464643">
        <ele>302.94999999999999</ele>
        <time>2025-05-17T14:33:40Z</time>
      </trkpt>
      <trkpt lat="43.755876962095499" lon="5.868141995742917">
        <ele>302.94999999999999</ele>
        <time>2025-05-17T14:33:41Z</time>
      </trkpt>
      <trkpt lat="43.755953991785645" lon="5.868279961869121">
        <ele>302.94999999999999</ele>
        <time>2025-05-17T14:33:42Z</time>
      </trkpt>
      <trkpt lat="43.75660702586174" lon="5.869458960369229">
        <ele>303.91000000000003</ele>
        <time>2025-05-17T14:33:51Z</time>
      </trkpt>
      <trkpt lat="43.756658993661404" lon="5.869611008092761">
        <ele>303.91000000000003</ele>
        <time>2025-05-17T14:33:52Z</time>
      </trkpt>
      <trkpt lat="43.756711967289448" lon="5.869765989482403">
        <ele>304.38999999999999</ele>
        <time>2025-05-17T14:33:53Z</time>
      </trkpt>
      <trkpt lat="43.756764018908143" lon="5.869918959215283">
        <ele>304.38999999999999</ele>
        <time>2025-05-17T14:33:54Z</time>
      </trkpt>
      <trkpt lat="43.756769970059395" lon="5.870083998888731">
        <ele>304.38999999999999</ele>
        <time>2025-05-17T14:33:55Z</time>
      </trkpt>
      <trkpt lat="43.756776005029678" lon="5.87025498971343">
        <ele>304.38999999999999</ele>
        <time>2025-05-17T14:33:56Z</time>
      </trkpt>
      <trkpt lat="43.756782039999962" lon="5.87042698636651">
        <ele>304.38999999999999</ele>
        <time>2025-05-17T14:33:57Z</time>
      </trkpt>
      <trkpt lat="43.756676008924842" lon="5.872089033946395">
        <ele>304.88</ele>
        <time>2025-05-17T14:34:07Z</time>
      </trkpt>
      <trkpt lat="43.756698975339532" lon="5.87225197814405">
        <ele>305.36000000000001</ele>
        <time>2025-05-17T14:34:08Z</time>
      </trkpt>
      <trkpt lat="43.756989995017648" lon="5.874405959621072">
        <ele>309.68000000000001</ele>
        <time>2025-05-17T14:34:21Z</time>
      </trkpt>
      <trkpt lat="43.757063001394272" lon="5.874903006479144">
        <ele>311.12</ele>
        <time>2025-05-17T14:34:24Z</time>
      </trkpt>
      <trkpt lat="43.757141036912799" lon="5.875039966776967">
        <ele>312.08999999999997</ele>
        <time>2025-05-17T14:34:25Z</time>
      </trkpt>
      <trkpt lat="43.757224017754197" lon="5.875162007287145">
        <ele>313.05000000000001</ele>
        <time>2025-05-17T14:34:26Z</time>
      </trkpt>
      <trkpt lat="43.757645040750504" lon="5.875761983916163">
        <ele>317.85000000000002</ele>
        <time>2025-05-17T14:34:31Z</time>
      </trkpt>
      <trkpt lat="43.757716035470366" lon="5.875905985012651">
        <ele>318.81</ele>
        <time>2025-05-17T14:34:32Z</time>
      </trkpt>
      <trkpt lat="43.757744031026959" lon="5.876072030514479">
        <ele>320.25999999999999</ele>
        <time>2025-05-17T14:34:33Z</time>
      </trkpt>
      <trkpt lat="43.757750988006592" lon="5.876233968883753">
        <ele>321.22000000000003</ele>
        <time>2025-05-17T14:34:34Z</time>
      </trkpt>
      <trkpt lat="43.757742019370198" lon="5.87639800272882">
        <ele>322.18000000000001</ele>
        <time>2025-05-17T14:34:35Z</time>
      </trkpt>
      <trkpt lat="43.75772500410676" lon="5.876564970239997">
        <ele>323.13999999999999</ele>
        <time>2025-05-17T14:34:36Z</time>
      </trkpt>
      <trkpt lat="43.757665995508432" lon="5.877497037872672">
        <ele>326.5</ele>
        <time>2025-05-17T14:34:42Z</time>
      </trkpt>
      <trkpt lat="43.757686028257012" lon="5.877777999266982">
        <ele>327.47000000000003</ele>
        <time>2025-05-17T14:34:44Z</time>
      </trkpt>
      <trkpt lat="43.757726009935141" lon="5.877918982878327">
        <ele>328.43000000000001</ele>
        <time>2025-05-17T14:34:45Z</time>
      </trkpt>
      <trkpt lat="43.757769009098411" lon="5.878070024773479">
        <ele>328.91000000000003</ele>
        <time>2025-05-17T14:34:46Z</time>
      </trkpt>
      <trkpt lat="43.757827011868358" lon="5.878216959536076">
        <ele>328.91000000000003</ele>
        <time>2025-05-17T14:34:47Z</time>
      </trkpt>
      <trkpt lat="43.757901024073362" lon="5.878351991996169">
        <ele>329.38999999999999</ele>
        <time>2025-05-17T14:34:48Z</time>
      </trkpt>
      <trkpt lat="43.758116019889712" lon="5.878758011385799">
        <ele>331.79000000000002</ele>
        <time>2025-05-17T14:34:51Z</time>
      </trkpt>
      <trkpt lat="43.758142003789544" lon="5.87888902053237">
        <ele>332.75</ele>
        <time>2025-05-17T14:34:52Z</time>
      </trkpt>
      <trkpt lat="43.758196989074349" lon="5.879324041306973">
        <ele>335.63999999999999</ele>
        <time>2025-05-17T14:34:55Z</time>
      </trkpt>
      <trkpt lat="43.758243005722761" lon="5.879447003826499">
        <ele>336.60000000000002</ele>
        <time>2025-05-17T14:34:56Z</time>
      </trkpt>
      <trkpt lat="43.758460013195872" lon="5.879939021542668">
        <ele>340.92000000000002</ele>
        <time>2025-05-17T14:35:01Z</time>
      </trkpt>
      <trkpt lat="43.758460013195872" lon="5.88003097102046">
        <ele>342.37</ele>
        <time>2025-05-17T14:35:02Z</time>
      </trkpt>
      <trkpt lat="43.758450038731098" lon="5.880142031237483">
        <ele>343.81</ele>
        <time>2025-05-17T14:35:03Z</time>
      </trkpt>
      <trkpt lat="43.758417014032602" lon="5.880260970443487">
        <ele>345.25</ele>
        <time>2025-05-17T14:35:04Z</time>
      </trkpt>
      <trkpt lat="43.758352976292372" lon="5.880342023447156">
        <ele>346.69</ele>
        <time>2025-05-17T14:35:05Z</time>
      </trkpt>
      <trkpt lat="43.758289022371173" lon="5.880425004288554">
        <ele>348.13</ele>
        <time>2025-05-17T14:35:06Z</time>
      </trkpt>
      <trkpt lat="43.758246023207903" lon="5.880514020100236">
        <ele>349.10000000000002</ele>
        <time>2025-05-17T14:35:07Z</time>
      </trkpt>
      <trkpt lat="43.758211992681026" lon="5.880617033690214">
        <ele>350.06</ele>
        <time>2025-05-17T14:35:08Z</time>
      </trkpt>
      <trkpt lat="43.758179973810911" lon="5.880712000653148">
        <ele>351.5</ele>
        <time>2025-05-17T14:35:09Z</time>
      </trkpt>
      <trkpt lat="43.758166981860995" lon="5.880829012021422">
        <ele>352.45999999999998</ele>
        <time>2025-05-17T14:35:10Z</time>
      </trkpt>
      <trkpt lat="43.758187014609575" lon="5.880946023389697">
        <ele>353.42000000000002</ele>
        <time>2025-05-17T14:35:11Z</time>
      </trkpt>
      <trkpt lat="43.758222972974181" lon="5.881053982302547">
        <ele>353.89999999999998</ele>
        <time>2025-05-17T14:35:12Z</time>
      </trkpt>
      <trkpt lat="43.758272007107735" lon="5.881155990064144">
        <ele>354.38</ele>
        <time>2025-05-17T14:35:13Z</time>
      </trkpt>
      <trkpt lat="43.758329004049301" lon="5.881234025582671">
        <ele>354.86000000000001</ele>
        <time>2025-05-17T14:35:14Z</time>
      </trkpt>
      <trkpt lat="43.758384995162487" lon="5.881309965625405">
        <ele>354.86000000000001</ele>
        <time>2025-05-17T14:35:15Z</time>
      </trkpt>
      <trkpt lat="43.758473005145788" lon="5.881481040269136">
        <ele>355.82999999999998</ele>
        <time>2025-05-17T14:35:17Z</time>
      </trkpt>
      <trkpt lat="43.758511980995536" lon="5.881568966433406">
        <ele>355.82999999999998</ele>
        <time>2025-05-17T14:35:18Z</time>
      </trkpt>
      <trkpt lat="43.758547017350793" lon="5.881649013608694">
        <ele>356.31</ele>
        <time>2025-05-17T14:35:19Z</time>
      </trkpt>
      <trkpt lat="43.758646007627249" lon="5.881992001086474">
        <ele>357.75</ele>
        <time>2025-05-17T14:35:27Z</time>
      </trkpt>
      <trkpt lat="43.758613988757133" lon="5.882138013839722">
        <ele>359.19</ele>
        <time>2025-05-17T14:35:33Z</time>
      </trkpt>
      <trkpt lat="43.758588004857302" lon="5.882213031873107">
        <ele>359.19</ele>
        <time>2025-05-17T14:35:34Z</time>
      </trkpt>
      <trkpt lat="43.758538970723748" lon="5.882232980802655">
        <ele>359.19</ele>
        <time>2025-05-17T14:35:35Z</time>
      </trkpt>
      <trkpt lat="43.758031027391553" lon="5.882442025467753">
        <ele>359.67000000000002</ele>
        <time>2025-05-17T14:35:41Z</time>
      </trkpt>
      <trkpt lat="43.757953997701406" lon="5.882502961903811">
        <ele>360.14999999999998</ele>
        <time>2025-05-17T14:35:42Z</time>
      </trkpt>
      <trkpt lat="43.757806979119778" lon="5.882644029334188">
        <ele>360.63</ele>
        <time>2025-05-17T14:35:44Z</time>
      </trkpt>
      <trkpt lat="43.757429961115122" lon="5.883095981553197">
        <ele>358.70999999999998</ele>
        <time>2025-05-17T14:35:49Z</time>
      </trkpt>
      <trkpt lat="43.757334994152188" lon="5.883150966838002">
        <ele>358.70999999999998</ele>
        <time>2025-05-17T14:35:50Z</time>
      </trkpt>
      <trkpt lat="43.757150005549192" lon="5.883258003741503">
        <ele>358.70999999999998</ele>
        <time>2025-05-17T14:35:52Z</time>
      </trkpt>
      <trkpt lat="43.75697297975421" lon="5.883362023159862">
        <ele>359.19</ele>
        <time>2025-05-17T14:35:54Z</time>
      </trkpt>
      <trkpt lat="43.756805006414652" lon="5.883460007607937">
        <ele>359.19</ele>
        <time>2025-05-17T14:35:56Z</time>
      </trkpt>
      <trkpt lat="43.756733005866408" lon="5.88353200815618">
        <ele>359.19</ele>
        <time>2025-05-17T14:35:57Z</time>
      </trkpt>
      <trkpt lat="43.756661005318165" lon="5.883604008704424">
        <ele>359.67000000000002</ele>
        <time>2025-05-17T14:35:58Z</time>
      </trkpt>
      <trkpt lat="43.756515998393297" lon="5.883758990094066">
        <ele>359.67000000000002</ele>
        <time>2025-05-17T14:36:00Z</time>
      </trkpt>
      <trkpt lat="43.756454978138208" lon="5.883868960663676">
        <ele>359.67000000000002</ele>
        <time>2025-05-17T14:36:01Z</time>
      </trkpt>
      <trkpt lat="43.756411978974938" lon="5.88398203253746">
        <ele>360.14999999999998</ele>
        <time>2025-05-17T14:36:02Z</time>
      </trkpt>
      <trkpt lat="43.756399992853403" lon="5.88411103002727">
        <ele>360.14999999999998</ele>
        <time>2025-05-17T14:36:03Z</time>
      </trkpt>
      <trkpt lat="43.756400998681784" lon="5.884250001981854">
        <ele>359.67000000000002</ele>
        <time>2025-05-17T14:36:04Z</time>
      </trkpt>
      <trkpt lat="43.756411978974938" lon="5.884396014735103">
        <ele>358.70999999999998</ele>
        <time>2025-05-17T14:36:05Z</time>
      </trkpt>
      <trkpt lat="43.75643502920866" lon="5.884831035509706">
        <ele>356.79000000000002</ele>
        <time>2025-05-17T14:36:08Z</time>
      </trkpt>
      <trkpt lat="43.756423965096474" lon="5.884973024949431">
        <ele>356.31</ele>
        <time>2025-05-17T14:36:09Z</time>
      </trkpt>
      <trkpt lat="43.756332015618682" lon="5.886633982881904">
        <ele>347.64999999999998</ele>
        <time>2025-05-17T14:36:20Z</time>
      </trkpt>
      <trkpt lat="43.756310977041721" lon="5.88677697815001">
        <ele>346.69</ele>
        <time>2025-05-17T14:36:21Z</time>
      </trkpt>
      <trkpt lat="43.756296979263425" lon="5.886922990903258">
        <ele>345.73000000000002</ele>
        <time>2025-05-17T14:36:22Z</time>
      </trkpt>
      <trkpt lat="43.756292033940554" lon="5.887071015313268">
        <ele>345.25</ele>
        <time>2025-05-17T14:36:23Z</time>
      </trkpt>
      <trkpt lat="43.756292033940554" lon="5.887219039723277">
        <ele>344.29000000000002</ele>
        <time>2025-05-17T14:36:24Z</time>
      </trkpt>
      <trkpt lat="43.75630896538496" lon="5.887359017506242">
        <ele>343.32999999999998</ele>
        <time>2025-05-17T14:36:25Z</time>
      </trkpt>
      <trkpt lat="43.756336960941553" lon="5.887495977804065">
        <ele>342.85000000000002</ele>
        <time>2025-05-17T14:36:26Z</time>
      </trkpt>
      <trkpt lat="43.756394041702151" lon="5.887625981122255">
        <ele>342.37</ele>
        <time>2025-05-17T14:36:27Z</time>
      </trkpt>
      <trkpt lat="43.756453972309828" lon="5.88776302523911">
        <ele>341.88999999999999</ele>
        <time>2025-05-17T14:36:28Z</time>
      </trkpt>
      <trkpt lat="43.75660602003336" lon="5.887984978035092">
        <ele>340.92000000000002</ele>
        <time>2025-05-17T14:36:30Z</time>
      </trkpt>
      <trkpt lat="43.756656982004642" lon="5.888050021603704">
        <ele>340.44</ele>
        <time>2025-05-17T14:36:31Z</time>
      </trkpt>
      <trkpt lat="43.756777010858059" lon="5.888094026595354">
        <ele>339.95999999999998</ele>
        <time>2025-05-17T14:36:32Z</time>
      </trkpt>
      <trkpt lat="43.756866026669741" lon="5.888113975524902">
        <ele>339.95999999999998</ele>
        <time>2025-05-17T14:36:33Z</time>
      </trkpt>
      <trkpt lat="43.756968034431338" lon="5.888092014938593">
        <ele>339</ele>
        <time>2025-05-17T14:36:34Z</time>
      </trkpt>
      <trkpt lat="43.75708001665771" lon="5.888057984411717">
        <ele>338.04000000000002</ele>
        <time>2025-05-17T14:36:35Z</time>
      </trkpt>
      <trkpt lat="43.757184036076069" lon="5.888020014390349">
        <ele>337.56</ele>
        <time>2025-05-17T14:36:36Z</time>
      </trkpt>
      <trkpt lat="43.757698014378548" lon="5.887826979160309">
        <ele>333.70999999999998</ele>
        <time>2025-05-17T14:36:43Z</time>
      </trkpt>
      <trkpt lat="43.757793987169862" lon="5.887795966118574">
        <ele>330.35000000000002</ele>
        <time>2025-05-17T14:36:51Z</time>
      </trkpt>
      <trkpt lat="43.757836986333132" lon="5.887782974168658">
        <ele>330.35000000000002</ele>
        <time>2025-05-17T14:36:56Z</time>
      </trkpt>
      <trkpt lat="43.757860036566854" lon="5.887776017189026">
        <ele>329.87</ele>
        <time>2025-05-17T14:36:57Z</time>
      </trkpt>
      <trkpt lat="43.757965983822942" lon="5.887792026624084">
        <ele>328.91000000000003</ele>
        <time>2025-05-17T14:36:58Z</time>
      </trkpt>
      <trkpt lat="43.758041001856327" lon="5.887838965281844">
        <ele>327.94999999999999</ele>
        <time>2025-05-17T14:37:00Z</time>
      </trkpt>
      <trkpt lat="43.758065979927778" lon="5.887900991365314">
        <ele>326.99000000000001</ele>
        <time>2025-05-17T14:37:01Z</time>
      </trkpt>
      <trkpt lat="43.758008982986212" lon="5.888018002733588">
        <ele>326.01999999999998</ele>
        <time>2025-05-17T14:37:02Z</time>
      </trkpt>
      <trkpt lat="43.758008982986212" lon="5.888117998838425">
        <ele>325.06</ele>
        <time>2025-05-17T14:37:03Z</time>
      </trkpt>
      <trkpt lat="43.758008982986212" lon="5.888239033520222">
        <ele>324.57999999999998</ele>
        <time>2025-05-17T14:37:04Z</time>
      </trkpt>
      <trkpt lat="43.758008982986212" lon="5.889054005965591">
        <ele>320.25999999999999</ele>
        <time>2025-05-17T14:37:10Z</time>
      </trkpt>
      <trkpt lat="43.758008982986212" lon="5.889189038425684">
        <ele>319.77999999999997</ele>
        <time>2025-05-17T14:37:11Z</time>
      </trkpt>
      <trkpt lat="43.757990961894393" lon="5.890633994713426">
        <ele>316.88999999999999</ele>
        <time>2025-05-17T14:37:21Z</time>
      </trkpt>
      <trkpt lat="43.758008982986212" lon="5.89178298600018">
        <ele>314.00999999999999</ele>
        <time>2025-05-17T14:37:27Z</time>
      </trkpt>
      <trkpt lat="43.75800596550107" lon="5.891864039003849">
        <ele>313.52999999999997</ele>
        <time>2025-05-17T14:37:28Z</time>
      </trkpt>
      <trkpt lat="43.757999008521438" lon="5.8920409809798">
        <ele>313.05000000000001</ele>
        <time>2025-05-17T14:37:29Z</time>
      </trkpt>
      <trkpt lat="43.757991967722774" lon="5.892205014824867">
        <ele>312.56999999999999</ele>
        <time>2025-05-17T14:37:30Z</time>
      </trkpt>
      <trkpt lat="43.757988028228283" lon="5.892377011477947">
        <ele>311.60000000000002</ele>
        <time>2025-05-17T14:37:31Z</time>
      </trkpt>
      <trkpt lat="43.757988028228283" lon="5.892551019787788">
        <ele>311.12</ele>
        <time>2025-05-17T14:37:32Z</time>
      </trkpt>
      <trkpt lat="43.757814019918442" lon="5.893756002187729">
        <ele>308.72000000000003</ele>
        <time>2025-05-17T14:37:39Z</time>
      </trkpt>
      <trkpt lat="43.757389979436994" lon="5.89513398706913">
        <ele>307.27999999999997</ele>
        <time>2025-05-17T14:37:48Z</time>
      </trkpt>
      <trkpt lat="43.757208008319139" lon="5.895738992840052">
        <ele>308.72000000000003</ele>
        <time>2025-05-17T14:37:52Z</time>
      </trkpt>
      <trkpt lat="43.757204990833998" lon="5.895910989493132">
        <ele>310.16000000000003</ele>
        <time>2025-05-17T14:37:53Z</time>
      </trkpt>
      <trkpt lat="43.757214965298772" lon="5.895989025011659">
        <ele>311.12</ele>
        <time>2025-05-17T14:37:54Z</time>
      </trkpt>
      <trkpt lat="43.757305992767215" lon="5.896170996129513">
        <ele>312.56999999999999</ele>
        <time>2025-05-17T14:37:55Z</time>
      </trkpt>
      <trkpt lat="43.757367013022304" lon="5.89629303663969">
        <ele>313.52999999999997</ele>
        <time>2025-05-17T14:37:56Z</time>
      </trkpt>
      <trkpt lat="43.757429961115122" lon="5.896418010815978">
        <ele>314.49000000000001</ele>
        <time>2025-05-17T14:37:57Z</time>
      </trkpt>
      <trkpt lat="43.757501039654016" lon="5.896528987213969">
        <ele>315.93000000000001</ele>
        <time>2025-05-17T14:37:58Z</time>
      </trkpt>
      <trkpt lat="43.757775966078043" lon="5.897051012143493">
        <ele>319.77999999999997</ele>
        <time>2025-05-17T14:38:02Z</time>
      </trkpt>
      <trkpt lat="43.758104033768177" lon="5.898524969816208">
        <ele>328.43000000000001</ele>
        <time>2025-05-17T14:38:11Z</time>
      </trkpt>
      <trkpt lat="43.758309977129102" lon="5.900364965200424">
        <ele>337.56</ele>
        <time>2025-05-17T14:38:22Z</time>
      </trkpt>
      <trkpt lat="43.758360017091036" lon="5.901957023888826">
        <ele>342.85000000000002</ele>
        <time>2025-05-17T14:38:31Z</time>
      </trkpt>
      <trkpt lat="43.758314000442624" lon="5.902151986956596">
        <ele>343.32999999999998</ele>
        <time>2025-05-17T14:38:32Z</time>
      </trkpt>
      <trkpt lat="43.758033961057663" lon="5.903914030641317">
        <ele>342.37</ele>
        <time>2025-05-17T14:38:40Z</time>
      </trkpt>
      <trkpt lat="43.757916027680039" lon="5.905609019100666">
        <ele>337.07999999999998</ele>
        <time>2025-05-17T14:38:47Z</time>
      </trkpt>
      <trkpt lat="43.75757597386837" lon="5.907957041636109">
        <ele>329.38999999999999</ele>
        <time>2025-05-17T14:38:57Z</time>
      </trkpt>
      <trkpt lat="43.757299035787582" lon="5.910614021122456">
        <ele>321.69999999999999</ele>
        <time>2025-05-17T14:39:08Z</time>
      </trkpt>
      <trkpt lat="43.756909025833011" lon="5.913730999454856">
        <ele>321.22000000000003</ele>
        <time>2025-05-17T14:39:22Z</time>
      </trkpt>
      <trkpt lat="43.756492026150227" lon="5.915659004822373">
        <ele>321.69999999999999</ele>
        <time>2025-05-17T14:39:32Z</time>
      </trkpt>
      <trkpt lat="43.756163958460093" lon="5.917381988838315">
        <ele>323.62</ele>
        <time>2025-05-17T14:39:40Z</time>
      </trkpt>
      <trkpt lat="43.75617896206677" lon="5.917588016018271">
        <ele>324.10000000000002</ele>
        <time>2025-05-17T14:39:41Z</time>
      </trkpt>
      <trkpt lat="43.756215004250407" lon="5.9177350345999">
        <ele>324.10000000000002</ele>
        <time>2025-05-17T14:39:42Z</time>
      </trkpt>
      <trkpt lat="43.756273007020354" lon="5.917881969362497">
        <ele>324.10000000000002</ele>
        <time>2025-05-17T14:39:43Z</time>
      </trkpt>
      <trkpt lat="43.756333021447062" lon="5.918030999600887">
        <ele>324.10000000000002</ele>
        <time>2025-05-17T14:39:44Z</time>
      </trkpt>
      <trkpt lat="43.75639203004539" lon="5.918180029839277">
        <ele>324.57999999999998</ele>
        <time>2025-05-17T14:39:45Z</time>
      </trkpt>
      <trkpt lat="43.756466964259744" lon="5.918307015672326">
        <ele>324.57999999999998</ele>
        <time>2025-05-17T14:39:46Z</time>
      </trkpt>
      <trkpt lat="43.756548017263412" lon="5.918440958485007">
        <ele>325.06</ele>
        <time>2025-05-17T14:39:47Z</time>
      </trkpt>
      <trkpt lat="43.757043974474072" lon="5.919252997264266">
        <ele>327.94999999999999</ele>
        <time>2025-05-17T14:39:53Z</time>
      </trkpt>
      <trkpt lat="43.757141958922148" lon="5.91943396255374">
        <ele>328.91000000000003</ele>
        <time>2025-05-17T14:39:54Z</time>
      </trkpt>
      <trkpt lat="43.757320996373892" lon="5.919839981943369">
        <ele>330.35000000000002</ele>
        <time>2025-05-17T14:39:56Z</time>
      </trkpt>
      <trkpt lat="43.757431972771883" lon="5.91999102383852">
        <ele>331.31</ele>
        <time>2025-05-17T14:39:57Z</time>
      </trkpt>
      <trkpt lat="43.757534986361861" lon="5.920106023550034">
        <ele>331.79000000000002</ele>
        <time>2025-05-17T14:39:58Z</time>
      </trkpt>
      <trkpt lat="43.757665995508432" lon="5.92014298774302">
        <ele>332.75</ele>
        <time>2025-05-17T14:39:59Z</time>
      </trkpt>
      <trkpt lat="43.757795998826623" lon="5.92016201466322">
        <ele>333.70999999999998</ele>
        <time>2025-05-17T14:40:00Z</time>
      </trkpt>
      <trkpt lat="43.757926002144814" lon="5.920105017721653">
        <ele>334.19999999999999</ele>
        <time>2025-05-17T14:40:01Z</time>
      </trkpt>
      <trkpt lat="43.758065979927778" lon="5.920045003294945">
        <ele>335.16000000000003</ele>
        <time>2025-05-17T14:40:02Z</time>
      </trkpt>
      <trkpt lat="43.758208975195885" lon="5.919982977211475">
        <ele>336.12</ele>
        <time>2025-05-17T14:40:03Z</time>
      </trkpt>
      <trkpt lat="43.758358005434275" lon="5.919918017461896">
        <ele>337.07999999999998</ele>
        <time>2025-05-17T14:40:04Z</time>
      </trkpt>
      <trkpt lat="43.758502006530762" lon="5.919897984713316">
        <ele>337.56</ele>
        <time>2025-05-17T14:40:05Z</time>
      </trkpt>
      <trkpt lat="43.758650030940771" lon="5.919906031340361">
        <ele>338.51999999999998</ele>
        <time>2025-05-17T14:40:06Z</time>
      </trkpt>
      <trkpt lat="43.758781040087342" lon="5.919913994148374">
        <ele>339</ele>
        <time>2025-05-17T14:40:07Z</time>
      </trkpt>
      <trkpt lat="43.758925041183829" lon="5.920009966939688">
        <ele>339.48000000000002</ele>
        <time>2025-05-17T14:40:08Z</time>
      </trkpt>
      <trkpt lat="43.759039035066962" lon="5.920085990801454">
        <ele>340.44</ele>
        <time>2025-05-17T14:40:09Z</time>
      </trkpt>
      <trkpt lat="43.759199967607856" lon="5.920241978019476">
        <ele>340.92000000000002</ele>
        <time>2025-05-17T14:40:10Z</time>
      </trkpt>
      <trkpt lat="43.759342040866613" lon="5.92037801630795">
        <ele>340.92000000000002</ele>
        <time>2025-05-17T14:40:11Z</time>
      </trkpt>
      <trkpt lat="43.759480006992817" lon="5.920511959120631">
        <ele>341.41000000000003</ele>
        <time>2025-05-17T14:40:12Z</time>
      </trkpt>
      <trkpt lat="43.759615961462259" lon="5.920642968267202">
        <ele>341.41000000000003</ele>
        <time>2025-05-17T14:40:13Z</time>
      </trkpt>
      <trkpt lat="43.759711012244225" lon="5.920778000727296">
        <ele>341.88999999999999</ele>
        <time>2025-05-17T14:40:14Z</time>
      </trkpt>
      <trkpt lat="43.759813020005822" lon="5.920965000987053">
        <ele>341.88999999999999</ele>
        <time>2025-05-17T14:40:15Z</time>
      </trkpt>
      <trkpt lat="43.7599160335958" lon="5.921154012903571">
        <ele>342.37</ele>
        <time>2025-05-17T14:40:16Z</time>
      </trkpt>
      <trkpt lat="43.760021980851889" lon="5.921347970142961">
        <ele>342.37</ele>
        <time>2025-05-17T14:40:17Z</time>
      </trkpt>
      <trkpt lat="43.760114014148712" lon="5.921555003151298">
        <ele>342.37</ele>
        <time>2025-05-17T14:40:18Z</time>
      </trkpt>
      <trkpt lat="43.760305037721992" lon="5.922017013654113">
        <ele>342.85000000000002</ele>
        <time>2025-05-17T14:40:20Z</time>
      </trkpt>
      <trkpt lat="43.76034501940012" lon="5.922245001420379">
        <ele>342.85000000000002</ele>
        <time>2025-05-17T14:40:21Z</time>
      </trkpt>
      <trkpt lat="43.76075497828424" lon="5.924392025917769">
        <ele>343.81</ele>
        <time>2025-05-17T14:40:29Z</time>
      </trkpt>
      <trkpt lat="43.761240961030126" lon="5.925816027447581">
        <ele>344.76999999999998</ele>
        <time>2025-05-17T14:40:35Z</time>
      </trkpt>
      <trkpt lat="43.761322014033794" lon="5.926006967201829">
        <ele>344.76999999999998</ele>
        <time>2025-05-17T14:40:36Z</time>
      </trkpt>
      <trkpt lat="43.76146400347352" lon="5.92620100826025">
        <ele>344.76999999999998</ele>
        <time>2025-05-17T14:40:37Z</time>
      </trkpt>
      <trkpt lat="43.761580009013414" lon="5.92628700658679">
        <ele>344.76999999999998</ele>
        <time>2025-05-17T14:40:38Z</time>
      </trkpt>
      <trkpt lat="43.761737002059817" lon="5.926402006298304">
        <ele>344.76999999999998</ele>
        <time>2025-05-17T14:40:39Z</time>
      </trkpt>
      <trkpt lat="43.761861976236105" lon="5.926580959931016">
        <ele>344.76999999999998</ele>
        <time>2025-05-17T14:40:40Z</time>
      </trkpt>
      <trkpt lat="43.76195702701807" lon="5.92675899155438">
        <ele>344.76999999999998</ele>
        <time>2025-05-17T14:40:41Z</time>
      </trkpt>
      <trkpt lat="43.762084012851119" lon="5.926885977387428">
        <ele>344.76999999999998</ele>
        <time>2025-05-17T14:40:42Z</time>
      </trkpt>
      <trkpt lat="43.762216027826071" lon="5.926968036219478">
        <ele>344.76999999999998</ele>
        <time>2025-05-17T14:40:43Z</time>
      </trkpt>
      <trkpt lat="43.762374026700854" lon="5.927006006240845">
        <ele>345.25</ele>
        <time>2025-05-17T14:40:44Z</time>
      </trkpt>
      <trkpt lat="43.762545017525554" lon="5.927045987918973">
        <ele>345.25</ele>
        <time>2025-05-17T14:40:45Z</time>
      </trkpt>
      <trkpt lat="43.762715002521873" lon="5.927115976810455">
        <ele>345.25</ele>
        <time>2025-05-17T14:40:46Z</time>
      </trkpt>
      <trkpt lat="43.762865960597992" lon="5.927242962643504">
        <ele>345.73000000000002</ele>
        <time>2025-05-17T14:40:47Z</time>
      </trkpt>
      <trkpt lat="43.762986995279789" lon="5.927424011752009">
        <ele>346.20999999999998</ele>
        <time>2025-05-17T14:40:48Z</time>
      </trkpt>
      <trkpt lat="43.76309403218329" lon="5.927627021446824">
        <ele>346.20999999999998</ele>
        <time>2025-05-17T14:40:49Z</time>
      </trkpt>
      <trkpt lat="43.763158991932869" lon="5.927859032526612">
        <ele>346.69</ele>
        <time>2025-05-17T14:40:50Z</time>
      </trkpt>
      <trkpt lat="43.763218000531197" lon="5.928067993372679">
        <ele>347.17000000000002</ele>
        <time>2025-05-17T14:40:51Z</time>
      </trkpt>
      <trkpt lat="43.76326602883637" lon="5.928239990025759">
        <ele>347.64999999999998</ele>
        <time>2025-05-17T14:40:52Z</time>
      </trkpt>
      <trkpt lat="43.763397037982941" lon="5.928324982523918">
        <ele>348.13</ele>
        <time>2025-05-17T14:40:53Z</time>
      </trkpt>
      <trkpt lat="43.76352796331048" lon="5.928409975022078">
        <ele>348.62</ele>
        <time>2025-05-17T14:40:54Z</time>
      </trkpt>
      <trkpt lat="43.763683028519154" lon="5.928493961691856">
        <ele>349.10000000000002</ele>
        <time>2025-05-17T14:40:55Z</time>
      </trkpt>
      <trkpt lat="43.763854019343853" lon="5.928554981946945">
        <ele>349.57999999999998</ele>
        <time>2025-05-17T14:40:56Z</time>
      </trkpt>
      <trkpt lat="43.764016041532159" lon="5.928621031343937">
        <ele>350.54000000000002</ele>
        <time>2025-05-17T14:40:57Z</time>
      </trkpt>
      <trkpt lat="43.76414998434484" lon="5.928761009126902">
        <ele>351.01999999999998</ele>
        <time>2025-05-17T14:40:58Z</time>
      </trkpt>
      <trkpt lat="43.764266995713115" lon="5.928937029093504">
        <ele>351.5</ele>
        <time>2025-05-17T14:40:59Z</time>
      </trkpt>
      <trkpt lat="43.764340002089739" lon="5.929177002981305">
        <ele>351.98000000000002</ele>
        <time>2025-05-17T14:41:00Z</time>
      </trkpt>
      <trkpt lat="43.76440797932446" lon="5.929434997960925">
        <ele>352.45999999999998</ele>
        <time>2025-05-17T14:41:01Z</time>
      </trkpt>
      <trkpt lat="43.764445027336478" lon="5.92970497906208">
        <ele>352.94</ele>
        <time>2025-05-17T14:41:02Z</time>
      </trkpt>
      <trkpt lat="43.764457013458014" lon="5.929995998740196">
        <ele>353.89999999999998</ele>
        <time>2025-05-17T14:41:03Z</time>
      </trkpt>
      <trkpt lat="43.764433041214943" lon="5.930289030075073">
        <ele>353.89999999999998</ele>
        <time>2025-05-17T14:41:04Z</time>
      </trkpt>
      <trkpt lat="43.764406973496079" lon="5.930588012561202">
        <ele>354.38</ele>
        <time>2025-05-17T14:41:05Z</time>
      </trkpt>
      <trkpt lat="43.764274958521128" lon="5.932166995480657">
        <ele>355.82999999999998</ele>
        <time>2025-05-17T14:41:11Z</time>
      </trkpt>
      <trkpt lat="43.764331033453345" lon="5.932364976033568">
        <ele>356.31</ele>
        <time>2025-05-17T14:41:12Z</time>
      </trkpt>
      <trkpt lat="43.764395993202925" lon="5.932504031807184">
        <ele>356.79000000000002</ele>
        <time>2025-05-17T14:41:13Z</time>
      </trkpt>
      <trkpt lat="43.764511998742819" lon="5.932622971013188">
        <ele>356.79000000000002</ele>
        <time>2025-05-17T14:41:14Z</time>
      </trkpt>
      <trkpt lat="43.764642002061009" lon="5.932758003473282">
        <ele>357.26999999999998</ele>
        <time>2025-05-17T14:41:15Z</time>
      </trkpt>
      <trkpt lat="43.764781979843974" lon="5.932902004569769">
        <ele>357.26999999999998</ele>
        <time>2025-05-17T14:41:16Z</time>
      </trkpt>
      <trkpt lat="43.764922963455319" lon="5.933048017323017">
        <ele>357.26999999999998</ele>
        <time>2025-05-17T14:41:17Z</time>
      </trkpt>
      <trkpt lat="43.765034023672342" lon="5.933237029239535">
        <ele>357.75</ele>
        <time>2025-05-17T14:41:18Z</time>
      </trkpt>
      <trkpt lat="43.765096971765161" lon="5.933459987863898">
        <ele>357.75</ele>
        <time>2025-05-17T14:41:19Z</time>
      </trkpt>
      <trkpt lat="43.765162015333772" lon="5.933690993115306">
        <ele>357.75</ele>
        <time>2025-05-17T14:41:20Z</time>
      </trkpt>
      <trkpt lat="43.765225969254971" lon="5.933916969224811">
        <ele>357.75</ele>
        <time>2025-05-17T14:41:21Z</time>
      </trkpt>
      <trkpt lat="43.765305010601878" lon="5.934099024161696">
        <ele>357.26999999999998</ele>
        <time>2025-05-17T14:41:22Z</time>
      </trkpt>
      <trkpt lat="43.765368964523077" lon="5.934227015823126">
        <ele>356.79000000000002</ele>
        <time>2025-05-17T14:41:23Z</time>
      </trkpt>
      <trkpt lat="43.765497040003538" lon="5.934295998886228">
        <ele>356.31</ele>
        <time>2025-05-17T14:41:24Z</time>
      </trkpt>
      <trkpt lat="43.765620002523065" lon="5.934357019141316">
        <ele>356.31</ele>
        <time>2025-05-17T14:41:25Z</time>
      </trkpt>
      <trkpt lat="43.765776995569468" lon="5.934378979727626">
        <ele>356.31</ele>
        <time>2025-05-17T14:41:26Z</time>
      </trkpt>
      <trkpt lat="43.765946980565786" lon="5.934402029961348">
        <ele>355.82999999999998</ele>
        <time>2025-05-17T14:41:27Z</time>
      </trkpt>
      <trkpt lat="43.766302959993482" lon="5.934475036337972">
        <ele>355.82999999999998</ele>
        <time>2025-05-17T14:41:29Z</time>
      </trkpt>
      <trkpt lat="43.766473028808832" lon="5.934574026614428">
        <ele>355.82999999999998</ele>
        <time>2025-05-17T14:41:30Z</time>
      </trkpt>
      <trkpt lat="43.766630021855235" lon="5.934716016054153">
        <ele>356.31</ele>
        <time>2025-05-17T14:41:31Z</time>
      </trkpt>
      <trkpt lat="43.766776034608483" lon="5.934894969686866">
        <ele>356.31</ele>
        <time>2025-05-17T14:41:32Z</time>
      </trkpt>
      <trkpt lat="43.76692296937108" lon="5.935078030452132">
        <ele>356.31</ele>
        <time>2025-05-17T14:41:33Z</time>
      </trkpt>
      <trkpt lat="43.767223041504622" lon="5.935451025143266">
        <ele>356.31</ele>
        <time>2025-05-17T14:41:35Z</time>
      </trkpt>
      <trkpt lat="43.767340974882245" lon="5.93567599542439">
        <ele>356.31</ele>
        <time>2025-05-17T14:41:36Z</time>
      </trkpt>
      <trkpt lat="43.767440970987082" lon="5.935893002897501">
        <ele>356.31</ele>
        <time>2025-05-17T14:41:37Z</time>
      </trkpt>
      <trkpt lat="43.767507020384073" lon="5.936123002320528">
        <ele>355.82999999999998</ele>
        <time>2025-05-17T14:41:38Z</time>
      </trkpt>
      <trkpt lat="43.767536021769047" lon="5.936372028663755">
        <ele>356.31</ele>
        <time>2025-05-17T14:41:39Z</time>
      </trkpt>
      <trkpt lat="43.767523029819131" lon="5.936606973409653">
        <ele>356.31</ele>
        <time>2025-05-17T14:41:40Z</time>
      </trkpt>
      <trkpt lat="43.76750199124217" lon="5.936842001974583">
        <ele>356.31</ele>
        <time>2025-05-17T14:41:41Z</time>
      </trkpt>
      <trkpt lat="43.767468966543674" lon="5.937062026932836">
        <ele>356.31</ele>
        <time>2025-05-17T14:41:42Z</time>
      </trkpt>
      <trkpt lat="43.767428984865546" lon="5.937270987778902">
        <ele>356.31</ele>
        <time>2025-05-17T14:41:43Z</time>
      </trkpt>
      <trkpt lat="43.767380034551024" lon="5.937468968331814">
        <ele>356.31</ele>
        <time>2025-05-17T14:41:44Z</time>
      </trkpt>
      <trkpt lat="43.767295964062214" lon="5.937881022691727">
        <ele>356.31</ele>
        <time>2025-05-17T14:41:46Z</time>
      </trkpt>
      <trkpt lat="43.76726696267724" lon="5.938083026558161">
        <ele>356.31</ele>
        <time>2025-05-17T14:41:47Z</time>
      </trkpt>
      <trkpt lat="43.767277020961046" lon="5.938280001282692">
        <ele>356.79000000000002</ele>
        <time>2025-05-17T14:41:48Z</time>
      </trkpt>
      <trkpt lat="43.767318008467555" lon="5.938472030684352">
        <ele>356.79000000000002</ele>
        <time>2025-05-17T14:41:49Z</time>
      </trkpt>
      <trkpt lat="43.767396965995431" lon="5.938655007630587">
        <ele>356.79000000000002</ele>
        <time>2025-05-17T14:41:50Z</time>
      </trkpt>
      <trkpt lat="43.76748195849359" lon="5.938850976526737">
        <ele>356.79000000000002</ele>
        <time>2025-05-17T14:41:51Z</time>
      </trkpt>
      <trkpt lat="43.767582038417459" lon="5.939049040898681">
        <ele>356.79000000000002</ele>
        <time>2025-05-17T14:41:52Z</time>
      </trkpt>
      <trkpt lat="43.767772978171706" lon="5.939446007832885">
        <ele>356.79000000000002</ele>
        <time>2025-05-17T14:41:54Z</time>
      </trkpt>
      <trkpt lat="43.767825029790401" lon="5.939665026962757">
        <ele>356.79000000000002</ele>
        <time>2025-05-17T14:41:55Z</time>
      </trkpt>
      <trkpt lat="43.767880015075207" lon="5.939891003072262">
        <ele>357.26999999999998</ele>
        <time>2025-05-17T14:41:56Z</time>
      </trkpt>
      <trkpt lat="43.767894012853503" lon="5.940127037465572">
        <ele>357.26999999999998</ele>
        <time>2025-05-17T14:41:57Z</time>
      </trkpt>
      <trkpt lat="43.76790901646018" lon="5.940363993868232">
        <ele>357.26999999999998</ele>
        <time>2025-05-17T14:41:58Z</time>
      </trkpt>
      <trkpt lat="43.768007000908256" lon="5.941172009333968">
        <ele>358.70999999999998</ele>
        <time>2025-05-17T14:42:02Z</time>
      </trkpt>
      <trkpt lat="43.768056035041809" lon="5.941358003765345">
        <ele>358.70999999999998</ele>
        <time>2025-05-17T14:42:03Z</time>
      </trkpt>
      <trkpt lat="43.768154019489884" lon="5.941513990983367">
        <ele>358.70999999999998</ele>
        <time>2025-05-17T14:42:04Z</time>
      </trkpt>
      <trkpt lat="43.768266001716256" lon="5.941694034263492">
        <ele>358.70999999999998</ele>
        <time>2025-05-17T14:42:05Z</time>
      </trkpt>
      <trkpt lat="43.768349988386035" lon="5.94179998151958">
        <ele>358.70999999999998</ele>
        <time>2025-05-17T14:42:06Z</time>
      </trkpt>
      <trkpt lat="43.769138976931572" lon="5.943086016923189">
        <ele>354.86000000000001</ele>
        <time>2025-05-17T14:42:16Z</time>
      </trkpt>
      <trkpt lat="43.769180970266461" lon="5.943233035504818">
        <ele>354.38</ele>
        <time>2025-05-17T14:42:17Z</time>
      </trkpt>
      <trkpt lat="43.769224975258112" lon="5.943387011066079">
        <ele>353.42000000000002</ele>
        <time>2025-05-17T14:42:18Z</time>
      </trkpt>
      <trkpt lat="43.769231010228395" lon="5.943554984405637">
        <ele>352.45999999999998</ele>
        <time>2025-05-17T14:42:19Z</time>
      </trkpt>
      <trkpt lat="43.769231010228395" lon="5.943723041564226">
        <ele>351.98000000000002</ele>
        <time>2025-05-17T14:42:20Z</time>
      </trkpt>
      <trkpt lat="43.769217012450099" lon="5.943887997418642">
        <ele>351.01999999999998</ele>
        <time>2025-05-17T14:42:21Z</time>
      </trkpt>
      <trkpt lat="43.769181976094842" lon="5.94405697658658">
        <ele>350.54000000000002</ele>
        <time>2025-05-17T14:42:22Z</time>
      </trkpt>
      <trkpt lat="43.769145011901855" lon="5.944232996553183">
        <ele>350.06</ele>
        <time>2025-05-17T14:42:23Z</time>
      </trkpt>
      <trkpt lat="43.769107963889837" lon="5.944413961842656">
        <ele>349.57999999999998</ele>
        <time>2025-05-17T14:42:24Z</time>
      </trkpt>
      <trkpt lat="43.769070999696851" lon="5.944597022607923">
        <ele>349.57999999999998</ele>
        <time>2025-05-17T14:42:25Z</time>
      </trkpt>
      <trkpt lat="43.769014002755284" lon="5.944757033139467">
        <ele>349.57999999999998</ele>
        <time>2025-05-17T14:42:26Z</time>
      </trkpt>
      <trkpt lat="43.768964968621731" lon="5.944904973730445">
        <ele>349.10000000000002</ele>
        <time>2025-05-17T14:42:27Z</time>
      </trkpt>
      <trkpt lat="43.768862960860133" lon="5.945349968969822">
        <ele>349.57999999999998</ele>
        <time>2025-05-17T14:42:30Z</time>
      </trkpt>
      <trkpt lat="43.768852986395359" lon="5.945510985329747">
        <ele>349.57999999999998</ele>
        <time>2025-05-17T14:42:31Z</time>
      </trkpt>
      <trkpt lat="43.768845023587346" lon="5.945681976154447">
        <ele>349.57999999999998</ele>
        <time>2025-05-17T14:42:32Z</time>
      </trkpt>
      <trkpt lat="43.768862960860133" lon="5.945849027484655">
        <ele>349.57999999999998</ele>
        <time>2025-05-17T14:42:33Z</time>
      </trkpt>
      <trkpt lat="43.768899003043771" lon="5.946009960025549">
        <ele>349.57999999999998</ele>
        <time>2025-05-17T14:42:34Z</time>
      </trkpt>
      <trkpt lat="43.768935967236757" lon="5.946169970557094">
        <ele>349.57999999999998</ele>
        <time>2025-05-17T14:42:35Z</time>
      </trkpt>
      <trkpt lat="43.768978966400027" lon="5.946319000795484">
        <ele>349.57999999999998</ele>
        <time>2025-05-17T14:42:36Z</time>
      </trkpt>
      <trkpt lat="43.769038980826735" lon="5.946463001891971">
        <ele>350.06</ele>
        <time>2025-05-17T14:42:37Z</time>
      </trkpt>
      <trkpt lat="43.769891001284122" lon="5.948090013116598">
        <ele>356.79000000000002</ele>
        <time>2025-05-17T14:42:49Z</time>
      </trkpt>
      <trkpt lat="43.770795995369554" lon="5.949229029938579">
        <ele>362.06999999999999</ele>
        <time>2025-05-17T14:42:57Z</time>
      </trkpt>
      <trkpt lat="43.771617002785206" lon="5.950020030140877">
        <ele>363.04000000000002</ele>
        <time>2025-05-17T14:43:03Z</time>
      </trkpt>
      <trkpt lat="43.77175597473979" lon="5.95017702318728">
        <ele>362.55000000000001</ele>
        <time>2025-05-17T14:43:04Z</time>
      </trkpt>
      <trkpt lat="43.771885978057981" lon="5.95035295933485">
        <ele>362.06999999999999</ele>
        <time>2025-05-17T14:43:05Z</time>
      </trkpt>
      <trkpt lat="43.772553009912372" lon="5.951763968914747">
        <ele>362.06999999999999</ele>
        <time>2025-05-17T14:43:12Z</time>
      </trkpt>
      <trkpt lat="43.773421961814165" lon="5.953957010060549">
        <ele>366.39999999999998</ele>
        <time>2025-05-17T14:43:22Z</time>
      </trkpt>
      <trkpt lat="43.77422402612865" lon="5.95578602515161">
        <ele>370.73000000000002</ele>
        <time>2025-05-17T14:43:31Z</time>
      </trkpt>
      <trkpt lat="43.774529965594411" lon="5.957264006137848">
        <ele>373.13</ele>
        <time>2025-05-17T14:43:37Z</time>
      </trkpt>
      <trkpt lat="43.774589980021119" lon="5.957511020824313">
        <ele>373.13</ele>
        <time>2025-05-17T14:43:38Z</time>
      </trkpt>
      <trkpt lat="43.774669021368027" lon="5.957748983055353">
        <ele>373.13</ele>
        <time>2025-05-17T14:43:39Z</time>
      </trkpt>
      <trkpt lat="43.775219963863492" lon="5.959580009803176">
        <ele>371.69</ele>
        <time>2025-05-17T14:43:46Z</time>
      </trkpt>
      <trkpt lat="43.775242008268833" lon="5.959866000339389">
        <ele>371.20999999999998</ele>
        <time>2025-05-17T14:43:47Z</time>
      </trkpt>
      <trkpt lat="43.775377962738276" lon="5.961223030462861">
        <ele>371.69</ele>
        <time>2025-05-17T14:43:52Z</time>
      </trkpt>
      <trkpt lat="43.775438982993364" lon="5.961475996300578">
        <ele>371.69</ele>
        <time>2025-05-17T14:43:53Z</time>
      </trkpt>
      <trkpt lat="43.775683986023068" lon="5.962543012574315">
        <ele>372.64999999999998</ele>
        <time>2025-05-17T14:43:57Z</time>
      </trkpt>
      <trkpt lat="43.7761589884758" lon="5.965019026771188">
        <ele>376.00999999999999</ele>
        <time>2025-05-17T14:44:06Z</time>
      </trkpt>
      <trkpt lat="43.776472974568605" lon="5.967212989926338">
        <ele>378.89999999999998</ele>
        <time>2025-05-17T14:44:14Z</time>
      </trkpt>
      <trkpt lat="43.776629967615008" lon="5.968814017251134">
        <ele>379.38</ele>
        <time>2025-05-17T14:44:20Z</time>
      </trkpt>
      <trkpt lat="43.776642037555575" lon="5.969062959775329">
        <ele>379.38</ele>
        <time>2025-05-17T14:44:21Z</time>
      </trkpt>
      <trkpt lat="43.776900032535195" lon="5.971261030063033">
        <ele>381.30000000000001</ele>
        <time>2025-05-17T14:44:30Z</time>
      </trkpt>
      <trkpt lat="43.777092983946204" lon="5.973611986264586">
        <ele>380.81999999999999</ele>
        <time>2025-05-17T14:44:39Z</time>
      </trkpt>
      <trkpt lat="43.777084015309811" lon="5.973882973194122">
        <ele>380.81999999999999</ele>
        <time>2025-05-17T14:44:40Z</time>
      </trkpt>
      <trkpt lat="43.777029030025005" lon="5.974143985658884">
        <ele>381.30000000000001</ele>
        <time>2025-05-17T14:44:41Z</time>
      </trkpt>
      <trkpt lat="43.776918975636363" lon="5.974872959777713">
        <ele>381.77999999999997</ele>
        <time>2025-05-17T14:44:44Z</time>
      </trkpt>
      <trkpt lat="43.776929033920169" lon="5.9751239977777">
        <ele>382.25999999999999</ele>
        <time>2025-05-17T14:44:45Z</time>
      </trkpt>
      <trkpt lat="43.776947977021337" lon="5.975376963615418">
        <ele>382.74000000000001</ele>
        <time>2025-05-17T14:44:46Z</time>
      </trkpt>
      <trkpt lat="43.777002962306142" lon="5.975612998008728">
        <ele>383.22000000000003</ele>
        <time>2025-05-17T14:44:47Z</time>
      </trkpt>
      <trkpt lat="43.777088038623333" lon="5.975835034623742">
        <ele>383.22000000000003</ele>
        <time>2025-05-17T14:44:48Z</time>
      </trkpt>
      <trkpt lat="43.777184011414647" lon="5.976054975762963">
        <ele>383.22000000000003</ele>
        <time>2025-05-17T14:44:49Z</time>
      </trkpt>
      <trkpt lat="43.777292976155877" lon="5.9762810356915">
        <ele>383.22000000000003</ele>
        <time>2025-05-17T14:44:50Z</time>
      </trkpt>
      <trkpt lat="43.7774040363729" lon="5.976510029286146">
        <ele>383.22000000000003</ele>
        <time>2025-05-17T14:44:51Z</time>
      </trkpt>
      <trkpt lat="43.777500009164214" lon="5.976738017052412">
        <ele>383.22000000000003</ele>
        <time>2025-05-17T14:44:52Z</time>
      </trkpt>
      <trkpt lat="43.777538985013962" lon="5.976996012032032">
        <ele>382.74000000000001</ele>
        <time>2025-05-17T14:44:53Z</time>
      </trkpt>
      <trkpt lat="43.777580978348851" lon="5.977264987304807">
        <ele>382.74000000000001</ele>
        <time>2025-05-17T14:44:54Z</time>
      </trkpt>
      <trkpt lat="43.77762196585536" lon="5.977534968405962">
        <ele>383.22000000000003</ele>
        <time>2025-05-17T14:44:55Z</time>
      </trkpt>
      <trkpt lat="43.777756998315454" lon="5.978520009666681">
        <ele>384.18000000000001</ele>
        <time>2025-05-17T14:44:59Z</time>
      </trkpt>
      <trkpt lat="43.777821036055684" lon="5.978728970512748">
        <ele>384.18000000000001</ele>
        <time>2025-05-17T14:45:00Z</time>
      </trkpt>
      <trkpt lat="43.77789999358356" lon="5.978929968550801">
        <ele>384.66000000000003</ele>
        <time>2025-05-17T14:45:01Z</time>
      </trkpt>
      <trkpt lat="43.777980962768197" lon="5.979138007387519">
        <ele>385.14999999999998</ele>
        <time>2025-05-17T14:45:02Z</time>
      </trkpt>
      <trkpt lat="43.778065033257008" lon="5.979351997375488">
        <ele>385.14999999999998</ele>
        <time>2025-05-17T14:45:03Z</time>
      </trkpt>
      <trkpt lat="43.778155976906419" lon="5.979557018727064">
        <ele>385.63</ele>
        <time>2025-05-17T14:45:04Z</time>
      </trkpt>
      <trkpt lat="43.778878999873996" lon="5.980900973081589">
        <ele>388.50999999999999</ele>
        <time>2025-05-17T14:45:10Z</time>
      </trkpt>
      <trkpt lat="43.779946016147733" lon="5.982893016189337">
        <ele>392.83999999999997</ele>
        <time>2025-05-17T14:45:19Z</time>
      </trkpt>
      <trkpt lat="43.780125975608826" lon="5.983300041407347">
        <ele>393.80000000000001</ele>
        <time>2025-05-17T14:45:21Z</time>
      </trkpt>
      <trkpt lat="43.780223038047552" lon="5.983519982546568">
        <ele>393.80000000000001</ele>
        <time>2025-05-17T14:45:22Z</time>
      </trkpt>
      <trkpt lat="43.780356980860233" lon="5.983713017776609">
        <ele>394.27999999999997</ele>
        <time>2025-05-17T14:45:23Z</time>
      </trkpt>
      <trkpt lat="43.780496958643198" lon="5.983899012207985">
        <ele>394.75999999999999</ele>
        <time>2025-05-17T14:45:24Z</time>
      </trkpt>
      <trkpt lat="43.780639031901956" lon="5.984087018296123">
        <ele>394.75999999999999</ele>
        <time>2025-05-17T14:45:25Z</time>
      </trkpt>
      <trkpt lat="43.780902978032827" lon="5.984484991058707">
        <ele>395.24000000000001</ele>
        <time>2025-05-17T14:45:27Z</time>
      </trkpt>
      <trkpt lat="43.781006997451186" lon="5.984706021845341">
        <ele>395.72000000000003</ele>
        <time>2025-05-17T14:45:28Z</time>
      </trkpt>
      <trkpt lat="43.781066006049514" lon="5.984940966591239">
        <ele>396.19999999999999</ele>
        <time>2025-05-17T14:45:29Z</time>
      </trkpt>
      <trkpt lat="43.78112300299108" lon="5.985179012641311">
        <ele>396.19999999999999</ele>
        <time>2025-05-17T14:45:30Z</time>
      </trkpt>
      <trkpt lat="43.781169019639492" lon="5.985408006235957">
        <ele>396.68000000000001</ele>
        <time>2025-05-17T14:45:31Z</time>
      </trkpt>
      <trkpt lat="43.781198021024466" lon="5.985664995387197">
        <ele>397.16000000000003</ele>
        <time>2025-05-17T14:45:32Z</time>
      </trkpt>
      <trkpt lat="43.7812290340662" lon="5.985944028943777">
        <ele>397.16000000000003</ele>
        <time>2025-05-17T14:45:33Z</time>
      </trkpt>
      <trkpt lat="43.781608985736966" lon="5.987907992675901">
        <ele>398.12</ele>
        <time>2025-05-17T14:45:40Z</time>
      </trkpt>
      <trkpt lat="43.782063033431768" lon="5.990380989387631">
        <ele>400.05000000000001</ele>
        <time>2025-05-17T14:45:49Z</time>
      </trkpt>
      <trkpt lat="43.78258103504777" lon="5.992056028917432">
        <ele>400.52999999999997</ele>
        <time>2025-05-17T14:45:56Z</time>
      </trkpt>
      <trkpt lat="43.782739033922553" lon="5.99250596947968">
        <ele>401.49000000000001</ele>
        <time>2025-05-17T14:45:58Z</time>
      </trkpt>
      <trkpt lat="43.78277700394392" lon="5.992735968902707">
        <ele>401.97000000000003</ele>
        <time>2025-05-17T14:45:59Z</time>
      </trkpt>
      <trkpt lat="43.782791001722217" lon="5.992964040488005">
        <ele>401.97000000000003</ele>
        <time>2025-05-17T14:46:00Z</time>
      </trkpt>
      <trkpt lat="43.782762000337243" lon="5.99319102242589">
        <ele>402.44999999999999</ele>
        <time>2025-05-17T14:46:01Z</time>
      </trkpt>
      <trkpt lat="43.782724030315876" lon="5.993424961343408">
        <ele>402.44999999999999</ele>
        <time>2025-05-17T14:46:02Z</time>
      </trkpt>
      <trkpt lat="43.782682958990335" lon="5.993674993515015">
        <ele>402.44999999999999</ele>
        <time>2025-05-17T14:46:03Z</time>
      </trkpt>
      <trkpt lat="43.782658986747265" lon="5.993942962959409">
        <ele>402.93000000000001</ele>
        <time>2025-05-17T14:46:04Z</time>
      </trkpt>
      <trkpt lat="43.782650018110871" lon="5.994226019829512">
        <ele>402.93000000000001</ele>
        <time>2025-05-17T14:46:05Z</time>
      </trkpt>
      <trkpt lat="43.782652029767632" lon="5.994513016194105">
        <ele>402.93000000000001</ele>
        <time>2025-05-17T14:46:06Z</time>
      </trkpt>
      <trkpt lat="43.782699974253774" lon="5.99480303004384">
        <ele>402.93000000000001</ele>
        <time>2025-05-17T14:46:07Z</time>
      </trkpt>
      <trkpt lat="43.782750014215708" lon="5.99510301835835">
        <ele>402.44999999999999</ele>
        <time>2025-05-17T14:46:08Z</time>
      </trkpt>
      <trkpt lat="43.783362982794642" lon="5.998718971386552">
        <ele>405.81</ele>
        <time>2025-05-17T14:46:20Z</time>
      </trkpt>
      <trkpt lat="43.783501032739878" lon="6.000083964318037">
        <ele>406.76999999999998</ele>
        <time>2025-05-17T14:46:25Z</time>
      </trkpt>
      <trkpt lat="43.783501032739878" lon="6.000331984832883">
        <ele>407.74000000000001</ele>
        <time>2025-05-17T14:46:26Z</time>
      </trkpt>
      <trkpt lat="43.783465996384621" lon="6.000589979812503">
        <ele>407.74000000000001</ele>
        <time>2025-05-17T14:46:27Z</time>
      </trkpt>
      <trkpt lat="43.783405981957912" lon="6.000842023640871">
        <ele>408.69999999999999</ele>
        <time>2025-05-17T14:46:28Z</time>
      </trkpt>
      <trkpt lat="43.783347979187965" lon="6.001089960336685">
        <ele>409.18000000000001</ele>
        <time>2025-05-17T14:46:29Z</time>
      </trkpt>
      <trkpt lat="43.783152010291815" lon="6.001937035471201">
        <ele>413.01999999999998</ele>
        <time>2025-05-17T14:46:34Z</time>
      </trkpt>
      <trkpt lat="43.782855039462447" lon="6.003324994817376">
        <ele>420.23000000000002</ele>
        <time>2025-05-17T14:46:45Z</time>
      </trkpt>
      <trkpt lat="43.782725958153605" lon="6.00414901971817">
        <ele>422.63999999999999</ele>
        <time>2025-05-17T14:46:52Z</time>
      </trkpt>
      <trkpt lat="43.782716989517212" lon="6.004270976409316">
        <ele>422.63999999999999</ele>
        <time>2025-05-17T14:46:53Z</time>
      </trkpt>
      <trkpt lat="43.782664015889168" lon="6.004993999376893">
        <ele>425.04000000000002</ele>
        <time>2025-05-17T14:46:59Z</time>
      </trkpt>
      <trkpt lat="43.782664015889168" lon="6.005111010745168">
        <ele>425.04000000000002</ele>
        <time>2025-05-17T14:47:00Z</time>
      </trkpt>
      <trkpt lat="43.782664015889168" lon="6.005235984921455">
        <ele>425.04000000000002</ele>
        <time>2025-05-17T14:47:01Z</time>
      </trkpt>
      <trkpt lat="43.782664015889168" lon="6.005379986017942">
        <ele>425.04000000000002</ele>
        <time>2025-05-17T14:47:02Z</time>
      </trkpt>
      <trkpt lat="43.782672984525561" lon="6.005491968244314">
        <ele>425.04000000000002</ele>
        <time>2025-05-17T14:47:03Z</time>
      </trkpt>
      <trkpt lat="43.782683964818716" lon="6.005624989047647">
        <ele>425.04000000000002</ele>
        <time>2025-05-17T14:47:04Z</time>
      </trkpt>
      <trkpt lat="43.78266996704042" lon="6.005751974880695">
        <ele>424.56</ele>
        <time>2025-05-17T14:47:05Z</time>
      </trkpt>
      <trkpt lat="43.782652029767632" lon="6.005884995684028">
        <ele>424.07999999999998</ele>
        <time>2025-05-17T14:47:06Z</time>
      </trkpt>
      <trkpt lat="43.78262797370553" lon="6.006013993173838">
        <ele>423.60000000000002</ele>
        <time>2025-05-17T14:47:07Z</time>
      </trkpt>
      <trkpt lat="43.782566031441092" lon="6.006247010082007">
        <ele>422.63999999999999</ele>
        <time>2025-05-17T14:47:09Z</time>
      </trkpt>
      <trkpt lat="43.782470980659127" lon="6.007273038849235">
        <ele>420.23000000000002</ele>
        <time>2025-05-17T14:47:19Z</time>
      </trkpt>
      <trkpt lat="43.782470980659127" lon="6.007384015247226">
        <ele>419.75</ele>
        <time>2025-05-17T14:47:20Z</time>
      </trkpt>
      <trkpt lat="43.782463017851114" lon="6.007503038272262">
        <ele>419.75</ele>
        <time>2025-05-17T14:47:21Z</time>
      </trkpt>
      <trkpt lat="43.782447008416057" lon="6.007618959993124">
        <ele>419.75</ele>
        <time>2025-05-17T14:47:22Z</time>
      </trkpt>
      <trkpt lat="43.78243200480938" lon="6.007734965533018">
        <ele>419.26999999999998</ele>
        <time>2025-05-17T14:47:23Z</time>
      </trkpt>
      <trkpt lat="43.782417001202703" lon="6.007851976901293">
        <ele>419.26999999999998</ele>
        <time>2025-05-17T14:47:24Z</time>
      </trkpt>
      <trkpt lat="43.782395962625742" lon="6.007968988269568">
        <ele>418.79000000000002</ele>
        <time>2025-05-17T14:47:25Z</time>
      </trkpt>
      <trkpt lat="43.78228398039937" lon="6.008434016257525">
        <ele>418.79000000000002</ele>
        <time>2025-05-17T14:47:29Z</time>
      </trkpt>
      <trkpt lat="43.781905034556985" lon="6.00962701253593">
        <ele>419.75</ele>
        <time>2025-05-17T14:47:39Z</time>
      </trkpt>
      <trkpt lat="43.781819958239794" lon="6.009827004745603">
        <ele>420.23000000000002</ele>
        <time>2025-05-17T14:47:41Z</time>
      </trkpt>
      <trkpt lat="43.781783999875188" lon="6.009913003072143">
        <ele>420.70999999999998</ele>
        <time>2025-05-17T14:47:42Z</time>
      </trkpt>
      <trkpt lat="43.781751981005073" lon="6.009989026933909">
        <ele>421.19</ele>
        <time>2025-05-17T14:47:43Z</time>
      </trkpt>
      <trkpt lat="43.781797997653484" lon="6.010127998888493">
        <ele>421.68000000000001</ele>
        <time>2025-05-17T14:47:44Z</time>
      </trkpt>
      <trkpt lat="43.781843008473516" lon="6.010219026356936">
        <ele>422.16000000000003</ele>
        <time>2025-05-17T14:47:45Z</time>
      </trkpt>
      <trkpt lat="43.781906040385365" lon="6.010308964177966">
        <ele>422.16000000000003</ele>
        <time>2025-05-17T14:47:46Z</time>
      </trkpt>
      <trkpt lat="43.781992960721254" lon="6.01035799831152">
        <ele>422.16000000000003</ele>
        <time>2025-05-17T14:47:47Z</time>
      </trkpt>
      <trkpt lat="43.7820890173316" lon="6.01035799831152">
        <ele>422.63999999999999</ele>
        <time>2025-05-17T14:47:48Z</time>
      </trkpt>
      <trkpt lat="43.782182978466153" lon="6.010324973613024">
        <ele>423.12</ele>
        <time>2025-05-17T14:47:49Z</time>
      </trkpt>
      <trkpt lat="43.782285992056131" lon="6.010279962792993">
        <ele>423.12</ele>
        <time>2025-05-17T14:47:50Z</time>
      </trkpt>
      <trkpt lat="43.78262696787715" lon="6.010207962244749">
        <ele>425.51999999999998</ele>
        <time>2025-05-17T14:47:53Z</time>
      </trkpt>
      <trkpt lat="43.782739033922553" lon="6.010239981114864">
        <ele>426.48000000000002</ele>
        <time>2025-05-17T14:47:54Z</time>
      </trkpt>
      <trkpt lat="43.782813968136907" lon="6.01031499914825">
        <ele>426.95999999999998</ele>
        <time>2025-05-17T14:47:55Z</time>
      </trkpt>
      <trkpt lat="43.782870965078473" lon="6.010425975546241">
        <ele>427.92000000000002</ele>
        <time>2025-05-17T14:47:56Z</time>
      </trkpt>
      <trkpt lat="43.78288596868515" lon="6.010571988299489">
        <ele>428.88999999999999</ele>
        <time>2025-05-17T14:47:57Z</time>
      </trkpt>
      <trkpt lat="43.782897032797337" lon="6.010735016316176">
        <ele>429.85000000000002</ele>
        <time>2025-05-17T14:47:58Z</time>
      </trkpt>
      <trkpt lat="43.782908013090491" lon="6.010911036282778">
        <ele>430.81</ele>
        <time>2025-05-17T14:47:59Z</time>
      </trkpt>
      <trkpt lat="43.782921005040407" lon="6.011130977421999">
        <ele>431.76999999999998</ele>
        <time>2025-05-17T14:48:00Z</time>
      </trkpt>
      <trkpt lat="43.782945983111858" lon="6.011309009045363">
        <ele>432.73000000000002</ele>
        <time>2025-05-17T14:48:01Z</time>
      </trkpt>
      <trkpt lat="43.782972972840071" lon="6.011511012911797">
        <ele>433.69</ele>
        <time>2025-05-17T14:48:02Z</time>
      </trkpt>
      <trkpt lat="43.783010020852089" lon="6.011715028434992">
        <ele>434.17000000000002</ele>
        <time>2025-05-17T14:48:03Z</time>
      </trkpt>
      <trkpt lat="43.783052014186978" lon="6.01190404035151">
        <ele>435.13</ele>
        <time>2025-05-17T14:48:04Z</time>
      </trkpt>
      <trkpt lat="43.783093001693487" lon="6.012091040611267">
        <ele>436.10000000000002</ele>
        <time>2025-05-17T14:48:05Z</time>
      </trkpt>
      <trkpt lat="43.783136000856757" lon="6.012282986193895">
        <ele>436.57999999999998</ele>
        <time>2025-05-17T14:48:06Z</time>
      </trkpt>
      <trkpt lat="43.783531961962581" lon="6.01401099935174">
        <ele>440.89999999999998</ele>
        <time>2025-05-17T14:48:14Z</time>
      </trkpt>
      <trkpt lat="43.784123975783587" lon="6.016161041334271">
        <ele>443.79000000000002</ele>
        <time>2025-05-17T14:48:22Z</time>
      </trkpt>
      <trkpt lat="43.78458296880126" lon="6.018011011183262">
        <ele>447.63</ele>
        <time>2025-05-17T14:48:29Z</time>
      </trkpt>
      <trkpt lat="43.785173976793885" lon="6.019770037382841">
        <ele>449.55000000000001</ele>
        <time>2025-05-17T14:48:36Z</time>
      </trkpt>
      <trkpt lat="43.785711005330086" lon="6.021237038075924">
        <ele>449.55000000000001</ele>
        <time>2025-05-17T14:48:42Z</time>
      </trkpt>
      <trkpt lat="43.786590015515685" lon="6.023372998461127">
        <ele>450.02999999999997</ele>
        <time>2025-05-17T14:48:51Z</time>
      </trkpt>
      <trkpt lat="43.787080021575093" lon="6.024332977831364">
        <ele>450.51999999999998</ele>
        <time>2025-05-17T14:48:55Z</time>
      </trkpt>
      <trkpt lat="43.788012005388737" lon="6.025997959077358">
        <ele>451</ele>
        <time>2025-05-17T14:49:02Z</time>
      </trkpt>
      <trkpt lat="43.788205962628126" lon="6.026468016207218">
        <ele>451</ele>
        <time>2025-05-17T14:49:04Z</time>
      </trkpt>
      <trkpt lat="43.788935020565987" lon="6.028135009109974">
        <ele>451</ele>
        <time>2025-05-17T14:49:11Z</time>
      </trkpt>
      <trkpt lat="43.790073031559587" lon="6.029831003397703">
        <ele>451.48000000000002</ele>
        <time>2025-05-17T14:49:19Z</time>
      </trkpt>
      <trkpt lat="43.790228012949228" lon="6.029990008100867">
        <ele>451.95999999999998</ele>
        <time>2025-05-17T14:49:20Z</time>
      </trkpt>
      <trkpt lat="43.79068398848176" lon="6.030469033867121">
        <ele>452.44</ele>
        <time>2025-05-17T14:49:23Z</time>
      </trkpt>
      <trkpt lat="43.790818015113473" lon="6.030679000541568">
        <ele>452.44</ele>
        <time>2025-05-17T14:49:24Z</time>
      </trkpt>
      <trkpt lat="43.790943995118141" lon="6.030913023278117">
        <ele>452.44</ele>
        <time>2025-05-17T14:49:25Z</time>
      </trkpt>
      <trkpt lat="43.791351020336151" lon="6.031619030982256">
        <ele>452.92000000000002</ele>
        <time>2025-05-17T14:49:28Z</time>
      </trkpt>
      <trkpt lat="43.791537014767528" lon="6.031781975179911">
        <ele>453.39999999999998</ele>
        <time>2025-05-17T14:49:29Z</time>
      </trkpt>
      <trkpt lat="43.792246039956808" lon="6.032430985942483">
        <ele>455.80000000000001</ele>
        <time>2025-05-17T14:49:33Z</time>
      </trkpt>
      <trkpt lat="43.792390963062644" lon="6.032621003687382">
        <ele>456.27999999999997</ele>
        <time>2025-05-17T14:49:34Z</time>
      </trkpt>
      <trkpt lat="43.79253001883626" lon="6.032813033089042">
        <ele>456.75999999999999</ele>
        <time>2025-05-17T14:49:35Z</time>
      </trkpt>
      <trkpt lat="43.793414980173111" lon="6.034134021028876">
        <ele>455.31999999999999</ele>
        <time>2025-05-17T14:49:42Z</time>
      </trkpt>
      <trkpt lat="43.794390968978405" lon="6.035308996215463">
        <ele>460.13</ele>
        <time>2025-05-17T14:49:49Z</time>
      </trkpt>
      <trkpt lat="43.795377016067505" lon="6.037174975499511">
        <ele>460.13</ele>
        <time>2025-05-17T14:49:57Z</time>
      </trkpt>
      <trkpt lat="43.796351999044418" lon="6.038987981155515">
        <ele>459.17000000000002</ele>
        <time>2025-05-17T14:50:05Z</time>
      </trkpt>
      <trkpt lat="43.796949964016676" lon="6.040421035140753">
        <ele>458.69</ele>
        <time>2025-05-17T14:50:11Z</time>
      </trkpt>
      <trkpt lat="43.797512976452708" lon="6.042581973597407">
        <ele>458.20999999999998</ele>
        <time>2025-05-17T14:50:19Z</time>
      </trkpt>
      <trkpt lat="43.797698970884085" lon="6.043356964364648">
        <ele>459.17000000000002</ele>
        <time>2025-05-17T14:50:22Z</time>
      </trkpt>
      <trkpt lat="43.797783963382244" lon="6.043599033728242">
        <ele>459.64999999999998</ele>
        <time>2025-05-17T14:50:23Z</time>
      </trkpt>
      <trkpt lat="43.797883037477732" lon="6.043821992352605">
        <ele>460.13</ele>
        <time>2025-05-17T14:50:24Z</time>
      </trkpt>
      <trkpt lat="43.797998037189245" lon="6.044044028967619">
        <ele>460.61000000000001</ele>
        <time>2025-05-17T14:50:25Z</time>
      </trkpt>
      <trkpt lat="43.798139020800591" lon="6.04424100369215">
        <ele>461.08999999999997</ele>
        <time>2025-05-17T14:50:26Z</time>
      </trkpt>
      <trkpt lat="43.799114003777504" lon="6.045596022158861">
        <ele>461.56999999999999</ele>
        <time>2025-05-17T14:50:33Z</time>
      </trkpt>
      <trkpt lat="43.800526019185781" lon="6.047896016389132">
        <ele>463.00999999999999</ele>
        <time>2025-05-17T14:50:44Z</time>
      </trkpt>
      <trkpt lat="43.801850024610758" lon="6.049715979024768">
        <ele>468.77999999999997</ele>
        <time>2025-05-17T14:50:54Z</time>
      </trkpt>
      <trkpt lat="43.803003961220384" lon="6.051171999424696">
        <ele>473.58999999999997</ele>
        <time>2025-05-17T14:51:02Z</time>
      </trkpt>
      <trkpt lat="43.804164016619325" lon="6.052665989845991">
        <ele>476.47000000000003</ele>
        <time>2025-05-17T14:51:10Z</time>
      </trkpt>
      <trkpt lat="43.805840983986855" lon="6.054499028250575">
        <ele>482.24000000000001</ele>
        <time>2025-05-17T14:51:21Z</time>
      </trkpt>
      <trkpt lat="43.806152958422899" lon="6.054825000464916">
        <ele>483.19999999999999</ele>
        <time>2025-05-17T14:51:23Z</time>
      </trkpt>
      <trkpt lat="43.806288996711373" lon="6.054990040138364">
        <ele>483.68000000000001</ele>
        <time>2025-05-17T14:51:24Z</time>
      </trkpt>
      <trkpt lat="43.806393016129732" lon="6.055212998762727">
        <ele>484.16000000000003</ele>
        <time>2025-05-17T14:51:25Z</time>
      </trkpt>
      <trkpt lat="43.806492006406188" lon="6.055422965437174">
        <ele>484.63999999999999</ele>
        <time>2025-05-17T14:51:26Z</time>
      </trkpt>
      <trkpt lat="43.806588985025883" lon="6.055631004273891">
        <ele>485.12</ele>
        <time>2025-05-17T14:51:27Z</time>
      </trkpt>
      <trkpt lat="43.80664698779583" lon="6.055858992040157">
        <ele>485.60000000000002</ele>
        <time>2025-05-17T14:51:28Z</time>
      </trkpt>
      <trkpt lat="43.806696021929383" lon="6.0561019834131">
        <ele>485.60000000000002</ele>
        <time>2025-05-17T14:51:29Z</time>
      </trkpt>
      <trkpt lat="43.807107992470264" lon="6.058235010132194">
        <ele>484.16000000000003</ele>
        <time>2025-05-17T14:51:37Z</time>
      </trkpt>
      <trkpt lat="43.807579977437854" lon="6.060236021876335">
        <ele>483.19999999999999</ele>
        <time>2025-05-17T14:51:45Z</time>
      </trkpt>
      <trkpt lat="43.807673016563058" lon="6.060738014057279">
        <ele>483.68000000000001</ele>
        <time>2025-05-17T14:51:47Z</time>
      </trkpt>
      <trkpt lat="43.807864040136337" lon="6.062378017231822">
        <ele>487.05000000000001</ele>
        <time>2025-05-17T14:51:53Z</time>
      </trkpt>
      <trkpt lat="43.80821599625051" lon="6.064272997900844">
        <ele>490.41000000000003</ele>
        <time>2025-05-17T14:52:01Z</time>
      </trkpt>
      <trkpt lat="43.808283973485231" lon="6.064496040344238">
        <ele>489.93000000000001</ele>
        <time>2025-05-17T14:52:02Z</time>
      </trkpt>
      <trkpt lat="43.808809015899897" lon="6.066201003268361">
        <ele>488.97000000000003</ele>
        <time>2025-05-17T14:52:09Z</time>
      </trkpt>
      <trkpt lat="43.808887973427773" lon="6.066458998247981">
        <ele>488.97000000000003</ele>
        <time>2025-05-17T14:52:10Z</time>
      </trkpt>
      <trkpt lat="43.808971038088202" lon="6.066727973520756">
        <ele>489.44999999999999</ele>
        <time>2025-05-17T14:52:11Z</time>
      </trkpt>
      <trkpt lat="43.80986999720335" lon="6.068792017176747">
        <ele>494.25999999999999</ele>
        <time>2025-05-17T14:52:20Z</time>
      </trkpt>
      <trkpt lat="43.809932023286819" lon="6.069044983014464">
        <ele>494.74000000000001</ele>
        <time>2025-05-17T14:52:21Z</time>
      </trkpt>
      <trkpt lat="43.809987008571625" lon="6.069317981600761">
        <ele>495.22000000000003</ele>
        <time>2025-05-17T14:52:22Z</time>
      </trkpt>
      <trkpt lat="43.810181971639395" lon="6.070113005116582">
        <ele>497.13999999999999</ele>
        <time>2025-05-17T14:52:25Z</time>
      </trkpt>
      <trkpt lat="43.810284985229373" lon="6.070360019803047">
        <ele>498.10000000000002</ele>
        <time>2025-05-17T14:52:26Z</time>
      </trkpt>
      <trkpt lat="43.810396967455745" lon="6.07060301117599">
        <ele>498.57999999999998</ele>
        <time>2025-05-17T14:52:27Z</time>
      </trkpt>
      <trkpt lat="43.810523031279445" lon="6.070829993113875">
        <ele>498.57999999999998</ele>
        <time>2025-05-17T14:52:28Z</time>
      </trkpt>
      <trkpt lat="43.810657979920506" lon="6.071054041385651">
        <ele>499.06</ele>
        <time>2025-05-17T14:52:29Z</time>
      </trkpt>
      <trkpt lat="43.810925027355552" lon="6.071498030796647">
        <ele>499.06</ele>
        <time>2025-05-17T14:52:31Z</time>
      </trkpt>
      <trkpt lat="43.811852987855673" lon="6.073109032586217">
        <ele>502.91000000000003</ele>
        <time>2025-05-17T14:52:39Z</time>
      </trkpt>
      <trkpt lat="43.812150964513421" lon="6.073872959241271">
        <ele>504.82999999999998</ele>
        <time>2025-05-17T14:52:43Z</time>
      </trkpt>
      <trkpt lat="43.812204021960497" lon="6.074089966714382">
        <ele>504.82999999999998</ele>
        <time>2025-05-17T14:52:44Z</time>
      </trkpt>
      <trkpt lat="43.812742978334427" lon="6.076818024739623">
        <ele>506.26999999999998</ele>
        <time>2025-05-17T14:52:55Z</time>
      </trkpt>
      <trkpt lat="43.813001979142427" lon="6.078989021480084">
        <ele>507.70999999999998</ele>
        <time>2025-05-17T14:53:04Z</time>
      </trkpt>
      <trkpt lat="43.81304900161922" lon="6.079210974276066">
        <ele>507.70999999999998</ele>
        <time>2025-05-17T14:53:05Z</time>
      </trkpt>
      <trkpt lat="43.813390983268619" lon="6.080503966659308">
        <ele>508.19</ele>
        <time>2025-05-17T14:53:12Z</time>
      </trkpt>
      <trkpt lat="43.813696000725031" lon="6.081198994070292">
        <ele>508.19</ele>
        <time>2025-05-17T14:53:18Z</time>
      </trkpt>
      <trkpt lat="43.814219031482935" lon="6.082285037264228">
        <ele>507.23000000000002</ele>
        <time>2025-05-17T14:53:28Z</time>
      </trkpt>
      <trkpt lat="43.814732003957033" lon="6.083364961668849">
        <ele>508.19</ele>
        <time>2025-05-17T14:53:36Z</time>
      </trkpt>
      <trkpt lat="43.815011959522963" lon="6.084588970988989">
        <ele>511.56</ele>
        <time>2025-05-17T14:53:42Z</time>
      </trkpt>
      <trkpt lat="43.815118996426463" lon="6.085829995572567">
        <ele>515.39999999999998</ele>
        <time>2025-05-17T14:53:49Z</time>
      </trkpt>
      <trkpt lat="43.81517599336803" lon="6.087633026763797">
        <ele>518.28999999999996</ele>
        <time>2025-05-17T14:54:00Z</time>
      </trkpt>
      <trkpt lat="43.815194014459848" lon="6.088141975924373">
        <ele>518.76999999999998</ele>
        <time>2025-05-17T14:54:03Z</time>
      </trkpt>
      <trkpt lat="43.815461983904243" lon="6.089562037959695">
        <ele>520.21000000000004</ele>
        <time>2025-05-17T14:54:12Z</time>
      </trkpt>
      <trkpt lat="43.815534990280867" lon="6.089825984090567">
        <ele>520.69000000000005</ele>
        <time>2025-05-17T14:54:14Z</time>
      </trkpt>
      <trkpt lat="43.815628029406071" lon="6.090037962421775">
        <ele>521.64999999999998</ele>
        <time>2025-05-17T14:54:16Z</time>
      </trkpt>
      <trkpt lat="43.815613025799394" lon="6.090174000710249">
        <ele>522.13</ele>
        <time>2025-05-17T14:54:17Z</time>
      </trkpt>
      <trkpt lat="43.815641021355987" lon="6.090257987380028">
        <ele>522.13</ele>
        <time>2025-05-17T14:54:18Z</time>
      </trkpt>
      <trkpt lat="43.815702963620424" lon="6.090267039835453">
        <ele>522.61000000000001</ele>
        <time>2025-05-17T14:54:19Z</time>
      </trkpt>
      <trkpt lat="43.815730037167668" lon="6.090267039835453">
        <ele>522.61000000000001</ele>
        <time>2025-05-17T14:54:20Z</time>
      </trkpt>
      <trkpt lat="43.815837996080518" lon="6.090166959911585">
        <ele>523.09000000000003</ele>
        <time>2025-05-17T14:54:21Z</time>
      </trkpt>
      <trkpt lat="43.815918965265155" lon="6.09017601236701">
        <ele>523.09000000000003</ele>
        <time>2025-05-17T14:54:22Z</time>
      </trkpt>
      <trkpt lat="43.816009992733598" lon="6.090187998488545">
        <ele>523.58000000000004</ele>
        <time>2025-05-17T14:54:23Z</time>
      </trkpt>
      <trkpt lat="43.816182995215058" lon="6.090215994045138">
        <ele>523.58000000000004</ele>
        <time>2025-05-17T14:54:25Z</time>
      </trkpt>
      <trkpt lat="43.816260024905205" lon="6.090227980166674">
        <ele>524.05999999999995</ele>
        <time>2025-05-17T14:54:26Z</time>
      </trkpt>
      <trkpt lat="43.817107016220689" lon="6.090365024283528">
        <ele>526.46000000000004</ele>
        <time>2025-05-17T14:54:36Z</time>
      </trkpt>
      <trkpt lat="43.81734699010849" lon="6.090402994304895">
        <ele>526.94000000000005</ele>
        <time>2025-05-17T14:54:39Z</time>
      </trkpt>
      <trkpt lat="43.817738005891442" lon="6.090467032045126">
        <ele>528.38</ele>
        <time>2025-05-17T14:54:45Z</time>
      </trkpt>
      <trkpt lat="43.817842025309801" lon="6.090483041480184">
        <ele>528.38</ele>
        <time>2025-05-17T14:54:47Z</time>
      </trkpt>
      <trkpt lat="43.817887036129832" lon="6.090491004288197">
        <ele>528.86000000000001</ele>
        <time>2025-05-17T14:54:48Z</time>
      </trkpt>
      <trkpt lat="43.817912014201283" lon="6.090495027601719">
        <ele>528.86000000000001</ele>
        <time>2025-05-17T14:54:49Z</time>
      </trkpt>
      <trkpt lat="43.817961970344186" lon="6.090502990409732">
        <ele>529.34000000000003</ele>
        <time>2025-05-17T14:54:55Z</time>
      </trkpt>
      <trkpt lat="43.818003963679075" lon="6.090654032304883">
        <ele>529.34000000000003</ele>
        <time>2025-05-17T14:54:56Z</time>
      </trkpt>
      <trkpt lat="43.817906985059381" lon="6.090633999556303">
        <ele>529.34000000000003</ele>
        <time>2025-05-17T14:54:57Z</time>
      </trkpt>
      <trkpt lat="43.81788301281631" lon="6.09069200232625">
        <ele>529.34000000000003</ele>
        <time>2025-05-17T14:54:58Z</time>
      </trkpt>
      <trkpt lat="43.817853005602956" lon="6.090762997046113">
        <ele>529.34000000000003</ele>
        <time>2025-05-17T14:54:59Z</time>
      </trkpt>
      <trkpt lat="43.817826015874743" lon="6.090832985937595">
        <ele>529.34000000000003</ele>
        <time>2025-05-17T14:55:00Z</time>
      </trkpt>
      <trkpt lat="43.817759966477752" lon="6.091006994247437">
        <ele>529.34000000000003</ele>
        <time>2025-05-17T14:55:03Z</time>
      </trkpt>
      <trkpt lat="43.817746974527836" lon="6.091039013117552">
        <ele>529.34000000000003</ele>
        <time>2025-05-17T14:55:04Z</time>
      </trkpt>
      <trkpt lat="43.817723002284765" lon="6.091125011444092">
        <ele>529.34000000000003</ele>
        <time>2025-05-17T14:55:05Z</time>
      </trkpt>
      <trkpt lat="43.817522004246712" lon="6.091765975579619">
        <ele>528.86000000000001</ele>
        <time>2025-05-17T14:55:13Z</time>
      </trkpt>
      <trkpt lat="43.817461989820004" lon="6.091937972232699">
        <ele>528.38</ele>
        <time>2025-05-17T14:55:18Z</time>
      </trkpt>
      <trkpt lat="43.817446986213326" lon="6.091982983052731">
        <ele>528.38</ele>
        <time>2025-05-17T14:55:19Z</time>
      </trkpt>
      <trkpt lat="43.817429970949888" lon="6.092070993036032">
        <ele>527.89999999999998</ele>
        <time>2025-05-17T14:55:20Z</time>
      </trkpt>
      <trkpt lat="43.817465007305145" lon="6.092081973329186">
        <ele>527.89999999999998</ele>
        <time>2025-05-17T14:55:21Z</time>
      </trkpt>
      <trkpt lat="43.817501971498132" lon="6.092094965279102">
        <ele>527.41999999999996</ele>
        <time>2025-05-17T14:55:22Z</time>
      </trkpt>
      <trkpt lat="43.817661982029676" lon="6.092148022726178">
        <ele>526.46000000000004</ele>
        <time>2025-05-17T14:55:27Z</time>
      </trkpt>
      <trkpt lat="43.817683020606637" lon="6.092154979705811">
        <ele>526.46000000000004</ele>
        <time>2025-05-17T14:55:28Z</time>
      </trkpt>
      <trkpt lat="43.817683020606637" lon="6.092154979705811">
        <ele>526.46000000000004</ele>
        <time>2025-05-17T14:55:29Z</time>
      </trkpt>
      <trkpt lat="43.817683020606637" lon="6.092154979705811">
        <ele>525.98000000000002</ele>
        <time>2025-05-17T14:55:30Z</time>
      </trkpt>
      <trkpt lat="43.817683020606637" lon="6.092154979705811">
        <ele>525.98000000000002</ele>
        <time>2025-05-17T14:55:31Z</time>
      </trkpt>
      <trkpt lat="43.817683020606637" lon="6.092154979705811">
        <ele>524.53999999999996</ele>
        <time>2025-05-17T14:55:43Z</time>
      </trkpt>
      <trkpt lat="43.817729959264398" lon="6.092071998864412">
        <ele>534.14999999999998</ele>
        <time>2025-05-17T14:58:07Z</time>
      </trkpt>
      <trkpt lat="43.817750997841358" lon="6.092007039114833">
        <ele>529.82000000000005</ele>
        <time>2025-05-17T14:58:10Z</time>
      </trkpt>
      <trkpt lat="43.817731970921159" lon="6.091989018023014">
        <ele>527.41999999999996</ele>
        <time>2025-05-17T14:58:24Z</time>
      </trkpt>
      <trkpt lat="43.817704981192946" lon="6.092133019119501">
        <ele>524.05999999999995</ele>
        <time>2025-05-17T14:58:35Z</time>
      </trkpt>
      <trkpt lat="43.817681008949876" lon="6.092136958613992">
        <ele>522.61000000000001</ele>
        <time>2025-05-17T14:58:44Z</time>
      </trkpt>
      <trkpt lat="43.817631974816322" lon="6.092137964442372">
        <ele>523.09000000000003</ele>
        <time>2025-05-17T14:58:46Z</time>
      </trkpt>
      <trkpt lat="43.817609008401632" lon="6.092130001634359">
        <ele>523.09000000000003</ele>
        <time>2025-05-17T14:58:47Z</time>
      </trkpt>
      <trkpt lat="43.817581012845039" lon="6.092121032997966">
        <ele>523.09000000000003</ele>
        <time>2025-05-17T14:58:48Z</time>
      </trkpt>
      <trkpt lat="43.817552011460066" lon="6.092111980542541">
        <ele>523.58000000000004</ele>
        <time>2025-05-17T14:58:49Z</time>
      </trkpt>
      <trkpt lat="43.817499037832022" lon="6.092093959450722">
        <ele>528.86000000000001</ele>
        <time>2025-05-17T14:59:00Z</time>
      </trkpt>
      <trkpt lat="43.817499037832022" lon="6.092093959450722">
        <ele>533.19000000000005</ele>
        <time>2025-05-17T14:59:32Z</time>
      </trkpt>
      <trkpt lat="43.817499037832022" lon="6.092093959450722">
        <ele>534.14999999999998</ele>
        <time>2025-05-17T15:00:03Z</time>
      </trkpt>
      <trkpt lat="43.817499037832022" lon="6.092093959450722">
        <ele>534.14999999999998</ele>
        <time>2025-05-17T15:00:14Z</time>
      </trkpt>
      <trkpt lat="43.817436005920172" lon="6.092073004692793">
        <ele>534.14999999999998</ele>
        <time>2025-05-17T15:00:25Z</time>
      </trkpt>
      <trkpt lat="43.817424019798636" lon="6.092077028006315">
        <ele>533.66999999999996</ele>
        <time>2025-05-17T15:00:26Z</time>
      </trkpt>
      <trkpt lat="43.81741002202034" lon="6.092138970270753">
        <ele>533.66999999999996</ele>
        <time>2025-05-17T15:00:27Z</time>
      </trkpt>
      <trkpt lat="43.817395018413663" lon="6.092203008010984">
        <ele>533.19000000000005</ele>
        <time>2025-05-17T15:00:28Z</time>
      </trkpt>
      <trkpt lat="43.817380014806986" lon="6.092269979417324">
        <ele>532.71000000000004</ele>
        <time>2025-05-17T15:00:29Z</time>
      </trkpt>
      <trkpt lat="43.817362999543548" lon="6.092340974137187">
        <ele>532.23000000000002</ele>
        <time>2025-05-17T15:00:30Z</time>
      </trkpt>
      <trkpt lat="43.81734699010849" lon="6.092414986342192">
        <ele>532.23000000000002</ele>
        <time>2025-05-17T15:00:31Z</time>
      </trkpt>
      <trkpt lat="43.817327041178942" lon="6.092500984668732">
        <ele>531.75</ele>
        <time>2025-05-17T15:00:32Z</time>
      </trkpt>
      <trkpt lat="43.817297033965588" lon="6.09268999658525">
        <ele>531.26999999999998</ele>
        <time>2025-05-17T15:00:34Z</time>
      </trkpt>
      <trkpt lat="43.817272977903485" lon="6.092779012396932">
        <ele>531.26999999999998</ele>
        <time>2025-05-17T15:00:35Z</time>
      </trkpt>
      <trkpt lat="43.817251017317176" lon="6.092859981581569">
        <ele>530.78999999999996</ele>
        <time>2025-05-17T15:00:36Z</time>
      </trkpt>
      <trkpt lat="43.817211035639048" lon="6.093031978234649">
        <ele>530.29999999999995</ele>
        <time>2025-05-17T15:00:38Z</time>
      </trkpt>
      <trkpt lat="43.817188991233706" lon="6.093142032623291">
        <ele>529.82000000000005</ele>
        <time>2025-05-17T15:00:39Z</time>
      </trkpt>
      <trkpt lat="43.817203994840384" lon="6.093573030084372">
        <ele>528.86000000000001</ele>
        <time>2025-05-17T15:00:44Z</time>
      </trkpt>
      <trkpt lat="43.817211035639048" lon="6.093763969838619">
        <ele>527.89999999999998</ele>
        <time>2025-05-17T15:00:45Z</time>
      </trkpt>
      <trkpt lat="43.817212041467428" lon="6.093767993152142">
        <ele>527.41999999999996</ele>
        <time>2025-05-17T15:00:46Z</time>
      </trkpt>
      <trkpt lat="43.817273983731866" lon="6.09393403865397">
        <ele>525.5</ele>
        <time>2025-05-17T15:00:50Z</time>
      </trkpt>
      <trkpt lat="43.817317988723516" lon="6.093978965654969">
        <ele>525.5</ele>
        <time>2025-05-17T15:00:51Z</time>
      </trkpt>
      <trkpt lat="43.817317988723516" lon="6.093978965654969">
        <ele>525.5</ele>
        <time>2025-05-17T15:00:52Z</time>
      </trkpt>
      <trkpt lat="43.817317988723516" lon="6.093978965654969">
        <ele>525.98000000000002</ele>
        <time>2025-05-17T15:00:53Z</time>
      </trkpt>
      <trkpt lat="43.817317988723516" lon="6.093978965654969">
        <ele>525.98000000000002</ele>
        <time>2025-05-17T15:00:54Z</time>
      </trkpt>
      <trkpt lat="43.817340033128858" lon="6.093902019783855">
        <ele>525.98000000000002</ele>
        <time>2025-05-17T15:00:55Z</time>
      </trkpt>
      <trkpt lat="43.817341960966587" lon="6.093895984813571">
        <ele>525.98000000000002</ele>
        <time>2025-05-17T15:00:59Z</time>
      </trkpt>
      <trkpt lat="43.817349001765251" lon="6.0938720125705">
        <ele>526.46000000000004</ele>
        <time>2025-05-17T15:01:00Z</time>
      </trkpt>
      <trkpt lat="43.817359982058406" lon="6.093830019235611">
        <ele>526.46000000000004</ele>
        <time>2025-05-17T15:01:01Z</time>
      </trkpt>
      <trkpt lat="43.817381020635366" lon="6.093774028122425">
        <ele>526.94000000000005</ele>
        <time>2025-05-17T15:01:02Z</time>
      </trkpt>
      <trkpt lat="43.817401975393295" lon="6.093718037009239">
        <ele>526.94000000000005</ele>
        <time>2025-05-17T15:01:03Z</time>
      </trkpt>
      <trkpt lat="43.817423013970256" lon="6.093661040067673">
        <ele>526.94000000000005</ele>
        <time>2025-05-17T15:01:04Z</time>
      </trkpt>
      <trkpt lat="43.817443968728185" lon="6.093603959307075">
        <ele>526.94000000000005</ele>
        <time>2025-05-17T15:01:05Z</time>
      </trkpt>
      <trkpt lat="43.817466013133526" lon="6.093544028699398">
        <ele>526.94000000000005</ele>
        <time>2025-05-17T15:01:06Z</time>
      </trkpt>
      <trkpt lat="43.817487973719835" lon="6.09348401427269">
        <ele>526.94000000000005</ele>
        <time>2025-05-17T15:01:07Z</time>
      </trkpt>
      <trkpt lat="43.817509012296796" lon="6.093428023159504">
        <ele>526.94000000000005</ele>
        <time>2025-05-17T15:01:08Z</time>
      </trkpt>
      <trkpt lat="43.817574977874756" lon="6.09324898570776">
        <ele>526.46000000000004</ele>
        <time>2025-05-17T15:01:09Z</time>
      </trkpt>
      <trkpt lat="43.817703975364566" lon="6.093034995719791">
        <ele>525.5</ele>
        <time>2025-05-17T15:01:17Z</time>
      </trkpt>
      <trkpt lat="43.817703975364566" lon="6.093034995719791">
        <ele>525.5</ele>
        <time>2025-05-17T15:01:18Z</time>
      </trkpt>
      <trkpt lat="43.817703975364566" lon="6.093034995719791">
        <ele>525.5</ele>
        <time>2025-05-17T15:01:19Z</time>
      </trkpt>
      <trkpt lat="43.817704981192946" lon="6.093025021255016">
        <ele>525.98000000000002</ele>
        <time>2025-05-17T15:01:20Z</time>
      </trkpt>
      <trkpt lat="43.817710010334849" lon="6.092988979071379">
        <ele>525.98000000000002</ele>
        <time>2025-05-17T15:01:21Z</time>
      </trkpt>
      <trkpt lat="43.817726019769907" lon="6.092862999066711">
        <ele>525.98000000000002</ele>
        <time>2025-05-17T15:01:22Z</time>
      </trkpt>
      <trkpt lat="43.817726019769907" lon="6.092862999066711">
        <ele>526.46000000000004</ele>
        <time>2025-05-17T15:01:23Z</time>
      </trkpt>
      <trkpt lat="43.817726019769907" lon="6.092862999066711">
        <ele>526.46000000000004</ele>
        <time>2025-05-17T15:01:24Z</time>
      </trkpt>
      <trkpt lat="43.817728031426668" lon="6.092844977974892">
        <ele>526.94000000000005</ele>
        <time>2025-05-17T15:01:25Z</time>
      </trkpt>
      <trkpt lat="43.817744962871075" lon="6.09271002933383">
        <ele>526.94000000000005</ele>
        <time>2025-05-17T15:01:28Z</time>
      </trkpt>
      <trkpt lat="43.817752003669739" lon="6.092663006857038">
        <ele>526.94000000000005</ele>
        <time>2025-05-17T15:01:29Z</time>
      </trkpt>
      <trkpt lat="43.817758960649371" lon="6.092601986601949">
        <ele>526.94000000000005</ele>
        <time>2025-05-17T15:01:30Z</time>
      </trkpt>
      <trkpt lat="43.817766001448035" lon="6.092550018802285">
        <ele>526.94000000000005</ele>
        <time>2025-05-17T15:01:31Z</time>
      </trkpt>
      <trkpt lat="43.817772958427668" lon="6.092496961355209">
        <ele>526.94000000000005</ele>
        <time>2025-05-17T15:01:32Z</time>
      </trkpt>
      <trkpt lat="43.817779999226332" lon="6.092444993555546">
        <ele>526.46000000000004</ele>
        <time>2025-05-17T15:01:33Z</time>
      </trkpt>
      <trkpt lat="43.817786034196615" lon="6.092398976907134">
        <ele>526.46000000000004</ele>
        <time>2025-05-17T15:01:34Z</time>
      </trkpt>
      <trkpt lat="43.817791985347867" lon="6.092352038249373">
        <ele>526.46000000000004</ele>
        <time>2025-05-17T15:01:35Z</time>
      </trkpt>
      <trkpt lat="43.817809000611305" lon="6.092213988304138">
        <ele>525.98000000000002</ele>
        <time>2025-05-17T15:01:38Z</time>
      </trkpt>
      <trkpt lat="43.817812018096447" lon="6.092197978869081">
        <ele>525.98000000000002</ele>
        <time>2025-05-17T15:01:39Z</time>
      </trkpt>
      <trkpt lat="43.817812018096447" lon="6.092197978869081">
        <ele>525.5</ele>
        <time>2025-05-17T15:01:40Z</time>
      </trkpt>
      <trkpt lat="43.817859962582588" lon="6.092087002471089">
        <ele>525.5</ele>
        <time>2025-05-17T15:01:41Z</time>
      </trkpt>
      <trkpt lat="43.817876977846026" lon="6.092047020792961">
        <ele>525.5</ele>
        <time>2025-05-17T15:01:42Z</time>
      </trkpt>
      <trkpt lat="43.817892987281084" lon="6.092009972780943">
        <ele>525.5</ele>
        <time>2025-05-17T15:01:43Z</time>
      </trkpt>
      <trkpt lat="43.817908996716142" lon="6.091975020244718">
        <ele>525.5</ele>
        <time>2025-05-17T15:01:44Z</time>
      </trkpt>
    </trkseg>
  </trk>

</gpx>